<?xml version="1.0" encoding="UTF-8" standalone="no" ?>
<gpx xmlns="http://www.topografix.com/GPX/1/1" xmlns:xsi="http://www.w3.org/2001/XMLSchema-instance" xsi:schemaLocation="http://www.topografix.com/GPX/1/1 http://www.topografix.com/GPX/1/1/gpx.xsd" version="1.1" creator="VisuGPX - https://www.visugpx.com">
  <metadata>
    <name>Vélo du matin</name>
  </metadata>
  <trk>
    <name><![CDATA[Vélo du matin]]></name>
    <trkseg>
      <trkpt lat="49.44507" lon="1.09652">
        <ele>28.2</ele>
        <time>2022-03-27T07:35:49Z</time>
      </trkpt>
      <trkpt lat="49.44499" lon="1.09644">
        <ele>28.2</ele>
        <time>2022-03-27T07:35:50Z</time>
      </trkpt>
      <trkpt lat="49.44491" lon="1.09639">
        <ele>28.2</ele>
        <time>2022-03-27T07:35:51Z</time>
      </trkpt>
      <trkpt lat="49.44485" lon="1.09638">
        <ele>28.1</ele>
        <time>2022-03-27T07:35:52Z</time>
      </trkpt>
      <trkpt lat="49.44481" lon="1.09639">
        <ele>28.1</ele>
        <time>2022-03-27T07:35:53Z</time>
      </trkpt>
      <trkpt lat="49.44479" lon="1.09642">
        <ele>28.1</ele>
        <time>2022-03-27T07:35:54Z</time>
      </trkpt>
      <trkpt lat="49.44477" lon="1.09645">
        <ele>28.1</ele>
        <time>2022-03-27T07:35:55Z</time>
      </trkpt>
      <trkpt lat="49.44488" lon="1.09663">
        <ele>28</ele>
        <time>2022-03-27T07:35:56Z</time>
      </trkpt>
      <trkpt lat="49.44489" lon="1.09662">
        <ele>28</ele>
        <time>2022-03-27T07:35:57Z</time>
      </trkpt>
      <trkpt lat="49.44491" lon="1.09664">
        <ele>28</ele>
        <time>2022-03-27T07:35:58Z</time>
      </trkpt>
      <trkpt lat="49.44492" lon="1.09667">
        <ele>28</ele>
        <time>2022-03-27T07:35:59Z</time>
      </trkpt>
      <trkpt lat="49.44495" lon="1.0967">
        <ele>27.9</ele>
        <time>2022-03-27T07:36:00Z</time>
      </trkpt>
      <trkpt lat="49.44496" lon="1.09672">
        <ele>27.9</ele>
        <time>2022-03-27T07:36:01Z</time>
      </trkpt>
      <trkpt lat="49.44497" lon="1.09676">
        <ele>27.9</ele>
        <time>2022-03-27T07:36:02Z</time>
      </trkpt>
      <trkpt lat="49.44497" lon="1.09678">
        <ele>27.9</ele>
        <time>2022-03-27T07:36:03Z</time>
      </trkpt>
      <trkpt lat="49.44496" lon="1.09687">
        <ele>27.9</ele>
        <time>2022-03-27T07:36:05Z</time>
      </trkpt>
      <trkpt lat="49.44495" lon="1.09688">
        <ele>27.9</ele>
        <time>2022-03-27T07:36:06Z</time>
      </trkpt>
      <trkpt lat="49.44495" lon="1.09689">
        <ele>27.9</ele>
        <time>2022-03-27T07:36:07Z</time>
      </trkpt>
      <trkpt lat="49.44494" lon="1.0969">
        <ele>27.9</ele>
        <time>2022-03-27T07:36:08Z</time>
      </trkpt>
      <trkpt lat="49.44494" lon="1.09691">
        <ele>27.9</ele>
        <time>2022-03-27T07:36:09Z</time>
      </trkpt>
      <trkpt lat="49.44494" lon="1.09692">
        <ele>27.9</ele>
        <time>2022-03-27T07:36:10Z</time>
      </trkpt>
      <trkpt lat="49.44493" lon="1.09693">
        <ele>27.8</ele>
        <time>2022-03-27T07:36:11Z</time>
      </trkpt>
      <trkpt lat="49.44492" lon="1.09694">
        <ele>27.8</ele>
        <time>2022-03-27T07:36:12Z</time>
      </trkpt>
      <trkpt lat="49.44491" lon="1.09695">
        <ele>27.8</ele>
        <time>2022-03-27T07:36:13Z</time>
      </trkpt>
      <trkpt lat="49.4449" lon="1.09695">
        <ele>27.8</ele>
        <time>2022-03-27T07:36:14Z</time>
      </trkpt>
      <trkpt lat="49.44482" lon="1.09697">
        <ele>27.4</ele>
        <time>2022-03-27T07:36:15Z</time>
      </trkpt>
      <trkpt lat="49.44478" lon="1.09695">
        <ele>27.3</ele>
        <time>2022-03-27T07:36:16Z</time>
      </trkpt>
      <trkpt lat="49.44476" lon="1.09694">
        <ele>27.2</ele>
        <time>2022-03-27T07:36:17Z</time>
      </trkpt>
      <trkpt lat="49.44475" lon="1.09693">
        <ele>27.2</ele>
        <time>2022-03-27T07:36:18Z</time>
      </trkpt>
      <trkpt lat="49.44474" lon="1.09693">
        <ele>27.2</ele>
        <time>2022-03-27T07:36:20Z</time>
      </trkpt>
      <trkpt lat="49.44473" lon="1.09695">
        <ele>27.1</ele>
        <time>2022-03-27T07:36:21Z</time>
      </trkpt>
      <trkpt lat="49.44472" lon="1.097">
        <ele>26.6</ele>
        <time>2022-03-27T07:36:22Z</time>
      </trkpt>
      <trkpt lat="49.44472" lon="1.09702">
        <ele>26.6</ele>
        <time>2022-03-27T07:36:23Z</time>
      </trkpt>
      <trkpt lat="49.44471" lon="1.09704">
        <ele>26.5</ele>
        <time>2022-03-27T07:36:24Z</time>
      </trkpt>
      <trkpt lat="49.4447" lon="1.09709">
        <ele>26.3</ele>
        <time>2022-03-27T07:36:26Z</time>
      </trkpt>
      <trkpt lat="49.44468" lon="1.09715">
        <ele>26.1</ele>
        <time>2022-03-27T07:36:27Z</time>
      </trkpt>
      <trkpt lat="49.44459" lon="1.09732">
        <ele>25.5</ele>
        <time>2022-03-27T07:36:29Z</time>
      </trkpt>
      <trkpt lat="49.44455" lon="1.09743">
        <ele>25.1</ele>
        <time>2022-03-27T07:36:31Z</time>
      </trkpt>
      <trkpt lat="49.44453" lon="1.0975">
        <ele>24.9</ele>
        <time>2022-03-27T07:36:32Z</time>
      </trkpt>
      <trkpt lat="49.4445" lon="1.0976">
        <ele>24.6</ele>
        <time>2022-03-27T07:36:33Z</time>
      </trkpt>
      <trkpt lat="49.44447" lon="1.0977">
        <ele>24.3</ele>
        <time>2022-03-27T07:36:34Z</time>
      </trkpt>
      <trkpt lat="49.44441" lon="1.09786">
        <ele>23.9</ele>
        <time>2022-03-27T07:36:35Z</time>
      </trkpt>
      <trkpt lat="49.44438" lon="1.09798">
        <ele>23.6</ele>
        <time>2022-03-27T07:36:36Z</time>
      </trkpt>
      <trkpt lat="49.44435" lon="1.09807">
        <ele>23.3</ele>
        <time>2022-03-27T07:36:37Z</time>
      </trkpt>
      <trkpt lat="49.44432" lon="1.09816">
        <ele>23.1</ele>
        <time>2022-03-27T07:36:38Z</time>
      </trkpt>
      <trkpt lat="49.4443" lon="1.09824">
        <ele>22.9</ele>
        <time>2022-03-27T07:36:39Z</time>
      </trkpt>
      <trkpt lat="49.44426" lon="1.09832">
        <ele>22.8</ele>
        <time>2022-03-27T07:36:40Z</time>
      </trkpt>
      <trkpt lat="49.44423" lon="1.09841">
        <ele>22.7</ele>
        <time>2022-03-27T07:36:41Z</time>
      </trkpt>
      <trkpt lat="49.4442" lon="1.09847">
        <ele>22.6</ele>
        <time>2022-03-27T07:36:42Z</time>
      </trkpt>
      <trkpt lat="49.44417" lon="1.09852">
        <ele>22.5</ele>
        <time>2022-03-27T07:36:43Z</time>
      </trkpt>
      <trkpt lat="49.44415" lon="1.09857">
        <ele>22.5</ele>
        <time>2022-03-27T07:36:44Z</time>
      </trkpt>
      <trkpt lat="49.44412" lon="1.09861">
        <ele>22.4</ele>
        <time>2022-03-27T07:36:45Z</time>
      </trkpt>
      <trkpt lat="49.4441" lon="1.09863">
        <ele>22.4</ele>
        <time>2022-03-27T07:36:46Z</time>
      </trkpt>
      <trkpt lat="49.44409" lon="1.09864">
        <ele>22.4</ele>
        <time>2022-03-27T07:36:47Z</time>
      </trkpt>
      <trkpt lat="49.44408" lon="1.09867">
        <ele>22.4</ele>
        <time>2022-03-27T07:36:48Z</time>
      </trkpt>
      <trkpt lat="49.44407" lon="1.09871">
        <ele>22.5</ele>
        <time>2022-03-27T07:36:50Z</time>
      </trkpt>
      <trkpt lat="49.44409" lon="1.09875">
        <ele>22.6</ele>
        <time>2022-03-27T07:36:51Z</time>
      </trkpt>
      <trkpt lat="49.44411" lon="1.09875">
        <ele>22.7</ele>
        <time>2022-03-27T07:36:52Z</time>
      </trkpt>
      <trkpt lat="49.44416" lon="1.09874">
        <ele>22.8</ele>
        <time>2022-03-27T07:36:53Z</time>
      </trkpt>
      <trkpt lat="49.44423" lon="1.09872">
        <ele>23</ele>
        <time>2022-03-27T07:36:54Z</time>
      </trkpt>
      <trkpt lat="49.44428" lon="1.09875">
        <ele>23.1</ele>
        <time>2022-03-27T07:36:55Z</time>
      </trkpt>
      <trkpt lat="49.44435" lon="1.09877">
        <ele>23.3</ele>
        <time>2022-03-27T07:36:56Z</time>
      </trkpt>
      <trkpt lat="49.44446" lon="1.0988">
        <ele>23.9</ele>
        <time>2022-03-27T07:36:58Z</time>
      </trkpt>
      <trkpt lat="49.44452" lon="1.09898">
        <ele>24.7</ele>
        <time>2022-03-27T07:36:59Z</time>
      </trkpt>
      <trkpt lat="49.44453" lon="1.09902">
        <ele>24.8</ele>
        <time>2022-03-27T07:37:00Z</time>
      </trkpt>
      <trkpt lat="49.44454" lon="1.09902">
        <ele>24.9</ele>
        <time>2022-03-27T07:37:01Z</time>
      </trkpt>
      <trkpt lat="49.44453" lon="1.09904">
        <ele>25</ele>
        <time>2022-03-27T07:37:02Z</time>
      </trkpt>
      <trkpt lat="49.44452" lon="1.09907">
        <ele>25.1</ele>
        <time>2022-03-27T07:37:03Z</time>
      </trkpt>
      <trkpt lat="49.4445" lon="1.09911">
        <ele>26.3</ele>
        <time>2022-03-27T07:37:04Z</time>
      </trkpt>
      <trkpt lat="49.44449" lon="1.09912">
        <ele>26.2</ele>
        <time>2022-03-27T07:37:05Z</time>
      </trkpt>
      <trkpt lat="49.44448" lon="1.09919">
        <ele>25.9</ele>
        <time>2022-03-27T07:37:07Z</time>
      </trkpt>
      <trkpt lat="49.44447" lon="1.09925">
        <ele>25.7</ele>
        <time>2022-03-27T07:37:08Z</time>
      </trkpt>
      <trkpt lat="49.44445" lon="1.09931">
        <ele>25.4</ele>
        <time>2022-03-27T07:37:09Z</time>
      </trkpt>
      <trkpt lat="49.44444" lon="1.09936">
        <ele>25.2</ele>
        <time>2022-03-27T07:37:10Z</time>
      </trkpt>
      <trkpt lat="49.44443" lon="1.09943">
        <ele>25.1</ele>
        <time>2022-03-27T07:37:11Z</time>
      </trkpt>
      <trkpt lat="49.44442" lon="1.09948">
        <ele>25.1</ele>
        <time>2022-03-27T07:37:12Z</time>
      </trkpt>
      <trkpt lat="49.4444" lon="1.09955">
        <ele>25.1</ele>
        <time>2022-03-27T07:37:13Z</time>
      </trkpt>
      <trkpt lat="49.4444" lon="1.09963">
        <ele>25.1</ele>
        <time>2022-03-27T07:37:14Z</time>
      </trkpt>
      <trkpt lat="49.44439" lon="1.09976">
        <ele>25</ele>
        <time>2022-03-27T07:37:15Z</time>
      </trkpt>
      <trkpt lat="49.44438" lon="1.09983">
        <ele>24.9</ele>
        <time>2022-03-27T07:37:16Z</time>
      </trkpt>
      <trkpt lat="49.44436" lon="1.09988">
        <ele>24.8</ele>
        <time>2022-03-27T07:37:17Z</time>
      </trkpt>
      <trkpt lat="49.44434" lon="1.09993">
        <ele>24.7</ele>
        <time>2022-03-27T07:37:18Z</time>
      </trkpt>
      <trkpt lat="49.44433" lon="1.09996">
        <ele>24.6</ele>
        <time>2022-03-27T07:37:19Z</time>
      </trkpt>
      <trkpt lat="49.44432" lon="1.10001">
        <ele>24.6</ele>
        <time>2022-03-27T07:37:20Z</time>
      </trkpt>
      <trkpt lat="49.4443" lon="1.10005">
        <ele>24.5</ele>
        <time>2022-03-27T07:37:21Z</time>
      </trkpt>
      <trkpt lat="49.44428" lon="1.1001">
        <ele>24.4</ele>
        <time>2022-03-27T07:37:22Z</time>
      </trkpt>
      <trkpt lat="49.44426" lon="1.10015">
        <ele>24.3</ele>
        <time>2022-03-27T07:37:23Z</time>
      </trkpt>
      <trkpt lat="49.44424" lon="1.1002">
        <ele>24.2</ele>
        <time>2022-03-27T07:37:24Z</time>
      </trkpt>
      <trkpt lat="49.44419" lon="1.1003">
        <ele>24.1</ele>
        <time>2022-03-27T07:37:26Z</time>
      </trkpt>
      <trkpt lat="49.44417" lon="1.10038">
        <ele>24</ele>
        <time>2022-03-27T07:37:27Z</time>
      </trkpt>
      <trkpt lat="49.44414" lon="1.10043">
        <ele>23.9</ele>
        <time>2022-03-27T07:37:29Z</time>
      </trkpt>
      <trkpt lat="49.44408" lon="1.10057">
        <ele>23.7</ele>
        <time>2022-03-27T07:37:30Z</time>
      </trkpt>
      <trkpt lat="49.44407" lon="1.10064">
        <ele>23.6</ele>
        <time>2022-03-27T07:37:31Z</time>
      </trkpt>
      <trkpt lat="49.44405" lon="1.10072">
        <ele>23.5</ele>
        <time>2022-03-27T07:37:32Z</time>
      </trkpt>
      <trkpt lat="49.44404" lon="1.10078">
        <ele>23.4</ele>
        <time>2022-03-27T07:37:33Z</time>
      </trkpt>
      <trkpt lat="49.44402" lon="1.10082">
        <ele>23.4</ele>
        <time>2022-03-27T07:37:34Z</time>
      </trkpt>
      <trkpt lat="49.444" lon="1.1009">
        <ele>23.2</ele>
        <time>2022-03-27T07:37:35Z</time>
      </trkpt>
      <trkpt lat="49.44399" lon="1.10097">
        <ele>23.1</ele>
        <time>2022-03-27T07:37:36Z</time>
      </trkpt>
      <trkpt lat="49.44398" lon="1.10103">
        <ele>23</ele>
        <time>2022-03-27T07:37:37Z</time>
      </trkpt>
      <trkpt lat="49.44396" lon="1.10108">
        <ele>22.9</ele>
        <time>2022-03-27T07:37:38Z</time>
      </trkpt>
      <trkpt lat="49.44393" lon="1.10115">
        <ele>22.7</ele>
        <time>2022-03-27T07:37:39Z</time>
      </trkpt>
      <trkpt lat="49.44391" lon="1.10124">
        <ele>22.5</ele>
        <time>2022-03-27T07:37:40Z</time>
      </trkpt>
      <trkpt lat="49.44388" lon="1.10132">
        <ele>22.3</ele>
        <time>2022-03-27T07:37:41Z</time>
      </trkpt>
      <trkpt lat="49.44385" lon="1.10139">
        <ele>22.1</ele>
        <time>2022-03-27T07:37:42Z</time>
      </trkpt>
      <trkpt lat="49.44382" lon="1.10147">
        <ele>21.9</ele>
        <time>2022-03-27T07:37:43Z</time>
      </trkpt>
      <trkpt lat="49.44378" lon="1.10155">
        <ele>21.6</ele>
        <time>2022-03-27T07:37:44Z</time>
      </trkpt>
      <trkpt lat="49.44374" lon="1.10162">
        <ele>21.4</ele>
        <time>2022-03-27T07:37:45Z</time>
      </trkpt>
      <trkpt lat="49.44371" lon="1.10171">
        <ele>21.3</ele>
        <time>2022-03-27T07:37:46Z</time>
      </trkpt>
      <trkpt lat="49.44369" lon="1.10179">
        <ele>21.1</ele>
        <time>2022-03-27T07:37:47Z</time>
      </trkpt>
      <trkpt lat="49.44368" lon="1.10188">
        <ele>20.8</ele>
        <time>2022-03-27T07:37:48Z</time>
      </trkpt>
      <trkpt lat="49.44368" lon="1.10197">
        <ele>20.7</ele>
        <time>2022-03-27T07:37:49Z</time>
      </trkpt>
      <trkpt lat="49.44365" lon="1.10205">
        <ele>20.6</ele>
        <time>2022-03-27T07:37:50Z</time>
      </trkpt>
      <trkpt lat="49.44362" lon="1.10223">
        <ele>20.5</ele>
        <time>2022-03-27T07:37:52Z</time>
      </trkpt>
      <trkpt lat="49.44362" lon="1.10232">
        <ele>20.4</ele>
        <time>2022-03-27T07:37:53Z</time>
      </trkpt>
      <trkpt lat="49.4436" lon="1.10239">
        <ele>20.3</ele>
        <time>2022-03-27T07:37:54Z</time>
      </trkpt>
      <trkpt lat="49.4436" lon="1.10244">
        <ele>20.3</ele>
        <time>2022-03-27T07:37:55Z</time>
      </trkpt>
      <trkpt lat="49.44357" lon="1.10252">
        <ele>20.2</ele>
        <time>2022-03-27T07:37:56Z</time>
      </trkpt>
      <trkpt lat="49.44351" lon="1.10272">
        <ele>20.1</ele>
        <time>2022-03-27T07:37:58Z</time>
      </trkpt>
      <trkpt lat="49.44349" lon="1.1028">
        <ele>20</ele>
        <time>2022-03-27T07:37:59Z</time>
      </trkpt>
      <trkpt lat="49.44347" lon="1.10286">
        <ele>19.9</ele>
        <time>2022-03-27T07:38:00Z</time>
      </trkpt>
      <trkpt lat="49.44346" lon="1.1029">
        <ele>19.9</ele>
        <time>2022-03-27T07:38:01Z</time>
      </trkpt>
      <trkpt lat="49.44344" lon="1.10295">
        <ele>19.9</ele>
        <time>2022-03-27T07:38:02Z</time>
      </trkpt>
      <trkpt lat="49.44343" lon="1.10305">
        <ele>19.8</ele>
        <time>2022-03-27T07:38:04Z</time>
      </trkpt>
      <trkpt lat="49.44342" lon="1.10308">
        <ele>19.7</ele>
        <time>2022-03-27T07:38:05Z</time>
      </trkpt>
      <trkpt lat="49.44342" lon="1.10311">
        <ele>19.7</ele>
        <time>2022-03-27T07:38:06Z</time>
      </trkpt>
      <trkpt lat="49.44341" lon="1.10323">
        <ele>19.6</ele>
        <time>2022-03-27T07:38:08Z</time>
      </trkpt>
      <trkpt lat="49.4434" lon="1.10334">
        <ele>19.5</ele>
        <time>2022-03-27T07:38:09Z</time>
      </trkpt>
      <trkpt lat="49.44338" lon="1.10341">
        <ele>19.4</ele>
        <time>2022-03-27T07:38:10Z</time>
      </trkpt>
      <trkpt lat="49.44336" lon="1.1035">
        <ele>19.3</ele>
        <time>2022-03-27T07:38:11Z</time>
      </trkpt>
      <trkpt lat="49.44333" lon="1.10363">
        <ele>19.1</ele>
        <time>2022-03-27T07:38:12Z</time>
      </trkpt>
      <trkpt lat="49.4433" lon="1.1037">
        <ele>19</ele>
        <time>2022-03-27T07:38:13Z</time>
      </trkpt>
      <trkpt lat="49.44328" lon="1.10376">
        <ele>18.9</ele>
        <time>2022-03-27T07:38:14Z</time>
      </trkpt>
      <trkpt lat="49.44326" lon="1.10382">
        <ele>18.8</ele>
        <time>2022-03-27T07:38:16Z</time>
      </trkpt>
      <trkpt lat="49.44324" lon="1.10393">
        <ele>18.7</ele>
        <time>2022-03-27T07:38:17Z</time>
      </trkpt>
      <trkpt lat="49.44321" lon="1.10399">
        <ele>18.6</ele>
        <time>2022-03-27T07:38:18Z</time>
      </trkpt>
      <trkpt lat="49.44319" lon="1.10405">
        <ele>18.5</ele>
        <time>2022-03-27T07:38:19Z</time>
      </trkpt>
      <trkpt lat="49.44315" lon="1.10414">
        <ele>18.4</ele>
        <time>2022-03-27T07:38:21Z</time>
      </trkpt>
      <trkpt lat="49.44312" lon="1.10422">
        <ele>18.3</ele>
        <time>2022-03-27T07:38:22Z</time>
      </trkpt>
      <trkpt lat="49.44311" lon="1.10428">
        <ele>18.2</ele>
        <time>2022-03-27T07:38:23Z</time>
      </trkpt>
      <trkpt lat="49.44309" lon="1.10433">
        <ele>18.2</ele>
        <time>2022-03-27T07:38:24Z</time>
      </trkpt>
      <trkpt lat="49.44307" lon="1.10437">
        <ele>18.2</ele>
        <time>2022-03-27T07:38:25Z</time>
      </trkpt>
      <trkpt lat="49.44306" lon="1.10442">
        <ele>18.1</ele>
        <time>2022-03-27T07:38:26Z</time>
      </trkpt>
      <trkpt lat="49.44305" lon="1.1045">
        <ele>18.1</ele>
        <time>2022-03-27T07:38:27Z</time>
      </trkpt>
      <trkpt lat="49.44306" lon="1.10455">
        <ele>18</ele>
        <time>2022-03-27T07:38:28Z</time>
      </trkpt>
      <trkpt lat="49.44306" lon="1.10465">
        <ele>18</ele>
        <time>2022-03-27T07:38:31Z</time>
      </trkpt>
      <trkpt lat="49.44305" lon="1.10471">
        <ele>18</ele>
        <time>2022-03-27T07:38:32Z</time>
      </trkpt>
      <trkpt lat="49.44305" lon="1.10473">
        <ele>18</ele>
        <time>2022-03-27T07:38:33Z</time>
      </trkpt>
      <trkpt lat="49.44304" lon="1.10478">
        <ele>17.9</ele>
        <time>2022-03-27T07:38:34Z</time>
      </trkpt>
      <trkpt lat="49.44299" lon="1.10483">
        <ele>17.9</ele>
        <time>2022-03-27T07:38:36Z</time>
      </trkpt>
      <trkpt lat="49.44296" lon="1.10487">
        <ele>17.9</ele>
        <time>2022-03-27T07:38:37Z</time>
      </trkpt>
      <trkpt lat="49.44292" lon="1.10492">
        <ele>17.8</ele>
        <time>2022-03-27T07:38:38Z</time>
      </trkpt>
      <trkpt lat="49.44289" lon="1.10497">
        <ele>17.8</ele>
        <time>2022-03-27T07:38:40Z</time>
      </trkpt>
      <trkpt lat="49.44286" lon="1.10501">
        <ele>17.7</ele>
        <time>2022-03-27T07:38:41Z</time>
      </trkpt>
      <trkpt lat="49.44285" lon="1.10504">
        <ele>17.7</ele>
        <time>2022-03-27T07:38:42Z</time>
      </trkpt>
      <trkpt lat="49.44284" lon="1.10505">
        <ele>17.7</ele>
        <time>2022-03-27T07:38:43Z</time>
      </trkpt>
      <trkpt lat="49.44284" lon="1.10506">
        <ele>17.7</ele>
        <time>2022-03-27T07:38:44Z</time>
      </trkpt>
      <trkpt lat="49.44283" lon="1.10508">
        <ele>17.7</ele>
        <time>2022-03-27T07:38:46Z</time>
      </trkpt>
      <trkpt lat="49.4428" lon="1.10516">
        <ele>17.6</ele>
        <time>2022-03-27T07:38:48Z</time>
      </trkpt>
      <trkpt lat="49.44274" lon="1.10522">
        <ele>17.5</ele>
        <time>2022-03-27T07:38:49Z</time>
      </trkpt>
      <trkpt lat="49.44268" lon="1.10526">
        <ele>17.5</ele>
        <time>2022-03-27T07:38:50Z</time>
      </trkpt>
      <trkpt lat="49.44264" lon="1.10531">
        <ele>17.4</ele>
        <time>2022-03-27T07:38:51Z</time>
      </trkpt>
      <trkpt lat="49.44261" lon="1.10542">
        <ele>17.3</ele>
        <time>2022-03-27T07:38:53Z</time>
      </trkpt>
      <trkpt lat="49.4426" lon="1.10555">
        <ele>17.3</ele>
        <time>2022-03-27T07:38:54Z</time>
      </trkpt>
      <trkpt lat="49.44261" lon="1.10561">
        <ele>17.3</ele>
        <time>2022-03-27T07:38:55Z</time>
      </trkpt>
      <trkpt lat="49.44258" lon="1.10569">
        <ele>17.2</ele>
        <time>2022-03-27T07:38:56Z</time>
      </trkpt>
      <trkpt lat="49.44256" lon="1.10577">
        <ele>17.2</ele>
        <time>2022-03-27T07:38:57Z</time>
      </trkpt>
      <trkpt lat="49.44254" lon="1.10582">
        <ele>17.2</ele>
        <time>2022-03-27T07:38:58Z</time>
      </trkpt>
      <trkpt lat="49.44251" lon="1.10588">
        <ele>17.3</ele>
        <time>2022-03-27T07:38:59Z</time>
      </trkpt>
      <trkpt lat="49.44249" lon="1.10594">
        <ele>17.3</ele>
        <time>2022-03-27T07:39:00Z</time>
      </trkpt>
      <trkpt lat="49.44246" lon="1.10599">
        <ele>17.3</ele>
        <time>2022-03-27T07:39:01Z</time>
      </trkpt>
      <trkpt lat="49.44243" lon="1.10604">
        <ele>17.4</ele>
        <time>2022-03-27T07:39:02Z</time>
      </trkpt>
      <trkpt lat="49.44236" lon="1.1061">
        <ele>17.3</ele>
        <time>2022-03-27T07:39:04Z</time>
      </trkpt>
      <trkpt lat="49.44231" lon="1.10615">
        <ele>17.1</ele>
        <time>2022-03-27T07:39:05Z</time>
      </trkpt>
      <trkpt lat="49.44231" lon="1.10622">
        <ele>17</ele>
        <time>2022-03-27T07:39:06Z</time>
      </trkpt>
      <trkpt lat="49.4423" lon="1.10627">
        <ele>17</ele>
        <time>2022-03-27T07:39:07Z</time>
      </trkpt>
      <trkpt lat="49.4423" lon="1.10638">
        <ele>17</ele>
        <time>2022-03-27T07:39:09Z</time>
      </trkpt>
      <trkpt lat="49.4423" lon="1.10642">
        <ele>17</ele>
        <time>2022-03-27T07:39:10Z</time>
      </trkpt>
      <trkpt lat="49.4423" lon="1.10646">
        <ele>17</ele>
        <time>2022-03-27T07:39:11Z</time>
      </trkpt>
      <trkpt lat="49.4423" lon="1.10656">
        <ele>17</ele>
        <time>2022-03-27T07:39:14Z</time>
      </trkpt>
      <trkpt lat="49.44231" lon="1.10667">
        <ele>17.1</ele>
        <time>2022-03-27T07:39:15Z</time>
      </trkpt>
      <trkpt lat="49.44232" lon="1.10675">
        <ele>17.1</ele>
        <time>2022-03-27T07:39:16Z</time>
      </trkpt>
      <trkpt lat="49.44234" lon="1.10686">
        <ele>17.1</ele>
        <time>2022-03-27T07:39:18Z</time>
      </trkpt>
      <trkpt lat="49.44234" lon="1.10694">
        <ele>17.2</ele>
        <time>2022-03-27T07:39:19Z</time>
      </trkpt>
      <trkpt lat="49.44234" lon="1.10707">
        <ele>17.2</ele>
        <time>2022-03-27T07:39:21Z</time>
      </trkpt>
      <trkpt lat="49.44235" lon="1.10715">
        <ele>17.2</ele>
        <time>2022-03-27T07:39:22Z</time>
      </trkpt>
      <trkpt lat="49.44235" lon="1.10722">
        <ele>17.2</ele>
        <time>2022-03-27T07:39:23Z</time>
      </trkpt>
      <trkpt lat="49.44235" lon="1.10729">
        <ele>17.2</ele>
        <time>2022-03-27T07:39:24Z</time>
      </trkpt>
      <trkpt lat="49.44235" lon="1.10735">
        <ele>17.2</ele>
        <time>2022-03-27T07:39:25Z</time>
      </trkpt>
      <trkpt lat="49.44234" lon="1.1074">
        <ele>17.2</ele>
        <time>2022-03-27T07:39:26Z</time>
      </trkpt>
      <trkpt lat="49.44232" lon="1.10752">
        <ele>17.2</ele>
        <time>2022-03-27T07:39:28Z</time>
      </trkpt>
      <trkpt lat="49.44231" lon="1.10759">
        <ele>17.3</ele>
        <time>2022-03-27T07:39:29Z</time>
      </trkpt>
      <trkpt lat="49.44231" lon="1.10768">
        <ele>17.3</ele>
        <time>2022-03-27T07:39:30Z</time>
      </trkpt>
      <trkpt lat="49.44233" lon="1.10773">
        <ele>17.3</ele>
        <time>2022-03-27T07:39:31Z</time>
      </trkpt>
      <trkpt lat="49.44232" lon="1.10784">
        <ele>17.3</ele>
        <time>2022-03-27T07:39:33Z</time>
      </trkpt>
      <trkpt lat="49.44231" lon="1.1079">
        <ele>17.4</ele>
        <time>2022-03-27T07:39:34Z</time>
      </trkpt>
      <trkpt lat="49.44229" lon="1.10803">
        <ele>17.4</ele>
        <time>2022-03-27T07:39:36Z</time>
      </trkpt>
      <trkpt lat="49.44229" lon="1.10809">
        <ele>17.4</ele>
        <time>2022-03-27T07:39:37Z</time>
      </trkpt>
      <trkpt lat="49.44228" lon="1.10815">
        <ele>17.4</ele>
        <time>2022-03-27T07:39:38Z</time>
      </trkpt>
      <trkpt lat="49.44229" lon="1.10821">
        <ele>17.4</ele>
        <time>2022-03-27T07:39:39Z</time>
      </trkpt>
      <trkpt lat="49.4423" lon="1.10827">
        <ele>17.4</ele>
        <time>2022-03-27T07:39:40Z</time>
      </trkpt>
      <trkpt lat="49.4423" lon="1.10837">
        <ele>17.4</ele>
        <time>2022-03-27T07:39:42Z</time>
      </trkpt>
      <trkpt lat="49.44232" lon="1.10846">
        <ele>17.4</ele>
        <time>2022-03-27T07:39:44Z</time>
      </trkpt>
      <trkpt lat="49.44232" lon="1.10853">
        <ele>17.4</ele>
        <time>2022-03-27T07:39:45Z</time>
      </trkpt>
      <trkpt lat="49.44233" lon="1.10865">
        <ele>17.4</ele>
        <time>2022-03-27T07:39:47Z</time>
      </trkpt>
      <trkpt lat="49.44233" lon="1.10871">
        <ele>17.4</ele>
        <time>2022-03-27T07:39:48Z</time>
      </trkpt>
      <trkpt lat="49.44233" lon="1.10876">
        <ele>17.4</ele>
        <time>2022-03-27T07:39:49Z</time>
      </trkpt>
      <trkpt lat="49.44233" lon="1.10882">
        <ele>17.4</ele>
        <time>2022-03-27T07:39:50Z</time>
      </trkpt>
      <trkpt lat="49.44233" lon="1.10887">
        <ele>17.5</ele>
        <time>2022-03-27T07:39:51Z</time>
      </trkpt>
      <trkpt lat="49.44234" lon="1.109">
        <ele>17.5</ele>
        <time>2022-03-27T07:39:53Z</time>
      </trkpt>
      <trkpt lat="49.44234" lon="1.10908">
        <ele>17.5</ele>
        <time>2022-03-27T07:39:54Z</time>
      </trkpt>
      <trkpt lat="49.44234" lon="1.10914">
        <ele>17.6</ele>
        <time>2022-03-27T07:39:55Z</time>
      </trkpt>
      <trkpt lat="49.44233" lon="1.10924">
        <ele>17.6</ele>
        <time>2022-03-27T07:39:57Z</time>
      </trkpt>
      <trkpt lat="49.44231" lon="1.1093">
        <ele>17.6</ele>
        <time>2022-03-27T07:39:58Z</time>
      </trkpt>
      <trkpt lat="49.44229" lon="1.10937">
        <ele>17.7</ele>
        <time>2022-03-27T07:39:59Z</time>
      </trkpt>
      <trkpt lat="49.44228" lon="1.10946">
        <ele>17.7</ele>
        <time>2022-03-27T07:40:00Z</time>
      </trkpt>
      <trkpt lat="49.44227" lon="1.10952">
        <ele>17.8</ele>
        <time>2022-03-27T07:40:01Z</time>
      </trkpt>
      <trkpt lat="49.44228" lon="1.10955">
        <ele>17.8</ele>
        <time>2022-03-27T07:40:02Z</time>
      </trkpt>
      <trkpt lat="49.44223" lon="1.10967">
        <ele>17.9</ele>
        <time>2022-03-27T07:40:04Z</time>
      </trkpt>
      <trkpt lat="49.44222" lon="1.10973">
        <ele>17.9</ele>
        <time>2022-03-27T07:40:05Z</time>
      </trkpt>
      <trkpt lat="49.44221" lon="1.10984">
        <ele>18</ele>
        <time>2022-03-27T07:40:06Z</time>
      </trkpt>
      <trkpt lat="49.44223" lon="1.10991">
        <ele>18</ele>
        <time>2022-03-27T07:40:07Z</time>
      </trkpt>
      <trkpt lat="49.44224" lon="1.10996">
        <ele>18.1</ele>
        <time>2022-03-27T07:40:09Z</time>
      </trkpt>
      <trkpt lat="49.44224" lon="1.10999">
        <ele>18.1</ele>
        <time>2022-03-27T07:40:10Z</time>
      </trkpt>
      <trkpt lat="49.44224" lon="1.11008">
        <ele>18.1</ele>
        <time>2022-03-27T07:40:11Z</time>
      </trkpt>
      <trkpt lat="49.44224" lon="1.11015">
        <ele>18.2</ele>
        <time>2022-03-27T07:40:12Z</time>
      </trkpt>
      <trkpt lat="49.44223" lon="1.11022">
        <ele>18.2</ele>
        <time>2022-03-27T07:40:13Z</time>
      </trkpt>
      <trkpt lat="49.44223" lon="1.11028">
        <ele>18.2</ele>
        <time>2022-03-27T07:40:14Z</time>
      </trkpt>
      <trkpt lat="49.44223" lon="1.11033">
        <ele>18.3</ele>
        <time>2022-03-27T07:40:15Z</time>
      </trkpt>
      <trkpt lat="49.44224" lon="1.11038">
        <ele>18.3</ele>
        <time>2022-03-27T07:40:16Z</time>
      </trkpt>
      <trkpt lat="49.44224" lon="1.11045">
        <ele>18.3</ele>
        <time>2022-03-27T07:40:17Z</time>
      </trkpt>
      <trkpt lat="49.44225" lon="1.11053">
        <ele>18.4</ele>
        <time>2022-03-27T07:40:18Z</time>
      </trkpt>
      <trkpt lat="49.44226" lon="1.11065">
        <ele>18.5</ele>
        <time>2022-03-27T07:40:20Z</time>
      </trkpt>
      <trkpt lat="49.44226" lon="1.11072">
        <ele>18.6</ele>
        <time>2022-03-27T07:40:21Z</time>
      </trkpt>
      <trkpt lat="49.44226" lon="1.11079">
        <ele>18.6</ele>
        <time>2022-03-27T07:40:22Z</time>
      </trkpt>
      <trkpt lat="49.44226" lon="1.11087">
        <ele>18.7</ele>
        <time>2022-03-27T07:40:23Z</time>
      </trkpt>
      <trkpt lat="49.44227" lon="1.11094">
        <ele>18.8</ele>
        <time>2022-03-27T07:40:24Z</time>
      </trkpt>
      <trkpt lat="49.44225" lon="1.11108">
        <ele>18.9</ele>
        <time>2022-03-27T07:40:25Z</time>
      </trkpt>
      <trkpt lat="49.44223" lon="1.11115">
        <ele>19</ele>
        <time>2022-03-27T07:40:26Z</time>
      </trkpt>
      <trkpt lat="49.44224" lon="1.1112">
        <ele>19</ele>
        <time>2022-03-27T07:40:27Z</time>
      </trkpt>
      <trkpt lat="49.44224" lon="1.11139">
        <ele>19.2</ele>
        <time>2022-03-27T07:40:29Z</time>
      </trkpt>
      <trkpt lat="49.44222" lon="1.11152">
        <ele>19.3</ele>
        <time>2022-03-27T07:40:31Z</time>
      </trkpt>
      <trkpt lat="49.44221" lon="1.11159">
        <ele>19.4</ele>
        <time>2022-03-27T07:40:32Z</time>
      </trkpt>
      <trkpt lat="49.44222" lon="1.11162">
        <ele>19.4</ele>
        <time>2022-03-27T07:40:33Z</time>
      </trkpt>
      <trkpt lat="49.44224" lon="1.11168">
        <ele>19.5</ele>
        <time>2022-03-27T07:40:34Z</time>
      </trkpt>
      <trkpt lat="49.44226" lon="1.11176">
        <ele>19.6</ele>
        <time>2022-03-27T07:40:35Z</time>
      </trkpt>
      <trkpt lat="49.44225" lon="1.11183">
        <ele>19.6</ele>
        <time>2022-03-27T07:40:36Z</time>
      </trkpt>
      <trkpt lat="49.44224" lon="1.11189">
        <ele>19.7</ele>
        <time>2022-03-27T07:40:37Z</time>
      </trkpt>
      <trkpt lat="49.44224" lon="1.11197">
        <ele>19.8</ele>
        <time>2022-03-27T07:40:38Z</time>
      </trkpt>
      <trkpt lat="49.44223" lon="1.11202">
        <ele>19.9</ele>
        <time>2022-03-27T07:40:39Z</time>
      </trkpt>
      <trkpt lat="49.44223" lon="1.11209">
        <ele>19.9</ele>
        <time>2022-03-27T07:40:40Z</time>
      </trkpt>
      <trkpt lat="49.44223" lon="1.11214">
        <ele>20</ele>
        <time>2022-03-27T07:40:41Z</time>
      </trkpt>
      <trkpt lat="49.44223" lon="1.11219">
        <ele>20</ele>
        <time>2022-03-27T07:40:42Z</time>
      </trkpt>
      <trkpt lat="49.44218" lon="1.11221">
        <ele>20.1</ele>
        <time>2022-03-27T07:40:43Z</time>
      </trkpt>
      <trkpt lat="49.44218" lon="1.11227">
        <ele>20.2</ele>
        <time>2022-03-27T07:40:45Z</time>
      </trkpt>
      <trkpt lat="49.44216" lon="1.11236">
        <ele>20.2</ele>
        <time>2022-03-27T07:40:46Z</time>
      </trkpt>
      <trkpt lat="49.44217" lon="1.11238">
        <ele>20.2</ele>
        <time>2022-03-27T07:40:47Z</time>
      </trkpt>
      <trkpt lat="49.44218" lon="1.1124">
        <ele>20.2</ele>
        <time>2022-03-27T07:40:48Z</time>
      </trkpt>
      <trkpt lat="49.44218" lon="1.11242">
        <ele>20.2</ele>
        <time>2022-03-27T07:40:49Z</time>
      </trkpt>
      <trkpt lat="49.44216" lon="1.11245">
        <ele>20.2</ele>
        <time>2022-03-27T07:40:51Z</time>
      </trkpt>
      <trkpt lat="49.44213" lon="1.11247">
        <ele>20.2</ele>
        <time>2022-03-27T07:40:52Z</time>
      </trkpt>
      <trkpt lat="49.4421" lon="1.11251">
        <ele>20.2</ele>
        <time>2022-03-27T07:40:54Z</time>
      </trkpt>
      <trkpt lat="49.44207" lon="1.11253">
        <ele>20.1</ele>
        <time>2022-03-27T07:40:55Z</time>
      </trkpt>
      <trkpt lat="49.44205" lon="1.11256">
        <ele>20</ele>
        <time>2022-03-27T07:40:57Z</time>
      </trkpt>
      <trkpt lat="49.44199" lon="1.11263">
        <ele>19.8</ele>
        <time>2022-03-27T07:40:59Z</time>
      </trkpt>
      <trkpt lat="49.44192" lon="1.11272">
        <ele>19.6</ele>
        <time>2022-03-27T07:41:00Z</time>
      </trkpt>
      <trkpt lat="49.44189" lon="1.11276">
        <ele>19.6</ele>
        <time>2022-03-27T07:41:02Z</time>
      </trkpt>
      <trkpt lat="49.44188" lon="1.11281">
        <ele>19.5</ele>
        <time>2022-03-27T07:41:03Z</time>
      </trkpt>
      <trkpt lat="49.44188" lon="1.11283">
        <ele>19.5</ele>
        <time>2022-03-27T07:41:04Z</time>
      </trkpt>
      <trkpt lat="49.44187" lon="1.11286">
        <ele>19.5</ele>
        <time>2022-03-27T07:41:05Z</time>
      </trkpt>
      <trkpt lat="49.44188" lon="1.11291">
        <ele>19.3</ele>
        <time>2022-03-27T07:41:07Z</time>
      </trkpt>
      <trkpt lat="49.44188" lon="1.11291">
        <ele>19.3</ele>
        <time>2022-03-27T07:41:08Z</time>
      </trkpt>
      <trkpt lat="49.4419" lon="1.11298">
        <ele>19.2</ele>
        <time>2022-03-27T07:41:10Z</time>
      </trkpt>
      <trkpt lat="49.44191" lon="1.11299">
        <ele>19.2</ele>
        <time>2022-03-27T07:41:11Z</time>
      </trkpt>
      <trkpt lat="49.44192" lon="1.11301">
        <ele>19.2</ele>
        <time>2022-03-27T07:41:12Z</time>
      </trkpt>
      <trkpt lat="49.44195" lon="1.11305">
        <ele>19.3</ele>
        <time>2022-03-27T07:41:14Z</time>
      </trkpt>
      <trkpt lat="49.44197" lon="1.11311">
        <ele>19.6</ele>
        <time>2022-03-27T07:41:15Z</time>
      </trkpt>
      <trkpt lat="49.44199" lon="1.11317">
        <ele>19.7</ele>
        <time>2022-03-27T07:41:16Z</time>
      </trkpt>
      <trkpt lat="49.44202" lon="1.11322">
        <ele>19.8</ele>
        <time>2022-03-27T07:41:17Z</time>
      </trkpt>
      <trkpt lat="49.44205" lon="1.11328">
        <ele>19.9</ele>
        <time>2022-03-27T07:41:18Z</time>
      </trkpt>
      <trkpt lat="49.44207" lon="1.11332">
        <ele>20</ele>
        <time>2022-03-27T07:41:19Z</time>
      </trkpt>
      <trkpt lat="49.4421" lon="1.1134">
        <ele>20.2</ele>
        <time>2022-03-27T07:41:21Z</time>
      </trkpt>
      <trkpt lat="49.4421" lon="1.11345">
        <ele>20.2</ele>
        <time>2022-03-27T07:41:22Z</time>
      </trkpt>
      <trkpt lat="49.44212" lon="1.11354">
        <ele>20.2</ele>
        <time>2022-03-27T07:41:24Z</time>
      </trkpt>
      <trkpt lat="49.44212" lon="1.11363">
        <ele>20.2</ele>
        <time>2022-03-27T07:41:26Z</time>
      </trkpt>
      <trkpt lat="49.44211" lon="1.1137">
        <ele>20.2</ele>
        <time>2022-03-27T07:41:27Z</time>
      </trkpt>
      <trkpt lat="49.44211" lon="1.11376">
        <ele>20.3</ele>
        <time>2022-03-27T07:41:28Z</time>
      </trkpt>
      <trkpt lat="49.4421" lon="1.11383">
        <ele>20.3</ele>
        <time>2022-03-27T07:41:29Z</time>
      </trkpt>
      <trkpt lat="49.4421" lon="1.11397">
        <ele>20.3</ele>
        <time>2022-03-27T07:41:31Z</time>
      </trkpt>
      <trkpt lat="49.4421" lon="1.11408">
        <ele>20.2</ele>
        <time>2022-03-27T07:41:33Z</time>
      </trkpt>
      <trkpt lat="49.4421" lon="1.11415">
        <ele>20.2</ele>
        <time>2022-03-27T07:41:34Z</time>
      </trkpt>
      <trkpt lat="49.4421" lon="1.11423">
        <ele>20.2</ele>
        <time>2022-03-27T07:41:35Z</time>
      </trkpt>
      <trkpt lat="49.4421" lon="1.11431">
        <ele>20.2</ele>
        <time>2022-03-27T07:41:36Z</time>
      </trkpt>
      <trkpt lat="49.4421" lon="1.11439">
        <ele>20.2</ele>
        <time>2022-03-27T07:41:37Z</time>
      </trkpt>
      <trkpt lat="49.4421" lon="1.11446">
        <ele>20.2</ele>
        <time>2022-03-27T07:41:38Z</time>
      </trkpt>
      <trkpt lat="49.44209" lon="1.11454">
        <ele>20.2</ele>
        <time>2022-03-27T07:41:39Z</time>
      </trkpt>
      <trkpt lat="49.44208" lon="1.11461">
        <ele>20.1</ele>
        <time>2022-03-27T07:41:40Z</time>
      </trkpt>
      <trkpt lat="49.44208" lon="1.11469">
        <ele>20.1</ele>
        <time>2022-03-27T07:41:41Z</time>
      </trkpt>
      <trkpt lat="49.44207" lon="1.11474">
        <ele>20.1</ele>
        <time>2022-03-27T07:41:42Z</time>
      </trkpt>
      <trkpt lat="49.44206" lon="1.1148">
        <ele>20.1</ele>
        <time>2022-03-27T07:41:43Z</time>
      </trkpt>
      <trkpt lat="49.44206" lon="1.11487">
        <ele>20.1</ele>
        <time>2022-03-27T07:41:45Z</time>
      </trkpt>
      <trkpt lat="49.44205" lon="1.11495">
        <ele>20</ele>
        <time>2022-03-27T07:41:46Z</time>
      </trkpt>
      <trkpt lat="49.44204" lon="1.11502">
        <ele>20</ele>
        <time>2022-03-27T07:41:47Z</time>
      </trkpt>
      <trkpt lat="49.44203" lon="1.11505">
        <ele>20</ele>
        <time>2022-03-27T07:41:48Z</time>
      </trkpt>
      <trkpt lat="49.44202" lon="1.11505">
        <ele>19.8</ele>
        <time>2022-03-27T07:41:49Z</time>
      </trkpt>
      <trkpt lat="49.44199" lon="1.11506">
        <ele>19.6</ele>
        <time>2022-03-27T07:41:50Z</time>
      </trkpt>
      <trkpt lat="49.44195" lon="1.11505">
        <ele>19.4</ele>
        <time>2022-03-27T07:41:51Z</time>
      </trkpt>
      <trkpt lat="49.44186" lon="1.11505">
        <ele>18.7</ele>
        <time>2022-03-27T07:41:53Z</time>
      </trkpt>
      <trkpt lat="49.44182" lon="1.11506">
        <ele>18.4</ele>
        <time>2022-03-27T07:41:54Z</time>
      </trkpt>
      <trkpt lat="49.44177" lon="1.11507">
        <ele>18</ele>
        <time>2022-03-27T07:41:55Z</time>
      </trkpt>
      <trkpt lat="49.44168" lon="1.11505">
        <ele>17.5</ele>
        <time>2022-03-27T07:41:57Z</time>
      </trkpt>
      <trkpt lat="49.44162" lon="1.11501">
        <ele>17.1</ele>
        <time>2022-03-27T07:41:58Z</time>
      </trkpt>
      <trkpt lat="49.44157" lon="1.11502">
        <ele>16.8</ele>
        <time>2022-03-27T07:41:59Z</time>
      </trkpt>
      <trkpt lat="49.44152" lon="1.11503">
        <ele>16.6</ele>
        <time>2022-03-27T07:42:00Z</time>
      </trkpt>
      <trkpt lat="49.44148" lon="1.11504">
        <ele>16.4</ele>
        <time>2022-03-27T07:42:01Z</time>
      </trkpt>
      <trkpt lat="49.44144" lon="1.11507">
        <ele>16.2</ele>
        <time>2022-03-27T07:42:02Z</time>
      </trkpt>
      <trkpt lat="49.44142" lon="1.1151">
        <ele>16</ele>
        <time>2022-03-27T07:42:04Z</time>
      </trkpt>
      <trkpt lat="49.44139" lon="1.11514">
        <ele>15.7</ele>
        <time>2022-03-27T07:42:05Z</time>
      </trkpt>
      <trkpt lat="49.44142" lon="1.11522">
        <ele>15.7</ele>
        <time>2022-03-27T07:42:06Z</time>
      </trkpt>
      <trkpt lat="49.44144" lon="1.11526">
        <ele>15.7</ele>
        <time>2022-03-27T07:42:07Z</time>
      </trkpt>
      <trkpt lat="49.44147" lon="1.11534">
        <ele>15.7</ele>
        <time>2022-03-27T07:42:08Z</time>
      </trkpt>
      <trkpt lat="49.4415" lon="1.11543">
        <ele>15.7</ele>
        <time>2022-03-27T07:42:09Z</time>
      </trkpt>
      <trkpt lat="49.44154" lon="1.11555">
        <ele>15.8</ele>
        <time>2022-03-27T07:42:11Z</time>
      </trkpt>
      <trkpt lat="49.44156" lon="1.1156">
        <ele>15.8</ele>
        <time>2022-03-27T07:42:12Z</time>
      </trkpt>
      <trkpt lat="49.44157" lon="1.11567">
        <ele>15.8</ele>
        <time>2022-03-27T07:42:13Z</time>
      </trkpt>
      <trkpt lat="49.44159" lon="1.11573">
        <ele>15.8</ele>
        <time>2022-03-27T07:42:15Z</time>
      </trkpt>
      <trkpt lat="49.44161" lon="1.1158">
        <ele>15.8</ele>
        <time>2022-03-27T07:42:16Z</time>
      </trkpt>
      <trkpt lat="49.44163" lon="1.11587">
        <ele>15.9</ele>
        <time>2022-03-27T07:42:17Z</time>
      </trkpt>
      <trkpt lat="49.44165" lon="1.11597">
        <ele>15.9</ele>
        <time>2022-03-27T07:42:18Z</time>
      </trkpt>
      <trkpt lat="49.44167" lon="1.11603">
        <ele>15.9</ele>
        <time>2022-03-27T07:42:19Z</time>
      </trkpt>
      <trkpt lat="49.44169" lon="1.11609">
        <ele>15.9</ele>
        <time>2022-03-27T07:42:20Z</time>
      </trkpt>
      <trkpt lat="49.44169" lon="1.11622">
        <ele>15.9</ele>
        <time>2022-03-27T07:42:22Z</time>
      </trkpt>
      <trkpt lat="49.44169" lon="1.1163">
        <ele>16</ele>
        <time>2022-03-27T07:42:23Z</time>
      </trkpt>
      <trkpt lat="49.44167" lon="1.11639">
        <ele>16</ele>
        <time>2022-03-27T07:42:25Z</time>
      </trkpt>
      <trkpt lat="49.44167" lon="1.11647">
        <ele>16</ele>
        <time>2022-03-27T07:42:26Z</time>
      </trkpt>
      <trkpt lat="49.44168" lon="1.11662">
        <ele>16</ele>
        <time>2022-03-27T07:42:27Z</time>
      </trkpt>
      <trkpt lat="49.44167" lon="1.11678">
        <ele>16</ele>
        <time>2022-03-27T07:42:29Z</time>
      </trkpt>
      <trkpt lat="49.44167" lon="1.11686">
        <ele>15.9</ele>
        <time>2022-03-27T07:42:30Z</time>
      </trkpt>
      <trkpt lat="49.44166" lon="1.11694">
        <ele>15.9</ele>
        <time>2022-03-27T07:42:31Z</time>
      </trkpt>
      <trkpt lat="49.44165" lon="1.11702">
        <ele>15.9</ele>
        <time>2022-03-27T07:42:32Z</time>
      </trkpt>
      <trkpt lat="49.44163" lon="1.11711">
        <ele>15.9</ele>
        <time>2022-03-27T07:42:33Z</time>
      </trkpt>
      <trkpt lat="49.4416" lon="1.1172">
        <ele>15.9</ele>
        <time>2022-03-27T07:42:34Z</time>
      </trkpt>
      <trkpt lat="49.44158" lon="1.11728">
        <ele>15.9</ele>
        <time>2022-03-27T07:42:35Z</time>
      </trkpt>
      <trkpt lat="49.44152" lon="1.11741">
        <ele>15.9</ele>
        <time>2022-03-27T07:42:37Z</time>
      </trkpt>
      <trkpt lat="49.4415" lon="1.11748">
        <ele>15.9</ele>
        <time>2022-03-27T07:42:39Z</time>
      </trkpt>
      <trkpt lat="49.44145" lon="1.11763">
        <ele>15.9</ele>
        <time>2022-03-27T07:42:40Z</time>
      </trkpt>
      <trkpt lat="49.44142" lon="1.11771">
        <ele>16</ele>
        <time>2022-03-27T07:42:42Z</time>
      </trkpt>
      <trkpt lat="49.4414" lon="1.11785">
        <ele>16</ele>
        <time>2022-03-27T07:42:43Z</time>
      </trkpt>
      <trkpt lat="49.44139" lon="1.11794">
        <ele>15.9</ele>
        <time>2022-03-27T07:42:44Z</time>
      </trkpt>
      <trkpt lat="49.44136" lon="1.11804">
        <ele>15.9</ele>
        <time>2022-03-27T07:42:45Z</time>
      </trkpt>
      <trkpt lat="49.44135" lon="1.11812">
        <ele>15.8</ele>
        <time>2022-03-27T07:42:46Z</time>
      </trkpt>
      <trkpt lat="49.44134" lon="1.1182">
        <ele>15.8</ele>
        <time>2022-03-27T07:42:48Z</time>
      </trkpt>
      <trkpt lat="49.44135" lon="1.11838">
        <ele>15.7</ele>
        <time>2022-03-27T07:42:49Z</time>
      </trkpt>
      <trkpt lat="49.44135" lon="1.11848">
        <ele>15.7</ele>
        <time>2022-03-27T07:42:50Z</time>
      </trkpt>
      <trkpt lat="49.44136" lon="1.11857">
        <ele>15.7</ele>
        <time>2022-03-27T07:42:52Z</time>
      </trkpt>
      <trkpt lat="49.44138" lon="1.11863">
        <ele>15.7</ele>
        <time>2022-03-27T07:42:53Z</time>
      </trkpt>
      <trkpt lat="49.44135" lon="1.11872">
        <ele>15.7</ele>
        <time>2022-03-27T07:42:55Z</time>
      </trkpt>
      <trkpt lat="49.44131" lon="1.11876">
        <ele>15.6</ele>
        <time>2022-03-27T07:42:57Z</time>
      </trkpt>
      <trkpt lat="49.44129" lon="1.1188">
        <ele>15.6</ele>
        <time>2022-03-27T07:42:58Z</time>
      </trkpt>
      <trkpt lat="49.44125" lon="1.11886">
        <ele>15.6</ele>
        <time>2022-03-27T07:43:00Z</time>
      </trkpt>
      <trkpt lat="49.44122" lon="1.1189">
        <ele>15.6</ele>
        <time>2022-03-27T07:43:01Z</time>
      </trkpt>
      <trkpt lat="49.4412" lon="1.11894">
        <ele>15.6</ele>
        <time>2022-03-27T07:43:02Z</time>
      </trkpt>
      <trkpt lat="49.44117" lon="1.11903">
        <ele>15.6</ele>
        <time>2022-03-27T07:43:04Z</time>
      </trkpt>
      <trkpt lat="49.44116" lon="1.1191">
        <ele>15.6</ele>
        <time>2022-03-27T07:43:05Z</time>
      </trkpt>
      <trkpt lat="49.44113" lon="1.1192">
        <ele>15.5</ele>
        <time>2022-03-27T07:43:07Z</time>
      </trkpt>
      <trkpt lat="49.44109" lon="1.11925">
        <ele>15.5</ele>
        <time>2022-03-27T07:43:08Z</time>
      </trkpt>
      <trkpt lat="49.44108" lon="1.11933">
        <ele>15.5</ele>
        <time>2022-03-27T07:43:09Z</time>
      </trkpt>
      <trkpt lat="49.44102" lon="1.11946">
        <ele>15.5</ele>
        <time>2022-03-27T07:43:11Z</time>
      </trkpt>
      <trkpt lat="49.44101" lon="1.11951">
        <ele>15.5</ele>
        <time>2022-03-27T07:43:13Z</time>
      </trkpt>
      <trkpt lat="49.441" lon="1.11959">
        <ele>15.5</ele>
        <time>2022-03-27T07:43:14Z</time>
      </trkpt>
      <trkpt lat="49.44097" lon="1.11968">
        <ele>15.5</ele>
        <time>2022-03-27T07:43:15Z</time>
      </trkpt>
      <trkpt lat="49.44096" lon="1.11975">
        <ele>15.5</ele>
        <time>2022-03-27T07:43:17Z</time>
      </trkpt>
      <trkpt lat="49.44093" lon="1.11984">
        <ele>15.5</ele>
        <time>2022-03-27T07:43:18Z</time>
      </trkpt>
      <trkpt lat="49.44092" lon="1.11987">
        <ele>15.5</ele>
        <time>2022-03-27T07:43:19Z</time>
      </trkpt>
      <trkpt lat="49.44086" lon="1.11996">
        <ele>15.6</ele>
        <time>2022-03-27T07:43:21Z</time>
      </trkpt>
      <trkpt lat="49.44085" lon="1.11997">
        <ele>15.7</ele>
        <time>2022-03-27T07:43:22Z</time>
      </trkpt>
      <trkpt lat="49.44085" lon="1.11998">
        <ele>15.7</ele>
        <time>2022-03-27T07:43:23Z</time>
      </trkpt>
      <trkpt lat="49.44085" lon="1.12">
        <ele>15.7</ele>
        <time>2022-03-27T07:43:24Z</time>
      </trkpt>
      <trkpt lat="49.44084" lon="1.12007">
        <ele>15.7</ele>
        <time>2022-03-27T07:43:26Z</time>
      </trkpt>
      <trkpt lat="49.44083" lon="1.12011">
        <ele>15.8</ele>
        <time>2022-03-27T07:43:27Z</time>
      </trkpt>
      <trkpt lat="49.44083" lon="1.12017">
        <ele>15.8</ele>
        <time>2022-03-27T07:43:29Z</time>
      </trkpt>
      <trkpt lat="49.4408" lon="1.1203">
        <ele>16</ele>
        <time>2022-03-27T07:43:31Z</time>
      </trkpt>
      <trkpt lat="49.44079" lon="1.12036">
        <ele>16</ele>
        <time>2022-03-27T07:43:32Z</time>
      </trkpt>
      <trkpt lat="49.44078" lon="1.12044">
        <ele>16</ele>
        <time>2022-03-27T07:43:34Z</time>
      </trkpt>
      <trkpt lat="49.44075" lon="1.12054">
        <ele>16.1</ele>
        <time>2022-03-27T07:43:35Z</time>
      </trkpt>
      <trkpt lat="49.44072" lon="1.12061">
        <ele>16.1</ele>
        <time>2022-03-27T07:43:36Z</time>
      </trkpt>
      <trkpt lat="49.4407" lon="1.12068">
        <ele>16.1</ele>
        <time>2022-03-27T07:43:37Z</time>
      </trkpt>
      <trkpt lat="49.44063" lon="1.1208">
        <ele>16.1</ele>
        <time>2022-03-27T07:43:39Z</time>
      </trkpt>
      <trkpt lat="49.44061" lon="1.12085">
        <ele>16.2</ele>
        <time>2022-03-27T07:43:40Z</time>
      </trkpt>
      <trkpt lat="49.44057" lon="1.12096">
        <ele>16.2</ele>
        <time>2022-03-27T07:43:42Z</time>
      </trkpt>
      <trkpt lat="49.44055" lon="1.12102">
        <ele>16.2</ele>
        <time>2022-03-27T07:43:43Z</time>
      </trkpt>
      <trkpt lat="49.44054" lon="1.12108">
        <ele>16.2</ele>
        <time>2022-03-27T07:43:45Z</time>
      </trkpt>
      <trkpt lat="49.44053" lon="1.12114">
        <ele>16.2</ele>
        <time>2022-03-27T07:43:46Z</time>
      </trkpt>
      <trkpt lat="49.44052" lon="1.1212">
        <ele>16.2</ele>
        <time>2022-03-27T07:43:47Z</time>
      </trkpt>
      <trkpt lat="49.44051" lon="1.12126">
        <ele>16.2</ele>
        <time>2022-03-27T07:43:48Z</time>
      </trkpt>
      <trkpt lat="49.44049" lon="1.12139">
        <ele>16.2</ele>
        <time>2022-03-27T07:43:50Z</time>
      </trkpt>
      <trkpt lat="49.44047" lon="1.12149">
        <ele>16.2</ele>
        <time>2022-03-27T07:43:52Z</time>
      </trkpt>
      <trkpt lat="49.44045" lon="1.12156">
        <ele>16.2</ele>
        <time>2022-03-27T07:43:53Z</time>
      </trkpt>
      <trkpt lat="49.44043" lon="1.12163">
        <ele>16.2</ele>
        <time>2022-03-27T07:43:54Z</time>
      </trkpt>
      <trkpt lat="49.44042" lon="1.12169">
        <ele>16.2</ele>
        <time>2022-03-27T07:43:55Z</time>
      </trkpt>
      <trkpt lat="49.44041" lon="1.12174">
        <ele>16.2</ele>
        <time>2022-03-27T07:43:57Z</time>
      </trkpt>
      <trkpt lat="49.44039" lon="1.12179">
        <ele>16.2</ele>
        <time>2022-03-27T07:43:58Z</time>
      </trkpt>
      <trkpt lat="49.44037" lon="1.1219">
        <ele>16.2</ele>
        <time>2022-03-27T07:43:59Z</time>
      </trkpt>
      <trkpt lat="49.44035" lon="1.12198">
        <ele>16.3</ele>
        <time>2022-03-27T07:44:00Z</time>
      </trkpt>
      <trkpt lat="49.44034" lon="1.12203">
        <ele>16.3</ele>
        <time>2022-03-27T07:44:01Z</time>
      </trkpt>
      <trkpt lat="49.44032" lon="1.12214">
        <ele>16.3</ele>
        <time>2022-03-27T07:44:03Z</time>
      </trkpt>
      <trkpt lat="49.4403" lon="1.12221">
        <ele>16.3</ele>
        <time>2022-03-27T07:44:04Z</time>
      </trkpt>
      <trkpt lat="49.44029" lon="1.12226">
        <ele>16.3</ele>
        <time>2022-03-27T07:44:05Z</time>
      </trkpt>
      <trkpt lat="49.44028" lon="1.12231">
        <ele>16.3</ele>
        <time>2022-03-27T07:44:06Z</time>
      </trkpt>
      <trkpt lat="49.44028" lon="1.12238">
        <ele>16.3</ele>
        <time>2022-03-27T07:44:08Z</time>
      </trkpt>
      <trkpt lat="49.44027" lon="1.12241">
        <ele>16.3</ele>
        <time>2022-03-27T07:44:09Z</time>
      </trkpt>
      <trkpt lat="49.44028" lon="1.12244">
        <ele>16.3</ele>
        <time>2022-03-27T07:44:11Z</time>
      </trkpt>
      <trkpt lat="49.44031" lon="1.12246">
        <ele>16.3</ele>
        <time>2022-03-27T07:44:12Z</time>
      </trkpt>
      <trkpt lat="49.44033" lon="1.12249">
        <ele>16.3</ele>
        <time>2022-03-27T07:44:14Z</time>
      </trkpt>
      <trkpt lat="49.44033" lon="1.12245">
        <ele>16.3</ele>
        <time>2022-03-27T07:44:16Z</time>
      </trkpt>
      <trkpt lat="49.44032" lon="1.12242">
        <ele>16.3</ele>
        <time>2022-03-27T07:44:18Z</time>
      </trkpt>
      <trkpt lat="49.44033" lon="1.12242">
        <ele>16.3</ele>
        <time>2022-03-27T07:44:19Z</time>
      </trkpt>
      <trkpt lat="49.44033" lon="1.12242">
        <ele>16.3</ele>
        <time>2022-03-27T07:44:20Z</time>
      </trkpt>
      <trkpt lat="49.44033" lon="1.12242">
        <ele>16.3</ele>
        <time>2022-03-27T07:44:22Z</time>
      </trkpt>
      <trkpt lat="49.44033" lon="1.12242">
        <ele>16.3</ele>
        <time>2022-03-27T07:44:23Z</time>
      </trkpt>
      <trkpt lat="49.44033" lon="1.12244">
        <ele>16.3</ele>
        <time>2022-03-27T07:44:24Z</time>
      </trkpt>
      <trkpt lat="49.44033" lon="1.12244">
        <ele>16.3</ele>
        <time>2022-03-27T07:44:25Z</time>
      </trkpt>
      <trkpt lat="49.44033" lon="1.12245">
        <ele>16.3</ele>
        <time>2022-03-27T07:44:27Z</time>
      </trkpt>
      <trkpt lat="49.44033" lon="1.12246">
        <ele>16.3</ele>
        <time>2022-03-27T07:44:28Z</time>
      </trkpt>
      <trkpt lat="49.44031" lon="1.12247">
        <ele>16.3</ele>
        <time>2022-03-27T07:44:30Z</time>
      </trkpt>
      <trkpt lat="49.4403" lon="1.12249">
        <ele>16.2</ele>
        <time>2022-03-27T07:44:31Z</time>
      </trkpt>
      <trkpt lat="49.44029" lon="1.12251">
        <ele>16.2</ele>
        <time>2022-03-27T07:44:32Z</time>
      </trkpt>
      <trkpt lat="49.4403" lon="1.12253">
        <ele>16.2</ele>
        <time>2022-03-27T07:44:33Z</time>
      </trkpt>
      <trkpt lat="49.4403" lon="1.12255">
        <ele>16.2</ele>
        <time>2022-03-27T07:44:34Z</time>
      </trkpt>
      <trkpt lat="49.44031" lon="1.12256">
        <ele>16.2</ele>
        <time>2022-03-27T07:44:35Z</time>
      </trkpt>
      <trkpt lat="49.44032" lon="1.12256">
        <ele>16.2</ele>
        <time>2022-03-27T07:44:36Z</time>
      </trkpt>
      <trkpt lat="49.44031" lon="1.12257">
        <ele>16.2</ele>
        <time>2022-03-27T07:44:37Z</time>
      </trkpt>
      <trkpt lat="49.44031" lon="1.12258">
        <ele>16.2</ele>
        <time>2022-03-27T07:44:39Z</time>
      </trkpt>
      <trkpt lat="49.4403" lon="1.12258">
        <ele>16.2</ele>
        <time>2022-03-27T07:44:40Z</time>
      </trkpt>
      <trkpt lat="49.4403" lon="1.12259">
        <ele>16.1</ele>
        <time>2022-03-27T07:44:41Z</time>
      </trkpt>
      <trkpt lat="49.44031" lon="1.12261">
        <ele>16.1</ele>
        <time>2022-03-27T07:44:42Z</time>
      </trkpt>
      <trkpt lat="49.4403" lon="1.12262">
        <ele>16.1</ele>
        <time>2022-03-27T07:44:43Z</time>
      </trkpt>
      <trkpt lat="49.4403" lon="1.12264">
        <ele>16.1</ele>
        <time>2022-03-27T07:44:45Z</time>
      </trkpt>
      <trkpt lat="49.44031" lon="1.12269">
        <ele>16.1</ele>
        <time>2022-03-27T07:44:46Z</time>
      </trkpt>
      <trkpt lat="49.44031" lon="1.12274">
        <ele>16</ele>
        <time>2022-03-27T07:44:47Z</time>
      </trkpt>
      <trkpt lat="49.4403" lon="1.1228">
        <ele>16</ele>
        <time>2022-03-27T07:44:48Z</time>
      </trkpt>
      <trkpt lat="49.44028" lon="1.12289">
        <ele>16</ele>
        <time>2022-03-27T07:44:50Z</time>
      </trkpt>
      <trkpt lat="49.44026" lon="1.12297">
        <ele>15.9</ele>
        <time>2022-03-27T07:44:51Z</time>
      </trkpt>
      <trkpt lat="49.44021" lon="1.12313">
        <ele>15.8</ele>
        <time>2022-03-27T07:44:52Z</time>
      </trkpt>
      <trkpt lat="49.4401" lon="1.12347">
        <ele>15.8</ele>
        <time>2022-03-27T07:44:54Z</time>
      </trkpt>
      <trkpt lat="49.44006" lon="1.1236">
        <ele>15.9</ele>
        <time>2022-03-27T07:44:55Z</time>
      </trkpt>
      <trkpt lat="49.44002" lon="1.1237">
        <ele>16</ele>
        <time>2022-03-27T07:44:57Z</time>
      </trkpt>
      <trkpt lat="49.44" lon="1.12383">
        <ele>16</ele>
        <time>2022-03-27T07:44:58Z</time>
      </trkpt>
      <trkpt lat="49.43998" lon="1.12381">
        <ele>16</ele>
        <time>2022-03-27T07:44:59Z</time>
      </trkpt>
      <trkpt lat="49.43998" lon="1.12386">
        <ele>16.1</ele>
        <time>2022-03-27T07:45:00Z</time>
      </trkpt>
      <trkpt lat="49.43995" lon="1.12399">
        <ele>16.1</ele>
        <time>2022-03-27T07:45:02Z</time>
      </trkpt>
      <trkpt lat="49.43995" lon="1.12405">
        <ele>16.2</ele>
        <time>2022-03-27T07:45:03Z</time>
      </trkpt>
      <trkpt lat="49.43996" lon="1.12411">
        <ele>16.2</ele>
        <time>2022-03-27T07:45:04Z</time>
      </trkpt>
      <trkpt lat="49.43995" lon="1.12418">
        <ele>16.2</ele>
        <time>2022-03-27T07:45:05Z</time>
      </trkpt>
      <trkpt lat="49.43992" lon="1.12438">
        <ele>16.3</ele>
        <time>2022-03-27T07:45:06Z</time>
      </trkpt>
      <trkpt lat="49.43992" lon="1.12445">
        <ele>16.3</ele>
        <time>2022-03-27T07:45:07Z</time>
      </trkpt>
      <trkpt lat="49.43991" lon="1.12451">
        <ele>16.3</ele>
        <time>2022-03-27T07:45:09Z</time>
      </trkpt>
      <trkpt lat="49.43992" lon="1.12455">
        <ele>16.3</ele>
        <time>2022-03-27T07:45:10Z</time>
      </trkpt>
      <trkpt lat="49.4399" lon="1.12467">
        <ele>16.3</ele>
        <time>2022-03-27T07:45:11Z</time>
      </trkpt>
      <trkpt lat="49.43988" lon="1.12481">
        <ele>16.3</ele>
        <time>2022-03-27T07:45:12Z</time>
      </trkpt>
      <trkpt lat="49.43985" lon="1.12497">
        <ele>16.3</ele>
        <time>2022-03-27T07:45:14Z</time>
      </trkpt>
      <trkpt lat="49.43984" lon="1.12503">
        <ele>16.3</ele>
        <time>2022-03-27T07:45:15Z</time>
      </trkpt>
      <trkpt lat="49.43981" lon="1.12509">
        <ele>16.2</ele>
        <time>2022-03-27T07:45:17Z</time>
      </trkpt>
      <trkpt lat="49.4398" lon="1.12516">
        <ele>16.2</ele>
        <time>2022-03-27T07:45:18Z</time>
      </trkpt>
      <trkpt lat="49.4398" lon="1.12526">
        <ele>16.2</ele>
        <time>2022-03-27T07:45:19Z</time>
      </trkpt>
      <trkpt lat="49.43978" lon="1.12543">
        <ele>16.2</ele>
        <time>2022-03-27T07:45:20Z</time>
      </trkpt>
      <trkpt lat="49.43974" lon="1.12558">
        <ele>16.2</ele>
        <time>2022-03-27T07:45:22Z</time>
      </trkpt>
      <trkpt lat="49.43973" lon="1.12565">
        <ele>16.2</ele>
        <time>2022-03-27T07:45:23Z</time>
      </trkpt>
      <trkpt lat="49.43971" lon="1.12572">
        <ele>16.2</ele>
        <time>2022-03-27T07:45:25Z</time>
      </trkpt>
      <trkpt lat="49.4397" lon="1.12577">
        <ele>16.2</ele>
        <time>2022-03-27T07:45:26Z</time>
      </trkpt>
      <trkpt lat="49.43965" lon="1.12588">
        <ele>16.3</ele>
        <time>2022-03-27T07:45:27Z</time>
      </trkpt>
      <trkpt lat="49.43963" lon="1.12596">
        <ele>16.3</ele>
        <time>2022-03-27T07:45:28Z</time>
      </trkpt>
      <trkpt lat="49.43961" lon="1.12602">
        <ele>16.3</ele>
        <time>2022-03-27T07:45:29Z</time>
      </trkpt>
      <trkpt lat="49.43957" lon="1.12607">
        <ele>16.3</ele>
        <time>2022-03-27T07:45:30Z</time>
      </trkpt>
      <trkpt lat="49.43955" lon="1.12613">
        <ele>16.4</ele>
        <time>2022-03-27T07:45:32Z</time>
      </trkpt>
      <trkpt lat="49.43949" lon="1.12618">
        <ele>16.4</ele>
        <time>2022-03-27T07:45:33Z</time>
      </trkpt>
      <trkpt lat="49.43946" lon="1.12624">
        <ele>16.4</ele>
        <time>2022-03-27T07:45:34Z</time>
      </trkpt>
      <trkpt lat="49.43944" lon="1.1263">
        <ele>16.4</ele>
        <time>2022-03-27T07:45:35Z</time>
      </trkpt>
      <trkpt lat="49.43939" lon="1.12642">
        <ele>16.5</ele>
        <time>2022-03-27T07:45:37Z</time>
      </trkpt>
      <trkpt lat="49.43935" lon="1.12644">
        <ele>16.5</ele>
        <time>2022-03-27T07:45:38Z</time>
      </trkpt>
      <trkpt lat="49.4393" lon="1.12661">
        <ele>16.5</ele>
        <time>2022-03-27T07:45:39Z</time>
      </trkpt>
      <trkpt lat="49.43927" lon="1.1267">
        <ele>16.5</ele>
        <time>2022-03-27T07:45:40Z</time>
      </trkpt>
      <trkpt lat="49.43924" lon="1.12676">
        <ele>16.6</ele>
        <time>2022-03-27T07:45:42Z</time>
      </trkpt>
      <trkpt lat="49.43925" lon="1.12683">
        <ele>16.6</ele>
        <time>2022-03-27T07:45:43Z</time>
      </trkpt>
      <trkpt lat="49.4392" lon="1.12691">
        <ele>16.6</ele>
        <time>2022-03-27T07:45:44Z</time>
      </trkpt>
      <trkpt lat="49.43916" lon="1.12698">
        <ele>16.6</ele>
        <time>2022-03-27T07:45:46Z</time>
      </trkpt>
      <trkpt lat="49.43915" lon="1.127">
        <ele>16.6</ele>
        <time>2022-03-27T07:45:48Z</time>
      </trkpt>
      <trkpt lat="49.43913" lon="1.12706">
        <ele>16.6</ele>
        <time>2022-03-27T07:45:50Z</time>
      </trkpt>
      <trkpt lat="49.43912" lon="1.12713">
        <ele>16.5</ele>
        <time>2022-03-27T07:45:51Z</time>
      </trkpt>
      <trkpt lat="49.43911" lon="1.12719">
        <ele>16.5</ele>
        <time>2022-03-27T07:45:52Z</time>
      </trkpt>
      <trkpt lat="49.43909" lon="1.12724">
        <ele>16.5</ele>
        <time>2022-03-27T07:45:53Z</time>
      </trkpt>
      <trkpt lat="49.43906" lon="1.12726">
        <ele>16.4</ele>
        <time>2022-03-27T07:45:54Z</time>
      </trkpt>
      <trkpt lat="49.43904" lon="1.12731">
        <ele>16.3</ele>
        <time>2022-03-27T07:45:55Z</time>
      </trkpt>
      <trkpt lat="49.43904" lon="1.12735">
        <ele>16.3</ele>
        <time>2022-03-27T07:45:56Z</time>
      </trkpt>
      <trkpt lat="49.43902" lon="1.1274">
        <ele>16.2</ele>
        <time>2022-03-27T07:45:57Z</time>
      </trkpt>
      <trkpt lat="49.43901" lon="1.12745">
        <ele>16.1</ele>
        <time>2022-03-27T07:45:58Z</time>
      </trkpt>
      <trkpt lat="49.43899" lon="1.12749">
        <ele>15.9</ele>
        <time>2022-03-27T07:45:59Z</time>
      </trkpt>
      <trkpt lat="49.43897" lon="1.12754">
        <ele>15.8</ele>
        <time>2022-03-27T07:46:01Z</time>
      </trkpt>
      <trkpt lat="49.43894" lon="1.12759">
        <ele>15.6</ele>
        <time>2022-03-27T07:46:02Z</time>
      </trkpt>
      <trkpt lat="49.43889" lon="1.12771">
        <ele>15.2</ele>
        <time>2022-03-27T07:46:03Z</time>
      </trkpt>
      <trkpt lat="49.43884" lon="1.12784">
        <ele>14.9</ele>
        <time>2022-03-27T07:46:05Z</time>
      </trkpt>
      <trkpt lat="49.43881" lon="1.12791">
        <ele>14.7</ele>
        <time>2022-03-27T07:46:06Z</time>
      </trkpt>
      <trkpt lat="49.43874" lon="1.12811">
        <ele>14.5</ele>
        <time>2022-03-27T07:46:08Z</time>
      </trkpt>
      <trkpt lat="49.43873" lon="1.12817">
        <ele>14.5</ele>
        <time>2022-03-27T07:46:09Z</time>
      </trkpt>
      <trkpt lat="49.4387" lon="1.12824">
        <ele>14.5</ele>
        <time>2022-03-27T07:46:10Z</time>
      </trkpt>
      <trkpt lat="49.43868" lon="1.12832">
        <ele>14.5</ele>
        <time>2022-03-27T07:46:11Z</time>
      </trkpt>
      <trkpt lat="49.43869" lon="1.1284">
        <ele>14.5</ele>
        <time>2022-03-27T07:46:12Z</time>
      </trkpt>
      <trkpt lat="49.43871" lon="1.12848">
        <ele>14.5</ele>
        <time>2022-03-27T07:46:13Z</time>
      </trkpt>
      <trkpt lat="49.43873" lon="1.12854">
        <ele>14.6</ele>
        <time>2022-03-27T07:46:15Z</time>
      </trkpt>
      <trkpt lat="49.43875" lon="1.12859">
        <ele>14.6</ele>
        <time>2022-03-27T07:46:16Z</time>
      </trkpt>
      <trkpt lat="49.43878" lon="1.12864">
        <ele>14.7</ele>
        <time>2022-03-27T07:46:17Z</time>
      </trkpt>
      <trkpt lat="49.43882" lon="1.12877">
        <ele>14.8</ele>
        <time>2022-03-27T07:46:18Z</time>
      </trkpt>
      <trkpt lat="49.43885" lon="1.12893">
        <ele>15.1</ele>
        <time>2022-03-27T07:46:20Z</time>
      </trkpt>
      <trkpt lat="49.43886" lon="1.129">
        <ele>15.2</ele>
        <time>2022-03-27T07:46:21Z</time>
      </trkpt>
      <trkpt lat="49.43885" lon="1.12904">
        <ele>15.3</ele>
        <time>2022-03-27T07:46:23Z</time>
      </trkpt>
      <trkpt lat="49.43888" lon="1.12909">
        <ele>15.4</ele>
        <time>2022-03-27T07:46:24Z</time>
      </trkpt>
      <trkpt lat="49.43893" lon="1.12915">
        <ele>15.6</ele>
        <time>2022-03-27T07:46:25Z</time>
      </trkpt>
      <trkpt lat="49.43901" lon="1.12921">
        <ele>15.8</ele>
        <time>2022-03-27T07:46:27Z</time>
      </trkpt>
      <trkpt lat="49.43904" lon="1.12923">
        <ele>15.9</ele>
        <time>2022-03-27T07:46:28Z</time>
      </trkpt>
      <trkpt lat="49.43906" lon="1.12925">
        <ele>16</ele>
        <time>2022-03-27T07:46:29Z</time>
      </trkpt>
      <trkpt lat="49.43908" lon="1.12928">
        <ele>16.1</ele>
        <time>2022-03-27T07:46:31Z</time>
      </trkpt>
      <trkpt lat="49.43911" lon="1.12932">
        <ele>16.2</ele>
        <time>2022-03-27T07:46:32Z</time>
      </trkpt>
      <trkpt lat="49.43913" lon="1.12936">
        <ele>16.3</ele>
        <time>2022-03-27T07:46:33Z</time>
      </trkpt>
      <trkpt lat="49.4392" lon="1.12945">
        <ele>16.5</ele>
        <time>2022-03-27T07:46:36Z</time>
      </trkpt>
      <trkpt lat="49.43923" lon="1.12947">
        <ele>16.5</ele>
        <time>2022-03-27T07:46:37Z</time>
      </trkpt>
      <trkpt lat="49.43926" lon="1.12949">
        <ele>16.6</ele>
        <time>2022-03-27T07:46:39Z</time>
      </trkpt>
      <trkpt lat="49.43929" lon="1.12951">
        <ele>16.6</ele>
        <time>2022-03-27T07:46:40Z</time>
      </trkpt>
      <trkpt lat="49.43933" lon="1.12954">
        <ele>16.7</ele>
        <time>2022-03-27T07:46:41Z</time>
      </trkpt>
      <trkpt lat="49.43936" lon="1.12959">
        <ele>16.8</ele>
        <time>2022-03-27T07:46:43Z</time>
      </trkpt>
      <trkpt lat="49.43938" lon="1.12965">
        <ele>16.8</ele>
        <time>2022-03-27T07:46:44Z</time>
      </trkpt>
      <trkpt lat="49.4394" lon="1.12969">
        <ele>16.9</ele>
        <time>2022-03-27T07:46:45Z</time>
      </trkpt>
      <trkpt lat="49.43945" lon="1.12978">
        <ele>17</ele>
        <time>2022-03-27T07:46:46Z</time>
      </trkpt>
      <trkpt lat="49.43947" lon="1.12984">
        <ele>17</ele>
        <time>2022-03-27T07:46:47Z</time>
      </trkpt>
      <trkpt lat="49.43948" lon="1.1299">
        <ele>17</ele>
        <time>2022-03-27T07:46:48Z</time>
      </trkpt>
      <trkpt lat="49.43948" lon="1.12996">
        <ele>17.1</ele>
        <time>2022-03-27T07:46:50Z</time>
      </trkpt>
      <trkpt lat="49.43949" lon="1.13004">
        <ele>17.1</ele>
        <time>2022-03-27T07:46:51Z</time>
      </trkpt>
      <trkpt lat="49.43949" lon="1.1301">
        <ele>17.1</ele>
        <time>2022-03-27T07:46:52Z</time>
      </trkpt>
      <trkpt lat="49.43949" lon="1.13013">
        <ele>17.1</ele>
        <time>2022-03-27T07:46:53Z</time>
      </trkpt>
      <trkpt lat="49.4395" lon="1.1302">
        <ele>17.1</ele>
        <time>2022-03-27T07:46:54Z</time>
      </trkpt>
      <trkpt lat="49.43951" lon="1.13029">
        <ele>17.2</ele>
        <time>2022-03-27T07:46:55Z</time>
      </trkpt>
      <trkpt lat="49.43951" lon="1.13037">
        <ele>17.2</ele>
        <time>2022-03-27T07:46:57Z</time>
      </trkpt>
      <trkpt lat="49.43953" lon="1.13043">
        <ele>17.2</ele>
        <time>2022-03-27T07:46:58Z</time>
      </trkpt>
      <trkpt lat="49.43952" lon="1.13051">
        <ele>17.2</ele>
        <time>2022-03-27T07:46:59Z</time>
      </trkpt>
      <trkpt lat="49.4395" lon="1.13058">
        <ele>17.3</ele>
        <time>2022-03-27T07:47:00Z</time>
      </trkpt>
      <trkpt lat="49.4395" lon="1.13066">
        <ele>17.3</ele>
        <time>2022-03-27T07:47:01Z</time>
      </trkpt>
      <trkpt lat="49.43948" lon="1.13084">
        <ele>17.3</ele>
        <time>2022-03-27T07:47:02Z</time>
      </trkpt>
      <trkpt lat="49.43946" lon="1.13099">
        <ele>17.3</ele>
        <time>2022-03-27T07:47:04Z</time>
      </trkpt>
      <trkpt lat="49.43944" lon="1.1311">
        <ele>17.3</ele>
        <time>2022-03-27T07:47:06Z</time>
      </trkpt>
      <trkpt lat="49.43941" lon="1.13116">
        <ele>17.3</ele>
        <time>2022-03-27T07:47:08Z</time>
      </trkpt>
      <trkpt lat="49.43936" lon="1.1313">
        <ele>17.3</ele>
        <time>2022-03-27T07:47:09Z</time>
      </trkpt>
      <trkpt lat="49.43933" lon="1.13139">
        <ele>17.3</ele>
        <time>2022-03-27T07:47:11Z</time>
      </trkpt>
      <trkpt lat="49.4393" lon="1.13148">
        <ele>17.3</ele>
        <time>2022-03-27T07:47:12Z</time>
      </trkpt>
      <trkpt lat="49.43927" lon="1.13155">
        <ele>17.3</ele>
        <time>2022-03-27T07:47:13Z</time>
      </trkpt>
      <trkpt lat="49.43925" lon="1.13161">
        <ele>17.3</ele>
        <time>2022-03-27T07:47:14Z</time>
      </trkpt>
      <trkpt lat="49.43922" lon="1.13172">
        <ele>17.4</ele>
        <time>2022-03-27T07:47:15Z</time>
      </trkpt>
      <trkpt lat="49.4392" lon="1.13178">
        <ele>17.4</ele>
        <time>2022-03-27T07:47:17Z</time>
      </trkpt>
      <trkpt lat="49.43917" lon="1.13187">
        <ele>17.4</ele>
        <time>2022-03-27T07:47:18Z</time>
      </trkpt>
      <trkpt lat="49.43915" lon="1.13193">
        <ele>17.5</ele>
        <time>2022-03-27T07:47:19Z</time>
      </trkpt>
      <trkpt lat="49.43912" lon="1.13201">
        <ele>17.5</ele>
        <time>2022-03-27T07:47:20Z</time>
      </trkpt>
      <trkpt lat="49.43909" lon="1.13206">
        <ele>17.5</ele>
        <time>2022-03-27T07:47:21Z</time>
      </trkpt>
      <trkpt lat="49.43907" lon="1.13212">
        <ele>17.5</ele>
        <time>2022-03-27T07:47:22Z</time>
      </trkpt>
      <trkpt lat="49.43904" lon="1.13221">
        <ele>17.5</ele>
        <time>2022-03-27T07:47:23Z</time>
      </trkpt>
      <trkpt lat="49.43901" lon="1.13227">
        <ele>17.5</ele>
        <time>2022-03-27T07:47:24Z</time>
      </trkpt>
      <trkpt lat="49.43901" lon="1.13235">
        <ele>17.5</ele>
        <time>2022-03-27T07:47:26Z</time>
      </trkpt>
      <trkpt lat="49.43897" lon="1.13243">
        <ele>17.5</ele>
        <time>2022-03-27T07:47:27Z</time>
      </trkpt>
      <trkpt lat="49.43895" lon="1.13249">
        <ele>17.5</ele>
        <time>2022-03-27T07:47:28Z</time>
      </trkpt>
      <trkpt lat="49.43892" lon="1.13255">
        <ele>17.5</ele>
        <time>2022-03-27T07:47:29Z</time>
      </trkpt>
      <trkpt lat="49.43889" lon="1.13264">
        <ele>17.5</ele>
        <time>2022-03-27T07:47:30Z</time>
      </trkpt>
      <trkpt lat="49.43887" lon="1.1327">
        <ele>17.5</ele>
        <time>2022-03-27T07:47:31Z</time>
      </trkpt>
      <trkpt lat="49.43886" lon="1.13276">
        <ele>17.5</ele>
        <time>2022-03-27T07:47:32Z</time>
      </trkpt>
      <trkpt lat="49.43884" lon="1.13282">
        <ele>17.5</ele>
        <time>2022-03-27T07:47:33Z</time>
      </trkpt>
      <trkpt lat="49.43882" lon="1.13289">
        <ele>17.5</ele>
        <time>2022-03-27T07:47:34Z</time>
      </trkpt>
      <trkpt lat="49.43874" lon="1.13308">
        <ele>17.5</ele>
        <time>2022-03-27T07:47:36Z</time>
      </trkpt>
      <trkpt lat="49.43871" lon="1.13316">
        <ele>17.5</ele>
        <time>2022-03-27T07:47:38Z</time>
      </trkpt>
      <trkpt lat="49.43866" lon="1.13331">
        <ele>17.5</ele>
        <time>2022-03-27T07:47:39Z</time>
      </trkpt>
      <trkpt lat="49.43863" lon="1.13339">
        <ele>17.5</ele>
        <time>2022-03-27T07:47:40Z</time>
      </trkpt>
      <trkpt lat="49.4386" lon="1.13347">
        <ele>17.5</ele>
        <time>2022-03-27T07:47:42Z</time>
      </trkpt>
      <trkpt lat="49.43858" lon="1.13355">
        <ele>17.5</ele>
        <time>2022-03-27T07:47:43Z</time>
      </trkpt>
      <trkpt lat="49.43853" lon="1.1337">
        <ele>17.5</ele>
        <time>2022-03-27T07:47:44Z</time>
      </trkpt>
      <trkpt lat="49.43851" lon="1.13377">
        <ele>17.5</ele>
        <time>2022-03-27T07:47:45Z</time>
      </trkpt>
      <trkpt lat="49.43849" lon="1.13384">
        <ele>17.6</ele>
        <time>2022-03-27T07:47:47Z</time>
      </trkpt>
      <trkpt lat="49.43847" lon="1.13389">
        <ele>17.6</ele>
        <time>2022-03-27T07:47:48Z</time>
      </trkpt>
      <trkpt lat="49.43847" lon="1.13394">
        <ele>17.6</ele>
        <time>2022-03-27T07:47:49Z</time>
      </trkpt>
      <trkpt lat="49.43849" lon="1.13404">
        <ele>17.8</ele>
        <time>2022-03-27T07:47:50Z</time>
      </trkpt>
      <trkpt lat="49.43851" lon="1.13411">
        <ele>17.8</ele>
        <time>2022-03-27T07:47:52Z</time>
      </trkpt>
      <trkpt lat="49.4385" lon="1.13417">
        <ele>17.8</ele>
        <time>2022-03-27T07:47:54Z</time>
      </trkpt>
      <trkpt lat="49.43849" lon="1.1342">
        <ele>17.9</ele>
        <time>2022-03-27T07:47:55Z</time>
      </trkpt>
      <trkpt lat="49.43848" lon="1.13427">
        <ele>17.9</ele>
        <time>2022-03-27T07:47:56Z</time>
      </trkpt>
      <trkpt lat="49.43846" lon="1.13432">
        <ele>17.9</ele>
        <time>2022-03-27T07:47:57Z</time>
      </trkpt>
      <trkpt lat="49.43844" lon="1.13438">
        <ele>17.9</ele>
        <time>2022-03-27T07:47:58Z</time>
      </trkpt>
      <trkpt lat="49.43839" lon="1.1345">
        <ele>17.9</ele>
        <time>2022-03-27T07:48:00Z</time>
      </trkpt>
      <trkpt lat="49.43835" lon="1.1346">
        <ele>17.9</ele>
        <time>2022-03-27T07:48:02Z</time>
      </trkpt>
      <trkpt lat="49.43832" lon="1.13466">
        <ele>17.9</ele>
        <time>2022-03-27T07:48:03Z</time>
      </trkpt>
      <trkpt lat="49.43829" lon="1.13473">
        <ele>17.9</ele>
        <time>2022-03-27T07:48:04Z</time>
      </trkpt>
      <trkpt lat="49.43825" lon="1.13477">
        <ele>17.9</ele>
        <time>2022-03-27T07:48:05Z</time>
      </trkpt>
      <trkpt lat="49.43822" lon="1.13482">
        <ele>17.9</ele>
        <time>2022-03-27T07:48:06Z</time>
      </trkpt>
      <trkpt lat="49.43819" lon="1.13488">
        <ele>18</ele>
        <time>2022-03-27T07:48:07Z</time>
      </trkpt>
      <trkpt lat="49.43816" lon="1.13494">
        <ele>18</ele>
        <time>2022-03-27T07:48:09Z</time>
      </trkpt>
      <trkpt lat="49.43811" lon="1.13507">
        <ele>18</ele>
        <time>2022-03-27T07:48:10Z</time>
      </trkpt>
      <trkpt lat="49.43808" lon="1.13514">
        <ele>18</ele>
        <time>2022-03-27T07:48:12Z</time>
      </trkpt>
      <trkpt lat="49.43805" lon="1.13526">
        <ele>18.1</ele>
        <time>2022-03-27T07:48:14Z</time>
      </trkpt>
      <trkpt lat="49.43803" lon="1.13532">
        <ele>18.1</ele>
        <time>2022-03-27T07:48:15Z</time>
      </trkpt>
      <trkpt lat="49.43799" lon="1.13545">
        <ele>18</ele>
        <time>2022-03-27T07:48:16Z</time>
      </trkpt>
      <trkpt lat="49.43795" lon="1.13555">
        <ele>18</ele>
        <time>2022-03-27T07:48:18Z</time>
      </trkpt>
      <trkpt lat="49.43793" lon="1.13561">
        <ele>18</ele>
        <time>2022-03-27T07:48:19Z</time>
      </trkpt>
      <trkpt lat="49.43788" lon="1.13576">
        <ele>18</ele>
        <time>2022-03-27T07:48:21Z</time>
      </trkpt>
      <trkpt lat="49.43785" lon="1.13583">
        <ele>18</ele>
        <time>2022-03-27T07:48:22Z</time>
      </trkpt>
      <trkpt lat="49.43784" lon="1.1359">
        <ele>18</ele>
        <time>2022-03-27T07:48:23Z</time>
      </trkpt>
      <trkpt lat="49.43784" lon="1.13598">
        <ele>18</ele>
        <time>2022-03-27T07:48:24Z</time>
      </trkpt>
      <trkpt lat="49.4378" lon="1.13612">
        <ele>18</ele>
        <time>2022-03-27T07:48:26Z</time>
      </trkpt>
      <trkpt lat="49.4378" lon="1.13619">
        <ele>18.1</ele>
        <time>2022-03-27T07:48:27Z</time>
      </trkpt>
      <trkpt lat="49.43778" lon="1.13624">
        <ele>18.1</ele>
        <time>2022-03-27T07:48:28Z</time>
      </trkpt>
      <trkpt lat="49.43775" lon="1.13629">
        <ele>18.1</ele>
        <time>2022-03-27T07:48:29Z</time>
      </trkpt>
      <trkpt lat="49.43772" lon="1.13646">
        <ele>18.2</ele>
        <time>2022-03-27T07:48:30Z</time>
      </trkpt>
      <trkpt lat="49.4377" lon="1.13654">
        <ele>18.2</ele>
        <time>2022-03-27T07:48:31Z</time>
      </trkpt>
      <trkpt lat="49.43767" lon="1.13669">
        <ele>18.2</ele>
        <time>2022-03-27T07:48:33Z</time>
      </trkpt>
      <trkpt lat="49.43766" lon="1.13676">
        <ele>18.2</ele>
        <time>2022-03-27T07:48:35Z</time>
      </trkpt>
      <trkpt lat="49.43765" lon="1.13683">
        <ele>18.2</ele>
        <time>2022-03-27T07:48:36Z</time>
      </trkpt>
      <trkpt lat="49.43764" lon="1.1369">
        <ele>18.2</ele>
        <time>2022-03-27T07:48:37Z</time>
      </trkpt>
      <trkpt lat="49.43762" lon="1.13705">
        <ele>18.2</ele>
        <time>2022-03-27T07:48:38Z</time>
      </trkpt>
      <trkpt lat="49.43759" lon="1.1372">
        <ele>18.2</ele>
        <time>2022-03-27T07:48:40Z</time>
      </trkpt>
      <trkpt lat="49.43757" lon="1.13726">
        <ele>18.2</ele>
        <time>2022-03-27T07:48:42Z</time>
      </trkpt>
      <trkpt lat="49.43755" lon="1.13733">
        <ele>18.1</ele>
        <time>2022-03-27T07:48:43Z</time>
      </trkpt>
      <trkpt lat="49.43753" lon="1.13741">
        <ele>18.1</ele>
        <time>2022-03-27T07:48:44Z</time>
      </trkpt>
      <trkpt lat="49.4375" lon="1.13756">
        <ele>18</ele>
        <time>2022-03-27T07:48:45Z</time>
      </trkpt>
      <trkpt lat="49.43749" lon="1.13764">
        <ele>18</ele>
        <time>2022-03-27T07:48:46Z</time>
      </trkpt>
      <trkpt lat="49.43748" lon="1.13771">
        <ele>18</ele>
        <time>2022-03-27T07:48:48Z</time>
      </trkpt>
      <trkpt lat="49.43745" lon="1.13786">
        <ele>17.9</ele>
        <time>2022-03-27T07:48:49Z</time>
      </trkpt>
      <trkpt lat="49.43743" lon="1.13793">
        <ele>17.9</ele>
        <time>2022-03-27T07:48:51Z</time>
      </trkpt>
      <trkpt lat="49.43742" lon="1.13799">
        <ele>17.9</ele>
        <time>2022-03-27T07:48:52Z</time>
      </trkpt>
      <trkpt lat="49.43738" lon="1.13813">
        <ele>18</ele>
        <time>2022-03-27T07:48:53Z</time>
      </trkpt>
      <trkpt lat="49.43736" lon="1.13819">
        <ele>18</ele>
        <time>2022-03-27T07:48:55Z</time>
      </trkpt>
      <trkpt lat="49.43734" lon="1.13826">
        <ele>18.1</ele>
        <time>2022-03-27T07:48:56Z</time>
      </trkpt>
      <trkpt lat="49.43732" lon="1.13833">
        <ele>18.2</ele>
        <time>2022-03-27T07:48:57Z</time>
      </trkpt>
      <trkpt lat="49.4373" lon="1.1384">
        <ele>18.2</ele>
        <time>2022-03-27T07:48:58Z</time>
      </trkpt>
      <trkpt lat="49.43728" lon="1.13847">
        <ele>18.3</ele>
        <time>2022-03-27T07:48:59Z</time>
      </trkpt>
      <trkpt lat="49.43727" lon="1.13855">
        <ele>18.3</ele>
        <time>2022-03-27T07:49:00Z</time>
      </trkpt>
      <trkpt lat="49.43725" lon="1.13861">
        <ele>18.4</ele>
        <time>2022-03-27T07:49:01Z</time>
      </trkpt>
      <trkpt lat="49.43723" lon="1.13869">
        <ele>18.4</ele>
        <time>2022-03-27T07:49:02Z</time>
      </trkpt>
      <trkpt lat="49.4372" lon="1.13875">
        <ele>18.4</ele>
        <time>2022-03-27T07:49:03Z</time>
      </trkpt>
      <trkpt lat="49.43718" lon="1.13882">
        <ele>18.5</ele>
        <time>2022-03-27T07:49:04Z</time>
      </trkpt>
      <trkpt lat="49.43716" lon="1.13889">
        <ele>18.5</ele>
        <time>2022-03-27T07:49:05Z</time>
      </trkpt>
      <trkpt lat="49.43716" lon="1.139">
        <ele>18.5</ele>
        <time>2022-03-27T07:49:06Z</time>
      </trkpt>
      <trkpt lat="49.43717" lon="1.13907">
        <ele>18.5</ele>
        <time>2022-03-27T07:49:08Z</time>
      </trkpt>
      <trkpt lat="49.43717" lon="1.13914">
        <ele>18.5</ele>
        <time>2022-03-27T07:49:09Z</time>
      </trkpt>
      <trkpt lat="49.43719" lon="1.13919">
        <ele>18.5</ele>
        <time>2022-03-27T07:49:10Z</time>
      </trkpt>
      <trkpt lat="49.43722" lon="1.13925">
        <ele>18.6</ele>
        <time>2022-03-27T07:49:11Z</time>
      </trkpt>
      <trkpt lat="49.43726" lon="1.13934">
        <ele>18.6</ele>
        <time>2022-03-27T07:49:12Z</time>
      </trkpt>
      <trkpt lat="49.43729" lon="1.13941">
        <ele>18.6</ele>
        <time>2022-03-27T07:49:13Z</time>
      </trkpt>
      <trkpt lat="49.43732" lon="1.13947">
        <ele>18.7</ele>
        <time>2022-03-27T07:49:14Z</time>
      </trkpt>
      <trkpt lat="49.43735" lon="1.13953">
        <ele>18.7</ele>
        <time>2022-03-27T07:49:15Z</time>
      </trkpt>
      <trkpt lat="49.43737" lon="1.13958">
        <ele>18.8</ele>
        <time>2022-03-27T07:49:17Z</time>
      </trkpt>
      <trkpt lat="49.43742" lon="1.13969">
        <ele>19</ele>
        <time>2022-03-27T07:49:18Z</time>
      </trkpt>
      <trkpt lat="49.43744" lon="1.13974">
        <ele>19.2</ele>
        <time>2022-03-27T07:49:19Z</time>
      </trkpt>
      <trkpt lat="49.43747" lon="1.13978">
        <ele>19.3</ele>
        <time>2022-03-27T07:49:20Z</time>
      </trkpt>
      <trkpt lat="49.4375" lon="1.13981">
        <ele>19.4</ele>
        <time>2022-03-27T07:49:22Z</time>
      </trkpt>
      <trkpt lat="49.43754" lon="1.13985">
        <ele>19.6</ele>
        <time>2022-03-27T07:49:23Z</time>
      </trkpt>
      <trkpt lat="49.43759" lon="1.13987">
        <ele>19.8</ele>
        <time>2022-03-27T07:49:24Z</time>
      </trkpt>
      <trkpt lat="49.43762" lon="1.13989">
        <ele>19.9</ele>
        <time>2022-03-27T07:49:25Z</time>
      </trkpt>
      <trkpt lat="49.43765" lon="1.1399">
        <ele>20</ele>
        <time>2022-03-27T07:49:26Z</time>
      </trkpt>
      <trkpt lat="49.43769" lon="1.13992">
        <ele>20.2</ele>
        <time>2022-03-27T07:49:28Z</time>
      </trkpt>
      <trkpt lat="49.43771" lon="1.13994">
        <ele>20.2</ele>
        <time>2022-03-27T07:49:29Z</time>
      </trkpt>
      <trkpt lat="49.43776" lon="1.14002">
        <ele>20.4</ele>
        <time>2022-03-27T07:49:31Z</time>
      </trkpt>
      <trkpt lat="49.43777" lon="1.14004">
        <ele>20.5</ele>
        <time>2022-03-27T07:49:32Z</time>
      </trkpt>
      <trkpt lat="49.43776" lon="1.14013">
        <ele>20.5</ele>
        <time>2022-03-27T07:49:34Z</time>
      </trkpt>
      <trkpt lat="49.43774" lon="1.14022">
        <ele>20.4</ele>
        <time>2022-03-27T07:49:36Z</time>
      </trkpt>
      <trkpt lat="49.43772" lon="1.14028">
        <ele>20.4</ele>
        <time>2022-03-27T07:49:38Z</time>
      </trkpt>
      <trkpt lat="49.43769" lon="1.14035">
        <ele>20.3</ele>
        <time>2022-03-27T07:49:39Z</time>
      </trkpt>
      <trkpt lat="49.43765" lon="1.14047">
        <ele>20.2</ele>
        <time>2022-03-27T07:49:40Z</time>
      </trkpt>
      <trkpt lat="49.43759" lon="1.1406">
        <ele>20.1</ele>
        <time>2022-03-27T07:49:42Z</time>
      </trkpt>
      <trkpt lat="49.43757" lon="1.14067">
        <ele>20</ele>
        <time>2022-03-27T07:49:43Z</time>
      </trkpt>
      <trkpt lat="49.43755" lon="1.14076">
        <ele>20</ele>
        <time>2022-03-27T07:49:44Z</time>
      </trkpt>
      <trkpt lat="49.43753" lon="1.14083">
        <ele>19.9</ele>
        <time>2022-03-27T07:49:45Z</time>
      </trkpt>
      <trkpt lat="49.43752" lon="1.14091">
        <ele>19.8</ele>
        <time>2022-03-27T07:49:46Z</time>
      </trkpt>
      <trkpt lat="49.43751" lon="1.14098">
        <ele>19.8</ele>
        <time>2022-03-27T07:49:48Z</time>
      </trkpt>
      <trkpt lat="49.4375" lon="1.14105">
        <ele>19.7</ele>
        <time>2022-03-27T07:49:49Z</time>
      </trkpt>
      <trkpt lat="49.43751" lon="1.1411">
        <ele>19.7</ele>
        <time>2022-03-27T07:49:50Z</time>
      </trkpt>
      <trkpt lat="49.43751" lon="1.14117">
        <ele>19.6</ele>
        <time>2022-03-27T07:49:51Z</time>
      </trkpt>
      <trkpt lat="49.43749" lon="1.14127">
        <ele>19.6</ele>
        <time>2022-03-27T07:49:52Z</time>
      </trkpt>
      <trkpt lat="49.43748" lon="1.14134">
        <ele>19.6</ele>
        <time>2022-03-27T07:49:53Z</time>
      </trkpt>
      <trkpt lat="49.43745" lon="1.14144">
        <ele>19.5</ele>
        <time>2022-03-27T07:49:55Z</time>
      </trkpt>
      <trkpt lat="49.43744" lon="1.14151">
        <ele>19.5</ele>
        <time>2022-03-27T07:49:56Z</time>
      </trkpt>
      <trkpt lat="49.43741" lon="1.14157">
        <ele>19.5</ele>
        <time>2022-03-27T07:49:57Z</time>
      </trkpt>
      <trkpt lat="49.4374" lon="1.14164">
        <ele>19.5</ele>
        <time>2022-03-27T07:49:58Z</time>
      </trkpt>
      <trkpt lat="49.4374" lon="1.1417">
        <ele>19.5</ele>
        <time>2022-03-27T07:50:00Z</time>
      </trkpt>
      <trkpt lat="49.43741" lon="1.1417">
        <ele>19.5</ele>
        <time>2022-03-27T07:50:01Z</time>
      </trkpt>
      <trkpt lat="49.43741" lon="1.1417">
        <ele>19.5</ele>
        <time>2022-03-27T07:50:03Z</time>
      </trkpt>
      <trkpt lat="49.43741" lon="1.1417">
        <ele>19.5</ele>
        <time>2022-03-27T07:50:04Z</time>
      </trkpt>
      <trkpt lat="49.43741" lon="1.1417">
        <ele>19.5</ele>
        <time>2022-03-27T07:50:05Z</time>
      </trkpt>
      <trkpt lat="49.43741" lon="1.14171">
        <ele>19.5</ele>
        <time>2022-03-27T07:50:06Z</time>
      </trkpt>
      <trkpt lat="49.43741" lon="1.14171">
        <ele>19.5</ele>
        <time>2022-03-27T07:50:08Z</time>
      </trkpt>
      <trkpt lat="49.43741" lon="1.14171">
        <ele>19.5</ele>
        <time>2022-03-27T07:50:09Z</time>
      </trkpt>
      <trkpt lat="49.43741" lon="1.14171">
        <ele>19.5</ele>
        <time>2022-03-27T07:50:10Z</time>
      </trkpt>
      <trkpt lat="49.43741" lon="1.14171">
        <ele>19.5</ele>
        <time>2022-03-27T07:50:11Z</time>
      </trkpt>
      <trkpt lat="49.43741" lon="1.14171">
        <ele>19.5</ele>
        <time>2022-03-27T07:50:12Z</time>
      </trkpt>
      <trkpt lat="49.43741" lon="1.14171">
        <ele>19.5</ele>
        <time>2022-03-27T07:50:13Z</time>
      </trkpt>
      <trkpt lat="49.43741" lon="1.14171">
        <ele>19.5</ele>
        <time>2022-03-27T07:50:15Z</time>
      </trkpt>
      <trkpt lat="49.43741" lon="1.14171">
        <ele>19.5</ele>
        <time>2022-03-27T07:50:16Z</time>
      </trkpt>
      <trkpt lat="49.43741" lon="1.14171">
        <ele>19.5</ele>
        <time>2022-03-27T07:50:18Z</time>
      </trkpt>
      <trkpt lat="49.43741" lon="1.14171">
        <ele>19.5</ele>
        <time>2022-03-27T07:50:20Z</time>
      </trkpt>
      <trkpt lat="49.43741" lon="1.14171">
        <ele>19.5</ele>
        <time>2022-03-27T07:50:21Z</time>
      </trkpt>
      <trkpt lat="49.43741" lon="1.14171">
        <ele>19.5</ele>
        <time>2022-03-27T07:52:01Z</time>
      </trkpt>
      <trkpt lat="49.43741" lon="1.14171">
        <ele>19.5</ele>
        <time>2022-03-27T07:52:02Z</time>
      </trkpt>
      <trkpt lat="49.43739" lon="1.14176">
        <ele>19.5</ele>
        <time>2022-03-27T07:52:03Z</time>
      </trkpt>
      <trkpt lat="49.43737" lon="1.1418">
        <ele>19.5</ele>
        <time>2022-03-27T07:52:04Z</time>
      </trkpt>
      <trkpt lat="49.43737" lon="1.14182">
        <ele>19.5</ele>
        <time>2022-03-27T07:52:05Z</time>
      </trkpt>
      <trkpt lat="49.43738" lon="1.14182">
        <ele>19.5</ele>
        <time>2022-03-27T07:52:06Z</time>
      </trkpt>
      <trkpt lat="49.43738" lon="1.14183">
        <ele>19.5</ele>
        <time>2022-03-27T07:52:07Z</time>
      </trkpt>
      <trkpt lat="49.43738" lon="1.14183">
        <ele>19.5</ele>
        <time>2022-03-27T07:52:08Z</time>
      </trkpt>
      <trkpt lat="49.43739" lon="1.14183">
        <ele>19.5</ele>
        <time>2022-03-27T07:52:09Z</time>
      </trkpt>
      <trkpt lat="49.43739" lon="1.14184">
        <ele>19.5</ele>
        <time>2022-03-27T07:52:11Z</time>
      </trkpt>
      <trkpt lat="49.43739" lon="1.14184">
        <ele>19.5</ele>
        <time>2022-03-27T07:52:12Z</time>
      </trkpt>
      <trkpt lat="49.43739" lon="1.14185">
        <ele>19.5</ele>
        <time>2022-03-27T07:52:13Z</time>
      </trkpt>
      <trkpt lat="49.4374" lon="1.14185">
        <ele>19.5</ele>
        <time>2022-03-27T07:52:14Z</time>
      </trkpt>
      <trkpt lat="49.4374" lon="1.14185">
        <ele>19.5</ele>
        <time>2022-03-27T07:52:15Z</time>
      </trkpt>
      <trkpt lat="49.4374" lon="1.14186">
        <ele>19.5</ele>
        <time>2022-03-27T07:52:16Z</time>
      </trkpt>
      <trkpt lat="49.4374" lon="1.14186">
        <ele>19.5</ele>
        <time>2022-03-27T07:52:18Z</time>
      </trkpt>
      <trkpt lat="49.43741" lon="1.14186">
        <ele>19.5</ele>
        <time>2022-03-27T07:52:20Z</time>
      </trkpt>
      <trkpt lat="49.43741" lon="1.14187">
        <ele>19.5</ele>
        <time>2022-03-27T07:52:21Z</time>
      </trkpt>
      <trkpt lat="49.43741" lon="1.14187">
        <ele>19.5</ele>
        <time>2022-03-27T07:52:23Z</time>
      </trkpt>
      <trkpt lat="49.43742" lon="1.14188">
        <ele>19.5</ele>
        <time>2022-03-27T07:52:24Z</time>
      </trkpt>
      <trkpt lat="49.43742" lon="1.14188">
        <ele>19.5</ele>
        <time>2022-03-27T07:52:26Z</time>
      </trkpt>
      <trkpt lat="49.43742" lon="1.14188">
        <ele>19.6</ele>
        <time>2022-03-27T07:52:42Z</time>
      </trkpt>
      <trkpt lat="49.43742" lon="1.14189">
        <ele>19.6</ele>
        <time>2022-03-27T07:52:44Z</time>
      </trkpt>
      <trkpt lat="49.43743" lon="1.14189">
        <ele>19.6</ele>
        <time>2022-03-27T07:52:45Z</time>
      </trkpt>
      <trkpt lat="49.43743" lon="1.14189">
        <ele>19.6</ele>
        <time>2022-03-27T07:52:46Z</time>
      </trkpt>
      <trkpt lat="49.43743" lon="1.14196">
        <ele>19.6</ele>
        <time>2022-03-27T07:52:47Z</time>
      </trkpt>
      <trkpt lat="49.43741" lon="1.142">
        <ele>19.6</ele>
        <time>2022-03-27T07:52:49Z</time>
      </trkpt>
      <trkpt lat="49.43735" lon="1.14211">
        <ele>19.6</ele>
        <time>2022-03-27T07:52:50Z</time>
      </trkpt>
      <trkpt lat="49.43733" lon="1.14222">
        <ele>19.7</ele>
        <time>2022-03-27T07:52:53Z</time>
      </trkpt>
      <trkpt lat="49.43731" lon="1.14229">
        <ele>19.7</ele>
        <time>2022-03-27T07:52:54Z</time>
      </trkpt>
      <trkpt lat="49.4373" lon="1.14234">
        <ele>19.7</ele>
        <time>2022-03-27T07:52:55Z</time>
      </trkpt>
      <trkpt lat="49.43729" lon="1.14236">
        <ele>19.8</ele>
        <time>2022-03-27T07:52:56Z</time>
      </trkpt>
      <trkpt lat="49.43727" lon="1.14244">
        <ele>19.8</ele>
        <time>2022-03-27T07:52:58Z</time>
      </trkpt>
      <trkpt lat="49.43726" lon="1.14247">
        <ele>19.8</ele>
        <time>2022-03-27T07:52:59Z</time>
      </trkpt>
      <trkpt lat="49.43726" lon="1.14248">
        <ele>19.8</ele>
        <time>2022-03-27T07:53:00Z</time>
      </trkpt>
      <trkpt lat="49.43725" lon="1.14249">
        <ele>19.8</ele>
        <time>2022-03-27T07:53:01Z</time>
      </trkpt>
      <trkpt lat="49.43724" lon="1.14249">
        <ele>19.7</ele>
        <time>2022-03-27T07:53:02Z</time>
      </trkpt>
      <trkpt lat="49.43724" lon="1.1425">
        <ele>19.7</ele>
        <time>2022-03-27T07:53:04Z</time>
      </trkpt>
      <trkpt lat="49.43723" lon="1.1425">
        <ele>19.7</ele>
        <time>2022-03-27T07:53:05Z</time>
      </trkpt>
      <trkpt lat="49.43723" lon="1.1425">
        <ele>19.7</ele>
        <time>2022-03-27T07:53:06Z</time>
      </trkpt>
      <trkpt lat="49.43724" lon="1.1425">
        <ele>19.7</ele>
        <time>2022-03-27T07:53:07Z</time>
      </trkpt>
      <trkpt lat="49.43724" lon="1.1425">
        <ele>19.7</ele>
        <time>2022-03-27T07:53:09Z</time>
      </trkpt>
      <trkpt lat="49.43723" lon="1.14252">
        <ele>19.7</ele>
        <time>2022-03-27T07:53:10Z</time>
      </trkpt>
      <trkpt lat="49.43722" lon="1.14256">
        <ele>19.7</ele>
        <time>2022-03-27T07:53:13Z</time>
      </trkpt>
      <trkpt lat="49.43722" lon="1.14257">
        <ele>19.7</ele>
        <time>2022-03-27T07:53:15Z</time>
      </trkpt>
      <trkpt lat="49.43722" lon="1.1426">
        <ele>19.7</ele>
        <time>2022-03-27T07:53:16Z</time>
      </trkpt>
      <trkpt lat="49.4372" lon="1.14267">
        <ele>19.6</ele>
        <time>2022-03-27T07:53:18Z</time>
      </trkpt>
      <trkpt lat="49.4372" lon="1.14269">
        <ele>19.6</ele>
        <time>2022-03-27T07:53:19Z</time>
      </trkpt>
      <trkpt lat="49.43718" lon="1.14275">
        <ele>19.5</ele>
        <time>2022-03-27T07:53:21Z</time>
      </trkpt>
      <trkpt lat="49.43718" lon="1.14279">
        <ele>19.5</ele>
        <time>2022-03-27T07:53:22Z</time>
      </trkpt>
      <trkpt lat="49.43716" lon="1.14286">
        <ele>19.4</ele>
        <time>2022-03-27T07:53:23Z</time>
      </trkpt>
      <trkpt lat="49.43715" lon="1.14294">
        <ele>19.4</ele>
        <time>2022-03-27T07:53:25Z</time>
      </trkpt>
      <trkpt lat="49.43714" lon="1.143">
        <ele>19.4</ele>
        <time>2022-03-27T07:53:26Z</time>
      </trkpt>
      <trkpt lat="49.43713" lon="1.14306">
        <ele>19.3</ele>
        <time>2022-03-27T07:53:27Z</time>
      </trkpt>
      <trkpt lat="49.43713" lon="1.14311">
        <ele>19.2</ele>
        <time>2022-03-27T07:53:28Z</time>
      </trkpt>
      <trkpt lat="49.43714" lon="1.1432">
        <ele>19.2</ele>
        <time>2022-03-27T07:53:30Z</time>
      </trkpt>
      <trkpt lat="49.43715" lon="1.14327">
        <ele>19</ele>
        <time>2022-03-27T07:53:31Z</time>
      </trkpt>
      <trkpt lat="49.43716" lon="1.14333">
        <ele>19</ele>
        <time>2022-03-27T07:53:33Z</time>
      </trkpt>
      <trkpt lat="49.43719" lon="1.14342">
        <ele>19.1</ele>
        <time>2022-03-27T07:53:34Z</time>
      </trkpt>
      <trkpt lat="49.43724" lon="1.14354">
        <ele>19.1</ele>
        <time>2022-03-27T07:53:36Z</time>
      </trkpt>
      <trkpt lat="49.43734" lon="1.14379">
        <ele>19.3</ele>
        <time>2022-03-27T07:53:37Z</time>
      </trkpt>
      <trkpt lat="49.43737" lon="1.14389">
        <ele>19.4</ele>
        <time>2022-03-27T07:53:39Z</time>
      </trkpt>
      <trkpt lat="49.43741" lon="1.144">
        <ele>19.4</ele>
        <time>2022-03-27T07:53:40Z</time>
      </trkpt>
      <trkpt lat="49.43749" lon="1.14422">
        <ele>19.6</ele>
        <time>2022-03-27T07:53:41Z</time>
      </trkpt>
      <trkpt lat="49.43752" lon="1.14428">
        <ele>19.6</ele>
        <time>2022-03-27T07:53:43Z</time>
      </trkpt>
      <trkpt lat="49.43754" lon="1.14436">
        <ele>19.6</ele>
        <time>2022-03-27T07:53:44Z</time>
      </trkpt>
      <trkpt lat="49.43757" lon="1.14442">
        <ele>19.6</ele>
        <time>2022-03-27T07:53:45Z</time>
      </trkpt>
      <trkpt lat="49.4376" lon="1.14458">
        <ele>19.7</ele>
        <time>2022-03-27T07:53:46Z</time>
      </trkpt>
      <trkpt lat="49.43763" lon="1.14473">
        <ele>19.7</ele>
        <time>2022-03-27T07:53:48Z</time>
      </trkpt>
      <trkpt lat="49.43764" lon="1.14489">
        <ele>19.7</ele>
        <time>2022-03-27T07:53:50Z</time>
      </trkpt>
      <trkpt lat="49.43765" lon="1.14496">
        <ele>19.7</ele>
        <time>2022-03-27T07:53:52Z</time>
      </trkpt>
      <trkpt lat="49.43765" lon="1.14501">
        <ele>19.7</ele>
        <time>2022-03-27T07:53:53Z</time>
      </trkpt>
      <trkpt lat="49.43767" lon="1.14512">
        <ele>19.7</ele>
        <time>2022-03-27T07:53:54Z</time>
      </trkpt>
      <trkpt lat="49.43768" lon="1.14518">
        <ele>19.4</ele>
        <time>2022-03-27T07:53:55Z</time>
      </trkpt>
      <trkpt lat="49.4377" lon="1.14522">
        <ele>19.2</ele>
        <time>2022-03-27T07:53:57Z</time>
      </trkpt>
      <trkpt lat="49.43773" lon="1.14529">
        <ele>19.6</ele>
        <time>2022-03-27T07:54:00Z</time>
      </trkpt>
      <trkpt lat="49.43775" lon="1.1454">
        <ele>19.6</ele>
        <time>2022-03-27T07:54:02Z</time>
      </trkpt>
      <trkpt lat="49.43775" lon="1.14545">
        <ele>19.6</ele>
        <time>2022-03-27T07:54:03Z</time>
      </trkpt>
      <trkpt lat="49.43776" lon="1.14552">
        <ele>19.6</ele>
        <time>2022-03-27T07:54:05Z</time>
      </trkpt>
      <trkpt lat="49.43777" lon="1.14566">
        <ele>19.7</ele>
        <time>2022-03-27T07:54:06Z</time>
      </trkpt>
      <trkpt lat="49.43778" lon="1.14575">
        <ele>19.7</ele>
        <time>2022-03-27T07:54:08Z</time>
      </trkpt>
      <trkpt lat="49.43778" lon="1.14582">
        <ele>19.8</ele>
        <time>2022-03-27T07:54:09Z</time>
      </trkpt>
      <trkpt lat="49.43778" lon="1.1459">
        <ele>19.8</ele>
        <time>2022-03-27T07:54:10Z</time>
      </trkpt>
      <trkpt lat="49.43778" lon="1.14597">
        <ele>19.8</ele>
        <time>2022-03-27T07:54:11Z</time>
      </trkpt>
      <trkpt lat="49.43777" lon="1.14605">
        <ele>19.8</ele>
        <time>2022-03-27T07:54:12Z</time>
      </trkpt>
      <trkpt lat="49.43774" lon="1.14625">
        <ele>19.9</ele>
        <time>2022-03-27T07:54:14Z</time>
      </trkpt>
      <trkpt lat="49.43773" lon="1.14639">
        <ele>19.9</ele>
        <time>2022-03-27T07:54:16Z</time>
      </trkpt>
      <trkpt lat="49.43773" lon="1.14645">
        <ele>20</ele>
        <time>2022-03-27T07:54:18Z</time>
      </trkpt>
      <trkpt lat="49.43773" lon="1.14655">
        <ele>20</ele>
        <time>2022-03-27T07:54:19Z</time>
      </trkpt>
      <trkpt lat="49.43774" lon="1.14672">
        <ele>20.1</ele>
        <time>2022-03-27T07:54:21Z</time>
      </trkpt>
      <trkpt lat="49.43775" lon="1.1468">
        <ele>20.1</ele>
        <time>2022-03-27T07:54:22Z</time>
      </trkpt>
      <trkpt lat="49.43776" lon="1.14687">
        <ele>20.2</ele>
        <time>2022-03-27T07:54:24Z</time>
      </trkpt>
      <trkpt lat="49.43779" lon="1.14697">
        <ele>20.2</ele>
        <time>2022-03-27T07:54:25Z</time>
      </trkpt>
      <trkpt lat="49.43781" lon="1.14703">
        <ele>20.2</ele>
        <time>2022-03-27T07:54:26Z</time>
      </trkpt>
      <trkpt lat="49.43786" lon="1.14709">
        <ele>20.2</ele>
        <time>2022-03-27T07:54:28Z</time>
      </trkpt>
      <trkpt lat="49.4379" lon="1.14715">
        <ele>20.2</ele>
        <time>2022-03-27T07:54:29Z</time>
      </trkpt>
      <trkpt lat="49.43791" lon="1.14717">
        <ele>20.2</ele>
        <time>2022-03-27T07:54:30Z</time>
      </trkpt>
      <trkpt lat="49.43792" lon="1.14719">
        <ele>20.2</ele>
        <time>2022-03-27T07:54:32Z</time>
      </trkpt>
      <trkpt lat="49.43792" lon="1.1472">
        <ele>20.2</ele>
        <time>2022-03-27T07:54:33Z</time>
      </trkpt>
      <trkpt lat="49.43792" lon="1.14723">
        <ele>20.2</ele>
        <time>2022-03-27T07:54:34Z</time>
      </trkpt>
      <trkpt lat="49.43792" lon="1.14724">
        <ele>20.2</ele>
        <time>2022-03-27T07:54:36Z</time>
      </trkpt>
      <trkpt lat="49.43793" lon="1.14724">
        <ele>20.2</ele>
        <time>2022-03-27T07:54:37Z</time>
      </trkpt>
      <trkpt lat="49.43793" lon="1.14725">
        <ele>20.2</ele>
        <time>2022-03-27T07:54:38Z</time>
      </trkpt>
      <trkpt lat="49.43793" lon="1.14725">
        <ele>20.2</ele>
        <time>2022-03-27T07:54:39Z</time>
      </trkpt>
      <trkpt lat="49.43794" lon="1.14726">
        <ele>20.2</ele>
        <time>2022-03-27T07:54:41Z</time>
      </trkpt>
      <trkpt lat="49.43794" lon="1.14726">
        <ele>20.2</ele>
        <time>2022-03-27T07:54:42Z</time>
      </trkpt>
      <trkpt lat="49.43799" lon="1.14731">
        <ele>20.2</ele>
        <time>2022-03-27T07:54:54Z</time>
      </trkpt>
      <trkpt lat="49.43815" lon="1.14741">
        <ele>20.2</ele>
        <time>2022-03-27T07:54:55Z</time>
      </trkpt>
      <trkpt lat="49.43826" lon="1.14748">
        <ele>20.2</ele>
        <time>2022-03-27T07:54:57Z</time>
      </trkpt>
      <trkpt lat="49.43835" lon="1.14754">
        <ele>20.2</ele>
        <time>2022-03-27T07:54:58Z</time>
      </trkpt>
      <trkpt lat="49.43844" lon="1.14761">
        <ele>20.2</ele>
        <time>2022-03-27T07:54:59Z</time>
      </trkpt>
      <trkpt lat="49.43849" lon="1.14762">
        <ele>20.3</ele>
        <time>2022-03-27T07:55:00Z</time>
      </trkpt>
      <trkpt lat="49.43853" lon="1.14766">
        <ele>20.3</ele>
        <time>2022-03-27T07:55:01Z</time>
      </trkpt>
      <trkpt lat="49.43855" lon="1.14771">
        <ele>20.3</ele>
        <time>2022-03-27T07:55:02Z</time>
      </trkpt>
      <trkpt lat="49.43857" lon="1.14777">
        <ele>20.3</ele>
        <time>2022-03-27T07:55:03Z</time>
      </trkpt>
      <trkpt lat="49.4386" lon="1.14784">
        <ele>20.3</ele>
        <time>2022-03-27T07:55:04Z</time>
      </trkpt>
      <trkpt lat="49.43862" lon="1.14788">
        <ele>20.3</ele>
        <time>2022-03-27T07:55:06Z</time>
      </trkpt>
      <trkpt lat="49.43863" lon="1.14793">
        <ele>20.3</ele>
        <time>2022-03-27T07:55:07Z</time>
      </trkpt>
      <trkpt lat="49.43865" lon="1.14797">
        <ele>20.3</ele>
        <time>2022-03-27T07:55:08Z</time>
      </trkpt>
      <trkpt lat="49.43867" lon="1.14803">
        <ele>20.3</ele>
        <time>2022-03-27T07:55:09Z</time>
      </trkpt>
      <trkpt lat="49.43872" lon="1.14813">
        <ele>20.4</ele>
        <time>2022-03-27T07:55:10Z</time>
      </trkpt>
      <trkpt lat="49.43875" lon="1.14821">
        <ele>20.5</ele>
        <time>2022-03-27T07:55:11Z</time>
      </trkpt>
      <trkpt lat="49.43878" lon="1.1483">
        <ele>20.6</ele>
        <time>2022-03-27T07:55:13Z</time>
      </trkpt>
      <trkpt lat="49.4388" lon="1.14839">
        <ele>20.8</ele>
        <time>2022-03-27T07:55:14Z</time>
      </trkpt>
      <trkpt lat="49.43883" lon="1.14847">
        <ele>20.9</ele>
        <time>2022-03-27T07:55:15Z</time>
      </trkpt>
      <trkpt lat="49.43886" lon="1.14852">
        <ele>21</ele>
        <time>2022-03-27T07:55:16Z</time>
      </trkpt>
      <trkpt lat="49.4389" lon="1.14857">
        <ele>21.2</ele>
        <time>2022-03-27T07:55:18Z</time>
      </trkpt>
      <trkpt lat="49.43893" lon="1.14859">
        <ele>21.2</ele>
        <time>2022-03-27T07:55:19Z</time>
      </trkpt>
      <trkpt lat="49.43896" lon="1.1486">
        <ele>21.3</ele>
        <time>2022-03-27T07:55:20Z</time>
      </trkpt>
      <trkpt lat="49.439" lon="1.1486">
        <ele>21.4</ele>
        <time>2022-03-27T07:55:22Z</time>
      </trkpt>
      <trkpt lat="49.43904" lon="1.1486">
        <ele>21.4</ele>
        <time>2022-03-27T07:55:23Z</time>
      </trkpt>
      <trkpt lat="49.43908" lon="1.1486">
        <ele>21.6</ele>
        <time>2022-03-27T07:55:24Z</time>
      </trkpt>
      <trkpt lat="49.43913" lon="1.14861">
        <ele>21.8</ele>
        <time>2022-03-27T07:55:25Z</time>
      </trkpt>
      <trkpt lat="49.43922" lon="1.14859">
        <ele>22.2</ele>
        <time>2022-03-27T07:55:26Z</time>
      </trkpt>
      <trkpt lat="49.43926" lon="1.14857">
        <ele>22.4</ele>
        <time>2022-03-27T07:55:28Z</time>
      </trkpt>
      <trkpt lat="49.43931" lon="1.14856">
        <ele>22.6</ele>
        <time>2022-03-27T07:55:29Z</time>
      </trkpt>
      <trkpt lat="49.4394" lon="1.14854">
        <ele>23</ele>
        <time>2022-03-27T07:55:30Z</time>
      </trkpt>
      <trkpt lat="49.43945" lon="1.14854">
        <ele>23.1</ele>
        <time>2022-03-27T07:55:31Z</time>
      </trkpt>
      <trkpt lat="49.43948" lon="1.14853">
        <ele>23.3</ele>
        <time>2022-03-27T07:55:32Z</time>
      </trkpt>
      <trkpt lat="49.4395" lon="1.14853">
        <ele>23.3</ele>
        <time>2022-03-27T07:55:33Z</time>
      </trkpt>
      <trkpt lat="49.43955" lon="1.14854">
        <ele>23.5</ele>
        <time>2022-03-27T07:55:34Z</time>
      </trkpt>
      <trkpt lat="49.43961" lon="1.14856">
        <ele>23.7</ele>
        <time>2022-03-27T07:55:35Z</time>
      </trkpt>
      <trkpt lat="49.43965" lon="1.14858">
        <ele>23.8</ele>
        <time>2022-03-27T07:55:36Z</time>
      </trkpt>
      <trkpt lat="49.4397" lon="1.14859">
        <ele>23.9</ele>
        <time>2022-03-27T07:55:37Z</time>
      </trkpt>
      <trkpt lat="49.43974" lon="1.1486">
        <ele>24.1</ele>
        <time>2022-03-27T07:55:38Z</time>
      </trkpt>
      <trkpt lat="49.4398" lon="1.14861">
        <ele>24.2</ele>
        <time>2022-03-27T07:55:39Z</time>
      </trkpt>
      <trkpt lat="49.43992" lon="1.14867">
        <ele>24.5</ele>
        <time>2022-03-27T07:55:41Z</time>
      </trkpt>
      <trkpt lat="49.43997" lon="1.14874">
        <ele>24.7</ele>
        <time>2022-03-27T07:55:42Z</time>
      </trkpt>
      <trkpt lat="49.44003" lon="1.14876">
        <ele>24.9</ele>
        <time>2022-03-27T07:55:43Z</time>
      </trkpt>
      <trkpt lat="49.44008" lon="1.14877">
        <ele>25</ele>
        <time>2022-03-27T07:55:44Z</time>
      </trkpt>
      <trkpt lat="49.44013" lon="1.14878">
        <ele>25.1</ele>
        <time>2022-03-27T07:55:45Z</time>
      </trkpt>
      <trkpt lat="49.44021" lon="1.14881">
        <ele>25.4</ele>
        <time>2022-03-27T07:55:47Z</time>
      </trkpt>
      <trkpt lat="49.44024" lon="1.14879">
        <ele>25.5</ele>
        <time>2022-03-27T07:55:49Z</time>
      </trkpt>
      <trkpt lat="49.44028" lon="1.14881">
        <ele>25.6</ele>
        <time>2022-03-27T07:55:50Z</time>
      </trkpt>
      <trkpt lat="49.44032" lon="1.14884">
        <ele>25.7</ele>
        <time>2022-03-27T07:55:51Z</time>
      </trkpt>
      <trkpt lat="49.44037" lon="1.14885">
        <ele>25.8</ele>
        <time>2022-03-27T07:55:52Z</time>
      </trkpt>
      <trkpt lat="49.4404" lon="1.14888">
        <ele>26</ele>
        <time>2022-03-27T07:55:53Z</time>
      </trkpt>
      <trkpt lat="49.44044" lon="1.14891">
        <ele>26.1</ele>
        <time>2022-03-27T07:55:54Z</time>
      </trkpt>
      <trkpt lat="49.44048" lon="1.14895">
        <ele>26.2</ele>
        <time>2022-03-27T07:55:55Z</time>
      </trkpt>
      <trkpt lat="49.44053" lon="1.14897">
        <ele>26.4</ele>
        <time>2022-03-27T07:55:56Z</time>
      </trkpt>
      <trkpt lat="49.44059" lon="1.149">
        <ele>26.6</ele>
        <time>2022-03-27T07:55:57Z</time>
      </trkpt>
      <trkpt lat="49.44065" lon="1.14902">
        <ele>26.8</ele>
        <time>2022-03-27T07:55:58Z</time>
      </trkpt>
      <trkpt lat="49.44069" lon="1.14905">
        <ele>27</ele>
        <time>2022-03-27T07:55:59Z</time>
      </trkpt>
      <trkpt lat="49.44073" lon="1.14907">
        <ele>27.1</ele>
        <time>2022-03-27T07:56:00Z</time>
      </trkpt>
      <trkpt lat="49.44078" lon="1.14909">
        <ele>27.3</ele>
        <time>2022-03-27T07:56:01Z</time>
      </trkpt>
      <trkpt lat="49.44085" lon="1.14912">
        <ele>27.6</ele>
        <time>2022-03-27T07:56:03Z</time>
      </trkpt>
      <trkpt lat="49.44089" lon="1.14914">
        <ele>27.7</ele>
        <time>2022-03-27T07:56:04Z</time>
      </trkpt>
      <trkpt lat="49.44093" lon="1.14915">
        <ele>27.8</ele>
        <time>2022-03-27T07:56:06Z</time>
      </trkpt>
      <trkpt lat="49.44095" lon="1.14915">
        <ele>27.9</ele>
        <time>2022-03-27T07:56:07Z</time>
      </trkpt>
      <trkpt lat="49.44096" lon="1.14915">
        <ele>27.9</ele>
        <time>2022-03-27T07:56:08Z</time>
      </trkpt>
      <trkpt lat="49.441" lon="1.14918">
        <ele>28</ele>
        <time>2022-03-27T07:56:09Z</time>
      </trkpt>
      <trkpt lat="49.44101" lon="1.1492">
        <ele>28.1</ele>
        <time>2022-03-27T07:56:10Z</time>
      </trkpt>
      <trkpt lat="49.44104" lon="1.14923">
        <ele>28.2</ele>
        <time>2022-03-27T07:56:11Z</time>
      </trkpt>
      <trkpt lat="49.44107" lon="1.14925">
        <ele>28.1</ele>
        <time>2022-03-27T07:56:12Z</time>
      </trkpt>
      <trkpt lat="49.44109" lon="1.14927">
        <ele>28.1</ele>
        <time>2022-03-27T07:56:13Z</time>
      </trkpt>
      <trkpt lat="49.44114" lon="1.1493">
        <ele>28.1</ele>
        <time>2022-03-27T07:56:14Z</time>
      </trkpt>
      <trkpt lat="49.44116" lon="1.14932">
        <ele>28.1</ele>
        <time>2022-03-27T07:56:15Z</time>
      </trkpt>
      <trkpt lat="49.44119" lon="1.14934">
        <ele>28.2</ele>
        <time>2022-03-27T07:56:17Z</time>
      </trkpt>
      <trkpt lat="49.44122" lon="1.14937">
        <ele>28.3</ele>
        <time>2022-03-27T07:56:18Z</time>
      </trkpt>
      <trkpt lat="49.44124" lon="1.1494">
        <ele>28.4</ele>
        <time>2022-03-27T07:56:19Z</time>
      </trkpt>
      <trkpt lat="49.44128" lon="1.14943">
        <ele>28.5</ele>
        <time>2022-03-27T07:56:20Z</time>
      </trkpt>
      <trkpt lat="49.44129" lon="1.14944">
        <ele>28.6</ele>
        <time>2022-03-27T07:56:21Z</time>
      </trkpt>
      <trkpt lat="49.44131" lon="1.14945">
        <ele>28.7</ele>
        <time>2022-03-27T07:56:22Z</time>
      </trkpt>
      <trkpt lat="49.44135" lon="1.14948">
        <ele>28.8</ele>
        <time>2022-03-27T07:56:23Z</time>
      </trkpt>
      <trkpt lat="49.44136" lon="1.14949">
        <ele>28.8</ele>
        <time>2022-03-27T07:56:24Z</time>
      </trkpt>
      <trkpt lat="49.44142" lon="1.14953">
        <ele>29</ele>
        <time>2022-03-27T07:56:25Z</time>
      </trkpt>
      <trkpt lat="49.44145" lon="1.14955">
        <ele>29.1</ele>
        <time>2022-03-27T07:56:27Z</time>
      </trkpt>
      <trkpt lat="49.44149" lon="1.14957">
        <ele>29.2</ele>
        <time>2022-03-27T07:56:28Z</time>
      </trkpt>
      <trkpt lat="49.44152" lon="1.14961">
        <ele>29.4</ele>
        <time>2022-03-27T07:56:29Z</time>
      </trkpt>
      <trkpt lat="49.44159" lon="1.14965">
        <ele>29.5</ele>
        <time>2022-03-27T07:56:31Z</time>
      </trkpt>
      <trkpt lat="49.44162" lon="1.14968">
        <ele>29.6</ele>
        <time>2022-03-27T07:56:33Z</time>
      </trkpt>
      <trkpt lat="49.44164" lon="1.1497">
        <ele>29.7</ele>
        <time>2022-03-27T07:56:34Z</time>
      </trkpt>
      <trkpt lat="49.44167" lon="1.14971">
        <ele>29.7</ele>
        <time>2022-03-27T07:56:35Z</time>
      </trkpt>
      <trkpt lat="49.4417" lon="1.14975">
        <ele>29.8</ele>
        <time>2022-03-27T07:56:36Z</time>
      </trkpt>
      <trkpt lat="49.44172" lon="1.1498">
        <ele>29.9</ele>
        <time>2022-03-27T07:56:37Z</time>
      </trkpt>
      <trkpt lat="49.44174" lon="1.14986">
        <ele>30</ele>
        <time>2022-03-27T07:56:39Z</time>
      </trkpt>
      <trkpt lat="49.44176" lon="1.14991">
        <ele>30</ele>
        <time>2022-03-27T07:56:40Z</time>
      </trkpt>
      <trkpt lat="49.44179" lon="1.14994">
        <ele>30.2</ele>
        <time>2022-03-27T07:56:41Z</time>
      </trkpt>
      <trkpt lat="49.44185" lon="1.14999">
        <ele>30.4</ele>
        <time>2022-03-27T07:56:42Z</time>
      </trkpt>
      <trkpt lat="49.44191" lon="1.15006">
        <ele>30.7</ele>
        <time>2022-03-27T07:56:44Z</time>
      </trkpt>
      <trkpt lat="49.44196" lon="1.15011">
        <ele>30.9</ele>
        <time>2022-03-27T07:56:46Z</time>
      </trkpt>
      <trkpt lat="49.44198" lon="1.15012">
        <ele>31</ele>
        <time>2022-03-27T07:56:47Z</time>
      </trkpt>
      <trkpt lat="49.44201" lon="1.15013">
        <ele>31.1</ele>
        <time>2022-03-27T07:56:49Z</time>
      </trkpt>
      <trkpt lat="49.44205" lon="1.15016">
        <ele>31.2</ele>
        <time>2022-03-27T07:56:50Z</time>
      </trkpt>
      <trkpt lat="49.44208" lon="1.15019">
        <ele>31.4</ele>
        <time>2022-03-27T07:56:51Z</time>
      </trkpt>
      <trkpt lat="49.44212" lon="1.15022">
        <ele>31.6</ele>
        <time>2022-03-27T07:56:52Z</time>
      </trkpt>
      <trkpt lat="49.44221" lon="1.1503">
        <ele>32</ele>
        <time>2022-03-27T07:56:54Z</time>
      </trkpt>
      <trkpt lat="49.44225" lon="1.15035">
        <ele>32.2</ele>
        <time>2022-03-27T07:56:56Z</time>
      </trkpt>
      <trkpt lat="49.44228" lon="1.15039">
        <ele>32.4</ele>
        <time>2022-03-27T07:56:57Z</time>
      </trkpt>
      <trkpt lat="49.44232" lon="1.15044">
        <ele>32.6</ele>
        <time>2022-03-27T07:56:59Z</time>
      </trkpt>
      <trkpt lat="49.44235" lon="1.15046">
        <ele>32.8</ele>
        <time>2022-03-27T07:57:00Z</time>
      </trkpt>
      <trkpt lat="49.44238" lon="1.1505">
        <ele>33</ele>
        <time>2022-03-27T07:57:01Z</time>
      </trkpt>
      <trkpt lat="49.44241" lon="1.15053">
        <ele>33.1</ele>
        <time>2022-03-27T07:57:02Z</time>
      </trkpt>
      <trkpt lat="49.44244" lon="1.15055">
        <ele>33.3</ele>
        <time>2022-03-27T07:57:03Z</time>
      </trkpt>
      <trkpt lat="49.4425" lon="1.15054">
        <ele>33.6</ele>
        <time>2022-03-27T07:57:04Z</time>
      </trkpt>
      <trkpt lat="49.44254" lon="1.15056">
        <ele>33.8</ele>
        <time>2022-03-27T07:57:06Z</time>
      </trkpt>
      <trkpt lat="49.44258" lon="1.15059">
        <ele>34.1</ele>
        <time>2022-03-27T07:57:07Z</time>
      </trkpt>
      <trkpt lat="49.44262" lon="1.15062">
        <ele>34.3</ele>
        <time>2022-03-27T07:57:08Z</time>
      </trkpt>
      <trkpt lat="49.44269" lon="1.15068">
        <ele>34.8</ele>
        <time>2022-03-27T07:57:09Z</time>
      </trkpt>
      <trkpt lat="49.44275" lon="1.15074">
        <ele>35.1</ele>
        <time>2022-03-27T07:57:12Z</time>
      </trkpt>
      <trkpt lat="49.44277" lon="1.15077">
        <ele>35.3</ele>
        <time>2022-03-27T07:57:13Z</time>
      </trkpt>
      <trkpt lat="49.44281" lon="1.1508">
        <ele>35.5</ele>
        <time>2022-03-27T07:57:14Z</time>
      </trkpt>
      <trkpt lat="49.44282" lon="1.15081">
        <ele>35.6</ele>
        <time>2022-03-27T07:57:15Z</time>
      </trkpt>
      <trkpt lat="49.44286" lon="1.15083">
        <ele>35.8</ele>
        <time>2022-03-27T07:57:16Z</time>
      </trkpt>
      <trkpt lat="49.44289" lon="1.15086">
        <ele>36</ele>
        <time>2022-03-27T07:57:17Z</time>
      </trkpt>
      <trkpt lat="49.44295" lon="1.15091">
        <ele>36.4</ele>
        <time>2022-03-27T07:57:18Z</time>
      </trkpt>
      <trkpt lat="49.443" lon="1.15096">
        <ele>36.8</ele>
        <time>2022-03-27T07:57:20Z</time>
      </trkpt>
      <trkpt lat="49.44303" lon="1.15099">
        <ele>37</ele>
        <time>2022-03-27T07:57:21Z</time>
      </trkpt>
      <trkpt lat="49.44306" lon="1.15104">
        <ele>37.2</ele>
        <time>2022-03-27T07:57:23Z</time>
      </trkpt>
      <trkpt lat="49.44308" lon="1.1511">
        <ele>37.5</ele>
        <time>2022-03-27T07:57:24Z</time>
      </trkpt>
      <trkpt lat="49.44307" lon="1.15116">
        <ele>38.2</ele>
        <time>2022-03-27T07:57:25Z</time>
      </trkpt>
      <trkpt lat="49.44306" lon="1.1512">
        <ele>38.4</ele>
        <time>2022-03-27T07:57:26Z</time>
      </trkpt>
      <trkpt lat="49.443" lon="1.15124">
        <ele>38.7</ele>
        <time>2022-03-27T07:57:28Z</time>
      </trkpt>
      <trkpt lat="49.44296" lon="1.15125">
        <ele>38.8</ele>
        <time>2022-03-27T07:57:29Z</time>
      </trkpt>
      <trkpt lat="49.44291" lon="1.15125">
        <ele>39.1</ele>
        <time>2022-03-27T07:57:31Z</time>
      </trkpt>
      <trkpt lat="49.44286" lon="1.15124">
        <ele>39.3</ele>
        <time>2022-03-27T07:57:32Z</time>
      </trkpt>
      <trkpt lat="49.44283" lon="1.15123">
        <ele>39.5</ele>
        <time>2022-03-27T07:57:33Z</time>
      </trkpt>
      <trkpt lat="49.4428" lon="1.15123">
        <ele>39.7</ele>
        <time>2022-03-27T07:57:34Z</time>
      </trkpt>
      <trkpt lat="49.44276" lon="1.15121">
        <ele>39.9</ele>
        <time>2022-03-27T07:57:36Z</time>
      </trkpt>
      <trkpt lat="49.44274" lon="1.1512">
        <ele>40</ele>
        <time>2022-03-27T07:57:37Z</time>
      </trkpt>
      <trkpt lat="49.44273" lon="1.15119">
        <ele>40.1</ele>
        <time>2022-03-27T07:57:38Z</time>
      </trkpt>
      <trkpt lat="49.44269" lon="1.15117">
        <ele>40.3</ele>
        <time>2022-03-27T07:57:40Z</time>
      </trkpt>
      <trkpt lat="49.44265" lon="1.15115">
        <ele>40.5</ele>
        <time>2022-03-27T07:57:41Z</time>
      </trkpt>
      <trkpt lat="49.44264" lon="1.15114">
        <ele>40.6</ele>
        <time>2022-03-27T07:57:42Z</time>
      </trkpt>
      <trkpt lat="49.44262" lon="1.15112">
        <ele>40.8</ele>
        <time>2022-03-27T07:57:43Z</time>
      </trkpt>
      <trkpt lat="49.4426" lon="1.1511">
        <ele>40.9</ele>
        <time>2022-03-27T07:57:44Z</time>
      </trkpt>
      <trkpt lat="49.4426" lon="1.15108">
        <ele>41</ele>
        <time>2022-03-27T07:57:45Z</time>
      </trkpt>
      <trkpt lat="49.44261" lon="1.15108">
        <ele>41</ele>
        <time>2022-03-27T07:57:46Z</time>
      </trkpt>
      <trkpt lat="49.44259" lon="1.15106">
        <ele>41.1</ele>
        <time>2022-03-27T07:57:47Z</time>
      </trkpt>
      <trkpt lat="49.44258" lon="1.15105">
        <ele>41.2</ele>
        <time>2022-03-27T07:57:48Z</time>
      </trkpt>
      <trkpt lat="49.44256" lon="1.15104">
        <ele>41.3</ele>
        <time>2022-03-27T07:57:49Z</time>
      </trkpt>
      <trkpt lat="49.44253" lon="1.15103">
        <ele>41.7</ele>
        <time>2022-03-27T07:57:51Z</time>
      </trkpt>
      <trkpt lat="49.44249" lon="1.15101">
        <ele>42</ele>
        <time>2022-03-27T07:57:52Z</time>
      </trkpt>
      <trkpt lat="49.44243" lon="1.15098">
        <ele>42.6</ele>
        <time>2022-03-27T07:57:53Z</time>
      </trkpt>
      <trkpt lat="49.4424" lon="1.15096">
        <ele>43</ele>
        <time>2022-03-27T07:57:54Z</time>
      </trkpt>
      <trkpt lat="49.44235" lon="1.15095">
        <ele>43.4</ele>
        <time>2022-03-27T07:57:56Z</time>
      </trkpt>
      <trkpt lat="49.44232" lon="1.15095">
        <ele>43.7</ele>
        <time>2022-03-27T07:57:57Z</time>
      </trkpt>
      <trkpt lat="49.44227" lon="1.15095">
        <ele>44.1</ele>
        <time>2022-03-27T07:57:58Z</time>
      </trkpt>
      <trkpt lat="49.44223" lon="1.15097">
        <ele>44.6</ele>
        <time>2022-03-27T07:57:59Z</time>
      </trkpt>
      <trkpt lat="49.44219" lon="1.15099">
        <ele>44.9</ele>
        <time>2022-03-27T07:58:00Z</time>
      </trkpt>
      <trkpt lat="49.44218" lon="1.151">
        <ele>45</ele>
        <time>2022-03-27T07:58:01Z</time>
      </trkpt>
      <trkpt lat="49.44215" lon="1.15104">
        <ele>45.4</ele>
        <time>2022-03-27T07:58:02Z</time>
      </trkpt>
      <trkpt lat="49.44213" lon="1.15106">
        <ele>45.6</ele>
        <time>2022-03-27T07:58:03Z</time>
      </trkpt>
      <trkpt lat="49.4421" lon="1.15111">
        <ele>45.8</ele>
        <time>2022-03-27T07:58:05Z</time>
      </trkpt>
      <trkpt lat="49.44208" lon="1.15116">
        <ele>45.8</ele>
        <time>2022-03-27T07:58:06Z</time>
      </trkpt>
      <trkpt lat="49.44206" lon="1.15124">
        <ele>46.1</ele>
        <time>2022-03-27T07:58:07Z</time>
      </trkpt>
      <trkpt lat="49.44204" lon="1.15131">
        <ele>46.3</ele>
        <time>2022-03-27T07:58:08Z</time>
      </trkpt>
      <trkpt lat="49.44202" lon="1.15137">
        <ele>46.5</ele>
        <time>2022-03-27T07:58:09Z</time>
      </trkpt>
      <trkpt lat="49.44201" lon="1.15142">
        <ele>46.7</ele>
        <time>2022-03-27T07:58:10Z</time>
      </trkpt>
      <trkpt lat="49.442" lon="1.1515">
        <ele>46.9</ele>
        <time>2022-03-27T07:58:11Z</time>
      </trkpt>
      <trkpt lat="49.44199" lon="1.15155">
        <ele>47.1</ele>
        <time>2022-03-27T07:58:13Z</time>
      </trkpt>
      <trkpt lat="49.44198" lon="1.1516">
        <ele>47.2</ele>
        <time>2022-03-27T07:58:14Z</time>
      </trkpt>
      <trkpt lat="49.44196" lon="1.15166">
        <ele>47.4</ele>
        <time>2022-03-27T07:58:15Z</time>
      </trkpt>
      <trkpt lat="49.44196" lon="1.15172">
        <ele>47.6</ele>
        <time>2022-03-27T07:58:16Z</time>
      </trkpt>
      <trkpt lat="49.44195" lon="1.1518">
        <ele>47.8</ele>
        <time>2022-03-27T07:58:17Z</time>
      </trkpt>
      <trkpt lat="49.44193" lon="1.15187">
        <ele>48</ele>
        <time>2022-03-27T07:58:18Z</time>
      </trkpt>
      <trkpt lat="49.44191" lon="1.15193">
        <ele>48</ele>
        <time>2022-03-27T07:58:19Z</time>
      </trkpt>
      <trkpt lat="49.44188" lon="1.152">
        <ele>48</ele>
        <time>2022-03-27T07:58:21Z</time>
      </trkpt>
      <trkpt lat="49.44187" lon="1.15205">
        <ele>48.1</ele>
        <time>2022-03-27T07:58:22Z</time>
      </trkpt>
      <trkpt lat="49.44186" lon="1.1521">
        <ele>48.4</ele>
        <time>2022-03-27T07:58:23Z</time>
      </trkpt>
      <trkpt lat="49.44186" lon="1.15218">
        <ele>48.8</ele>
        <time>2022-03-27T07:58:24Z</time>
      </trkpt>
      <trkpt lat="49.44186" lon="1.15225">
        <ele>49.1</ele>
        <time>2022-03-27T07:58:25Z</time>
      </trkpt>
      <trkpt lat="49.44187" lon="1.15235">
        <ele>49.6</ele>
        <time>2022-03-27T07:58:27Z</time>
      </trkpt>
      <trkpt lat="49.44187" lon="1.1524">
        <ele>49.8</ele>
        <time>2022-03-27T07:58:29Z</time>
      </trkpt>
      <trkpt lat="49.4419" lon="1.15249">
        <ele>50.4</ele>
        <time>2022-03-27T07:58:31Z</time>
      </trkpt>
      <trkpt lat="49.44193" lon="1.15257">
        <ele>50.8</ele>
        <time>2022-03-27T07:58:33Z</time>
      </trkpt>
      <trkpt lat="49.44194" lon="1.15264">
        <ele>51.1</ele>
        <time>2022-03-27T07:58:35Z</time>
      </trkpt>
      <trkpt lat="49.44197" lon="1.15271">
        <ele>51.6</ele>
        <time>2022-03-27T07:58:37Z</time>
      </trkpt>
      <trkpt lat="49.44198" lon="1.15276">
        <ele>51.9</ele>
        <time>2022-03-27T07:58:38Z</time>
      </trkpt>
      <trkpt lat="49.442" lon="1.15282">
        <ele>52.2</ele>
        <time>2022-03-27T07:58:39Z</time>
      </trkpt>
      <trkpt lat="49.44203" lon="1.15293">
        <ele>52.8</ele>
        <time>2022-03-27T07:58:40Z</time>
      </trkpt>
      <trkpt lat="49.44205" lon="1.153">
        <ele>53.2</ele>
        <time>2022-03-27T07:58:42Z</time>
      </trkpt>
      <trkpt lat="49.44207" lon="1.15305">
        <ele>53.5</ele>
        <time>2022-03-27T07:58:43Z</time>
      </trkpt>
      <trkpt lat="49.44209" lon="1.15311">
        <ele>53.9</ele>
        <time>2022-03-27T07:58:44Z</time>
      </trkpt>
      <trkpt lat="49.4421" lon="1.15318">
        <ele>54.3</ele>
        <time>2022-03-27T07:58:45Z</time>
      </trkpt>
      <trkpt lat="49.44212" lon="1.15323">
        <ele>54.6</ele>
        <time>2022-03-27T07:58:46Z</time>
      </trkpt>
      <trkpt lat="49.44214" lon="1.1533">
        <ele>55</ele>
        <time>2022-03-27T07:58:47Z</time>
      </trkpt>
      <trkpt lat="49.44216" lon="1.15335">
        <ele>55.3</ele>
        <time>2022-03-27T07:58:48Z</time>
      </trkpt>
      <trkpt lat="49.44218" lon="1.15342">
        <ele>55.8</ele>
        <time>2022-03-27T07:58:50Z</time>
      </trkpt>
      <trkpt lat="49.44221" lon="1.15347">
        <ele>56.1</ele>
        <time>2022-03-27T07:58:51Z</time>
      </trkpt>
      <trkpt lat="49.44224" lon="1.15353">
        <ele>56.5</ele>
        <time>2022-03-27T07:58:52Z</time>
      </trkpt>
      <trkpt lat="49.44227" lon="1.15358">
        <ele>56.9</ele>
        <time>2022-03-27T07:58:53Z</time>
      </trkpt>
      <trkpt lat="49.44229" lon="1.15362">
        <ele>57.2</ele>
        <time>2022-03-27T07:58:54Z</time>
      </trkpt>
      <trkpt lat="49.44232" lon="1.15368">
        <ele>57.6</ele>
        <time>2022-03-27T07:58:56Z</time>
      </trkpt>
      <trkpt lat="49.44235" lon="1.15373">
        <ele>58</ele>
        <time>2022-03-27T07:58:57Z</time>
      </trkpt>
      <trkpt lat="49.44239" lon="1.15378">
        <ele>58.3</ele>
        <time>2022-03-27T07:58:59Z</time>
      </trkpt>
      <trkpt lat="49.44241" lon="1.15383">
        <ele>58.6</ele>
        <time>2022-03-27T07:59:00Z</time>
      </trkpt>
      <trkpt lat="49.44244" lon="1.15387">
        <ele>58.9</ele>
        <time>2022-03-27T07:59:01Z</time>
      </trkpt>
      <trkpt lat="49.44246" lon="1.15393">
        <ele>59.3</ele>
        <time>2022-03-27T07:59:03Z</time>
      </trkpt>
      <trkpt lat="49.44248" lon="1.15398">
        <ele>59.6</ele>
        <time>2022-03-27T07:59:04Z</time>
      </trkpt>
      <trkpt lat="49.4425" lon="1.15406">
        <ele>60</ele>
        <time>2022-03-27T07:59:05Z</time>
      </trkpt>
      <trkpt lat="49.44251" lon="1.15411">
        <ele>60.3</ele>
        <time>2022-03-27T07:59:07Z</time>
      </trkpt>
      <trkpt lat="49.44253" lon="1.15416">
        <ele>60.6</ele>
        <time>2022-03-27T07:59:08Z</time>
      </trkpt>
      <trkpt lat="49.44256" lon="1.15421">
        <ele>60.9</ele>
        <time>2022-03-27T07:59:09Z</time>
      </trkpt>
      <trkpt lat="49.44258" lon="1.15427">
        <ele>61.2</ele>
        <time>2022-03-27T07:59:11Z</time>
      </trkpt>
      <trkpt lat="49.44261" lon="1.15431">
        <ele>61.5</ele>
        <time>2022-03-27T07:59:13Z</time>
      </trkpt>
      <trkpt lat="49.44264" lon="1.15435">
        <ele>61.8</ele>
        <time>2022-03-27T07:59:14Z</time>
      </trkpt>
      <trkpt lat="49.44265" lon="1.15436">
        <ele>61.9</ele>
        <time>2022-03-27T07:59:15Z</time>
      </trkpt>
      <trkpt lat="49.4427" lon="1.15441">
        <ele>62.4</ele>
        <time>2022-03-27T07:59:16Z</time>
      </trkpt>
      <trkpt lat="49.44274" lon="1.15447">
        <ele>62.8</ele>
        <time>2022-03-27T07:59:18Z</time>
      </trkpt>
      <trkpt lat="49.44277" lon="1.15449">
        <ele>63.1</ele>
        <time>2022-03-27T07:59:20Z</time>
      </trkpt>
      <trkpt lat="49.44282" lon="1.15455">
        <ele>63.5</ele>
        <time>2022-03-27T07:59:21Z</time>
      </trkpt>
      <trkpt lat="49.44284" lon="1.15458">
        <ele>63.8</ele>
        <time>2022-03-27T07:59:22Z</time>
      </trkpt>
      <trkpt lat="49.44287" lon="1.15463">
        <ele>64.1</ele>
        <time>2022-03-27T07:59:24Z</time>
      </trkpt>
      <trkpt lat="49.44289" lon="1.15467">
        <ele>64.4</ele>
        <time>2022-03-27T07:59:25Z</time>
      </trkpt>
      <trkpt lat="49.44292" lon="1.15474">
        <ele>64.9</ele>
        <time>2022-03-27T07:59:27Z</time>
      </trkpt>
      <trkpt lat="49.44294" lon="1.15481">
        <ele>65.3</ele>
        <time>2022-03-27T07:59:28Z</time>
      </trkpt>
      <trkpt lat="49.44294" lon="1.15485">
        <ele>65.5</ele>
        <time>2022-03-27T07:59:29Z</time>
      </trkpt>
      <trkpt lat="49.44295" lon="1.1549">
        <ele>65.8</ele>
        <time>2022-03-27T07:59:31Z</time>
      </trkpt>
      <trkpt lat="49.44296" lon="1.15495">
        <ele>66</ele>
        <time>2022-03-27T07:59:32Z</time>
      </trkpt>
      <trkpt lat="49.44296" lon="1.15497">
        <ele>66.1</ele>
        <time>2022-03-27T07:59:33Z</time>
      </trkpt>
      <trkpt lat="49.44297" lon="1.15503">
        <ele>66.4</ele>
        <time>2022-03-27T07:59:35Z</time>
      </trkpt>
      <trkpt lat="49.44297" lon="1.15507">
        <ele>66.6</ele>
        <time>2022-03-27T07:59:36Z</time>
      </trkpt>
      <trkpt lat="49.44299" lon="1.15512">
        <ele>66.9</ele>
        <time>2022-03-27T07:59:37Z</time>
      </trkpt>
      <trkpt lat="49.44299" lon="1.15514">
        <ele>67</ele>
        <time>2022-03-27T07:59:38Z</time>
      </trkpt>
      <trkpt lat="49.443" lon="1.15519">
        <ele>67.2</ele>
        <time>2022-03-27T07:59:39Z</time>
      </trkpt>
      <trkpt lat="49.44301" lon="1.15526">
        <ele>67.6</ele>
        <time>2022-03-27T07:59:41Z</time>
      </trkpt>
      <trkpt lat="49.44301" lon="1.15529">
        <ele>67.8</ele>
        <time>2022-03-27T07:59:42Z</time>
      </trkpt>
      <trkpt lat="49.443" lon="1.15534">
        <ele>68</ele>
        <time>2022-03-27T07:59:43Z</time>
      </trkpt>
      <trkpt lat="49.44297" lon="1.15541">
        <ele>68.4</ele>
        <time>2022-03-27T07:59:45Z</time>
      </trkpt>
      <trkpt lat="49.44296" lon="1.15544">
        <ele>68.6</ele>
        <time>2022-03-27T07:59:46Z</time>
      </trkpt>
      <trkpt lat="49.44292" lon="1.15556">
        <ele>69.2</ele>
        <time>2022-03-27T07:59:48Z</time>
      </trkpt>
      <trkpt lat="49.44291" lon="1.15562">
        <ele>69.5</ele>
        <time>2022-03-27T07:59:49Z</time>
      </trkpt>
      <trkpt lat="49.4429" lon="1.15566">
        <ele>69.7</ele>
        <time>2022-03-27T07:59:50Z</time>
      </trkpt>
      <trkpt lat="49.44288" lon="1.15572">
        <ele>70</ele>
        <time>2022-03-27T07:59:52Z</time>
      </trkpt>
      <trkpt lat="49.44287" lon="1.15576">
        <ele>70.2</ele>
        <time>2022-03-27T07:59:53Z</time>
      </trkpt>
      <trkpt lat="49.44286" lon="1.15586">
        <ele>70.6</ele>
        <time>2022-03-27T07:59:55Z</time>
      </trkpt>
      <trkpt lat="49.44285" lon="1.15593">
        <ele>70.7</ele>
        <time>2022-03-27T07:59:57Z</time>
      </trkpt>
      <trkpt lat="49.44285" lon="1.15597">
        <ele>70.7</ele>
        <time>2022-03-27T07:59:58Z</time>
      </trkpt>
      <trkpt lat="49.44285" lon="1.15601">
        <ele>70.8</ele>
        <time>2022-03-27T07:59:59Z</time>
      </trkpt>
      <trkpt lat="49.44285" lon="1.15604">
        <ele>70.8</ele>
        <time>2022-03-27T08:00:00Z</time>
      </trkpt>
      <trkpt lat="49.44285" lon="1.15608">
        <ele>70.9</ele>
        <time>2022-03-27T08:00:02Z</time>
      </trkpt>
      <trkpt lat="49.44288" lon="1.15612">
        <ele>70.7</ele>
        <time>2022-03-27T08:00:03Z</time>
      </trkpt>
      <trkpt lat="49.44289" lon="1.15613">
        <ele>70.6</ele>
        <time>2022-03-27T08:00:04Z</time>
      </trkpt>
      <trkpt lat="49.44291" lon="1.15616">
        <ele>70.3</ele>
        <time>2022-03-27T08:00:05Z</time>
      </trkpt>
      <trkpt lat="49.44293" lon="1.15619">
        <ele>70.1</ele>
        <time>2022-03-27T08:00:06Z</time>
      </trkpt>
      <trkpt lat="49.44297" lon="1.15623">
        <ele>69.7</ele>
        <time>2022-03-27T08:00:07Z</time>
      </trkpt>
      <trkpt lat="49.44298" lon="1.15625">
        <ele>69.5</ele>
        <time>2022-03-27T08:00:08Z</time>
      </trkpt>
      <trkpt lat="49.44301" lon="1.15631">
        <ele>69</ele>
        <time>2022-03-27T08:00:09Z</time>
      </trkpt>
      <trkpt lat="49.44303" lon="1.15641">
        <ele>68.3</ele>
        <time>2022-03-27T08:00:11Z</time>
      </trkpt>
      <trkpt lat="49.44306" lon="1.15654">
        <ele>67.3</ele>
        <time>2022-03-27T08:00:12Z</time>
      </trkpt>
      <trkpt lat="49.44308" lon="1.15663">
        <ele>66.6</ele>
        <time>2022-03-27T08:00:14Z</time>
      </trkpt>
      <trkpt lat="49.44309" lon="1.15669">
        <ele>66.2</ele>
        <time>2022-03-27T08:00:15Z</time>
      </trkpt>
      <trkpt lat="49.44311" lon="1.15675">
        <ele>65.8</ele>
        <time>2022-03-27T08:00:16Z</time>
      </trkpt>
      <trkpt lat="49.44312" lon="1.1568">
        <ele>65.7</ele>
        <time>2022-03-27T08:00:17Z</time>
      </trkpt>
      <trkpt lat="49.44313" lon="1.15683">
        <ele>65.7</ele>
        <time>2022-03-27T08:00:18Z</time>
      </trkpt>
      <trkpt lat="49.44313" lon="1.15685">
        <ele>65.7</ele>
        <time>2022-03-27T08:00:20Z</time>
      </trkpt>
      <trkpt lat="49.44312" lon="1.15686">
        <ele>65.7</ele>
        <time>2022-03-27T08:00:22Z</time>
      </trkpt>
      <trkpt lat="49.44312" lon="1.15686">
        <ele>65.7</ele>
        <time>2022-03-27T08:00:24Z</time>
      </trkpt>
      <trkpt lat="49.44311" lon="1.15685">
        <ele>65.6</ele>
        <time>2022-03-27T08:00:26Z</time>
      </trkpt>
      <trkpt lat="49.44311" lon="1.15685">
        <ele>65.6</ele>
        <time>2022-03-27T08:00:27Z</time>
      </trkpt>
      <trkpt lat="49.44311" lon="1.15685">
        <ele>65.6</ele>
        <time>2022-03-27T08:00:29Z</time>
      </trkpt>
      <trkpt lat="49.44311" lon="1.15686">
        <ele>65.6</ele>
        <time>2022-03-27T08:00:31Z</time>
      </trkpt>
      <trkpt lat="49.44311" lon="1.15687">
        <ele>65.6</ele>
        <time>2022-03-27T08:00:33Z</time>
      </trkpt>
      <trkpt lat="49.4431" lon="1.15688">
        <ele>65.6</ele>
        <time>2022-03-27T08:00:34Z</time>
      </trkpt>
      <trkpt lat="49.4431" lon="1.15688">
        <ele>65.6</ele>
        <time>2022-03-27T08:00:35Z</time>
      </trkpt>
      <trkpt lat="49.44306" lon="1.15698">
        <ele>65.5</ele>
        <time>2022-03-27T08:00:37Z</time>
      </trkpt>
      <trkpt lat="49.44306" lon="1.15703">
        <ele>65.2</ele>
        <time>2022-03-27T08:00:38Z</time>
      </trkpt>
      <trkpt lat="49.44306" lon="1.15704">
        <ele>65.1</ele>
        <time>2022-03-27T08:00:39Z</time>
      </trkpt>
      <trkpt lat="49.4431" lon="1.15708">
        <ele>64.8</ele>
        <time>2022-03-27T08:00:41Z</time>
      </trkpt>
      <trkpt lat="49.44311" lon="1.1571">
        <ele>64.6</ele>
        <time>2022-03-27T08:00:42Z</time>
      </trkpt>
      <trkpt lat="49.44312" lon="1.15713">
        <ele>64.4</ele>
        <time>2022-03-27T08:00:44Z</time>
      </trkpt>
      <trkpt lat="49.44311" lon="1.15721">
        <ele>63.9</ele>
        <time>2022-03-27T08:00:45Z</time>
      </trkpt>
      <trkpt lat="49.4431" lon="1.15725">
        <ele>63.6</ele>
        <time>2022-03-27T08:00:46Z</time>
      </trkpt>
      <trkpt lat="49.44311" lon="1.15729">
        <ele>63.3</ele>
        <time>2022-03-27T08:00:48Z</time>
      </trkpt>
      <trkpt lat="49.44313" lon="1.15733">
        <ele>62.9</ele>
        <time>2022-03-27T08:00:49Z</time>
      </trkpt>
      <trkpt lat="49.44315" lon="1.15738">
        <ele>62.4</ele>
        <time>2022-03-27T08:00:50Z</time>
      </trkpt>
      <trkpt lat="49.44317" lon="1.15744">
        <ele>61.9</ele>
        <time>2022-03-27T08:00:51Z</time>
      </trkpt>
      <trkpt lat="49.44318" lon="1.15749">
        <ele>61.4</ele>
        <time>2022-03-27T08:00:52Z</time>
      </trkpt>
      <trkpt lat="49.44319" lon="1.15754">
        <ele>60.9</ele>
        <time>2022-03-27T08:00:53Z</time>
      </trkpt>
      <trkpt lat="49.4432" lon="1.15759">
        <ele>60.3</ele>
        <time>2022-03-27T08:00:54Z</time>
      </trkpt>
      <trkpt lat="49.44321" lon="1.15762">
        <ele>60</ele>
        <time>2022-03-27T08:00:55Z</time>
      </trkpt>
      <trkpt lat="49.44321" lon="1.15764">
        <ele>59.8</ele>
        <time>2022-03-27T08:00:56Z</time>
      </trkpt>
      <trkpt lat="49.44321" lon="1.15765">
        <ele>59.7</ele>
        <time>2022-03-27T08:00:57Z</time>
      </trkpt>
      <trkpt lat="49.44321" lon="1.15767">
        <ele>59.5</ele>
        <time>2022-03-27T08:00:58Z</time>
      </trkpt>
      <trkpt lat="49.44321" lon="1.15768">
        <ele>59.4</ele>
        <time>2022-03-27T08:01:00Z</time>
      </trkpt>
      <trkpt lat="49.44321" lon="1.15768">
        <ele>59.4</ele>
        <time>2022-03-27T08:01:01Z</time>
      </trkpt>
      <trkpt lat="49.44321" lon="1.15768">
        <ele>59.3</ele>
        <time>2022-03-27T08:01:02Z</time>
      </trkpt>
      <trkpt lat="49.44324" lon="1.15773">
        <ele>58.8</ele>
        <time>2022-03-27T08:01:03Z</time>
      </trkpt>
      <trkpt lat="49.44326" lon="1.15777">
        <ele>58.8</ele>
        <time>2022-03-27T08:01:05Z</time>
      </trkpt>
      <trkpt lat="49.44328" lon="1.15782">
        <ele>57.3</ele>
        <time>2022-03-27T08:01:12Z</time>
      </trkpt>
      <trkpt lat="49.44331" lon="1.15786">
        <ele>57</ele>
        <time>2022-03-27T08:01:13Z</time>
      </trkpt>
      <trkpt lat="49.44333" lon="1.15792">
        <ele>56.7</ele>
        <time>2022-03-27T08:01:15Z</time>
      </trkpt>
      <trkpt lat="49.44334" lon="1.15797">
        <ele>56.5</ele>
        <time>2022-03-27T08:01:16Z</time>
      </trkpt>
      <trkpt lat="49.44336" lon="1.15804">
        <ele>56.2</ele>
        <time>2022-03-27T08:01:17Z</time>
      </trkpt>
      <trkpt lat="49.44338" lon="1.15805">
        <ele>56.1</ele>
        <time>2022-03-27T08:01:19Z</time>
      </trkpt>
      <trkpt lat="49.44339" lon="1.15803">
        <ele>56.1</ele>
        <time>2022-03-27T08:01:20Z</time>
      </trkpt>
      <trkpt lat="49.4434" lon="1.15801">
        <ele>56</ele>
        <time>2022-03-27T08:01:21Z</time>
      </trkpt>
      <trkpt lat="49.4434" lon="1.15799">
        <ele>55.9</ele>
        <time>2022-03-27T08:01:22Z</time>
      </trkpt>
      <trkpt lat="49.44338" lon="1.15799">
        <ele>55.8</ele>
        <time>2022-03-27T08:01:23Z</time>
      </trkpt>
      <trkpt lat="49.44337" lon="1.158">
        <ele>55.8</ele>
        <time>2022-03-27T08:01:24Z</time>
      </trkpt>
      <trkpt lat="49.44336" lon="1.15801">
        <ele>55.7</ele>
        <time>2022-03-27T08:01:25Z</time>
      </trkpt>
      <trkpt lat="49.44338" lon="1.15807">
        <ele>55.5</ele>
        <time>2022-03-27T08:01:27Z</time>
      </trkpt>
      <trkpt lat="49.44338" lon="1.15808">
        <ele>55.5</ele>
        <time>2022-03-27T08:01:28Z</time>
      </trkpt>
      <trkpt lat="49.44339" lon="1.15809">
        <ele>55.4</ele>
        <time>2022-03-27T08:01:29Z</time>
      </trkpt>
      <trkpt lat="49.44339" lon="1.15811">
        <ele>55.4</ele>
        <time>2022-03-27T08:01:30Z</time>
      </trkpt>
      <trkpt lat="49.44341" lon="1.15817">
        <ele>55.1</ele>
        <time>2022-03-27T08:01:32Z</time>
      </trkpt>
      <trkpt lat="49.44343" lon="1.15824">
        <ele>54.9</ele>
        <time>2022-03-27T08:01:33Z</time>
      </trkpt>
      <trkpt lat="49.44355" lon="1.1586">
        <ele>53.7</ele>
        <time>2022-03-27T08:01:35Z</time>
      </trkpt>
      <trkpt lat="49.44358" lon="1.1587">
        <ele>53.4</ele>
        <time>2022-03-27T08:01:36Z</time>
      </trkpt>
      <trkpt lat="49.44361" lon="1.15879">
        <ele>53.2</ele>
        <time>2022-03-27T08:01:38Z</time>
      </trkpt>
      <trkpt lat="49.44364" lon="1.15886">
        <ele>53</ele>
        <time>2022-03-27T08:01:39Z</time>
      </trkpt>
      <trkpt lat="49.44369" lon="1.15898">
        <ele>52.7</ele>
        <time>2022-03-27T08:01:40Z</time>
      </trkpt>
      <trkpt lat="49.44371" lon="1.15904">
        <ele>52.5</ele>
        <time>2022-03-27T08:01:42Z</time>
      </trkpt>
      <trkpt lat="49.44373" lon="1.15911">
        <ele>52.3</ele>
        <time>2022-03-27T08:01:43Z</time>
      </trkpt>
      <trkpt lat="49.44375" lon="1.15918">
        <ele>52.2</ele>
        <time>2022-03-27T08:01:44Z</time>
      </trkpt>
      <trkpt lat="49.44378" lon="1.15926">
        <ele>52</ele>
        <time>2022-03-27T08:01:45Z</time>
      </trkpt>
      <trkpt lat="49.44381" lon="1.15934">
        <ele>51.8</ele>
        <time>2022-03-27T08:01:46Z</time>
      </trkpt>
      <trkpt lat="49.44386" lon="1.15949">
        <ele>51.4</ele>
        <time>2022-03-27T08:01:47Z</time>
      </trkpt>
      <trkpt lat="49.44388" lon="1.15955">
        <ele>51.2</ele>
        <time>2022-03-27T08:01:49Z</time>
      </trkpt>
      <trkpt lat="49.4439" lon="1.15962">
        <ele>51.1</ele>
        <time>2022-03-27T08:01:50Z</time>
      </trkpt>
      <trkpt lat="49.44392" lon="1.15968">
        <ele>50.9</ele>
        <time>2022-03-27T08:01:51Z</time>
      </trkpt>
      <trkpt lat="49.44394" lon="1.15975">
        <ele>50.8</ele>
        <time>2022-03-27T08:01:52Z</time>
      </trkpt>
      <trkpt lat="49.44396" lon="1.15981">
        <ele>50.7</ele>
        <time>2022-03-27T08:01:53Z</time>
      </trkpt>
      <trkpt lat="49.44398" lon="1.15987">
        <ele>50.6</ele>
        <time>2022-03-27T08:01:54Z</time>
      </trkpt>
      <trkpt lat="49.444" lon="1.15994">
        <ele>50.4</ele>
        <time>2022-03-27T08:01:55Z</time>
      </trkpt>
      <trkpt lat="49.44402" lon="1.16001">
        <ele>50.3</ele>
        <time>2022-03-27T08:01:56Z</time>
      </trkpt>
      <trkpt lat="49.44404" lon="1.16007">
        <ele>50.2</ele>
        <time>2022-03-27T08:01:57Z</time>
      </trkpt>
      <trkpt lat="49.44406" lon="1.16014">
        <ele>50.1</ele>
        <time>2022-03-27T08:01:58Z</time>
      </trkpt>
      <trkpt lat="49.44407" lon="1.16021">
        <ele>50</ele>
        <time>2022-03-27T08:01:59Z</time>
      </trkpt>
      <trkpt lat="49.44409" lon="1.16029">
        <ele>49.9</ele>
        <time>2022-03-27T08:02:00Z</time>
      </trkpt>
      <trkpt lat="49.44411" lon="1.16037">
        <ele>49.8</ele>
        <time>2022-03-27T08:02:01Z</time>
      </trkpt>
      <trkpt lat="49.44412" lon="1.16045">
        <ele>49.7</ele>
        <time>2022-03-27T08:02:02Z</time>
      </trkpt>
      <trkpt lat="49.44413" lon="1.16053">
        <ele>49.6</ele>
        <time>2022-03-27T08:02:03Z</time>
      </trkpt>
      <trkpt lat="49.44414" lon="1.16061">
        <ele>49.5</ele>
        <time>2022-03-27T08:02:04Z</time>
      </trkpt>
      <trkpt lat="49.44416" lon="1.16067">
        <ele>49.5</ele>
        <time>2022-03-27T08:02:05Z</time>
      </trkpt>
      <trkpt lat="49.44417" lon="1.16074">
        <ele>49.4</ele>
        <time>2022-03-27T08:02:06Z</time>
      </trkpt>
      <trkpt lat="49.44418" lon="1.16082">
        <ele>49.4</ele>
        <time>2022-03-27T08:02:07Z</time>
      </trkpt>
      <trkpt lat="49.44419" lon="1.16089">
        <ele>49.3</ele>
        <time>2022-03-27T08:02:08Z</time>
      </trkpt>
      <trkpt lat="49.44421" lon="1.16095">
        <ele>49.2</ele>
        <time>2022-03-27T08:02:09Z</time>
      </trkpt>
      <trkpt lat="49.44422" lon="1.16101">
        <ele>49.2</ele>
        <time>2022-03-27T08:02:10Z</time>
      </trkpt>
      <trkpt lat="49.44423" lon="1.16105">
        <ele>49.1</ele>
        <time>2022-03-27T08:02:11Z</time>
      </trkpt>
      <trkpt lat="49.44424" lon="1.16111">
        <ele>49.1</ele>
        <time>2022-03-27T08:02:12Z</time>
      </trkpt>
      <trkpt lat="49.44425" lon="1.16117">
        <ele>49</ele>
        <time>2022-03-27T08:02:13Z</time>
      </trkpt>
      <trkpt lat="49.44426" lon="1.16122">
        <ele>49</ele>
        <time>2022-03-27T08:02:14Z</time>
      </trkpt>
      <trkpt lat="49.44427" lon="1.16127">
        <ele>48.9</ele>
        <time>2022-03-27T08:02:15Z</time>
      </trkpt>
      <trkpt lat="49.44425" lon="1.16133">
        <ele>48.9</ele>
        <time>2022-03-27T08:02:16Z</time>
      </trkpt>
      <trkpt lat="49.44426" lon="1.16141">
        <ele>48.9</ele>
        <time>2022-03-27T08:02:17Z</time>
      </trkpt>
      <trkpt lat="49.44428" lon="1.16149">
        <ele>48.9</ele>
        <time>2022-03-27T08:02:18Z</time>
      </trkpt>
      <trkpt lat="49.4443" lon="1.16156">
        <ele>48.9</ele>
        <time>2022-03-27T08:02:19Z</time>
      </trkpt>
      <trkpt lat="49.44433" lon="1.16165">
        <ele>49</ele>
        <time>2022-03-27T08:02:20Z</time>
      </trkpt>
      <trkpt lat="49.44435" lon="1.16172">
        <ele>49.1</ele>
        <time>2022-03-27T08:02:21Z</time>
      </trkpt>
      <trkpt lat="49.44437" lon="1.1618">
        <ele>49.1</ele>
        <time>2022-03-27T08:02:22Z</time>
      </trkpt>
      <trkpt lat="49.44441" lon="1.16195">
        <ele>49.2</ele>
        <time>2022-03-27T08:02:24Z</time>
      </trkpt>
      <trkpt lat="49.44443" lon="1.16201">
        <ele>49.2</ele>
        <time>2022-03-27T08:02:25Z</time>
      </trkpt>
      <trkpt lat="49.44444" lon="1.16208">
        <ele>49.3</ele>
        <time>2022-03-27T08:02:27Z</time>
      </trkpt>
      <trkpt lat="49.44446" lon="1.16215">
        <ele>49.3</ele>
        <time>2022-03-27T08:02:28Z</time>
      </trkpt>
      <trkpt lat="49.44447" lon="1.16222">
        <ele>49.4</ele>
        <time>2022-03-27T08:02:29Z</time>
      </trkpt>
      <trkpt lat="49.44449" lon="1.16229">
        <ele>49.4</ele>
        <time>2022-03-27T08:02:30Z</time>
      </trkpt>
      <trkpt lat="49.4445" lon="1.16233">
        <ele>49.5</ele>
        <time>2022-03-27T08:02:31Z</time>
      </trkpt>
      <trkpt lat="49.44454" lon="1.16237">
        <ele>49.6</ele>
        <time>2022-03-27T08:02:32Z</time>
      </trkpt>
      <trkpt lat="49.44455" lon="1.1624">
        <ele>49.6</ele>
        <time>2022-03-27T08:02:33Z</time>
      </trkpt>
      <trkpt lat="49.44457" lon="1.16246">
        <ele>49.7</ele>
        <time>2022-03-27T08:02:34Z</time>
      </trkpt>
      <trkpt lat="49.44458" lon="1.16251">
        <ele>49.8</ele>
        <time>2022-03-27T08:02:35Z</time>
      </trkpt>
      <trkpt lat="49.4446" lon="1.16256">
        <ele>49.8</ele>
        <time>2022-03-27T08:02:36Z</time>
      </trkpt>
      <trkpt lat="49.44461" lon="1.16261">
        <ele>49.9</ele>
        <time>2022-03-27T08:02:37Z</time>
      </trkpt>
      <trkpt lat="49.44463" lon="1.16265">
        <ele>50</ele>
        <time>2022-03-27T08:02:38Z</time>
      </trkpt>
      <trkpt lat="49.44466" lon="1.1627">
        <ele>50.1</ele>
        <time>2022-03-27T08:02:39Z</time>
      </trkpt>
      <trkpt lat="49.44469" lon="1.16273">
        <ele>50.2</ele>
        <time>2022-03-27T08:02:41Z</time>
      </trkpt>
      <trkpt lat="49.4447" lon="1.16279">
        <ele>50.2</ele>
        <time>2022-03-27T08:02:42Z</time>
      </trkpt>
      <trkpt lat="49.44471" lon="1.1628">
        <ele>50.3</ele>
        <time>2022-03-27T08:02:43Z</time>
      </trkpt>
      <trkpt lat="49.44473" lon="1.16284">
        <ele>50.3</ele>
        <time>2022-03-27T08:02:44Z</time>
      </trkpt>
      <trkpt lat="49.44473" lon="1.16285">
        <ele>50.4</ele>
        <time>2022-03-27T08:02:45Z</time>
      </trkpt>
      <trkpt lat="49.44474" lon="1.16287">
        <ele>50.4</ele>
        <time>2022-03-27T08:02:46Z</time>
      </trkpt>
      <trkpt lat="49.44475" lon="1.16289">
        <ele>50.4</ele>
        <time>2022-03-27T08:02:47Z</time>
      </trkpt>
      <trkpt lat="49.44475" lon="1.1629">
        <ele>50.5</ele>
        <time>2022-03-27T08:02:49Z</time>
      </trkpt>
      <trkpt lat="49.44475" lon="1.16291">
        <ele>50.5</ele>
        <time>2022-03-27T08:02:50Z</time>
      </trkpt>
      <trkpt lat="49.44476" lon="1.16292">
        <ele>50.5</ele>
        <time>2022-03-27T08:02:51Z</time>
      </trkpt>
      <trkpt lat="49.44476" lon="1.16292">
        <ele>50.5</ele>
        <time>2022-03-27T08:02:53Z</time>
      </trkpt>
      <trkpt lat="49.44477" lon="1.16292">
        <ele>50.5</ele>
        <time>2022-03-27T08:02:54Z</time>
      </trkpt>
      <trkpt lat="49.44474" lon="1.16284">
        <ele>50.3</ele>
        <time>2022-03-27T08:02:55Z</time>
      </trkpt>
      <trkpt lat="49.4447" lon="1.16274">
        <ele>50.1</ele>
        <time>2022-03-27T08:02:57Z</time>
      </trkpt>
      <trkpt lat="49.44466" lon="1.16264">
        <ele>50</ele>
        <time>2022-03-27T08:02:58Z</time>
      </trkpt>
      <trkpt lat="49.44462" lon="1.16254">
        <ele>49.8</ele>
        <time>2022-03-27T08:02:59Z</time>
      </trkpt>
      <trkpt lat="49.44458" lon="1.16244">
        <ele>49.6</ele>
        <time>2022-03-27T08:03:00Z</time>
      </trkpt>
      <trkpt lat="49.44454" lon="1.16234">
        <ele>49.5</ele>
        <time>2022-03-27T08:03:35Z</time>
      </trkpt>
      <trkpt lat="49.4445" lon="1.16224">
        <ele>49.4</ele>
        <time>2022-03-27T08:03:37Z</time>
      </trkpt>
      <trkpt lat="49.44446" lon="1.16214">
        <ele>49.3</ele>
        <time>2022-03-27T08:03:38Z</time>
      </trkpt>
      <trkpt lat="49.44444" lon="1.162">
        <ele>49.2</ele>
        <time>2022-03-27T08:03:39Z</time>
      </trkpt>
      <trkpt lat="49.4444" lon="1.16179">
        <ele>49.1</ele>
        <time>2022-03-27T08:03:40Z</time>
      </trkpt>
      <trkpt lat="49.44438" lon="1.1617">
        <ele>49.1</ele>
        <time>2022-03-27T08:03:41Z</time>
      </trkpt>
      <trkpt lat="49.44437" lon="1.16163">
        <ele>49</ele>
        <time>2022-03-27T08:03:42Z</time>
      </trkpt>
      <trkpt lat="49.44435" lon="1.16155">
        <ele>49</ele>
        <time>2022-03-27T08:03:43Z</time>
      </trkpt>
      <trkpt lat="49.44433" lon="1.16143">
        <ele>48.9</ele>
        <time>2022-03-27T08:03:45Z</time>
      </trkpt>
      <trkpt lat="49.44433" lon="1.16138">
        <ele>48.9</ele>
        <time>2022-03-27T08:03:47Z</time>
      </trkpt>
      <trkpt lat="49.44433" lon="1.16134">
        <ele>48.8</ele>
        <time>2022-03-27T08:03:48Z</time>
      </trkpt>
      <trkpt lat="49.44434" lon="1.16128">
        <ele>48.5</ele>
        <time>2022-03-27T08:03:49Z</time>
      </trkpt>
      <trkpt lat="49.44435" lon="1.16126">
        <ele>48.4</ele>
        <time>2022-03-27T08:03:50Z</time>
      </trkpt>
      <trkpt lat="49.44437" lon="1.16123">
        <ele>48.2</ele>
        <time>2022-03-27T08:03:51Z</time>
      </trkpt>
      <trkpt lat="49.44439" lon="1.16117">
        <ele>48</ele>
        <time>2022-03-27T08:03:52Z</time>
      </trkpt>
      <trkpt lat="49.4444" lon="1.16114">
        <ele>47.9</ele>
        <time>2022-03-27T08:03:53Z</time>
      </trkpt>
      <trkpt lat="49.44443" lon="1.16106">
        <ele>47.5</ele>
        <time>2022-03-27T08:03:54Z</time>
      </trkpt>
      <trkpt lat="49.4445" lon="1.1609">
        <ele>46.9</ele>
        <time>2022-03-27T08:03:55Z</time>
      </trkpt>
      <trkpt lat="49.44454" lon="1.16081">
        <ele>46.7</ele>
        <time>2022-03-27T08:03:57Z</time>
      </trkpt>
      <trkpt lat="49.4446" lon="1.16064">
        <ele>46.3</ele>
        <time>2022-03-27T08:03:58Z</time>
      </trkpt>
      <trkpt lat="49.44464" lon="1.16056">
        <ele>46.2</ele>
        <time>2022-03-27T08:04:00Z</time>
      </trkpt>
      <trkpt lat="49.44467" lon="1.16048">
        <ele>46.1</ele>
        <time>2022-03-27T08:04:01Z</time>
      </trkpt>
      <trkpt lat="49.4447" lon="1.1604">
        <ele>45.9</ele>
        <time>2022-03-27T08:04:02Z</time>
      </trkpt>
      <trkpt lat="49.44473" lon="1.16033">
        <ele>45.9</ele>
        <time>2022-03-27T08:04:03Z</time>
      </trkpt>
      <trkpt lat="49.44479" lon="1.16019">
        <ele>45.7</ele>
        <time>2022-03-27T08:04:04Z</time>
      </trkpt>
      <trkpt lat="49.44483" lon="1.16012">
        <ele>45.6</ele>
        <time>2022-03-27T08:04:06Z</time>
      </trkpt>
      <trkpt lat="49.44486" lon="1.16006">
        <ele>45.5</ele>
        <time>2022-03-27T08:04:07Z</time>
      </trkpt>
      <trkpt lat="49.44489" lon="1.15999">
        <ele>45.4</ele>
        <time>2022-03-27T08:04:08Z</time>
      </trkpt>
      <trkpt lat="49.44492" lon="1.15991">
        <ele>45.4</ele>
        <time>2022-03-27T08:04:09Z</time>
      </trkpt>
      <trkpt lat="49.44495" lon="1.15984">
        <ele>45.3</ele>
        <time>2022-03-27T08:04:10Z</time>
      </trkpt>
      <trkpt lat="49.44501" lon="1.15969">
        <ele>45.2</ele>
        <time>2022-03-27T08:04:11Z</time>
      </trkpt>
      <trkpt lat="49.44504" lon="1.15962">
        <ele>45.1</ele>
        <time>2022-03-27T08:04:13Z</time>
      </trkpt>
      <trkpt lat="49.44507" lon="1.15955">
        <ele>45.1</ele>
        <time>2022-03-27T08:04:14Z</time>
      </trkpt>
      <trkpt lat="49.4451" lon="1.15948">
        <ele>45</ele>
        <time>2022-03-27T08:04:15Z</time>
      </trkpt>
      <trkpt lat="49.44513" lon="1.15941">
        <ele>44.9</ele>
        <time>2022-03-27T08:04:16Z</time>
      </trkpt>
      <trkpt lat="49.44516" lon="1.15934">
        <ele>44.9</ele>
        <time>2022-03-27T08:04:17Z</time>
      </trkpt>
      <trkpt lat="49.44519" lon="1.15929">
        <ele>44.8</ele>
        <time>2022-03-27T08:04:18Z</time>
      </trkpt>
      <trkpt lat="49.44523" lon="1.15923">
        <ele>44.7</ele>
        <time>2022-03-27T08:04:19Z</time>
      </trkpt>
      <trkpt lat="49.44525" lon="1.15917">
        <ele>44.7</ele>
        <time>2022-03-27T08:04:20Z</time>
      </trkpt>
      <trkpt lat="49.44528" lon="1.15912">
        <ele>44.6</ele>
        <time>2022-03-27T08:04:21Z</time>
      </trkpt>
      <trkpt lat="49.44534" lon="1.15899">
        <ele>44.5</ele>
        <time>2022-03-27T08:04:22Z</time>
      </trkpt>
      <trkpt lat="49.44537" lon="1.15892">
        <ele>44.4</ele>
        <time>2022-03-27T08:04:24Z</time>
      </trkpt>
      <trkpt lat="49.4454" lon="1.15885">
        <ele>44.3</ele>
        <time>2022-03-27T08:04:25Z</time>
      </trkpt>
      <trkpt lat="49.44548" lon="1.15871">
        <ele>44.1</ele>
        <time>2022-03-27T08:04:26Z</time>
      </trkpt>
      <trkpt lat="49.44553" lon="1.15861">
        <ele>43.9</ele>
        <time>2022-03-27T08:04:28Z</time>
      </trkpt>
      <trkpt lat="49.44556" lon="1.15856">
        <ele>43.8</ele>
        <time>2022-03-27T08:04:29Z</time>
      </trkpt>
      <trkpt lat="49.44561" lon="1.15849">
        <ele>43.6</ele>
        <time>2022-03-27T08:04:31Z</time>
      </trkpt>
      <trkpt lat="49.44567" lon="1.15835">
        <ele>43.4</ele>
        <time>2022-03-27T08:04:33Z</time>
      </trkpt>
      <trkpt lat="49.4457" lon="1.15832">
        <ele>43.3</ele>
        <time>2022-03-27T08:04:34Z</time>
      </trkpt>
      <trkpt lat="49.44572" lon="1.15829">
        <ele>43.3</ele>
        <time>2022-03-27T08:04:35Z</time>
      </trkpt>
      <trkpt lat="49.44572" lon="1.15822">
        <ele>43.2</ele>
        <time>2022-03-27T08:04:37Z</time>
      </trkpt>
      <trkpt lat="49.44573" lon="1.15818">
        <ele>43.1</ele>
        <time>2022-03-27T08:04:39Z</time>
      </trkpt>
      <trkpt lat="49.44574" lon="1.15814">
        <ele>43</ele>
        <time>2022-03-27T08:04:40Z</time>
      </trkpt>
      <trkpt lat="49.44574" lon="1.15803">
        <ele>42.9</ele>
        <time>2022-03-27T08:04:41Z</time>
      </trkpt>
      <trkpt lat="49.44574" lon="1.15789">
        <ele>42.7</ele>
        <time>2022-03-27T08:04:43Z</time>
      </trkpt>
      <trkpt lat="49.44575" lon="1.15782">
        <ele>42.6</ele>
        <time>2022-03-27T08:04:44Z</time>
      </trkpt>
      <trkpt lat="49.44577" lon="1.15768">
        <ele>42.4</ele>
        <time>2022-03-27T08:04:46Z</time>
      </trkpt>
      <trkpt lat="49.4458" lon="1.15762">
        <ele>42.3</ele>
        <time>2022-03-27T08:04:48Z</time>
      </trkpt>
      <trkpt lat="49.44583" lon="1.15765">
        <ele>42.2</ele>
        <time>2022-03-27T08:04:49Z</time>
      </trkpt>
      <trkpt lat="49.44587" lon="1.15758">
        <ele>42</ele>
        <time>2022-03-27T08:04:50Z</time>
      </trkpt>
      <trkpt lat="49.44592" lon="1.15744">
        <ele>41.7</ele>
        <time>2022-03-27T08:04:52Z</time>
      </trkpt>
      <trkpt lat="49.44596" lon="1.15738">
        <ele>41.6</ele>
        <time>2022-03-27T08:04:53Z</time>
      </trkpt>
      <trkpt lat="49.44598" lon="1.15726">
        <ele>41.4</ele>
        <time>2022-03-27T08:04:54Z</time>
      </trkpt>
      <trkpt lat="49.446" lon="1.15722">
        <ele>41.4</ele>
        <time>2022-03-27T08:04:55Z</time>
      </trkpt>
      <trkpt lat="49.44603" lon="1.15719">
        <ele>41.3</ele>
        <time>2022-03-27T08:04:56Z</time>
      </trkpt>
      <trkpt lat="49.44607" lon="1.15716">
        <ele>41.2</ele>
        <time>2022-03-27T08:04:57Z</time>
      </trkpt>
      <trkpt lat="49.44611" lon="1.15708">
        <ele>41.1</ele>
        <time>2022-03-27T08:04:59Z</time>
      </trkpt>
      <trkpt lat="49.44617" lon="1.15698">
        <ele>40.9</ele>
        <time>2022-03-27T08:05:01Z</time>
      </trkpt>
      <trkpt lat="49.44618" lon="1.15693">
        <ele>40.8</ele>
        <time>2022-03-27T08:05:02Z</time>
      </trkpt>
      <trkpt lat="49.4462" lon="1.15684">
        <ele>40.7</ele>
        <time>2022-03-27T08:05:03Z</time>
      </trkpt>
      <trkpt lat="49.44622" lon="1.15678">
        <ele>40.6</ele>
        <time>2022-03-27T08:05:04Z</time>
      </trkpt>
      <trkpt lat="49.44625" lon="1.15671">
        <ele>40.5</ele>
        <time>2022-03-27T08:05:05Z</time>
      </trkpt>
      <trkpt lat="49.44627" lon="1.15662">
        <ele>40.4</ele>
        <time>2022-03-27T08:05:06Z</time>
      </trkpt>
      <trkpt lat="49.44631" lon="1.15652">
        <ele>40.2</ele>
        <time>2022-03-27T08:05:08Z</time>
      </trkpt>
      <trkpt lat="49.44632" lon="1.15646">
        <ele>40.2</ele>
        <time>2022-03-27T08:05:09Z</time>
      </trkpt>
      <trkpt lat="49.4464" lon="1.15631">
        <ele>40</ele>
        <time>2022-03-27T08:05:10Z</time>
      </trkpt>
      <trkpt lat="49.44644" lon="1.15624">
        <ele>39.9</ele>
        <time>2022-03-27T08:05:12Z</time>
      </trkpt>
      <trkpt lat="49.44647" lon="1.15618">
        <ele>39.8</ele>
        <time>2022-03-27T08:05:13Z</time>
      </trkpt>
      <trkpt lat="49.4465" lon="1.15613">
        <ele>39.8</ele>
        <time>2022-03-27T08:05:14Z</time>
      </trkpt>
      <trkpt lat="49.44657" lon="1.15601">
        <ele>39.6</ele>
        <time>2022-03-27T08:05:15Z</time>
      </trkpt>
      <trkpt lat="49.4466" lon="1.15596">
        <ele>39.5</ele>
        <time>2022-03-27T08:05:17Z</time>
      </trkpt>
      <trkpt lat="49.44663" lon="1.15592">
        <ele>39.5</ele>
        <time>2022-03-27T08:05:18Z</time>
      </trkpt>
      <trkpt lat="49.44666" lon="1.15585">
        <ele>39.3</ele>
        <time>2022-03-27T08:05:19Z</time>
      </trkpt>
      <trkpt lat="49.44663" lon="1.15576">
        <ele>39.2</ele>
        <time>2022-03-27T08:05:21Z</time>
      </trkpt>
      <trkpt lat="49.4466" lon="1.15569">
        <ele>39</ele>
        <time>2022-03-27T08:05:22Z</time>
      </trkpt>
      <trkpt lat="49.44659" lon="1.15563">
        <ele>38.9</ele>
        <time>2022-03-27T08:05:23Z</time>
      </trkpt>
      <trkpt lat="49.44661" lon="1.15553">
        <ele>38.7</ele>
        <time>2022-03-27T08:05:24Z</time>
      </trkpt>
      <trkpt lat="49.44665" lon="1.15546">
        <ele>38.6</ele>
        <time>2022-03-27T08:05:26Z</time>
      </trkpt>
      <trkpt lat="49.4467" lon="1.1554">
        <ele>38.4</ele>
        <time>2022-03-27T08:05:27Z</time>
      </trkpt>
      <trkpt lat="49.44674" lon="1.15535">
        <ele>38.3</ele>
        <time>2022-03-27T08:05:28Z</time>
      </trkpt>
      <trkpt lat="49.44676" lon="1.1553">
        <ele>38.2</ele>
        <time>2022-03-27T08:05:30Z</time>
      </trkpt>
      <trkpt lat="49.44682" lon="1.15523">
        <ele>38.1</ele>
        <time>2022-03-27T08:05:31Z</time>
      </trkpt>
      <trkpt lat="49.44687" lon="1.15518">
        <ele>37.9</ele>
        <time>2022-03-27T08:05:32Z</time>
      </trkpt>
      <trkpt lat="49.4469" lon="1.15513">
        <ele>37.9</ele>
        <time>2022-03-27T08:05:33Z</time>
      </trkpt>
      <trkpt lat="49.44692" lon="1.15507">
        <ele>37.8</ele>
        <time>2022-03-27T08:05:34Z</time>
      </trkpt>
      <trkpt lat="49.44695" lon="1.15501">
        <ele>37.7</ele>
        <time>2022-03-27T08:05:36Z</time>
      </trkpt>
      <trkpt lat="49.447" lon="1.15493">
        <ele>37.6</ele>
        <time>2022-03-27T08:05:37Z</time>
      </trkpt>
      <trkpt lat="49.44705" lon="1.15481">
        <ele>37.4</ele>
        <time>2022-03-27T08:05:39Z</time>
      </trkpt>
      <trkpt lat="49.44709" lon="1.15477">
        <ele>37.3</ele>
        <time>2022-03-27T08:05:41Z</time>
      </trkpt>
      <trkpt lat="49.44712" lon="1.15474">
        <ele>37.3</ele>
        <time>2022-03-27T08:05:42Z</time>
      </trkpt>
      <trkpt lat="49.44715" lon="1.15471">
        <ele>37.2</ele>
        <time>2022-03-27T08:05:43Z</time>
      </trkpt>
      <trkpt lat="49.44718" lon="1.15467">
        <ele>37.2</ele>
        <time>2022-03-27T08:05:44Z</time>
      </trkpt>
      <trkpt lat="49.44723" lon="1.15458">
        <ele>37.1</ele>
        <time>2022-03-27T08:05:45Z</time>
      </trkpt>
      <trkpt lat="49.44726" lon="1.15454">
        <ele>37</ele>
        <time>2022-03-27T08:05:46Z</time>
      </trkpt>
      <trkpt lat="49.4473" lon="1.15449">
        <ele>37</ele>
        <time>2022-03-27T08:05:48Z</time>
      </trkpt>
      <trkpt lat="49.44735" lon="1.15442">
        <ele>36.9</ele>
        <time>2022-03-27T08:05:49Z</time>
      </trkpt>
      <trkpt lat="49.44738" lon="1.15438">
        <ele>36.8</ele>
        <time>2022-03-27T08:05:51Z</time>
      </trkpt>
      <trkpt lat="49.4474" lon="1.15433">
        <ele>36.8</ele>
        <time>2022-03-27T08:05:52Z</time>
      </trkpt>
      <trkpt lat="49.44746" lon="1.15424">
        <ele>36.7</ele>
        <time>2022-03-27T08:05:53Z</time>
      </trkpt>
      <trkpt lat="49.44749" lon="1.15418">
        <ele>36.6</ele>
        <time>2022-03-27T08:05:55Z</time>
      </trkpt>
      <trkpt lat="49.44752" lon="1.15413">
        <ele>36.6</ele>
        <time>2022-03-27T08:05:56Z</time>
      </trkpt>
      <trkpt lat="49.44755" lon="1.15415">
        <ele>36.8</ele>
        <time>2022-03-27T08:05:58Z</time>
      </trkpt>
      <trkpt lat="49.44755" lon="1.15418">
        <ele>36.9</ele>
        <time>2022-03-27T08:05:59Z</time>
      </trkpt>
      <trkpt lat="49.44756" lon="1.15421">
        <ele>37</ele>
        <time>2022-03-27T08:06:00Z</time>
      </trkpt>
      <trkpt lat="49.44756" lon="1.15425">
        <ele>37.1</ele>
        <time>2022-03-27T08:06:02Z</time>
      </trkpt>
      <trkpt lat="49.44757" lon="1.15429">
        <ele>37.2</ele>
        <time>2022-03-27T08:06:03Z</time>
      </trkpt>
      <trkpt lat="49.44758" lon="1.15431">
        <ele>37.3</ele>
        <time>2022-03-27T08:06:04Z</time>
      </trkpt>
      <trkpt lat="49.44759" lon="1.15435">
        <ele>37.5</ele>
        <time>2022-03-27T08:06:05Z</time>
      </trkpt>
      <trkpt lat="49.4476" lon="1.15437">
        <ele>37.5</ele>
        <time>2022-03-27T08:06:06Z</time>
      </trkpt>
      <trkpt lat="49.44761" lon="1.15441">
        <ele>37.7</ele>
        <time>2022-03-27T08:06:07Z</time>
      </trkpt>
      <trkpt lat="49.44762" lon="1.15443">
        <ele>37.8</ele>
        <time>2022-03-27T08:06:08Z</time>
      </trkpt>
      <trkpt lat="49.44763" lon="1.15448">
        <ele>38</ele>
        <time>2022-03-27T08:06:11Z</time>
      </trkpt>
      <trkpt lat="49.44763" lon="1.1545">
        <ele>38.1</ele>
        <time>2022-03-27T08:06:12Z</time>
      </trkpt>
      <trkpt lat="49.44764" lon="1.15452">
        <ele>38.2</ele>
        <time>2022-03-27T08:06:13Z</time>
      </trkpt>
      <trkpt lat="49.44764" lon="1.15458">
        <ele>38.4</ele>
        <time>2022-03-27T08:06:14Z</time>
      </trkpt>
      <trkpt lat="49.44765" lon="1.15459">
        <ele>38.5</ele>
        <time>2022-03-27T08:06:15Z</time>
      </trkpt>
      <trkpt lat="49.44766" lon="1.15465">
        <ele>38.8</ele>
        <time>2022-03-27T08:06:17Z</time>
      </trkpt>
      <trkpt lat="49.44768" lon="1.15473">
        <ele>39.2</ele>
        <time>2022-03-27T08:06:18Z</time>
      </trkpt>
      <trkpt lat="49.44769" lon="1.15477">
        <ele>39.4</ele>
        <time>2022-03-27T08:06:19Z</time>
      </trkpt>
      <trkpt lat="49.4477" lon="1.15485">
        <ele>39.8</ele>
        <time>2022-03-27T08:06:21Z</time>
      </trkpt>
      <trkpt lat="49.44772" lon="1.15491">
        <ele>40.2</ele>
        <time>2022-03-27T08:06:22Z</time>
      </trkpt>
      <trkpt lat="49.44772" lon="1.15495">
        <ele>40.4</ele>
        <time>2022-03-27T08:06:23Z</time>
      </trkpt>
      <trkpt lat="49.44773" lon="1.15497">
        <ele>40.4</ele>
        <time>2022-03-27T08:06:25Z</time>
      </trkpt>
      <trkpt lat="49.44773" lon="1.15497">
        <ele>40.5</ele>
        <time>2022-03-27T08:06:27Z</time>
      </trkpt>
      <trkpt lat="49.44773" lon="1.15497">
        <ele>40.5</ele>
        <time>2022-03-27T08:06:29Z</time>
      </trkpt>
      <trkpt lat="49.44775" lon="1.15505">
        <ele>40.9</ele>
        <time>2022-03-27T08:06:31Z</time>
      </trkpt>
      <trkpt lat="49.44777" lon="1.15511">
        <ele>41.2</ele>
        <time>2022-03-27T08:06:33Z</time>
      </trkpt>
      <trkpt lat="49.44781" lon="1.15524">
        <ele>41.8</ele>
        <time>2022-03-27T08:06:34Z</time>
      </trkpt>
      <trkpt lat="49.44785" lon="1.15538">
        <ele>42.5</ele>
        <time>2022-03-27T08:06:36Z</time>
      </trkpt>
      <trkpt lat="49.44788" lon="1.15548">
        <ele>43</ele>
        <time>2022-03-27T08:06:38Z</time>
      </trkpt>
      <trkpt lat="49.4479" lon="1.15553">
        <ele>43.2</ele>
        <time>2022-03-27T08:06:39Z</time>
      </trkpt>
      <trkpt lat="49.44791" lon="1.15557">
        <ele>43.5</ele>
        <time>2022-03-27T08:06:41Z</time>
      </trkpt>
      <trkpt lat="49.44792" lon="1.15562">
        <ele>43.7</ele>
        <time>2022-03-27T08:06:42Z</time>
      </trkpt>
      <trkpt lat="49.44794" lon="1.15569">
        <ele>44</ele>
        <time>2022-03-27T08:06:44Z</time>
      </trkpt>
      <trkpt lat="49.44795" lon="1.15573">
        <ele>44.2</ele>
        <time>2022-03-27T08:06:45Z</time>
      </trkpt>
      <trkpt lat="49.44798" lon="1.1558">
        <ele>44.5</ele>
        <time>2022-03-27T08:06:46Z</time>
      </trkpt>
      <trkpt lat="49.44799" lon="1.15585">
        <ele>44.8</ele>
        <time>2022-03-27T08:06:47Z</time>
      </trkpt>
      <trkpt lat="49.448" lon="1.15586">
        <ele>44.9</ele>
        <time>2022-03-27T08:06:48Z</time>
      </trkpt>
      <trkpt lat="49.44804" lon="1.15593">
        <ele>45.4</ele>
        <time>2022-03-27T08:06:50Z</time>
      </trkpt>
      <trkpt lat="49.44808" lon="1.15599">
        <ele>45.8</ele>
        <time>2022-03-27T08:06:52Z</time>
      </trkpt>
      <trkpt lat="49.44809" lon="1.15602">
        <ele>46</ele>
        <time>2022-03-27T08:06:53Z</time>
      </trkpt>
      <trkpt lat="49.44812" lon="1.15607">
        <ele>46.3</ele>
        <time>2022-03-27T08:06:55Z</time>
      </trkpt>
      <trkpt lat="49.44814" lon="1.15611">
        <ele>46.5</ele>
        <time>2022-03-27T08:06:57Z</time>
      </trkpt>
      <trkpt lat="49.44816" lon="1.15614">
        <ele>46.7</ele>
        <time>2022-03-27T08:06:58Z</time>
      </trkpt>
      <trkpt lat="49.44819" lon="1.15617">
        <ele>46.9</ele>
        <time>2022-03-27T08:06:59Z</time>
      </trkpt>
      <trkpt lat="49.44821" lon="1.1562">
        <ele>47.2</ele>
        <time>2022-03-27T08:07:00Z</time>
      </trkpt>
      <trkpt lat="49.44823" lon="1.15625">
        <ele>47.5</ele>
        <time>2022-03-27T08:07:01Z</time>
      </trkpt>
      <trkpt lat="49.44825" lon="1.15628">
        <ele>47.6</ele>
        <time>2022-03-27T08:07:02Z</time>
      </trkpt>
      <trkpt lat="49.44827" lon="1.15633">
        <ele>47.9</ele>
        <time>2022-03-27T08:07:04Z</time>
      </trkpt>
      <trkpt lat="49.44829" lon="1.15637">
        <ele>48.1</ele>
        <time>2022-03-27T08:07:05Z</time>
      </trkpt>
      <trkpt lat="49.4483" lon="1.15638">
        <ele>48.2</ele>
        <time>2022-03-27T08:07:06Z</time>
      </trkpt>
      <trkpt lat="49.44833" lon="1.15642">
        <ele>48.5</ele>
        <time>2022-03-27T08:07:07Z</time>
      </trkpt>
      <trkpt lat="49.44836" lon="1.15648">
        <ele>48.9</ele>
        <time>2022-03-27T08:07:09Z</time>
      </trkpt>
      <trkpt lat="49.44838" lon="1.1565">
        <ele>49.1</ele>
        <time>2022-03-27T08:07:11Z</time>
      </trkpt>
      <trkpt lat="49.44838" lon="1.1565">
        <ele>49.1</ele>
        <time>2022-03-27T08:07:12Z</time>
      </trkpt>
      <trkpt lat="49.44838" lon="1.15651">
        <ele>49.1</ele>
        <time>2022-03-27T08:07:13Z</time>
      </trkpt>
      <trkpt lat="49.44841" lon="1.15657">
        <ele>49.5</ele>
        <time>2022-03-27T08:07:14Z</time>
      </trkpt>
      <trkpt lat="49.44843" lon="1.15661">
        <ele>49.8</ele>
        <time>2022-03-27T08:07:16Z</time>
      </trkpt>
      <trkpt lat="49.44845" lon="1.15664">
        <ele>49.9</ele>
        <time>2022-03-27T08:07:17Z</time>
      </trkpt>
      <trkpt lat="49.44848" lon="1.15669">
        <ele>50.2</ele>
        <time>2022-03-27T08:07:18Z</time>
      </trkpt>
      <trkpt lat="49.44848" lon="1.15671">
        <ele>50.3</ele>
        <time>2022-03-27T08:07:19Z</time>
      </trkpt>
      <trkpt lat="49.4485" lon="1.15681">
        <ele>50.7</ele>
        <time>2022-03-27T08:07:20Z</time>
      </trkpt>
      <trkpt lat="49.44851" lon="1.15686">
        <ele>50.9</ele>
        <time>2022-03-27T08:07:22Z</time>
      </trkpt>
      <trkpt lat="49.44852" lon="1.1569">
        <ele>51.1</ele>
        <time>2022-03-27T08:07:23Z</time>
      </trkpt>
      <trkpt lat="49.44854" lon="1.15694">
        <ele>51.2</ele>
        <time>2022-03-27T08:07:24Z</time>
      </trkpt>
      <trkpt lat="49.44855" lon="1.15698">
        <ele>51.4</ele>
        <time>2022-03-27T08:07:25Z</time>
      </trkpt>
      <trkpt lat="49.44858" lon="1.15707">
        <ele>51.7</ele>
        <time>2022-03-27T08:07:26Z</time>
      </trkpt>
      <trkpt lat="49.44861" lon="1.15713">
        <ele>52.1</ele>
        <time>2022-03-27T08:07:28Z</time>
      </trkpt>
      <trkpt lat="49.44863" lon="1.15717">
        <ele>52.3</ele>
        <time>2022-03-27T08:07:29Z</time>
      </trkpt>
      <trkpt lat="49.44863" lon="1.15719">
        <ele>52.4</ele>
        <time>2022-03-27T08:07:30Z</time>
      </trkpt>
      <trkpt lat="49.44864" lon="1.15723">
        <ele>52.6</ele>
        <time>2022-03-27T08:07:31Z</time>
      </trkpt>
      <trkpt lat="49.44864" lon="1.15724">
        <ele>52.7</ele>
        <time>2022-03-27T08:07:32Z</time>
      </trkpt>
      <trkpt lat="49.44865" lon="1.15727">
        <ele>52.8</ele>
        <time>2022-03-27T08:07:33Z</time>
      </trkpt>
      <trkpt lat="49.44867" lon="1.15732">
        <ele>53.1</ele>
        <time>2022-03-27T08:07:35Z</time>
      </trkpt>
      <trkpt lat="49.44869" lon="1.15739">
        <ele>53.5</ele>
        <time>2022-03-27T08:07:36Z</time>
      </trkpt>
      <trkpt lat="49.4487" lon="1.15742">
        <ele>53.6</ele>
        <time>2022-03-27T08:07:37Z</time>
      </trkpt>
      <trkpt lat="49.44871" lon="1.15745">
        <ele>53.8</ele>
        <time>2022-03-27T08:07:38Z</time>
      </trkpt>
      <trkpt lat="49.44872" lon="1.15748">
        <ele>54</ele>
        <time>2022-03-27T08:07:39Z</time>
      </trkpt>
      <trkpt lat="49.44873" lon="1.15752">
        <ele>54.2</ele>
        <time>2022-03-27T08:07:41Z</time>
      </trkpt>
      <trkpt lat="49.44875" lon="1.15757">
        <ele>54.5</ele>
        <time>2022-03-27T08:07:42Z</time>
      </trkpt>
      <trkpt lat="49.44875" lon="1.1576">
        <ele>54.6</ele>
        <time>2022-03-27T08:07:43Z</time>
      </trkpt>
      <trkpt lat="49.44877" lon="1.15765">
        <ele>54.9</ele>
        <time>2022-03-27T08:07:45Z</time>
      </trkpt>
      <trkpt lat="49.4488" lon="1.15772">
        <ele>55.3</ele>
        <time>2022-03-27T08:07:46Z</time>
      </trkpt>
      <trkpt lat="49.44881" lon="1.15777">
        <ele>55.6</ele>
        <time>2022-03-27T08:07:48Z</time>
      </trkpt>
      <trkpt lat="49.44882" lon="1.15782">
        <ele>55.9</ele>
        <time>2022-03-27T08:07:49Z</time>
      </trkpt>
      <trkpt lat="49.44885" lon="1.15789">
        <ele>56.4</ele>
        <time>2022-03-27T08:07:51Z</time>
      </trkpt>
      <trkpt lat="49.44887" lon="1.15796">
        <ele>56.8</ele>
        <time>2022-03-27T08:07:53Z</time>
      </trkpt>
      <trkpt lat="49.44888" lon="1.15802">
        <ele>57.2</ele>
        <time>2022-03-27T08:07:55Z</time>
      </trkpt>
      <trkpt lat="49.44889" lon="1.15804">
        <ele>57.4</ele>
        <time>2022-03-27T08:07:56Z</time>
      </trkpt>
      <trkpt lat="49.44889" lon="1.15806">
        <ele>57.5</ele>
        <time>2022-03-27T08:07:57Z</time>
      </trkpt>
      <trkpt lat="49.4489" lon="1.15811">
        <ele>57.9</ele>
        <time>2022-03-27T08:07:58Z</time>
      </trkpt>
      <trkpt lat="49.44891" lon="1.15812">
        <ele>58</ele>
        <time>2022-03-27T08:07:59Z</time>
      </trkpt>
      <trkpt lat="49.44892" lon="1.15816">
        <ele>58.3</ele>
        <time>2022-03-27T08:08:00Z</time>
      </trkpt>
      <trkpt lat="49.44893" lon="1.15818">
        <ele>58.4</ele>
        <time>2022-03-27T08:08:01Z</time>
      </trkpt>
      <trkpt lat="49.44894" lon="1.15823">
        <ele>58.7</ele>
        <time>2022-03-27T08:08:02Z</time>
      </trkpt>
      <trkpt lat="49.44895" lon="1.15827">
        <ele>59.1</ele>
        <time>2022-03-27T08:08:03Z</time>
      </trkpt>
      <trkpt lat="49.44896" lon="1.15829">
        <ele>59.2</ele>
        <time>2022-03-27T08:08:04Z</time>
      </trkpt>
      <trkpt lat="49.44897" lon="1.15833">
        <ele>59.4</ele>
        <time>2022-03-27T08:08:06Z</time>
      </trkpt>
      <trkpt lat="49.44897" lon="1.15834">
        <ele>59.5</ele>
        <time>2022-03-27T08:08:07Z</time>
      </trkpt>
      <trkpt lat="49.44898" lon="1.1584">
        <ele>59.9</ele>
        <time>2022-03-27T08:08:08Z</time>
      </trkpt>
      <trkpt lat="49.44899" lon="1.15842">
        <ele>60</ele>
        <time>2022-03-27T08:08:09Z</time>
      </trkpt>
      <trkpt lat="49.449" lon="1.15846">
        <ele>60.3</ele>
        <time>2022-03-27T08:08:11Z</time>
      </trkpt>
      <trkpt lat="49.449" lon="1.15848">
        <ele>60.4</ele>
        <time>2022-03-27T08:08:12Z</time>
      </trkpt>
      <trkpt lat="49.44902" lon="1.15852">
        <ele>60.6</ele>
        <time>2022-03-27T08:08:13Z</time>
      </trkpt>
      <trkpt lat="49.44902" lon="1.15853">
        <ele>60.7</ele>
        <time>2022-03-27T08:08:14Z</time>
      </trkpt>
      <trkpt lat="49.44905" lon="1.1586">
        <ele>61.1</ele>
        <time>2022-03-27T08:08:16Z</time>
      </trkpt>
      <trkpt lat="49.44906" lon="1.15862">
        <ele>61.2</ele>
        <time>2022-03-27T08:08:17Z</time>
      </trkpt>
      <trkpt lat="49.44906" lon="1.15864">
        <ele>61.3</ele>
        <time>2022-03-27T08:08:18Z</time>
      </trkpt>
      <trkpt lat="49.44908" lon="1.15867">
        <ele>61.6</ele>
        <time>2022-03-27T08:08:19Z</time>
      </trkpt>
      <trkpt lat="49.44908" lon="1.15868">
        <ele>61.6</ele>
        <time>2022-03-27T08:08:20Z</time>
      </trkpt>
      <trkpt lat="49.4491" lon="1.15873">
        <ele>61.9</ele>
        <time>2022-03-27T08:08:21Z</time>
      </trkpt>
      <trkpt lat="49.44912" lon="1.15877">
        <ele>62.2</ele>
        <time>2022-03-27T08:08:22Z</time>
      </trkpt>
      <trkpt lat="49.44913" lon="1.15878">
        <ele>62.2</ele>
        <time>2022-03-27T08:08:23Z</time>
      </trkpt>
      <trkpt lat="49.44914" lon="1.15881">
        <ele>62.5</ele>
        <time>2022-03-27T08:08:24Z</time>
      </trkpt>
      <trkpt lat="49.44915" lon="1.15883">
        <ele>62.6</ele>
        <time>2022-03-27T08:08:25Z</time>
      </trkpt>
      <trkpt lat="49.44917" lon="1.15886">
        <ele>62.8</ele>
        <time>2022-03-27T08:08:26Z</time>
      </trkpt>
      <trkpt lat="49.44917" lon="1.15887">
        <ele>62.9</ele>
        <time>2022-03-27T08:08:27Z</time>
      </trkpt>
      <trkpt lat="49.44919" lon="1.15891">
        <ele>63.2</ele>
        <time>2022-03-27T08:08:28Z</time>
      </trkpt>
      <trkpt lat="49.4492" lon="1.15892">
        <ele>63.3</ele>
        <time>2022-03-27T08:08:29Z</time>
      </trkpt>
      <trkpt lat="49.44924" lon="1.15899">
        <ele>63.8</ele>
        <time>2022-03-27T08:08:31Z</time>
      </trkpt>
      <trkpt lat="49.44926" lon="1.15902">
        <ele>64.1</ele>
        <time>2022-03-27T08:08:32Z</time>
      </trkpt>
      <trkpt lat="49.44927" lon="1.15904">
        <ele>64.2</ele>
        <time>2022-03-27T08:08:34Z</time>
      </trkpt>
      <trkpt lat="49.44928" lon="1.15906">
        <ele>64.4</ele>
        <time>2022-03-27T08:08:35Z</time>
      </trkpt>
      <trkpt lat="49.44929" lon="1.15908">
        <ele>64.5</ele>
        <time>2022-03-27T08:08:36Z</time>
      </trkpt>
      <trkpt lat="49.44931" lon="1.15911">
        <ele>64.8</ele>
        <time>2022-03-27T08:08:37Z</time>
      </trkpt>
      <trkpt lat="49.44933" lon="1.15916">
        <ele>65.2</ele>
        <time>2022-03-27T08:08:39Z</time>
      </trkpt>
      <trkpt lat="49.44935" lon="1.1592">
        <ele>65.4</ele>
        <time>2022-03-27T08:08:40Z</time>
      </trkpt>
      <trkpt lat="49.44937" lon="1.15927">
        <ele>65.8</ele>
        <time>2022-03-27T08:08:42Z</time>
      </trkpt>
      <trkpt lat="49.44938" lon="1.1593">
        <ele>66</ele>
        <time>2022-03-27T08:08:44Z</time>
      </trkpt>
      <trkpt lat="49.4494" lon="1.15933">
        <ele>66.2</ele>
        <time>2022-03-27T08:08:45Z</time>
      </trkpt>
      <trkpt lat="49.44941" lon="1.15937">
        <ele>66.4</ele>
        <time>2022-03-27T08:08:46Z</time>
      </trkpt>
      <trkpt lat="49.44943" lon="1.15944">
        <ele>66.8</ele>
        <time>2022-03-27T08:08:48Z</time>
      </trkpt>
      <trkpt lat="49.44945" lon="1.1595">
        <ele>67.2</ele>
        <time>2022-03-27T08:08:49Z</time>
      </trkpt>
      <trkpt lat="49.44946" lon="1.15954">
        <ele>67.4</ele>
        <time>2022-03-27T08:08:50Z</time>
      </trkpt>
      <trkpt lat="49.44948" lon="1.15961">
        <ele>67.7</ele>
        <time>2022-03-27T08:08:52Z</time>
      </trkpt>
      <trkpt lat="49.44951" lon="1.15967">
        <ele>68.1</ele>
        <time>2022-03-27T08:08:54Z</time>
      </trkpt>
      <trkpt lat="49.44952" lon="1.1597">
        <ele>68.3</ele>
        <time>2022-03-27T08:08:55Z</time>
      </trkpt>
      <trkpt lat="49.44952" lon="1.15972">
        <ele>68.4</ele>
        <time>2022-03-27T08:08:56Z</time>
      </trkpt>
      <trkpt lat="49.44954" lon="1.15978">
        <ele>68.7</ele>
        <time>2022-03-27T08:08:57Z</time>
      </trkpt>
      <trkpt lat="49.44957" lon="1.15986">
        <ele>69.2</ele>
        <time>2022-03-27T08:08:59Z</time>
      </trkpt>
      <trkpt lat="49.44958" lon="1.15988">
        <ele>69.4</ele>
        <time>2022-03-27T08:09:01Z</time>
      </trkpt>
      <trkpt lat="49.44959" lon="1.15991">
        <ele>69.5</ele>
        <time>2022-03-27T08:09:02Z</time>
      </trkpt>
      <trkpt lat="49.44961" lon="1.15995">
        <ele>69.9</ele>
        <time>2022-03-27T08:09:03Z</time>
      </trkpt>
      <trkpt lat="49.44961" lon="1.15999">
        <ele>70.1</ele>
        <time>2022-03-27T08:09:04Z</time>
      </trkpt>
      <trkpt lat="49.44963" lon="1.16003">
        <ele>70.4</ele>
        <time>2022-03-27T08:09:05Z</time>
      </trkpt>
      <trkpt lat="49.44964" lon="1.16005">
        <ele>70.5</ele>
        <time>2022-03-27T08:09:06Z</time>
      </trkpt>
      <trkpt lat="49.44965" lon="1.1601">
        <ele>70.7</ele>
        <time>2022-03-27T08:09:07Z</time>
      </trkpt>
      <trkpt lat="49.44965" lon="1.16011">
        <ele>70.8</ele>
        <time>2022-03-27T08:09:08Z</time>
      </trkpt>
      <trkpt lat="49.44967" lon="1.16018">
        <ele>71.2</ele>
        <time>2022-03-27T08:09:10Z</time>
      </trkpt>
      <trkpt lat="49.44969" lon="1.16021">
        <ele>71.4</ele>
        <time>2022-03-27T08:09:12Z</time>
      </trkpt>
      <trkpt lat="49.4497" lon="1.16024">
        <ele>71.6</ele>
        <time>2022-03-27T08:09:13Z</time>
      </trkpt>
      <trkpt lat="49.44971" lon="1.16026">
        <ele>71.8</ele>
        <time>2022-03-27T08:09:15Z</time>
      </trkpt>
      <trkpt lat="49.44972" lon="1.16029">
        <ele>72</ele>
        <time>2022-03-27T08:09:16Z</time>
      </trkpt>
      <trkpt lat="49.44972" lon="1.16031">
        <ele>72.1</ele>
        <time>2022-03-27T08:09:17Z</time>
      </trkpt>
      <trkpt lat="49.44973" lon="1.16033">
        <ele>72.2</ele>
        <time>2022-03-27T08:09:18Z</time>
      </trkpt>
      <trkpt lat="49.44975" lon="1.16036">
        <ele>72.5</ele>
        <time>2022-03-27T08:09:20Z</time>
      </trkpt>
      <trkpt lat="49.44978" lon="1.1604">
        <ele>72.9</ele>
        <time>2022-03-27T08:09:21Z</time>
      </trkpt>
      <trkpt lat="49.44978" lon="1.16044">
        <ele>73.2</ele>
        <time>2022-03-27T08:09:22Z</time>
      </trkpt>
      <trkpt lat="49.44981" lon="1.1605">
        <ele>73.6</ele>
        <time>2022-03-27T08:09:24Z</time>
      </trkpt>
      <trkpt lat="49.44982" lon="1.16053">
        <ele>73.9</ele>
        <time>2022-03-27T08:09:25Z</time>
      </trkpt>
      <trkpt lat="49.44985" lon="1.16057">
        <ele>74.3</ele>
        <time>2022-03-27T08:09:27Z</time>
      </trkpt>
      <trkpt lat="49.44987" lon="1.16059">
        <ele>74.6</ele>
        <time>2022-03-27T08:09:28Z</time>
      </trkpt>
      <trkpt lat="49.4499" lon="1.16063">
        <ele>74.9</ele>
        <time>2022-03-27T08:09:29Z</time>
      </trkpt>
      <trkpt lat="49.44991" lon="1.16063">
        <ele>75</ele>
        <time>2022-03-27T08:09:30Z</time>
      </trkpt>
      <trkpt lat="49.44993" lon="1.16067">
        <ele>75.3</ele>
        <time>2022-03-27T08:09:31Z</time>
      </trkpt>
      <trkpt lat="49.44993" lon="1.16071">
        <ele>75.7</ele>
        <time>2022-03-27T08:09:33Z</time>
      </trkpt>
      <trkpt lat="49.44994" lon="1.16074">
        <ele>75.9</ele>
        <time>2022-03-27T08:09:34Z</time>
      </trkpt>
      <trkpt lat="49.44994" lon="1.16076">
        <ele>76.1</ele>
        <time>2022-03-27T08:09:35Z</time>
      </trkpt>
      <trkpt lat="49.44995" lon="1.16078">
        <ele>76.3</ele>
        <time>2022-03-27T08:09:36Z</time>
      </trkpt>
      <trkpt lat="49.44996" lon="1.16079">
        <ele>76.5</ele>
        <time>2022-03-27T08:09:37Z</time>
      </trkpt>
      <trkpt lat="49.44997" lon="1.16081">
        <ele>76.6</ele>
        <time>2022-03-27T08:09:38Z</time>
      </trkpt>
      <trkpt lat="49.44997" lon="1.16082">
        <ele>76.8</ele>
        <time>2022-03-27T08:09:39Z</time>
      </trkpt>
      <trkpt lat="49.44997" lon="1.16083">
        <ele>76.8</ele>
        <time>2022-03-27T08:09:40Z</time>
      </trkpt>
      <trkpt lat="49.44998" lon="1.16083">
        <ele>76.9</ele>
        <time>2022-03-27T08:09:41Z</time>
      </trkpt>
      <trkpt lat="49.44999" lon="1.16085">
        <ele>77.1</ele>
        <time>2022-03-27T08:09:42Z</time>
      </trkpt>
      <trkpt lat="49.44996" lon="1.16087">
        <ele>77.5</ele>
        <time>2022-03-27T08:09:43Z</time>
      </trkpt>
      <trkpt lat="49.44994" lon="1.16091">
        <ele>77.8</ele>
        <time>2022-03-27T08:09:45Z</time>
      </trkpt>
      <trkpt lat="49.44995" lon="1.16093">
        <ele>78</ele>
        <time>2022-03-27T08:09:47Z</time>
      </trkpt>
      <trkpt lat="49.44995" lon="1.16095">
        <ele>78.2</ele>
        <time>2022-03-27T08:09:48Z</time>
      </trkpt>
      <trkpt lat="49.44995" lon="1.16096">
        <ele>78.3</ele>
        <time>2022-03-27T08:09:49Z</time>
      </trkpt>
      <trkpt lat="49.44996" lon="1.16101">
        <ele>78.7</ele>
        <time>2022-03-27T08:09:50Z</time>
      </trkpt>
      <trkpt lat="49.44997" lon="1.16102">
        <ele>78.8</ele>
        <time>2022-03-27T08:09:51Z</time>
      </trkpt>
      <trkpt lat="49.44999" lon="1.16107">
        <ele>79.3</ele>
        <time>2022-03-27T08:09:52Z</time>
      </trkpt>
      <trkpt lat="49.45" lon="1.16109">
        <ele>79.4</ele>
        <time>2022-03-27T08:09:53Z</time>
      </trkpt>
      <trkpt lat="49.45003" lon="1.16114">
        <ele>79.9</ele>
        <time>2022-03-27T08:09:55Z</time>
      </trkpt>
      <trkpt lat="49.45004" lon="1.16116">
        <ele>80.1</ele>
        <time>2022-03-27T08:09:56Z</time>
      </trkpt>
      <trkpt lat="49.45006" lon="1.16118">
        <ele>80.3</ele>
        <time>2022-03-27T08:09:57Z</time>
      </trkpt>
      <trkpt lat="49.45008" lon="1.16123">
        <ele>80.7</ele>
        <time>2022-03-27T08:09:59Z</time>
      </trkpt>
      <trkpt lat="49.4501" lon="1.16126">
        <ele>80.9</ele>
        <time>2022-03-27T08:10:00Z</time>
      </trkpt>
      <trkpt lat="49.45012" lon="1.16131">
        <ele>81.4</ele>
        <time>2022-03-27T08:10:01Z</time>
      </trkpt>
      <trkpt lat="49.45015" lon="1.16137">
        <ele>81.9</ele>
        <time>2022-03-27T08:10:03Z</time>
      </trkpt>
      <trkpt lat="49.45016" lon="1.1614">
        <ele>82.1</ele>
        <time>2022-03-27T08:10:04Z</time>
      </trkpt>
      <trkpt lat="49.45018" lon="1.16142">
        <ele>82.3</ele>
        <time>2022-03-27T08:10:05Z</time>
      </trkpt>
      <trkpt lat="49.45019" lon="1.16144">
        <ele>82.4</ele>
        <time>2022-03-27T08:10:06Z</time>
      </trkpt>
      <trkpt lat="49.4502" lon="1.16146">
        <ele>82.6</ele>
        <time>2022-03-27T08:10:07Z</time>
      </trkpt>
      <trkpt lat="49.45021" lon="1.16148">
        <ele>82.8</ele>
        <time>2022-03-27T08:10:09Z</time>
      </trkpt>
      <trkpt lat="49.45022" lon="1.16149">
        <ele>82.9</ele>
        <time>2022-03-27T08:10:10Z</time>
      </trkpt>
      <trkpt lat="49.45023" lon="1.1615">
        <ele>83</ele>
        <time>2022-03-27T08:10:11Z</time>
      </trkpt>
      <trkpt lat="49.45023" lon="1.1615">
        <ele>83.1</ele>
        <time>2022-03-27T08:10:12Z</time>
      </trkpt>
      <trkpt lat="49.45025" lon="1.16152">
        <ele>83.2</ele>
        <time>2022-03-27T08:10:14Z</time>
      </trkpt>
      <trkpt lat="49.45026" lon="1.16153">
        <ele>83.3</ele>
        <time>2022-03-27T08:10:15Z</time>
      </trkpt>
      <trkpt lat="49.45027" lon="1.16155">
        <ele>83.6</ele>
        <time>2022-03-27T08:10:16Z</time>
      </trkpt>
      <trkpt lat="49.45028" lon="1.16157">
        <ele>83.7</ele>
        <time>2022-03-27T08:10:17Z</time>
      </trkpt>
      <trkpt lat="49.45029" lon="1.16159">
        <ele>83.8</ele>
        <time>2022-03-27T08:10:18Z</time>
      </trkpt>
      <trkpt lat="49.4503" lon="1.16161">
        <ele>84</ele>
        <time>2022-03-27T08:10:20Z</time>
      </trkpt>
      <trkpt lat="49.45032" lon="1.16164">
        <ele>84.3</ele>
        <time>2022-03-27T08:10:21Z</time>
      </trkpt>
      <trkpt lat="49.45033" lon="1.16166">
        <ele>84.5</ele>
        <time>2022-03-27T08:10:22Z</time>
      </trkpt>
      <trkpt lat="49.45035" lon="1.1617">
        <ele>84.9</ele>
        <time>2022-03-27T08:10:24Z</time>
      </trkpt>
      <trkpt lat="49.45036" lon="1.16172">
        <ele>85.1</ele>
        <time>2022-03-27T08:10:25Z</time>
      </trkpt>
      <trkpt lat="49.45038" lon="1.16174">
        <ele>85.3</ele>
        <time>2022-03-27T08:10:27Z</time>
      </trkpt>
      <trkpt lat="49.4504" lon="1.16177">
        <ele>85.6</ele>
        <time>2022-03-27T08:10:28Z</time>
      </trkpt>
      <trkpt lat="49.45041" lon="1.16178">
        <ele>85.8</ele>
        <time>2022-03-27T08:10:29Z</time>
      </trkpt>
      <trkpt lat="49.45042" lon="1.16181">
        <ele>86</ele>
        <time>2022-03-27T08:10:31Z</time>
      </trkpt>
      <trkpt lat="49.45044" lon="1.16183">
        <ele>86.2</ele>
        <time>2022-03-27T08:10:32Z</time>
      </trkpt>
      <trkpt lat="49.45044" lon="1.16184">
        <ele>86.3</ele>
        <time>2022-03-27T08:10:33Z</time>
      </trkpt>
      <trkpt lat="49.45045" lon="1.16185">
        <ele>86.4</ele>
        <time>2022-03-27T08:10:34Z</time>
      </trkpt>
      <trkpt lat="49.45047" lon="1.16188">
        <ele>86.6</ele>
        <time>2022-03-27T08:10:36Z</time>
      </trkpt>
      <trkpt lat="49.45048" lon="1.1619">
        <ele>86.8</ele>
        <time>2022-03-27T08:10:38Z</time>
      </trkpt>
      <trkpt lat="49.45049" lon="1.16192">
        <ele>87</ele>
        <time>2022-03-27T08:10:39Z</time>
      </trkpt>
      <trkpt lat="49.4505" lon="1.16194">
        <ele>87.1</ele>
        <time>2022-03-27T08:10:40Z</time>
      </trkpt>
      <trkpt lat="49.45053" lon="1.16196">
        <ele>87.4</ele>
        <time>2022-03-27T08:10:41Z</time>
      </trkpt>
      <trkpt lat="49.45053" lon="1.16198">
        <ele>87.5</ele>
        <time>2022-03-27T08:10:42Z</time>
      </trkpt>
      <trkpt lat="49.45054" lon="1.16199">
        <ele>87.7</ele>
        <time>2022-03-27T08:10:43Z</time>
      </trkpt>
      <trkpt lat="49.45055" lon="1.16201">
        <ele>87.8</ele>
        <time>2022-03-27T08:10:44Z</time>
      </trkpt>
      <trkpt lat="49.45056" lon="1.16203">
        <ele>87.9</ele>
        <time>2022-03-27T08:10:45Z</time>
      </trkpt>
      <trkpt lat="49.45057" lon="1.16205">
        <ele>88.2</ele>
        <time>2022-03-27T08:10:47Z</time>
      </trkpt>
      <trkpt lat="49.45058" lon="1.16208">
        <ele>88.4</ele>
        <time>2022-03-27T08:10:48Z</time>
      </trkpt>
      <trkpt lat="49.45059" lon="1.1621">
        <ele>88.5</ele>
        <time>2022-03-27T08:10:49Z</time>
      </trkpt>
      <trkpt lat="49.45061" lon="1.16213">
        <ele>88.8</ele>
        <time>2022-03-27T08:10:50Z</time>
      </trkpt>
      <trkpt lat="49.45063" lon="1.16215">
        <ele>89.1</ele>
        <time>2022-03-27T08:10:51Z</time>
      </trkpt>
      <trkpt lat="49.45065" lon="1.16218">
        <ele>89.4</ele>
        <time>2022-03-27T08:10:53Z</time>
      </trkpt>
      <trkpt lat="49.45066" lon="1.1622">
        <ele>89.6</ele>
        <time>2022-03-27T08:10:54Z</time>
      </trkpt>
      <trkpt lat="49.45068" lon="1.16222">
        <ele>89.8</ele>
        <time>2022-03-27T08:10:55Z</time>
      </trkpt>
      <trkpt lat="49.45069" lon="1.16225">
        <ele>90</ele>
        <time>2022-03-27T08:10:56Z</time>
      </trkpt>
      <trkpt lat="49.4507" lon="1.16227">
        <ele>90.2</ele>
        <time>2022-03-27T08:10:58Z</time>
      </trkpt>
      <trkpt lat="49.45072" lon="1.16232">
        <ele>90.6</ele>
        <time>2022-03-27T08:10:59Z</time>
      </trkpt>
      <trkpt lat="49.45073" lon="1.16233">
        <ele>90.7</ele>
        <time>2022-03-27T08:11:00Z</time>
      </trkpt>
      <trkpt lat="49.45074" lon="1.16235">
        <ele>90.8</ele>
        <time>2022-03-27T08:11:01Z</time>
      </trkpt>
      <trkpt lat="49.45075" lon="1.16238">
        <ele>91.1</ele>
        <time>2022-03-27T08:11:03Z</time>
      </trkpt>
      <trkpt lat="49.45075" lon="1.16238">
        <ele>91.1</ele>
        <time>2022-03-27T08:11:04Z</time>
      </trkpt>
      <trkpt lat="49.45075" lon="1.16239">
        <ele>91.2</ele>
        <time>2022-03-27T08:11:05Z</time>
      </trkpt>
      <trkpt lat="49.45075" lon="1.16239">
        <ele>91.2</ele>
        <time>2022-03-27T08:11:06Z</time>
      </trkpt>
      <trkpt lat="49.45076" lon="1.16243">
        <ele>91.5</ele>
        <time>2022-03-27T08:11:07Z</time>
      </trkpt>
      <trkpt lat="49.45076" lon="1.16244">
        <ele>91.5</ele>
        <time>2022-03-27T08:11:08Z</time>
      </trkpt>
      <trkpt lat="49.45077" lon="1.16247">
        <ele>91.8</ele>
        <time>2022-03-27T08:11:10Z</time>
      </trkpt>
      <trkpt lat="49.45079" lon="1.16252">
        <ele>92.2</ele>
        <time>2022-03-27T08:11:12Z</time>
      </trkpt>
      <trkpt lat="49.45082" lon="1.16256">
        <ele>92.6</ele>
        <time>2022-03-27T08:11:14Z</time>
      </trkpt>
      <trkpt lat="49.45084" lon="1.1626">
        <ele>93.1</ele>
        <time>2022-03-27T08:11:15Z</time>
      </trkpt>
      <trkpt lat="49.45086" lon="1.16262">
        <ele>93.3</ele>
        <time>2022-03-27T08:11:16Z</time>
      </trkpt>
      <trkpt lat="49.45086" lon="1.16263">
        <ele>93.4</ele>
        <time>2022-03-27T08:11:17Z</time>
      </trkpt>
      <trkpt lat="49.45087" lon="1.16265">
        <ele>93.6</ele>
        <time>2022-03-27T08:11:18Z</time>
      </trkpt>
      <trkpt lat="49.45087" lon="1.16267">
        <ele>93.9</ele>
        <time>2022-03-27T08:11:20Z</time>
      </trkpt>
      <trkpt lat="49.45087" lon="1.16271">
        <ele>94.2</ele>
        <time>2022-03-27T08:11:21Z</time>
      </trkpt>
      <trkpt lat="49.45087" lon="1.16272">
        <ele>94.3</ele>
        <time>2022-03-27T08:11:23Z</time>
      </trkpt>
      <trkpt lat="49.45086" lon="1.16273">
        <ele>94.5</ele>
        <time>2022-03-27T08:11:25Z</time>
      </trkpt>
      <trkpt lat="49.45086" lon="1.16275">
        <ele>94.6</ele>
        <time>2022-03-27T08:11:26Z</time>
      </trkpt>
      <trkpt lat="49.45085" lon="1.16276">
        <ele>94.8</ele>
        <time>2022-03-27T08:11:27Z</time>
      </trkpt>
      <trkpt lat="49.45085" lon="1.16276">
        <ele>94.8</ele>
        <time>2022-03-27T08:11:28Z</time>
      </trkpt>
      <trkpt lat="49.45085" lon="1.16277">
        <ele>94.8</ele>
        <time>2022-03-27T08:11:29Z</time>
      </trkpt>
      <trkpt lat="49.45085" lon="1.16277">
        <ele>94.8</ele>
        <time>2022-03-27T08:11:31Z</time>
      </trkpt>
      <trkpt lat="49.45086" lon="1.16284">
        <ele>95.6</ele>
        <time>2022-03-27T08:11:43Z</time>
      </trkpt>
      <trkpt lat="49.45087" lon="1.16287">
        <ele>95.8</ele>
        <time>2022-03-27T08:11:44Z</time>
      </trkpt>
      <trkpt lat="49.45088" lon="1.16289">
        <ele>96.1</ele>
        <time>2022-03-27T08:11:45Z</time>
      </trkpt>
      <trkpt lat="49.4509" lon="1.16292">
        <ele>96.4</ele>
        <time>2022-03-27T08:11:47Z</time>
      </trkpt>
      <trkpt lat="49.45094" lon="1.16297">
        <ele>97</ele>
        <time>2022-03-27T08:11:48Z</time>
      </trkpt>
      <trkpt lat="49.45095" lon="1.163">
        <ele>97.3</ele>
        <time>2022-03-27T08:11:49Z</time>
      </trkpt>
      <trkpt lat="49.451" lon="1.16308">
        <ele>98.2</ele>
        <time>2022-03-27T08:11:51Z</time>
      </trkpt>
      <trkpt lat="49.45102" lon="1.16315">
        <ele>99</ele>
        <time>2022-03-27T08:11:53Z</time>
      </trkpt>
      <trkpt lat="49.45104" lon="1.16318">
        <ele>99.4</ele>
        <time>2022-03-27T08:11:54Z</time>
      </trkpt>
      <trkpt lat="49.45105" lon="1.16321">
        <ele>99.7</ele>
        <time>2022-03-27T08:11:55Z</time>
      </trkpt>
      <trkpt lat="49.45108" lon="1.16325">
        <ele>100.2</ele>
        <time>2022-03-27T08:11:57Z</time>
      </trkpt>
      <trkpt lat="49.45109" lon="1.16326">
        <ele>100.4</ele>
        <time>2022-03-27T08:11:58Z</time>
      </trkpt>
      <trkpt lat="49.45112" lon="1.16329">
        <ele>100.9</ele>
        <time>2022-03-27T08:11:59Z</time>
      </trkpt>
      <trkpt lat="49.45113" lon="1.1633">
        <ele>101.1</ele>
        <time>2022-03-27T08:12:00Z</time>
      </trkpt>
      <trkpt lat="49.45116" lon="1.16333">
        <ele>101.6</ele>
        <time>2022-03-27T08:12:01Z</time>
      </trkpt>
      <trkpt lat="49.45118" lon="1.16334">
        <ele>101.9</ele>
        <time>2022-03-27T08:12:02Z</time>
      </trkpt>
      <trkpt lat="49.4512" lon="1.16335">
        <ele>102.3</ele>
        <time>2022-03-27T08:12:04Z</time>
      </trkpt>
      <trkpt lat="49.45123" lon="1.16338">
        <ele>102.7</ele>
        <time>2022-03-27T08:12:05Z</time>
      </trkpt>
      <trkpt lat="49.45123" lon="1.1634">
        <ele>102.8</ele>
        <time>2022-03-27T08:12:06Z</time>
      </trkpt>
      <trkpt lat="49.45124" lon="1.1634">
        <ele>103</ele>
        <time>2022-03-27T08:12:07Z</time>
      </trkpt>
      <trkpt lat="49.45124" lon="1.16342">
        <ele>103.1</ele>
        <time>2022-03-27T08:12:08Z</time>
      </trkpt>
      <trkpt lat="49.45123" lon="1.16343">
        <ele>103.2</ele>
        <time>2022-03-27T08:12:09Z</time>
      </trkpt>
      <trkpt lat="49.45122" lon="1.16347">
        <ele>103.5</ele>
        <time>2022-03-27T08:12:11Z</time>
      </trkpt>
      <trkpt lat="49.45124" lon="1.16349">
        <ele>103.8</ele>
        <time>2022-03-27T08:12:13Z</time>
      </trkpt>
      <trkpt lat="49.45124" lon="1.16345">
        <ele>104.1</ele>
        <time>2022-03-27T08:12:15Z</time>
      </trkpt>
      <trkpt lat="49.45124" lon="1.16344">
        <ele>104.2</ele>
        <time>2022-03-27T08:12:16Z</time>
      </trkpt>
      <trkpt lat="49.45125" lon="1.16344">
        <ele>104.3</ele>
        <time>2022-03-27T08:12:17Z</time>
      </trkpt>
      <trkpt lat="49.45124" lon="1.16342">
        <ele>104.4</ele>
        <time>2022-03-27T08:12:19Z</time>
      </trkpt>
      <trkpt lat="49.45124" lon="1.16342">
        <ele>104.4</ele>
        <time>2022-03-27T08:12:20Z</time>
      </trkpt>
      <trkpt lat="49.45125" lon="1.16342">
        <ele>104.5</ele>
        <time>2022-03-27T08:12:21Z</time>
      </trkpt>
      <trkpt lat="49.45125" lon="1.16342">
        <ele>104.5</ele>
        <time>2022-03-27T08:12:22Z</time>
      </trkpt>
      <trkpt lat="49.45126" lon="1.16342">
        <ele>104.6</ele>
        <time>2022-03-27T08:12:23Z</time>
      </trkpt>
      <trkpt lat="49.45126" lon="1.16341">
        <ele>104.6</ele>
        <time>2022-03-27T08:12:24Z</time>
      </trkpt>
      <trkpt lat="49.45126" lon="1.16342">
        <ele>104.7</ele>
        <time>2022-03-27T08:12:25Z</time>
      </trkpt>
      <trkpt lat="49.45126" lon="1.16342">
        <ele>104.7</ele>
        <time>2022-03-27T08:12:26Z</time>
      </trkpt>
      <trkpt lat="49.45126" lon="1.16342">
        <ele>104.7</ele>
        <time>2022-03-27T08:12:27Z</time>
      </trkpt>
      <trkpt lat="49.45127" lon="1.16343">
        <ele>104.9</ele>
        <time>2022-03-27T08:12:29Z</time>
      </trkpt>
      <trkpt lat="49.45127" lon="1.16344">
        <ele>105</ele>
        <time>2022-03-27T08:12:30Z</time>
      </trkpt>
      <trkpt lat="49.45127" lon="1.16345">
        <ele>105.1</ele>
        <time>2022-03-27T08:12:32Z</time>
      </trkpt>
      <trkpt lat="49.4513" lon="1.16349">
        <ele>105.5</ele>
        <time>2022-03-27T08:12:33Z</time>
      </trkpt>
      <trkpt lat="49.45131" lon="1.16354">
        <ele>105.9</ele>
        <time>2022-03-27T08:12:35Z</time>
      </trkpt>
      <trkpt lat="49.45132" lon="1.16358">
        <ele>106.3</ele>
        <time>2022-03-27T08:12:36Z</time>
      </trkpt>
      <trkpt lat="49.45134" lon="1.16361">
        <ele>106.7</ele>
        <time>2022-03-27T08:12:38Z</time>
      </trkpt>
      <trkpt lat="49.45137" lon="1.16366">
        <ele>107.3</ele>
        <time>2022-03-27T08:12:40Z</time>
      </trkpt>
      <trkpt lat="49.45138" lon="1.16369">
        <ele>107.5</ele>
        <time>2022-03-27T08:12:42Z</time>
      </trkpt>
      <trkpt lat="49.45139" lon="1.16371">
        <ele>107.8</ele>
        <time>2022-03-27T08:12:43Z</time>
      </trkpt>
      <trkpt lat="49.45139" lon="1.16373">
        <ele>108</ele>
        <time>2022-03-27T08:12:44Z</time>
      </trkpt>
      <trkpt lat="49.45139" lon="1.16375">
        <ele>108.2</ele>
        <time>2022-03-27T08:12:45Z</time>
      </trkpt>
      <trkpt lat="49.45139" lon="1.16379">
        <ele>108.6</ele>
        <time>2022-03-27T08:12:46Z</time>
      </trkpt>
      <trkpt lat="49.45139" lon="1.16381">
        <ele>108.7</ele>
        <time>2022-03-27T08:12:47Z</time>
      </trkpt>
      <trkpt lat="49.4514" lon="1.16382">
        <ele>108.9</ele>
        <time>2022-03-27T08:12:48Z</time>
      </trkpt>
      <trkpt lat="49.45141" lon="1.16384">
        <ele>109.1</ele>
        <time>2022-03-27T08:12:49Z</time>
      </trkpt>
      <trkpt lat="49.45141" lon="1.16385">
        <ele>109.3</ele>
        <time>2022-03-27T08:12:51Z</time>
      </trkpt>
      <trkpt lat="49.45142" lon="1.16386">
        <ele>109.4</ele>
        <time>2022-03-27T08:12:52Z</time>
      </trkpt>
      <trkpt lat="49.45142" lon="1.16387">
        <ele>109.5</ele>
        <time>2022-03-27T08:12:54Z</time>
      </trkpt>
      <trkpt lat="49.45141" lon="1.16389">
        <ele>109.7</ele>
        <time>2022-03-27T08:12:55Z</time>
      </trkpt>
      <trkpt lat="49.45141" lon="1.16392">
        <ele>110</ele>
        <time>2022-03-27T08:12:56Z</time>
      </trkpt>
      <trkpt lat="49.45142" lon="1.16394">
        <ele>110.2</ele>
        <time>2022-03-27T08:12:58Z</time>
      </trkpt>
      <trkpt lat="49.45142" lon="1.16396">
        <ele>110.4</ele>
        <time>2022-03-27T08:12:59Z</time>
      </trkpt>
      <trkpt lat="49.45143" lon="1.16398">
        <ele>110.5</ele>
        <time>2022-03-27T08:13:00Z</time>
      </trkpt>
      <trkpt lat="49.45143" lon="1.164">
        <ele>110.7</ele>
        <time>2022-03-27T08:13:02Z</time>
      </trkpt>
      <trkpt lat="49.45144" lon="1.16402">
        <ele>110.9</ele>
        <time>2022-03-27T08:13:04Z</time>
      </trkpt>
      <trkpt lat="49.45145" lon="1.16404">
        <ele>111.1</ele>
        <time>2022-03-27T08:13:06Z</time>
      </trkpt>
      <trkpt lat="49.45145" lon="1.16406">
        <ele>111.3</ele>
        <time>2022-03-27T08:13:07Z</time>
      </trkpt>
      <trkpt lat="49.45148" lon="1.16409">
        <ele>111.7</ele>
        <time>2022-03-27T08:13:09Z</time>
      </trkpt>
      <trkpt lat="49.45148" lon="1.16409">
        <ele>111.8</ele>
        <time>2022-03-27T08:13:10Z</time>
      </trkpt>
      <trkpt lat="49.4515" lon="1.16411">
        <ele>112.1</ele>
        <time>2022-03-27T08:13:11Z</time>
      </trkpt>
      <trkpt lat="49.45152" lon="1.16413">
        <ele>112.4</ele>
        <time>2022-03-27T08:13:13Z</time>
      </trkpt>
      <trkpt lat="49.45155" lon="1.16417">
        <ele>113</ele>
        <time>2022-03-27T08:13:14Z</time>
      </trkpt>
      <trkpt lat="49.45157" lon="1.1642">
        <ele>113.3</ele>
        <time>2022-03-27T08:13:15Z</time>
      </trkpt>
      <trkpt lat="49.45161" lon="1.16426">
        <ele>114.1</ele>
        <time>2022-03-27T08:13:17Z</time>
      </trkpt>
      <trkpt lat="49.45163" lon="1.16428">
        <ele>114.5</ele>
        <time>2022-03-27T08:13:19Z</time>
      </trkpt>
      <trkpt lat="49.45165" lon="1.16432">
        <ele>114.9</ele>
        <time>2022-03-27T08:13:20Z</time>
      </trkpt>
      <trkpt lat="49.45165" lon="1.16433">
        <ele>115.1</ele>
        <time>2022-03-27T08:13:21Z</time>
      </trkpt>
      <trkpt lat="49.45166" lon="1.16433">
        <ele>115.3</ele>
        <time>2022-03-27T08:13:22Z</time>
      </trkpt>
      <trkpt lat="49.45167" lon="1.16434">
        <ele>115.4</ele>
        <time>2022-03-27T08:13:23Z</time>
      </trkpt>
      <trkpt lat="49.45169" lon="1.16435">
        <ele>115.7</ele>
        <time>2022-03-27T08:13:24Z</time>
      </trkpt>
      <trkpt lat="49.4517" lon="1.16436">
        <ele>115.9</ele>
        <time>2022-03-27T08:13:26Z</time>
      </trkpt>
      <trkpt lat="49.45171" lon="1.16437">
        <ele>116.1</ele>
        <time>2022-03-27T08:13:27Z</time>
      </trkpt>
      <trkpt lat="49.45173" lon="1.16439">
        <ele>116.4</ele>
        <time>2022-03-27T08:13:28Z</time>
      </trkpt>
      <trkpt lat="49.45174" lon="1.1644">
        <ele>116.6</ele>
        <time>2022-03-27T08:13:29Z</time>
      </trkpt>
      <trkpt lat="49.45175" lon="1.16442">
        <ele>116.9</ele>
        <time>2022-03-27T08:13:31Z</time>
      </trkpt>
      <trkpt lat="49.45176" lon="1.16444">
        <ele>117.1</ele>
        <time>2022-03-27T08:13:32Z</time>
      </trkpt>
      <trkpt lat="49.45179" lon="1.16447">
        <ele>117.7</ele>
        <time>2022-03-27T08:13:33Z</time>
      </trkpt>
      <trkpt lat="49.45179" lon="1.16449">
        <ele>117.9</ele>
        <time>2022-03-27T08:13:34Z</time>
      </trkpt>
      <trkpt lat="49.45181" lon="1.16451">
        <ele>118.2</ele>
        <time>2022-03-27T08:13:36Z</time>
      </trkpt>
      <trkpt lat="49.45182" lon="1.16452">
        <ele>118.4</ele>
        <time>2022-03-27T08:13:37Z</time>
      </trkpt>
      <trkpt lat="49.45183" lon="1.16454">
        <ele>118.7</ele>
        <time>2022-03-27T08:13:38Z</time>
      </trkpt>
      <trkpt lat="49.45184" lon="1.16456">
        <ele>119</ele>
        <time>2022-03-27T08:13:39Z</time>
      </trkpt>
      <trkpt lat="49.45186" lon="1.1646">
        <ele>119.5</ele>
        <time>2022-03-27T08:13:40Z</time>
      </trkpt>
      <trkpt lat="49.45187" lon="1.16461">
        <ele>119.7</ele>
        <time>2022-03-27T08:13:41Z</time>
      </trkpt>
      <trkpt lat="49.45189" lon="1.16465">
        <ele>120.2</ele>
        <time>2022-03-27T08:13:43Z</time>
      </trkpt>
      <trkpt lat="49.45191" lon="1.16469">
        <ele>120.7</ele>
        <time>2022-03-27T08:13:45Z</time>
      </trkpt>
      <trkpt lat="49.45193" lon="1.16473">
        <ele>121.3</ele>
        <time>2022-03-27T08:13:46Z</time>
      </trkpt>
      <trkpt lat="49.45195" lon="1.16476">
        <ele>121.7</ele>
        <time>2022-03-27T08:13:48Z</time>
      </trkpt>
      <trkpt lat="49.45196" lon="1.16479">
        <ele>122</ele>
        <time>2022-03-27T08:13:50Z</time>
      </trkpt>
      <trkpt lat="49.45198" lon="1.16482">
        <ele>122.4</ele>
        <time>2022-03-27T08:13:51Z</time>
      </trkpt>
      <trkpt lat="49.45199" lon="1.16484">
        <ele>122.7</ele>
        <time>2022-03-27T08:13:53Z</time>
      </trkpt>
      <trkpt lat="49.45201" lon="1.16487">
        <ele>123.1</ele>
        <time>2022-03-27T08:13:55Z</time>
      </trkpt>
      <trkpt lat="49.45202" lon="1.16489">
        <ele>123.3</ele>
        <time>2022-03-27T08:13:56Z</time>
      </trkpt>
      <trkpt lat="49.45203" lon="1.1649">
        <ele>123.4</ele>
        <time>2022-03-27T08:13:57Z</time>
      </trkpt>
      <trkpt lat="49.45203" lon="1.16491">
        <ele>123.6</ele>
        <time>2022-03-27T08:13:59Z</time>
      </trkpt>
      <trkpt lat="49.45203" lon="1.16493">
        <ele>123.7</ele>
        <time>2022-03-27T08:14:00Z</time>
      </trkpt>
      <trkpt lat="49.45203" lon="1.16494">
        <ele>123.8</ele>
        <time>2022-03-27T08:14:01Z</time>
      </trkpt>
      <trkpt lat="49.45202" lon="1.16496">
        <ele>124</ele>
        <time>2022-03-27T08:14:02Z</time>
      </trkpt>
      <trkpt lat="49.45202" lon="1.16498">
        <ele>124.2</ele>
        <time>2022-03-27T08:14:03Z</time>
      </trkpt>
      <trkpt lat="49.45201" lon="1.165">
        <ele>124.4</ele>
        <time>2022-03-27T08:14:04Z</time>
      </trkpt>
      <trkpt lat="49.45198" lon="1.16503">
        <ele>124.9</ele>
        <time>2022-03-27T08:14:05Z</time>
      </trkpt>
      <trkpt lat="49.45197" lon="1.16505">
        <ele>125.1</ele>
        <time>2022-03-27T08:14:07Z</time>
      </trkpt>
      <trkpt lat="49.45196" lon="1.16507">
        <ele>125.3</ele>
        <time>2022-03-27T08:14:08Z</time>
      </trkpt>
      <trkpt lat="49.45197" lon="1.16508">
        <ele>125.5</ele>
        <time>2022-03-27T08:14:09Z</time>
      </trkpt>
      <trkpt lat="49.45198" lon="1.16509">
        <ele>125.6</ele>
        <time>2022-03-27T08:14:11Z</time>
      </trkpt>
      <trkpt lat="49.45198" lon="1.1651">
        <ele>125.6</ele>
        <time>2022-03-27T08:14:12Z</time>
      </trkpt>
      <trkpt lat="49.45198" lon="1.1651">
        <ele>125.6</ele>
        <time>2022-03-27T08:14:13Z</time>
      </trkpt>
      <trkpt lat="49.45198" lon="1.1651">
        <ele>125.7</ele>
        <time>2022-03-27T08:14:14Z</time>
      </trkpt>
      <trkpt lat="49.45198" lon="1.16511">
        <ele>126.1</ele>
        <time>2022-03-27T08:14:15Z</time>
      </trkpt>
      <trkpt lat="49.45198" lon="1.16511">
        <ele>126.1</ele>
        <time>2022-03-27T08:14:17Z</time>
      </trkpt>
      <trkpt lat="49.45198" lon="1.16511">
        <ele>126.1</ele>
        <time>2022-03-27T08:14:18Z</time>
      </trkpt>
      <trkpt lat="49.45198" lon="1.16511">
        <ele>126.2</ele>
        <time>2022-03-27T08:14:19Z</time>
      </trkpt>
      <trkpt lat="49.45198" lon="1.16512">
        <ele>126.2</ele>
        <time>2022-03-27T08:14:20Z</time>
      </trkpt>
      <trkpt lat="49.45198" lon="1.16512">
        <ele>126.2</ele>
        <time>2022-03-27T08:14:21Z</time>
      </trkpt>
      <trkpt lat="49.45198" lon="1.16512">
        <ele>126.3</ele>
        <time>2022-03-27T08:14:22Z</time>
      </trkpt>
      <trkpt lat="49.45198" lon="1.16513">
        <ele>126.3</ele>
        <time>2022-03-27T08:14:23Z</time>
      </trkpt>
      <trkpt lat="49.45199" lon="1.16513">
        <ele>126.3</ele>
        <time>2022-03-27T08:14:24Z</time>
      </trkpt>
      <trkpt lat="49.45199" lon="1.16513">
        <ele>126.3</ele>
        <time>2022-03-27T08:14:25Z</time>
      </trkpt>
      <trkpt lat="49.45199" lon="1.16513">
        <ele>126.4</ele>
        <time>2022-03-27T08:14:27Z</time>
      </trkpt>
      <trkpt lat="49.45199" lon="1.16514">
        <ele>126.4</ele>
        <time>2022-03-27T08:14:37Z</time>
      </trkpt>
      <trkpt lat="49.45199" lon="1.16514">
        <ele>126.4</ele>
        <time>2022-03-27T08:14:38Z</time>
      </trkpt>
      <trkpt lat="49.45199" lon="1.16514">
        <ele>126.4</ele>
        <time>2022-03-27T08:14:39Z</time>
      </trkpt>
      <trkpt lat="49.45199" lon="1.16515">
        <ele>126.5</ele>
        <time>2022-03-27T08:14:40Z</time>
      </trkpt>
      <trkpt lat="49.45199" lon="1.16515">
        <ele>126.5</ele>
        <time>2022-03-27T08:14:42Z</time>
      </trkpt>
      <trkpt lat="49.45199" lon="1.16515">
        <ele>126.5</ele>
        <time>2022-03-27T08:14:44Z</time>
      </trkpt>
      <trkpt lat="49.45199" lon="1.16515">
        <ele>126.5</ele>
        <time>2022-03-27T08:14:45Z</time>
      </trkpt>
      <trkpt lat="49.45199" lon="1.16516">
        <ele>126.6</ele>
        <time>2022-03-27T08:14:47Z</time>
      </trkpt>
      <trkpt lat="49.45199" lon="1.16516">
        <ele>126.6</ele>
        <time>2022-03-27T08:14:48Z</time>
      </trkpt>
      <trkpt lat="49.45199" lon="1.16516">
        <ele>126.6</ele>
        <time>2022-03-27T08:14:49Z</time>
      </trkpt>
      <trkpt lat="49.45199" lon="1.16517">
        <ele>126.6</ele>
        <time>2022-03-27T08:14:50Z</time>
      </trkpt>
      <trkpt lat="49.452" lon="1.16517">
        <ele>126.7</ele>
        <time>2022-03-27T08:15:06Z</time>
      </trkpt>
      <trkpt lat="49.452" lon="1.16517">
        <ele>126.7</ele>
        <time>2022-03-27T08:15:07Z</time>
      </trkpt>
      <trkpt lat="49.45201" lon="1.16516">
        <ele>126.9</ele>
        <time>2022-03-27T08:15:10Z</time>
      </trkpt>
      <trkpt lat="49.45201" lon="1.16515">
        <ele>127</ele>
        <time>2022-03-27T08:15:11Z</time>
      </trkpt>
      <trkpt lat="49.45202" lon="1.16515">
        <ele>127</ele>
        <time>2022-03-27T08:15:13Z</time>
      </trkpt>
      <trkpt lat="49.45203" lon="1.16513">
        <ele>127.2</ele>
        <time>2022-03-27T08:15:14Z</time>
      </trkpt>
      <trkpt lat="49.45204" lon="1.16511">
        <ele>127.4</ele>
        <time>2022-03-27T08:15:16Z</time>
      </trkpt>
      <trkpt lat="49.45205" lon="1.1651">
        <ele>127.5</ele>
        <time>2022-03-27T08:15:17Z</time>
      </trkpt>
      <trkpt lat="49.45205" lon="1.1651">
        <ele>127.6</ele>
        <time>2022-03-27T08:15:18Z</time>
      </trkpt>
      <trkpt lat="49.45206" lon="1.16509">
        <ele>127.7</ele>
        <time>2022-03-27T08:15:19Z</time>
      </trkpt>
      <trkpt lat="49.45206" lon="1.16508">
        <ele>127.8</ele>
        <time>2022-03-27T08:15:20Z</time>
      </trkpt>
      <trkpt lat="49.45205" lon="1.16508">
        <ele>128</ele>
        <time>2022-03-27T08:15:21Z</time>
      </trkpt>
      <trkpt lat="49.45203" lon="1.16508">
        <ele>128.2</ele>
        <time>2022-03-27T08:15:56Z</time>
      </trkpt>
      <trkpt lat="49.45201" lon="1.16508">
        <ele>128.4</ele>
        <time>2022-03-27T08:15:57Z</time>
      </trkpt>
      <trkpt lat="49.45199" lon="1.16508">
        <ele>128.6</ele>
        <time>2022-03-27T08:15:58Z</time>
      </trkpt>
      <trkpt lat="49.45197" lon="1.1651">
        <ele>128.8</ele>
        <time>2022-03-27T08:16:00Z</time>
      </trkpt>
      <trkpt lat="49.45197" lon="1.16513">
        <ele>129.1</ele>
        <time>2022-03-27T08:16:02Z</time>
      </trkpt>
      <trkpt lat="49.45197" lon="1.16514">
        <ele>129.1</ele>
        <time>2022-03-27T08:16:04Z</time>
      </trkpt>
      <trkpt lat="49.45197" lon="1.16516">
        <ele>129.2</ele>
        <time>2022-03-27T08:16:05Z</time>
      </trkpt>
      <trkpt lat="49.45196" lon="1.16516">
        <ele>129.3</ele>
        <time>2022-03-27T08:16:06Z</time>
      </trkpt>
      <trkpt lat="49.45196" lon="1.16516">
        <ele>129.3</ele>
        <time>2022-03-27T08:16:07Z</time>
      </trkpt>
      <trkpt lat="49.45196" lon="1.16516">
        <ele>129.3</ele>
        <time>2022-03-27T08:16:08Z</time>
      </trkpt>
      <trkpt lat="49.45196" lon="1.16516">
        <ele>129.4</ele>
        <time>2022-03-27T08:16:11Z</time>
      </trkpt>
      <trkpt lat="49.45195" lon="1.16517">
        <ele>129.4</ele>
        <time>2022-03-27T08:16:12Z</time>
      </trkpt>
      <trkpt lat="49.45195" lon="1.16518">
        <ele>129.5</ele>
        <time>2022-03-27T08:16:15Z</time>
      </trkpt>
      <trkpt lat="49.45195" lon="1.16518">
        <ele>129.5</ele>
        <time>2022-03-27T08:16:17Z</time>
      </trkpt>
      <trkpt lat="49.45194" lon="1.16519">
        <ele>129.6</ele>
        <time>2022-03-27T08:16:18Z</time>
      </trkpt>
      <trkpt lat="49.45195" lon="1.16522">
        <ele>129.8</ele>
        <time>2022-03-27T08:16:19Z</time>
      </trkpt>
      <trkpt lat="49.45195" lon="1.16524">
        <ele>129.9</ele>
        <time>2022-03-27T08:16:20Z</time>
      </trkpt>
      <trkpt lat="49.45196" lon="1.16525">
        <ele>130</ele>
        <time>2022-03-27T08:16:21Z</time>
      </trkpt>
      <trkpt lat="49.45199" lon="1.16528">
        <ele>130.3</ele>
        <time>2022-03-27T08:16:22Z</time>
      </trkpt>
      <trkpt lat="49.452" lon="1.16529">
        <ele>130.4</ele>
        <time>2022-03-27T08:16:23Z</time>
      </trkpt>
      <trkpt lat="49.45203" lon="1.16532">
        <ele>130.8</ele>
        <time>2022-03-27T08:16:25Z</time>
      </trkpt>
      <trkpt lat="49.45205" lon="1.16532">
        <ele>130.9</ele>
        <time>2022-03-27T08:16:26Z</time>
      </trkpt>
      <trkpt lat="49.45206" lon="1.16534">
        <ele>131</ele>
        <time>2022-03-27T08:16:27Z</time>
      </trkpt>
      <trkpt lat="49.45207" lon="1.16535">
        <ele>131.1</ele>
        <time>2022-03-27T08:16:28Z</time>
      </trkpt>
      <trkpt lat="49.45208" lon="1.16537">
        <ele>131.3</ele>
        <time>2022-03-27T08:16:29Z</time>
      </trkpt>
      <trkpt lat="49.4521" lon="1.16539">
        <ele>131.4</ele>
        <time>2022-03-27T08:16:31Z</time>
      </trkpt>
      <trkpt lat="49.45212" lon="1.16542">
        <ele>131.6</ele>
        <time>2022-03-27T08:16:32Z</time>
      </trkpt>
      <trkpt lat="49.45214" lon="1.16545">
        <ele>131.9</ele>
        <time>2022-03-27T08:16:34Z</time>
      </trkpt>
      <trkpt lat="49.45215" lon="1.16548">
        <ele>132</ele>
        <time>2022-03-27T08:16:35Z</time>
      </trkpt>
      <trkpt lat="49.45218" lon="1.16551">
        <ele>132.3</ele>
        <time>2022-03-27T08:16:37Z</time>
      </trkpt>
      <trkpt lat="49.45219" lon="1.16553">
        <ele>132.4</ele>
        <time>2022-03-27T08:16:38Z</time>
      </trkpt>
      <trkpt lat="49.45221" lon="1.16555">
        <ele>132.6</ele>
        <time>2022-03-27T08:16:40Z</time>
      </trkpt>
      <trkpt lat="49.45224" lon="1.16559">
        <ele>132.8</ele>
        <time>2022-03-27T08:16:41Z</time>
      </trkpt>
      <trkpt lat="49.45226" lon="1.16561">
        <ele>133</ele>
        <time>2022-03-27T08:16:42Z</time>
      </trkpt>
      <trkpt lat="49.45228" lon="1.16564">
        <ele>133.1</ele>
        <time>2022-03-27T08:16:44Z</time>
      </trkpt>
      <trkpt lat="49.45231" lon="1.16567">
        <ele>133.3</ele>
        <time>2022-03-27T08:16:45Z</time>
      </trkpt>
      <trkpt lat="49.45233" lon="1.1657">
        <ele>133.5</ele>
        <time>2022-03-27T08:16:46Z</time>
      </trkpt>
      <trkpt lat="49.45234" lon="1.16571">
        <ele>133.5</ele>
        <time>2022-03-27T08:16:47Z</time>
      </trkpt>
      <trkpt lat="49.45236" lon="1.16574">
        <ele>133.7</ele>
        <time>2022-03-27T08:16:49Z</time>
      </trkpt>
      <trkpt lat="49.45237" lon="1.16575">
        <ele>133.7</ele>
        <time>2022-03-27T08:16:50Z</time>
      </trkpt>
      <trkpt lat="49.45238" lon="1.16576">
        <ele>133.8</ele>
        <time>2022-03-27T08:16:51Z</time>
      </trkpt>
      <trkpt lat="49.4524" lon="1.16578">
        <ele>133.9</ele>
        <time>2022-03-27T08:16:52Z</time>
      </trkpt>
      <trkpt lat="49.45241" lon="1.16579">
        <ele>134</ele>
        <time>2022-03-27T08:16:53Z</time>
      </trkpt>
      <trkpt lat="49.45242" lon="1.16581">
        <ele>134</ele>
        <time>2022-03-27T08:16:54Z</time>
      </trkpt>
      <trkpt lat="49.45245" lon="1.16584">
        <ele>134.2</ele>
        <time>2022-03-27T08:16:55Z</time>
      </trkpt>
      <trkpt lat="49.45246" lon="1.16585">
        <ele>134.2</ele>
        <time>2022-03-27T08:16:56Z</time>
      </trkpt>
      <trkpt lat="49.45248" lon="1.16589">
        <ele>134.4</ele>
        <time>2022-03-27T08:16:57Z</time>
      </trkpt>
      <trkpt lat="49.45249" lon="1.1659">
        <ele>134.4</ele>
        <time>2022-03-27T08:16:58Z</time>
      </trkpt>
      <trkpt lat="49.45251" lon="1.16593">
        <ele>134.5</ele>
        <time>2022-03-27T08:16:59Z</time>
      </trkpt>
      <trkpt lat="49.45252" lon="1.16595">
        <ele>134.6</ele>
        <time>2022-03-27T08:17:01Z</time>
      </trkpt>
      <trkpt lat="49.45255" lon="1.16599">
        <ele>134.7</ele>
        <time>2022-03-27T08:17:02Z</time>
      </trkpt>
      <trkpt lat="49.45256" lon="1.16601">
        <ele>134.8</ele>
        <time>2022-03-27T08:17:03Z</time>
      </trkpt>
      <trkpt lat="49.45258" lon="1.16605">
        <ele>134.9</ele>
        <time>2022-03-27T08:17:05Z</time>
      </trkpt>
      <trkpt lat="49.45261" lon="1.16609">
        <ele>135</ele>
        <time>2022-03-27T08:17:06Z</time>
      </trkpt>
      <trkpt lat="49.45261" lon="1.1661">
        <ele>135.1</ele>
        <time>2022-03-27T08:17:07Z</time>
      </trkpt>
      <trkpt lat="49.45264" lon="1.16613">
        <ele>135.2</ele>
        <time>2022-03-27T08:17:08Z</time>
      </trkpt>
      <trkpt lat="49.45265" lon="1.16613">
        <ele>135.2</ele>
        <time>2022-03-27T08:17:09Z</time>
      </trkpt>
      <trkpt lat="49.45268" lon="1.16616">
        <ele>135.3</ele>
        <time>2022-03-27T08:17:10Z</time>
      </trkpt>
      <trkpt lat="49.45269" lon="1.16618">
        <ele>135.4</ele>
        <time>2022-03-27T08:17:11Z</time>
      </trkpt>
      <trkpt lat="49.45271" lon="1.1662">
        <ele>135.4</ele>
        <time>2022-03-27T08:17:12Z</time>
      </trkpt>
      <trkpt lat="49.45273" lon="1.16622">
        <ele>135.5</ele>
        <time>2022-03-27T08:17:14Z</time>
      </trkpt>
      <trkpt lat="49.45275" lon="1.16626">
        <ele>135.7</ele>
        <time>2022-03-27T08:17:15Z</time>
      </trkpt>
      <trkpt lat="49.45277" lon="1.16629">
        <ele>135.7</ele>
        <time>2022-03-27T08:17:16Z</time>
      </trkpt>
      <trkpt lat="49.45281" lon="1.16635">
        <ele>135.9</ele>
        <time>2022-03-27T08:17:18Z</time>
      </trkpt>
      <trkpt lat="49.45283" lon="1.16639">
        <ele>136</ele>
        <time>2022-03-27T08:17:19Z</time>
      </trkpt>
      <trkpt lat="49.45285" lon="1.16644">
        <ele>136</ele>
        <time>2022-03-27T08:17:21Z</time>
      </trkpt>
      <trkpt lat="49.45287" lon="1.16648">
        <ele>136.1</ele>
        <time>2022-03-27T08:17:22Z</time>
      </trkpt>
      <trkpt lat="49.4529" lon="1.16654">
        <ele>136.2</ele>
        <time>2022-03-27T08:17:24Z</time>
      </trkpt>
      <trkpt lat="49.45292" lon="1.1666">
        <ele>136.3</ele>
        <time>2022-03-27T08:17:26Z</time>
      </trkpt>
      <trkpt lat="49.45293" lon="1.16662">
        <ele>136.3</ele>
        <time>2022-03-27T08:17:27Z</time>
      </trkpt>
      <trkpt lat="49.45294" lon="1.16664">
        <ele>136.3</ele>
        <time>2022-03-27T08:17:28Z</time>
      </trkpt>
      <trkpt lat="49.45297" lon="1.16669">
        <ele>136.4</ele>
        <time>2022-03-27T08:17:29Z</time>
      </trkpt>
      <trkpt lat="49.45297" lon="1.16671">
        <ele>136.4</ele>
        <time>2022-03-27T08:17:30Z</time>
      </trkpt>
      <trkpt lat="49.453" lon="1.16675">
        <ele>136.5</ele>
        <time>2022-03-27T08:17:32Z</time>
      </trkpt>
      <trkpt lat="49.45301" lon="1.16676">
        <ele>136.5</ele>
        <time>2022-03-27T08:17:33Z</time>
      </trkpt>
      <trkpt lat="49.45304" lon="1.1668">
        <ele>136.5</ele>
        <time>2022-03-27T08:17:34Z</time>
      </trkpt>
      <trkpt lat="49.45307" lon="1.16684">
        <ele>136.6</ele>
        <time>2022-03-27T08:17:35Z</time>
      </trkpt>
      <trkpt lat="49.4531" lon="1.16688">
        <ele>136.6</ele>
        <time>2022-03-27T08:17:37Z</time>
      </trkpt>
      <trkpt lat="49.45312" lon="1.16691">
        <ele>136.6</ele>
        <time>2022-03-27T08:17:38Z</time>
      </trkpt>
      <trkpt lat="49.45314" lon="1.16694">
        <ele>136.7</ele>
        <time>2022-03-27T08:17:39Z</time>
      </trkpt>
      <trkpt lat="49.45316" lon="1.16697">
        <ele>136.7</ele>
        <time>2022-03-27T08:17:40Z</time>
      </trkpt>
      <trkpt lat="49.4532" lon="1.16701">
        <ele>136.7</ele>
        <time>2022-03-27T08:17:41Z</time>
      </trkpt>
      <trkpt lat="49.45323" lon="1.16704">
        <ele>136.8</ele>
        <time>2022-03-27T08:17:42Z</time>
      </trkpt>
      <trkpt lat="49.45326" lon="1.16707">
        <ele>136.8</ele>
        <time>2022-03-27T08:17:43Z</time>
      </trkpt>
      <trkpt lat="49.45329" lon="1.1671">
        <ele>136.8</ele>
        <time>2022-03-27T08:17:45Z</time>
      </trkpt>
      <trkpt lat="49.45332" lon="1.16712">
        <ele>136.9</ele>
        <time>2022-03-27T08:17:46Z</time>
      </trkpt>
      <trkpt lat="49.45336" lon="1.16717">
        <ele>136.9</ele>
        <time>2022-03-27T08:17:47Z</time>
      </trkpt>
      <trkpt lat="49.45338" lon="1.16721">
        <ele>137</ele>
        <time>2022-03-27T08:17:48Z</time>
      </trkpt>
      <trkpt lat="49.45341" lon="1.16725">
        <ele>137.1</ele>
        <time>2022-03-27T08:17:49Z</time>
      </trkpt>
      <trkpt lat="49.45344" lon="1.16727">
        <ele>137.1</ele>
        <time>2022-03-27T08:17:50Z</time>
      </trkpt>
      <trkpt lat="49.45348" lon="1.1673">
        <ele>137.2</ele>
        <time>2022-03-27T08:17:52Z</time>
      </trkpt>
      <trkpt lat="49.45351" lon="1.16733">
        <ele>137.3</ele>
        <time>2022-03-27T08:17:53Z</time>
      </trkpt>
      <trkpt lat="49.45353" lon="1.16736">
        <ele>137.3</ele>
        <time>2022-03-27T08:17:54Z</time>
      </trkpt>
      <trkpt lat="49.45358" lon="1.1674">
        <ele>137.5</ele>
        <time>2022-03-27T08:17:55Z</time>
      </trkpt>
      <trkpt lat="49.45362" lon="1.16743">
        <ele>137.5</ele>
        <time>2022-03-27T08:17:57Z</time>
      </trkpt>
      <trkpt lat="49.45365" lon="1.16746">
        <ele>137.6</ele>
        <time>2022-03-27T08:17:58Z</time>
      </trkpt>
      <trkpt lat="49.45367" lon="1.16749">
        <ele>137.7</ele>
        <time>2022-03-27T08:17:59Z</time>
      </trkpt>
      <trkpt lat="49.45371" lon="1.16753">
        <ele>137.8</ele>
        <time>2022-03-27T08:18:00Z</time>
      </trkpt>
      <trkpt lat="49.45373" lon="1.16755">
        <ele>137.9</ele>
        <time>2022-03-27T08:18:01Z</time>
      </trkpt>
      <trkpt lat="49.45375" lon="1.16758">
        <ele>137.9</ele>
        <time>2022-03-27T08:18:02Z</time>
      </trkpt>
      <trkpt lat="49.45378" lon="1.16762">
        <ele>138</ele>
        <time>2022-03-27T08:18:04Z</time>
      </trkpt>
      <trkpt lat="49.4538" lon="1.16766">
        <ele>138</ele>
        <time>2022-03-27T08:18:05Z</time>
      </trkpt>
      <trkpt lat="49.45385" lon="1.16771">
        <ele>138.1</ele>
        <time>2022-03-27T08:18:06Z</time>
      </trkpt>
      <trkpt lat="49.45388" lon="1.16775">
        <ele>138.2</ele>
        <time>2022-03-27T08:18:08Z</time>
      </trkpt>
      <trkpt lat="49.45392" lon="1.1678">
        <ele>138.2</ele>
        <time>2022-03-27T08:18:09Z</time>
      </trkpt>
      <trkpt lat="49.45395" lon="1.16783">
        <ele>138.2</ele>
        <time>2022-03-27T08:18:11Z</time>
      </trkpt>
      <trkpt lat="49.45397" lon="1.16786">
        <ele>138.2</ele>
        <time>2022-03-27T08:18:12Z</time>
      </trkpt>
      <trkpt lat="49.454" lon="1.1679">
        <ele>138.3</ele>
        <time>2022-03-27T08:18:13Z</time>
      </trkpt>
      <trkpt lat="49.45403" lon="1.16793">
        <ele>138.3</ele>
        <time>2022-03-27T08:18:15Z</time>
      </trkpt>
      <trkpt lat="49.45406" lon="1.16798">
        <ele>138.4</ele>
        <time>2022-03-27T08:18:16Z</time>
      </trkpt>
      <trkpt lat="49.45408" lon="1.16801">
        <ele>138.4</ele>
        <time>2022-03-27T08:18:17Z</time>
      </trkpt>
      <trkpt lat="49.45412" lon="1.16808">
        <ele>138.5</ele>
        <time>2022-03-27T08:18:19Z</time>
      </trkpt>
      <trkpt lat="49.45414" lon="1.16811">
        <ele>138.5</ele>
        <time>2022-03-27T08:18:20Z</time>
      </trkpt>
      <trkpt lat="49.45417" lon="1.16815">
        <ele>138.6</ele>
        <time>2022-03-27T08:18:21Z</time>
      </trkpt>
      <trkpt lat="49.4542" lon="1.1682">
        <ele>138.6</ele>
        <time>2022-03-27T08:18:22Z</time>
      </trkpt>
      <trkpt lat="49.45423" lon="1.16826">
        <ele>138.7</ele>
        <time>2022-03-27T08:18:23Z</time>
      </trkpt>
      <trkpt lat="49.45426" lon="1.16832">
        <ele>138.7</ele>
        <time>2022-03-27T08:18:25Z</time>
      </trkpt>
      <trkpt lat="49.45429" lon="1.16838">
        <ele>138.7</ele>
        <time>2022-03-27T08:18:26Z</time>
      </trkpt>
      <trkpt lat="49.45436" lon="1.16851">
        <ele>138.9</ele>
        <time>2022-03-27T08:18:27Z</time>
      </trkpt>
      <trkpt lat="49.45442" lon="1.16862">
        <ele>139</ele>
        <time>2022-03-27T08:18:28Z</time>
      </trkpt>
      <trkpt lat="49.45448" lon="1.16871">
        <ele>139.1</ele>
        <time>2022-03-27T08:18:30Z</time>
      </trkpt>
      <trkpt lat="49.45452" lon="1.16879">
        <ele>139.2</ele>
        <time>2022-03-27T08:18:31Z</time>
      </trkpt>
      <trkpt lat="49.45456" lon="1.16884">
        <ele>139.3</ele>
        <time>2022-03-27T08:18:32Z</time>
      </trkpt>
      <trkpt lat="49.45459" lon="1.1689">
        <ele>139.4</ele>
        <time>2022-03-27T08:18:33Z</time>
      </trkpt>
      <trkpt lat="49.45463" lon="1.16896">
        <ele>139.4</ele>
        <time>2022-03-27T08:18:34Z</time>
      </trkpt>
      <trkpt lat="49.45467" lon="1.169">
        <ele>139.5</ele>
        <time>2022-03-27T08:18:35Z</time>
      </trkpt>
      <trkpt lat="49.4547" lon="1.16904">
        <ele>139.6</ele>
        <time>2022-03-27T08:18:36Z</time>
      </trkpt>
      <trkpt lat="49.45474" lon="1.16907">
        <ele>139.6</ele>
        <time>2022-03-27T08:18:37Z</time>
      </trkpt>
      <trkpt lat="49.45477" lon="1.16911">
        <ele>139.7</ele>
        <time>2022-03-27T08:18:39Z</time>
      </trkpt>
      <trkpt lat="49.45481" lon="1.16915">
        <ele>139.8</ele>
        <time>2022-03-27T08:18:40Z</time>
      </trkpt>
      <trkpt lat="49.45484" lon="1.16919">
        <ele>139.9</ele>
        <time>2022-03-27T08:18:41Z</time>
      </trkpt>
      <trkpt lat="49.45486" lon="1.16922">
        <ele>140</ele>
        <time>2022-03-27T08:18:42Z</time>
      </trkpt>
      <trkpt lat="49.45489" lon="1.16926">
        <ele>140</ele>
        <time>2022-03-27T08:18:43Z</time>
      </trkpt>
      <trkpt lat="49.45492" lon="1.1693">
        <ele>140.1</ele>
        <time>2022-03-27T08:18:44Z</time>
      </trkpt>
      <trkpt lat="49.45494" lon="1.16934">
        <ele>140.2</ele>
        <time>2022-03-27T08:18:45Z</time>
      </trkpt>
      <trkpt lat="49.45496" lon="1.16937">
        <ele>140.3</ele>
        <time>2022-03-27T08:18:46Z</time>
      </trkpt>
      <trkpt lat="49.45499" lon="1.16942">
        <ele>140.3</ele>
        <time>2022-03-27T08:18:47Z</time>
      </trkpt>
      <trkpt lat="49.45502" lon="1.16947">
        <ele>140.4</ele>
        <time>2022-03-27T08:18:48Z</time>
      </trkpt>
      <trkpt lat="49.45504" lon="1.16952">
        <ele>140.5</ele>
        <time>2022-03-27T08:18:50Z</time>
      </trkpt>
      <trkpt lat="49.45509" lon="1.1696">
        <ele>140.6</ele>
        <time>2022-03-27T08:18:51Z</time>
      </trkpt>
      <trkpt lat="49.45512" lon="1.16963">
        <ele>140.7</ele>
        <time>2022-03-27T08:18:53Z</time>
      </trkpt>
      <trkpt lat="49.45515" lon="1.16968">
        <ele>140.7</ele>
        <time>2022-03-27T08:18:54Z</time>
      </trkpt>
      <trkpt lat="49.45518" lon="1.16972">
        <ele>140.8</ele>
        <time>2022-03-27T08:18:55Z</time>
      </trkpt>
      <trkpt lat="49.45521" lon="1.16976">
        <ele>140.9</ele>
        <time>2022-03-27T08:18:57Z</time>
      </trkpt>
      <trkpt lat="49.45526" lon="1.16982">
        <ele>141</ele>
        <time>2022-03-27T08:18:58Z</time>
      </trkpt>
      <trkpt lat="49.45531" lon="1.16987">
        <ele>141.1</ele>
        <time>2022-03-27T08:19:00Z</time>
      </trkpt>
      <trkpt lat="49.45534" lon="1.16991">
        <ele>141.2</ele>
        <time>2022-03-27T08:19:01Z</time>
      </trkpt>
      <trkpt lat="49.45538" lon="1.16995">
        <ele>141.3</ele>
        <time>2022-03-27T08:19:02Z</time>
      </trkpt>
      <trkpt lat="49.45542" lon="1.16999">
        <ele>141.4</ele>
        <time>2022-03-27T08:19:04Z</time>
      </trkpt>
      <trkpt lat="49.4555" lon="1.17006">
        <ele>141.6</ele>
        <time>2022-03-27T08:19:05Z</time>
      </trkpt>
      <trkpt lat="49.45554" lon="1.17009">
        <ele>141.7</ele>
        <time>2022-03-27T08:19:06Z</time>
      </trkpt>
      <trkpt lat="49.45559" lon="1.17013">
        <ele>141.8</ele>
        <time>2022-03-27T08:19:08Z</time>
      </trkpt>
      <trkpt lat="49.45566" lon="1.17019">
        <ele>141.9</ele>
        <time>2022-03-27T08:19:09Z</time>
      </trkpt>
      <trkpt lat="49.4557" lon="1.17023">
        <ele>142</ele>
        <time>2022-03-27T08:19:10Z</time>
      </trkpt>
      <trkpt lat="49.45574" lon="1.17027">
        <ele>142</ele>
        <time>2022-03-27T08:19:12Z</time>
      </trkpt>
      <trkpt lat="49.45577" lon="1.17031">
        <ele>142.1</ele>
        <time>2022-03-27T08:19:13Z</time>
      </trkpt>
      <trkpt lat="49.4558" lon="1.17035">
        <ele>142.2</ele>
        <time>2022-03-27T08:19:14Z</time>
      </trkpt>
      <trkpt lat="49.45584" lon="1.17041">
        <ele>142.3</ele>
        <time>2022-03-27T08:19:15Z</time>
      </trkpt>
      <trkpt lat="49.45588" lon="1.17046">
        <ele>142.4</ele>
        <time>2022-03-27T08:19:16Z</time>
      </trkpt>
      <trkpt lat="49.45592" lon="1.17051">
        <ele>142.5</ele>
        <time>2022-03-27T08:19:18Z</time>
      </trkpt>
      <trkpt lat="49.45595" lon="1.17056">
        <ele>142.5</ele>
        <time>2022-03-27T08:19:19Z</time>
      </trkpt>
      <trkpt lat="49.45599" lon="1.17063">
        <ele>142.7</ele>
        <time>2022-03-27T08:19:20Z</time>
      </trkpt>
      <trkpt lat="49.45601" lon="1.17069">
        <ele>142.7</ele>
        <time>2022-03-27T08:19:22Z</time>
      </trkpt>
      <trkpt lat="49.45603" lon="1.17076">
        <ele>142.9</ele>
        <time>2022-03-27T08:19:23Z</time>
      </trkpt>
      <trkpt lat="49.45605" lon="1.17082">
        <ele>142.9</ele>
        <time>2022-03-27T08:19:24Z</time>
      </trkpt>
      <trkpt lat="49.45607" lon="1.1709">
        <ele>143.1</ele>
        <time>2022-03-27T08:19:25Z</time>
      </trkpt>
      <trkpt lat="49.45611" lon="1.17097">
        <ele>143.2</ele>
        <time>2022-03-27T08:19:26Z</time>
      </trkpt>
      <trkpt lat="49.45614" lon="1.17104">
        <ele>143.3</ele>
        <time>2022-03-27T08:19:27Z</time>
      </trkpt>
      <trkpt lat="49.45617" lon="1.1711">
        <ele>143.4</ele>
        <time>2022-03-27T08:19:28Z</time>
      </trkpt>
      <trkpt lat="49.4562" lon="1.17117">
        <ele>143.5</ele>
        <time>2022-03-27T08:19:29Z</time>
      </trkpt>
      <trkpt lat="49.45623" lon="1.17123">
        <ele>143.6</ele>
        <time>2022-03-27T08:19:31Z</time>
      </trkpt>
      <trkpt lat="49.45626" lon="1.17127">
        <ele>143.6</ele>
        <time>2022-03-27T08:19:32Z</time>
      </trkpt>
      <trkpt lat="49.45629" lon="1.17131">
        <ele>143.7</ele>
        <time>2022-03-27T08:19:33Z</time>
      </trkpt>
      <trkpt lat="49.45631" lon="1.17136">
        <ele>143.7</ele>
        <time>2022-03-27T08:19:34Z</time>
      </trkpt>
      <trkpt lat="49.45634" lon="1.1714">
        <ele>143.8</ele>
        <time>2022-03-27T08:19:35Z</time>
      </trkpt>
      <trkpt lat="49.45637" lon="1.17145">
        <ele>143.8</ele>
        <time>2022-03-27T08:19:36Z</time>
      </trkpt>
      <trkpt lat="49.4564" lon="1.17149">
        <ele>143.9</ele>
        <time>2022-03-27T08:19:37Z</time>
      </trkpt>
      <trkpt lat="49.45643" lon="1.17155">
        <ele>144</ele>
        <time>2022-03-27T08:19:38Z</time>
      </trkpt>
      <trkpt lat="49.45645" lon="1.1716">
        <ele>144</ele>
        <time>2022-03-27T08:19:39Z</time>
      </trkpt>
      <trkpt lat="49.45647" lon="1.17166">
        <ele>144.1</ele>
        <time>2022-03-27T08:19:41Z</time>
      </trkpt>
      <trkpt lat="49.45647" lon="1.1717">
        <ele>144.1</ele>
        <time>2022-03-27T08:19:43Z</time>
      </trkpt>
      <trkpt lat="49.45647" lon="1.17171">
        <ele>144.1</ele>
        <time>2022-03-27T08:19:44Z</time>
      </trkpt>
      <trkpt lat="49.45649" lon="1.17174">
        <ele>144.2</ele>
        <time>2022-03-27T08:19:45Z</time>
      </trkpt>
      <trkpt lat="49.45651" lon="1.17177">
        <ele>144.2</ele>
        <time>2022-03-27T08:19:46Z</time>
      </trkpt>
      <trkpt lat="49.45653" lon="1.17179">
        <ele>144.2</ele>
        <time>2022-03-27T08:19:47Z</time>
      </trkpt>
      <trkpt lat="49.4566" lon="1.17187">
        <ele>144.3</ele>
        <time>2022-03-27T08:19:49Z</time>
      </trkpt>
      <trkpt lat="49.45675" lon="1.17213">
        <ele>144.4</ele>
        <time>2022-03-27T08:19:58Z</time>
      </trkpt>
      <trkpt lat="49.45679" lon="1.17222">
        <ele>144.5</ele>
        <time>2022-03-27T08:19:59Z</time>
      </trkpt>
      <trkpt lat="49.45682" lon="1.17229">
        <ele>144.5</ele>
        <time>2022-03-27T08:20:00Z</time>
      </trkpt>
      <trkpt lat="49.45686" lon="1.17236">
        <ele>144.5</ele>
        <time>2022-03-27T08:20:02Z</time>
      </trkpt>
      <trkpt lat="49.4569" lon="1.17244">
        <ele>144.5</ele>
        <time>2022-03-27T08:20:03Z</time>
      </trkpt>
      <trkpt lat="49.45694" lon="1.17251">
        <ele>144.5</ele>
        <time>2022-03-27T08:20:04Z</time>
      </trkpt>
      <trkpt lat="49.45697" lon="1.17255">
        <ele>144.5</ele>
        <time>2022-03-27T08:20:05Z</time>
      </trkpt>
      <trkpt lat="49.45702" lon="1.17262">
        <ele>144.6</ele>
        <time>2022-03-27T08:20:06Z</time>
      </trkpt>
      <trkpt lat="49.45705" lon="1.17268">
        <ele>144.7</ele>
        <time>2022-03-27T08:20:07Z</time>
      </trkpt>
      <trkpt lat="49.45709" lon="1.17274">
        <ele>144.7</ele>
        <time>2022-03-27T08:20:09Z</time>
      </trkpt>
      <trkpt lat="49.45714" lon="1.17282">
        <ele>144.8</ele>
        <time>2022-03-27T08:20:10Z</time>
      </trkpt>
      <trkpt lat="49.45717" lon="1.17288">
        <ele>144.9</ele>
        <time>2022-03-27T08:20:12Z</time>
      </trkpt>
      <trkpt lat="49.4572" lon="1.17294">
        <ele>144.9</ele>
        <time>2022-03-27T08:20:13Z</time>
      </trkpt>
      <trkpt lat="49.45723" lon="1.17298">
        <ele>144.9</ele>
        <time>2022-03-27T08:20:14Z</time>
      </trkpt>
      <trkpt lat="49.45728" lon="1.17305">
        <ele>145</ele>
        <time>2022-03-27T08:20:15Z</time>
      </trkpt>
      <trkpt lat="49.45731" lon="1.1731">
        <ele>145</ele>
        <time>2022-03-27T08:20:17Z</time>
      </trkpt>
      <trkpt lat="49.45735" lon="1.17316">
        <ele>145.1</ele>
        <time>2022-03-27T08:20:18Z</time>
      </trkpt>
      <trkpt lat="49.45738" lon="1.1732">
        <ele>145.1</ele>
        <time>2022-03-27T08:20:19Z</time>
      </trkpt>
      <trkpt lat="49.4574" lon="1.17322">
        <ele>145.1</ele>
        <time>2022-03-27T08:20:20Z</time>
      </trkpt>
      <trkpt lat="49.45744" lon="1.17326">
        <ele>145.2</ele>
        <time>2022-03-27T08:20:21Z</time>
      </trkpt>
      <trkpt lat="49.45748" lon="1.17331">
        <ele>145.2</ele>
        <time>2022-03-27T08:20:22Z</time>
      </trkpt>
      <trkpt lat="49.45752" lon="1.17335">
        <ele>145.3</ele>
        <time>2022-03-27T08:20:23Z</time>
      </trkpt>
      <trkpt lat="49.45756" lon="1.1734">
        <ele>145.3</ele>
        <time>2022-03-27T08:20:25Z</time>
      </trkpt>
      <trkpt lat="49.4576" lon="1.17345">
        <ele>145.4</ele>
        <time>2022-03-27T08:20:26Z</time>
      </trkpt>
      <trkpt lat="49.45765" lon="1.17351">
        <ele>145.5</ele>
        <time>2022-03-27T08:20:27Z</time>
      </trkpt>
      <trkpt lat="49.45768" lon="1.17356">
        <ele>145.5</ele>
        <time>2022-03-27T08:20:28Z</time>
      </trkpt>
      <trkpt lat="49.45771" lon="1.17359">
        <ele>145.6</ele>
        <time>2022-03-27T08:20:29Z</time>
      </trkpt>
      <trkpt lat="49.45775" lon="1.17365">
        <ele>145.6</ele>
        <time>2022-03-27T08:20:31Z</time>
      </trkpt>
      <trkpt lat="49.45779" lon="1.17369">
        <ele>145.7</ele>
        <time>2022-03-27T08:20:32Z</time>
      </trkpt>
      <trkpt lat="49.45781" lon="1.17372">
        <ele>145.7</ele>
        <time>2022-03-27T08:20:33Z</time>
      </trkpt>
      <trkpt lat="49.45784" lon="1.17376">
        <ele>145.8</ele>
        <time>2022-03-27T08:20:34Z</time>
      </trkpt>
      <trkpt lat="49.45786" lon="1.17381">
        <ele>145.9</ele>
        <time>2022-03-27T08:20:35Z</time>
      </trkpt>
      <trkpt lat="49.45789" lon="1.17385">
        <ele>145.9</ele>
        <time>2022-03-27T08:20:37Z</time>
      </trkpt>
      <trkpt lat="49.45792" lon="1.1739">
        <ele>146</ele>
        <time>2022-03-27T08:20:38Z</time>
      </trkpt>
      <trkpt lat="49.45794" lon="1.17393">
        <ele>146</ele>
        <time>2022-03-27T08:20:39Z</time>
      </trkpt>
      <trkpt lat="49.45796" lon="1.17399">
        <ele>146.1</ele>
        <time>2022-03-27T08:20:40Z</time>
      </trkpt>
      <trkpt lat="49.45799" lon="1.17403">
        <ele>146.1</ele>
        <time>2022-03-27T08:20:42Z</time>
      </trkpt>
      <trkpt lat="49.45801" lon="1.17409">
        <ele>146.2</ele>
        <time>2022-03-27T08:20:43Z</time>
      </trkpt>
      <trkpt lat="49.45805" lon="1.17415">
        <ele>146.2</ele>
        <time>2022-03-27T08:20:44Z</time>
      </trkpt>
      <trkpt lat="49.45806" lon="1.17418">
        <ele>146.3</ele>
        <time>2022-03-27T08:20:45Z</time>
      </trkpt>
      <trkpt lat="49.45809" lon="1.17423">
        <ele>146.3</ele>
        <time>2022-03-27T08:20:47Z</time>
      </trkpt>
      <trkpt lat="49.4581" lon="1.17424">
        <ele>146.3</ele>
        <time>2022-03-27T08:20:48Z</time>
      </trkpt>
      <trkpt lat="49.45814" lon="1.17433">
        <ele>146.4</ele>
        <time>2022-03-27T08:20:49Z</time>
      </trkpt>
      <trkpt lat="49.45819" lon="1.17443">
        <ele>146.5</ele>
        <time>2022-03-27T08:20:51Z</time>
      </trkpt>
      <trkpt lat="49.45822" lon="1.17451">
        <ele>146.6</ele>
        <time>2022-03-27T08:20:52Z</time>
      </trkpt>
      <trkpt lat="49.45825" lon="1.17456">
        <ele>146.7</ele>
        <time>2022-03-27T08:20:53Z</time>
      </trkpt>
      <trkpt lat="49.45831" lon="1.17466">
        <ele>146.8</ele>
        <time>2022-03-27T08:20:55Z</time>
      </trkpt>
      <trkpt lat="49.45835" lon="1.17473">
        <ele>146.9</ele>
        <time>2022-03-27T08:20:57Z</time>
      </trkpt>
      <trkpt lat="49.45838" lon="1.17478">
        <ele>147</ele>
        <time>2022-03-27T08:20:58Z</time>
      </trkpt>
      <trkpt lat="49.45844" lon="1.17487">
        <ele>147.1</ele>
        <time>2022-03-27T08:20:59Z</time>
      </trkpt>
      <trkpt lat="49.45848" lon="1.17493">
        <ele>147.2</ele>
        <time>2022-03-27T08:21:00Z</time>
      </trkpt>
      <trkpt lat="49.45852" lon="1.17499">
        <ele>147.3</ele>
        <time>2022-03-27T08:21:02Z</time>
      </trkpt>
      <trkpt lat="49.45858" lon="1.17506">
        <ele>147.4</ele>
        <time>2022-03-27T08:21:03Z</time>
      </trkpt>
      <trkpt lat="49.45862" lon="1.17511">
        <ele>147.4</ele>
        <time>2022-03-27T08:21:05Z</time>
      </trkpt>
      <trkpt lat="49.45864" lon="1.17514">
        <ele>147.4</ele>
        <time>2022-03-27T08:21:06Z</time>
      </trkpt>
      <trkpt lat="49.45867" lon="1.17518">
        <ele>147.5</ele>
        <time>2022-03-27T08:21:07Z</time>
      </trkpt>
      <trkpt lat="49.4587" lon="1.17524">
        <ele>147.5</ele>
        <time>2022-03-27T08:21:09Z</time>
      </trkpt>
      <trkpt lat="49.45873" lon="1.17529">
        <ele>147.5</ele>
        <time>2022-03-27T08:21:10Z</time>
      </trkpt>
      <trkpt lat="49.45876" lon="1.17533">
        <ele>147.6</ele>
        <time>2022-03-27T08:21:11Z</time>
      </trkpt>
      <trkpt lat="49.45879" lon="1.17537">
        <ele>147.6</ele>
        <time>2022-03-27T08:21:12Z</time>
      </trkpt>
      <trkpt lat="49.45881" lon="1.1754">
        <ele>147.6</ele>
        <time>2022-03-27T08:21:13Z</time>
      </trkpt>
      <trkpt lat="49.45884" lon="1.17544">
        <ele>147.6</ele>
        <time>2022-03-27T08:21:14Z</time>
      </trkpt>
      <trkpt lat="49.45891" lon="1.17553">
        <ele>147.7</ele>
        <time>2022-03-27T08:21:16Z</time>
      </trkpt>
      <trkpt lat="49.45898" lon="1.17563">
        <ele>147.7</ele>
        <time>2022-03-27T08:21:17Z</time>
      </trkpt>
      <trkpt lat="49.45909" lon="1.17579">
        <ele>147.9</ele>
        <time>2022-03-27T08:21:18Z</time>
      </trkpt>
      <trkpt lat="49.45917" lon="1.1759">
        <ele>148</ele>
        <time>2022-03-27T08:21:19Z</time>
      </trkpt>
      <trkpt lat="49.45924" lon="1.17599">
        <ele>148.1</ele>
        <time>2022-03-27T08:21:21Z</time>
      </trkpt>
      <trkpt lat="49.45928" lon="1.17605">
        <ele>148.1</ele>
        <time>2022-03-27T08:21:22Z</time>
      </trkpt>
      <trkpt lat="49.45932" lon="1.17611">
        <ele>148.2</ele>
        <time>2022-03-27T08:21:23Z</time>
      </trkpt>
      <trkpt lat="49.45935" lon="1.17615">
        <ele>148.2</ele>
        <time>2022-03-27T08:21:24Z</time>
      </trkpt>
      <trkpt lat="49.45938" lon="1.1762">
        <ele>148.3</ele>
        <time>2022-03-27T08:21:25Z</time>
      </trkpt>
      <trkpt lat="49.45942" lon="1.17625">
        <ele>148.3</ele>
        <time>2022-03-27T08:21:26Z</time>
      </trkpt>
      <trkpt lat="49.45945" lon="1.17631">
        <ele>148.3</ele>
        <time>2022-03-27T08:21:27Z</time>
      </trkpt>
      <trkpt lat="49.45948" lon="1.17637">
        <ele>148.3</ele>
        <time>2022-03-27T08:21:28Z</time>
      </trkpt>
      <trkpt lat="49.45952" lon="1.17644">
        <ele>148.3</ele>
        <time>2022-03-27T08:21:29Z</time>
      </trkpt>
      <trkpt lat="49.45957" lon="1.17652">
        <ele>148.4</ele>
        <time>2022-03-27T08:21:30Z</time>
      </trkpt>
      <trkpt lat="49.45961" lon="1.17657">
        <ele>148.4</ele>
        <time>2022-03-27T08:21:31Z</time>
      </trkpt>
      <trkpt lat="49.45965" lon="1.17662">
        <ele>148.4</ele>
        <time>2022-03-27T08:21:33Z</time>
      </trkpt>
      <trkpt lat="49.45969" lon="1.17666">
        <ele>148.5</ele>
        <time>2022-03-27T08:21:34Z</time>
      </trkpt>
      <trkpt lat="49.45974" lon="1.17671">
        <ele>148.5</ele>
        <time>2022-03-27T08:21:35Z</time>
      </trkpt>
      <trkpt lat="49.45978" lon="1.17677">
        <ele>148.5</ele>
        <time>2022-03-27T08:21:36Z</time>
      </trkpt>
      <trkpt lat="49.45986" lon="1.17688">
        <ele>148.5</ele>
        <time>2022-03-27T08:21:38Z</time>
      </trkpt>
      <trkpt lat="49.4599" lon="1.17692">
        <ele>148.6</ele>
        <time>2022-03-27T08:21:40Z</time>
      </trkpt>
      <trkpt lat="49.45994" lon="1.17699">
        <ele>148.6</ele>
        <time>2022-03-27T08:21:41Z</time>
      </trkpt>
      <trkpt lat="49.45996" lon="1.17703">
        <ele>148.6</ele>
        <time>2022-03-27T08:21:42Z</time>
      </trkpt>
      <trkpt lat="49.46" lon="1.17709">
        <ele>148.6</ele>
        <time>2022-03-27T08:21:43Z</time>
      </trkpt>
      <trkpt lat="49.46004" lon="1.17715">
        <ele>148.6</ele>
        <time>2022-03-27T08:21:44Z</time>
      </trkpt>
      <trkpt lat="49.46009" lon="1.17722">
        <ele>148.6</ele>
        <time>2022-03-27T08:21:46Z</time>
      </trkpt>
      <trkpt lat="49.46013" lon="1.17729">
        <ele>148.6</ele>
        <time>2022-03-27T08:21:47Z</time>
      </trkpt>
      <trkpt lat="49.4602" lon="1.17738">
        <ele>148.6</ele>
        <time>2022-03-27T08:21:49Z</time>
      </trkpt>
      <trkpt lat="49.46023" lon="1.17743">
        <ele>148.6</ele>
        <time>2022-03-27T08:21:51Z</time>
      </trkpt>
      <trkpt lat="49.46028" lon="1.1775">
        <ele>148.6</ele>
        <time>2022-03-27T08:21:52Z</time>
      </trkpt>
      <trkpt lat="49.46031" lon="1.17756">
        <ele>148.7</ele>
        <time>2022-03-27T08:21:53Z</time>
      </trkpt>
      <trkpt lat="49.46035" lon="1.1776">
        <ele>148.7</ele>
        <time>2022-03-27T08:21:55Z</time>
      </trkpt>
      <trkpt lat="49.46038" lon="1.17765">
        <ele>148.7</ele>
        <time>2022-03-27T08:21:56Z</time>
      </trkpt>
      <trkpt lat="49.46041" lon="1.17769">
        <ele>148.7</ele>
        <time>2022-03-27T08:21:57Z</time>
      </trkpt>
      <trkpt lat="49.46045" lon="1.17775">
        <ele>148.8</ele>
        <time>2022-03-27T08:21:58Z</time>
      </trkpt>
      <trkpt lat="49.46049" lon="1.1778">
        <ele>148.8</ele>
        <time>2022-03-27T08:22:00Z</time>
      </trkpt>
      <trkpt lat="49.46055" lon="1.17788">
        <ele>148.9</ele>
        <time>2022-03-27T08:22:01Z</time>
      </trkpt>
      <trkpt lat="49.46058" lon="1.17793">
        <ele>148.9</ele>
        <time>2022-03-27T08:22:02Z</time>
      </trkpt>
      <trkpt lat="49.46063" lon="1.17797">
        <ele>148.9</ele>
        <time>2022-03-27T08:22:04Z</time>
      </trkpt>
      <trkpt lat="49.46067" lon="1.17803">
        <ele>149</ele>
        <time>2022-03-27T08:22:05Z</time>
      </trkpt>
      <trkpt lat="49.4607" lon="1.17806">
        <ele>149.1</ele>
        <time>2022-03-27T08:22:06Z</time>
      </trkpt>
      <trkpt lat="49.46075" lon="1.17813">
        <ele>149.1</ele>
        <time>2022-03-27T08:22:08Z</time>
      </trkpt>
      <trkpt lat="49.46078" lon="1.17817">
        <ele>149.2</ele>
        <time>2022-03-27T08:22:09Z</time>
      </trkpt>
      <trkpt lat="49.46081" lon="1.1782">
        <ele>149.2</ele>
        <time>2022-03-27T08:22:10Z</time>
      </trkpt>
      <trkpt lat="49.46087" lon="1.17829">
        <ele>149.3</ele>
        <time>2022-03-27T08:22:11Z</time>
      </trkpt>
      <trkpt lat="49.4609" lon="1.17833">
        <ele>149.4</ele>
        <time>2022-03-27T08:22:13Z</time>
      </trkpt>
      <trkpt lat="49.46093" lon="1.17838">
        <ele>149.4</ele>
        <time>2022-03-27T08:22:14Z</time>
      </trkpt>
      <trkpt lat="49.46096" lon="1.17842">
        <ele>149.5</ele>
        <time>2022-03-27T08:22:15Z</time>
      </trkpt>
      <trkpt lat="49.461" lon="1.17847">
        <ele>149.6</ele>
        <time>2022-03-27T08:22:16Z</time>
      </trkpt>
      <trkpt lat="49.46104" lon="1.17853">
        <ele>149.7</ele>
        <time>2022-03-27T08:22:17Z</time>
      </trkpt>
      <trkpt lat="49.46107" lon="1.17858">
        <ele>149.8</ele>
        <time>2022-03-27T08:22:19Z</time>
      </trkpt>
      <trkpt lat="49.4611" lon="1.17861">
        <ele>149.9</ele>
        <time>2022-03-27T08:22:20Z</time>
      </trkpt>
      <trkpt lat="49.46113" lon="1.17865">
        <ele>150</ele>
        <time>2022-03-27T08:22:21Z</time>
      </trkpt>
      <trkpt lat="49.46116" lon="1.1787">
        <ele>150.1</ele>
        <time>2022-03-27T08:22:22Z</time>
      </trkpt>
      <trkpt lat="49.4612" lon="1.17875">
        <ele>150.2</ele>
        <time>2022-03-27T08:22:23Z</time>
      </trkpt>
      <trkpt lat="49.46124" lon="1.17879">
        <ele>150.3</ele>
        <time>2022-03-27T08:22:25Z</time>
      </trkpt>
      <trkpt lat="49.46128" lon="1.17884">
        <ele>150.3</ele>
        <time>2022-03-27T08:22:26Z</time>
      </trkpt>
      <trkpt lat="49.46131" lon="1.17888">
        <ele>150.4</ele>
        <time>2022-03-27T08:22:27Z</time>
      </trkpt>
      <trkpt lat="49.46135" lon="1.17894">
        <ele>150.5</ele>
        <time>2022-03-27T08:22:28Z</time>
      </trkpt>
      <trkpt lat="49.46141" lon="1.17903">
        <ele>150.6</ele>
        <time>2022-03-27T08:22:30Z</time>
      </trkpt>
      <trkpt lat="49.46144" lon="1.17907">
        <ele>150.7</ele>
        <time>2022-03-27T08:22:31Z</time>
      </trkpt>
      <trkpt lat="49.46147" lon="1.17911">
        <ele>150.7</ele>
        <time>2022-03-27T08:22:32Z</time>
      </trkpt>
      <trkpt lat="49.4615" lon="1.17915">
        <ele>150.8</ele>
        <time>2022-03-27T08:22:33Z</time>
      </trkpt>
      <trkpt lat="49.46153" lon="1.1792">
        <ele>150.9</ele>
        <time>2022-03-27T08:22:35Z</time>
      </trkpt>
      <trkpt lat="49.46156" lon="1.17924">
        <ele>150.9</ele>
        <time>2022-03-27T08:22:36Z</time>
      </trkpt>
      <trkpt lat="49.46159" lon="1.17928">
        <ele>151</ele>
        <time>2022-03-27T08:22:37Z</time>
      </trkpt>
      <trkpt lat="49.46162" lon="1.17932">
        <ele>151.1</ele>
        <time>2022-03-27T08:22:38Z</time>
      </trkpt>
      <trkpt lat="49.46165" lon="1.17937">
        <ele>151.1</ele>
        <time>2022-03-27T08:22:39Z</time>
      </trkpt>
      <trkpt lat="49.4617" lon="1.17943">
        <ele>151.2</ele>
        <time>2022-03-27T08:22:40Z</time>
      </trkpt>
      <trkpt lat="49.46173" lon="1.17948">
        <ele>151.3</ele>
        <time>2022-03-27T08:22:42Z</time>
      </trkpt>
      <trkpt lat="49.46176" lon="1.17953">
        <ele>151.3</ele>
        <time>2022-03-27T08:22:43Z</time>
      </trkpt>
      <trkpt lat="49.46179" lon="1.17957">
        <ele>151.4</ele>
        <time>2022-03-27T08:22:44Z</time>
      </trkpt>
      <trkpt lat="49.46182" lon="1.1796">
        <ele>151.4</ele>
        <time>2022-03-27T08:22:45Z</time>
      </trkpt>
      <trkpt lat="49.46187" lon="1.17967">
        <ele>151.5</ele>
        <time>2022-03-27T08:22:46Z</time>
      </trkpt>
      <trkpt lat="49.46191" lon="1.17971">
        <ele>151.5</ele>
        <time>2022-03-27T08:22:47Z</time>
      </trkpt>
      <trkpt lat="49.46193" lon="1.17975">
        <ele>151.5</ele>
        <time>2022-03-27T08:22:48Z</time>
      </trkpt>
      <trkpt lat="49.46196" lon="1.1798">
        <ele>151.6</ele>
        <time>2022-03-27T08:22:50Z</time>
      </trkpt>
      <trkpt lat="49.46199" lon="1.17984">
        <ele>151.6</ele>
        <time>2022-03-27T08:22:51Z</time>
      </trkpt>
      <trkpt lat="49.46204" lon="1.17989">
        <ele>151.7</ele>
        <time>2022-03-27T08:22:52Z</time>
      </trkpt>
      <trkpt lat="49.46208" lon="1.17995">
        <ele>151.7</ele>
        <time>2022-03-27T08:22:54Z</time>
      </trkpt>
      <trkpt lat="49.46211" lon="1.17999">
        <ele>151.8</ele>
        <time>2022-03-27T08:22:55Z</time>
      </trkpt>
      <trkpt lat="49.46216" lon="1.18005">
        <ele>151.9</ele>
        <time>2022-03-27T08:22:56Z</time>
      </trkpt>
      <trkpt lat="49.46221" lon="1.1801">
        <ele>151.9</ele>
        <time>2022-03-27T08:22:57Z</time>
      </trkpt>
      <trkpt lat="49.46224" lon="1.18016">
        <ele>152</ele>
        <time>2022-03-27T08:22:59Z</time>
      </trkpt>
      <trkpt lat="49.46228" lon="1.18022">
        <ele>152</ele>
        <time>2022-03-27T08:23:00Z</time>
      </trkpt>
      <trkpt lat="49.46231" lon="1.18026">
        <ele>152.1</ele>
        <time>2022-03-27T08:23:02Z</time>
      </trkpt>
      <trkpt lat="49.46233" lon="1.1803">
        <ele>152.1</ele>
        <time>2022-03-27T08:23:03Z</time>
      </trkpt>
      <trkpt lat="49.46237" lon="1.18037">
        <ele>152.1</ele>
        <time>2022-03-27T08:23:04Z</time>
      </trkpt>
      <trkpt lat="49.4624" lon="1.18042">
        <ele>152.2</ele>
        <time>2022-03-27T08:23:06Z</time>
      </trkpt>
      <trkpt lat="49.46243" lon="1.18047">
        <ele>152.2</ele>
        <time>2022-03-27T08:23:07Z</time>
      </trkpt>
      <trkpt lat="49.46247" lon="1.18052">
        <ele>152.3</ele>
        <time>2022-03-27T08:23:08Z</time>
      </trkpt>
      <trkpt lat="49.46252" lon="1.18058">
        <ele>152.4</ele>
        <time>2022-03-27T08:23:09Z</time>
      </trkpt>
      <trkpt lat="49.46256" lon="1.18063">
        <ele>152.4</ele>
        <time>2022-03-27T08:23:11Z</time>
      </trkpt>
      <trkpt lat="49.46261" lon="1.18069">
        <ele>152.5</ele>
        <time>2022-03-27T08:23:12Z</time>
      </trkpt>
      <trkpt lat="49.46264" lon="1.18073">
        <ele>152.6</ele>
        <time>2022-03-27T08:23:14Z</time>
      </trkpt>
      <trkpt lat="49.46268" lon="1.18077">
        <ele>152.6</ele>
        <time>2022-03-27T08:23:15Z</time>
      </trkpt>
      <trkpt lat="49.46271" lon="1.18081">
        <ele>152.7</ele>
        <time>2022-03-27T08:23:16Z</time>
      </trkpt>
      <trkpt lat="49.46275" lon="1.18085">
        <ele>152.8</ele>
        <time>2022-03-27T08:23:17Z</time>
      </trkpt>
      <trkpt lat="49.4628" lon="1.1809">
        <ele>152.9</ele>
        <time>2022-03-27T08:23:18Z</time>
      </trkpt>
      <trkpt lat="49.46283" lon="1.18094">
        <ele>152.9</ele>
        <time>2022-03-27T08:23:20Z</time>
      </trkpt>
      <trkpt lat="49.46289" lon="1.181">
        <ele>153</ele>
        <time>2022-03-27T08:23:21Z</time>
      </trkpt>
      <trkpt lat="49.46294" lon="1.18105">
        <ele>153.1</ele>
        <time>2022-03-27T08:23:23Z</time>
      </trkpt>
      <trkpt lat="49.46298" lon="1.18108">
        <ele>153.2</ele>
        <time>2022-03-27T08:23:25Z</time>
      </trkpt>
      <trkpt lat="49.46303" lon="1.18113">
        <ele>153.3</ele>
        <time>2022-03-27T08:23:26Z</time>
      </trkpt>
      <trkpt lat="49.46307" lon="1.18116">
        <ele>153.4</ele>
        <time>2022-03-27T08:23:28Z</time>
      </trkpt>
      <trkpt lat="49.46309" lon="1.18119">
        <ele>153.4</ele>
        <time>2022-03-27T08:23:29Z</time>
      </trkpt>
      <trkpt lat="49.46312" lon="1.18121">
        <ele>153.5</ele>
        <time>2022-03-27T08:23:30Z</time>
      </trkpt>
      <trkpt lat="49.46315" lon="1.18123">
        <ele>153.6</ele>
        <time>2022-03-27T08:23:31Z</time>
      </trkpt>
      <trkpt lat="49.46319" lon="1.18127">
        <ele>153.7</ele>
        <time>2022-03-27T08:23:32Z</time>
      </trkpt>
      <trkpt lat="49.46322" lon="1.18129">
        <ele>153.8</ele>
        <time>2022-03-27T08:23:33Z</time>
      </trkpt>
      <trkpt lat="49.46325" lon="1.18131">
        <ele>153.9</ele>
        <time>2022-03-27T08:23:34Z</time>
      </trkpt>
      <trkpt lat="49.4633" lon="1.18134">
        <ele>154</ele>
        <time>2022-03-27T08:23:36Z</time>
      </trkpt>
      <trkpt lat="49.46331" lon="1.18134">
        <ele>154.1</ele>
        <time>2022-03-27T08:23:37Z</time>
      </trkpt>
      <trkpt lat="49.46333" lon="1.18135">
        <ele>154.1</ele>
        <time>2022-03-27T08:23:38Z</time>
      </trkpt>
      <trkpt lat="49.46337" lon="1.18137">
        <ele>154.2</ele>
        <time>2022-03-27T08:23:39Z</time>
      </trkpt>
      <trkpt lat="49.46342" lon="1.18138">
        <ele>154.4</ele>
        <time>2022-03-27T08:23:40Z</time>
      </trkpt>
      <trkpt lat="49.46345" lon="1.18139">
        <ele>154.5</ele>
        <time>2022-03-27T08:23:42Z</time>
      </trkpt>
      <trkpt lat="49.46347" lon="1.1814">
        <ele>154.6</ele>
        <time>2022-03-27T08:23:43Z</time>
      </trkpt>
      <trkpt lat="49.46347" lon="1.1814">
        <ele>154.6</ele>
        <time>2022-03-27T08:23:44Z</time>
      </trkpt>
      <trkpt lat="49.46348" lon="1.1814">
        <ele>154.6</ele>
        <time>2022-03-27T08:23:45Z</time>
      </trkpt>
      <trkpt lat="49.4635" lon="1.1814">
        <ele>154.7</ele>
        <time>2022-03-27T08:23:47Z</time>
      </trkpt>
      <trkpt lat="49.46352" lon="1.18141">
        <ele>154.7</ele>
        <time>2022-03-27T08:23:48Z</time>
      </trkpt>
      <trkpt lat="49.46354" lon="1.18141">
        <ele>154.8</ele>
        <time>2022-03-27T08:23:49Z</time>
      </trkpt>
      <trkpt lat="49.46356" lon="1.18142">
        <ele>154.9</ele>
        <time>2022-03-27T08:23:50Z</time>
      </trkpt>
      <trkpt lat="49.46358" lon="1.18142">
        <ele>155</ele>
        <time>2022-03-27T08:23:51Z</time>
      </trkpt>
      <trkpt lat="49.46365" lon="1.18143">
        <ele>155.2</ele>
        <time>2022-03-27T08:23:53Z</time>
      </trkpt>
      <trkpt lat="49.46372" lon="1.18143">
        <ele>155.6</ele>
        <time>2022-03-27T08:23:58Z</time>
      </trkpt>
      <trkpt lat="49.46375" lon="1.18143">
        <ele>155.7</ele>
        <time>2022-03-27T08:23:59Z</time>
      </trkpt>
      <trkpt lat="49.46384" lon="1.18144">
        <ele>156.1</ele>
        <time>2022-03-27T08:24:01Z</time>
      </trkpt>
      <trkpt lat="49.46388" lon="1.18143">
        <ele>156.3</ele>
        <time>2022-03-27T08:24:02Z</time>
      </trkpt>
      <trkpt lat="49.46391" lon="1.1814">
        <ele>157</ele>
        <time>2022-03-27T08:24:03Z</time>
      </trkpt>
      <trkpt lat="49.46393" lon="1.18139">
        <ele>157</ele>
        <time>2022-03-27T08:24:04Z</time>
      </trkpt>
      <trkpt lat="49.46395" lon="1.18136">
        <ele>157</ele>
        <time>2022-03-27T08:24:05Z</time>
      </trkpt>
      <trkpt lat="49.46397" lon="1.18132">
        <ele>156.9</ele>
        <time>2022-03-27T08:24:06Z</time>
      </trkpt>
      <trkpt lat="49.46398" lon="1.18128">
        <ele>156.9</ele>
        <time>2022-03-27T08:24:07Z</time>
      </trkpt>
      <trkpt lat="49.46399" lon="1.18123">
        <ele>156.9</ele>
        <time>2022-03-27T08:24:08Z</time>
      </trkpt>
      <trkpt lat="49.46399" lon="1.18119">
        <ele>156.9</ele>
        <time>2022-03-27T08:24:09Z</time>
      </trkpt>
      <trkpt lat="49.46399" lon="1.18114">
        <ele>156.9</ele>
        <time>2022-03-27T08:24:11Z</time>
      </trkpt>
      <trkpt lat="49.464" lon="1.1811">
        <ele>156.9</ele>
        <time>2022-03-27T08:24:12Z</time>
      </trkpt>
      <trkpt lat="49.464" lon="1.18104">
        <ele>156.9</ele>
        <time>2022-03-27T08:24:13Z</time>
      </trkpt>
      <trkpt lat="49.464" lon="1.18102">
        <ele>156.9</ele>
        <time>2022-03-27T08:24:14Z</time>
      </trkpt>
      <trkpt lat="49.46401" lon="1.18097">
        <ele>156.9</ele>
        <time>2022-03-27T08:24:15Z</time>
      </trkpt>
      <trkpt lat="49.46401" lon="1.18095">
        <ele>156.9</ele>
        <time>2022-03-27T08:24:16Z</time>
      </trkpt>
      <trkpt lat="49.464" lon="1.1809">
        <ele>156.9</ele>
        <time>2022-03-27T08:24:17Z</time>
      </trkpt>
      <trkpt lat="49.46399" lon="1.18086">
        <ele>156.9</ele>
        <time>2022-03-27T08:24:18Z</time>
      </trkpt>
      <trkpt lat="49.46398" lon="1.18074">
        <ele>156.9</ele>
        <time>2022-03-27T08:24:19Z</time>
      </trkpt>
      <trkpt lat="49.46398" lon="1.18069">
        <ele>156.9</ele>
        <time>2022-03-27T08:24:21Z</time>
      </trkpt>
      <trkpt lat="49.464" lon="1.18065">
        <ele>156.9</ele>
        <time>2022-03-27T08:24:22Z</time>
      </trkpt>
      <trkpt lat="49.464" lon="1.18064">
        <ele>156.9</ele>
        <time>2022-03-27T08:24:23Z</time>
      </trkpt>
      <trkpt lat="49.46401" lon="1.18062">
        <ele>156.9</ele>
        <time>2022-03-27T08:24:24Z</time>
      </trkpt>
      <trkpt lat="49.46403" lon="1.18061">
        <ele>156.9</ele>
        <time>2022-03-27T08:24:25Z</time>
      </trkpt>
      <trkpt lat="49.46405" lon="1.18058">
        <ele>157.1</ele>
        <time>2022-03-27T08:24:26Z</time>
      </trkpt>
      <trkpt lat="49.46407" lon="1.18057">
        <ele>157.2</ele>
        <time>2022-03-27T08:24:28Z</time>
      </trkpt>
      <trkpt lat="49.46408" lon="1.18056">
        <ele>157.2</ele>
        <time>2022-03-27T08:24:29Z</time>
      </trkpt>
      <trkpt lat="49.46412" lon="1.18055">
        <ele>157.4</ele>
        <time>2022-03-27T08:24:30Z</time>
      </trkpt>
      <trkpt lat="49.46414" lon="1.18054">
        <ele>157.5</ele>
        <time>2022-03-27T08:24:31Z</time>
      </trkpt>
      <trkpt lat="49.46418" lon="1.18055">
        <ele>157.6</ele>
        <time>2022-03-27T08:24:34Z</time>
      </trkpt>
      <trkpt lat="49.46422" lon="1.18057">
        <ele>157.8</ele>
        <time>2022-03-27T08:24:35Z</time>
      </trkpt>
      <trkpt lat="49.46423" lon="1.18057">
        <ele>157.9</ele>
        <time>2022-03-27T08:24:36Z</time>
      </trkpt>
      <trkpt lat="49.46427" lon="1.18059">
        <ele>158</ele>
        <time>2022-03-27T08:24:37Z</time>
      </trkpt>
      <trkpt lat="49.46428" lon="1.18059">
        <ele>158</ele>
        <time>2022-03-27T08:24:38Z</time>
      </trkpt>
      <trkpt lat="49.46431" lon="1.18061">
        <ele>158.2</ele>
        <time>2022-03-27T08:24:39Z</time>
      </trkpt>
      <trkpt lat="49.46436" lon="1.18062">
        <ele>158.3</ele>
        <time>2022-03-27T08:24:40Z</time>
      </trkpt>
      <trkpt lat="49.46439" lon="1.18063">
        <ele>158.3</ele>
        <time>2022-03-27T08:24:41Z</time>
      </trkpt>
      <trkpt lat="49.46441" lon="1.18064">
        <ele>158.4</ele>
        <time>2022-03-27T08:24:42Z</time>
      </trkpt>
      <trkpt lat="49.46442" lon="1.18064">
        <ele>158.4</ele>
        <time>2022-03-27T08:24:43Z</time>
      </trkpt>
      <trkpt lat="49.46442" lon="1.18064">
        <ele>158.4</ele>
        <time>2022-03-27T08:24:45Z</time>
      </trkpt>
      <trkpt lat="49.46443" lon="1.18064">
        <ele>158.4</ele>
        <time>2022-03-27T08:24:46Z</time>
      </trkpt>
      <trkpt lat="49.46444" lon="1.18065">
        <ele>158.5</ele>
        <time>2022-03-27T08:24:47Z</time>
      </trkpt>
      <trkpt lat="49.46445" lon="1.18065">
        <ele>158.5</ele>
        <time>2022-03-27T08:24:49Z</time>
      </trkpt>
      <trkpt lat="49.46446" lon="1.18065">
        <ele>158.5</ele>
        <time>2022-03-27T08:24:51Z</time>
      </trkpt>
      <trkpt lat="49.46446" lon="1.18065">
        <ele>158.5</ele>
        <time>2022-03-27T08:24:52Z</time>
      </trkpt>
      <trkpt lat="49.46447" lon="1.18065">
        <ele>158.5</ele>
        <time>2022-03-27T08:24:54Z</time>
      </trkpt>
      <trkpt lat="49.46448" lon="1.18066">
        <ele>158.5</ele>
        <time>2022-03-27T08:25:02Z</time>
      </trkpt>
      <trkpt lat="49.46449" lon="1.18066">
        <ele>158.6</ele>
        <time>2022-03-27T08:25:03Z</time>
      </trkpt>
      <trkpt lat="49.46449" lon="1.18066">
        <ele>158.6</ele>
        <time>2022-03-27T08:25:04Z</time>
      </trkpt>
      <trkpt lat="49.4645" lon="1.18066">
        <ele>158.6</ele>
        <time>2022-03-27T08:25:05Z</time>
      </trkpt>
      <trkpt lat="49.46451" lon="1.18066">
        <ele>158.6</ele>
        <time>2022-03-27T08:25:06Z</time>
      </trkpt>
      <trkpt lat="49.46452" lon="1.18067">
        <ele>158.6</ele>
        <time>2022-03-27T08:25:08Z</time>
      </trkpt>
      <trkpt lat="49.46452" lon="1.18067">
        <ele>158.6</ele>
        <time>2022-03-27T08:25:09Z</time>
      </trkpt>
      <trkpt lat="49.46453" lon="1.18067">
        <ele>158.6</ele>
        <time>2022-03-27T08:25:10Z</time>
      </trkpt>
      <trkpt lat="49.46454" lon="1.18067">
        <ele>158.7</ele>
        <time>2022-03-27T08:25:11Z</time>
      </trkpt>
      <trkpt lat="49.46455" lon="1.18067">
        <ele>158.7</ele>
        <time>2022-03-27T08:25:13Z</time>
      </trkpt>
      <trkpt lat="49.46456" lon="1.18068">
        <ele>158.7</ele>
        <time>2022-03-27T08:25:14Z</time>
      </trkpt>
      <trkpt lat="49.46456" lon="1.18068">
        <ele>158.7</ele>
        <time>2022-03-27T08:25:15Z</time>
      </trkpt>
      <trkpt lat="49.46457" lon="1.18068">
        <ele>158.7</ele>
        <time>2022-03-27T08:25:17Z</time>
      </trkpt>
      <trkpt lat="49.46458" lon="1.18068">
        <ele>158.8</ele>
        <time>2022-03-27T08:25:49Z</time>
      </trkpt>
      <trkpt lat="49.46459" lon="1.18068">
        <ele>158.8</ele>
        <time>2022-03-27T08:25:50Z</time>
      </trkpt>
      <trkpt lat="49.46459" lon="1.18069">
        <ele>158.8</ele>
        <time>2022-03-27T08:25:51Z</time>
      </trkpt>
      <trkpt lat="49.46463" lon="1.18069">
        <ele>158.9</ele>
        <time>2022-03-27T08:25:53Z</time>
      </trkpt>
      <trkpt lat="49.46467" lon="1.1807">
        <ele>159</ele>
        <time>2022-03-27T08:25:54Z</time>
      </trkpt>
      <trkpt lat="49.46473" lon="1.18071">
        <ele>159.1</ele>
        <time>2022-03-27T08:25:55Z</time>
      </trkpt>
      <trkpt lat="49.46477" lon="1.18072">
        <ele>159.2</ele>
        <time>2022-03-27T08:25:56Z</time>
      </trkpt>
      <trkpt lat="49.4648" lon="1.18073">
        <ele>159.3</ele>
        <time>2022-03-27T08:25:57Z</time>
      </trkpt>
      <trkpt lat="49.46485" lon="1.18074">
        <ele>159.4</ele>
        <time>2022-03-27T08:25:59Z</time>
      </trkpt>
      <trkpt lat="49.46489" lon="1.18074">
        <ele>159.6</ele>
        <time>2022-03-27T08:26:00Z</time>
      </trkpt>
      <trkpt lat="49.46493" lon="1.18074">
        <ele>159.7</ele>
        <time>2022-03-27T08:26:01Z</time>
      </trkpt>
      <trkpt lat="49.46498" lon="1.18074">
        <ele>159.8</ele>
        <time>2022-03-27T08:26:03Z</time>
      </trkpt>
      <trkpt lat="49.46501" lon="1.18074">
        <ele>159.9</ele>
        <time>2022-03-27T08:26:04Z</time>
      </trkpt>
      <trkpt lat="49.46503" lon="1.18073">
        <ele>159.9</ele>
        <time>2022-03-27T08:26:05Z</time>
      </trkpt>
      <trkpt lat="49.46507" lon="1.18074">
        <ele>160</ele>
        <time>2022-03-27T08:26:06Z</time>
      </trkpt>
      <trkpt lat="49.4651" lon="1.18075">
        <ele>160.1</ele>
        <time>2022-03-27T08:26:08Z</time>
      </trkpt>
      <trkpt lat="49.46515" lon="1.18076">
        <ele>160.2</ele>
        <time>2022-03-27T08:26:09Z</time>
      </trkpt>
      <trkpt lat="49.4652" lon="1.18077">
        <ele>160.4</ele>
        <time>2022-03-27T08:26:10Z</time>
      </trkpt>
      <trkpt lat="49.46525" lon="1.18079">
        <ele>160.5</ele>
        <time>2022-03-27T08:26:11Z</time>
      </trkpt>
      <trkpt lat="49.46529" lon="1.18079">
        <ele>160.7</ele>
        <time>2022-03-27T08:26:12Z</time>
      </trkpt>
      <trkpt lat="49.46535" lon="1.1808">
        <ele>160.9</ele>
        <time>2022-03-27T08:26:13Z</time>
      </trkpt>
      <trkpt lat="49.4654" lon="1.18081">
        <ele>161</ele>
        <time>2022-03-27T08:26:14Z</time>
      </trkpt>
      <trkpt lat="49.46543" lon="1.18083">
        <ele>161.1</ele>
        <time>2022-03-27T08:26:15Z</time>
      </trkpt>
      <trkpt lat="49.46547" lon="1.18084">
        <ele>161.3</ele>
        <time>2022-03-27T08:26:17Z</time>
      </trkpt>
      <trkpt lat="49.46551" lon="1.18085">
        <ele>161.4</ele>
        <time>2022-03-27T08:26:18Z</time>
      </trkpt>
      <trkpt lat="49.46555" lon="1.18086">
        <ele>161.5</ele>
        <time>2022-03-27T08:26:19Z</time>
      </trkpt>
      <trkpt lat="49.46559" lon="1.18087">
        <ele>161.7</ele>
        <time>2022-03-27T08:26:20Z</time>
      </trkpt>
      <trkpt lat="49.46563" lon="1.18087">
        <ele>161.8</ele>
        <time>2022-03-27T08:26:21Z</time>
      </trkpt>
      <trkpt lat="49.46567" lon="1.18088">
        <ele>161.9</ele>
        <time>2022-03-27T08:26:22Z</time>
      </trkpt>
      <trkpt lat="49.46574" lon="1.1809">
        <ele>162.1</ele>
        <time>2022-03-27T08:26:24Z</time>
      </trkpt>
      <trkpt lat="49.46578" lon="1.1809">
        <ele>162.2</ele>
        <time>2022-03-27T08:26:25Z</time>
      </trkpt>
      <trkpt lat="49.46581" lon="1.18091">
        <ele>162.3</ele>
        <time>2022-03-27T08:26:26Z</time>
      </trkpt>
      <trkpt lat="49.46584" lon="1.18091">
        <ele>162.4</ele>
        <time>2022-03-27T08:26:27Z</time>
      </trkpt>
      <trkpt lat="49.46587" lon="1.18091">
        <ele>162.5</ele>
        <time>2022-03-27T08:26:28Z</time>
      </trkpt>
      <trkpt lat="49.4659" lon="1.18092">
        <ele>162.6</ele>
        <time>2022-03-27T08:26:29Z</time>
      </trkpt>
      <trkpt lat="49.46593" lon="1.18092">
        <ele>162.6</ele>
        <time>2022-03-27T08:26:30Z</time>
      </trkpt>
      <trkpt lat="49.46594" lon="1.18092">
        <ele>162.7</ele>
        <time>2022-03-27T08:26:31Z</time>
      </trkpt>
      <trkpt lat="49.46599" lon="1.18093">
        <ele>162.8</ele>
        <time>2022-03-27T08:26:32Z</time>
      </trkpt>
      <trkpt lat="49.46601" lon="1.18093">
        <ele>162.8</ele>
        <time>2022-03-27T08:26:33Z</time>
      </trkpt>
      <trkpt lat="49.46603" lon="1.18094">
        <ele>162.9</ele>
        <time>2022-03-27T08:26:35Z</time>
      </trkpt>
      <trkpt lat="49.46607" lon="1.18093">
        <ele>163</ele>
        <time>2022-03-27T08:26:36Z</time>
      </trkpt>
      <trkpt lat="49.46609" lon="1.18093">
        <ele>163</ele>
        <time>2022-03-27T08:26:37Z</time>
      </trkpt>
      <trkpt lat="49.46613" lon="1.18093">
        <ele>163.1</ele>
        <time>2022-03-27T08:26:38Z</time>
      </trkpt>
      <trkpt lat="49.46614" lon="1.18093">
        <ele>163.1</ele>
        <time>2022-03-27T08:26:39Z</time>
      </trkpt>
      <trkpt lat="49.46617" lon="1.18093">
        <ele>163.2</ele>
        <time>2022-03-27T08:26:40Z</time>
      </trkpt>
      <trkpt lat="49.46623" lon="1.18092">
        <ele>163.3</ele>
        <time>2022-03-27T08:26:41Z</time>
      </trkpt>
      <trkpt lat="49.46628" lon="1.18092">
        <ele>163.3</ele>
        <time>2022-03-27T08:26:42Z</time>
      </trkpt>
      <trkpt lat="49.46632" lon="1.18092">
        <ele>163.4</ele>
        <time>2022-03-27T08:26:43Z</time>
      </trkpt>
      <trkpt lat="49.46637" lon="1.18092">
        <ele>163.4</ele>
        <time>2022-03-27T08:26:44Z</time>
      </trkpt>
      <trkpt lat="49.46641" lon="1.18092">
        <ele>163.4</ele>
        <time>2022-03-27T08:26:45Z</time>
      </trkpt>
      <trkpt lat="49.46645" lon="1.18092">
        <ele>163.4</ele>
        <time>2022-03-27T08:26:47Z</time>
      </trkpt>
      <trkpt lat="49.46651" lon="1.18093">
        <ele>163.4</ele>
        <time>2022-03-27T08:26:48Z</time>
      </trkpt>
      <trkpt lat="49.46655" lon="1.18092">
        <ele>163.4</ele>
        <time>2022-03-27T08:26:49Z</time>
      </trkpt>
      <trkpt lat="49.46662" lon="1.181">
        <ele>163.3</ele>
        <time>2022-03-27T08:26:51Z</time>
      </trkpt>
      <trkpt lat="49.46666" lon="1.18104">
        <ele>163.3</ele>
        <time>2022-03-27T08:26:53Z</time>
      </trkpt>
      <trkpt lat="49.46675" lon="1.18109">
        <ele>163.1</ele>
        <time>2022-03-27T08:26:55Z</time>
      </trkpt>
      <trkpt lat="49.46679" lon="1.1811">
        <ele>163.1</ele>
        <time>2022-03-27T08:26:57Z</time>
      </trkpt>
      <trkpt lat="49.46683" lon="1.1811">
        <ele>163</ele>
        <time>2022-03-27T08:26:58Z</time>
      </trkpt>
      <trkpt lat="49.46695" lon="1.18111">
        <ele>162.6</ele>
        <time>2022-03-27T08:27:00Z</time>
      </trkpt>
      <trkpt lat="49.46698" lon="1.1811">
        <ele>162.5</ele>
        <time>2022-03-27T08:27:02Z</time>
      </trkpt>
      <trkpt lat="49.46701" lon="1.1811">
        <ele>162.4</ele>
        <time>2022-03-27T08:27:03Z</time>
      </trkpt>
      <trkpt lat="49.46705" lon="1.18109">
        <ele>162.2</ele>
        <time>2022-03-27T08:27:04Z</time>
      </trkpt>
      <trkpt lat="49.4671" lon="1.18109">
        <ele>162</ele>
        <time>2022-03-27T08:27:05Z</time>
      </trkpt>
      <trkpt lat="49.46713" lon="1.18109">
        <ele>161.9</ele>
        <time>2022-03-27T08:27:06Z</time>
      </trkpt>
      <trkpt lat="49.46717" lon="1.18108">
        <ele>161.6</ele>
        <time>2022-03-27T08:27:08Z</time>
      </trkpt>
      <trkpt lat="49.46718" lon="1.18107">
        <ele>161.6</ele>
        <time>2022-03-27T08:27:09Z</time>
      </trkpt>
      <trkpt lat="49.4672" lon="1.18099">
        <ele>161.5</ele>
        <time>2022-03-27T08:27:10Z</time>
      </trkpt>
      <trkpt lat="49.46719" lon="1.18082">
        <ele>161.3</ele>
        <time>2022-03-27T08:27:12Z</time>
      </trkpt>
      <trkpt lat="49.46717" lon="1.18072">
        <ele>161.2</ele>
        <time>2022-03-27T08:27:13Z</time>
      </trkpt>
      <trkpt lat="49.46716" lon="1.18065">
        <ele>161.1</ele>
        <time>2022-03-27T08:27:14Z</time>
      </trkpt>
      <trkpt lat="49.46714" lon="1.18049">
        <ele>160.5</ele>
        <time>2022-03-27T08:27:15Z</time>
      </trkpt>
      <trkpt lat="49.46714" lon="1.18041">
        <ele>160.2</ele>
        <time>2022-03-27T08:27:16Z</time>
      </trkpt>
      <trkpt lat="49.46713" lon="1.1803">
        <ele>159.9</ele>
        <time>2022-03-27T08:27:18Z</time>
      </trkpt>
      <trkpt lat="49.46713" lon="1.18022">
        <ele>159.6</ele>
        <time>2022-03-27T08:27:19Z</time>
      </trkpt>
      <trkpt lat="49.46712" lon="1.18013">
        <ele>159.3</ele>
        <time>2022-03-27T08:27:20Z</time>
      </trkpt>
      <trkpt lat="49.46711" lon="1.18004">
        <ele>159.1</ele>
        <time>2022-03-27T08:27:21Z</time>
      </trkpt>
      <trkpt lat="49.4671" lon="1.17994">
        <ele>158.8</ele>
        <time>2022-03-27T08:27:22Z</time>
      </trkpt>
      <trkpt lat="49.46709" lon="1.17985">
        <ele>158.5</ele>
        <time>2022-03-27T08:27:23Z</time>
      </trkpt>
      <trkpt lat="49.46709" lon="1.17975">
        <ele>158.2</ele>
        <time>2022-03-27T08:27:24Z</time>
      </trkpt>
      <trkpt lat="49.46708" lon="1.17965">
        <ele>157.9</ele>
        <time>2022-03-27T08:27:25Z</time>
      </trkpt>
      <trkpt lat="49.46706" lon="1.17956">
        <ele>157.6</ele>
        <time>2022-03-27T08:27:26Z</time>
      </trkpt>
      <trkpt lat="49.46706" lon="1.17947">
        <ele>157.3</ele>
        <time>2022-03-27T08:27:27Z</time>
      </trkpt>
      <trkpt lat="49.46706" lon="1.17927">
        <ele>156.7</ele>
        <time>2022-03-27T08:27:28Z</time>
      </trkpt>
      <trkpt lat="49.46706" lon="1.17917">
        <ele>156.4</ele>
        <time>2022-03-27T08:27:30Z</time>
      </trkpt>
      <trkpt lat="49.46708" lon="1.17906">
        <ele>156.1</ele>
        <time>2022-03-27T08:27:31Z</time>
      </trkpt>
      <trkpt lat="49.46708" lon="1.17896">
        <ele>155.8</ele>
        <time>2022-03-27T08:27:32Z</time>
      </trkpt>
      <trkpt lat="49.46708" lon="1.17885">
        <ele>155.4</ele>
        <time>2022-03-27T08:27:33Z</time>
      </trkpt>
      <trkpt lat="49.46707" lon="1.17874">
        <ele>155.1</ele>
        <time>2022-03-27T08:27:34Z</time>
      </trkpt>
      <trkpt lat="49.46707" lon="1.17863">
        <ele>154.9</ele>
        <time>2022-03-27T08:27:35Z</time>
      </trkpt>
      <trkpt lat="49.46706" lon="1.17852">
        <ele>154.7</ele>
        <time>2022-03-27T08:27:36Z</time>
      </trkpt>
      <trkpt lat="49.46705" lon="1.17841">
        <ele>154.4</ele>
        <time>2022-03-27T08:27:37Z</time>
      </trkpt>
      <trkpt lat="49.46705" lon="1.1783">
        <ele>154.3</ele>
        <time>2022-03-27T08:27:38Z</time>
      </trkpt>
      <trkpt lat="49.46704" lon="1.1782">
        <ele>154.1</ele>
        <time>2022-03-27T08:27:39Z</time>
      </trkpt>
      <trkpt lat="49.46704" lon="1.1781">
        <ele>154</ele>
        <time>2022-03-27T08:27:40Z</time>
      </trkpt>
      <trkpt lat="49.46703" lon="1.178">
        <ele>153.8</ele>
        <time>2022-03-27T08:27:41Z</time>
      </trkpt>
      <trkpt lat="49.46703" lon="1.17791">
        <ele>153.7</ele>
        <time>2022-03-27T08:27:42Z</time>
      </trkpt>
      <trkpt lat="49.46703" lon="1.1778">
        <ele>153.5</ele>
        <time>2022-03-27T08:27:43Z</time>
      </trkpt>
      <trkpt lat="49.46703" lon="1.1777">
        <ele>153.4</ele>
        <time>2022-03-27T08:27:44Z</time>
      </trkpt>
      <trkpt lat="49.46704" lon="1.17761">
        <ele>153.2</ele>
        <time>2022-03-27T08:27:45Z</time>
      </trkpt>
      <trkpt lat="49.46705" lon="1.17751">
        <ele>153</ele>
        <time>2022-03-27T08:27:46Z</time>
      </trkpt>
      <trkpt lat="49.46706" lon="1.17741">
        <ele>152.8</ele>
        <time>2022-03-27T08:27:47Z</time>
      </trkpt>
      <trkpt lat="49.46707" lon="1.17731">
        <ele>152.6</ele>
        <time>2022-03-27T08:27:48Z</time>
      </trkpt>
      <trkpt lat="49.46707" lon="1.1772">
        <ele>152.4</ele>
        <time>2022-03-27T08:27:49Z</time>
      </trkpt>
      <trkpt lat="49.46709" lon="1.17709">
        <ele>152.1</ele>
        <time>2022-03-27T08:27:50Z</time>
      </trkpt>
      <trkpt lat="49.4671" lon="1.17699">
        <ele>151.9</ele>
        <time>2022-03-27T08:27:51Z</time>
      </trkpt>
      <trkpt lat="49.46711" lon="1.17688">
        <ele>151.7</ele>
        <time>2022-03-27T08:27:52Z</time>
      </trkpt>
      <trkpt lat="49.46712" lon="1.17678">
        <ele>151.4</ele>
        <time>2022-03-27T08:27:53Z</time>
      </trkpt>
      <trkpt lat="49.46714" lon="1.17668">
        <ele>151.2</ele>
        <time>2022-03-27T08:27:54Z</time>
      </trkpt>
      <trkpt lat="49.46714" lon="1.17659">
        <ele>151</ele>
        <time>2022-03-27T08:27:55Z</time>
      </trkpt>
      <trkpt lat="49.46715" lon="1.17651">
        <ele>150.9</ele>
        <time>2022-03-27T08:27:56Z</time>
      </trkpt>
      <trkpt lat="49.46717" lon="1.17643">
        <ele>150.8</ele>
        <time>2022-03-27T08:27:57Z</time>
      </trkpt>
      <trkpt lat="49.46719" lon="1.17636">
        <ele>150.7</ele>
        <time>2022-03-27T08:27:58Z</time>
      </trkpt>
      <trkpt lat="49.46722" lon="1.17631">
        <ele>150.6</ele>
        <time>2022-03-27T08:27:59Z</time>
      </trkpt>
      <trkpt lat="49.46723" lon="1.17625">
        <ele>150.6</ele>
        <time>2022-03-27T08:28:00Z</time>
      </trkpt>
      <trkpt lat="49.46725" lon="1.1762">
        <ele>150.5</ele>
        <time>2022-03-27T08:28:01Z</time>
      </trkpt>
      <trkpt lat="49.46725" lon="1.17613">
        <ele>150.4</ele>
        <time>2022-03-27T08:28:02Z</time>
      </trkpt>
      <trkpt lat="49.46726" lon="1.17607">
        <ele>150.2</ele>
        <time>2022-03-27T08:28:03Z</time>
      </trkpt>
      <trkpt lat="49.46726" lon="1.17601">
        <ele>150.1</ele>
        <time>2022-03-27T08:28:04Z</time>
      </trkpt>
      <trkpt lat="49.46728" lon="1.17596">
        <ele>150</ele>
        <time>2022-03-27T08:28:05Z</time>
      </trkpt>
      <trkpt lat="49.46729" lon="1.17589">
        <ele>149.9</ele>
        <time>2022-03-27T08:28:06Z</time>
      </trkpt>
      <trkpt lat="49.46731" lon="1.17582">
        <ele>149.7</ele>
        <time>2022-03-27T08:28:07Z</time>
      </trkpt>
      <trkpt lat="49.46733" lon="1.17575">
        <ele>149.6</ele>
        <time>2022-03-27T08:28:08Z</time>
      </trkpt>
      <trkpt lat="49.46735" lon="1.17569">
        <ele>149.5</ele>
        <time>2022-03-27T08:28:09Z</time>
      </trkpt>
      <trkpt lat="49.46737" lon="1.17562">
        <ele>149.4</ele>
        <time>2022-03-27T08:28:10Z</time>
      </trkpt>
      <trkpt lat="49.46739" lon="1.17556">
        <ele>149.3</ele>
        <time>2022-03-27T08:28:11Z</time>
      </trkpt>
      <trkpt lat="49.46739" lon="1.17551">
        <ele>149.2</ele>
        <time>2022-03-27T08:28:12Z</time>
      </trkpt>
      <trkpt lat="49.4674" lon="1.17543">
        <ele>149.1</ele>
        <time>2022-03-27T08:28:13Z</time>
      </trkpt>
      <trkpt lat="49.46743" lon="1.17534">
        <ele>149</ele>
        <time>2022-03-27T08:28:14Z</time>
      </trkpt>
      <trkpt lat="49.46746" lon="1.17528">
        <ele>148.9</ele>
        <time>2022-03-27T08:28:16Z</time>
      </trkpt>
      <trkpt lat="49.46748" lon="1.17522">
        <ele>148.8</ele>
        <time>2022-03-27T08:28:17Z</time>
      </trkpt>
      <trkpt lat="49.46749" lon="1.17516">
        <ele>148.7</ele>
        <time>2022-03-27T08:28:18Z</time>
      </trkpt>
      <trkpt lat="49.46751" lon="1.17511">
        <ele>148.6</ele>
        <time>2022-03-27T08:28:19Z</time>
      </trkpt>
      <trkpt lat="49.46753" lon="1.17504">
        <ele>148.5</ele>
        <time>2022-03-27T08:28:20Z</time>
      </trkpt>
      <trkpt lat="49.46755" lon="1.17499">
        <ele>148.5</ele>
        <time>2022-03-27T08:28:21Z</time>
      </trkpt>
      <trkpt lat="49.46756" lon="1.17493">
        <ele>148.4</ele>
        <time>2022-03-27T08:28:22Z</time>
      </trkpt>
      <trkpt lat="49.46757" lon="1.17487">
        <ele>148.3</ele>
        <time>2022-03-27T08:28:24Z</time>
      </trkpt>
      <trkpt lat="49.46759" lon="1.17478">
        <ele>148.2</ele>
        <time>2022-03-27T08:28:25Z</time>
      </trkpt>
      <trkpt lat="49.46761" lon="1.17473">
        <ele>148.2</ele>
        <time>2022-03-27T08:28:26Z</time>
      </trkpt>
      <trkpt lat="49.46762" lon="1.17467">
        <ele>148.1</ele>
        <time>2022-03-27T08:28:28Z</time>
      </trkpt>
      <trkpt lat="49.46763" lon="1.17461">
        <ele>148</ele>
        <time>2022-03-27T08:28:29Z</time>
      </trkpt>
      <trkpt lat="49.46764" lon="1.17456">
        <ele>148</ele>
        <time>2022-03-27T08:28:30Z</time>
      </trkpt>
      <trkpt lat="49.46766" lon="1.17444">
        <ele>147.8</ele>
        <time>2022-03-27T08:28:32Z</time>
      </trkpt>
      <trkpt lat="49.46767" lon="1.17439">
        <ele>147.7</ele>
        <time>2022-03-27T08:28:33Z</time>
      </trkpt>
      <trkpt lat="49.46769" lon="1.17432">
        <ele>147.6</ele>
        <time>2022-03-27T08:28:34Z</time>
      </trkpt>
      <trkpt lat="49.46771" lon="1.17426">
        <ele>147.5</ele>
        <time>2022-03-27T08:28:35Z</time>
      </trkpt>
      <trkpt lat="49.46772" lon="1.17421">
        <ele>147.4</ele>
        <time>2022-03-27T08:28:36Z</time>
      </trkpt>
      <trkpt lat="49.46774" lon="1.17411">
        <ele>147.2</ele>
        <time>2022-03-27T08:28:38Z</time>
      </trkpt>
      <trkpt lat="49.46778" lon="1.17401">
        <ele>147</ele>
        <time>2022-03-27T08:28:39Z</time>
      </trkpt>
      <trkpt lat="49.4678" lon="1.17395">
        <ele>146.9</ele>
        <time>2022-03-27T08:28:41Z</time>
      </trkpt>
      <trkpt lat="49.46781" lon="1.1739">
        <ele>146.7</ele>
        <time>2022-03-27T08:28:42Z</time>
      </trkpt>
      <trkpt lat="49.46784" lon="1.17379">
        <ele>146.4</ele>
        <time>2022-03-27T08:28:43Z</time>
      </trkpt>
      <trkpt lat="49.46787" lon="1.17367">
        <ele>145.9</ele>
        <time>2022-03-27T08:28:45Z</time>
      </trkpt>
      <trkpt lat="49.46787" lon="1.1736">
        <ele>145.7</ele>
        <time>2022-03-27T08:28:46Z</time>
      </trkpt>
      <trkpt lat="49.46786" lon="1.17354">
        <ele>145.4</ele>
        <time>2022-03-27T08:28:48Z</time>
      </trkpt>
      <trkpt lat="49.46785" lon="1.17348">
        <ele>145.1</ele>
        <time>2022-03-27T08:28:49Z</time>
      </trkpt>
      <trkpt lat="49.46782" lon="1.17339">
        <ele>144.5</ele>
        <time>2022-03-27T08:28:51Z</time>
      </trkpt>
      <trkpt lat="49.46781" lon="1.17334">
        <ele>144.3</ele>
        <time>2022-03-27T08:28:52Z</time>
      </trkpt>
      <trkpt lat="49.46779" lon="1.17328">
        <ele>143.8</ele>
        <time>2022-03-27T08:28:54Z</time>
      </trkpt>
      <trkpt lat="49.46778" lon="1.17325">
        <ele>143.6</ele>
        <time>2022-03-27T08:28:55Z</time>
      </trkpt>
      <trkpt lat="49.46777" lon="1.17322">
        <ele>143.4</ele>
        <time>2022-03-27T08:28:56Z</time>
      </trkpt>
      <trkpt lat="49.46775" lon="1.17318">
        <ele>143.2</ele>
        <time>2022-03-27T08:28:57Z</time>
      </trkpt>
      <trkpt lat="49.46772" lon="1.17313">
        <ele>142.7</ele>
        <time>2022-03-27T08:28:58Z</time>
      </trkpt>
      <trkpt lat="49.46769" lon="1.17309">
        <ele>142.2</ele>
        <time>2022-03-27T08:28:59Z</time>
      </trkpt>
      <trkpt lat="49.46765" lon="1.17305">
        <ele>141.7</ele>
        <time>2022-03-27T08:29:00Z</time>
      </trkpt>
      <trkpt lat="49.46762" lon="1.173">
        <ele>141.1</ele>
        <time>2022-03-27T08:29:02Z</time>
      </trkpt>
      <trkpt lat="49.46758" lon="1.17297">
        <ele>140.5</ele>
        <time>2022-03-27T08:29:03Z</time>
      </trkpt>
      <trkpt lat="49.46756" lon="1.17295">
        <ele>140.1</ele>
        <time>2022-03-27T08:29:04Z</time>
      </trkpt>
      <trkpt lat="49.46752" lon="1.17291">
        <ele>139.4</ele>
        <time>2022-03-27T08:29:05Z</time>
      </trkpt>
      <trkpt lat="49.46748" lon="1.17287">
        <ele>138.7</ele>
        <time>2022-03-27T08:29:06Z</time>
      </trkpt>
      <trkpt lat="49.4674" lon="1.17278">
        <ele>137.2</ele>
        <time>2022-03-27T08:29:07Z</time>
      </trkpt>
      <trkpt lat="49.46735" lon="1.17275">
        <ele>136.3</ele>
        <time>2022-03-27T08:29:09Z</time>
      </trkpt>
      <trkpt lat="49.46731" lon="1.1727">
        <ele>135.5</ele>
        <time>2022-03-27T08:29:10Z</time>
      </trkpt>
      <trkpt lat="49.46725" lon="1.17261">
        <ele>134</ele>
        <time>2022-03-27T08:29:11Z</time>
      </trkpt>
      <trkpt lat="49.46722" lon="1.17255">
        <ele>133.3</ele>
        <time>2022-03-27T08:29:12Z</time>
      </trkpt>
      <trkpt lat="49.4672" lon="1.17249">
        <ele>132.5</ele>
        <time>2022-03-27T08:29:13Z</time>
      </trkpt>
      <trkpt lat="49.46717" lon="1.1724">
        <ele>131.5</ele>
        <time>2022-03-27T08:29:15Z</time>
      </trkpt>
      <trkpt lat="49.46715" lon="1.17234">
        <ele>130.8</ele>
        <time>2022-03-27T08:29:16Z</time>
      </trkpt>
      <trkpt lat="49.46713" lon="1.17228">
        <ele>130.2</ele>
        <time>2022-03-27T08:29:17Z</time>
      </trkpt>
      <trkpt lat="49.4671" lon="1.1722">
        <ele>129.3</ele>
        <time>2022-03-27T08:29:18Z</time>
      </trkpt>
      <trkpt lat="49.46707" lon="1.17208">
        <ele>128.4</ele>
        <time>2022-03-27T08:29:20Z</time>
      </trkpt>
      <trkpt lat="49.46705" lon="1.17198">
        <ele>127.6</ele>
        <time>2022-03-27T08:29:21Z</time>
      </trkpt>
      <trkpt lat="49.46702" lon="1.17183">
        <ele>126.5</ele>
        <time>2022-03-27T08:29:22Z</time>
      </trkpt>
      <trkpt lat="49.467" lon="1.17173">
        <ele>125.7</ele>
        <time>2022-03-27T08:29:23Z</time>
      </trkpt>
      <trkpt lat="49.46696" lon="1.17156">
        <ele>124.4</ele>
        <time>2022-03-27T08:29:25Z</time>
      </trkpt>
      <trkpt lat="49.46695" lon="1.1715">
        <ele>124</ele>
        <time>2022-03-27T08:29:27Z</time>
      </trkpt>
      <trkpt lat="49.46694" lon="1.17146">
        <ele>123.6</ele>
        <time>2022-03-27T08:29:28Z</time>
      </trkpt>
      <trkpt lat="49.46693" lon="1.17139">
        <ele>123</ele>
        <time>2022-03-27T08:29:29Z</time>
      </trkpt>
      <trkpt lat="49.46693" lon="1.17133">
        <ele>122.5</ele>
        <time>2022-03-27T08:29:30Z</time>
      </trkpt>
      <trkpt lat="49.46693" lon="1.17129">
        <ele>122.2</ele>
        <time>2022-03-27T08:29:31Z</time>
      </trkpt>
      <trkpt lat="49.46692" lon="1.17126">
        <ele>121.9</ele>
        <time>2022-03-27T08:29:33Z</time>
      </trkpt>
      <trkpt lat="49.46692" lon="1.17124">
        <ele>121.7</ele>
        <time>2022-03-27T08:29:34Z</time>
      </trkpt>
      <trkpt lat="49.46693" lon="1.17123">
        <ele>121.6</ele>
        <time>2022-03-27T08:29:35Z</time>
      </trkpt>
      <trkpt lat="49.46693" lon="1.17121">
        <ele>121.5</ele>
        <time>2022-03-27T08:29:36Z</time>
      </trkpt>
      <trkpt lat="49.46693" lon="1.1712">
        <ele>121.3</ele>
        <time>2022-03-27T08:29:38Z</time>
      </trkpt>
      <trkpt lat="49.46693" lon="1.17119">
        <ele>121.3</ele>
        <time>2022-03-27T08:29:39Z</time>
      </trkpt>
      <trkpt lat="49.46693" lon="1.17119">
        <ele>121.2</ele>
        <time>2022-03-27T08:29:40Z</time>
      </trkpt>
      <trkpt lat="49.46693" lon="1.17118">
        <ele>121.1</ele>
        <time>2022-03-27T08:29:41Z</time>
      </trkpt>
      <trkpt lat="49.46692" lon="1.17115">
        <ele>120.8</ele>
        <time>2022-03-27T08:29:43Z</time>
      </trkpt>
      <trkpt lat="49.46691" lon="1.1711">
        <ele>120.3</ele>
        <time>2022-03-27T08:29:45Z</time>
      </trkpt>
      <trkpt lat="49.46688" lon="1.17103">
        <ele>119.4</ele>
        <time>2022-03-27T08:29:47Z</time>
      </trkpt>
      <trkpt lat="49.46683" lon="1.17093">
        <ele>117.9</ele>
        <time>2022-03-27T08:29:48Z</time>
      </trkpt>
      <trkpt lat="49.46678" lon="1.17081">
        <ele>116.2</ele>
        <time>2022-03-27T08:29:49Z</time>
      </trkpt>
      <trkpt lat="49.46673" lon="1.17069">
        <ele>114.5</ele>
        <time>2022-03-27T08:29:50Z</time>
      </trkpt>
      <trkpt lat="49.46668" lon="1.17056">
        <ele>112.9</ele>
        <time>2022-03-27T08:29:51Z</time>
      </trkpt>
      <trkpt lat="49.46662" lon="1.17043">
        <ele>111.4</ele>
        <time>2022-03-27T08:29:52Z</time>
      </trkpt>
      <trkpt lat="49.46657" lon="1.1703">
        <ele>110</ele>
        <time>2022-03-27T08:29:53Z</time>
      </trkpt>
      <trkpt lat="49.46651" lon="1.17016">
        <ele>108.5</ele>
        <time>2022-03-27T08:29:54Z</time>
      </trkpt>
      <trkpt lat="49.46645" lon="1.17003">
        <ele>107.1</ele>
        <time>2022-03-27T08:29:55Z</time>
      </trkpt>
      <trkpt lat="49.46639" lon="1.16992">
        <ele>105.9</ele>
        <time>2022-03-27T08:29:56Z</time>
      </trkpt>
      <trkpt lat="49.46636" lon="1.16983">
        <ele>105</ele>
        <time>2022-03-27T08:29:57Z</time>
      </trkpt>
      <trkpt lat="49.46632" lon="1.16976">
        <ele>104.2</ele>
        <time>2022-03-27T08:29:58Z</time>
      </trkpt>
      <trkpt lat="49.46629" lon="1.1697">
        <ele>103.5</ele>
        <time>2022-03-27T08:29:59Z</time>
      </trkpt>
      <trkpt lat="49.46626" lon="1.16964">
        <ele>103</ele>
        <time>2022-03-27T08:30:00Z</time>
      </trkpt>
      <trkpt lat="49.46624" lon="1.16956">
        <ele>102.3</ele>
        <time>2022-03-27T08:30:01Z</time>
      </trkpt>
      <trkpt lat="49.46621" lon="1.16948">
        <ele>101.6</ele>
        <time>2022-03-27T08:30:02Z</time>
      </trkpt>
      <trkpt lat="49.46619" lon="1.1694">
        <ele>100.9</ele>
        <time>2022-03-27T08:30:03Z</time>
      </trkpt>
      <trkpt lat="49.46616" lon="1.16919">
        <ele>99.2</ele>
        <time>2022-03-27T08:30:04Z</time>
      </trkpt>
      <trkpt lat="49.46614" lon="1.16907">
        <ele>98.2</ele>
        <time>2022-03-27T08:30:06Z</time>
      </trkpt>
      <trkpt lat="49.46612" lon="1.16892">
        <ele>97.1</ele>
        <time>2022-03-27T08:30:07Z</time>
      </trkpt>
      <trkpt lat="49.4661" lon="1.16878">
        <ele>96.1</ele>
        <time>2022-03-27T08:30:08Z</time>
      </trkpt>
      <trkpt lat="49.46608" lon="1.16863">
        <ele>95.1</ele>
        <time>2022-03-27T08:30:09Z</time>
      </trkpt>
      <trkpt lat="49.46607" lon="1.16849">
        <ele>94.1</ele>
        <time>2022-03-27T08:30:10Z</time>
      </trkpt>
      <trkpt lat="49.46606" lon="1.16835">
        <ele>93.1</ele>
        <time>2022-03-27T08:30:11Z</time>
      </trkpt>
      <trkpt lat="49.46605" lon="1.16824">
        <ele>92.2</ele>
        <time>2022-03-27T08:30:12Z</time>
      </trkpt>
      <trkpt lat="49.46605" lon="1.16815">
        <ele>91.6</ele>
        <time>2022-03-27T08:30:13Z</time>
      </trkpt>
      <trkpt lat="49.46604" lon="1.16809">
        <ele>91.2</ele>
        <time>2022-03-27T08:30:14Z</time>
      </trkpt>
      <trkpt lat="49.46604" lon="1.16806">
        <ele>91</ele>
        <time>2022-03-27T08:30:15Z</time>
      </trkpt>
      <trkpt lat="49.46604" lon="1.16805">
        <ele>90.9</ele>
        <time>2022-03-27T08:30:16Z</time>
      </trkpt>
      <trkpt lat="49.46603" lon="1.16803">
        <ele>90.8</ele>
        <time>2022-03-27T08:30:17Z</time>
      </trkpt>
      <trkpt lat="49.46602" lon="1.16799">
        <ele>90.6</ele>
        <time>2022-03-27T08:30:18Z</time>
      </trkpt>
      <trkpt lat="49.46602" lon="1.16798">
        <ele>90.5</ele>
        <time>2022-03-27T08:30:20Z</time>
      </trkpt>
      <trkpt lat="49.46602" lon="1.16799">
        <ele>90.5</ele>
        <time>2022-03-27T08:30:21Z</time>
      </trkpt>
      <trkpt lat="49.46602" lon="1.16799">
        <ele>90.5</ele>
        <time>2022-03-27T08:30:22Z</time>
      </trkpt>
      <trkpt lat="49.46603" lon="1.16799">
        <ele>90.5</ele>
        <time>2022-03-27T08:30:24Z</time>
      </trkpt>
      <trkpt lat="49.46603" lon="1.16798">
        <ele>90.4</ele>
        <time>2022-03-27T08:30:25Z</time>
      </trkpt>
      <trkpt lat="49.46603" lon="1.16798">
        <ele>90.4</ele>
        <time>2022-03-27T08:30:26Z</time>
      </trkpt>
      <trkpt lat="49.46603" lon="1.16798">
        <ele>90.4</ele>
        <time>2022-03-27T08:30:27Z</time>
      </trkpt>
      <trkpt lat="49.46603" lon="1.16797">
        <ele>90.4</ele>
        <time>2022-03-27T08:30:28Z</time>
      </trkpt>
      <trkpt lat="49.46603" lon="1.16797">
        <ele>90.4</ele>
        <time>2022-03-27T08:30:29Z</time>
      </trkpt>
      <trkpt lat="49.46598" lon="1.16789">
        <ele>89.7</ele>
        <time>2022-03-27T08:32:08Z</time>
      </trkpt>
      <trkpt lat="49.46596" lon="1.16785">
        <ele>89.4</ele>
        <time>2022-03-27T08:32:10Z</time>
      </trkpt>
      <trkpt lat="49.46594" lon="1.16779">
        <ele>89.1</ele>
        <time>2022-03-27T08:32:12Z</time>
      </trkpt>
      <trkpt lat="49.46594" lon="1.16772">
        <ele>88.6</ele>
        <time>2022-03-27T08:32:13Z</time>
      </trkpt>
      <trkpt lat="49.46593" lon="1.16768">
        <ele>88.4</ele>
        <time>2022-03-27T08:32:15Z</time>
      </trkpt>
      <trkpt lat="49.46594" lon="1.16765">
        <ele>88.2</ele>
        <time>2022-03-27T08:32:17Z</time>
      </trkpt>
      <trkpt lat="49.46596" lon="1.1676">
        <ele>87.9</ele>
        <time>2022-03-27T08:32:18Z</time>
      </trkpt>
      <trkpt lat="49.46597" lon="1.16755">
        <ele>87.5</ele>
        <time>2022-03-27T08:32:19Z</time>
      </trkpt>
      <trkpt lat="49.46597" lon="1.16753">
        <ele>87.4</ele>
        <time>2022-03-27T08:32:20Z</time>
      </trkpt>
      <trkpt lat="49.46597" lon="1.16747">
        <ele>87</ele>
        <time>2022-03-27T08:32:21Z</time>
      </trkpt>
      <trkpt lat="49.46599" lon="1.16734">
        <ele>86.2</ele>
        <time>2022-03-27T08:32:22Z</time>
      </trkpt>
      <trkpt lat="49.466" lon="1.16723">
        <ele>85.6</ele>
        <time>2022-03-27T08:32:23Z</time>
      </trkpt>
      <trkpt lat="49.46601" lon="1.16714">
        <ele>85</ele>
        <time>2022-03-27T08:32:24Z</time>
      </trkpt>
      <trkpt lat="49.46602" lon="1.16704">
        <ele>84.4</ele>
        <time>2022-03-27T08:32:25Z</time>
      </trkpt>
      <trkpt lat="49.46604" lon="1.16693">
        <ele>83.8</ele>
        <time>2022-03-27T08:32:26Z</time>
      </trkpt>
      <trkpt lat="49.46605" lon="1.16683">
        <ele>83.2</ele>
        <time>2022-03-27T08:32:27Z</time>
      </trkpt>
      <trkpt lat="49.46606" lon="1.16672">
        <ele>82.5</ele>
        <time>2022-03-27T08:32:28Z</time>
      </trkpt>
      <trkpt lat="49.46608" lon="1.16661">
        <ele>81.9</ele>
        <time>2022-03-27T08:32:29Z</time>
      </trkpt>
      <trkpt lat="49.46608" lon="1.16649">
        <ele>81.3</ele>
        <time>2022-03-27T08:32:30Z</time>
      </trkpt>
      <trkpt lat="49.46608" lon="1.16636">
        <ele>80.6</ele>
        <time>2022-03-27T08:32:31Z</time>
      </trkpt>
      <trkpt lat="49.46608" lon="1.16623">
        <ele>79.7</ele>
        <time>2022-03-27T08:32:32Z</time>
      </trkpt>
      <trkpt lat="49.46607" lon="1.1661">
        <ele>78.8</ele>
        <time>2022-03-27T08:32:33Z</time>
      </trkpt>
      <trkpt lat="49.46605" lon="1.16596">
        <ele>77.9</ele>
        <time>2022-03-27T08:32:34Z</time>
      </trkpt>
      <trkpt lat="49.46603" lon="1.16582">
        <ele>76.9</ele>
        <time>2022-03-27T08:32:35Z</time>
      </trkpt>
      <trkpt lat="49.46601" lon="1.16568">
        <ele>75.8</ele>
        <time>2022-03-27T08:32:36Z</time>
      </trkpt>
      <trkpt lat="49.46598" lon="1.16554">
        <ele>74.8</ele>
        <time>2022-03-27T08:32:37Z</time>
      </trkpt>
      <trkpt lat="49.46595" lon="1.16539">
        <ele>73.6</ele>
        <time>2022-03-27T08:32:38Z</time>
      </trkpt>
      <trkpt lat="49.4659" lon="1.16525">
        <ele>72.3</ele>
        <time>2022-03-27T08:32:39Z</time>
      </trkpt>
      <trkpt lat="49.46586" lon="1.1651">
        <ele>71.2</ele>
        <time>2022-03-27T08:32:40Z</time>
      </trkpt>
      <trkpt lat="49.46583" lon="1.16495">
        <ele>70</ele>
        <time>2022-03-27T08:32:41Z</time>
      </trkpt>
      <trkpt lat="49.46581" lon="1.16482">
        <ele>69.1</ele>
        <time>2022-03-27T08:32:42Z</time>
      </trkpt>
      <trkpt lat="49.46579" lon="1.16473">
        <ele>68.5</ele>
        <time>2022-03-27T08:32:43Z</time>
      </trkpt>
      <trkpt lat="49.46579" lon="1.16465">
        <ele>68</ele>
        <time>2022-03-27T08:32:44Z</time>
      </trkpt>
      <trkpt lat="49.46581" lon="1.16457">
        <ele>67.5</ele>
        <time>2022-03-27T08:32:45Z</time>
      </trkpt>
      <trkpt lat="49.46583" lon="1.16451">
        <ele>67.1</ele>
        <time>2022-03-27T08:32:46Z</time>
      </trkpt>
      <trkpt lat="49.46584" lon="1.16447">
        <ele>66.8</ele>
        <time>2022-03-27T08:32:47Z</time>
      </trkpt>
      <trkpt lat="49.46586" lon="1.16442">
        <ele>66.4</ele>
        <time>2022-03-27T08:32:48Z</time>
      </trkpt>
      <trkpt lat="49.46587" lon="1.16437">
        <ele>66</ele>
        <time>2022-03-27T08:32:49Z</time>
      </trkpt>
      <trkpt lat="49.46588" lon="1.16432">
        <ele>65.6</ele>
        <time>2022-03-27T08:32:50Z</time>
      </trkpt>
      <trkpt lat="49.46591" lon="1.16425">
        <ele>65</ele>
        <time>2022-03-27T08:32:51Z</time>
      </trkpt>
      <trkpt lat="49.46593" lon="1.16411">
        <ele>64</ele>
        <time>2022-03-27T08:32:52Z</time>
      </trkpt>
      <trkpt lat="49.46592" lon="1.16405">
        <ele>63.6</ele>
        <time>2022-03-27T08:32:53Z</time>
      </trkpt>
      <trkpt lat="49.46589" lon="1.16401">
        <ele>63</ele>
        <time>2022-03-27T08:32:54Z</time>
      </trkpt>
      <trkpt lat="49.46588" lon="1.16399">
        <ele>62.9</ele>
        <time>2022-03-27T08:32:55Z</time>
      </trkpt>
      <trkpt lat="49.46588" lon="1.16399">
        <ele>62.8</ele>
        <time>2022-03-27T08:32:57Z</time>
      </trkpt>
      <trkpt lat="49.46587" lon="1.16398">
        <ele>62.7</ele>
        <time>2022-03-27T08:32:59Z</time>
      </trkpt>
      <trkpt lat="49.46587" lon="1.16397">
        <ele>62.7</ele>
        <time>2022-03-27T08:33:00Z</time>
      </trkpt>
      <trkpt lat="49.46587" lon="1.16396">
        <ele>62.6</ele>
        <time>2022-03-27T08:33:01Z</time>
      </trkpt>
      <trkpt lat="49.46587" lon="1.16395">
        <ele>62.6</ele>
        <time>2022-03-27T08:33:02Z</time>
      </trkpt>
      <trkpt lat="49.46587" lon="1.16395">
        <ele>62.5</ele>
        <time>2022-03-27T08:33:04Z</time>
      </trkpt>
      <trkpt lat="49.46587" lon="1.16394">
        <ele>62.5</ele>
        <time>2022-03-27T08:33:12Z</time>
      </trkpt>
      <trkpt lat="49.46586" lon="1.16393">
        <ele>62.4</ele>
        <time>2022-03-27T08:33:13Z</time>
      </trkpt>
      <trkpt lat="49.46586" lon="1.16392">
        <ele>62.3</ele>
        <time>2022-03-27T08:33:14Z</time>
      </trkpt>
      <trkpt lat="49.46586" lon="1.16384">
        <ele>61.8</ele>
        <time>2022-03-27T08:33:15Z</time>
      </trkpt>
      <trkpt lat="49.46587" lon="1.16376">
        <ele>61.2</ele>
        <time>2022-03-27T08:33:16Z</time>
      </trkpt>
      <trkpt lat="49.46591" lon="1.16346">
        <ele>59.6</ele>
        <time>2022-03-27T08:33:17Z</time>
      </trkpt>
      <trkpt lat="49.46592" lon="1.16339">
        <ele>59.2</ele>
        <time>2022-03-27T08:33:18Z</time>
      </trkpt>
      <trkpt lat="49.46593" lon="1.16327">
        <ele>58.5</ele>
        <time>2022-03-27T08:33:19Z</time>
      </trkpt>
      <trkpt lat="49.46595" lon="1.16315">
        <ele>57.9</ele>
        <time>2022-03-27T08:33:20Z</time>
      </trkpt>
      <trkpt lat="49.46596" lon="1.16302">
        <ele>57.3</ele>
        <time>2022-03-27T08:33:21Z</time>
      </trkpt>
      <trkpt lat="49.46596" lon="1.16291">
        <ele>56.7</ele>
        <time>2022-03-27T08:33:22Z</time>
      </trkpt>
      <trkpt lat="49.46598" lon="1.1628">
        <ele>56.1</ele>
        <time>2022-03-27T08:33:23Z</time>
      </trkpt>
      <trkpt lat="49.46601" lon="1.1627">
        <ele>55.5</ele>
        <time>2022-03-27T08:33:24Z</time>
      </trkpt>
      <trkpt lat="49.46606" lon="1.1626">
        <ele>54.9</ele>
        <time>2022-03-27T08:33:25Z</time>
      </trkpt>
      <trkpt lat="49.46611" lon="1.1625">
        <ele>54.3</ele>
        <time>2022-03-27T08:33:26Z</time>
      </trkpt>
      <trkpt lat="49.46616" lon="1.16239">
        <ele>53.8</ele>
        <time>2022-03-27T08:33:27Z</time>
      </trkpt>
      <trkpt lat="49.46622" lon="1.16229">
        <ele>53.3</ele>
        <time>2022-03-27T08:33:28Z</time>
      </trkpt>
      <trkpt lat="49.46626" lon="1.16219">
        <ele>52.9</ele>
        <time>2022-03-27T08:33:29Z</time>
      </trkpt>
      <trkpt lat="49.46628" lon="1.16209">
        <ele>52.6</ele>
        <time>2022-03-27T08:33:30Z</time>
      </trkpt>
      <trkpt lat="49.4663" lon="1.162">
        <ele>52.4</ele>
        <time>2022-03-27T08:33:31Z</time>
      </trkpt>
      <trkpt lat="49.46631" lon="1.16193">
        <ele>52.3</ele>
        <time>2022-03-27T08:33:32Z</time>
      </trkpt>
      <trkpt lat="49.46631" lon="1.16191">
        <ele>52.2</ele>
        <time>2022-03-27T08:33:33Z</time>
      </trkpt>
      <trkpt lat="49.46631" lon="1.16192">
        <ele>52.2</ele>
        <time>2022-03-27T08:33:34Z</time>
      </trkpt>
      <trkpt lat="49.46631" lon="1.16193">
        <ele>52.2</ele>
        <time>2022-03-27T08:33:35Z</time>
      </trkpt>
      <trkpt lat="49.46631" lon="1.16193">
        <ele>52.2</ele>
        <time>2022-03-27T08:33:36Z</time>
      </trkpt>
      <trkpt lat="49.46631" lon="1.16193">
        <ele>52.2</ele>
        <time>2022-03-27T08:33:37Z</time>
      </trkpt>
      <trkpt lat="49.46631" lon="1.16194">
        <ele>52.2</ele>
        <time>2022-03-27T08:33:38Z</time>
      </trkpt>
      <trkpt lat="49.46631" lon="1.16194">
        <ele>52.2</ele>
        <time>2022-03-27T08:33:40Z</time>
      </trkpt>
      <trkpt lat="49.46631" lon="1.16194">
        <ele>52.2</ele>
        <time>2022-03-27T08:33:41Z</time>
      </trkpt>
      <trkpt lat="49.46631" lon="1.16194">
        <ele>52.2</ele>
        <time>2022-03-27T08:33:42Z</time>
      </trkpt>
      <trkpt lat="49.46632" lon="1.16188">
        <ele>52.1</ele>
        <time>2022-03-27T08:33:57Z</time>
      </trkpt>
      <trkpt lat="49.46631" lon="1.16185">
        <ele>52</ele>
        <time>2022-03-27T08:33:58Z</time>
      </trkpt>
      <trkpt lat="49.46633" lon="1.16182">
        <ele>52</ele>
        <time>2022-03-27T08:34:00Z</time>
      </trkpt>
      <trkpt lat="49.46632" lon="1.16177">
        <ele>51.9</ele>
        <time>2022-03-27T08:34:01Z</time>
      </trkpt>
      <trkpt lat="49.46632" lon="1.16175">
        <ele>51.9</ele>
        <time>2022-03-27T08:34:02Z</time>
      </trkpt>
      <trkpt lat="49.46632" lon="1.1617">
        <ele>51.9</ele>
        <time>2022-03-27T08:34:03Z</time>
      </trkpt>
      <trkpt lat="49.4663" lon="1.16159">
        <ele>51.7</ele>
        <time>2022-03-27T08:34:04Z</time>
      </trkpt>
      <trkpt lat="49.46625" lon="1.16149">
        <ele>51.6</ele>
        <time>2022-03-27T08:34:06Z</time>
      </trkpt>
      <trkpt lat="49.46621" lon="1.16146">
        <ele>51.5</ele>
        <time>2022-03-27T08:34:08Z</time>
      </trkpt>
      <trkpt lat="49.46618" lon="1.16143">
        <ele>51.4</ele>
        <time>2022-03-27T08:34:09Z</time>
      </trkpt>
      <trkpt lat="49.46615" lon="1.1614">
        <ele>51.4</ele>
        <time>2022-03-27T08:34:10Z</time>
      </trkpt>
      <trkpt lat="49.4661" lon="1.16133">
        <ele>51.3</ele>
        <time>2022-03-27T08:34:11Z</time>
      </trkpt>
      <trkpt lat="49.46605" lon="1.16126">
        <ele>51.2</ele>
        <time>2022-03-27T08:34:12Z</time>
      </trkpt>
      <trkpt lat="49.466" lon="1.16119">
        <ele>51.1</ele>
        <time>2022-03-27T08:34:14Z</time>
      </trkpt>
      <trkpt lat="49.46597" lon="1.16114">
        <ele>51.1</ele>
        <time>2022-03-27T08:34:15Z</time>
      </trkpt>
      <trkpt lat="49.46594" lon="1.16109">
        <ele>51.1</ele>
        <time>2022-03-27T08:34:16Z</time>
      </trkpt>
      <trkpt lat="49.46592" lon="1.16101">
        <ele>51.1</ele>
        <time>2022-03-27T08:34:17Z</time>
      </trkpt>
      <trkpt lat="49.46593" lon="1.16093">
        <ele>51.1</ele>
        <time>2022-03-27T08:34:18Z</time>
      </trkpt>
      <trkpt lat="49.46595" lon="1.1609">
        <ele>51.1</ele>
        <time>2022-03-27T08:34:20Z</time>
      </trkpt>
      <trkpt lat="49.46596" lon="1.1609">
        <ele>51.1</ele>
        <time>2022-03-27T08:34:21Z</time>
      </trkpt>
      <trkpt lat="49.46599" lon="1.1609">
        <ele>51.1</ele>
        <time>2022-03-27T08:34:22Z</time>
      </trkpt>
      <trkpt lat="49.46602" lon="1.16089">
        <ele>51.9</ele>
        <time>2022-03-27T08:34:23Z</time>
      </trkpt>
      <trkpt lat="49.46606" lon="1.16089">
        <ele>52</ele>
        <time>2022-03-27T08:34:24Z</time>
      </trkpt>
      <trkpt lat="49.4661" lon="1.16088">
        <ele>52</ele>
        <time>2022-03-27T08:34:25Z</time>
      </trkpt>
      <trkpt lat="49.46614" lon="1.16088">
        <ele>52.1</ele>
        <time>2022-03-27T08:34:26Z</time>
      </trkpt>
      <trkpt lat="49.46619" lon="1.16087">
        <ele>52.2</ele>
        <time>2022-03-27T08:34:27Z</time>
      </trkpt>
      <trkpt lat="49.46622" lon="1.16085">
        <ele>52.3</ele>
        <time>2022-03-27T08:34:28Z</time>
      </trkpt>
      <trkpt lat="49.46623" lon="1.16076">
        <ele>52.4</ele>
        <time>2022-03-27T08:34:29Z</time>
      </trkpt>
      <trkpt lat="49.46622" lon="1.16065">
        <ele>52.6</ele>
        <time>2022-03-27T08:34:31Z</time>
      </trkpt>
      <trkpt lat="49.46621" lon="1.1606">
        <ele>52.7</ele>
        <time>2022-03-27T08:34:32Z</time>
      </trkpt>
      <trkpt lat="49.4662" lon="1.16053">
        <ele>52.8</ele>
        <time>2022-03-27T08:34:34Z</time>
      </trkpt>
      <trkpt lat="49.46619" lon="1.16048">
        <ele>53</ele>
        <time>2022-03-27T08:34:35Z</time>
      </trkpt>
      <trkpt lat="49.46618" lon="1.16043">
        <ele>53.1</ele>
        <time>2022-03-27T08:34:36Z</time>
      </trkpt>
      <trkpt lat="49.46618" lon="1.16038">
        <ele>53.2</ele>
        <time>2022-03-27T08:34:37Z</time>
      </trkpt>
      <trkpt lat="49.46618" lon="1.16028">
        <ele>53.5</ele>
        <time>2022-03-27T08:34:38Z</time>
      </trkpt>
      <trkpt lat="49.46619" lon="1.16024">
        <ele>53.7</ele>
        <time>2022-03-27T08:34:40Z</time>
      </trkpt>
      <trkpt lat="49.46619" lon="1.16019">
        <ele>53.9</ele>
        <time>2022-03-27T08:34:41Z</time>
      </trkpt>
      <trkpt lat="49.46619" lon="1.16017">
        <ele>54</ele>
        <time>2022-03-27T08:34:42Z</time>
      </trkpt>
      <trkpt lat="49.4662" lon="1.16013">
        <ele>54.2</ele>
        <time>2022-03-27T08:34:43Z</time>
      </trkpt>
      <trkpt lat="49.46622" lon="1.16009">
        <ele>54.4</ele>
        <time>2022-03-27T08:34:44Z</time>
      </trkpt>
      <trkpt lat="49.46623" lon="1.16005">
        <ele>54.6</ele>
        <time>2022-03-27T08:34:45Z</time>
      </trkpt>
      <trkpt lat="49.46625" lon="1.16">
        <ele>54.9</ele>
        <time>2022-03-27T08:34:46Z</time>
      </trkpt>
      <trkpt lat="49.46626" lon="1.15998">
        <ele>55</ele>
        <time>2022-03-27T08:34:47Z</time>
      </trkpt>
      <trkpt lat="49.46628" lon="1.15994">
        <ele>55.3</ele>
        <time>2022-03-27T08:34:48Z</time>
      </trkpt>
      <trkpt lat="49.46629" lon="1.15992">
        <ele>55.5</ele>
        <time>2022-03-27T08:34:49Z</time>
      </trkpt>
      <trkpt lat="49.46631" lon="1.15985">
        <ele>55.9</ele>
        <time>2022-03-27T08:34:50Z</time>
      </trkpt>
      <trkpt lat="49.46633" lon="1.1598">
        <ele>56.2</ele>
        <time>2022-03-27T08:34:51Z</time>
      </trkpt>
      <trkpt lat="49.46633" lon="1.15979">
        <ele>56.2</ele>
        <time>2022-03-27T08:34:52Z</time>
      </trkpt>
      <trkpt lat="49.46634" lon="1.15976">
        <ele>56.3</ele>
        <time>2022-03-27T08:34:53Z</time>
      </trkpt>
      <trkpt lat="49.46634" lon="1.15974">
        <ele>56.4</ele>
        <time>2022-03-27T08:34:54Z</time>
      </trkpt>
      <trkpt lat="49.46633" lon="1.15972">
        <ele>56.5</ele>
        <time>2022-03-27T08:34:55Z</time>
      </trkpt>
      <trkpt lat="49.46633" lon="1.1597">
        <ele>56.5</ele>
        <time>2022-03-27T08:34:56Z</time>
      </trkpt>
      <trkpt lat="49.46634" lon="1.15963">
        <ele>56.8</ele>
        <time>2022-03-27T08:34:57Z</time>
      </trkpt>
      <trkpt lat="49.46634" lon="1.15958">
        <ele>56.9</ele>
        <time>2022-03-27T08:34:58Z</time>
      </trkpt>
      <trkpt lat="49.46634" lon="1.15953">
        <ele>57</ele>
        <time>2022-03-27T08:35:00Z</time>
      </trkpt>
      <trkpt lat="49.46634" lon="1.1595">
        <ele>57.5</ele>
        <time>2022-03-27T08:35:01Z</time>
      </trkpt>
      <trkpt lat="49.46635" lon="1.15949">
        <ele>57.7</ele>
        <time>2022-03-27T08:35:02Z</time>
      </trkpt>
      <trkpt lat="49.46638" lon="1.15946">
        <ele>58.1</ele>
        <time>2022-03-27T08:35:03Z</time>
      </trkpt>
      <trkpt lat="49.46639" lon="1.15946">
        <ele>58.2</ele>
        <time>2022-03-27T08:35:05Z</time>
      </trkpt>
      <trkpt lat="49.4664" lon="1.15945">
        <ele>58.3</ele>
        <time>2022-03-27T08:35:06Z</time>
      </trkpt>
      <trkpt lat="49.46641" lon="1.15944">
        <ele>58.4</ele>
        <time>2022-03-27T08:35:07Z</time>
      </trkpt>
      <trkpt lat="49.46641" lon="1.15944">
        <ele>58.5</ele>
        <time>2022-03-27T08:35:09Z</time>
      </trkpt>
      <trkpt lat="49.46642" lon="1.15943">
        <ele>58.7</ele>
        <time>2022-03-27T08:35:10Z</time>
      </trkpt>
      <trkpt lat="49.46643" lon="1.15942">
        <ele>58.8</ele>
        <time>2022-03-27T08:35:12Z</time>
      </trkpt>
      <trkpt lat="49.46643" lon="1.1594">
        <ele>58.9</ele>
        <time>2022-03-27T08:35:14Z</time>
      </trkpt>
      <trkpt lat="49.46643" lon="1.1594">
        <ele>59</ele>
        <time>2022-03-27T08:35:15Z</time>
      </trkpt>
      <trkpt lat="49.46644" lon="1.15938">
        <ele>59.2</ele>
        <time>2022-03-27T08:35:17Z</time>
      </trkpt>
      <trkpt lat="49.46645" lon="1.15939">
        <ele>59.5</ele>
        <time>2022-03-27T08:35:18Z</time>
      </trkpt>
      <trkpt lat="49.46646" lon="1.15939">
        <ele>59.5</ele>
        <time>2022-03-27T08:35:19Z</time>
      </trkpt>
      <trkpt lat="49.46646" lon="1.15939">
        <ele>59.6</ele>
        <time>2022-03-27T08:35:20Z</time>
      </trkpt>
      <trkpt lat="49.46646" lon="1.15939">
        <ele>59.6</ele>
        <time>2022-03-27T08:35:21Z</time>
      </trkpt>
      <trkpt lat="49.46647" lon="1.15939">
        <ele>59.7</ele>
        <time>2022-03-27T08:35:22Z</time>
      </trkpt>
      <trkpt lat="49.46647" lon="1.15939">
        <ele>59.7</ele>
        <time>2022-03-27T08:35:23Z</time>
      </trkpt>
      <trkpt lat="49.46648" lon="1.15939">
        <ele>59.8</ele>
        <time>2022-03-27T08:35:24Z</time>
      </trkpt>
      <trkpt lat="49.46648" lon="1.15939">
        <ele>59.9</ele>
        <time>2022-03-27T08:35:26Z</time>
      </trkpt>
      <trkpt lat="49.46649" lon="1.15939">
        <ele>60.1</ele>
        <time>2022-03-27T08:35:29Z</time>
      </trkpt>
      <trkpt lat="49.4665" lon="1.15938">
        <ele>60.1</ele>
        <time>2022-03-27T08:35:30Z</time>
      </trkpt>
      <trkpt lat="49.46649" lon="1.15938">
        <ele>60.2</ele>
        <time>2022-03-27T08:35:31Z</time>
      </trkpt>
      <trkpt lat="49.4665" lon="1.15937">
        <ele>60.2</ele>
        <time>2022-03-27T08:35:32Z</time>
      </trkpt>
      <trkpt lat="49.46651" lon="1.15936">
        <ele>60.5</ele>
        <time>2022-03-27T08:35:33Z</time>
      </trkpt>
      <trkpt lat="49.46651" lon="1.15936">
        <ele>60.6</ele>
        <time>2022-03-27T08:35:34Z</time>
      </trkpt>
      <trkpt lat="49.46652" lon="1.15936">
        <ele>60.7</ele>
        <time>2022-03-27T08:35:36Z</time>
      </trkpt>
      <trkpt lat="49.46653" lon="1.15936">
        <ele>60.8</ele>
        <time>2022-03-27T08:35:37Z</time>
      </trkpt>
      <trkpt lat="49.46654" lon="1.15936">
        <ele>61</ele>
        <time>2022-03-27T08:35:38Z</time>
      </trkpt>
      <trkpt lat="49.46654" lon="1.15938">
        <ele>61.1</ele>
        <time>2022-03-27T08:35:39Z</time>
      </trkpt>
      <trkpt lat="49.46655" lon="1.1594">
        <ele>61.4</ele>
        <time>2022-03-27T08:35:40Z</time>
      </trkpt>
      <trkpt lat="49.46656" lon="1.15941">
        <ele>61.6</ele>
        <time>2022-03-27T08:35:41Z</time>
      </trkpt>
      <trkpt lat="49.46657" lon="1.15942">
        <ele>61.7</ele>
        <time>2022-03-27T08:35:43Z</time>
      </trkpt>
      <trkpt lat="49.46658" lon="1.15943">
        <ele>61.9</ele>
        <time>2022-03-27T08:35:44Z</time>
      </trkpt>
      <trkpt lat="49.46658" lon="1.15944">
        <ele>62</ele>
        <time>2022-03-27T08:35:45Z</time>
      </trkpt>
      <trkpt lat="49.46659" lon="1.15946">
        <ele>62.2</ele>
        <time>2022-03-27T08:35:46Z</time>
      </trkpt>
      <trkpt lat="49.46661" lon="1.15948">
        <ele>62.6</ele>
        <time>2022-03-27T08:35:47Z</time>
      </trkpt>
      <trkpt lat="49.46662" lon="1.1595">
        <ele>62.9</ele>
        <time>2022-03-27T08:35:49Z</time>
      </trkpt>
      <trkpt lat="49.46664" lon="1.15952">
        <ele>63.3</ele>
        <time>2022-03-27T08:35:50Z</time>
      </trkpt>
      <trkpt lat="49.46665" lon="1.15953">
        <ele>63.5</ele>
        <time>2022-03-27T08:35:51Z</time>
      </trkpt>
      <trkpt lat="49.46666" lon="1.15954">
        <ele>63.7</ele>
        <time>2022-03-27T08:35:52Z</time>
      </trkpt>
      <trkpt lat="49.46668" lon="1.15955">
        <ele>64.1</ele>
        <time>2022-03-27T08:35:54Z</time>
      </trkpt>
      <trkpt lat="49.4667" lon="1.15956">
        <ele>64.4</ele>
        <time>2022-03-27T08:35:55Z</time>
      </trkpt>
      <trkpt lat="49.46671" lon="1.15956">
        <ele>64.7</ele>
        <time>2022-03-27T08:35:56Z</time>
      </trkpt>
      <trkpt lat="49.46673" lon="1.15956">
        <ele>65</ele>
        <time>2022-03-27T08:35:57Z</time>
      </trkpt>
      <trkpt lat="49.46674" lon="1.15957">
        <ele>65.2</ele>
        <time>2022-03-27T08:35:58Z</time>
      </trkpt>
      <trkpt lat="49.46676" lon="1.15957">
        <ele>65.6</ele>
        <time>2022-03-27T08:35:59Z</time>
      </trkpt>
      <trkpt lat="49.46677" lon="1.15957">
        <ele>65.8</ele>
        <time>2022-03-27T08:36:00Z</time>
      </trkpt>
      <trkpt lat="49.46679" lon="1.15956">
        <ele>66.1</ele>
        <time>2022-03-27T08:36:02Z</time>
      </trkpt>
      <trkpt lat="49.4668" lon="1.15955">
        <ele>66.3</ele>
        <time>2022-03-27T08:36:03Z</time>
      </trkpt>
      <trkpt lat="49.46682" lon="1.15954">
        <ele>66.7</ele>
        <time>2022-03-27T08:36:05Z</time>
      </trkpt>
      <trkpt lat="49.46683" lon="1.15954">
        <ele>66.9</ele>
        <time>2022-03-27T08:36:06Z</time>
      </trkpt>
      <trkpt lat="49.46683" lon="1.15954">
        <ele>67</ele>
        <time>2022-03-27T08:36:07Z</time>
      </trkpt>
      <trkpt lat="49.46685" lon="1.15953">
        <ele>67.3</ele>
        <time>2022-03-27T08:36:09Z</time>
      </trkpt>
      <trkpt lat="49.46685" lon="1.15953">
        <ele>67.3</ele>
        <time>2022-03-27T08:36:10Z</time>
      </trkpt>
      <trkpt lat="49.46686" lon="1.15953">
        <ele>67.5</ele>
        <time>2022-03-27T08:36:12Z</time>
      </trkpt>
      <trkpt lat="49.46686" lon="1.15953">
        <ele>67.6</ele>
        <time>2022-03-27T08:36:13Z</time>
      </trkpt>
      <trkpt lat="49.46688" lon="1.15953">
        <ele>67.8</ele>
        <time>2022-03-27T08:36:14Z</time>
      </trkpt>
      <trkpt lat="49.46688" lon="1.15953">
        <ele>67.9</ele>
        <time>2022-03-27T08:36:15Z</time>
      </trkpt>
      <trkpt lat="49.46688" lon="1.15953">
        <ele>67.9</ele>
        <time>2022-03-27T08:36:16Z</time>
      </trkpt>
      <trkpt lat="49.46688" lon="1.15953">
        <ele>67.9</ele>
        <time>2022-03-27T08:36:17Z</time>
      </trkpt>
      <trkpt lat="49.46688" lon="1.15953">
        <ele>68</ele>
        <time>2022-03-27T08:36:18Z</time>
      </trkpt>
      <trkpt lat="49.46688" lon="1.15953">
        <ele>68</ele>
        <time>2022-03-27T08:36:19Z</time>
      </trkpt>
      <trkpt lat="49.46682" lon="1.15959">
        <ele>69.4</ele>
        <time>2022-03-27T08:36:55Z</time>
      </trkpt>
      <trkpt lat="49.46684" lon="1.1596">
        <ele>69.6</ele>
        <time>2022-03-27T08:36:56Z</time>
      </trkpt>
      <trkpt lat="49.46685" lon="1.1596">
        <ele>69.8</ele>
        <time>2022-03-27T08:36:57Z</time>
      </trkpt>
      <trkpt lat="49.46686" lon="1.1596">
        <ele>70.2</ele>
        <time>2022-03-27T08:36:58Z</time>
      </trkpt>
      <trkpt lat="49.46688" lon="1.1596">
        <ele>70.5</ele>
        <time>2022-03-27T08:36:59Z</time>
      </trkpt>
      <trkpt lat="49.46689" lon="1.1596">
        <ele>70.8</ele>
        <time>2022-03-27T08:37:01Z</time>
      </trkpt>
      <trkpt lat="49.46691" lon="1.15961">
        <ele>71.1</ele>
        <time>2022-03-27T08:37:02Z</time>
      </trkpt>
      <trkpt lat="49.46696" lon="1.15961">
        <ele>72.1</ele>
        <time>2022-03-27T08:37:03Z</time>
      </trkpt>
      <trkpt lat="49.46698" lon="1.15962">
        <ele>72.6</ele>
        <time>2022-03-27T08:37:05Z</time>
      </trkpt>
      <trkpt lat="49.46699" lon="1.15962">
        <ele>72.8</ele>
        <time>2022-03-27T08:37:06Z</time>
      </trkpt>
      <trkpt lat="49.467" lon="1.15961">
        <ele>73</ele>
        <time>2022-03-27T08:37:07Z</time>
      </trkpt>
      <trkpt lat="49.46702" lon="1.15959">
        <ele>73.5</ele>
        <time>2022-03-27T08:37:09Z</time>
      </trkpt>
      <trkpt lat="49.46704" lon="1.15958">
        <ele>73.9</ele>
        <time>2022-03-27T08:37:11Z</time>
      </trkpt>
      <trkpt lat="49.46705" lon="1.15957">
        <ele>74.2</ele>
        <time>2022-03-27T08:37:12Z</time>
      </trkpt>
      <trkpt lat="49.46706" lon="1.15956">
        <ele>74.5</ele>
        <time>2022-03-27T08:37:13Z</time>
      </trkpt>
      <trkpt lat="49.46708" lon="1.15954">
        <ele>75</ele>
        <time>2022-03-27T08:37:14Z</time>
      </trkpt>
      <trkpt lat="49.4671" lon="1.15953">
        <ele>75.4</ele>
        <time>2022-03-27T08:37:16Z</time>
      </trkpt>
      <trkpt lat="49.4671" lon="1.15953">
        <ele>75.5</ele>
        <time>2022-03-27T08:37:17Z</time>
      </trkpt>
      <trkpt lat="49.46711" lon="1.15952">
        <ele>75.7</ele>
        <time>2022-03-27T08:37:18Z</time>
      </trkpt>
      <trkpt lat="49.46713" lon="1.1595">
        <ele>76.2</ele>
        <time>2022-03-27T08:37:19Z</time>
      </trkpt>
      <trkpt lat="49.46714" lon="1.1595">
        <ele>76.4</ele>
        <time>2022-03-27T08:37:20Z</time>
      </trkpt>
      <trkpt lat="49.46715" lon="1.15949">
        <ele>76.7</ele>
        <time>2022-03-27T08:37:21Z</time>
      </trkpt>
      <trkpt lat="49.46715" lon="1.15948">
        <ele>76.8</ele>
        <time>2022-03-27T08:37:23Z</time>
      </trkpt>
      <trkpt lat="49.46715" lon="1.15948">
        <ele>76.8</ele>
        <time>2022-03-27T08:37:24Z</time>
      </trkpt>
      <trkpt lat="49.46716" lon="1.15948">
        <ele>76.8</ele>
        <time>2022-03-27T08:37:25Z</time>
      </trkpt>
      <trkpt lat="49.46716" lon="1.15948">
        <ele>76.9</ele>
        <time>2022-03-27T08:37:26Z</time>
      </trkpt>
      <trkpt lat="49.46716" lon="1.15947">
        <ele>77</ele>
        <time>2022-03-27T08:37:27Z</time>
      </trkpt>
      <trkpt lat="49.46716" lon="1.15947">
        <ele>77</ele>
        <time>2022-03-27T08:37:28Z</time>
      </trkpt>
      <trkpt lat="49.46716" lon="1.15947">
        <ele>77.1</ele>
        <time>2022-03-27T08:37:29Z</time>
      </trkpt>
      <trkpt lat="49.46716" lon="1.15946">
        <ele>77.1</ele>
        <time>2022-03-27T08:37:30Z</time>
      </trkpt>
      <trkpt lat="49.46716" lon="1.15946">
        <ele>77.1</ele>
        <time>2022-03-27T08:37:31Z</time>
      </trkpt>
      <trkpt lat="49.46717" lon="1.15943">
        <ele>77.7</ele>
        <time>2022-03-27T08:38:36Z</time>
      </trkpt>
      <trkpt lat="49.46718" lon="1.15942">
        <ele>77.9</ele>
        <time>2022-03-27T08:38:37Z</time>
      </trkpt>
      <trkpt lat="49.46719" lon="1.15943">
        <ele>78.1</ele>
        <time>2022-03-27T08:38:39Z</time>
      </trkpt>
      <trkpt lat="49.4672" lon="1.15942">
        <ele>78.2</ele>
        <time>2022-03-27T08:38:41Z</time>
      </trkpt>
      <trkpt lat="49.4672" lon="1.15943">
        <ele>78.4</ele>
        <time>2022-03-27T08:38:42Z</time>
      </trkpt>
      <trkpt lat="49.46721" lon="1.15945">
        <ele>78.7</ele>
        <time>2022-03-27T08:38:43Z</time>
      </trkpt>
      <trkpt lat="49.46722" lon="1.15946">
        <ele>78.9</ele>
        <time>2022-03-27T08:38:45Z</time>
      </trkpt>
      <trkpt lat="49.46722" lon="1.15946">
        <ele>79</ele>
        <time>2022-03-27T08:38:46Z</time>
      </trkpt>
      <trkpt lat="49.46723" lon="1.15947">
        <ele>79.1</ele>
        <time>2022-03-27T08:38:47Z</time>
      </trkpt>
      <trkpt lat="49.46723" lon="1.15948">
        <ele>79.2</ele>
        <time>2022-03-27T08:38:48Z</time>
      </trkpt>
      <trkpt lat="49.46723" lon="1.15949">
        <ele>79.4</ele>
        <time>2022-03-27T08:38:49Z</time>
      </trkpt>
      <trkpt lat="49.46724" lon="1.15948">
        <ele>79.6</ele>
        <time>2022-03-27T08:38:51Z</time>
      </trkpt>
      <trkpt lat="49.46725" lon="1.15948">
        <ele>79.7</ele>
        <time>2022-03-27T08:38:52Z</time>
      </trkpt>
      <trkpt lat="49.46725" lon="1.15947">
        <ele>79.8</ele>
        <time>2022-03-27T08:38:53Z</time>
      </trkpt>
      <trkpt lat="49.46726" lon="1.15949">
        <ele>80</ele>
        <time>2022-03-27T08:38:55Z</time>
      </trkpt>
      <trkpt lat="49.46726" lon="1.15949">
        <ele>80.1</ele>
        <time>2022-03-27T08:38:56Z</time>
      </trkpt>
      <trkpt lat="49.46727" lon="1.1595">
        <ele>80.3</ele>
        <time>2022-03-27T08:38:57Z</time>
      </trkpt>
      <trkpt lat="49.46727" lon="1.15951">
        <ele>80.4</ele>
        <time>2022-03-27T08:38:58Z</time>
      </trkpt>
      <trkpt lat="49.46728" lon="1.15954">
        <ele>80.7</ele>
        <time>2022-03-27T08:38:59Z</time>
      </trkpt>
      <trkpt lat="49.46729" lon="1.15955">
        <ele>80.9</ele>
        <time>2022-03-27T08:39:00Z</time>
      </trkpt>
      <trkpt lat="49.46729" lon="1.15957">
        <ele>81.1</ele>
        <time>2022-03-27T08:39:01Z</time>
      </trkpt>
      <trkpt lat="49.46732" lon="1.15957">
        <ele>81.5</ele>
        <time>2022-03-27T08:39:02Z</time>
      </trkpt>
      <trkpt lat="49.46734" lon="1.15957">
        <ele>81.8</ele>
        <time>2022-03-27T08:39:04Z</time>
      </trkpt>
      <trkpt lat="49.46736" lon="1.15957">
        <ele>82</ele>
        <time>2022-03-27T08:39:05Z</time>
      </trkpt>
      <trkpt lat="49.46737" lon="1.15955">
        <ele>82.3</ele>
        <time>2022-03-27T08:39:06Z</time>
      </trkpt>
      <trkpt lat="49.46739" lon="1.15954">
        <ele>82.6</ele>
        <time>2022-03-27T08:39:07Z</time>
      </trkpt>
      <trkpt lat="49.4674" lon="1.15953">
        <ele>82.8</ele>
        <time>2022-03-27T08:39:08Z</time>
      </trkpt>
      <trkpt lat="49.46741" lon="1.15952">
        <ele>82.9</ele>
        <time>2022-03-27T08:39:09Z</time>
      </trkpt>
      <trkpt lat="49.46741" lon="1.15951">
        <ele>83</ele>
        <time>2022-03-27T08:39:10Z</time>
      </trkpt>
      <trkpt lat="49.46742" lon="1.15951">
        <ele>83.2</ele>
        <time>2022-03-27T08:39:11Z</time>
      </trkpt>
      <trkpt lat="49.46741" lon="1.15948">
        <ele>83.5</ele>
        <time>2022-03-27T08:39:12Z</time>
      </trkpt>
      <trkpt lat="49.46741" lon="1.15946">
        <ele>83.7</ele>
        <time>2022-03-27T08:39:13Z</time>
      </trkpt>
      <trkpt lat="49.4674" lon="1.15944">
        <ele>83.8</ele>
        <time>2022-03-27T08:39:14Z</time>
      </trkpt>
      <trkpt lat="49.4674" lon="1.15944">
        <ele>83.9</ele>
        <time>2022-03-27T08:39:15Z</time>
      </trkpt>
      <trkpt lat="49.4674" lon="1.15943">
        <ele>83.9</ele>
        <time>2022-03-27T08:39:16Z</time>
      </trkpt>
      <trkpt lat="49.46741" lon="1.15943">
        <ele>84</ele>
        <time>2022-03-27T08:39:17Z</time>
      </trkpt>
      <trkpt lat="49.46741" lon="1.15943">
        <ele>84</ele>
        <time>2022-03-27T08:39:18Z</time>
      </trkpt>
      <trkpt lat="49.46741" lon="1.15943">
        <ele>84</ele>
        <time>2022-03-27T08:39:19Z</time>
      </trkpt>
      <trkpt lat="49.46741" lon="1.15943">
        <ele>84</ele>
        <time>2022-03-27T08:39:20Z</time>
      </trkpt>
      <trkpt lat="49.46741" lon="1.15943">
        <ele>84</ele>
        <time>2022-03-27T08:39:21Z</time>
      </trkpt>
      <trkpt lat="49.46741" lon="1.15943">
        <ele>84.1</ele>
        <time>2022-03-27T08:39:22Z</time>
      </trkpt>
      <trkpt lat="49.46741" lon="1.15943">
        <ele>84.1</ele>
        <time>2022-03-27T08:39:23Z</time>
      </trkpt>
      <trkpt lat="49.46741" lon="1.15943">
        <ele>84.1</ele>
        <time>2022-03-27T08:39:24Z</time>
      </trkpt>
      <trkpt lat="49.46741" lon="1.15943">
        <ele>84.1</ele>
        <time>2022-03-27T08:39:25Z</time>
      </trkpt>
      <trkpt lat="49.46741" lon="1.15944">
        <ele>84.2</ele>
        <time>2022-03-27T08:39:26Z</time>
      </trkpt>
      <trkpt lat="49.46741" lon="1.15944">
        <ele>84.2</ele>
        <time>2022-03-27T08:39:27Z</time>
      </trkpt>
      <trkpt lat="49.46742" lon="1.15944">
        <ele>84.3</ele>
        <time>2022-03-27T08:39:28Z</time>
      </trkpt>
      <trkpt lat="49.46742" lon="1.15945">
        <ele>84.3</ele>
        <time>2022-03-27T08:39:29Z</time>
      </trkpt>
      <trkpt lat="49.46742" lon="1.15946">
        <ele>84.4</ele>
        <time>2022-03-27T08:39:31Z</time>
      </trkpt>
      <trkpt lat="49.46743" lon="1.15945">
        <ele>84.5</ele>
        <time>2022-03-27T08:39:32Z</time>
      </trkpt>
      <trkpt lat="49.46745" lon="1.15944">
        <ele>84.8</ele>
        <time>2022-03-27T08:39:33Z</time>
      </trkpt>
      <trkpt lat="49.46747" lon="1.15943">
        <ele>85</ele>
        <time>2022-03-27T08:39:34Z</time>
      </trkpt>
      <trkpt lat="49.46749" lon="1.15942">
        <ele>85.3</ele>
        <time>2022-03-27T08:39:36Z</time>
      </trkpt>
      <trkpt lat="49.4675" lon="1.15942">
        <ele>85.4</ele>
        <time>2022-03-27T08:39:37Z</time>
      </trkpt>
      <trkpt lat="49.46751" lon="1.15941">
        <ele>85.5</ele>
        <time>2022-03-27T08:39:38Z</time>
      </trkpt>
      <trkpt lat="49.46752" lon="1.15941">
        <ele>85.7</ele>
        <time>2022-03-27T08:39:39Z</time>
      </trkpt>
      <trkpt lat="49.46753" lon="1.1594">
        <ele>85.9</ele>
        <time>2022-03-27T08:39:40Z</time>
      </trkpt>
      <trkpt lat="49.46756" lon="1.1594">
        <ele>86.3</ele>
        <time>2022-03-27T08:39:41Z</time>
      </trkpt>
      <trkpt lat="49.46759" lon="1.15941">
        <ele>86.6</ele>
        <time>2022-03-27T08:39:43Z</time>
      </trkpt>
      <trkpt lat="49.4676" lon="1.15941">
        <ele>86.7</ele>
        <time>2022-03-27T08:39:44Z</time>
      </trkpt>
      <trkpt lat="49.46762" lon="1.1594">
        <ele>87</ele>
        <time>2022-03-27T08:39:45Z</time>
      </trkpt>
      <trkpt lat="49.46765" lon="1.1594">
        <ele>87.3</ele>
        <time>2022-03-27T08:39:46Z</time>
      </trkpt>
      <trkpt lat="49.46767" lon="1.15941">
        <ele>87.5</ele>
        <time>2022-03-27T08:39:48Z</time>
      </trkpt>
      <trkpt lat="49.46768" lon="1.15942">
        <ele>87.7</ele>
        <time>2022-03-27T08:39:49Z</time>
      </trkpt>
      <trkpt lat="49.4677" lon="1.15943">
        <ele>87.9</ele>
        <time>2022-03-27T08:39:50Z</time>
      </trkpt>
      <trkpt lat="49.46771" lon="1.15943">
        <ele>88.1</ele>
        <time>2022-03-27T08:39:51Z</time>
      </trkpt>
      <trkpt lat="49.46772" lon="1.15944">
        <ele>88.2</ele>
        <time>2022-03-27T08:39:52Z</time>
      </trkpt>
      <trkpt lat="49.46773" lon="1.15945">
        <ele>88.4</ele>
        <time>2022-03-27T08:39:53Z</time>
      </trkpt>
      <trkpt lat="49.46774" lon="1.15945">
        <ele>88.5</ele>
        <time>2022-03-27T08:39:54Z</time>
      </trkpt>
      <trkpt lat="49.46775" lon="1.15946">
        <ele>88.7</ele>
        <time>2022-03-27T08:39:55Z</time>
      </trkpt>
      <trkpt lat="49.46776" lon="1.15946">
        <ele>88.8</ele>
        <time>2022-03-27T08:39:56Z</time>
      </trkpt>
      <trkpt lat="49.46778" lon="1.15944">
        <ele>89.1</ele>
        <time>2022-03-27T08:39:57Z</time>
      </trkpt>
      <trkpt lat="49.46778" lon="1.15943">
        <ele>89.2</ele>
        <time>2022-03-27T08:39:58Z</time>
      </trkpt>
      <trkpt lat="49.46779" lon="1.15942">
        <ele>89.3</ele>
        <time>2022-03-27T08:39:59Z</time>
      </trkpt>
      <trkpt lat="49.46781" lon="1.15942">
        <ele>89.5</ele>
        <time>2022-03-27T08:40:00Z</time>
      </trkpt>
      <trkpt lat="49.46783" lon="1.15941">
        <ele>89.8</ele>
        <time>2022-03-27T08:40:02Z</time>
      </trkpt>
      <trkpt lat="49.46784" lon="1.1594">
        <ele>90.1</ele>
        <time>2022-03-27T08:40:03Z</time>
      </trkpt>
      <trkpt lat="49.46786" lon="1.15938">
        <ele>90.3</ele>
        <time>2022-03-27T08:40:04Z</time>
      </trkpt>
      <trkpt lat="49.46788" lon="1.15938">
        <ele>90.5</ele>
        <time>2022-03-27T08:40:05Z</time>
      </trkpt>
      <trkpt lat="49.46789" lon="1.15938">
        <ele>90.8</ele>
        <time>2022-03-27T08:40:06Z</time>
      </trkpt>
      <trkpt lat="49.46792" lon="1.15937">
        <ele>91.1</ele>
        <time>2022-03-27T08:40:07Z</time>
      </trkpt>
      <trkpt lat="49.46793" lon="1.15936">
        <ele>91.2</ele>
        <time>2022-03-27T08:40:08Z</time>
      </trkpt>
      <trkpt lat="49.46795" lon="1.15936">
        <ele>91.5</ele>
        <time>2022-03-27T08:40:09Z</time>
      </trkpt>
      <trkpt lat="49.46796" lon="1.15936">
        <ele>91.7</ele>
        <time>2022-03-27T08:40:10Z</time>
      </trkpt>
      <trkpt lat="49.46798" lon="1.15935">
        <ele>91.8</ele>
        <time>2022-03-27T08:40:11Z</time>
      </trkpt>
      <trkpt lat="49.46799" lon="1.15935">
        <ele>92</ele>
        <time>2022-03-27T08:40:12Z</time>
      </trkpt>
      <trkpt lat="49.468" lon="1.15934">
        <ele>92.2</ele>
        <time>2022-03-27T08:40:13Z</time>
      </trkpt>
      <trkpt lat="49.46802" lon="1.15934">
        <ele>92.4</ele>
        <time>2022-03-27T08:40:14Z</time>
      </trkpt>
      <trkpt lat="49.46803" lon="1.15933">
        <ele>92.6</ele>
        <time>2022-03-27T08:40:15Z</time>
      </trkpt>
      <trkpt lat="49.46805" lon="1.15932">
        <ele>92.8</ele>
        <time>2022-03-27T08:40:16Z</time>
      </trkpt>
      <trkpt lat="49.46807" lon="1.15932">
        <ele>93</ele>
        <time>2022-03-27T08:40:17Z</time>
      </trkpt>
      <trkpt lat="49.46808" lon="1.15932">
        <ele>93.2</ele>
        <time>2022-03-27T08:40:18Z</time>
      </trkpt>
      <trkpt lat="49.4681" lon="1.15932">
        <ele>93.3</ele>
        <time>2022-03-27T08:40:19Z</time>
      </trkpt>
      <trkpt lat="49.46811" lon="1.15933">
        <ele>93.5</ele>
        <time>2022-03-27T08:40:20Z</time>
      </trkpt>
      <trkpt lat="49.46814" lon="1.15935">
        <ele>93.9</ele>
        <time>2022-03-27T08:40:22Z</time>
      </trkpt>
      <trkpt lat="49.46815" lon="1.15937">
        <ele>94.1</ele>
        <time>2022-03-27T08:40:23Z</time>
      </trkpt>
      <trkpt lat="49.46817" lon="1.15937">
        <ele>94.3</ele>
        <time>2022-03-27T08:40:24Z</time>
      </trkpt>
      <trkpt lat="49.46818" lon="1.15938">
        <ele>94.4</ele>
        <time>2022-03-27T08:40:26Z</time>
      </trkpt>
      <trkpt lat="49.4682" lon="1.15939">
        <ele>94.7</ele>
        <time>2022-03-27T08:40:27Z</time>
      </trkpt>
      <trkpt lat="49.46822" lon="1.15939">
        <ele>94.9</ele>
        <time>2022-03-27T08:40:29Z</time>
      </trkpt>
      <trkpt lat="49.46825" lon="1.15939">
        <ele>95.1</ele>
        <time>2022-03-27T08:40:30Z</time>
      </trkpt>
      <trkpt lat="49.46827" lon="1.15939">
        <ele>95.3</ele>
        <time>2022-03-27T08:40:32Z</time>
      </trkpt>
      <trkpt lat="49.46829" lon="1.15939">
        <ele>95.5</ele>
        <time>2022-03-27T08:40:34Z</time>
      </trkpt>
      <trkpt lat="49.4683" lon="1.1594">
        <ele>95.6</ele>
        <time>2022-03-27T08:40:35Z</time>
      </trkpt>
      <trkpt lat="49.46832" lon="1.1594">
        <ele>95.8</ele>
        <time>2022-03-27T08:40:36Z</time>
      </trkpt>
      <trkpt lat="49.46834" lon="1.15941">
        <ele>96</ele>
        <time>2022-03-27T08:40:37Z</time>
      </trkpt>
      <trkpt lat="49.46835" lon="1.15942">
        <ele>96.1</ele>
        <time>2022-03-27T08:40:38Z</time>
      </trkpt>
      <trkpt lat="49.46837" lon="1.15943">
        <ele>96.3</ele>
        <time>2022-03-27T08:40:40Z</time>
      </trkpt>
      <trkpt lat="49.46839" lon="1.15943">
        <ele>96.5</ele>
        <time>2022-03-27T08:40:42Z</time>
      </trkpt>
      <trkpt lat="49.46841" lon="1.15943">
        <ele>96.5</ele>
        <time>2022-03-27T08:40:43Z</time>
      </trkpt>
      <trkpt lat="49.46842" lon="1.15943">
        <ele>96.6</ele>
        <time>2022-03-27T08:40:44Z</time>
      </trkpt>
      <trkpt lat="49.46846" lon="1.15942">
        <ele>96.7</ele>
        <time>2022-03-27T08:40:46Z</time>
      </trkpt>
      <trkpt lat="49.46849" lon="1.1594">
        <ele>96.7</ele>
        <time>2022-03-27T08:40:48Z</time>
      </trkpt>
      <trkpt lat="49.4685" lon="1.15939">
        <ele>96.7</ele>
        <time>2022-03-27T08:40:49Z</time>
      </trkpt>
      <trkpt lat="49.46852" lon="1.15938">
        <ele>96.7</ele>
        <time>2022-03-27T08:40:50Z</time>
      </trkpt>
      <trkpt lat="49.46854" lon="1.15936">
        <ele>96.7</ele>
        <time>2022-03-27T08:40:51Z</time>
      </trkpt>
      <trkpt lat="49.46855" lon="1.15936">
        <ele>96.7</ele>
        <time>2022-03-27T08:40:52Z</time>
      </trkpt>
      <trkpt lat="49.46856" lon="1.15934">
        <ele>96.6</ele>
        <time>2022-03-27T08:40:53Z</time>
      </trkpt>
      <trkpt lat="49.46858" lon="1.15931">
        <ele>96.5</ele>
        <time>2022-03-27T08:40:55Z</time>
      </trkpt>
      <trkpt lat="49.46859" lon="1.15929">
        <ele>96.5</ele>
        <time>2022-03-27T08:40:56Z</time>
      </trkpt>
      <trkpt lat="49.46861" lon="1.15928">
        <ele>96.4</ele>
        <time>2022-03-27T08:40:57Z</time>
      </trkpt>
      <trkpt lat="49.46862" lon="1.15926">
        <ele>96.4</ele>
        <time>2022-03-27T08:40:58Z</time>
      </trkpt>
      <trkpt lat="49.46863" lon="1.15926">
        <ele>96.4</ele>
        <time>2022-03-27T08:40:59Z</time>
      </trkpt>
      <trkpt lat="49.46864" lon="1.15926">
        <ele>96.2</ele>
        <time>2022-03-27T08:41:01Z</time>
      </trkpt>
      <trkpt lat="49.46865" lon="1.15925">
        <ele>96.1</ele>
        <time>2022-03-27T08:41:02Z</time>
      </trkpt>
      <trkpt lat="49.46865" lon="1.15924">
        <ele>96</ele>
        <time>2022-03-27T08:41:03Z</time>
      </trkpt>
      <trkpt lat="49.46862" lon="1.15921">
        <ele>95.5</ele>
        <time>2022-03-27T08:41:05Z</time>
      </trkpt>
      <trkpt lat="49.46861" lon="1.15922">
        <ele>95.3</ele>
        <time>2022-03-27T08:41:06Z</time>
      </trkpt>
      <trkpt lat="49.46859" lon="1.15923">
        <ele>95</ele>
        <time>2022-03-27T08:41:08Z</time>
      </trkpt>
      <trkpt lat="49.46857" lon="1.15923">
        <ele>94.9</ele>
        <time>2022-03-27T08:41:09Z</time>
      </trkpt>
      <trkpt lat="49.46856" lon="1.15922">
        <ele>94.7</ele>
        <time>2022-03-27T08:41:10Z</time>
      </trkpt>
      <trkpt lat="49.46856" lon="1.1592">
        <ele>94.5</ele>
        <time>2022-03-27T08:41:11Z</time>
      </trkpt>
      <trkpt lat="49.46855" lon="1.15921">
        <ele>94.4</ele>
        <time>2022-03-27T08:41:13Z</time>
      </trkpt>
      <trkpt lat="49.46855" lon="1.15923">
        <ele>94.3</ele>
        <time>2022-03-27T08:41:14Z</time>
      </trkpt>
      <trkpt lat="49.46854" lon="1.15924">
        <ele>94.2</ele>
        <time>2022-03-27T08:41:15Z</time>
      </trkpt>
      <trkpt lat="49.46855" lon="1.15924">
        <ele>94.1</ele>
        <time>2022-03-27T08:41:16Z</time>
      </trkpt>
      <trkpt lat="49.46855" lon="1.15925">
        <ele>94.1</ele>
        <time>2022-03-27T08:41:17Z</time>
      </trkpt>
      <trkpt lat="49.46855" lon="1.15924">
        <ele>94</ele>
        <time>2022-03-27T08:41:19Z</time>
      </trkpt>
      <trkpt lat="49.46855" lon="1.15925">
        <ele>94</ele>
        <time>2022-03-27T08:41:20Z</time>
      </trkpt>
      <trkpt lat="49.46855" lon="1.15925">
        <ele>94</ele>
        <time>2022-03-27T08:41:21Z</time>
      </trkpt>
      <trkpt lat="49.46855" lon="1.15925">
        <ele>93.9</ele>
        <time>2022-03-27T08:41:22Z</time>
      </trkpt>
      <trkpt lat="49.46855" lon="1.15926">
        <ele>93.8</ele>
        <time>2022-03-27T08:41:23Z</time>
      </trkpt>
      <trkpt lat="49.46856" lon="1.15927">
        <ele>93.7</ele>
        <time>2022-03-27T08:41:24Z</time>
      </trkpt>
      <trkpt lat="49.46856" lon="1.15927">
        <ele>93.6</ele>
        <time>2022-03-27T08:41:25Z</time>
      </trkpt>
      <trkpt lat="49.46857" lon="1.15928">
        <ele>93.5</ele>
        <time>2022-03-27T08:41:26Z</time>
      </trkpt>
      <trkpt lat="49.46858" lon="1.15928">
        <ele>93.4</ele>
        <time>2022-03-27T08:41:27Z</time>
      </trkpt>
      <trkpt lat="49.46859" lon="1.15928">
        <ele>93.3</ele>
        <time>2022-03-27T08:41:28Z</time>
      </trkpt>
      <trkpt lat="49.46859" lon="1.15929">
        <ele>93.2</ele>
        <time>2022-03-27T08:41:29Z</time>
      </trkpt>
      <trkpt lat="49.4686" lon="1.15929">
        <ele>93.1</ele>
        <time>2022-03-27T08:41:30Z</time>
      </trkpt>
      <trkpt lat="49.46861" lon="1.1593">
        <ele>93</ele>
        <time>2022-03-27T08:41:31Z</time>
      </trkpt>
      <trkpt lat="49.46861" lon="1.1593">
        <ele>93</ele>
        <time>2022-03-27T08:41:32Z</time>
      </trkpt>
      <trkpt lat="49.46862" lon="1.15931">
        <ele>92.9</ele>
        <time>2022-03-27T08:41:33Z</time>
      </trkpt>
      <trkpt lat="49.46863" lon="1.15931">
        <ele>92.8</ele>
        <time>2022-03-27T08:41:50Z</time>
      </trkpt>
      <trkpt lat="49.46863" lon="1.15932">
        <ele>92.7</ele>
        <time>2022-03-27T08:41:51Z</time>
      </trkpt>
      <trkpt lat="49.46864" lon="1.15932">
        <ele>92.6</ele>
        <time>2022-03-27T08:41:52Z</time>
      </trkpt>
      <trkpt lat="49.46865" lon="1.15932">
        <ele>92.5</ele>
        <time>2022-03-27T08:41:53Z</time>
      </trkpt>
      <trkpt lat="49.46865" lon="1.15933">
        <ele>92.4</ele>
        <time>2022-03-27T08:41:55Z</time>
      </trkpt>
      <trkpt lat="49.46866" lon="1.15933">
        <ele>92.3</ele>
        <time>2022-03-27T08:41:57Z</time>
      </trkpt>
      <trkpt lat="49.46867" lon="1.15934">
        <ele>92.1</ele>
        <time>2022-03-27T08:41:59Z</time>
      </trkpt>
      <trkpt lat="49.46867" lon="1.15934">
        <ele>92.1</ele>
        <time>2022-03-27T08:42:00Z</time>
      </trkpt>
      <trkpt lat="49.46868" lon="1.15935">
        <ele>91.9</ele>
        <time>2022-03-27T08:42:01Z</time>
      </trkpt>
      <trkpt lat="49.46869" lon="1.15939">
        <ele>91.5</ele>
        <time>2022-03-27T08:42:02Z</time>
      </trkpt>
      <trkpt lat="49.46871" lon="1.15943">
        <ele>91</ele>
        <time>2022-03-27T08:42:03Z</time>
      </trkpt>
      <trkpt lat="49.46874" lon="1.15953">
        <ele>90</ele>
        <time>2022-03-27T08:42:04Z</time>
      </trkpt>
      <trkpt lat="49.46877" lon="1.15963">
        <ele>88.8</ele>
        <time>2022-03-27T08:42:06Z</time>
      </trkpt>
      <trkpt lat="49.46881" lon="1.15975">
        <ele>87.4</ele>
        <time>2022-03-27T08:42:07Z</time>
      </trkpt>
      <trkpt lat="49.46884" lon="1.15981">
        <ele>86.5</ele>
        <time>2022-03-27T08:42:09Z</time>
      </trkpt>
      <trkpt lat="49.46889" lon="1.15984">
        <ele>85.6</ele>
        <time>2022-03-27T08:42:11Z</time>
      </trkpt>
      <trkpt lat="49.4689" lon="1.15985">
        <ele>85.3</ele>
        <time>2022-03-27T08:42:12Z</time>
      </trkpt>
      <trkpt lat="49.46892" lon="1.15986">
        <ele>85</ele>
        <time>2022-03-27T08:42:13Z</time>
      </trkpt>
      <trkpt lat="49.46894" lon="1.15988">
        <ele>84.5</ele>
        <time>2022-03-27T08:42:14Z</time>
      </trkpt>
      <trkpt lat="49.46897" lon="1.15991">
        <ele>83.8</ele>
        <time>2022-03-27T08:42:15Z</time>
      </trkpt>
      <trkpt lat="49.46903" lon="1.15994">
        <ele>82.7</ele>
        <time>2022-03-27T08:42:16Z</time>
      </trkpt>
      <trkpt lat="49.46908" lon="1.15997">
        <ele>81.6</ele>
        <time>2022-03-27T08:42:17Z</time>
      </trkpt>
      <trkpt lat="49.46924" lon="1.16004">
        <ele>77.6</ele>
        <time>2022-03-27T08:42:19Z</time>
      </trkpt>
      <trkpt lat="49.46933" lon="1.16011">
        <ele>75.5</ele>
        <time>2022-03-27T08:42:20Z</time>
      </trkpt>
      <trkpt lat="49.46946" lon="1.16019">
        <ele>73.4</ele>
        <time>2022-03-27T08:42:21Z</time>
      </trkpt>
      <trkpt lat="49.46957" lon="1.16028">
        <ele>72</ele>
        <time>2022-03-27T08:42:22Z</time>
      </trkpt>
      <trkpt lat="49.46968" lon="1.16035">
        <ele>71.4</ele>
        <time>2022-03-27T08:42:23Z</time>
      </trkpt>
      <trkpt lat="49.46978" lon="1.16042">
        <ele>70.9</ele>
        <time>2022-03-27T08:42:24Z</time>
      </trkpt>
      <trkpt lat="49.46989" lon="1.16049">
        <ele>70.4</ele>
        <time>2022-03-27T08:42:25Z</time>
      </trkpt>
      <trkpt lat="49.46998" lon="1.16058">
        <ele>70</ele>
        <time>2022-03-27T08:42:26Z</time>
      </trkpt>
      <trkpt lat="49.47006" lon="1.16064">
        <ele>69.6</ele>
        <time>2022-03-27T08:42:27Z</time>
      </trkpt>
      <trkpt lat="49.47014" lon="1.16071">
        <ele>69.3</ele>
        <time>2022-03-27T08:42:28Z</time>
      </trkpt>
      <trkpt lat="49.4702" lon="1.16075">
        <ele>69.1</ele>
        <time>2022-03-27T08:42:29Z</time>
      </trkpt>
      <trkpt lat="49.47025" lon="1.16079">
        <ele>69</ele>
        <time>2022-03-27T08:42:30Z</time>
      </trkpt>
      <trkpt lat="49.47029" lon="1.16081">
        <ele>68.9</ele>
        <time>2022-03-27T08:42:31Z</time>
      </trkpt>
      <trkpt lat="49.47033" lon="1.16081">
        <ele>69.5</ele>
        <time>2022-03-27T08:42:32Z</time>
      </trkpt>
      <trkpt lat="49.47037" lon="1.16079">
        <ele>69.8</ele>
        <time>2022-03-27T08:42:33Z</time>
      </trkpt>
      <trkpt lat="49.47041" lon="1.16076">
        <ele>70.1</ele>
        <time>2022-03-27T08:42:34Z</time>
      </trkpt>
      <trkpt lat="49.47043" lon="1.16073">
        <ele>70.4</ele>
        <time>2022-03-27T08:42:35Z</time>
      </trkpt>
      <trkpt lat="49.47044" lon="1.16072">
        <ele>70.4</ele>
        <time>2022-03-27T08:42:36Z</time>
      </trkpt>
      <trkpt lat="49.47045" lon="1.16072">
        <ele>70.5</ele>
        <time>2022-03-27T08:42:37Z</time>
      </trkpt>
      <trkpt lat="49.47045" lon="1.16072">
        <ele>70.5</ele>
        <time>2022-03-27T08:42:38Z</time>
      </trkpt>
      <trkpt lat="49.47046" lon="1.16072">
        <ele>70.6</ele>
        <time>2022-03-27T08:42:39Z</time>
      </trkpt>
      <trkpt lat="49.47047" lon="1.16074">
        <ele>70.7</ele>
        <time>2022-03-27T08:42:41Z</time>
      </trkpt>
      <trkpt lat="49.47049" lon="1.16076">
        <ele>70.9</ele>
        <time>2022-03-27T08:42:42Z</time>
      </trkpt>
      <trkpt lat="49.4705" lon="1.16075">
        <ele>71</ele>
        <time>2022-03-27T08:42:43Z</time>
      </trkpt>
      <trkpt lat="49.47052" lon="1.16075">
        <ele>71.1</ele>
        <time>2022-03-27T08:42:45Z</time>
      </trkpt>
      <trkpt lat="49.47054" lon="1.16075">
        <ele>71.2</ele>
        <time>2022-03-27T08:42:46Z</time>
      </trkpt>
      <trkpt lat="49.47055" lon="1.16076">
        <ele>71.3</ele>
        <time>2022-03-27T08:42:47Z</time>
      </trkpt>
      <trkpt lat="49.47056" lon="1.16076">
        <ele>71.4</ele>
        <time>2022-03-27T08:42:48Z</time>
      </trkpt>
      <trkpt lat="49.47057" lon="1.16079">
        <ele>71.5</ele>
        <time>2022-03-27T08:42:50Z</time>
      </trkpt>
      <trkpt lat="49.47059" lon="1.16083">
        <ele>71.8</ele>
        <time>2022-03-27T08:42:51Z</time>
      </trkpt>
      <trkpt lat="49.4706" lon="1.16084">
        <ele>71.9</ele>
        <time>2022-03-27T08:42:52Z</time>
      </trkpt>
      <trkpt lat="49.47062" lon="1.16087">
        <ele>72.1</ele>
        <time>2022-03-27T08:42:54Z</time>
      </trkpt>
      <trkpt lat="49.47063" lon="1.16088">
        <ele>72.2</ele>
        <time>2022-03-27T08:42:55Z</time>
      </trkpt>
      <trkpt lat="49.47064" lon="1.1609">
        <ele>72.3</ele>
        <time>2022-03-27T08:42:56Z</time>
      </trkpt>
      <trkpt lat="49.47065" lon="1.16091">
        <ele>72.4</ele>
        <time>2022-03-27T08:42:57Z</time>
      </trkpt>
      <trkpt lat="49.47068" lon="1.16094">
        <ele>72.7</ele>
        <time>2022-03-27T08:42:58Z</time>
      </trkpt>
      <trkpt lat="49.4707" lon="1.16096">
        <ele>72.9</ele>
        <time>2022-03-27T08:43:00Z</time>
      </trkpt>
      <trkpt lat="49.47072" lon="1.16099">
        <ele>73.1</ele>
        <time>2022-03-27T08:43:01Z</time>
      </trkpt>
      <trkpt lat="49.47075" lon="1.16104">
        <ele>73.4</ele>
        <time>2022-03-27T08:43:02Z</time>
      </trkpt>
      <trkpt lat="49.47079" lon="1.16107">
        <ele>73.7</ele>
        <time>2022-03-27T08:43:03Z</time>
      </trkpt>
      <trkpt lat="49.47082" lon="1.16111">
        <ele>74</ele>
        <time>2022-03-27T08:43:05Z</time>
      </trkpt>
      <trkpt lat="49.47085" lon="1.16113">
        <ele>74.2</ele>
        <time>2022-03-27T08:43:06Z</time>
      </trkpt>
      <trkpt lat="49.47087" lon="1.16115">
        <ele>74.4</ele>
        <time>2022-03-27T08:43:07Z</time>
      </trkpt>
      <trkpt lat="49.47092" lon="1.1612">
        <ele>74.9</ele>
        <time>2022-03-27T08:43:08Z</time>
      </trkpt>
      <trkpt lat="49.47094" lon="1.16122">
        <ele>75.1</ele>
        <time>2022-03-27T08:43:10Z</time>
      </trkpt>
      <trkpt lat="49.47095" lon="1.16123">
        <ele>75.1</ele>
        <time>2022-03-27T08:43:11Z</time>
      </trkpt>
      <trkpt lat="49.47096" lon="1.16123">
        <ele>75.2</ele>
        <time>2022-03-27T08:43:12Z</time>
      </trkpt>
      <trkpt lat="49.47097" lon="1.16124">
        <ele>75.3</ele>
        <time>2022-03-27T08:43:13Z</time>
      </trkpt>
      <trkpt lat="49.47098" lon="1.16125">
        <ele>75.4</ele>
        <time>2022-03-27T08:43:14Z</time>
      </trkpt>
      <trkpt lat="49.47103" lon="1.16126">
        <ele>75.8</ele>
        <time>2022-03-27T08:43:16Z</time>
      </trkpt>
      <trkpt lat="49.47106" lon="1.16128">
        <ele>76</ele>
        <time>2022-03-27T08:43:18Z</time>
      </trkpt>
      <trkpt lat="49.47109" lon="1.1613">
        <ele>76.2</ele>
        <time>2022-03-27T08:43:19Z</time>
      </trkpt>
      <trkpt lat="49.47115" lon="1.16134">
        <ele>76.8</ele>
        <time>2022-03-27T08:43:21Z</time>
      </trkpt>
      <trkpt lat="49.4712" lon="1.16137">
        <ele>77.1</ele>
        <time>2022-03-27T08:43:23Z</time>
      </trkpt>
      <trkpt lat="49.47123" lon="1.16139">
        <ele>77.4</ele>
        <time>2022-03-27T08:43:24Z</time>
      </trkpt>
      <trkpt lat="49.47128" lon="1.16142">
        <ele>77.7</ele>
        <time>2022-03-27T08:43:25Z</time>
      </trkpt>
      <trkpt lat="49.47131" lon="1.16144">
        <ele>78</ele>
        <time>2022-03-27T08:43:27Z</time>
      </trkpt>
      <trkpt lat="49.47134" lon="1.16145">
        <ele>78.3</ele>
        <time>2022-03-27T08:43:28Z</time>
      </trkpt>
      <trkpt lat="49.47139" lon="1.16147">
        <ele>78.6</ele>
        <time>2022-03-27T08:43:30Z</time>
      </trkpt>
      <trkpt lat="49.47141" lon="1.16148">
        <ele>78.7</ele>
        <time>2022-03-27T08:43:31Z</time>
      </trkpt>
      <trkpt lat="49.47142" lon="1.16148">
        <ele>78.9</ele>
        <time>2022-03-27T08:43:32Z</time>
      </trkpt>
      <trkpt lat="49.47146" lon="1.1615">
        <ele>79.2</ele>
        <time>2022-03-27T08:43:33Z</time>
      </trkpt>
      <trkpt lat="49.4715" lon="1.16151">
        <ele>79.5</ele>
        <time>2022-03-27T08:43:35Z</time>
      </trkpt>
      <trkpt lat="49.47155" lon="1.16151">
        <ele>79.9</ele>
        <time>2022-03-27T08:43:36Z</time>
      </trkpt>
      <trkpt lat="49.4716" lon="1.16149">
        <ele>80.4</ele>
        <time>2022-03-27T08:43:38Z</time>
      </trkpt>
      <trkpt lat="49.47161" lon="1.16148">
        <ele>80.5</ele>
        <time>2022-03-27T08:43:40Z</time>
      </trkpt>
      <trkpt lat="49.47163" lon="1.16147">
        <ele>80.7</ele>
        <time>2022-03-27T08:43:41Z</time>
      </trkpt>
      <trkpt lat="49.47165" lon="1.16145">
        <ele>80.9</ele>
        <time>2022-03-27T08:43:42Z</time>
      </trkpt>
      <trkpt lat="49.47167" lon="1.16143">
        <ele>81.2</ele>
        <time>2022-03-27T08:43:43Z</time>
      </trkpt>
      <trkpt lat="49.4717" lon="1.16139">
        <ele>81.5</ele>
        <time>2022-03-27T08:43:45Z</time>
      </trkpt>
      <trkpt lat="49.4717" lon="1.16138">
        <ele>82.3</ele>
        <time>2022-03-27T08:43:46Z</time>
      </trkpt>
      <trkpt lat="49.47172" lon="1.16135">
        <ele>82.6</ele>
        <time>2022-03-27T08:43:47Z</time>
      </trkpt>
      <trkpt lat="49.47173" lon="1.16134">
        <ele>82.8</ele>
        <time>2022-03-27T08:43:48Z</time>
      </trkpt>
      <trkpt lat="49.47176" lon="1.16131">
        <ele>83.2</ele>
        <time>2022-03-27T08:43:49Z</time>
      </trkpt>
      <trkpt lat="49.47177" lon="1.16129">
        <ele>83.3</ele>
        <time>2022-03-27T08:43:50Z</time>
      </trkpt>
      <trkpt lat="49.47179" lon="1.16127">
        <ele>83.5</ele>
        <time>2022-03-27T08:43:51Z</time>
      </trkpt>
      <trkpt lat="49.4718" lon="1.16126">
        <ele>83.7</ele>
        <time>2022-03-27T08:43:52Z</time>
      </trkpt>
      <trkpt lat="49.47181" lon="1.16125">
        <ele>83.8</ele>
        <time>2022-03-27T08:43:53Z</time>
      </trkpt>
      <trkpt lat="49.47183" lon="1.16125">
        <ele>84</ele>
        <time>2022-03-27T08:43:54Z</time>
      </trkpt>
      <trkpt lat="49.47183" lon="1.16124">
        <ele>84.1</ele>
        <time>2022-03-27T08:43:55Z</time>
      </trkpt>
      <trkpt lat="49.47184" lon="1.16123">
        <ele>84.2</ele>
        <time>2022-03-27T08:43:57Z</time>
      </trkpt>
      <trkpt lat="49.47185" lon="1.16121">
        <ele>84.4</ele>
        <time>2022-03-27T08:43:58Z</time>
      </trkpt>
      <trkpt lat="49.47186" lon="1.1612">
        <ele>84.5</ele>
        <time>2022-03-27T08:44:00Z</time>
      </trkpt>
      <trkpt lat="49.47186" lon="1.1612">
        <ele>84.6</ele>
        <time>2022-03-27T08:44:01Z</time>
      </trkpt>
      <trkpt lat="49.47187" lon="1.1612">
        <ele>84.6</ele>
        <time>2022-03-27T08:44:02Z</time>
      </trkpt>
      <trkpt lat="49.47188" lon="1.1612">
        <ele>84.7</ele>
        <time>2022-03-27T08:44:03Z</time>
      </trkpt>
      <trkpt lat="49.47188" lon="1.1612">
        <ele>84.7</ele>
        <time>2022-03-27T08:44:04Z</time>
      </trkpt>
      <trkpt lat="49.47189" lon="1.16121">
        <ele>84.9</ele>
        <time>2022-03-27T08:44:05Z</time>
      </trkpt>
      <trkpt lat="49.4719" lon="1.16121">
        <ele>85</ele>
        <time>2022-03-27T08:44:07Z</time>
      </trkpt>
      <trkpt lat="49.4719" lon="1.16121">
        <ele>85.1</ele>
        <time>2022-03-27T08:44:08Z</time>
      </trkpt>
      <trkpt lat="49.4719" lon="1.16121">
        <ele>85.1</ele>
        <time>2022-03-27T08:44:09Z</time>
      </trkpt>
      <trkpt lat="49.4719" lon="1.1612">
        <ele>85.2</ele>
        <time>2022-03-27T08:44:11Z</time>
      </trkpt>
      <trkpt lat="49.4719" lon="1.1612">
        <ele>85.2</ele>
        <time>2022-03-27T08:44:12Z</time>
      </trkpt>
      <trkpt lat="49.4719" lon="1.1612">
        <ele>85.2</ele>
        <time>2022-03-27T08:44:13Z</time>
      </trkpt>
      <trkpt lat="49.4719" lon="1.16119">
        <ele>85.3</ele>
        <time>2022-03-27T08:44:14Z</time>
      </trkpt>
      <trkpt lat="49.4719" lon="1.16121">
        <ele>85.4</ele>
        <time>2022-03-27T08:44:15Z</time>
      </trkpt>
      <trkpt lat="49.4719" lon="1.16121">
        <ele>85.4</ele>
        <time>2022-03-27T08:44:16Z</time>
      </trkpt>
      <trkpt lat="49.4719" lon="1.16121">
        <ele>85.4</ele>
        <time>2022-03-27T08:44:17Z</time>
      </trkpt>
      <trkpt lat="49.4719" lon="1.16121">
        <ele>85.4</ele>
        <time>2022-03-27T08:44:19Z</time>
      </trkpt>
      <trkpt lat="49.47189" lon="1.16121">
        <ele>85.5</ele>
        <time>2022-03-27T08:44:20Z</time>
      </trkpt>
      <trkpt lat="49.47189" lon="1.16122">
        <ele>85.5</ele>
        <time>2022-03-27T08:44:21Z</time>
      </trkpt>
      <trkpt lat="49.47189" lon="1.16122">
        <ele>85.5</ele>
        <time>2022-03-27T08:44:22Z</time>
      </trkpt>
      <trkpt lat="49.47189" lon="1.16122">
        <ele>85.5</ele>
        <time>2022-03-27T08:44:23Z</time>
      </trkpt>
      <trkpt lat="49.47189" lon="1.16122">
        <ele>85.5</ele>
        <time>2022-03-27T08:44:24Z</time>
      </trkpt>
      <trkpt lat="49.47189" lon="1.16122">
        <ele>85.5</ele>
        <time>2022-03-27T08:44:25Z</time>
      </trkpt>
      <trkpt lat="49.47189" lon="1.16122">
        <ele>85.5</ele>
        <time>2022-03-27T08:44:26Z</time>
      </trkpt>
      <trkpt lat="49.47189" lon="1.16122">
        <ele>85.6</ele>
        <time>2022-03-27T08:44:27Z</time>
      </trkpt>
      <trkpt lat="49.47189" lon="1.16115">
        <ele>86.2</ele>
        <time>2022-03-27T08:44:37Z</time>
      </trkpt>
      <trkpt lat="49.47188" lon="1.16112">
        <ele>86.4</ele>
        <time>2022-03-27T08:44:38Z</time>
      </trkpt>
      <trkpt lat="49.47188" lon="1.16109">
        <ele>86.8</ele>
        <time>2022-03-27T08:44:40Z</time>
      </trkpt>
      <trkpt lat="49.47188" lon="1.16108">
        <ele>86.9</ele>
        <time>2022-03-27T08:44:41Z</time>
      </trkpt>
      <trkpt lat="49.47188" lon="1.16105">
        <ele>87.2</ele>
        <time>2022-03-27T08:44:42Z</time>
      </trkpt>
      <trkpt lat="49.47187" lon="1.16102">
        <ele>87.4</ele>
        <time>2022-03-27T08:44:43Z</time>
      </trkpt>
      <trkpt lat="49.47187" lon="1.161">
        <ele>87.7</ele>
        <time>2022-03-27T08:44:44Z</time>
      </trkpt>
      <trkpt lat="49.47186" lon="1.16095">
        <ele>88.2</ele>
        <time>2022-03-27T08:44:45Z</time>
      </trkpt>
      <trkpt lat="49.47186" lon="1.16093">
        <ele>88.4</ele>
        <time>2022-03-27T08:44:46Z</time>
      </trkpt>
      <trkpt lat="49.47186" lon="1.16091">
        <ele>88.5</ele>
        <time>2022-03-27T08:44:47Z</time>
      </trkpt>
      <trkpt lat="49.47186" lon="1.16091">
        <ele>88.6</ele>
        <time>2022-03-27T08:44:48Z</time>
      </trkpt>
      <trkpt lat="49.47187" lon="1.16089">
        <ele>88.8</ele>
        <time>2022-03-27T08:44:50Z</time>
      </trkpt>
      <trkpt lat="49.47187" lon="1.16089">
        <ele>88.9</ele>
        <time>2022-03-27T08:44:52Z</time>
      </trkpt>
      <trkpt lat="49.47186" lon="1.16089">
        <ele>89</ele>
        <time>2022-03-27T08:44:53Z</time>
      </trkpt>
      <trkpt lat="49.47186" lon="1.16087">
        <ele>89.1</ele>
        <time>2022-03-27T08:44:54Z</time>
      </trkpt>
      <trkpt lat="49.47186" lon="1.16086">
        <ele>89.2</ele>
        <time>2022-03-27T08:44:55Z</time>
      </trkpt>
      <trkpt lat="49.47186" lon="1.16086">
        <ele>89.3</ele>
        <time>2022-03-27T08:44:56Z</time>
      </trkpt>
      <trkpt lat="49.47186" lon="1.16085">
        <ele>89.4</ele>
        <time>2022-03-27T08:44:58Z</time>
      </trkpt>
      <trkpt lat="49.47186" lon="1.16084">
        <ele>89.4</ele>
        <time>2022-03-27T08:44:59Z</time>
      </trkpt>
      <trkpt lat="49.47186" lon="1.16083">
        <ele>89.5</ele>
        <time>2022-03-27T08:45:00Z</time>
      </trkpt>
      <trkpt lat="49.47186" lon="1.16083">
        <ele>89.6</ele>
        <time>2022-03-27T08:45:01Z</time>
      </trkpt>
      <trkpt lat="49.47186" lon="1.16078">
        <ele>90</ele>
        <time>2022-03-27T08:45:02Z</time>
      </trkpt>
      <trkpt lat="49.47186" lon="1.16076">
        <ele>90.2</ele>
        <time>2022-03-27T08:45:04Z</time>
      </trkpt>
      <trkpt lat="49.47187" lon="1.16074">
        <ele>90.4</ele>
        <time>2022-03-27T08:45:05Z</time>
      </trkpt>
      <trkpt lat="49.47187" lon="1.16073">
        <ele>90.6</ele>
        <time>2022-03-27T08:45:07Z</time>
      </trkpt>
      <trkpt lat="49.47187" lon="1.16071">
        <ele>90.7</ele>
        <time>2022-03-27T08:45:08Z</time>
      </trkpt>
      <trkpt lat="49.47187" lon="1.1607">
        <ele>90.8</ele>
        <time>2022-03-27T08:45:09Z</time>
      </trkpt>
      <trkpt lat="49.47187" lon="1.16069">
        <ele>91</ele>
        <time>2022-03-27T08:45:10Z</time>
      </trkpt>
      <trkpt lat="49.47187" lon="1.16067">
        <ele>91.2</ele>
        <time>2022-03-27T08:45:11Z</time>
      </trkpt>
      <trkpt lat="49.47188" lon="1.16065">
        <ele>91.3</ele>
        <time>2022-03-27T08:45:12Z</time>
      </trkpt>
      <trkpt lat="49.47188" lon="1.16063">
        <ele>91.5</ele>
        <time>2022-03-27T08:45:14Z</time>
      </trkpt>
      <trkpt lat="49.47189" lon="1.16062">
        <ele>91.6</ele>
        <time>2022-03-27T08:45:15Z</time>
      </trkpt>
      <trkpt lat="49.47189" lon="1.16061">
        <ele>91.7</ele>
        <time>2022-03-27T08:45:16Z</time>
      </trkpt>
      <trkpt lat="49.4719" lon="1.16062">
        <ele>91.9</ele>
        <time>2022-03-27T08:45:17Z</time>
      </trkpt>
      <trkpt lat="49.47191" lon="1.16061">
        <ele>91.9</ele>
        <time>2022-03-27T08:45:18Z</time>
      </trkpt>
      <trkpt lat="49.4719" lon="1.1606">
        <ele>92.1</ele>
        <time>2022-03-27T08:45:20Z</time>
      </trkpt>
      <trkpt lat="49.4719" lon="1.16059">
        <ele>92.1</ele>
        <time>2022-03-27T08:45:21Z</time>
      </trkpt>
      <trkpt lat="49.4719" lon="1.16058">
        <ele>92.2</ele>
        <time>2022-03-27T08:45:22Z</time>
      </trkpt>
      <trkpt lat="49.47191" lon="1.16057">
        <ele>92.3</ele>
        <time>2022-03-27T08:45:23Z</time>
      </trkpt>
      <trkpt lat="49.47191" lon="1.16056">
        <ele>92.5</ele>
        <time>2022-03-27T08:45:24Z</time>
      </trkpt>
      <trkpt lat="49.47191" lon="1.16053">
        <ele>92.7</ele>
        <time>2022-03-27T08:45:25Z</time>
      </trkpt>
      <trkpt lat="49.47191" lon="1.16052">
        <ele>92.9</ele>
        <time>2022-03-27T08:45:26Z</time>
      </trkpt>
      <trkpt lat="49.4719" lon="1.1605">
        <ele>93</ele>
        <time>2022-03-27T08:45:27Z</time>
      </trkpt>
      <trkpt lat="49.47189" lon="1.16049">
        <ele>93.2</ele>
        <time>2022-03-27T08:45:29Z</time>
      </trkpt>
      <trkpt lat="49.47189" lon="1.16047">
        <ele>93.3</ele>
        <time>2022-03-27T08:45:30Z</time>
      </trkpt>
      <trkpt lat="49.47188" lon="1.16046">
        <ele>93.5</ele>
        <time>2022-03-27T08:45:31Z</time>
      </trkpt>
      <trkpt lat="49.47187" lon="1.16043">
        <ele>93.8</ele>
        <time>2022-03-27T08:45:32Z</time>
      </trkpt>
      <trkpt lat="49.47186" lon="1.1604">
        <ele>94.1</ele>
        <time>2022-03-27T08:45:34Z</time>
      </trkpt>
      <trkpt lat="49.47185" lon="1.16036">
        <ele>94.5</ele>
        <time>2022-03-27T08:45:35Z</time>
      </trkpt>
      <trkpt lat="49.47185" lon="1.16032">
        <ele>94.7</ele>
        <time>2022-03-27T08:45:38Z</time>
      </trkpt>
      <trkpt lat="49.47185" lon="1.16031">
        <ele>94.8</ele>
        <time>2022-03-27T08:45:39Z</time>
      </trkpt>
      <trkpt lat="49.47185" lon="1.16031">
        <ele>95</ele>
        <time>2022-03-27T08:45:40Z</time>
      </trkpt>
      <trkpt lat="49.47186" lon="1.1603">
        <ele>95.1</ele>
        <time>2022-03-27T08:45:42Z</time>
      </trkpt>
      <trkpt lat="49.47187" lon="1.1603">
        <ele>95.2</ele>
        <time>2022-03-27T08:45:43Z</time>
      </trkpt>
      <trkpt lat="49.47187" lon="1.16029">
        <ele>95.2</ele>
        <time>2022-03-27T08:45:44Z</time>
      </trkpt>
      <trkpt lat="49.47188" lon="1.16029">
        <ele>95.4</ele>
        <time>2022-03-27T08:45:46Z</time>
      </trkpt>
      <trkpt lat="49.47188" lon="1.16031">
        <ele>95.5</ele>
        <time>2022-03-27T08:45:47Z</time>
      </trkpt>
      <trkpt lat="49.47188" lon="1.16033">
        <ele>95.7</ele>
        <time>2022-03-27T08:45:48Z</time>
      </trkpt>
      <trkpt lat="49.47188" lon="1.16034">
        <ele>95.8</ele>
        <time>2022-03-27T08:45:49Z</time>
      </trkpt>
      <trkpt lat="49.47188" lon="1.16033">
        <ele>95.9</ele>
        <time>2022-03-27T08:45:52Z</time>
      </trkpt>
      <trkpt lat="49.47188" lon="1.16032">
        <ele>96</ele>
        <time>2022-03-27T08:45:53Z</time>
      </trkpt>
      <trkpt lat="49.47188" lon="1.16031">
        <ele>96.1</ele>
        <time>2022-03-27T08:45:55Z</time>
      </trkpt>
      <trkpt lat="49.47189" lon="1.16031">
        <ele>96.2</ele>
        <time>2022-03-27T08:45:56Z</time>
      </trkpt>
      <trkpt lat="49.47189" lon="1.1603">
        <ele>96.3</ele>
        <time>2022-03-27T08:45:57Z</time>
      </trkpt>
      <trkpt lat="49.4719" lon="1.1603">
        <ele>96.3</ele>
        <time>2022-03-27T08:45:58Z</time>
      </trkpt>
      <trkpt lat="49.4719" lon="1.16029">
        <ele>96.4</ele>
        <time>2022-03-27T08:45:59Z</time>
      </trkpt>
      <trkpt lat="49.4719" lon="1.16028">
        <ele>96.5</ele>
        <time>2022-03-27T08:46:00Z</time>
      </trkpt>
      <trkpt lat="49.4719" lon="1.16028">
        <ele>96.6</ele>
        <time>2022-03-27T08:46:01Z</time>
      </trkpt>
      <trkpt lat="49.4719" lon="1.16027">
        <ele>96.7</ele>
        <time>2022-03-27T08:46:02Z</time>
      </trkpt>
      <trkpt lat="49.4719" lon="1.16026">
        <ele>96.7</ele>
        <time>2022-03-27T08:46:03Z</time>
      </trkpt>
      <trkpt lat="49.4719" lon="1.16026">
        <ele>96.8</ele>
        <time>2022-03-27T08:46:04Z</time>
      </trkpt>
      <trkpt lat="49.4719" lon="1.16025">
        <ele>96.8</ele>
        <time>2022-03-27T08:46:06Z</time>
      </trkpt>
      <trkpt lat="49.4719" lon="1.16025">
        <ele>96.9</ele>
        <time>2022-03-27T08:46:08Z</time>
      </trkpt>
      <trkpt lat="49.4719" lon="1.16025">
        <ele>96.9</ele>
        <time>2022-03-27T08:46:09Z</time>
      </trkpt>
      <trkpt lat="49.4719" lon="1.16025">
        <ele>96.9</ele>
        <time>2022-03-27T08:46:10Z</time>
      </trkpt>
      <trkpt lat="49.4719" lon="1.16024">
        <ele>97</ele>
        <time>2022-03-27T08:46:12Z</time>
      </trkpt>
      <trkpt lat="49.4719" lon="1.16024">
        <ele>97.1</ele>
        <time>2022-03-27T08:46:13Z</time>
      </trkpt>
      <trkpt lat="49.47191" lon="1.16022">
        <ele>97.2</ele>
        <time>2022-03-27T08:46:14Z</time>
      </trkpt>
      <trkpt lat="49.4719" lon="1.16021">
        <ele>97.4</ele>
        <time>2022-03-27T08:46:16Z</time>
      </trkpt>
      <trkpt lat="49.4719" lon="1.16018">
        <ele>97.7</ele>
        <time>2022-03-27T08:46:17Z</time>
      </trkpt>
      <trkpt lat="49.4719" lon="1.1602">
        <ele>97.9</ele>
        <time>2022-03-27T08:46:18Z</time>
      </trkpt>
      <trkpt lat="49.4719" lon="1.16021">
        <ele>97.9</ele>
        <time>2022-03-27T08:46:19Z</time>
      </trkpt>
      <trkpt lat="49.47189" lon="1.16021">
        <ele>98</ele>
        <time>2022-03-27T08:46:21Z</time>
      </trkpt>
      <trkpt lat="49.47189" lon="1.16021">
        <ele>98.1</ele>
        <time>2022-03-27T08:46:22Z</time>
      </trkpt>
      <trkpt lat="49.47188" lon="1.16021">
        <ele>98.2</ele>
        <time>2022-03-27T08:46:23Z</time>
      </trkpt>
      <trkpt lat="49.47188" lon="1.1602">
        <ele>98.3</ele>
        <time>2022-03-27T08:46:25Z</time>
      </trkpt>
      <trkpt lat="49.47188" lon="1.16018">
        <ele>98.4</ele>
        <time>2022-03-27T08:46:26Z</time>
      </trkpt>
      <trkpt lat="49.47188" lon="1.16018">
        <ele>98.5</ele>
        <time>2022-03-27T08:46:27Z</time>
      </trkpt>
      <trkpt lat="49.47188" lon="1.16017">
        <ele>98.6</ele>
        <time>2022-03-27T08:46:29Z</time>
      </trkpt>
      <trkpt lat="49.47188" lon="1.16016">
        <ele>98.7</ele>
        <time>2022-03-27T08:46:30Z</time>
      </trkpt>
      <trkpt lat="49.47189" lon="1.16014">
        <ele>98.9</ele>
        <time>2022-03-27T08:46:31Z</time>
      </trkpt>
      <trkpt lat="49.4719" lon="1.16014">
        <ele>99.1</ele>
        <time>2022-03-27T08:46:32Z</time>
      </trkpt>
      <trkpt lat="49.47191" lon="1.16013">
        <ele>99.2</ele>
        <time>2022-03-27T08:46:33Z</time>
      </trkpt>
      <trkpt lat="49.47192" lon="1.16012">
        <ele>99.4</ele>
        <time>2022-03-27T08:46:34Z</time>
      </trkpt>
      <trkpt lat="49.47193" lon="1.16009">
        <ele>99.7</ele>
        <time>2022-03-27T08:46:36Z</time>
      </trkpt>
      <trkpt lat="49.47193" lon="1.16005">
        <ele>100.1</ele>
        <time>2022-03-27T08:46:37Z</time>
      </trkpt>
      <trkpt lat="49.47194" lon="1.16003">
        <ele>100.3</ele>
        <time>2022-03-27T08:46:39Z</time>
      </trkpt>
      <trkpt lat="49.47194" lon="1.16">
        <ele>100.6</ele>
        <time>2022-03-27T08:46:41Z</time>
      </trkpt>
      <trkpt lat="49.47194" lon="1.15998">
        <ele>100.8</ele>
        <time>2022-03-27T08:46:42Z</time>
      </trkpt>
      <trkpt lat="49.47195" lon="1.15994">
        <ele>101.2</ele>
        <time>2022-03-27T08:46:43Z</time>
      </trkpt>
      <trkpt lat="49.47195" lon="1.15992">
        <ele>101.4</ele>
        <time>2022-03-27T08:46:45Z</time>
      </trkpt>
      <trkpt lat="49.47195" lon="1.1599">
        <ele>101.6</ele>
        <time>2022-03-27T08:46:46Z</time>
      </trkpt>
      <trkpt lat="49.47195" lon="1.15988">
        <ele>101.8</ele>
        <time>2022-03-27T08:46:47Z</time>
      </trkpt>
      <trkpt lat="49.47194" lon="1.15985">
        <ele>102</ele>
        <time>2022-03-27T08:46:49Z</time>
      </trkpt>
      <trkpt lat="49.47193" lon="1.15981">
        <ele>102.4</ele>
        <time>2022-03-27T08:46:51Z</time>
      </trkpt>
      <trkpt lat="49.47192" lon="1.15978">
        <ele>102.8</ele>
        <time>2022-03-27T08:46:53Z</time>
      </trkpt>
      <trkpt lat="49.47192" lon="1.15976">
        <ele>103</ele>
        <time>2022-03-27T08:46:55Z</time>
      </trkpt>
      <trkpt lat="49.47191" lon="1.15975">
        <ele>103.1</ele>
        <time>2022-03-27T08:46:56Z</time>
      </trkpt>
      <trkpt lat="49.47191" lon="1.15973">
        <ele>103.3</ele>
        <time>2022-03-27T08:46:57Z</time>
      </trkpt>
      <trkpt lat="49.4719" lon="1.15972">
        <ele>103.5</ele>
        <time>2022-03-27T08:46:59Z</time>
      </trkpt>
      <trkpt lat="49.4719" lon="1.15969">
        <ele>103.7</ele>
        <time>2022-03-27T08:47:00Z</time>
      </trkpt>
      <trkpt lat="49.4719" lon="1.15965">
        <ele>104.1</ele>
        <time>2022-03-27T08:47:01Z</time>
      </trkpt>
      <trkpt lat="49.47189" lon="1.15963">
        <ele>104.3</ele>
        <time>2022-03-27T08:47:02Z</time>
      </trkpt>
      <trkpt lat="49.47189" lon="1.15962">
        <ele>104.4</ele>
        <time>2022-03-27T08:47:03Z</time>
      </trkpt>
      <trkpt lat="49.4719" lon="1.15959">
        <ele>104.7</ele>
        <time>2022-03-27T08:47:04Z</time>
      </trkpt>
      <trkpt lat="49.47189" lon="1.15957">
        <ele>104.9</ele>
        <time>2022-03-27T08:47:06Z</time>
      </trkpt>
      <trkpt lat="49.47189" lon="1.15955">
        <ele>105.1</ele>
        <time>2022-03-27T08:47:07Z</time>
      </trkpt>
      <trkpt lat="49.47188" lon="1.15954">
        <ele>105.2</ele>
        <time>2022-03-27T08:47:08Z</time>
      </trkpt>
      <trkpt lat="49.47188" lon="1.15953">
        <ele>105.3</ele>
        <time>2022-03-27T08:47:09Z</time>
      </trkpt>
      <trkpt lat="49.47189" lon="1.15953">
        <ele>105.5</ele>
        <time>2022-03-27T08:47:10Z</time>
      </trkpt>
      <trkpt lat="49.47191" lon="1.15954">
        <ele>105.7</ele>
        <time>2022-03-27T08:47:11Z</time>
      </trkpt>
      <trkpt lat="49.47192" lon="1.15955">
        <ele>105.9</ele>
        <time>2022-03-27T08:47:12Z</time>
      </trkpt>
      <trkpt lat="49.47193" lon="1.15951">
        <ele>106.3</ele>
        <time>2022-03-27T08:47:13Z</time>
      </trkpt>
      <trkpt lat="49.47194" lon="1.15947">
        <ele>106.8</ele>
        <time>2022-03-27T08:47:14Z</time>
      </trkpt>
      <trkpt lat="49.47194" lon="1.15945">
        <ele>106.9</ele>
        <time>2022-03-27T08:47:15Z</time>
      </trkpt>
      <trkpt lat="49.47194" lon="1.15941">
        <ele>107.4</ele>
        <time>2022-03-27T08:47:16Z</time>
      </trkpt>
      <trkpt lat="49.47195" lon="1.1594">
        <ele>107.5</ele>
        <time>2022-03-27T08:47:17Z</time>
      </trkpt>
      <trkpt lat="49.47196" lon="1.15934">
        <ele>108</ele>
        <time>2022-03-27T08:47:18Z</time>
      </trkpt>
      <trkpt lat="49.47195" lon="1.15927">
        <ele>108.7</ele>
        <time>2022-03-27T08:47:20Z</time>
      </trkpt>
      <trkpt lat="49.47194" lon="1.15925">
        <ele>108.9</ele>
        <time>2022-03-27T08:47:22Z</time>
      </trkpt>
      <trkpt lat="49.47194" lon="1.15923">
        <ele>109.1</ele>
        <time>2022-03-27T08:47:23Z</time>
      </trkpt>
      <trkpt lat="49.47193" lon="1.15918">
        <ele>109.6</ele>
        <time>2022-03-27T08:47:24Z</time>
      </trkpt>
      <trkpt lat="49.47192" lon="1.15916">
        <ele>109.9</ele>
        <time>2022-03-27T08:47:26Z</time>
      </trkpt>
      <trkpt lat="49.4719" lon="1.15914">
        <ele>110.2</ele>
        <time>2022-03-27T08:47:27Z</time>
      </trkpt>
      <trkpt lat="49.47189" lon="1.15914">
        <ele>110.4</ele>
        <time>2022-03-27T08:47:29Z</time>
      </trkpt>
      <trkpt lat="49.47188" lon="1.15913">
        <ele>110.6</ele>
        <time>2022-03-27T08:47:30Z</time>
      </trkpt>
      <trkpt lat="49.47187" lon="1.15911">
        <ele>110.7</ele>
        <time>2022-03-27T08:47:31Z</time>
      </trkpt>
      <trkpt lat="49.47187" lon="1.15909">
        <ele>111</ele>
        <time>2022-03-27T08:47:32Z</time>
      </trkpt>
      <trkpt lat="49.47187" lon="1.15907">
        <ele>111.1</ele>
        <time>2022-03-27T08:47:34Z</time>
      </trkpt>
      <trkpt lat="49.47187" lon="1.15905">
        <ele>111.4</ele>
        <time>2022-03-27T08:47:36Z</time>
      </trkpt>
      <trkpt lat="49.47186" lon="1.15901">
        <ele>111.8</ele>
        <time>2022-03-27T08:47:37Z</time>
      </trkpt>
      <trkpt lat="49.47186" lon="1.15899">
        <ele>112</ele>
        <time>2022-03-27T08:47:38Z</time>
      </trkpt>
      <trkpt lat="49.47186" lon="1.15897">
        <ele>112.2</ele>
        <time>2022-03-27T08:47:39Z</time>
      </trkpt>
      <trkpt lat="49.47186" lon="1.15894">
        <ele>112.5</ele>
        <time>2022-03-27T08:47:40Z</time>
      </trkpt>
      <trkpt lat="49.47186" lon="1.15891">
        <ele>112.7</ele>
        <time>2022-03-27T08:47:41Z</time>
      </trkpt>
      <trkpt lat="49.47186" lon="1.15887">
        <ele>113.1</ele>
        <time>2022-03-27T08:47:43Z</time>
      </trkpt>
      <trkpt lat="49.47187" lon="1.15882">
        <ele>113.6</ele>
        <time>2022-03-27T08:47:44Z</time>
      </trkpt>
      <trkpt lat="49.47187" lon="1.15881">
        <ele>113.7</ele>
        <time>2022-03-27T08:47:45Z</time>
      </trkpt>
      <trkpt lat="49.47187" lon="1.15879">
        <ele>113.8</ele>
        <time>2022-03-27T08:47:47Z</time>
      </trkpt>
      <trkpt lat="49.47188" lon="1.15879">
        <ele>114</ele>
        <time>2022-03-27T08:47:48Z</time>
      </trkpt>
      <trkpt lat="49.47189" lon="1.15879">
        <ele>114.1</ele>
        <time>2022-03-27T08:47:49Z</time>
      </trkpt>
      <trkpt lat="49.47189" lon="1.15879">
        <ele>114.2</ele>
        <time>2022-03-27T08:47:50Z</time>
      </trkpt>
      <trkpt lat="49.4719" lon="1.15879">
        <ele>114.3</ele>
        <time>2022-03-27T08:47:51Z</time>
      </trkpt>
      <trkpt lat="49.4719" lon="1.15878">
        <ele>114.3</ele>
        <time>2022-03-27T08:47:53Z</time>
      </trkpt>
      <trkpt lat="49.4719" lon="1.15877">
        <ele>114.4</ele>
        <time>2022-03-27T08:47:54Z</time>
      </trkpt>
      <trkpt lat="49.4719" lon="1.15876">
        <ele>114.5</ele>
        <time>2022-03-27T08:47:55Z</time>
      </trkpt>
      <trkpt lat="49.47189" lon="1.15876">
        <ele>114.5</ele>
        <time>2022-03-27T08:47:56Z</time>
      </trkpt>
      <trkpt lat="49.47189" lon="1.15876">
        <ele>114.6</ele>
        <time>2022-03-27T08:47:57Z</time>
      </trkpt>
      <trkpt lat="49.47189" lon="1.15875">
        <ele>114.6</ele>
        <time>2022-03-27T08:47:58Z</time>
      </trkpt>
      <trkpt lat="49.47189" lon="1.15875">
        <ele>114.7</ele>
        <time>2022-03-27T08:47:59Z</time>
      </trkpt>
      <trkpt lat="49.47189" lon="1.15875">
        <ele>114.7</ele>
        <time>2022-03-27T08:48:00Z</time>
      </trkpt>
      <trkpt lat="49.47189" lon="1.15875">
        <ele>114.7</ele>
        <time>2022-03-27T08:48:01Z</time>
      </trkpt>
      <trkpt lat="49.47189" lon="1.15875">
        <ele>114.7</ele>
        <time>2022-03-27T08:48:02Z</time>
      </trkpt>
      <trkpt lat="49.47189" lon="1.15875">
        <ele>114.7</ele>
        <time>2022-03-27T08:48:04Z</time>
      </trkpt>
      <trkpt lat="49.47188" lon="1.15875">
        <ele>114.7</ele>
        <time>2022-03-27T08:48:05Z</time>
      </trkpt>
      <trkpt lat="49.47188" lon="1.15875">
        <ele>114.7</ele>
        <time>2022-03-27T08:48:06Z</time>
      </trkpt>
      <trkpt lat="49.47188" lon="1.15876">
        <ele>114.8</ele>
        <time>2022-03-27T08:48:07Z</time>
      </trkpt>
      <trkpt lat="49.47188" lon="1.15876">
        <ele>114.8</ele>
        <time>2022-03-27T08:48:08Z</time>
      </trkpt>
      <trkpt lat="49.47192" lon="1.15875">
        <ele>115.3</ele>
        <time>2022-03-27T08:49:24Z</time>
      </trkpt>
      <trkpt lat="49.4719" lon="1.15879">
        <ele>115.7</ele>
        <time>2022-03-27T08:49:26Z</time>
      </trkpt>
      <trkpt lat="49.4719" lon="1.1588">
        <ele>115.8</ele>
        <time>2022-03-27T08:49:27Z</time>
      </trkpt>
      <trkpt lat="49.47191" lon="1.15879">
        <ele>115.9</ele>
        <time>2022-03-27T08:49:28Z</time>
      </trkpt>
      <trkpt lat="49.47192" lon="1.15878">
        <ele>116.1</ele>
        <time>2022-03-27T08:49:29Z</time>
      </trkpt>
      <trkpt lat="49.47193" lon="1.15876">
        <ele>116.2</ele>
        <time>2022-03-27T08:49:31Z</time>
      </trkpt>
      <trkpt lat="49.47194" lon="1.15875">
        <ele>116.4</ele>
        <time>2022-03-27T08:49:32Z</time>
      </trkpt>
      <trkpt lat="49.47195" lon="1.15875">
        <ele>116.5</ele>
        <time>2022-03-27T08:49:33Z</time>
      </trkpt>
      <trkpt lat="49.47196" lon="1.15874">
        <ele>116.5</ele>
        <time>2022-03-27T08:49:34Z</time>
      </trkpt>
      <trkpt lat="49.47196" lon="1.15875">
        <ele>116.6</ele>
        <time>2022-03-27T08:49:35Z</time>
      </trkpt>
      <trkpt lat="49.47197" lon="1.15873">
        <ele>116.7</ele>
        <time>2022-03-27T08:49:36Z</time>
      </trkpt>
      <trkpt lat="49.47198" lon="1.15872">
        <ele>116.9</ele>
        <time>2022-03-27T08:49:37Z</time>
      </trkpt>
      <trkpt lat="49.47198" lon="1.15871">
        <ele>117</ele>
        <time>2022-03-27T08:49:38Z</time>
      </trkpt>
      <trkpt lat="49.47199" lon="1.15869">
        <ele>117.1</ele>
        <time>2022-03-27T08:49:39Z</time>
      </trkpt>
      <trkpt lat="49.47199" lon="1.15868">
        <ele>117.2</ele>
        <time>2022-03-27T08:49:41Z</time>
      </trkpt>
      <trkpt lat="49.47199" lon="1.15865">
        <ele>117.4</ele>
        <time>2022-03-27T08:49:42Z</time>
      </trkpt>
      <trkpt lat="49.47198" lon="1.15864">
        <ele>117.6</ele>
        <time>2022-03-27T08:49:44Z</time>
      </trkpt>
      <trkpt lat="49.47197" lon="1.15862">
        <ele>117.7</ele>
        <time>2022-03-27T08:49:45Z</time>
      </trkpt>
      <trkpt lat="49.47197" lon="1.15859">
        <ele>117.9</ele>
        <time>2022-03-27T08:49:47Z</time>
      </trkpt>
      <trkpt lat="49.47197" lon="1.15857">
        <ele>118</ele>
        <time>2022-03-27T08:49:49Z</time>
      </trkpt>
      <trkpt lat="49.47197" lon="1.15856">
        <ele>118.1</ele>
        <time>2022-03-27T08:49:50Z</time>
      </trkpt>
      <trkpt lat="49.47197" lon="1.15855">
        <ele>118.1</ele>
        <time>2022-03-27T08:49:51Z</time>
      </trkpt>
      <trkpt lat="49.47197" lon="1.15854">
        <ele>118.2</ele>
        <time>2022-03-27T08:49:52Z</time>
      </trkpt>
      <trkpt lat="49.47197" lon="1.15853">
        <ele>118.3</ele>
        <time>2022-03-27T08:49:53Z</time>
      </trkpt>
      <trkpt lat="49.47199" lon="1.1585">
        <ele>118.6</ele>
        <time>2022-03-27T08:49:54Z</time>
      </trkpt>
      <trkpt lat="49.472" lon="1.15847">
        <ele>118.8</ele>
        <time>2022-03-27T08:49:56Z</time>
      </trkpt>
      <trkpt lat="49.47201" lon="1.15845">
        <ele>118.9</ele>
        <time>2022-03-27T08:49:57Z</time>
      </trkpt>
      <trkpt lat="49.47202" lon="1.15842">
        <ele>119.2</ele>
        <time>2022-03-27T08:49:58Z</time>
      </trkpt>
      <trkpt lat="49.47203" lon="1.1584">
        <ele>119.4</ele>
        <time>2022-03-27T08:49:59Z</time>
      </trkpt>
      <trkpt lat="49.47205" lon="1.15839">
        <ele>119.5</ele>
        <time>2022-03-27T08:50:01Z</time>
      </trkpt>
      <trkpt lat="49.47206" lon="1.15837">
        <ele>119.7</ele>
        <time>2022-03-27T08:50:02Z</time>
      </trkpt>
      <trkpt lat="49.47208" lon="1.15833">
        <ele>120</ele>
        <time>2022-03-27T08:50:03Z</time>
      </trkpt>
      <trkpt lat="49.47208" lon="1.15832">
        <ele>120.1</ele>
        <time>2022-03-27T08:50:04Z</time>
      </trkpt>
      <trkpt lat="49.4721" lon="1.15828">
        <ele>120.5</ele>
        <time>2022-03-27T08:50:05Z</time>
      </trkpt>
      <trkpt lat="49.47211" lon="1.15826">
        <ele>120.7</ele>
        <time>2022-03-27T08:50:06Z</time>
      </trkpt>
      <trkpt lat="49.47215" lon="1.15822">
        <ele>121.3</ele>
        <time>2022-03-27T08:50:08Z</time>
      </trkpt>
      <trkpt lat="49.47216" lon="1.15821">
        <ele>121.4</ele>
        <time>2022-03-27T08:50:09Z</time>
      </trkpt>
      <trkpt lat="49.47217" lon="1.1582">
        <ele>121.6</ele>
        <time>2022-03-27T08:50:10Z</time>
      </trkpt>
      <trkpt lat="49.4722" lon="1.15818">
        <ele>122</ele>
        <time>2022-03-27T08:50:11Z</time>
      </trkpt>
      <trkpt lat="49.47222" lon="1.15816">
        <ele>122.3</ele>
        <time>2022-03-27T08:50:13Z</time>
      </trkpt>
      <trkpt lat="49.47225" lon="1.15815">
        <ele>122.7</ele>
        <time>2022-03-27T08:50:15Z</time>
      </trkpt>
      <trkpt lat="49.47226" lon="1.15815">
        <ele>122.9</ele>
        <time>2022-03-27T08:50:16Z</time>
      </trkpt>
      <trkpt lat="49.47228" lon="1.15816">
        <ele>123.2</ele>
        <time>2022-03-27T08:50:17Z</time>
      </trkpt>
      <trkpt lat="49.4723" lon="1.15816">
        <ele>123.5</ele>
        <time>2022-03-27T08:50:18Z</time>
      </trkpt>
      <trkpt lat="49.47232" lon="1.15814">
        <ele>123.7</ele>
        <time>2022-03-27T08:50:20Z</time>
      </trkpt>
      <trkpt lat="49.47233" lon="1.15813">
        <ele>124</ele>
        <time>2022-03-27T08:50:21Z</time>
      </trkpt>
      <trkpt lat="49.47234" lon="1.15813">
        <ele>124.2</ele>
        <time>2022-03-27T08:50:22Z</time>
      </trkpt>
      <trkpt lat="49.47236" lon="1.15812">
        <ele>124.4</ele>
        <time>2022-03-27T08:50:23Z</time>
      </trkpt>
      <trkpt lat="49.47237" lon="1.15812">
        <ele>124.7</ele>
        <time>2022-03-27T08:50:24Z</time>
      </trkpt>
      <trkpt lat="49.47241" lon="1.1581">
        <ele>125.3</ele>
        <time>2022-03-27T08:50:25Z</time>
      </trkpt>
      <trkpt lat="49.47242" lon="1.15809">
        <ele>125.5</ele>
        <time>2022-03-27T08:50:26Z</time>
      </trkpt>
      <trkpt lat="49.47246" lon="1.15807">
        <ele>126.2</ele>
        <time>2022-03-27T08:50:28Z</time>
      </trkpt>
      <trkpt lat="49.47247" lon="1.15806">
        <ele>126.4</ele>
        <time>2022-03-27T08:50:29Z</time>
      </trkpt>
      <trkpt lat="49.47249" lon="1.15805">
        <ele>126.7</ele>
        <time>2022-03-27T08:50:30Z</time>
      </trkpt>
      <trkpt lat="49.4725" lon="1.15804">
        <ele>127</ele>
        <time>2022-03-27T08:50:32Z</time>
      </trkpt>
      <trkpt lat="49.47251" lon="1.15802">
        <ele>127.3</ele>
        <time>2022-03-27T08:50:33Z</time>
      </trkpt>
      <trkpt lat="49.47253" lon="1.158">
        <ele>127.6</ele>
        <time>2022-03-27T08:50:34Z</time>
      </trkpt>
      <trkpt lat="49.47255" lon="1.15799">
        <ele>128</ele>
        <time>2022-03-27T08:50:36Z</time>
      </trkpt>
      <trkpt lat="49.47257" lon="1.15798">
        <ele>128.3</ele>
        <time>2022-03-27T08:50:37Z</time>
      </trkpt>
      <trkpt lat="49.47258" lon="1.15797">
        <ele>128.5</ele>
        <time>2022-03-27T08:50:38Z</time>
      </trkpt>
      <trkpt lat="49.4726" lon="1.15795">
        <ele>129</ele>
        <time>2022-03-27T08:50:39Z</time>
      </trkpt>
      <trkpt lat="49.47261" lon="1.15794">
        <ele>129.1</ele>
        <time>2022-03-27T08:50:40Z</time>
      </trkpt>
      <trkpt lat="49.47263" lon="1.15793">
        <ele>129.4</ele>
        <time>2022-03-27T08:50:42Z</time>
      </trkpt>
      <trkpt lat="49.47265" lon="1.15792">
        <ele>129.8</ele>
        <time>2022-03-27T08:50:43Z</time>
      </trkpt>
      <trkpt lat="49.47267" lon="1.15791">
        <ele>130.2</ele>
        <time>2022-03-27T08:50:45Z</time>
      </trkpt>
      <trkpt lat="49.47267" lon="1.1579">
        <ele>130.3</ele>
        <time>2022-03-27T08:50:46Z</time>
      </trkpt>
      <trkpt lat="49.47269" lon="1.15789">
        <ele>130.6</ele>
        <time>2022-03-27T08:50:47Z</time>
      </trkpt>
      <trkpt lat="49.4727" lon="1.15789">
        <ele>130.8</ele>
        <time>2022-03-27T08:50:48Z</time>
      </trkpt>
      <trkpt lat="49.47271" lon="1.15788">
        <ele>130.9</ele>
        <time>2022-03-27T08:50:49Z</time>
      </trkpt>
      <trkpt lat="49.47272" lon="1.15787">
        <ele>131.2</ele>
        <time>2022-03-27T08:50:51Z</time>
      </trkpt>
      <trkpt lat="49.47273" lon="1.15785">
        <ele>131.4</ele>
        <time>2022-03-27T08:50:52Z</time>
      </trkpt>
      <trkpt lat="49.47274" lon="1.15784">
        <ele>131.5</ele>
        <time>2022-03-27T08:50:53Z</time>
      </trkpt>
      <trkpt lat="49.47275" lon="1.15784">
        <ele>131.7</ele>
        <time>2022-03-27T08:50:54Z</time>
      </trkpt>
      <trkpt lat="49.47276" lon="1.15784">
        <ele>131.8</ele>
        <time>2022-03-27T08:50:56Z</time>
      </trkpt>
      <trkpt lat="49.47277" lon="1.15783">
        <ele>132</ele>
        <time>2022-03-27T08:50:57Z</time>
      </trkpt>
      <trkpt lat="49.47278" lon="1.15783">
        <ele>132.1</ele>
        <time>2022-03-27T08:50:58Z</time>
      </trkpt>
      <trkpt lat="49.47279" lon="1.15782">
        <ele>132.3</ele>
        <time>2022-03-27T08:50:59Z</time>
      </trkpt>
      <trkpt lat="49.47281" lon="1.15781">
        <ele>132.6</ele>
        <time>2022-03-27T08:51:01Z</time>
      </trkpt>
      <trkpt lat="49.47282" lon="1.15781">
        <ele>132.7</ele>
        <time>2022-03-27T08:51:02Z</time>
      </trkpt>
      <trkpt lat="49.47285" lon="1.1578">
        <ele>133</ele>
        <time>2022-03-27T08:51:03Z</time>
      </trkpt>
      <trkpt lat="49.47286" lon="1.1578">
        <ele>133.2</ele>
        <time>2022-03-27T08:51:04Z</time>
      </trkpt>
      <trkpt lat="49.47287" lon="1.15779">
        <ele>133.3</ele>
        <time>2022-03-27T08:51:06Z</time>
      </trkpt>
      <trkpt lat="49.47288" lon="1.15779">
        <ele>133.5</ele>
        <time>2022-03-27T08:51:07Z</time>
      </trkpt>
      <trkpt lat="49.4729" lon="1.15778">
        <ele>133.7</ele>
        <time>2022-03-27T08:51:08Z</time>
      </trkpt>
      <trkpt lat="49.47291" lon="1.15778">
        <ele>133.9</ele>
        <time>2022-03-27T08:51:09Z</time>
      </trkpt>
      <trkpt lat="49.47294" lon="1.15776">
        <ele>134.2</ele>
        <time>2022-03-27T08:51:10Z</time>
      </trkpt>
      <trkpt lat="49.47297" lon="1.15775">
        <ele>134.7</ele>
        <time>2022-03-27T08:51:12Z</time>
      </trkpt>
      <trkpt lat="49.47299" lon="1.15775">
        <ele>135.2</ele>
        <time>2022-03-27T08:51:13Z</time>
      </trkpt>
      <trkpt lat="49.47301" lon="1.15775">
        <ele>135.3</ele>
        <time>2022-03-27T08:51:14Z</time>
      </trkpt>
      <trkpt lat="49.47303" lon="1.15774">
        <ele>135.4</ele>
        <time>2022-03-27T08:51:15Z</time>
      </trkpt>
      <trkpt lat="49.47307" lon="1.15772">
        <ele>135.6</ele>
        <time>2022-03-27T08:51:17Z</time>
      </trkpt>
      <trkpt lat="49.47308" lon="1.15771">
        <ele>135.7</ele>
        <time>2022-03-27T08:51:18Z</time>
      </trkpt>
      <trkpt lat="49.4731" lon="1.15768">
        <ele>135.8</ele>
        <time>2022-03-27T08:51:20Z</time>
      </trkpt>
      <trkpt lat="49.47314" lon="1.15765">
        <ele>135.9</ele>
        <time>2022-03-27T08:51:22Z</time>
      </trkpt>
      <trkpt lat="49.47316" lon="1.15764">
        <ele>136</ele>
        <time>2022-03-27T08:51:24Z</time>
      </trkpt>
      <trkpt lat="49.47317" lon="1.15764">
        <ele>136</ele>
        <time>2022-03-27T08:51:25Z</time>
      </trkpt>
      <trkpt lat="49.47319" lon="1.15763">
        <ele>136.1</ele>
        <time>2022-03-27T08:51:27Z</time>
      </trkpt>
      <trkpt lat="49.47319" lon="1.15763">
        <ele>136.1</ele>
        <time>2022-03-27T08:51:28Z</time>
      </trkpt>
      <trkpt lat="49.47319" lon="1.15763">
        <ele>136.1</ele>
        <time>2022-03-27T08:51:29Z</time>
      </trkpt>
      <trkpt lat="49.47319" lon="1.15763">
        <ele>136.1</ele>
        <time>2022-03-27T08:51:30Z</time>
      </trkpt>
      <trkpt lat="49.47319" lon="1.15763">
        <ele>136.1</ele>
        <time>2022-03-27T08:51:31Z</time>
      </trkpt>
      <trkpt lat="49.47319" lon="1.15764">
        <ele>136.1</ele>
        <time>2022-03-27T08:51:33Z</time>
      </trkpt>
      <trkpt lat="49.47319" lon="1.15764">
        <ele>136.1</ele>
        <time>2022-03-27T08:51:34Z</time>
      </trkpt>
      <trkpt lat="49.47319" lon="1.15764">
        <ele>136.1</ele>
        <time>2022-03-27T08:51:35Z</time>
      </trkpt>
      <trkpt lat="49.47319" lon="1.15764">
        <ele>136.1</ele>
        <time>2022-03-27T08:51:36Z</time>
      </trkpt>
      <trkpt lat="49.47319" lon="1.15764">
        <ele>136.1</ele>
        <time>2022-03-27T08:51:37Z</time>
      </trkpt>
      <trkpt lat="49.47319" lon="1.15764">
        <ele>136.1</ele>
        <time>2022-03-27T08:51:38Z</time>
      </trkpt>
      <trkpt lat="49.47319" lon="1.15764">
        <ele>136.1</ele>
        <time>2022-03-27T08:51:39Z</time>
      </trkpt>
      <trkpt lat="49.47319" lon="1.15764">
        <ele>136.1</ele>
        <time>2022-03-27T08:51:40Z</time>
      </trkpt>
      <trkpt lat="49.47316" lon="1.15764">
        <ele>136.2</ele>
        <time>2022-03-27T08:51:50Z</time>
      </trkpt>
      <trkpt lat="49.47315" lon="1.15765">
        <ele>136.2</ele>
        <time>2022-03-27T08:51:51Z</time>
      </trkpt>
      <trkpt lat="49.47314" lon="1.15767">
        <ele>136.3</ele>
        <time>2022-03-27T08:51:52Z</time>
      </trkpt>
      <trkpt lat="49.47314" lon="1.15768">
        <ele>136.3</ele>
        <time>2022-03-27T08:51:53Z</time>
      </trkpt>
      <trkpt lat="49.47314" lon="1.15768">
        <ele>136.3</ele>
        <time>2022-03-27T08:51:54Z</time>
      </trkpt>
      <trkpt lat="49.47313" lon="1.15769">
        <ele>136.3</ele>
        <time>2022-03-27T08:51:55Z</time>
      </trkpt>
      <trkpt lat="49.47312" lon="1.1577">
        <ele>136.3</ele>
        <time>2022-03-27T08:51:56Z</time>
      </trkpt>
      <trkpt lat="49.47312" lon="1.15772">
        <ele>136.4</ele>
        <time>2022-03-27T08:51:57Z</time>
      </trkpt>
      <trkpt lat="49.47311" lon="1.15774">
        <ele>136.4</ele>
        <time>2022-03-27T08:51:59Z</time>
      </trkpt>
      <trkpt lat="49.4731" lon="1.15775">
        <ele>136.4</ele>
        <time>2022-03-27T08:52:00Z</time>
      </trkpt>
      <trkpt lat="49.47311" lon="1.15774">
        <ele>136.5</ele>
        <time>2022-03-27T08:52:02Z</time>
      </trkpt>
      <trkpt lat="49.47312" lon="1.15771">
        <ele>136.5</ele>
        <time>2022-03-27T08:52:37Z</time>
      </trkpt>
      <trkpt lat="49.47313" lon="1.15769">
        <ele>136.5</ele>
        <time>2022-03-27T08:52:38Z</time>
      </trkpt>
      <trkpt lat="49.47314" lon="1.15766">
        <ele>136.6</ele>
        <time>2022-03-27T08:52:39Z</time>
      </trkpt>
      <trkpt lat="49.47315" lon="1.15765">
        <ele>136.6</ele>
        <time>2022-03-27T08:52:40Z</time>
      </trkpt>
      <trkpt lat="49.47315" lon="1.15764">
        <ele>136.6</ele>
        <time>2022-03-27T08:52:41Z</time>
      </trkpt>
      <trkpt lat="49.47316" lon="1.15764">
        <ele>136.6</ele>
        <time>2022-03-27T08:52:43Z</time>
      </trkpt>
      <trkpt lat="49.47317" lon="1.15763">
        <ele>136.6</ele>
        <time>2022-03-27T08:52:44Z</time>
      </trkpt>
      <trkpt lat="49.4732" lon="1.15763">
        <ele>136.7</ele>
        <time>2022-03-27T08:52:45Z</time>
      </trkpt>
      <trkpt lat="49.47322" lon="1.15764">
        <ele>136.7</ele>
        <time>2022-03-27T08:52:46Z</time>
      </trkpt>
      <trkpt lat="49.47324" lon="1.15765">
        <ele>136.8</ele>
        <time>2022-03-27T08:52:48Z</time>
      </trkpt>
      <trkpt lat="49.47325" lon="1.15765">
        <ele>136.8</ele>
        <time>2022-03-27T08:52:49Z</time>
      </trkpt>
      <trkpt lat="49.47326" lon="1.15766">
        <ele>136.8</ele>
        <time>2022-03-27T08:52:50Z</time>
      </trkpt>
      <trkpt lat="49.47327" lon="1.15766">
        <ele>136.8</ele>
        <time>2022-03-27T08:52:51Z</time>
      </trkpt>
      <trkpt lat="49.47328" lon="1.15766">
        <ele>136.8</ele>
        <time>2022-03-27T08:52:52Z</time>
      </trkpt>
      <trkpt lat="49.47327" lon="1.15766">
        <ele>136.8</ele>
        <time>2022-03-27T08:52:53Z</time>
      </trkpt>
      <trkpt lat="49.47327" lon="1.15766">
        <ele>136.8</ele>
        <time>2022-03-27T08:52:54Z</time>
      </trkpt>
      <trkpt lat="49.47327" lon="1.15765">
        <ele>136.8</ele>
        <time>2022-03-27T08:52:55Z</time>
      </trkpt>
      <trkpt lat="49.47328" lon="1.15765">
        <ele>136.8</ele>
        <time>2022-03-27T08:52:56Z</time>
      </trkpt>
      <trkpt lat="49.47328" lon="1.15767">
        <ele>136.8</ele>
        <time>2022-03-27T08:52:57Z</time>
      </trkpt>
      <trkpt lat="49.47331" lon="1.15769">
        <ele>136.9</ele>
        <time>2022-03-27T08:52:59Z</time>
      </trkpt>
      <trkpt lat="49.47332" lon="1.15771">
        <ele>136.9</ele>
        <time>2022-03-27T08:53:00Z</time>
      </trkpt>
      <trkpt lat="49.47333" lon="1.15772">
        <ele>136.9</ele>
        <time>2022-03-27T08:53:01Z</time>
      </trkpt>
      <trkpt lat="49.47337" lon="1.15774">
        <ele>137</ele>
        <time>2022-03-27T08:53:03Z</time>
      </trkpt>
      <trkpt lat="49.47338" lon="1.15774">
        <ele>137.1</ele>
        <time>2022-03-27T08:53:05Z</time>
      </trkpt>
      <trkpt lat="49.47341" lon="1.15772">
        <ele>137.1</ele>
        <time>2022-03-27T08:53:06Z</time>
      </trkpt>
      <trkpt lat="49.47343" lon="1.15769">
        <ele>137.2</ele>
        <time>2022-03-27T08:53:08Z</time>
      </trkpt>
      <trkpt lat="49.47347" lon="1.15767">
        <ele>137.2</ele>
        <time>2022-03-27T08:53:09Z</time>
      </trkpt>
      <trkpt lat="49.4735" lon="1.15766">
        <ele>137.3</ele>
        <time>2022-03-27T08:53:11Z</time>
      </trkpt>
      <trkpt lat="49.47353" lon="1.15767">
        <ele>137.4</ele>
        <time>2022-03-27T08:53:12Z</time>
      </trkpt>
      <trkpt lat="49.47358" lon="1.15767">
        <ele>137.4</ele>
        <time>2022-03-27T08:53:13Z</time>
      </trkpt>
      <trkpt lat="49.4736" lon="1.15767">
        <ele>137.5</ele>
        <time>2022-03-27T08:53:14Z</time>
      </trkpt>
      <trkpt lat="49.47363" lon="1.15766">
        <ele>137.5</ele>
        <time>2022-03-27T08:53:16Z</time>
      </trkpt>
      <trkpt lat="49.47366" lon="1.15764">
        <ele>137.6</ele>
        <time>2022-03-27T08:53:17Z</time>
      </trkpt>
      <trkpt lat="49.47371" lon="1.15761">
        <ele>137.8</ele>
        <time>2022-03-27T08:53:19Z</time>
      </trkpt>
      <trkpt lat="49.47374" lon="1.15761">
        <ele>137.9</ele>
        <time>2022-03-27T08:53:21Z</time>
      </trkpt>
      <trkpt lat="49.47378" lon="1.1576">
        <ele>138</ele>
        <time>2022-03-27T08:53:22Z</time>
      </trkpt>
      <trkpt lat="49.47381" lon="1.1576">
        <ele>138.2</ele>
        <time>2022-03-27T08:53:24Z</time>
      </trkpt>
      <trkpt lat="49.47382" lon="1.1576">
        <ele>138.2</ele>
        <time>2022-03-27T08:53:25Z</time>
      </trkpt>
      <trkpt lat="49.47386" lon="1.1576">
        <ele>138.4</ele>
        <time>2022-03-27T08:53:26Z</time>
      </trkpt>
      <trkpt lat="49.47387" lon="1.1576">
        <ele>138.5</ele>
        <time>2022-03-27T08:53:27Z</time>
      </trkpt>
      <trkpt lat="49.4739" lon="1.1576">
        <ele>138.7</ele>
        <time>2022-03-27T08:53:28Z</time>
      </trkpt>
      <trkpt lat="49.47393" lon="1.15759">
        <ele>138.9</ele>
        <time>2022-03-27T08:53:30Z</time>
      </trkpt>
      <trkpt lat="49.47396" lon="1.15758">
        <ele>139.2</ele>
        <time>2022-03-27T08:53:31Z</time>
      </trkpt>
      <trkpt lat="49.47399" lon="1.15758">
        <ele>139.4</ele>
        <time>2022-03-27T08:53:32Z</time>
      </trkpt>
      <trkpt lat="49.47403" lon="1.15757">
        <ele>139.8</ele>
        <time>2022-03-27T08:53:33Z</time>
      </trkpt>
      <trkpt lat="49.47409" lon="1.15755">
        <ele>140.3</ele>
        <time>2022-03-27T08:53:34Z</time>
      </trkpt>
      <trkpt lat="49.47413" lon="1.15753">
        <ele>140.7</ele>
        <time>2022-03-27T08:53:35Z</time>
      </trkpt>
      <trkpt lat="49.47417" lon="1.15752">
        <ele>141</ele>
        <time>2022-03-27T08:53:36Z</time>
      </trkpt>
      <trkpt lat="49.4742" lon="1.15751">
        <ele>141.3</ele>
        <time>2022-03-27T08:53:37Z</time>
      </trkpt>
      <trkpt lat="49.47423" lon="1.1575">
        <ele>141.5</ele>
        <time>2022-03-27T08:53:38Z</time>
      </trkpt>
      <trkpt lat="49.47427" lon="1.15749">
        <ele>141.9</ele>
        <time>2022-03-27T08:53:40Z</time>
      </trkpt>
      <trkpt lat="49.47432" lon="1.15748">
        <ele>142.3</ele>
        <time>2022-03-27T08:53:41Z</time>
      </trkpt>
      <trkpt lat="49.47436" lon="1.15748">
        <ele>142.6</ele>
        <time>2022-03-27T08:53:43Z</time>
      </trkpt>
      <trkpt lat="49.47437" lon="1.15748">
        <ele>142.7</ele>
        <time>2022-03-27T08:53:44Z</time>
      </trkpt>
      <trkpt lat="49.47441" lon="1.15748">
        <ele>142.9</ele>
        <time>2022-03-27T08:53:45Z</time>
      </trkpt>
      <trkpt lat="49.47442" lon="1.15748">
        <ele>143</ele>
        <time>2022-03-27T08:53:46Z</time>
      </trkpt>
      <trkpt lat="49.47446" lon="1.15748">
        <ele>143.3</ele>
        <time>2022-03-27T08:53:47Z</time>
      </trkpt>
      <trkpt lat="49.47447" lon="1.15749">
        <ele>143.4</ele>
        <time>2022-03-27T08:53:48Z</time>
      </trkpt>
      <trkpt lat="49.4745" lon="1.15749">
        <ele>143.6</ele>
        <time>2022-03-27T08:53:49Z</time>
      </trkpt>
      <trkpt lat="49.47453" lon="1.15749">
        <ele>143.8</ele>
        <time>2022-03-27T08:53:50Z</time>
      </trkpt>
      <trkpt lat="49.47455" lon="1.15749">
        <ele>144</ele>
        <time>2022-03-27T08:53:52Z</time>
      </trkpt>
      <trkpt lat="49.47457" lon="1.15749">
        <ele>144.1</ele>
        <time>2022-03-27T08:53:53Z</time>
      </trkpt>
      <trkpt lat="49.47459" lon="1.15749">
        <ele>144.2</ele>
        <time>2022-03-27T08:53:54Z</time>
      </trkpt>
      <trkpt lat="49.47462" lon="1.15749">
        <ele>144.4</ele>
        <time>2022-03-27T08:53:55Z</time>
      </trkpt>
      <trkpt lat="49.47463" lon="1.15749">
        <ele>144.4</ele>
        <time>2022-03-27T08:53:56Z</time>
      </trkpt>
      <trkpt lat="49.47466" lon="1.15749">
        <ele>144.6</ele>
        <time>2022-03-27T08:53:57Z</time>
      </trkpt>
      <trkpt lat="49.47467" lon="1.15749">
        <ele>144.7</ele>
        <time>2022-03-27T08:53:58Z</time>
      </trkpt>
      <trkpt lat="49.47471" lon="1.1575">
        <ele>144.9</ele>
        <time>2022-03-27T08:53:59Z</time>
      </trkpt>
      <trkpt lat="49.47472" lon="1.1575">
        <ele>144.9</ele>
        <time>2022-03-27T08:54:00Z</time>
      </trkpt>
      <trkpt lat="49.47474" lon="1.1575">
        <ele>145.1</ele>
        <time>2022-03-27T08:54:01Z</time>
      </trkpt>
      <trkpt lat="49.47477" lon="1.15751">
        <ele>145.2</ele>
        <time>2022-03-27T08:54:03Z</time>
      </trkpt>
      <trkpt lat="49.4748" lon="1.15752">
        <ele>145.3</ele>
        <time>2022-03-27T08:54:04Z</time>
      </trkpt>
      <trkpt lat="49.4748" lon="1.15753">
        <ele>145.4</ele>
        <time>2022-03-27T08:54:05Z</time>
      </trkpt>
      <trkpt lat="49.47483" lon="1.15754">
        <ele>145.5</ele>
        <time>2022-03-27T08:54:06Z</time>
      </trkpt>
      <trkpt lat="49.47484" lon="1.15754">
        <ele>145.5</ele>
        <time>2022-03-27T08:54:07Z</time>
      </trkpt>
      <trkpt lat="49.47487" lon="1.15756">
        <ele>145.6</ele>
        <time>2022-03-27T08:54:08Z</time>
      </trkpt>
      <trkpt lat="49.47489" lon="1.15756">
        <ele>145.7</ele>
        <time>2022-03-27T08:54:09Z</time>
      </trkpt>
      <trkpt lat="49.4749" lon="1.15757">
        <ele>145.7</ele>
        <time>2022-03-27T08:54:10Z</time>
      </trkpt>
      <trkpt lat="49.47492" lon="1.15758">
        <ele>145.8</ele>
        <time>2022-03-27T08:54:11Z</time>
      </trkpt>
      <trkpt lat="49.47495" lon="1.15761">
        <ele>145.9</ele>
        <time>2022-03-27T08:54:13Z</time>
      </trkpt>
      <trkpt lat="49.47497" lon="1.15762">
        <ele>145.9</ele>
        <time>2022-03-27T08:54:14Z</time>
      </trkpt>
      <trkpt lat="49.475" lon="1.15763">
        <ele>145.9</ele>
        <time>2022-03-27T08:54:16Z</time>
      </trkpt>
      <trkpt lat="49.47502" lon="1.15765">
        <ele>146</ele>
        <time>2022-03-27T08:54:17Z</time>
      </trkpt>
      <trkpt lat="49.47503" lon="1.15766">
        <ele>146</ele>
        <time>2022-03-27T08:54:18Z</time>
      </trkpt>
      <trkpt lat="49.47506" lon="1.15767">
        <ele>146</ele>
        <time>2022-03-27T08:54:19Z</time>
      </trkpt>
      <trkpt lat="49.47509" lon="1.1577">
        <ele>146</ele>
        <time>2022-03-27T08:54:21Z</time>
      </trkpt>
      <trkpt lat="49.47513" lon="1.15773">
        <ele>145.9</ele>
        <time>2022-03-27T08:54:22Z</time>
      </trkpt>
      <trkpt lat="49.47514" lon="1.15775">
        <ele>145.9</ele>
        <time>2022-03-27T08:54:23Z</time>
      </trkpt>
      <trkpt lat="49.47516" lon="1.15778">
        <ele>145.9</ele>
        <time>2022-03-27T08:54:24Z</time>
      </trkpt>
      <trkpt lat="49.47518" lon="1.15781">
        <ele>145.8</ele>
        <time>2022-03-27T08:54:26Z</time>
      </trkpt>
      <trkpt lat="49.47519" lon="1.15784">
        <ele>145.8</ele>
        <time>2022-03-27T08:54:27Z</time>
      </trkpt>
      <trkpt lat="49.4752" lon="1.15786">
        <ele>145.7</ele>
        <time>2022-03-27T08:54:28Z</time>
      </trkpt>
      <trkpt lat="49.47523" lon="1.15789">
        <ele>145.6</ele>
        <time>2022-03-27T08:54:29Z</time>
      </trkpt>
      <trkpt lat="49.47526" lon="1.15792">
        <ele>145.5</ele>
        <time>2022-03-27T08:54:30Z</time>
      </trkpt>
      <trkpt lat="49.47527" lon="1.15793">
        <ele>145.5</ele>
        <time>2022-03-27T08:54:31Z</time>
      </trkpt>
      <trkpt lat="49.47529" lon="1.15797">
        <ele>145.4</ele>
        <time>2022-03-27T08:54:33Z</time>
      </trkpt>
      <trkpt lat="49.4753" lon="1.15798">
        <ele>145.3</ele>
        <time>2022-03-27T08:54:34Z</time>
      </trkpt>
      <trkpt lat="49.47534" lon="1.15803">
        <ele>145.1</ele>
        <time>2022-03-27T08:54:35Z</time>
      </trkpt>
      <trkpt lat="49.47536" lon="1.15805">
        <ele>145</ele>
        <time>2022-03-27T08:54:36Z</time>
      </trkpt>
      <trkpt lat="49.4754" lon="1.15811">
        <ele>144.8</ele>
        <time>2022-03-27T08:54:37Z</time>
      </trkpt>
      <trkpt lat="49.47545" lon="1.15816">
        <ele>144.5</ele>
        <time>2022-03-27T08:54:39Z</time>
      </trkpt>
      <trkpt lat="49.47549" lon="1.1582">
        <ele>144.4</ele>
        <time>2022-03-27T08:54:40Z</time>
      </trkpt>
      <trkpt lat="49.47555" lon="1.15825">
        <ele>144.1</ele>
        <time>2022-03-27T08:54:41Z</time>
      </trkpt>
      <trkpt lat="49.47559" lon="1.15829">
        <ele>143.9</ele>
        <time>2022-03-27T08:54:42Z</time>
      </trkpt>
      <trkpt lat="49.47563" lon="1.15832">
        <ele>143.8</ele>
        <time>2022-03-27T08:54:44Z</time>
      </trkpt>
      <trkpt lat="49.47566" lon="1.15835">
        <ele>143.7</ele>
        <time>2022-03-27T08:54:45Z</time>
      </trkpt>
      <trkpt lat="49.47572" lon="1.15841">
        <ele>143.5</ele>
        <time>2022-03-27T08:54:46Z</time>
      </trkpt>
      <trkpt lat="49.47576" lon="1.15845">
        <ele>143.4</ele>
        <time>2022-03-27T08:54:47Z</time>
      </trkpt>
      <trkpt lat="49.47579" lon="1.15848">
        <ele>143.4</ele>
        <time>2022-03-27T08:54:49Z</time>
      </trkpt>
      <trkpt lat="49.47582" lon="1.15851">
        <ele>143.4</ele>
        <time>2022-03-27T08:54:50Z</time>
      </trkpt>
      <trkpt lat="49.47584" lon="1.15853">
        <ele>143.3</ele>
        <time>2022-03-27T08:54:51Z</time>
      </trkpt>
      <trkpt lat="49.47587" lon="1.15856">
        <ele>143.3</ele>
        <time>2022-03-27T08:54:52Z</time>
      </trkpt>
      <trkpt lat="49.47588" lon="1.15857">
        <ele>143.3</ele>
        <time>2022-03-27T08:54:53Z</time>
      </trkpt>
      <trkpt lat="49.47591" lon="1.1586">
        <ele>143.3</ele>
        <time>2022-03-27T08:54:54Z</time>
      </trkpt>
      <trkpt lat="49.47593" lon="1.15863">
        <ele>143.2</ele>
        <time>2022-03-27T08:54:55Z</time>
      </trkpt>
      <trkpt lat="49.47596" lon="1.15865">
        <ele>143.2</ele>
        <time>2022-03-27T08:54:57Z</time>
      </trkpt>
      <trkpt lat="49.47599" lon="1.15868">
        <ele>143.2</ele>
        <time>2022-03-27T08:54:58Z</time>
      </trkpt>
      <trkpt lat="49.47605" lon="1.15875">
        <ele>143.2</ele>
        <time>2022-03-27T08:54:59Z</time>
      </trkpt>
      <trkpt lat="49.47609" lon="1.15881">
        <ele>143.2</ele>
        <time>2022-03-27T08:55:01Z</time>
      </trkpt>
      <trkpt lat="49.47612" lon="1.15885">
        <ele>143.2</ele>
        <time>2022-03-27T08:55:02Z</time>
      </trkpt>
      <trkpt lat="49.47617" lon="1.15889">
        <ele>143.2</ele>
        <time>2022-03-27T08:55:03Z</time>
      </trkpt>
      <trkpt lat="49.47619" lon="1.15892">
        <ele>143.3</ele>
        <time>2022-03-27T08:55:04Z</time>
      </trkpt>
      <trkpt lat="49.47622" lon="1.15896">
        <ele>143.3</ele>
        <time>2022-03-27T08:55:05Z</time>
      </trkpt>
      <trkpt lat="49.47628" lon="1.15902">
        <ele>143.4</ele>
        <time>2022-03-27T08:55:06Z</time>
      </trkpt>
      <trkpt lat="49.47633" lon="1.15907">
        <ele>143.5</ele>
        <time>2022-03-27T08:55:08Z</time>
      </trkpt>
      <trkpt lat="49.47636" lon="1.1591">
        <ele>143.6</ele>
        <time>2022-03-27T08:55:09Z</time>
      </trkpt>
      <trkpt lat="49.47639" lon="1.15913">
        <ele>143.6</ele>
        <time>2022-03-27T08:55:10Z</time>
      </trkpt>
      <trkpt lat="49.47641" lon="1.15916">
        <ele>143.7</ele>
        <time>2022-03-27T08:55:11Z</time>
      </trkpt>
      <trkpt lat="49.47644" lon="1.15918">
        <ele>143.7</ele>
        <time>2022-03-27T08:55:12Z</time>
      </trkpt>
      <trkpt lat="49.47646" lon="1.15921">
        <ele>143.7</ele>
        <time>2022-03-27T08:55:13Z</time>
      </trkpt>
      <trkpt lat="49.47651" lon="1.15926">
        <ele>143.8</ele>
        <time>2022-03-27T08:55:14Z</time>
      </trkpt>
      <trkpt lat="49.47656" lon="1.15931">
        <ele>143.9</ele>
        <time>2022-03-27T08:55:15Z</time>
      </trkpt>
      <trkpt lat="49.4766" lon="1.15935">
        <ele>144</ele>
        <time>2022-03-27T08:55:17Z</time>
      </trkpt>
      <trkpt lat="49.47661" lon="1.15937">
        <ele>144</ele>
        <time>2022-03-27T08:55:18Z</time>
      </trkpt>
      <trkpt lat="49.47662" lon="1.15939">
        <ele>144</ele>
        <time>2022-03-27T08:55:19Z</time>
      </trkpt>
      <trkpt lat="49.47664" lon="1.15941">
        <ele>144</ele>
        <time>2022-03-27T08:55:20Z</time>
      </trkpt>
      <trkpt lat="49.4767" lon="1.15946">
        <ele>144.1</ele>
        <time>2022-03-27T08:55:22Z</time>
      </trkpt>
      <trkpt lat="49.47675" lon="1.1595">
        <ele>144.2</ele>
        <time>2022-03-27T08:55:23Z</time>
      </trkpt>
      <trkpt lat="49.47682" lon="1.15956">
        <ele>144.4</ele>
        <time>2022-03-27T08:55:25Z</time>
      </trkpt>
      <trkpt lat="49.47689" lon="1.15962">
        <ele>144.5</ele>
        <time>2022-03-27T08:55:27Z</time>
      </trkpt>
      <trkpt lat="49.47695" lon="1.15968">
        <ele>144.6</ele>
        <time>2022-03-27T08:55:28Z</time>
      </trkpt>
      <trkpt lat="49.47701" lon="1.15977">
        <ele>144.7</ele>
        <time>2022-03-27T08:55:30Z</time>
      </trkpt>
      <trkpt lat="49.47704" lon="1.1598">
        <ele>144.8</ele>
        <time>2022-03-27T08:55:31Z</time>
      </trkpt>
      <trkpt lat="49.47705" lon="1.15982">
        <ele>144.8</ele>
        <time>2022-03-27T08:55:32Z</time>
      </trkpt>
      <trkpt lat="49.47707" lon="1.15983">
        <ele>144.9</ele>
        <time>2022-03-27T08:55:33Z</time>
      </trkpt>
      <trkpt lat="49.4771" lon="1.15986">
        <ele>144.9</ele>
        <time>2022-03-27T08:55:35Z</time>
      </trkpt>
      <trkpt lat="49.47715" lon="1.1599">
        <ele>145.1</ele>
        <time>2022-03-27T08:55:36Z</time>
      </trkpt>
      <trkpt lat="49.47722" lon="1.16001">
        <ele>145.3</ele>
        <time>2022-03-27T08:55:38Z</time>
      </trkpt>
      <trkpt lat="49.47727" lon="1.16006">
        <ele>145.4</ele>
        <time>2022-03-27T08:55:40Z</time>
      </trkpt>
      <trkpt lat="49.47728" lon="1.16008">
        <ele>145.5</ele>
        <time>2022-03-27T08:55:41Z</time>
      </trkpt>
      <trkpt lat="49.4773" lon="1.16011">
        <ele>145.5</ele>
        <time>2022-03-27T08:55:42Z</time>
      </trkpt>
      <trkpt lat="49.47733" lon="1.16014">
        <ele>145.6</ele>
        <time>2022-03-27T08:55:43Z</time>
      </trkpt>
      <trkpt lat="49.47739" lon="1.16021">
        <ele>145.9</ele>
        <time>2022-03-27T08:55:44Z</time>
      </trkpt>
      <trkpt lat="49.47742" lon="1.16023">
        <ele>146</ele>
        <time>2022-03-27T08:55:45Z</time>
      </trkpt>
      <trkpt lat="49.47744" lon="1.16026">
        <ele>146.1</ele>
        <time>2022-03-27T08:55:46Z</time>
      </trkpt>
      <trkpt lat="49.47747" lon="1.1603">
        <ele>146.2</ele>
        <time>2022-03-27T08:55:47Z</time>
      </trkpt>
      <trkpt lat="49.47748" lon="1.16031">
        <ele>146.3</ele>
        <time>2022-03-27T08:55:48Z</time>
      </trkpt>
      <trkpt lat="49.47751" lon="1.16033">
        <ele>146.4</ele>
        <time>2022-03-27T08:55:49Z</time>
      </trkpt>
      <trkpt lat="49.47754" lon="1.16036">
        <ele>146.5</ele>
        <time>2022-03-27T08:55:50Z</time>
      </trkpt>
      <trkpt lat="49.47755" lon="1.16039">
        <ele>146.5</ele>
        <time>2022-03-27T08:55:51Z</time>
      </trkpt>
      <trkpt lat="49.47757" lon="1.1604">
        <ele>146.5</ele>
        <time>2022-03-27T08:55:53Z</time>
      </trkpt>
      <trkpt lat="49.47759" lon="1.1604">
        <ele>146.6</ele>
        <time>2022-03-27T08:55:54Z</time>
      </trkpt>
      <trkpt lat="49.47762" lon="1.1604">
        <ele>146.6</ele>
        <time>2022-03-27T08:55:55Z</time>
      </trkpt>
      <trkpt lat="49.47765" lon="1.16039">
        <ele>146.6</ele>
        <time>2022-03-27T08:55:58Z</time>
      </trkpt>
      <trkpt lat="49.47766" lon="1.16039">
        <ele>146.7</ele>
        <time>2022-03-27T08:55:59Z</time>
      </trkpt>
      <trkpt lat="49.47766" lon="1.1604">
        <ele>146.7</ele>
        <time>2022-03-27T08:56:00Z</time>
      </trkpt>
      <trkpt lat="49.47765" lon="1.16041">
        <ele>146.7</ele>
        <time>2022-03-27T08:56:01Z</time>
      </trkpt>
      <trkpt lat="49.47766" lon="1.16042">
        <ele>146.7</ele>
        <time>2022-03-27T08:56:02Z</time>
      </trkpt>
      <trkpt lat="49.47767" lon="1.16043">
        <ele>146.7</ele>
        <time>2022-03-27T08:56:03Z</time>
      </trkpt>
      <trkpt lat="49.47769" lon="1.16043">
        <ele>146.7</ele>
        <time>2022-03-27T08:56:04Z</time>
      </trkpt>
      <trkpt lat="49.4777" lon="1.16043">
        <ele>146.7</ele>
        <time>2022-03-27T08:56:06Z</time>
      </trkpt>
      <trkpt lat="49.47771" lon="1.16043">
        <ele>146.7</ele>
        <time>2022-03-27T08:56:07Z</time>
      </trkpt>
      <trkpt lat="49.47774" lon="1.16046">
        <ele>146.7</ele>
        <time>2022-03-27T08:56:09Z</time>
      </trkpt>
      <trkpt lat="49.47778" lon="1.1605">
        <ele>146.7</ele>
        <time>2022-03-27T08:56:10Z</time>
      </trkpt>
      <trkpt lat="49.47781" lon="1.16053">
        <ele>146.7</ele>
        <time>2022-03-27T08:56:12Z</time>
      </trkpt>
      <trkpt lat="49.47783" lon="1.16057">
        <ele>146.7</ele>
        <time>2022-03-27T08:56:13Z</time>
      </trkpt>
      <trkpt lat="49.47786" lon="1.1606">
        <ele>146.6</ele>
        <time>2022-03-27T08:56:14Z</time>
      </trkpt>
      <trkpt lat="49.47792" lon="1.16067">
        <ele>146.6</ele>
        <time>2022-03-27T08:56:15Z</time>
      </trkpt>
      <trkpt lat="49.47795" lon="1.16071">
        <ele>146.5</ele>
        <time>2022-03-27T08:56:17Z</time>
      </trkpt>
      <trkpt lat="49.47797" lon="1.16073">
        <ele>146.4</ele>
        <time>2022-03-27T08:56:18Z</time>
      </trkpt>
      <trkpt lat="49.478" lon="1.16076">
        <ele>146.4</ele>
        <time>2022-03-27T08:56:19Z</time>
      </trkpt>
      <trkpt lat="49.47803" lon="1.1608">
        <ele>146.3</ele>
        <time>2022-03-27T08:56:21Z</time>
      </trkpt>
      <trkpt lat="49.47805" lon="1.16083">
        <ele>146.3</ele>
        <time>2022-03-27T08:56:22Z</time>
      </trkpt>
      <trkpt lat="49.4781" lon="1.16089">
        <ele>146.1</ele>
        <time>2022-03-27T08:56:23Z</time>
      </trkpt>
      <trkpt lat="49.47815" lon="1.16097">
        <ele>146</ele>
        <time>2022-03-27T08:56:25Z</time>
      </trkpt>
      <trkpt lat="49.47827" lon="1.1611">
        <ele>145.9</ele>
        <time>2022-03-27T08:56:27Z</time>
      </trkpt>
      <trkpt lat="49.47843" lon="1.16127">
        <ele>145.8</ele>
        <time>2022-03-27T08:56:28Z</time>
      </trkpt>
      <trkpt lat="49.47856" lon="1.16139">
        <ele>145.8</ele>
        <time>2022-03-27T08:56:29Z</time>
      </trkpt>
      <trkpt lat="49.4787" lon="1.16152">
        <ele>145.7</ele>
        <time>2022-03-27T08:56:31Z</time>
      </trkpt>
      <trkpt lat="49.47877" lon="1.16157">
        <ele>145.5</ele>
        <time>2022-03-27T08:56:32Z</time>
      </trkpt>
      <trkpt lat="49.47883" lon="1.16163">
        <ele>145.4</ele>
        <time>2022-03-27T08:56:33Z</time>
      </trkpt>
      <trkpt lat="49.47893" lon="1.16171">
        <ele>145.1</ele>
        <time>2022-03-27T08:56:34Z</time>
      </trkpt>
      <trkpt lat="49.47899" lon="1.16176">
        <ele>145.1</ele>
        <time>2022-03-27T08:56:35Z</time>
      </trkpt>
      <trkpt lat="49.47905" lon="1.16181">
        <ele>144.9</ele>
        <time>2022-03-27T08:56:36Z</time>
      </trkpt>
      <trkpt lat="49.47908" lon="1.16185">
        <ele>144.6</ele>
        <time>2022-03-27T08:56:37Z</time>
      </trkpt>
      <trkpt lat="49.47913" lon="1.16192">
        <ele>144.3</ele>
        <time>2022-03-27T08:56:39Z</time>
      </trkpt>
      <trkpt lat="49.47918" lon="1.16198">
        <ele>143.8</ele>
        <time>2022-03-27T08:56:40Z</time>
      </trkpt>
      <trkpt lat="49.47921" lon="1.16201">
        <ele>143.6</ele>
        <time>2022-03-27T08:56:41Z</time>
      </trkpt>
      <trkpt lat="49.47926" lon="1.1621">
        <ele>142.9</ele>
        <time>2022-03-27T08:56:43Z</time>
      </trkpt>
      <trkpt lat="49.47928" lon="1.16214">
        <ele>142.6</ele>
        <time>2022-03-27T08:56:45Z</time>
      </trkpt>
      <trkpt lat="49.4793" lon="1.16217">
        <ele>142.4</ele>
        <time>2022-03-27T08:56:46Z</time>
      </trkpt>
      <trkpt lat="49.47931" lon="1.16218">
        <ele>142.2</ele>
        <time>2022-03-27T08:56:48Z</time>
      </trkpt>
      <trkpt lat="49.47932" lon="1.16218">
        <ele>142.1</ele>
        <time>2022-03-27T08:56:50Z</time>
      </trkpt>
      <trkpt lat="49.47933" lon="1.16217">
        <ele>142.1</ele>
        <time>2022-03-27T08:56:51Z</time>
      </trkpt>
      <trkpt lat="49.47934" lon="1.16218">
        <ele>142</ele>
        <time>2022-03-27T08:56:52Z</time>
      </trkpt>
      <trkpt lat="49.47934" lon="1.16219">
        <ele>141.9</ele>
        <time>2022-03-27T08:56:53Z</time>
      </trkpt>
      <trkpt lat="49.47935" lon="1.16219">
        <ele>141.8</ele>
        <time>2022-03-27T08:56:56Z</time>
      </trkpt>
      <trkpt lat="49.47936" lon="1.1622">
        <ele>141.7</ele>
        <time>2022-03-27T08:57:39Z</time>
      </trkpt>
      <trkpt lat="49.47936" lon="1.1622">
        <ele>141.6</ele>
        <time>2022-03-27T08:57:40Z</time>
      </trkpt>
      <trkpt lat="49.4793" lon="1.16219">
        <ele>140.9</ele>
        <time>2022-03-27T08:57:42Z</time>
      </trkpt>
      <trkpt lat="49.47924" lon="1.16217">
        <ele>140.1</ele>
        <time>2022-03-27T08:57:43Z</time>
      </trkpt>
      <trkpt lat="49.47917" lon="1.16216">
        <ele>139</ele>
        <time>2022-03-27T08:57:44Z</time>
      </trkpt>
      <trkpt lat="49.47913" lon="1.16217">
        <ele>138.5</ele>
        <time>2022-03-27T08:57:46Z</time>
      </trkpt>
      <trkpt lat="49.47909" lon="1.16218">
        <ele>138</ele>
        <time>2022-03-27T08:57:47Z</time>
      </trkpt>
      <trkpt lat="49.47907" lon="1.16217">
        <ele>137.7</ele>
        <time>2022-03-27T08:57:48Z</time>
      </trkpt>
      <trkpt lat="49.47904" lon="1.16216">
        <ele>137.3</ele>
        <time>2022-03-27T08:57:49Z</time>
      </trkpt>
      <trkpt lat="49.47902" lon="1.16218">
        <ele>136.9</ele>
        <time>2022-03-27T08:57:50Z</time>
      </trkpt>
      <trkpt lat="49.47901" lon="1.16219">
        <ele>136.8</ele>
        <time>2022-03-27T08:57:51Z</time>
      </trkpt>
      <trkpt lat="49.47901" lon="1.16224">
        <ele>136.3</ele>
        <time>2022-03-27T08:57:53Z</time>
      </trkpt>
      <trkpt lat="49.47902" lon="1.16228">
        <ele>135.9</ele>
        <time>2022-03-27T08:57:54Z</time>
      </trkpt>
      <trkpt lat="49.47903" lon="1.1623">
        <ele>135.6</ele>
        <time>2022-03-27T08:57:56Z</time>
      </trkpt>
      <trkpt lat="49.47903" lon="1.16233">
        <ele>135.4</ele>
        <time>2022-03-27T08:57:57Z</time>
      </trkpt>
      <trkpt lat="49.47904" lon="1.16235">
        <ele>135.1</ele>
        <time>2022-03-27T08:57:58Z</time>
      </trkpt>
      <trkpt lat="49.47904" lon="1.16237">
        <ele>134.9</ele>
        <time>2022-03-27T08:57:59Z</time>
      </trkpt>
      <trkpt lat="49.47905" lon="1.16239">
        <ele>134.6</ele>
        <time>2022-03-27T08:58:00Z</time>
      </trkpt>
      <trkpt lat="49.47906" lon="1.16244">
        <ele>134.1</ele>
        <time>2022-03-27T08:58:01Z</time>
      </trkpt>
      <trkpt lat="49.47906" lon="1.16245">
        <ele>134</ele>
        <time>2022-03-27T08:58:02Z</time>
      </trkpt>
      <trkpt lat="49.47908" lon="1.1625">
        <ele>133.5</ele>
        <time>2022-03-27T08:58:03Z</time>
      </trkpt>
      <trkpt lat="49.47911" lon="1.16254">
        <ele>132.8</ele>
        <time>2022-03-27T08:58:04Z</time>
      </trkpt>
      <trkpt lat="49.47912" lon="1.16256">
        <ele>132.6</ele>
        <time>2022-03-27T08:58:05Z</time>
      </trkpt>
      <trkpt lat="49.47914" lon="1.1626">
        <ele>132.1</ele>
        <time>2022-03-27T08:58:06Z</time>
      </trkpt>
      <trkpt lat="49.47928" lon="1.16297">
        <ele>127.9</ele>
        <time>2022-03-27T08:58:08Z</time>
      </trkpt>
      <trkpt lat="49.47929" lon="1.16299">
        <ele>127.7</ele>
        <time>2022-03-27T08:58:09Z</time>
      </trkpt>
      <trkpt lat="49.47931" lon="1.16304">
        <ele>127.3</ele>
        <time>2022-03-27T08:58:10Z</time>
      </trkpt>
      <trkpt lat="49.47936" lon="1.16314">
        <ele>126.4</ele>
        <time>2022-03-27T08:58:11Z</time>
      </trkpt>
      <trkpt lat="49.47939" lon="1.16316">
        <ele>126</ele>
        <time>2022-03-27T08:58:12Z</time>
      </trkpt>
      <trkpt lat="49.47941" lon="1.16321">
        <ele>125.6</ele>
        <time>2022-03-27T08:58:13Z</time>
      </trkpt>
      <trkpt lat="49.47945" lon="1.16328">
        <ele>125.1</ele>
        <time>2022-03-27T08:58:15Z</time>
      </trkpt>
      <trkpt lat="49.47949" lon="1.16337">
        <ele>124.5</ele>
        <time>2022-03-27T08:58:16Z</time>
      </trkpt>
      <trkpt lat="49.47951" lon="1.16342">
        <ele>124.1</ele>
        <time>2022-03-27T08:58:17Z</time>
      </trkpt>
      <trkpt lat="49.47954" lon="1.16348">
        <ele>123.7</ele>
        <time>2022-03-27T08:58:18Z</time>
      </trkpt>
      <trkpt lat="49.47956" lon="1.16353">
        <ele>123.3</ele>
        <time>2022-03-27T08:58:19Z</time>
      </trkpt>
      <trkpt lat="49.47959" lon="1.1636">
        <ele>122.8</ele>
        <time>2022-03-27T08:58:20Z</time>
      </trkpt>
      <trkpt lat="49.47963" lon="1.16368">
        <ele>122.2</ele>
        <time>2022-03-27T08:58:22Z</time>
      </trkpt>
      <trkpt lat="49.4797" lon="1.16378">
        <ele>121.2</ele>
        <time>2022-03-27T08:58:23Z</time>
      </trkpt>
      <trkpt lat="49.47975" lon="1.16386">
        <ele>120.5</ele>
        <time>2022-03-27T08:58:25Z</time>
      </trkpt>
      <trkpt lat="49.47978" lon="1.16391">
        <ele>120.1</ele>
        <time>2022-03-27T08:58:26Z</time>
      </trkpt>
      <trkpt lat="49.47981" lon="1.16395">
        <ele>119.6</ele>
        <time>2022-03-27T08:58:27Z</time>
      </trkpt>
      <trkpt lat="49.47984" lon="1.16402">
        <ele>119</ele>
        <time>2022-03-27T08:58:28Z</time>
      </trkpt>
      <trkpt lat="49.47987" lon="1.16408">
        <ele>118.5</ele>
        <time>2022-03-27T08:58:29Z</time>
      </trkpt>
      <trkpt lat="49.4799" lon="1.16412">
        <ele>117.9</ele>
        <time>2022-03-27T08:58:31Z</time>
      </trkpt>
      <trkpt lat="49.47998" lon="1.16423">
        <ele>114.1</ele>
        <time>2022-03-27T08:58:32Z</time>
      </trkpt>
      <trkpt lat="49.48005" lon="1.16424">
        <ele>112.9</ele>
        <time>2022-03-27T08:58:33Z</time>
      </trkpt>
      <trkpt lat="49.48009" lon="1.16423">
        <ele>112.1</ele>
        <time>2022-03-27T08:58:34Z</time>
      </trkpt>
      <trkpt lat="49.48013" lon="1.16423">
        <ele>111.5</ele>
        <time>2022-03-27T08:58:35Z</time>
      </trkpt>
      <trkpt lat="49.48018" lon="1.16422">
        <ele>110.5</ele>
        <time>2022-03-27T08:58:36Z</time>
      </trkpt>
      <trkpt lat="49.48022" lon="1.16421">
        <ele>109.7</ele>
        <time>2022-03-27T08:58:37Z</time>
      </trkpt>
      <trkpt lat="49.48026" lon="1.16419">
        <ele>109</ele>
        <time>2022-03-27T08:58:38Z</time>
      </trkpt>
      <trkpt lat="49.4803" lon="1.16416">
        <ele>108.2</ele>
        <time>2022-03-27T08:58:39Z</time>
      </trkpt>
      <trkpt lat="49.48034" lon="1.16412">
        <ele>107.3</ele>
        <time>2022-03-27T08:58:40Z</time>
      </trkpt>
      <trkpt lat="49.48045" lon="1.16414">
        <ele>105.4</ele>
        <time>2022-03-27T08:58:42Z</time>
      </trkpt>
      <trkpt lat="49.4805" lon="1.16407">
        <ele>104.3</ele>
        <time>2022-03-27T08:58:43Z</time>
      </trkpt>
      <trkpt lat="49.48053" lon="1.16406">
        <ele>103.8</ele>
        <time>2022-03-27T08:58:44Z</time>
      </trkpt>
      <trkpt lat="49.48058" lon="1.16408">
        <ele>102.9</ele>
        <time>2022-03-27T08:58:45Z</time>
      </trkpt>
      <trkpt lat="49.4806" lon="1.16409">
        <ele>102.5</ele>
        <time>2022-03-27T08:58:46Z</time>
      </trkpt>
      <trkpt lat="49.48066" lon="1.16412">
        <ele>101.3</ele>
        <time>2022-03-27T08:58:47Z</time>
      </trkpt>
      <trkpt lat="49.48072" lon="1.16417">
        <ele>100.1</ele>
        <time>2022-03-27T08:58:49Z</time>
      </trkpt>
      <trkpt lat="49.48077" lon="1.16421">
        <ele>99</ele>
        <time>2022-03-27T08:58:50Z</time>
      </trkpt>
      <trkpt lat="49.4808" lon="1.16425">
        <ele>98.2</ele>
        <time>2022-03-27T08:58:51Z</time>
      </trkpt>
      <trkpt lat="49.48083" lon="1.16428">
        <ele>97.5</ele>
        <time>2022-03-27T08:58:52Z</time>
      </trkpt>
      <trkpt lat="49.48086" lon="1.16431">
        <ele>96.7</ele>
        <time>2022-03-27T08:58:53Z</time>
      </trkpt>
      <trkpt lat="49.48097" lon="1.16453">
        <ele>93.2</ele>
        <time>2022-03-27T08:58:55Z</time>
      </trkpt>
      <trkpt lat="49.48098" lon="1.16456">
        <ele>92.7</ele>
        <time>2022-03-27T08:58:56Z</time>
      </trkpt>
      <trkpt lat="49.481" lon="1.16457">
        <ele>92.3</ele>
        <time>2022-03-27T08:58:57Z</time>
      </trkpt>
      <trkpt lat="49.48102" lon="1.16462">
        <ele>91.6</ele>
        <time>2022-03-27T08:58:59Z</time>
      </trkpt>
      <trkpt lat="49.48105" lon="1.16465">
        <ele>90.8</ele>
        <time>2022-03-27T08:59:01Z</time>
      </trkpt>
      <trkpt lat="49.48106" lon="1.16466">
        <ele>90.5</ele>
        <time>2022-03-27T08:59:02Z</time>
      </trkpt>
      <trkpt lat="49.48108" lon="1.16466">
        <ele>90.2</ele>
        <time>2022-03-27T08:59:03Z</time>
      </trkpt>
      <trkpt lat="49.48111" lon="1.1647">
        <ele>89.3</ele>
        <time>2022-03-27T08:59:05Z</time>
      </trkpt>
      <trkpt lat="49.48112" lon="1.16472">
        <ele>89</ele>
        <time>2022-03-27T08:59:06Z</time>
      </trkpt>
      <trkpt lat="49.48113" lon="1.16474">
        <ele>88.6</ele>
        <time>2022-03-27T08:59:07Z</time>
      </trkpt>
      <trkpt lat="49.48114" lon="1.16476">
        <ele>88.3</ele>
        <time>2022-03-27T08:59:08Z</time>
      </trkpt>
      <trkpt lat="49.48116" lon="1.16479">
        <ele>87.7</ele>
        <time>2022-03-27T08:59:10Z</time>
      </trkpt>
      <trkpt lat="49.4812" lon="1.16484">
        <ele>86.7</ele>
        <time>2022-03-27T08:59:11Z</time>
      </trkpt>
      <trkpt lat="49.48124" lon="1.16487">
        <ele>85.7</ele>
        <time>2022-03-27T08:59:13Z</time>
      </trkpt>
      <trkpt lat="49.48126" lon="1.16489">
        <ele>85.3</ele>
        <time>2022-03-27T08:59:14Z</time>
      </trkpt>
      <trkpt lat="49.48127" lon="1.16491">
        <ele>84.9</ele>
        <time>2022-03-27T08:59:15Z</time>
      </trkpt>
      <trkpt lat="49.48128" lon="1.16494">
        <ele>84.4</ele>
        <time>2022-03-27T08:59:16Z</time>
      </trkpt>
      <trkpt lat="49.48131" lon="1.16498">
        <ele>83.6</ele>
        <time>2022-03-27T08:59:18Z</time>
      </trkpt>
      <trkpt lat="49.48132" lon="1.165">
        <ele>83.3</ele>
        <time>2022-03-27T08:59:19Z</time>
      </trkpt>
      <trkpt lat="49.48133" lon="1.16502">
        <ele>83</ele>
        <time>2022-03-27T08:59:20Z</time>
      </trkpt>
      <trkpt lat="49.48134" lon="1.16504">
        <ele>82.6</ele>
        <time>2022-03-27T08:59:21Z</time>
      </trkpt>
      <trkpt lat="49.48134" lon="1.16505">
        <ele>82.4</ele>
        <time>2022-03-27T08:59:23Z</time>
      </trkpt>
      <trkpt lat="49.48135" lon="1.16505">
        <ele>82.3</ele>
        <time>2022-03-27T08:59:24Z</time>
      </trkpt>
      <trkpt lat="49.48135" lon="1.16505">
        <ele>82.2</ele>
        <time>2022-03-27T08:59:25Z</time>
      </trkpt>
      <trkpt lat="49.48135" lon="1.16504">
        <ele>82.2</ele>
        <time>2022-03-27T08:59:26Z</time>
      </trkpt>
      <trkpt lat="49.48135" lon="1.16504">
        <ele>82.2</ele>
        <time>2022-03-27T08:59:27Z</time>
      </trkpt>
      <trkpt lat="49.48135" lon="1.16504">
        <ele>82.2</ele>
        <time>2022-03-27T08:59:29Z</time>
      </trkpt>
      <trkpt lat="49.48135" lon="1.16504">
        <ele>82.2</ele>
        <time>2022-03-27T08:59:30Z</time>
      </trkpt>
      <trkpt lat="49.48135" lon="1.16504">
        <ele>82.1</ele>
        <time>2022-03-27T08:59:31Z</time>
      </trkpt>
      <trkpt lat="49.48135" lon="1.16504">
        <ele>82.1</ele>
        <time>2022-03-27T08:59:32Z</time>
      </trkpt>
      <trkpt lat="49.48135" lon="1.16504">
        <ele>82.1</ele>
        <time>2022-03-27T08:59:34Z</time>
      </trkpt>
      <trkpt lat="49.48147" lon="1.16534">
        <ele>77.8</ele>
        <time>2022-03-27T09:00:42Z</time>
      </trkpt>
      <trkpt lat="49.48147" lon="1.16535">
        <ele>77.7</ele>
        <time>2022-03-27T09:00:43Z</time>
      </trkpt>
      <trkpt lat="49.48147" lon="1.16536">
        <ele>77.7</ele>
        <time>2022-03-27T09:00:44Z</time>
      </trkpt>
      <trkpt lat="49.48147" lon="1.16536">
        <ele>77.7</ele>
        <time>2022-03-27T09:00:45Z</time>
      </trkpt>
      <trkpt lat="49.48147" lon="1.16537">
        <ele>77.7</ele>
        <time>2022-03-27T09:00:46Z</time>
      </trkpt>
      <trkpt lat="49.48148" lon="1.16537">
        <ele>77.7</ele>
        <time>2022-03-27T09:00:48Z</time>
      </trkpt>
      <trkpt lat="49.48148" lon="1.16536">
        <ele>77.7</ele>
        <time>2022-03-27T09:00:49Z</time>
      </trkpt>
      <trkpt lat="49.48148" lon="1.16535">
        <ele>77.7</ele>
        <time>2022-03-27T09:00:50Z</time>
      </trkpt>
      <trkpt lat="49.48149" lon="1.16535">
        <ele>77.7</ele>
        <time>2022-03-27T09:00:51Z</time>
      </trkpt>
      <trkpt lat="49.4815" lon="1.16534">
        <ele>77.7</ele>
        <time>2022-03-27T09:00:52Z</time>
      </trkpt>
      <trkpt lat="49.48154" lon="1.16548">
        <ele>77.3</ele>
        <time>2022-03-27T09:00:54Z</time>
      </trkpt>
      <trkpt lat="49.48158" lon="1.16561">
        <ele>72.9</ele>
        <time>2022-03-27T09:00:55Z</time>
      </trkpt>
      <trkpt lat="49.48161" lon="1.16575">
        <ele>69.1</ele>
        <time>2022-03-27T09:00:56Z</time>
      </trkpt>
      <trkpt lat="49.48165" lon="1.16588">
        <ele>67.4</ele>
        <time>2022-03-27T09:00:57Z</time>
      </trkpt>
      <trkpt lat="49.48168" lon="1.16601">
        <ele>67</ele>
        <time>2022-03-27T09:00:58Z</time>
      </trkpt>
      <trkpt lat="49.48177" lon="1.16619">
        <ele>66.8</ele>
        <time>2022-03-27T09:01:01Z</time>
      </trkpt>
      <trkpt lat="49.4818" lon="1.16624">
        <ele>66.8</ele>
        <time>2022-03-27T09:01:02Z</time>
      </trkpt>
      <trkpt lat="49.48184" lon="1.16629">
        <ele>66.7</ele>
        <time>2022-03-27T09:01:03Z</time>
      </trkpt>
      <trkpt lat="49.48187" lon="1.16628">
        <ele>66.9</ele>
        <time>2022-03-27T09:01:04Z</time>
      </trkpt>
      <trkpt lat="49.48189" lon="1.16626">
        <ele>66.9</ele>
        <time>2022-03-27T09:01:05Z</time>
      </trkpt>
      <trkpt lat="49.4819" lon="1.16626">
        <ele>66.9</ele>
        <time>2022-03-27T09:01:06Z</time>
      </trkpt>
      <trkpt lat="49.48193" lon="1.16624">
        <ele>66.9</ele>
        <time>2022-03-27T09:01:07Z</time>
      </trkpt>
      <trkpt lat="49.48194" lon="1.16624">
        <ele>66.9</ele>
        <time>2022-03-27T09:01:08Z</time>
      </trkpt>
      <trkpt lat="49.48195" lon="1.16626">
        <ele>66.9</ele>
        <time>2022-03-27T09:01:09Z</time>
      </trkpt>
      <trkpt lat="49.48196" lon="1.16626">
        <ele>66.9</ele>
        <time>2022-03-27T09:01:11Z</time>
      </trkpt>
      <trkpt lat="49.48196" lon="1.16627">
        <ele>66.9</ele>
        <time>2022-03-27T09:01:12Z</time>
      </trkpt>
      <trkpt lat="49.48197" lon="1.16628">
        <ele>67</ele>
        <time>2022-03-27T09:01:13Z</time>
      </trkpt>
      <trkpt lat="49.48197" lon="1.16629">
        <ele>67</ele>
        <time>2022-03-27T09:01:14Z</time>
      </trkpt>
      <trkpt lat="49.48198" lon="1.16629">
        <ele>67</ele>
        <time>2022-03-27T09:01:15Z</time>
      </trkpt>
      <trkpt lat="49.48198" lon="1.1663">
        <ele>67</ele>
        <time>2022-03-27T09:01:44Z</time>
      </trkpt>
      <trkpt lat="49.48199" lon="1.16631">
        <ele>67</ele>
        <time>2022-03-27T09:01:45Z</time>
      </trkpt>
      <trkpt lat="49.48199" lon="1.16631">
        <ele>67</ele>
        <time>2022-03-27T09:01:46Z</time>
      </trkpt>
      <trkpt lat="49.482" lon="1.16632">
        <ele>67</ele>
        <time>2022-03-27T09:01:47Z</time>
      </trkpt>
      <trkpt lat="49.482" lon="1.16633">
        <ele>67</ele>
        <time>2022-03-27T09:01:48Z</time>
      </trkpt>
      <trkpt lat="49.48204" lon="1.16631">
        <ele>67</ele>
        <time>2022-03-27T09:01:49Z</time>
      </trkpt>
      <trkpt lat="49.48206" lon="1.16631">
        <ele>67</ele>
        <time>2022-03-27T09:01:50Z</time>
      </trkpt>
      <trkpt lat="49.48209" lon="1.1663">
        <ele>67</ele>
        <time>2022-03-27T09:01:51Z</time>
      </trkpt>
      <trkpt lat="49.4821" lon="1.16631">
        <ele>67</ele>
        <time>2022-03-27T09:01:52Z</time>
      </trkpt>
      <trkpt lat="49.48214" lon="1.16632">
        <ele>67</ele>
        <time>2022-03-27T09:01:53Z</time>
      </trkpt>
      <trkpt lat="49.48215" lon="1.16632">
        <ele>67</ele>
        <time>2022-03-27T09:01:54Z</time>
      </trkpt>
      <trkpt lat="49.48219" lon="1.16633">
        <ele>67</ele>
        <time>2022-03-27T09:01:55Z</time>
      </trkpt>
      <trkpt lat="49.4822" lon="1.16634">
        <ele>67</ele>
        <time>2022-03-27T09:01:56Z</time>
      </trkpt>
      <trkpt lat="49.48223" lon="1.16635">
        <ele>67</ele>
        <time>2022-03-27T09:01:57Z</time>
      </trkpt>
      <trkpt lat="49.48227" lon="1.16639">
        <ele>67</ele>
        <time>2022-03-27T09:01:58Z</time>
      </trkpt>
      <trkpt lat="49.48231" lon="1.16643">
        <ele>67</ele>
        <time>2022-03-27T09:01:59Z</time>
      </trkpt>
      <trkpt lat="49.48235" lon="1.16646">
        <ele>67</ele>
        <time>2022-03-27T09:02:00Z</time>
      </trkpt>
      <trkpt lat="49.48238" lon="1.1665">
        <ele>67</ele>
        <time>2022-03-27T09:02:01Z</time>
      </trkpt>
      <trkpt lat="49.4824" lon="1.16653">
        <ele>67</ele>
        <time>2022-03-27T09:02:02Z</time>
      </trkpt>
      <trkpt lat="49.48241" lon="1.16654">
        <ele>67</ele>
        <time>2022-03-27T09:02:03Z</time>
      </trkpt>
      <trkpt lat="49.48243" lon="1.16657">
        <ele>67</ele>
        <time>2022-03-27T09:02:04Z</time>
      </trkpt>
      <trkpt lat="49.48244" lon="1.16658">
        <ele>67</ele>
        <time>2022-03-27T09:02:05Z</time>
      </trkpt>
      <trkpt lat="49.48247" lon="1.1666">
        <ele>67</ele>
        <time>2022-03-27T09:02:06Z</time>
      </trkpt>
      <trkpt lat="49.48251" lon="1.16663">
        <ele>67</ele>
        <time>2022-03-27T09:02:07Z</time>
      </trkpt>
      <trkpt lat="49.48252" lon="1.16664">
        <ele>67</ele>
        <time>2022-03-27T09:02:08Z</time>
      </trkpt>
      <trkpt lat="49.48256" lon="1.16666">
        <ele>67</ele>
        <time>2022-03-27T09:02:09Z</time>
      </trkpt>
      <trkpt lat="49.48259" lon="1.16668">
        <ele>67</ele>
        <time>2022-03-27T09:02:10Z</time>
      </trkpt>
      <trkpt lat="49.48262" lon="1.1667">
        <ele>67</ele>
        <time>2022-03-27T09:02:11Z</time>
      </trkpt>
      <trkpt lat="49.48266" lon="1.16671">
        <ele>67.1</ele>
        <time>2022-03-27T09:02:12Z</time>
      </trkpt>
      <trkpt lat="49.48269" lon="1.16673">
        <ele>67.1</ele>
        <time>2022-03-27T09:02:13Z</time>
      </trkpt>
      <trkpt lat="49.48274" lon="1.16676">
        <ele>67.1</ele>
        <time>2022-03-27T09:02:14Z</time>
      </trkpt>
      <trkpt lat="49.48276" lon="1.16677">
        <ele>67.1</ele>
        <time>2022-03-27T09:02:15Z</time>
      </trkpt>
      <trkpt lat="49.48279" lon="1.16681">
        <ele>67.2</ele>
        <time>2022-03-27T09:02:16Z</time>
      </trkpt>
      <trkpt lat="49.48282" lon="1.16686">
        <ele>67.2</ele>
        <time>2022-03-27T09:02:17Z</time>
      </trkpt>
      <trkpt lat="49.48285" lon="1.16689">
        <ele>67.2</ele>
        <time>2022-03-27T09:02:18Z</time>
      </trkpt>
      <trkpt lat="49.48288" lon="1.1669">
        <ele>67.2</ele>
        <time>2022-03-27T09:02:19Z</time>
      </trkpt>
      <trkpt lat="49.48292" lon="1.16689">
        <ele>67.2</ele>
        <time>2022-03-27T09:02:20Z</time>
      </trkpt>
      <trkpt lat="49.48297" lon="1.16687">
        <ele>67.3</ele>
        <time>2022-03-27T09:02:21Z</time>
      </trkpt>
      <trkpt lat="49.48303" lon="1.16683">
        <ele>67.3</ele>
        <time>2022-03-27T09:02:23Z</time>
      </trkpt>
      <trkpt lat="49.48307" lon="1.16682">
        <ele>67.3</ele>
        <time>2022-03-27T09:02:24Z</time>
      </trkpt>
      <trkpt lat="49.48311" lon="1.1668">
        <ele>67.3</ele>
        <time>2022-03-27T09:02:25Z</time>
      </trkpt>
      <trkpt lat="49.48316" lon="1.16676">
        <ele>67.4</ele>
        <time>2022-03-27T09:02:27Z</time>
      </trkpt>
      <trkpt lat="49.4832" lon="1.16673">
        <ele>67.4</ele>
        <time>2022-03-27T09:02:28Z</time>
      </trkpt>
      <trkpt lat="49.48325" lon="1.16669">
        <ele>67.4</ele>
        <time>2022-03-27T09:02:29Z</time>
      </trkpt>
      <trkpt lat="49.4833" lon="1.16665">
        <ele>67.5</ele>
        <time>2022-03-27T09:02:30Z</time>
      </trkpt>
      <trkpt lat="49.48335" lon="1.16662">
        <ele>67.5</ele>
        <time>2022-03-27T09:02:31Z</time>
      </trkpt>
      <trkpt lat="49.48342" lon="1.16657">
        <ele>67.5</ele>
        <time>2022-03-27T09:02:32Z</time>
      </trkpt>
      <trkpt lat="49.48348" lon="1.16652">
        <ele>67.6</ele>
        <time>2022-03-27T09:02:34Z</time>
      </trkpt>
      <trkpt lat="49.48352" lon="1.16648">
        <ele>67.6</ele>
        <time>2022-03-27T09:02:35Z</time>
      </trkpt>
      <trkpt lat="49.48356" lon="1.16645">
        <ele>67.7</ele>
        <time>2022-03-27T09:02:36Z</time>
      </trkpt>
      <trkpt lat="49.4836" lon="1.16641">
        <ele>67.7</ele>
        <time>2022-03-27T09:02:37Z</time>
      </trkpt>
      <trkpt lat="49.48363" lon="1.16641">
        <ele>67.7</ele>
        <time>2022-03-27T09:02:38Z</time>
      </trkpt>
      <trkpt lat="49.48364" lon="1.16641">
        <ele>67.7</ele>
        <time>2022-03-27T09:02:39Z</time>
      </trkpt>
      <trkpt lat="49.48364" lon="1.16641">
        <ele>67.7</ele>
        <time>2022-03-27T09:02:40Z</time>
      </trkpt>
      <trkpt lat="49.48366" lon="1.16641">
        <ele>67.8</ele>
        <time>2022-03-27T09:02:41Z</time>
      </trkpt>
      <trkpt lat="49.48373" lon="1.16639">
        <ele>67.8</ele>
        <time>2022-03-27T09:02:43Z</time>
      </trkpt>
      <trkpt lat="49.48381" lon="1.16636">
        <ele>68</ele>
        <time>2022-03-27T09:02:44Z</time>
      </trkpt>
      <trkpt lat="49.48387" lon="1.16634">
        <ele>68.1</ele>
        <time>2022-03-27T09:02:45Z</time>
      </trkpt>
      <trkpt lat="49.48395" lon="1.16632">
        <ele>68.2</ele>
        <time>2022-03-27T09:02:47Z</time>
      </trkpt>
      <trkpt lat="49.48401" lon="1.16631">
        <ele>68.3</ele>
        <time>2022-03-27T09:02:48Z</time>
      </trkpt>
      <trkpt lat="49.48405" lon="1.16631">
        <ele>68.4</ele>
        <time>2022-03-27T09:02:49Z</time>
      </trkpt>
      <trkpt lat="49.48409" lon="1.16633">
        <ele>68.4</ele>
        <time>2022-03-27T09:02:50Z</time>
      </trkpt>
      <trkpt lat="49.48414" lon="1.16635">
        <ele>68.5</ele>
        <time>2022-03-27T09:02:51Z</time>
      </trkpt>
      <trkpt lat="49.48418" lon="1.16637">
        <ele>68.6</ele>
        <time>2022-03-27T09:02:52Z</time>
      </trkpt>
      <trkpt lat="49.48423" lon="1.1664">
        <ele>68.7</ele>
        <time>2022-03-27T09:02:53Z</time>
      </trkpt>
      <trkpt lat="49.48431" lon="1.16644">
        <ele>68.9</ele>
        <time>2022-03-27T09:02:54Z</time>
      </trkpt>
      <trkpt lat="49.48435" lon="1.16649">
        <ele>69</ele>
        <time>2022-03-27T09:02:56Z</time>
      </trkpt>
      <trkpt lat="49.48439" lon="1.16652">
        <ele>69.2</ele>
        <time>2022-03-27T09:02:57Z</time>
      </trkpt>
      <trkpt lat="49.48443" lon="1.16655">
        <ele>69.3</ele>
        <time>2022-03-27T09:02:58Z</time>
      </trkpt>
      <trkpt lat="49.48447" lon="1.16658">
        <ele>69.5</ele>
        <time>2022-03-27T09:02:59Z</time>
      </trkpt>
      <trkpt lat="49.4845" lon="1.16662">
        <ele>69.8</ele>
        <time>2022-03-27T09:03:00Z</time>
      </trkpt>
      <trkpt lat="49.48451" lon="1.16666">
        <ele>69.9</ele>
        <time>2022-03-27T09:03:01Z</time>
      </trkpt>
      <trkpt lat="49.48451" lon="1.16672">
        <ele>70</ele>
        <time>2022-03-27T09:03:02Z</time>
      </trkpt>
      <trkpt lat="49.48451" lon="1.16676">
        <ele>70</ele>
        <time>2022-03-27T09:03:03Z</time>
      </trkpt>
      <trkpt lat="49.48455" lon="1.16683">
        <ele>70</ele>
        <time>2022-03-27T09:03:05Z</time>
      </trkpt>
      <trkpt lat="49.48458" lon="1.16686">
        <ele>70</ele>
        <time>2022-03-27T09:03:07Z</time>
      </trkpt>
      <trkpt lat="49.4846" lon="1.1669">
        <ele>70.1</ele>
        <time>2022-03-27T09:03:08Z</time>
      </trkpt>
      <trkpt lat="49.48463" lon="1.16694">
        <ele>70.1</ele>
        <time>2022-03-27T09:03:09Z</time>
      </trkpt>
      <trkpt lat="49.48466" lon="1.16698">
        <ele>70.1</ele>
        <time>2022-03-27T09:03:10Z</time>
      </trkpt>
      <trkpt lat="49.4847" lon="1.16703">
        <ele>70.1</ele>
        <time>2022-03-27T09:03:11Z</time>
      </trkpt>
      <trkpt lat="49.48476" lon="1.16708">
        <ele>70.2</ele>
        <time>2022-03-27T09:03:13Z</time>
      </trkpt>
      <trkpt lat="49.48479" lon="1.16711">
        <ele>70.2</ele>
        <time>2022-03-27T09:03:14Z</time>
      </trkpt>
      <trkpt lat="49.48483" lon="1.16714">
        <ele>70.3</ele>
        <time>2022-03-27T09:03:15Z</time>
      </trkpt>
      <trkpt lat="49.48486" lon="1.16718">
        <ele>70.3</ele>
        <time>2022-03-27T09:03:16Z</time>
      </trkpt>
      <trkpt lat="49.48488" lon="1.16723">
        <ele>70.3</ele>
        <time>2022-03-27T09:03:17Z</time>
      </trkpt>
      <trkpt lat="49.48492" lon="1.16729">
        <ele>70.4</ele>
        <time>2022-03-27T09:03:18Z</time>
      </trkpt>
      <trkpt lat="49.48496" lon="1.16734">
        <ele>70.4</ele>
        <time>2022-03-27T09:03:19Z</time>
      </trkpt>
      <trkpt lat="49.48499" lon="1.16738">
        <ele>70.4</ele>
        <time>2022-03-27T09:03:20Z</time>
      </trkpt>
      <trkpt lat="49.48503" lon="1.16751">
        <ele>70.5</ele>
        <time>2022-03-27T09:03:22Z</time>
      </trkpt>
      <trkpt lat="49.48506" lon="1.16759">
        <ele>70.5</ele>
        <time>2022-03-27T09:03:24Z</time>
      </trkpt>
      <trkpt lat="49.48508" lon="1.16767">
        <ele>70.5</ele>
        <time>2022-03-27T09:03:25Z</time>
      </trkpt>
      <trkpt lat="49.4851" lon="1.16774">
        <ele>70.5</ele>
        <time>2022-03-27T09:03:26Z</time>
      </trkpt>
      <trkpt lat="49.48511" lon="1.16781">
        <ele>70.6</ele>
        <time>2022-03-27T09:03:27Z</time>
      </trkpt>
      <trkpt lat="49.48513" lon="1.16791">
        <ele>70.6</ele>
        <time>2022-03-27T09:03:28Z</time>
      </trkpt>
      <trkpt lat="49.48515" lon="1.168">
        <ele>70.7</ele>
        <time>2022-03-27T09:03:29Z</time>
      </trkpt>
      <trkpt lat="49.48517" lon="1.16812">
        <ele>70.8</ele>
        <time>2022-03-27T09:03:30Z</time>
      </trkpt>
      <trkpt lat="49.48517" lon="1.16818">
        <ele>70.8</ele>
        <time>2022-03-27T09:03:32Z</time>
      </trkpt>
      <trkpt lat="49.48519" lon="1.16825">
        <ele>70.9</ele>
        <time>2022-03-27T09:03:33Z</time>
      </trkpt>
      <trkpt lat="49.48524" lon="1.16835">
        <ele>71</ele>
        <time>2022-03-27T09:03:35Z</time>
      </trkpt>
      <trkpt lat="49.48527" lon="1.16842">
        <ele>71.1</ele>
        <time>2022-03-27T09:03:36Z</time>
      </trkpt>
      <trkpt lat="49.4853" lon="1.16848">
        <ele>71.2</ele>
        <time>2022-03-27T09:03:37Z</time>
      </trkpt>
      <trkpt lat="49.48532" lon="1.16854">
        <ele>71.3</ele>
        <time>2022-03-27T09:03:38Z</time>
      </trkpt>
      <trkpt lat="49.48538" lon="1.16866">
        <ele>71.4</ele>
        <time>2022-03-27T09:03:40Z</time>
      </trkpt>
      <trkpt lat="49.48545" lon="1.16878">
        <ele>71.5</ele>
        <time>2022-03-27T09:03:41Z</time>
      </trkpt>
      <trkpt lat="49.48548" lon="1.16884">
        <ele>71.5</ele>
        <time>2022-03-27T09:03:43Z</time>
      </trkpt>
      <trkpt lat="49.48552" lon="1.1689">
        <ele>71.6</ele>
        <time>2022-03-27T09:03:44Z</time>
      </trkpt>
      <trkpt lat="49.48556" lon="1.16897">
        <ele>71.7</ele>
        <time>2022-03-27T09:03:45Z</time>
      </trkpt>
      <trkpt lat="49.48559" lon="1.16901">
        <ele>71.7</ele>
        <time>2022-03-27T09:03:46Z</time>
      </trkpt>
      <trkpt lat="49.48563" lon="1.16907">
        <ele>71.8</ele>
        <time>2022-03-27T09:03:48Z</time>
      </trkpt>
      <trkpt lat="49.48565" lon="1.16912">
        <ele>71.8</ele>
        <time>2022-03-27T09:03:49Z</time>
      </trkpt>
      <trkpt lat="49.48566" lon="1.16917">
        <ele>71.9</ele>
        <time>2022-03-27T09:03:50Z</time>
      </trkpt>
      <trkpt lat="49.48568" lon="1.16922">
        <ele>71.9</ele>
        <time>2022-03-27T09:03:51Z</time>
      </trkpt>
      <trkpt lat="49.4857" lon="1.16927">
        <ele>72</ele>
        <time>2022-03-27T09:03:52Z</time>
      </trkpt>
      <trkpt lat="49.48573" lon="1.16937">
        <ele>72.1</ele>
        <time>2022-03-27T09:03:53Z</time>
      </trkpt>
      <trkpt lat="49.48574" lon="1.16943">
        <ele>72.1</ele>
        <time>2022-03-27T09:03:54Z</time>
      </trkpt>
      <trkpt lat="49.48575" lon="1.1695">
        <ele>72.2</ele>
        <time>2022-03-27T09:03:55Z</time>
      </trkpt>
      <trkpt lat="49.48576" lon="1.16958">
        <ele>72.3</ele>
        <time>2022-03-27T09:03:56Z</time>
      </trkpt>
      <trkpt lat="49.48579" lon="1.16967">
        <ele>72.3</ele>
        <time>2022-03-27T09:03:58Z</time>
      </trkpt>
      <trkpt lat="49.48581" lon="1.1698">
        <ele>72.4</ele>
        <time>2022-03-27T09:03:59Z</time>
      </trkpt>
      <trkpt lat="49.48585" lon="1.16988">
        <ele>72.4</ele>
        <time>2022-03-27T09:04:00Z</time>
      </trkpt>
      <trkpt lat="49.48589" lon="1.16997">
        <ele>72.5</ele>
        <time>2022-03-27T09:04:01Z</time>
      </trkpt>
      <trkpt lat="49.48592" lon="1.17004">
        <ele>72.5</ele>
        <time>2022-03-27T09:04:02Z</time>
      </trkpt>
      <trkpt lat="49.48595" lon="1.1701">
        <ele>72.6</ele>
        <time>2022-03-27T09:04:03Z</time>
      </trkpt>
      <trkpt lat="49.48599" lon="1.17015">
        <ele>72.6</ele>
        <time>2022-03-27T09:04:04Z</time>
      </trkpt>
      <trkpt lat="49.48604" lon="1.17019">
        <ele>72.6</ele>
        <time>2022-03-27T09:04:05Z</time>
      </trkpt>
      <trkpt lat="49.48608" lon="1.17022">
        <ele>72.6</ele>
        <time>2022-03-27T09:04:06Z</time>
      </trkpt>
      <trkpt lat="49.48611" lon="1.17023">
        <ele>72.6</ele>
        <time>2022-03-27T09:04:07Z</time>
      </trkpt>
      <trkpt lat="49.48617" lon="1.17024">
        <ele>72.6</ele>
        <time>2022-03-27T09:04:08Z</time>
      </trkpt>
      <trkpt lat="49.48623" lon="1.1703">
        <ele>72.6</ele>
        <time>2022-03-27T09:04:10Z</time>
      </trkpt>
      <trkpt lat="49.48627" lon="1.17033">
        <ele>72.6</ele>
        <time>2022-03-27T09:04:11Z</time>
      </trkpt>
      <trkpt lat="49.48632" lon="1.17036">
        <ele>72.6</ele>
        <time>2022-03-27T09:04:12Z</time>
      </trkpt>
      <trkpt lat="49.48641" lon="1.1704">
        <ele>72.7</ele>
        <time>2022-03-27T09:04:13Z</time>
      </trkpt>
      <trkpt lat="49.48649" lon="1.17043">
        <ele>72.7</ele>
        <time>2022-03-27T09:04:15Z</time>
      </trkpt>
      <trkpt lat="49.48654" lon="1.17045">
        <ele>72.7</ele>
        <time>2022-03-27T09:04:16Z</time>
      </trkpt>
      <trkpt lat="49.48663" lon="1.17048">
        <ele>72.8</ele>
        <time>2022-03-27T09:04:17Z</time>
      </trkpt>
      <trkpt lat="49.48669" lon="1.17049">
        <ele>72.8</ele>
        <time>2022-03-27T09:04:18Z</time>
      </trkpt>
      <trkpt lat="49.48674" lon="1.17048">
        <ele>72.8</ele>
        <time>2022-03-27T09:04:19Z</time>
      </trkpt>
      <trkpt lat="49.48678" lon="1.17048">
        <ele>72.8</ele>
        <time>2022-03-27T09:04:20Z</time>
      </trkpt>
      <trkpt lat="49.48682" lon="1.17049">
        <ele>72.8</ele>
        <time>2022-03-27T09:04:21Z</time>
      </trkpt>
      <trkpt lat="49.48686" lon="1.17048">
        <ele>72.8</ele>
        <time>2022-03-27T09:04:22Z</time>
      </trkpt>
      <trkpt lat="49.4869" lon="1.17046">
        <ele>72.8</ele>
        <time>2022-03-27T09:04:23Z</time>
      </trkpt>
      <trkpt lat="49.48693" lon="1.17044">
        <ele>72.9</ele>
        <time>2022-03-27T09:04:24Z</time>
      </trkpt>
      <trkpt lat="49.48698" lon="1.17044">
        <ele>72.9</ele>
        <time>2022-03-27T09:04:26Z</time>
      </trkpt>
      <trkpt lat="49.48706" lon="1.17041">
        <ele>72.9</ele>
        <time>2022-03-27T09:04:27Z</time>
      </trkpt>
      <trkpt lat="49.48712" lon="1.17038">
        <ele>72.9</ele>
        <time>2022-03-27T09:04:29Z</time>
      </trkpt>
      <trkpt lat="49.48718" lon="1.17036">
        <ele>72.9</ele>
        <time>2022-03-27T09:04:30Z</time>
      </trkpt>
      <trkpt lat="49.48729" lon="1.17032">
        <ele>73</ele>
        <time>2022-03-27T09:04:32Z</time>
      </trkpt>
      <trkpt lat="49.48734" lon="1.17031">
        <ele>73</ele>
        <time>2022-03-27T09:04:33Z</time>
      </trkpt>
      <trkpt lat="49.48738" lon="1.17029">
        <ele>73</ele>
        <time>2022-03-27T09:04:34Z</time>
      </trkpt>
      <trkpt lat="49.48743" lon="1.17027">
        <ele>73</ele>
        <time>2022-03-27T09:04:35Z</time>
      </trkpt>
      <trkpt lat="49.48747" lon="1.17025">
        <ele>73</ele>
        <time>2022-03-27T09:04:36Z</time>
      </trkpt>
      <trkpt lat="49.48752" lon="1.17023">
        <ele>73</ele>
        <time>2022-03-27T09:04:37Z</time>
      </trkpt>
      <trkpt lat="49.48757" lon="1.1702">
        <ele>73</ele>
        <time>2022-03-27T09:04:38Z</time>
      </trkpt>
      <trkpt lat="49.48763" lon="1.17017">
        <ele>73</ele>
        <time>2022-03-27T09:04:39Z</time>
      </trkpt>
      <trkpt lat="49.48768" lon="1.17014">
        <ele>73</ele>
        <time>2022-03-27T09:04:40Z</time>
      </trkpt>
      <trkpt lat="49.48773" lon="1.17012">
        <ele>73</ele>
        <time>2022-03-27T09:04:41Z</time>
      </trkpt>
      <trkpt lat="49.48778" lon="1.17009">
        <ele>73</ele>
        <time>2022-03-27T09:04:42Z</time>
      </trkpt>
      <trkpt lat="49.48783" lon="1.17007">
        <ele>73</ele>
        <time>2022-03-27T09:04:43Z</time>
      </trkpt>
      <trkpt lat="49.48787" lon="1.17005">
        <ele>73</ele>
        <time>2022-03-27T09:04:44Z</time>
      </trkpt>
      <trkpt lat="49.48793" lon="1.17003">
        <ele>73</ele>
        <time>2022-03-27T09:04:45Z</time>
      </trkpt>
      <trkpt lat="49.48798" lon="1.17002">
        <ele>73.1</ele>
        <time>2022-03-27T09:04:46Z</time>
      </trkpt>
      <trkpt lat="49.48803" lon="1.17001">
        <ele>73.1</ele>
        <time>2022-03-27T09:04:47Z</time>
      </trkpt>
      <trkpt lat="49.48809" lon="1.17">
        <ele>73.1</ele>
        <time>2022-03-27T09:04:48Z</time>
      </trkpt>
      <trkpt lat="49.48814" lon="1.16999">
        <ele>73.1</ele>
        <time>2022-03-27T09:04:49Z</time>
      </trkpt>
      <trkpt lat="49.48823" lon="1.17003">
        <ele>73.1</ele>
        <time>2022-03-27T09:04:50Z</time>
      </trkpt>
      <trkpt lat="49.48828" lon="1.17002">
        <ele>73.1</ele>
        <time>2022-03-27T09:04:51Z</time>
      </trkpt>
      <trkpt lat="49.48835" lon="1.17">
        <ele>73.2</ele>
        <time>2022-03-27T09:04:53Z</time>
      </trkpt>
      <trkpt lat="49.4884" lon="1.16998">
        <ele>73.2</ele>
        <time>2022-03-27T09:04:54Z</time>
      </trkpt>
      <trkpt lat="49.48845" lon="1.16997">
        <ele>73.2</ele>
        <time>2022-03-27T09:04:55Z</time>
      </trkpt>
      <trkpt lat="49.4885" lon="1.16996">
        <ele>73.2</ele>
        <time>2022-03-27T09:04:56Z</time>
      </trkpt>
      <trkpt lat="49.48856" lon="1.16994">
        <ele>73.2</ele>
        <time>2022-03-27T09:04:57Z</time>
      </trkpt>
      <trkpt lat="49.48862" lon="1.16992">
        <ele>73.2</ele>
        <time>2022-03-27T09:04:58Z</time>
      </trkpt>
      <trkpt lat="49.48868" lon="1.1699">
        <ele>73.3</ele>
        <time>2022-03-27T09:04:59Z</time>
      </trkpt>
      <trkpt lat="49.48873" lon="1.16988">
        <ele>73.3</ele>
        <time>2022-03-27T09:05:00Z</time>
      </trkpt>
      <trkpt lat="49.48878" lon="1.16987">
        <ele>73.3</ele>
        <time>2022-03-27T09:05:01Z</time>
      </trkpt>
      <trkpt lat="49.48882" lon="1.16986">
        <ele>73.4</ele>
        <time>2022-03-27T09:05:02Z</time>
      </trkpt>
      <trkpt lat="49.48886" lon="1.16985">
        <ele>73.4</ele>
        <time>2022-03-27T09:05:03Z</time>
      </trkpt>
      <trkpt lat="49.4889" lon="1.16983">
        <ele>73.4</ele>
        <time>2022-03-27T09:05:04Z</time>
      </trkpt>
      <trkpt lat="49.48895" lon="1.16982">
        <ele>73.5</ele>
        <time>2022-03-27T09:05:05Z</time>
      </trkpt>
      <trkpt lat="49.489" lon="1.16982">
        <ele>73.5</ele>
        <time>2022-03-27T09:05:06Z</time>
      </trkpt>
      <trkpt lat="49.48904" lon="1.16983">
        <ele>73.6</ele>
        <time>2022-03-27T09:05:07Z</time>
      </trkpt>
      <trkpt lat="49.48909" lon="1.16984">
        <ele>73.6</ele>
        <time>2022-03-27T09:05:08Z</time>
      </trkpt>
      <trkpt lat="49.48914" lon="1.16985">
        <ele>73.7</ele>
        <time>2022-03-27T09:05:09Z</time>
      </trkpt>
      <trkpt lat="49.48919" lon="1.16986">
        <ele>73.7</ele>
        <time>2022-03-27T09:05:10Z</time>
      </trkpt>
      <trkpt lat="49.48924" lon="1.16987">
        <ele>73.8</ele>
        <time>2022-03-27T09:05:11Z</time>
      </trkpt>
      <trkpt lat="49.48929" lon="1.16991">
        <ele>73.8</ele>
        <time>2022-03-27T09:05:12Z</time>
      </trkpt>
      <trkpt lat="49.48939" lon="1.17006">
        <ele>74</ele>
        <time>2022-03-27T09:05:13Z</time>
      </trkpt>
      <trkpt lat="49.48944" lon="1.17012">
        <ele>74.1</ele>
        <time>2022-03-27T09:05:14Z</time>
      </trkpt>
      <trkpt lat="49.48948" lon="1.17016">
        <ele>74.1</ele>
        <time>2022-03-27T09:05:16Z</time>
      </trkpt>
      <trkpt lat="49.48952" lon="1.1702">
        <ele>74.2</ele>
        <time>2022-03-27T09:05:17Z</time>
      </trkpt>
      <trkpt lat="49.48956" lon="1.17024">
        <ele>74.2</ele>
        <time>2022-03-27T09:05:18Z</time>
      </trkpt>
      <trkpt lat="49.48959" lon="1.1703">
        <ele>74.3</ele>
        <time>2022-03-27T09:05:19Z</time>
      </trkpt>
      <trkpt lat="49.48963" lon="1.17035">
        <ele>74.3</ele>
        <time>2022-03-27T09:05:20Z</time>
      </trkpt>
      <trkpt lat="49.48972" lon="1.17046">
        <ele>74.5</ele>
        <time>2022-03-27T09:05:21Z</time>
      </trkpt>
      <trkpt lat="49.48976" lon="1.1705">
        <ele>74.6</ele>
        <time>2022-03-27T09:05:23Z</time>
      </trkpt>
      <trkpt lat="49.4898" lon="1.17056">
        <ele>74.6</ele>
        <time>2022-03-27T09:05:24Z</time>
      </trkpt>
      <trkpt lat="49.48984" lon="1.1706">
        <ele>74.7</ele>
        <time>2022-03-27T09:05:25Z</time>
      </trkpt>
      <trkpt lat="49.48989" lon="1.17064">
        <ele>74.8</ele>
        <time>2022-03-27T09:05:26Z</time>
      </trkpt>
      <trkpt lat="49.48993" lon="1.17069">
        <ele>74.8</ele>
        <time>2022-03-27T09:05:27Z</time>
      </trkpt>
      <trkpt lat="49.48997" lon="1.17074">
        <ele>74.9</ele>
        <time>2022-03-27T09:05:28Z</time>
      </trkpt>
      <trkpt lat="49.49001" lon="1.1708">
        <ele>75</ele>
        <time>2022-03-27T09:05:29Z</time>
      </trkpt>
      <trkpt lat="49.49004" lon="1.17085">
        <ele>75.1</ele>
        <time>2022-03-27T09:05:30Z</time>
      </trkpt>
      <trkpt lat="49.49008" lon="1.1709">
        <ele>75.2</ele>
        <time>2022-03-27T09:05:31Z</time>
      </trkpt>
      <trkpt lat="49.49014" lon="1.17096">
        <ele>75.3</ele>
        <time>2022-03-27T09:05:32Z</time>
      </trkpt>
      <trkpt lat="49.49017" lon="1.17101">
        <ele>75.3</ele>
        <time>2022-03-27T09:05:34Z</time>
      </trkpt>
      <trkpt lat="49.49022" lon="1.17106">
        <ele>75.4</ele>
        <time>2022-03-27T09:05:35Z</time>
      </trkpt>
      <trkpt lat="49.49026" lon="1.1711">
        <ele>75.5</ele>
        <time>2022-03-27T09:05:36Z</time>
      </trkpt>
      <trkpt lat="49.49029" lon="1.17113">
        <ele>75.5</ele>
        <time>2022-03-27T09:05:37Z</time>
      </trkpt>
      <trkpt lat="49.49032" lon="1.17112">
        <ele>75.6</ele>
        <time>2022-03-27T09:05:38Z</time>
      </trkpt>
      <trkpt lat="49.49035" lon="1.17116">
        <ele>75.6</ele>
        <time>2022-03-27T09:05:39Z</time>
      </trkpt>
      <trkpt lat="49.49038" lon="1.17121">
        <ele>75.7</ele>
        <time>2022-03-27T09:05:40Z</time>
      </trkpt>
      <trkpt lat="49.49042" lon="1.17126">
        <ele>75.7</ele>
        <time>2022-03-27T09:05:41Z</time>
      </trkpt>
      <trkpt lat="49.49045" lon="1.17133">
        <ele>75.8</ele>
        <time>2022-03-27T09:05:42Z</time>
      </trkpt>
      <trkpt lat="49.49048" lon="1.17139">
        <ele>75.8</ele>
        <time>2022-03-27T09:05:43Z</time>
      </trkpt>
      <trkpt lat="49.49051" lon="1.17144">
        <ele>75.9</ele>
        <time>2022-03-27T09:05:44Z</time>
      </trkpt>
      <trkpt lat="49.49054" lon="1.17148">
        <ele>75.9</ele>
        <time>2022-03-27T09:05:45Z</time>
      </trkpt>
      <trkpt lat="49.49057" lon="1.17153">
        <ele>76</ele>
        <time>2022-03-27T09:05:46Z</time>
      </trkpt>
      <trkpt lat="49.4906" lon="1.17163">
        <ele>76</ele>
        <time>2022-03-27T09:05:47Z</time>
      </trkpt>
      <trkpt lat="49.49066" lon="1.17176">
        <ele>76.2</ele>
        <time>2022-03-27T09:05:49Z</time>
      </trkpt>
      <trkpt lat="49.49073" lon="1.17184">
        <ele>76.3</ele>
        <time>2022-03-27T09:05:51Z</time>
      </trkpt>
      <trkpt lat="49.49078" lon="1.17193">
        <ele>76.4</ele>
        <time>2022-03-27T09:05:53Z</time>
      </trkpt>
      <trkpt lat="49.49083" lon="1.17204">
        <ele>76.5</ele>
        <time>2022-03-27T09:05:54Z</time>
      </trkpt>
      <trkpt lat="49.49091" lon="1.17215">
        <ele>76.6</ele>
        <time>2022-03-27T09:05:56Z</time>
      </trkpt>
      <trkpt lat="49.49096" lon="1.17222">
        <ele>76.7</ele>
        <time>2022-03-27T09:05:57Z</time>
      </trkpt>
      <trkpt lat="49.49101" lon="1.17229">
        <ele>76.7</ele>
        <time>2022-03-27T09:05:58Z</time>
      </trkpt>
      <trkpt lat="49.49106" lon="1.17235">
        <ele>76.8</ele>
        <time>2022-03-27T09:05:59Z</time>
      </trkpt>
      <trkpt lat="49.4911" lon="1.17241">
        <ele>76.9</ele>
        <time>2022-03-27T09:06:00Z</time>
      </trkpt>
      <trkpt lat="49.49113" lon="1.17246">
        <ele>76.9</ele>
        <time>2022-03-27T09:06:01Z</time>
      </trkpt>
      <trkpt lat="49.49116" lon="1.17248">
        <ele>77</ele>
        <time>2022-03-27T09:06:02Z</time>
      </trkpt>
      <trkpt lat="49.49122" lon="1.17252">
        <ele>77</ele>
        <time>2022-03-27T09:06:03Z</time>
      </trkpt>
      <trkpt lat="49.49127" lon="1.1726">
        <ele>77.1</ele>
        <time>2022-03-27T09:06:05Z</time>
      </trkpt>
      <trkpt lat="49.49136" lon="1.17271">
        <ele>77.2</ele>
        <time>2022-03-27T09:06:06Z</time>
      </trkpt>
      <trkpt lat="49.49144" lon="1.17282">
        <ele>77.3</ele>
        <time>2022-03-27T09:06:08Z</time>
      </trkpt>
      <trkpt lat="49.49149" lon="1.17287">
        <ele>77.4</ele>
        <time>2022-03-27T09:06:09Z</time>
      </trkpt>
      <trkpt lat="49.49154" lon="1.17289">
        <ele>77.4</ele>
        <time>2022-03-27T09:06:10Z</time>
      </trkpt>
      <trkpt lat="49.49157" lon="1.17288">
        <ele>77.4</ele>
        <time>2022-03-27T09:06:11Z</time>
      </trkpt>
      <trkpt lat="49.49162" lon="1.17294">
        <ele>77.5</ele>
        <time>2022-03-27T09:06:12Z</time>
      </trkpt>
      <trkpt lat="49.49168" lon="1.17303">
        <ele>77.6</ele>
        <time>2022-03-27T09:06:14Z</time>
      </trkpt>
      <trkpt lat="49.49175" lon="1.17313">
        <ele>77.7</ele>
        <time>2022-03-27T09:06:16Z</time>
      </trkpt>
      <trkpt lat="49.49181" lon="1.17323">
        <ele>77.8</ele>
        <time>2022-03-27T09:06:18Z</time>
      </trkpt>
      <trkpt lat="49.49187" lon="1.17332">
        <ele>77.9</ele>
        <time>2022-03-27T09:06:19Z</time>
      </trkpt>
      <trkpt lat="49.49192" lon="1.17338">
        <ele>77.9</ele>
        <time>2022-03-27T09:06:21Z</time>
      </trkpt>
      <trkpt lat="49.49194" lon="1.1734">
        <ele>78</ele>
        <time>2022-03-27T09:06:22Z</time>
      </trkpt>
      <trkpt lat="49.49197" lon="1.17342">
        <ele>78</ele>
        <time>2022-03-27T09:06:23Z</time>
      </trkpt>
      <trkpt lat="49.492" lon="1.17344">
        <ele>78</ele>
        <time>2022-03-27T09:06:24Z</time>
      </trkpt>
      <trkpt lat="49.49202" lon="1.17347">
        <ele>78</ele>
        <time>2022-03-27T09:06:26Z</time>
      </trkpt>
      <trkpt lat="49.49213" lon="1.17356">
        <ele>78.1</ele>
        <time>2022-03-27T09:06:27Z</time>
      </trkpt>
      <trkpt lat="49.49221" lon="1.17363">
        <ele>78.1</ele>
        <time>2022-03-27T09:06:28Z</time>
      </trkpt>
      <trkpt lat="49.49229" lon="1.1737">
        <ele>78.1</ele>
        <time>2022-03-27T09:06:29Z</time>
      </trkpt>
      <trkpt lat="49.49236" lon="1.17375">
        <ele>78.1</ele>
        <time>2022-03-27T09:06:30Z</time>
      </trkpt>
      <trkpt lat="49.49244" lon="1.17381">
        <ele>78.1</ele>
        <time>2022-03-27T09:06:31Z</time>
      </trkpt>
      <trkpt lat="49.49251" lon="1.17386">
        <ele>78.1</ele>
        <time>2022-03-27T09:06:32Z</time>
      </trkpt>
      <trkpt lat="49.49258" lon="1.17391">
        <ele>78.1</ele>
        <time>2022-03-27T09:06:33Z</time>
      </trkpt>
      <trkpt lat="49.49264" lon="1.17396">
        <ele>78.2</ele>
        <time>2022-03-27T09:06:34Z</time>
      </trkpt>
      <trkpt lat="49.4927" lon="1.17401">
        <ele>78.2</ele>
        <time>2022-03-27T09:06:35Z</time>
      </trkpt>
      <trkpt lat="49.49276" lon="1.17406">
        <ele>78.2</ele>
        <time>2022-03-27T09:06:36Z</time>
      </trkpt>
      <trkpt lat="49.49281" lon="1.1741">
        <ele>78.2</ele>
        <time>2022-03-27T09:06:37Z</time>
      </trkpt>
      <trkpt lat="49.49286" lon="1.17414">
        <ele>78.2</ele>
        <time>2022-03-27T09:06:38Z</time>
      </trkpt>
      <trkpt lat="49.4929" lon="1.1742">
        <ele>78.2</ele>
        <time>2022-03-27T09:06:39Z</time>
      </trkpt>
      <trkpt lat="49.49294" lon="1.17426">
        <ele>78.2</ele>
        <time>2022-03-27T09:06:40Z</time>
      </trkpt>
      <trkpt lat="49.49297" lon="1.17431">
        <ele>78.2</ele>
        <time>2022-03-27T09:06:41Z</time>
      </trkpt>
      <trkpt lat="49.493" lon="1.17435">
        <ele>78.2</ele>
        <time>2022-03-27T09:06:42Z</time>
      </trkpt>
      <trkpt lat="49.49303" lon="1.17439">
        <ele>78.2</ele>
        <time>2022-03-27T09:06:43Z</time>
      </trkpt>
      <trkpt lat="49.49306" lon="1.17444">
        <ele>78.2</ele>
        <time>2022-03-27T09:06:44Z</time>
      </trkpt>
      <trkpt lat="49.49309" lon="1.17449">
        <ele>78.2</ele>
        <time>2022-03-27T09:06:45Z</time>
      </trkpt>
      <trkpt lat="49.49312" lon="1.17454">
        <ele>78.2</ele>
        <time>2022-03-27T09:06:46Z</time>
      </trkpt>
      <trkpt lat="49.49314" lon="1.1746">
        <ele>78.2</ele>
        <time>2022-03-27T09:06:47Z</time>
      </trkpt>
      <trkpt lat="49.49316" lon="1.17465">
        <ele>78.2</ele>
        <time>2022-03-27T09:06:48Z</time>
      </trkpt>
      <trkpt lat="49.49318" lon="1.17474">
        <ele>78.2</ele>
        <time>2022-03-27T09:06:49Z</time>
      </trkpt>
      <trkpt lat="49.49319" lon="1.17483">
        <ele>78.2</ele>
        <time>2022-03-27T09:06:50Z</time>
      </trkpt>
      <trkpt lat="49.4932" lon="1.17493">
        <ele>78.2</ele>
        <time>2022-03-27T09:06:51Z</time>
      </trkpt>
      <trkpt lat="49.4932" lon="1.17501">
        <ele>78.2</ele>
        <time>2022-03-27T09:06:52Z</time>
      </trkpt>
      <trkpt lat="49.49321" lon="1.17496">
        <ele>78.2</ele>
        <time>2022-03-27T09:06:53Z</time>
      </trkpt>
      <trkpt lat="49.49322" lon="1.17508">
        <ele>78.2</ele>
        <time>2022-03-27T09:06:54Z</time>
      </trkpt>
      <trkpt lat="49.4932" lon="1.17531">
        <ele>78.2</ele>
        <time>2022-03-27T09:06:56Z</time>
      </trkpt>
      <trkpt lat="49.49319" lon="1.17541">
        <ele>78.2</ele>
        <time>2022-03-27T09:06:57Z</time>
      </trkpt>
      <trkpt lat="49.49316" lon="1.1755">
        <ele>78.3</ele>
        <time>2022-03-27T09:06:58Z</time>
      </trkpt>
      <trkpt lat="49.49315" lon="1.17559">
        <ele>78.3</ele>
        <time>2022-03-27T09:06:59Z</time>
      </trkpt>
      <trkpt lat="49.49313" lon="1.17567">
        <ele>78.3</ele>
        <time>2022-03-27T09:07:00Z</time>
      </trkpt>
      <trkpt lat="49.49311" lon="1.17575">
        <ele>78.4</ele>
        <time>2022-03-27T09:07:01Z</time>
      </trkpt>
      <trkpt lat="49.49308" lon="1.17584">
        <ele>78.4</ele>
        <time>2022-03-27T09:07:02Z</time>
      </trkpt>
      <trkpt lat="49.49305" lon="1.17593">
        <ele>78.4</ele>
        <time>2022-03-27T09:07:03Z</time>
      </trkpt>
      <trkpt lat="49.49302" lon="1.17601">
        <ele>78.5</ele>
        <time>2022-03-27T09:07:04Z</time>
      </trkpt>
      <trkpt lat="49.49301" lon="1.17608">
        <ele>78.5</ele>
        <time>2022-03-27T09:07:05Z</time>
      </trkpt>
      <trkpt lat="49.49299" lon="1.17616">
        <ele>78.5</ele>
        <time>2022-03-27T09:07:06Z</time>
      </trkpt>
      <trkpt lat="49.49299" lon="1.17623">
        <ele>78.6</ele>
        <time>2022-03-27T09:07:07Z</time>
      </trkpt>
      <trkpt lat="49.49298" lon="1.1763">
        <ele>78.6</ele>
        <time>2022-03-27T09:07:08Z</time>
      </trkpt>
      <trkpt lat="49.49298" lon="1.17636">
        <ele>78.6</ele>
        <time>2022-03-27T09:07:09Z</time>
      </trkpt>
      <trkpt lat="49.49297" lon="1.17644">
        <ele>78.6</ele>
        <time>2022-03-27T09:07:10Z</time>
      </trkpt>
      <trkpt lat="49.49296" lon="1.17652">
        <ele>78.7</ele>
        <time>2022-03-27T09:07:11Z</time>
      </trkpt>
      <trkpt lat="49.49296" lon="1.17658">
        <ele>78.7</ele>
        <time>2022-03-27T09:07:12Z</time>
      </trkpt>
      <trkpt lat="49.49296" lon="1.17665">
        <ele>78.7</ele>
        <time>2022-03-27T09:07:13Z</time>
      </trkpt>
      <trkpt lat="49.49298" lon="1.17672">
        <ele>78.8</ele>
        <time>2022-03-27T09:07:14Z</time>
      </trkpt>
      <trkpt lat="49.49293" lon="1.17679">
        <ele>78.9</ele>
        <time>2022-03-27T09:07:15Z</time>
      </trkpt>
      <trkpt lat="49.49299" lon="1.17693">
        <ele>79</ele>
        <time>2022-03-27T09:07:17Z</time>
      </trkpt>
      <trkpt lat="49.493" lon="1.177">
        <ele>79</ele>
        <time>2022-03-27T09:07:18Z</time>
      </trkpt>
      <trkpt lat="49.49302" lon="1.17711">
        <ele>79.1</ele>
        <time>2022-03-27T09:07:19Z</time>
      </trkpt>
      <trkpt lat="49.49307" lon="1.17726">
        <ele>79.2</ele>
        <time>2022-03-27T09:07:21Z</time>
      </trkpt>
      <trkpt lat="49.49309" lon="1.17733">
        <ele>79.3</ele>
        <time>2022-03-27T09:07:22Z</time>
      </trkpt>
      <trkpt lat="49.49311" lon="1.17739">
        <ele>79.4</ele>
        <time>2022-03-27T09:07:23Z</time>
      </trkpt>
      <trkpt lat="49.49314" lon="1.17743">
        <ele>79.4</ele>
        <time>2022-03-27T09:07:24Z</time>
      </trkpt>
      <trkpt lat="49.49316" lon="1.1775">
        <ele>79.5</ele>
        <time>2022-03-27T09:07:25Z</time>
      </trkpt>
      <trkpt lat="49.49319" lon="1.17759">
        <ele>79.6</ele>
        <time>2022-03-27T09:07:26Z</time>
      </trkpt>
      <trkpt lat="49.49323" lon="1.17768">
        <ele>79.6</ele>
        <time>2022-03-27T09:07:27Z</time>
      </trkpt>
      <trkpt lat="49.49326" lon="1.17775">
        <ele>79.7</ele>
        <time>2022-03-27T09:07:29Z</time>
      </trkpt>
      <trkpt lat="49.49329" lon="1.17781">
        <ele>79.8</ele>
        <time>2022-03-27T09:07:30Z</time>
      </trkpt>
      <trkpt lat="49.49332" lon="1.17788">
        <ele>79.8</ele>
        <time>2022-03-27T09:07:31Z</time>
      </trkpt>
      <trkpt lat="49.49337" lon="1.17799">
        <ele>79.9</ele>
        <time>2022-03-27T09:07:32Z</time>
      </trkpt>
      <trkpt lat="49.4934" lon="1.17806">
        <ele>79.9</ele>
        <time>2022-03-27T09:07:33Z</time>
      </trkpt>
      <trkpt lat="49.49342" lon="1.17815">
        <ele>80</ele>
        <time>2022-03-27T09:07:35Z</time>
      </trkpt>
      <trkpt lat="49.49346" lon="1.17825">
        <ele>80.1</ele>
        <time>2022-03-27T09:07:36Z</time>
      </trkpt>
      <trkpt lat="49.49349" lon="1.17832">
        <ele>80.1</ele>
        <time>2022-03-27T09:07:38Z</time>
      </trkpt>
      <trkpt lat="49.49352" lon="1.1784">
        <ele>80.2</ele>
        <time>2022-03-27T09:07:39Z</time>
      </trkpt>
      <trkpt lat="49.49357" lon="1.17853">
        <ele>80.3</ele>
        <time>2022-03-27T09:07:40Z</time>
      </trkpt>
      <trkpt lat="49.49363" lon="1.17865">
        <ele>80.4</ele>
        <time>2022-03-27T09:07:42Z</time>
      </trkpt>
      <trkpt lat="49.49365" lon="1.17873">
        <ele>80.5</ele>
        <time>2022-03-27T09:07:44Z</time>
      </trkpt>
      <trkpt lat="49.49368" lon="1.17876">
        <ele>80.5</ele>
        <time>2022-03-27T09:07:45Z</time>
      </trkpt>
      <trkpt lat="49.49372" lon="1.17879">
        <ele>80.6</ele>
        <time>2022-03-27T09:07:46Z</time>
      </trkpt>
      <trkpt lat="49.49375" lon="1.17883">
        <ele>80.6</ele>
        <time>2022-03-27T09:07:47Z</time>
      </trkpt>
      <trkpt lat="49.49381" lon="1.17885">
        <ele>80.7</ele>
        <time>2022-03-27T09:07:48Z</time>
      </trkpt>
      <trkpt lat="49.49391" lon="1.17886">
        <ele>80.8</ele>
        <time>2022-03-27T09:07:50Z</time>
      </trkpt>
      <trkpt lat="49.49394" lon="1.17884">
        <ele>80.8</ele>
        <time>2022-03-27T09:07:51Z</time>
      </trkpt>
      <trkpt lat="49.49401" lon="1.17876">
        <ele>80.7</ele>
        <time>2022-03-27T09:07:53Z</time>
      </trkpt>
      <trkpt lat="49.49407" lon="1.17871">
        <ele>80.6</ele>
        <time>2022-03-27T09:07:55Z</time>
      </trkpt>
      <trkpt lat="49.49412" lon="1.17862">
        <ele>80.6</ele>
        <time>2022-03-27T09:07:56Z</time>
      </trkpt>
      <trkpt lat="49.49417" lon="1.17856">
        <ele>80.5</ele>
        <time>2022-03-27T09:07:58Z</time>
      </trkpt>
      <trkpt lat="49.49422" lon="1.1785">
        <ele>80.5</ele>
        <time>2022-03-27T09:08:00Z</time>
      </trkpt>
      <trkpt lat="49.49426" lon="1.17845">
        <ele>80.5</ele>
        <time>2022-03-27T09:08:01Z</time>
      </trkpt>
      <trkpt lat="49.4943" lon="1.17841">
        <ele>80.5</ele>
        <time>2022-03-27T09:08:02Z</time>
      </trkpt>
      <trkpt lat="49.49434" lon="1.17836">
        <ele>80.5</ele>
        <time>2022-03-27T09:08:03Z</time>
      </trkpt>
      <trkpt lat="49.49438" lon="1.17831">
        <ele>80.6</ele>
        <time>2022-03-27T09:08:04Z</time>
      </trkpt>
      <trkpt lat="49.49441" lon="1.17826">
        <ele>80.6</ele>
        <time>2022-03-27T09:08:05Z</time>
      </trkpt>
      <trkpt lat="49.49445" lon="1.17821">
        <ele>80.6</ele>
        <time>2022-03-27T09:08:06Z</time>
      </trkpt>
      <trkpt lat="49.49448" lon="1.17817">
        <ele>80.7</ele>
        <time>2022-03-27T09:08:07Z</time>
      </trkpt>
      <trkpt lat="49.49452" lon="1.17809">
        <ele>80.8</ele>
        <time>2022-03-27T09:08:08Z</time>
      </trkpt>
      <trkpt lat="49.49455" lon="1.17803">
        <ele>81</ele>
        <time>2022-03-27T09:08:09Z</time>
      </trkpt>
      <trkpt lat="49.49458" lon="1.17798">
        <ele>81.2</ele>
        <time>2022-03-27T09:08:10Z</time>
      </trkpt>
      <trkpt lat="49.4946" lon="1.17793">
        <ele>81.4</ele>
        <time>2022-03-27T09:08:11Z</time>
      </trkpt>
      <trkpt lat="49.49463" lon="1.17789">
        <ele>81.6</ele>
        <time>2022-03-27T09:08:13Z</time>
      </trkpt>
      <trkpt lat="49.49466" lon="1.17784">
        <ele>81.9</ele>
        <time>2022-03-27T09:08:14Z</time>
      </trkpt>
      <trkpt lat="49.49469" lon="1.1778">
        <ele>82.2</ele>
        <time>2022-03-27T09:08:16Z</time>
      </trkpt>
      <trkpt lat="49.49471" lon="1.17777">
        <ele>82.4</ele>
        <time>2022-03-27T09:08:17Z</time>
      </trkpt>
      <trkpt lat="49.49471" lon="1.17776">
        <ele>82.5</ele>
        <time>2022-03-27T09:08:18Z</time>
      </trkpt>
      <trkpt lat="49.49473" lon="1.17774">
        <ele>82.7</ele>
        <time>2022-03-27T09:08:20Z</time>
      </trkpt>
      <trkpt lat="49.49474" lon="1.17773">
        <ele>82.8</ele>
        <time>2022-03-27T09:08:21Z</time>
      </trkpt>
      <trkpt lat="49.49477" lon="1.1777">
        <ele>83</ele>
        <time>2022-03-27T09:08:22Z</time>
      </trkpt>
      <trkpt lat="49.49478" lon="1.17769">
        <ele>83.2</ele>
        <time>2022-03-27T09:08:23Z</time>
      </trkpt>
      <trkpt lat="49.49481" lon="1.1777">
        <ele>83.7</ele>
        <time>2022-03-27T09:08:25Z</time>
      </trkpt>
      <trkpt lat="49.49482" lon="1.1777">
        <ele>83.9</ele>
        <time>2022-03-27T09:08:26Z</time>
      </trkpt>
      <trkpt lat="49.49485" lon="1.17769">
        <ele>84.3</ele>
        <time>2022-03-27T09:08:27Z</time>
      </trkpt>
      <trkpt lat="49.49489" lon="1.1777">
        <ele>84.9</ele>
        <time>2022-03-27T09:08:29Z</time>
      </trkpt>
      <trkpt lat="49.49491" lon="1.17771">
        <ele>85.4</ele>
        <time>2022-03-27T09:08:31Z</time>
      </trkpt>
      <trkpt lat="49.49493" lon="1.17771">
        <ele>85.7</ele>
        <time>2022-03-27T09:08:33Z</time>
      </trkpt>
      <trkpt lat="49.49495" lon="1.17771">
        <ele>86</ele>
        <time>2022-03-27T09:08:34Z</time>
      </trkpt>
      <trkpt lat="49.49497" lon="1.1777">
        <ele>86.4</ele>
        <time>2022-03-27T09:08:35Z</time>
      </trkpt>
      <trkpt lat="49.49498" lon="1.17769">
        <ele>86.6</ele>
        <time>2022-03-27T09:08:36Z</time>
      </trkpt>
      <trkpt lat="49.495" lon="1.17766">
        <ele>87.1</ele>
        <time>2022-03-27T09:08:38Z</time>
      </trkpt>
      <trkpt lat="49.495" lon="1.17764">
        <ele>87.3</ele>
        <time>2022-03-27T09:08:39Z</time>
      </trkpt>
      <trkpt lat="49.49501" lon="1.17761">
        <ele>87.6</ele>
        <time>2022-03-27T09:08:41Z</time>
      </trkpt>
      <trkpt lat="49.495" lon="1.17762">
        <ele>87.7</ele>
        <time>2022-03-27T09:08:42Z</time>
      </trkpt>
      <trkpt lat="49.49499" lon="1.17764">
        <ele>88.1</ele>
        <time>2022-03-27T09:08:43Z</time>
      </trkpt>
      <trkpt lat="49.49499" lon="1.17764">
        <ele>88.1</ele>
        <time>2022-03-27T09:08:45Z</time>
      </trkpt>
      <trkpt lat="49.49499" lon="1.17761">
        <ele>88.4</ele>
        <time>2022-03-27T09:08:47Z</time>
      </trkpt>
      <trkpt lat="49.49499" lon="1.17759">
        <ele>88.7</ele>
        <time>2022-03-27T09:08:48Z</time>
      </trkpt>
      <trkpt lat="49.495" lon="1.17757">
        <ele>89</ele>
        <time>2022-03-27T09:08:49Z</time>
      </trkpt>
      <trkpt lat="49.49501" lon="1.17752">
        <ele>89.6</ele>
        <time>2022-03-27T09:08:50Z</time>
      </trkpt>
      <trkpt lat="49.49502" lon="1.1775">
        <ele>89.9</ele>
        <time>2022-03-27T09:08:52Z</time>
      </trkpt>
      <trkpt lat="49.49503" lon="1.17748">
        <ele>90.2</ele>
        <time>2022-03-27T09:08:53Z</time>
      </trkpt>
      <trkpt lat="49.49504" lon="1.17745">
        <ele>90.5</ele>
        <time>2022-03-27T09:08:54Z</time>
      </trkpt>
      <trkpt lat="49.49505" lon="1.17741">
        <ele>91.1</ele>
        <time>2022-03-27T09:08:55Z</time>
      </trkpt>
      <trkpt lat="49.49506" lon="1.17739">
        <ele>91.4</ele>
        <time>2022-03-27T09:08:56Z</time>
      </trkpt>
      <trkpt lat="49.49507" lon="1.17736">
        <ele>91.7</ele>
        <time>2022-03-27T09:08:58Z</time>
      </trkpt>
      <trkpt lat="49.49507" lon="1.17734">
        <ele>91.9</ele>
        <time>2022-03-27T09:08:59Z</time>
      </trkpt>
      <trkpt lat="49.49507" lon="1.17732">
        <ele>92.2</ele>
        <time>2022-03-27T09:09:00Z</time>
      </trkpt>
      <trkpt lat="49.49508" lon="1.17729">
        <ele>92.5</ele>
        <time>2022-03-27T09:09:01Z</time>
      </trkpt>
      <trkpt lat="49.49509" lon="1.17725">
        <ele>93.1</ele>
        <time>2022-03-27T09:09:03Z</time>
      </trkpt>
      <trkpt lat="49.49509" lon="1.17723">
        <ele>93.2</ele>
        <time>2022-03-27T09:09:04Z</time>
      </trkpt>
      <trkpt lat="49.4951" lon="1.17721">
        <ele>93.5</ele>
        <time>2022-03-27T09:09:06Z</time>
      </trkpt>
      <trkpt lat="49.49511" lon="1.1772">
        <ele>93.7</ele>
        <time>2022-03-27T09:09:07Z</time>
      </trkpt>
      <trkpt lat="49.49512" lon="1.17717">
        <ele>94</ele>
        <time>2022-03-27T09:09:08Z</time>
      </trkpt>
      <trkpt lat="49.49513" lon="1.17716">
        <ele>94.2</ele>
        <time>2022-03-27T09:09:09Z</time>
      </trkpt>
      <trkpt lat="49.49514" lon="1.17713">
        <ele>94.5</ele>
        <time>2022-03-27T09:09:11Z</time>
      </trkpt>
      <trkpt lat="49.49514" lon="1.17711">
        <ele>94.8</ele>
        <time>2022-03-27T09:09:12Z</time>
      </trkpt>
      <trkpt lat="49.49514" lon="1.17708">
        <ele>94.9</ele>
        <time>2022-03-27T09:09:13Z</time>
      </trkpt>
      <trkpt lat="49.49515" lon="1.17704">
        <ele>95</ele>
        <time>2022-03-27T09:09:15Z</time>
      </trkpt>
      <trkpt lat="49.49515" lon="1.17702">
        <ele>95.1</ele>
        <time>2022-03-27T09:09:16Z</time>
      </trkpt>
      <trkpt lat="49.49516" lon="1.177">
        <ele>95.1</ele>
        <time>2022-03-27T09:09:17Z</time>
      </trkpt>
      <trkpt lat="49.49516" lon="1.177">
        <ele>95.2</ele>
        <time>2022-03-27T09:09:19Z</time>
      </trkpt>
      <trkpt lat="49.49516" lon="1.17701">
        <ele>95.2</ele>
        <time>2022-03-27T09:09:20Z</time>
      </trkpt>
      <trkpt lat="49.49517" lon="1.17702">
        <ele>95.2</ele>
        <time>2022-03-27T09:09:22Z</time>
      </trkpt>
      <trkpt lat="49.49517" lon="1.17703">
        <ele>95.3</ele>
        <time>2022-03-27T09:09:24Z</time>
      </trkpt>
      <trkpt lat="49.49517" lon="1.17703">
        <ele>95.3</ele>
        <time>2022-03-27T09:09:25Z</time>
      </trkpt>
      <trkpt lat="49.49517" lon="1.17704">
        <ele>95.3</ele>
        <time>2022-03-27T09:09:26Z</time>
      </trkpt>
      <trkpt lat="49.49518" lon="1.17705">
        <ele>95.3</ele>
        <time>2022-03-27T09:09:27Z</time>
      </trkpt>
      <trkpt lat="49.49521" lon="1.17705">
        <ele>95.5</ele>
        <time>2022-03-27T09:09:29Z</time>
      </trkpt>
      <trkpt lat="49.49524" lon="1.17706">
        <ele>95.7</ele>
        <time>2022-03-27T09:09:30Z</time>
      </trkpt>
      <trkpt lat="49.49528" lon="1.17705">
        <ele>95.8</ele>
        <time>2022-03-27T09:09:31Z</time>
      </trkpt>
      <trkpt lat="49.49534" lon="1.17704">
        <ele>96.1</ele>
        <time>2022-03-27T09:09:32Z</time>
      </trkpt>
      <trkpt lat="49.49539" lon="1.17702">
        <ele>96.4</ele>
        <time>2022-03-27T09:09:34Z</time>
      </trkpt>
      <trkpt lat="49.49542" lon="1.177">
        <ele>96.8</ele>
        <time>2022-03-27T09:09:35Z</time>
      </trkpt>
      <trkpt lat="49.49547" lon="1.17695">
        <ele>97.4</ele>
        <time>2022-03-27T09:09:36Z</time>
      </trkpt>
      <trkpt lat="49.49549" lon="1.17691">
        <ele>97.7</ele>
        <time>2022-03-27T09:09:38Z</time>
      </trkpt>
      <trkpt lat="49.49551" lon="1.17688">
        <ele>98.1</ele>
        <time>2022-03-27T09:09:40Z</time>
      </trkpt>
      <trkpt lat="49.49553" lon="1.17682">
        <ele>98.6</ele>
        <time>2022-03-27T09:09:41Z</time>
      </trkpt>
      <trkpt lat="49.49553" lon="1.1768">
        <ele>98.9</ele>
        <time>2022-03-27T09:09:42Z</time>
      </trkpt>
      <trkpt lat="49.49554" lon="1.17675">
        <ele>99.4</ele>
        <time>2022-03-27T09:09:44Z</time>
      </trkpt>
      <trkpt lat="49.49555" lon="1.17671">
        <ele>99.8</ele>
        <time>2022-03-27T09:09:45Z</time>
      </trkpt>
      <trkpt lat="49.49555" lon="1.1767">
        <ele>100</ele>
        <time>2022-03-27T09:09:46Z</time>
      </trkpt>
      <trkpt lat="49.49553" lon="1.17664">
        <ele>100.7</ele>
        <time>2022-03-27T09:09:47Z</time>
      </trkpt>
      <trkpt lat="49.49552" lon="1.17661">
        <ele>101.1</ele>
        <time>2022-03-27T09:09:48Z</time>
      </trkpt>
      <trkpt lat="49.49551" lon="1.17657">
        <ele>101.7</ele>
        <time>2022-03-27T09:09:49Z</time>
      </trkpt>
      <trkpt lat="49.4955" lon="1.17654">
        <ele>102</ele>
        <time>2022-03-27T09:09:50Z</time>
      </trkpt>
      <trkpt lat="49.49551" lon="1.17653">
        <ele>102.2</ele>
        <time>2022-03-27T09:09:51Z</time>
      </trkpt>
      <trkpt lat="49.49551" lon="1.17651">
        <ele>102.5</ele>
        <time>2022-03-27T09:09:53Z</time>
      </trkpt>
      <trkpt lat="49.49551" lon="1.1765">
        <ele>102.6</ele>
        <time>2022-03-27T09:09:54Z</time>
      </trkpt>
      <trkpt lat="49.49551" lon="1.17647">
        <ele>102.9</ele>
        <time>2022-03-27T09:09:55Z</time>
      </trkpt>
      <trkpt lat="49.49551" lon="1.17646">
        <ele>103.1</ele>
        <time>2022-03-27T09:09:56Z</time>
      </trkpt>
      <trkpt lat="49.49551" lon="1.17643">
        <ele>103.5</ele>
        <time>2022-03-27T09:09:57Z</time>
      </trkpt>
      <trkpt lat="49.49551" lon="1.17641">
        <ele>103.7</ele>
        <time>2022-03-27T09:09:58Z</time>
      </trkpt>
      <trkpt lat="49.49551" lon="1.1764">
        <ele>104</ele>
        <time>2022-03-27T09:09:59Z</time>
      </trkpt>
      <trkpt lat="49.49552" lon="1.17636">
        <ele>104.5</ele>
        <time>2022-03-27T09:10:01Z</time>
      </trkpt>
      <trkpt lat="49.49553" lon="1.17634">
        <ele>104.8</ele>
        <time>2022-03-27T09:10:02Z</time>
      </trkpt>
      <trkpt lat="49.49555" lon="1.17632">
        <ele>105.2</ele>
        <time>2022-03-27T09:10:04Z</time>
      </trkpt>
      <trkpt lat="49.49557" lon="1.1763">
        <ele>105.7</ele>
        <time>2022-03-27T09:10:06Z</time>
      </trkpt>
      <trkpt lat="49.49558" lon="1.1763">
        <ele>105.9</ele>
        <time>2022-03-27T09:10:07Z</time>
      </trkpt>
      <trkpt lat="49.4956" lon="1.17627">
        <ele>106.4</ele>
        <time>2022-03-27T09:10:08Z</time>
      </trkpt>
      <trkpt lat="49.49562" lon="1.17624">
        <ele>106.9</ele>
        <time>2022-03-27T09:10:09Z</time>
      </trkpt>
      <trkpt lat="49.49563" lon="1.17623">
        <ele>107.2</ele>
        <time>2022-03-27T09:10:11Z</time>
      </trkpt>
      <trkpt lat="49.49564" lon="1.17621">
        <ele>107.5</ele>
        <time>2022-03-27T09:10:12Z</time>
      </trkpt>
      <trkpt lat="49.49567" lon="1.17618">
        <ele>108</ele>
        <time>2022-03-27T09:10:13Z</time>
      </trkpt>
      <trkpt lat="49.49569" lon="1.17617">
        <ele>108.4</ele>
        <time>2022-03-27T09:10:15Z</time>
      </trkpt>
      <trkpt lat="49.49571" lon="1.17615">
        <ele>108.8</ele>
        <time>2022-03-27T09:10:17Z</time>
      </trkpt>
      <trkpt lat="49.49572" lon="1.17614">
        <ele>109</ele>
        <time>2022-03-27T09:10:18Z</time>
      </trkpt>
      <trkpt lat="49.49573" lon="1.17612">
        <ele>109.3</ele>
        <time>2022-03-27T09:10:19Z</time>
      </trkpt>
      <trkpt lat="49.49575" lon="1.1761">
        <ele>109.7</ele>
        <time>2022-03-27T09:10:20Z</time>
      </trkpt>
      <trkpt lat="49.49576" lon="1.17607">
        <ele>110</ele>
        <time>2022-03-27T09:10:22Z</time>
      </trkpt>
      <trkpt lat="49.49578" lon="1.17605">
        <ele>110.4</ele>
        <time>2022-03-27T09:10:23Z</time>
      </trkpt>
      <trkpt lat="49.4958" lon="1.17603">
        <ele>110.7</ele>
        <time>2022-03-27T09:10:24Z</time>
      </trkpt>
      <trkpt lat="49.49581" lon="1.17601">
        <ele>110.9</ele>
        <time>2022-03-27T09:10:25Z</time>
      </trkpt>
      <trkpt lat="49.49583" lon="1.17599">
        <ele>111.3</ele>
        <time>2022-03-27T09:10:27Z</time>
      </trkpt>
      <trkpt lat="49.49586" lon="1.17599">
        <ele>111.7</ele>
        <time>2022-03-27T09:10:28Z</time>
      </trkpt>
      <trkpt lat="49.49587" lon="1.17598">
        <ele>111.9</ele>
        <time>2022-03-27T09:10:29Z</time>
      </trkpt>
      <trkpt lat="49.49588" lon="1.17598">
        <ele>112</ele>
        <time>2022-03-27T09:10:31Z</time>
      </trkpt>
      <trkpt lat="49.49588" lon="1.17598">
        <ele>112</ele>
        <time>2022-03-27T09:10:32Z</time>
      </trkpt>
      <trkpt lat="49.49588" lon="1.17598">
        <ele>112.1</ele>
        <time>2022-03-27T09:10:34Z</time>
      </trkpt>
      <trkpt lat="49.49589" lon="1.17596">
        <ele>112.3</ele>
        <time>2022-03-27T09:10:35Z</time>
      </trkpt>
      <trkpt lat="49.49591" lon="1.17594">
        <ele>112.6</ele>
        <time>2022-03-27T09:10:36Z</time>
      </trkpt>
      <trkpt lat="49.49593" lon="1.17591">
        <ele>112.9</ele>
        <time>2022-03-27T09:10:38Z</time>
      </trkpt>
      <trkpt lat="49.49596" lon="1.17587">
        <ele>113.5</ele>
        <time>2022-03-27T09:10:39Z</time>
      </trkpt>
      <trkpt lat="49.49598" lon="1.17585">
        <ele>113.7</ele>
        <time>2022-03-27T09:10:40Z</time>
      </trkpt>
      <trkpt lat="49.49601" lon="1.17582">
        <ele>114.2</ele>
        <time>2022-03-27T09:10:42Z</time>
      </trkpt>
      <trkpt lat="49.49602" lon="1.17582">
        <ele>114.3</ele>
        <time>2022-03-27T09:10:43Z</time>
      </trkpt>
      <trkpt lat="49.49605" lon="1.1758">
        <ele>114.7</ele>
        <time>2022-03-27T09:10:44Z</time>
      </trkpt>
      <trkpt lat="49.49606" lon="1.17579">
        <ele>114.8</ele>
        <time>2022-03-27T09:10:45Z</time>
      </trkpt>
      <trkpt lat="49.49608" lon="1.17577">
        <ele>115.1</ele>
        <time>2022-03-27T09:10:46Z</time>
      </trkpt>
      <trkpt lat="49.49609" lon="1.17575">
        <ele>115.3</ele>
        <time>2022-03-27T09:10:48Z</time>
      </trkpt>
      <trkpt lat="49.49612" lon="1.17572">
        <ele>115.7</ele>
        <time>2022-03-27T09:10:49Z</time>
      </trkpt>
      <trkpt lat="49.49615" lon="1.17568">
        <ele>116.3</ele>
        <time>2022-03-27T09:10:51Z</time>
      </trkpt>
      <trkpt lat="49.49617" lon="1.17567">
        <ele>116.5</ele>
        <time>2022-03-27T09:10:52Z</time>
      </trkpt>
      <trkpt lat="49.49618" lon="1.17566">
        <ele>116.6</ele>
        <time>2022-03-27T09:10:53Z</time>
      </trkpt>
      <trkpt lat="49.49621" lon="1.17563">
        <ele>117</ele>
        <time>2022-03-27T09:10:54Z</time>
      </trkpt>
      <trkpt lat="49.49622" lon="1.17562">
        <ele>117.1</ele>
        <time>2022-03-27T09:10:55Z</time>
      </trkpt>
      <trkpt lat="49.49624" lon="1.17561">
        <ele>117.3</ele>
        <time>2022-03-27T09:10:56Z</time>
      </trkpt>
      <trkpt lat="49.49625" lon="1.17559">
        <ele>117.5</ele>
        <time>2022-03-27T09:10:58Z</time>
      </trkpt>
      <trkpt lat="49.49627" lon="1.17558">
        <ele>117.6</ele>
        <time>2022-03-27T09:10:59Z</time>
      </trkpt>
      <trkpt lat="49.49628" lon="1.17556">
        <ele>117.8</ele>
        <time>2022-03-27T09:11:00Z</time>
      </trkpt>
      <trkpt lat="49.49629" lon="1.17555">
        <ele>117.9</ele>
        <time>2022-03-27T09:11:01Z</time>
      </trkpt>
      <trkpt lat="49.4963" lon="1.17554">
        <ele>118</ele>
        <time>2022-03-27T09:11:02Z</time>
      </trkpt>
      <trkpt lat="49.49631" lon="1.17554">
        <ele>118.1</ele>
        <time>2022-03-27T09:11:03Z</time>
      </trkpt>
      <trkpt lat="49.49631" lon="1.17554">
        <ele>118.1</ele>
        <time>2022-03-27T09:11:04Z</time>
      </trkpt>
      <trkpt lat="49.49632" lon="1.17553">
        <ele>118.2</ele>
        <time>2022-03-27T09:11:05Z</time>
      </trkpt>
      <trkpt lat="49.49633" lon="1.17553">
        <ele>118.2</ele>
        <time>2022-03-27T09:11:06Z</time>
      </trkpt>
      <trkpt lat="49.49633" lon="1.17553">
        <ele>118.3</ele>
        <time>2022-03-27T09:11:08Z</time>
      </trkpt>
      <trkpt lat="49.49634" lon="1.17552">
        <ele>118.4</ele>
        <time>2022-03-27T09:11:09Z</time>
      </trkpt>
      <trkpt lat="49.49634" lon="1.17552">
        <ele>118.4</ele>
        <time>2022-03-27T09:11:10Z</time>
      </trkpt>
      <trkpt lat="49.49635" lon="1.17551">
        <ele>118.5</ele>
        <time>2022-03-27T09:11:11Z</time>
      </trkpt>
      <trkpt lat="49.49636" lon="1.17551">
        <ele>118.5</ele>
        <time>2022-03-27T09:11:13Z</time>
      </trkpt>
      <trkpt lat="49.49636" lon="1.1755">
        <ele>118.6</ele>
        <time>2022-03-27T09:12:00Z</time>
      </trkpt>
      <trkpt lat="49.49637" lon="1.1755">
        <ele>118.6</ele>
        <time>2022-03-27T09:12:01Z</time>
      </trkpt>
      <trkpt lat="49.49637" lon="1.1755">
        <ele>118.7</ele>
        <time>2022-03-27T09:12:02Z</time>
      </trkpt>
      <trkpt lat="49.49639" lon="1.17545">
        <ele>119</ele>
        <time>2022-03-27T09:12:03Z</time>
      </trkpt>
      <trkpt lat="49.4964" lon="1.17539">
        <ele>119.3</ele>
        <time>2022-03-27T09:12:04Z</time>
      </trkpt>
      <trkpt lat="49.4964" lon="1.17536">
        <ele>119.5</ele>
        <time>2022-03-27T09:12:05Z</time>
      </trkpt>
      <trkpt lat="49.49642" lon="1.17532">
        <ele>119.8</ele>
        <time>2022-03-27T09:12:06Z</time>
      </trkpt>
      <trkpt lat="49.49643" lon="1.17531">
        <ele>119.8</ele>
        <time>2022-03-27T09:12:07Z</time>
      </trkpt>
      <trkpt lat="49.49644" lon="1.17528">
        <ele>120.1</ele>
        <time>2022-03-27T09:12:09Z</time>
      </trkpt>
      <trkpt lat="49.49646" lon="1.17526">
        <ele>120.3</ele>
        <time>2022-03-27T09:12:11Z</time>
      </trkpt>
      <trkpt lat="49.49649" lon="1.17522">
        <ele>120.6</ele>
        <time>2022-03-27T09:12:12Z</time>
      </trkpt>
      <trkpt lat="49.49651" lon="1.17519">
        <ele>121</ele>
        <time>2022-03-27T09:12:14Z</time>
      </trkpt>
      <trkpt lat="49.49655" lon="1.17514">
        <ele>121.5</ele>
        <time>2022-03-27T09:12:16Z</time>
      </trkpt>
      <trkpt lat="49.49658" lon="1.1751">
        <ele>122</ele>
        <time>2022-03-27T09:12:18Z</time>
      </trkpt>
      <trkpt lat="49.49662" lon="1.17507">
        <ele>122.5</ele>
        <time>2022-03-27T09:12:20Z</time>
      </trkpt>
      <trkpt lat="49.49662" lon="1.17507">
        <ele>122.6</ele>
        <time>2022-03-27T09:12:21Z</time>
      </trkpt>
      <trkpt lat="49.49663" lon="1.17507">
        <ele>122.7</ele>
        <time>2022-03-27T09:12:22Z</time>
      </trkpt>
      <trkpt lat="49.49664" lon="1.17506">
        <ele>122.8</ele>
        <time>2022-03-27T09:12:23Z</time>
      </trkpt>
      <trkpt lat="49.49665" lon="1.17506">
        <ele>122.9</ele>
        <time>2022-03-27T09:12:25Z</time>
      </trkpt>
      <trkpt lat="49.49665" lon="1.17505">
        <ele>123</ele>
        <time>2022-03-27T09:12:26Z</time>
      </trkpt>
      <trkpt lat="49.49666" lon="1.17505">
        <ele>123.1</ele>
        <time>2022-03-27T09:12:28Z</time>
      </trkpt>
      <trkpt lat="49.49667" lon="1.17504">
        <ele>123.2</ele>
        <time>2022-03-27T09:12:29Z</time>
      </trkpt>
      <trkpt lat="49.49668" lon="1.17504">
        <ele>123.3</ele>
        <time>2022-03-27T09:12:31Z</time>
      </trkpt>
      <trkpt lat="49.49669" lon="1.17504">
        <ele>123.4</ele>
        <time>2022-03-27T09:12:32Z</time>
      </trkpt>
      <trkpt lat="49.49669" lon="1.17503">
        <ele>123.5</ele>
        <time>2022-03-27T09:12:33Z</time>
      </trkpt>
      <trkpt lat="49.4967" lon="1.17503">
        <ele>123.6</ele>
        <time>2022-03-27T09:12:34Z</time>
      </trkpt>
      <trkpt lat="49.49674" lon="1.17501">
        <ele>124.1</ele>
        <time>2022-03-27T09:12:35Z</time>
      </trkpt>
      <trkpt lat="49.49677" lon="1.175">
        <ele>124.4</ele>
        <time>2022-03-27T09:12:36Z</time>
      </trkpt>
      <trkpt lat="49.4968" lon="1.17499">
        <ele>124.8</ele>
        <time>2022-03-27T09:12:38Z</time>
      </trkpt>
      <trkpt lat="49.49683" lon="1.17497">
        <ele>125.3</ele>
        <time>2022-03-27T09:12:39Z</time>
      </trkpt>
      <trkpt lat="49.49686" lon="1.17497">
        <ele>125.6</ele>
        <time>2022-03-27T09:12:40Z</time>
      </trkpt>
      <trkpt lat="49.49688" lon="1.17497">
        <ele>125.8</ele>
        <time>2022-03-27T09:12:41Z</time>
      </trkpt>
      <trkpt lat="49.4969" lon="1.17497">
        <ele>126.1</ele>
        <time>2022-03-27T09:12:43Z</time>
      </trkpt>
      <trkpt lat="49.49691" lon="1.17497">
        <ele>126.2</ele>
        <time>2022-03-27T09:12:44Z</time>
      </trkpt>
      <trkpt lat="49.49693" lon="1.17497">
        <ele>126.5</ele>
        <time>2022-03-27T09:12:45Z</time>
      </trkpt>
      <trkpt lat="49.49695" lon="1.17497">
        <ele>126.7</ele>
        <time>2022-03-27T09:12:46Z</time>
      </trkpt>
      <trkpt lat="49.49697" lon="1.17497">
        <ele>127</ele>
        <time>2022-03-27T09:12:48Z</time>
      </trkpt>
      <trkpt lat="49.497" lon="1.17496">
        <ele>127.4</ele>
        <time>2022-03-27T09:12:49Z</time>
      </trkpt>
      <trkpt lat="49.49701" lon="1.17495">
        <ele>127.6</ele>
        <time>2022-03-27T09:12:50Z</time>
      </trkpt>
      <trkpt lat="49.49705" lon="1.17494">
        <ele>128.1</ele>
        <time>2022-03-27T09:12:51Z</time>
      </trkpt>
      <trkpt lat="49.49706" lon="1.17494">
        <ele>128.2</ele>
        <time>2022-03-27T09:12:52Z</time>
      </trkpt>
      <trkpt lat="49.49712" lon="1.17495">
        <ele>128.9</ele>
        <time>2022-03-27T09:12:53Z</time>
      </trkpt>
      <trkpt lat="49.49714" lon="1.17495">
        <ele>129.2</ele>
        <time>2022-03-27T09:12:54Z</time>
      </trkpt>
      <trkpt lat="49.49716" lon="1.17494">
        <ele>129.5</ele>
        <time>2022-03-27T09:12:55Z</time>
      </trkpt>
      <trkpt lat="49.4972" lon="1.17494">
        <ele>130</ele>
        <time>2022-03-27T09:12:57Z</time>
      </trkpt>
      <trkpt lat="49.49721" lon="1.17493">
        <ele>130.2</ele>
        <time>2022-03-27T09:12:58Z</time>
      </trkpt>
      <trkpt lat="49.49724" lon="1.17492">
        <ele>130.6</ele>
        <time>2022-03-27T09:12:59Z</time>
      </trkpt>
      <trkpt lat="49.49725" lon="1.17491">
        <ele>130.7</ele>
        <time>2022-03-27T09:13:00Z</time>
      </trkpt>
      <trkpt lat="49.49728" lon="1.1749">
        <ele>131.1</ele>
        <time>2022-03-27T09:13:01Z</time>
      </trkpt>
      <trkpt lat="49.49729" lon="1.17489">
        <ele>131.2</ele>
        <time>2022-03-27T09:13:02Z</time>
      </trkpt>
      <trkpt lat="49.49732" lon="1.17486">
        <ele>131.6</ele>
        <time>2022-03-27T09:13:03Z</time>
      </trkpt>
      <trkpt lat="49.49733" lon="1.17485">
        <ele>131.9</ele>
        <time>2022-03-27T09:13:04Z</time>
      </trkpt>
      <trkpt lat="49.49736" lon="1.17482">
        <ele>132.3</ele>
        <time>2022-03-27T09:13:06Z</time>
      </trkpt>
      <trkpt lat="49.49739" lon="1.17479">
        <ele>132.7</ele>
        <time>2022-03-27T09:13:08Z</time>
      </trkpt>
      <trkpt lat="49.49739" lon="1.17479">
        <ele>132.8</ele>
        <time>2022-03-27T09:13:09Z</time>
      </trkpt>
      <trkpt lat="49.4974" lon="1.17477">
        <ele>133</ele>
        <time>2022-03-27T09:13:10Z</time>
      </trkpt>
      <trkpt lat="49.49741" lon="1.17476">
        <ele>133.2</ele>
        <time>2022-03-27T09:13:11Z</time>
      </trkpt>
      <trkpt lat="49.49742" lon="1.17475">
        <ele>133.4</ele>
        <time>2022-03-27T09:13:12Z</time>
      </trkpt>
      <trkpt lat="49.49744" lon="1.17473">
        <ele>133.6</ele>
        <time>2022-03-27T09:13:13Z</time>
      </trkpt>
      <trkpt lat="49.49745" lon="1.17472">
        <ele>133.8</ele>
        <time>2022-03-27T09:13:14Z</time>
      </trkpt>
      <trkpt lat="49.49746" lon="1.17471">
        <ele>134</ele>
        <time>2022-03-27T09:13:15Z</time>
      </trkpt>
      <trkpt lat="49.49749" lon="1.17468">
        <ele>134.4</ele>
        <time>2022-03-27T09:13:17Z</time>
      </trkpt>
      <trkpt lat="49.49749" lon="1.17467">
        <ele>134.5</ele>
        <time>2022-03-27T09:13:18Z</time>
      </trkpt>
      <trkpt lat="49.49752" lon="1.17465">
        <ele>134.9</ele>
        <time>2022-03-27T09:13:19Z</time>
      </trkpt>
      <trkpt lat="49.49753" lon="1.17465">
        <ele>135</ele>
        <time>2022-03-27T09:13:20Z</time>
      </trkpt>
      <trkpt lat="49.49756" lon="1.17463">
        <ele>135.5</ele>
        <time>2022-03-27T09:13:21Z</time>
      </trkpt>
      <trkpt lat="49.49757" lon="1.17462">
        <ele>135.7</ele>
        <time>2022-03-27T09:13:22Z</time>
      </trkpt>
      <trkpt lat="49.49759" lon="1.17462">
        <ele>135.9</ele>
        <time>2022-03-27T09:13:23Z</time>
      </trkpt>
      <trkpt lat="49.4976" lon="1.17461">
        <ele>136.1</ele>
        <time>2022-03-27T09:13:24Z</time>
      </trkpt>
      <trkpt lat="49.49763" lon="1.1746">
        <ele>136.5</ele>
        <time>2022-03-27T09:13:26Z</time>
      </trkpt>
      <trkpt lat="49.49764" lon="1.17459">
        <ele>136.6</ele>
        <time>2022-03-27T09:13:27Z</time>
      </trkpt>
      <trkpt lat="49.49768" lon="1.17457">
        <ele>137.2</ele>
        <time>2022-03-27T09:13:29Z</time>
      </trkpt>
      <trkpt lat="49.4977" lon="1.17456">
        <ele>137.4</ele>
        <time>2022-03-27T09:13:30Z</time>
      </trkpt>
      <trkpt lat="49.49771" lon="1.17455">
        <ele>137.6</ele>
        <time>2022-03-27T09:13:31Z</time>
      </trkpt>
      <trkpt lat="49.49772" lon="1.17454">
        <ele>137.8</ele>
        <time>2022-03-27T09:13:32Z</time>
      </trkpt>
      <trkpt lat="49.49774" lon="1.17453">
        <ele>138</ele>
        <time>2022-03-27T09:13:33Z</time>
      </trkpt>
      <trkpt lat="49.49775" lon="1.17453">
        <ele>138.2</ele>
        <time>2022-03-27T09:13:34Z</time>
      </trkpt>
      <trkpt lat="49.49776" lon="1.17454">
        <ele>138.3</ele>
        <time>2022-03-27T09:13:36Z</time>
      </trkpt>
      <trkpt lat="49.49776" lon="1.17454">
        <ele>138.4</ele>
        <time>2022-03-27T09:13:38Z</time>
      </trkpt>
      <trkpt lat="49.49777" lon="1.17453">
        <ele>138.5</ele>
        <time>2022-03-27T09:13:40Z</time>
      </trkpt>
      <trkpt lat="49.49779" lon="1.17452">
        <ele>138.8</ele>
        <time>2022-03-27T09:13:41Z</time>
      </trkpt>
      <trkpt lat="49.4978" lon="1.17451">
        <ele>139</ele>
        <time>2022-03-27T09:13:42Z</time>
      </trkpt>
      <trkpt lat="49.49781" lon="1.1745">
        <ele>139.2</ele>
        <time>2022-03-27T09:13:44Z</time>
      </trkpt>
      <trkpt lat="49.49783" lon="1.17448">
        <ele>139.5</ele>
        <time>2022-03-27T09:13:45Z</time>
      </trkpt>
      <trkpt lat="49.49787" lon="1.17445">
        <ele>140.1</ele>
        <time>2022-03-27T09:13:47Z</time>
      </trkpt>
      <trkpt lat="49.49788" lon="1.17443">
        <ele>140.3</ele>
        <time>2022-03-27T09:13:48Z</time>
      </trkpt>
      <trkpt lat="49.4979" lon="1.17441">
        <ele>140.6</ele>
        <time>2022-03-27T09:13:50Z</time>
      </trkpt>
      <trkpt lat="49.49791" lon="1.17439">
        <ele>140.8</ele>
        <time>2022-03-27T09:13:51Z</time>
      </trkpt>
      <trkpt lat="49.49792" lon="1.17438">
        <ele>141.1</ele>
        <time>2022-03-27T09:13:52Z</time>
      </trkpt>
      <trkpt lat="49.49795" lon="1.17435">
        <ele>141.5</ele>
        <time>2022-03-27T09:13:53Z</time>
      </trkpt>
      <trkpt lat="49.49795" lon="1.17434">
        <ele>141.6</ele>
        <time>2022-03-27T09:13:54Z</time>
      </trkpt>
      <trkpt lat="49.49797" lon="1.17432">
        <ele>141.8</ele>
        <time>2022-03-27T09:13:55Z</time>
      </trkpt>
      <trkpt lat="49.49799" lon="1.17429">
        <ele>142.2</ele>
        <time>2022-03-27T09:13:57Z</time>
      </trkpt>
      <trkpt lat="49.49801" lon="1.17425">
        <ele>142.5</ele>
        <time>2022-03-27T09:13:59Z</time>
      </trkpt>
      <trkpt lat="49.49803" lon="1.17422">
        <ele>142.8</ele>
        <time>2022-03-27T09:14:00Z</time>
      </trkpt>
      <trkpt lat="49.49806" lon="1.17419">
        <ele>143.2</ele>
        <time>2022-03-27T09:14:02Z</time>
      </trkpt>
      <trkpt lat="49.4981" lon="1.17416">
        <ele>143.5</ele>
        <time>2022-03-27T09:14:04Z</time>
      </trkpt>
      <trkpt lat="49.49811" lon="1.17415">
        <ele>143.6</ele>
        <time>2022-03-27T09:14:05Z</time>
      </trkpt>
      <trkpt lat="49.49812" lon="1.17414">
        <ele>143.8</ele>
        <time>2022-03-27T09:14:07Z</time>
      </trkpt>
      <trkpt lat="49.49813" lon="1.17412">
        <ele>143.9</ele>
        <time>2022-03-27T09:14:08Z</time>
      </trkpt>
      <trkpt lat="49.49815" lon="1.17411">
        <ele>144.1</ele>
        <time>2022-03-27T09:14:09Z</time>
      </trkpt>
      <trkpt lat="49.49817" lon="1.17407">
        <ele>144.4</ele>
        <time>2022-03-27T09:14:10Z</time>
      </trkpt>
      <trkpt lat="49.49821" lon="1.17405">
        <ele>144.7</ele>
        <time>2022-03-27T09:14:12Z</time>
      </trkpt>
      <trkpt lat="49.49823" lon="1.17402">
        <ele>145.1</ele>
        <time>2022-03-27T09:14:14Z</time>
      </trkpt>
      <trkpt lat="49.49827" lon="1.17399">
        <ele>145.3</ele>
        <time>2022-03-27T09:14:15Z</time>
      </trkpt>
      <trkpt lat="49.49829" lon="1.17394">
        <ele>145.4</ele>
        <time>2022-03-27T09:14:17Z</time>
      </trkpt>
      <trkpt lat="49.49831" lon="1.1739">
        <ele>145.5</ele>
        <time>2022-03-27T09:14:19Z</time>
      </trkpt>
      <trkpt lat="49.49833" lon="1.17386">
        <ele>145.6</ele>
        <time>2022-03-27T09:14:20Z</time>
      </trkpt>
      <trkpt lat="49.49834" lon="1.17381">
        <ele>145.8</ele>
        <time>2022-03-27T09:14:22Z</time>
      </trkpt>
      <trkpt lat="49.49835" lon="1.1738">
        <ele>145.8</ele>
        <time>2022-03-27T09:14:23Z</time>
      </trkpt>
      <trkpt lat="49.49837" lon="1.17374">
        <ele>145.9</ele>
        <time>2022-03-27T09:14:24Z</time>
      </trkpt>
      <trkpt lat="49.49838" lon="1.17368">
        <ele>146.1</ele>
        <time>2022-03-27T09:14:25Z</time>
      </trkpt>
      <trkpt lat="49.49839" lon="1.17364">
        <ele>146.2</ele>
        <time>2022-03-27T09:14:27Z</time>
      </trkpt>
      <trkpt lat="49.49841" lon="1.1736">
        <ele>146.3</ele>
        <time>2022-03-27T09:14:28Z</time>
      </trkpt>
      <trkpt lat="49.49843" lon="1.17352">
        <ele>146.5</ele>
        <time>2022-03-27T09:14:29Z</time>
      </trkpt>
      <trkpt lat="49.49844" lon="1.17345">
        <ele>146.7</ele>
        <time>2022-03-27T09:14:31Z</time>
      </trkpt>
      <trkpt lat="49.49846" lon="1.1734">
        <ele>146.8</ele>
        <time>2022-03-27T09:14:33Z</time>
      </trkpt>
      <trkpt lat="49.49848" lon="1.17333">
        <ele>147</ele>
        <time>2022-03-27T09:14:34Z</time>
      </trkpt>
      <trkpt lat="49.4985" lon="1.17328">
        <ele>147.1</ele>
        <time>2022-03-27T09:14:36Z</time>
      </trkpt>
      <trkpt lat="49.49851" lon="1.17324">
        <ele>147.3</ele>
        <time>2022-03-27T09:14:37Z</time>
      </trkpt>
      <trkpt lat="49.49852" lon="1.17317">
        <ele>147.4</ele>
        <time>2022-03-27T09:14:38Z</time>
      </trkpt>
      <trkpt lat="49.49854" lon="1.17312">
        <ele>147.6</ele>
        <time>2022-03-27T09:14:40Z</time>
      </trkpt>
      <trkpt lat="49.49855" lon="1.17308">
        <ele>147.7</ele>
        <time>2022-03-27T09:14:41Z</time>
      </trkpt>
      <trkpt lat="49.49856" lon="1.17304">
        <ele>147.8</ele>
        <time>2022-03-27T09:14:42Z</time>
      </trkpt>
      <trkpt lat="49.49858" lon="1.17299">
        <ele>148</ele>
        <time>2022-03-27T09:14:43Z</time>
      </trkpt>
      <trkpt lat="49.4986" lon="1.17294">
        <ele>148.1</ele>
        <time>2022-03-27T09:14:44Z</time>
      </trkpt>
      <trkpt lat="49.49862" lon="1.17291">
        <ele>148.2</ele>
        <time>2022-03-27T09:14:45Z</time>
      </trkpt>
      <trkpt lat="49.49864" lon="1.17287">
        <ele>148.3</ele>
        <time>2022-03-27T09:14:47Z</time>
      </trkpt>
      <trkpt lat="49.49865" lon="1.17283">
        <ele>148.5</ele>
        <time>2022-03-27T09:14:48Z</time>
      </trkpt>
      <trkpt lat="49.49867" lon="1.17278">
        <ele>148.6</ele>
        <time>2022-03-27T09:14:49Z</time>
      </trkpt>
      <trkpt lat="49.49868" lon="1.17276">
        <ele>148.7</ele>
        <time>2022-03-27T09:14:50Z</time>
      </trkpt>
      <trkpt lat="49.49869" lon="1.17272">
        <ele>148.8</ele>
        <time>2022-03-27T09:14:51Z</time>
      </trkpt>
      <trkpt lat="49.49871" lon="1.17267">
        <ele>148.9</ele>
        <time>2022-03-27T09:14:52Z</time>
      </trkpt>
      <trkpt lat="49.49872" lon="1.17265">
        <ele>149</ele>
        <time>2022-03-27T09:14:53Z</time>
      </trkpt>
      <trkpt lat="49.49874" lon="1.17261">
        <ele>149.1</ele>
        <time>2022-03-27T09:14:54Z</time>
      </trkpt>
      <trkpt lat="49.49876" lon="1.17258">
        <ele>149.2</ele>
        <time>2022-03-27T09:14:55Z</time>
      </trkpt>
      <trkpt lat="49.49878" lon="1.17254">
        <ele>149.3</ele>
        <time>2022-03-27T09:14:56Z</time>
      </trkpt>
      <trkpt lat="49.4988" lon="1.17249">
        <ele>149.4</ele>
        <time>2022-03-27T09:14:57Z</time>
      </trkpt>
      <trkpt lat="49.49881" lon="1.17245">
        <ele>149.5</ele>
        <time>2022-03-27T09:14:58Z</time>
      </trkpt>
      <trkpt lat="49.49887" lon="1.17235">
        <ele>149.9</ele>
        <time>2022-03-27T09:14:59Z</time>
      </trkpt>
      <trkpt lat="49.49893" lon="1.17227">
        <ele>150.2</ele>
        <time>2022-03-27T09:15:00Z</time>
      </trkpt>
      <trkpt lat="49.49897" lon="1.17219">
        <ele>150.4</ele>
        <time>2022-03-27T09:15:01Z</time>
      </trkpt>
      <trkpt lat="49.49901" lon="1.17212">
        <ele>150.6</ele>
        <time>2022-03-27T09:15:02Z</time>
      </trkpt>
      <trkpt lat="49.49903" lon="1.17202">
        <ele>150.9</ele>
        <time>2022-03-27T09:15:04Z</time>
      </trkpt>
      <trkpt lat="49.49905" lon="1.17193">
        <ele>151.2</ele>
        <time>2022-03-27T09:15:06Z</time>
      </trkpt>
      <trkpt lat="49.49908" lon="1.17182">
        <ele>151.5</ele>
        <time>2022-03-27T09:15:07Z</time>
      </trkpt>
      <trkpt lat="49.49909" lon="1.17177">
        <ele>151.6</ele>
        <time>2022-03-27T09:15:08Z</time>
      </trkpt>
      <trkpt lat="49.49911" lon="1.17167">
        <ele>151.9</ele>
        <time>2022-03-27T09:15:10Z</time>
      </trkpt>
      <trkpt lat="49.49912" lon="1.17162">
        <ele>152</ele>
        <time>2022-03-27T09:15:11Z</time>
      </trkpt>
      <trkpt lat="49.49913" lon="1.17157">
        <ele>152.1</ele>
        <time>2022-03-27T09:15:13Z</time>
      </trkpt>
      <trkpt lat="49.49913" lon="1.17153">
        <ele>152.2</ele>
        <time>2022-03-27T09:15:14Z</time>
      </trkpt>
      <trkpt lat="49.49914" lon="1.17147">
        <ele>152.3</ele>
        <time>2022-03-27T09:15:15Z</time>
      </trkpt>
      <trkpt lat="49.49914" lon="1.17141">
        <ele>152.4</ele>
        <time>2022-03-27T09:15:16Z</time>
      </trkpt>
      <trkpt lat="49.49916" lon="1.17134">
        <ele>152.6</ele>
        <time>2022-03-27T09:15:18Z</time>
      </trkpt>
      <trkpt lat="49.49917" lon="1.17129">
        <ele>152.7</ele>
        <time>2022-03-27T09:15:19Z</time>
      </trkpt>
      <trkpt lat="49.49917" lon="1.17127">
        <ele>152.7</ele>
        <time>2022-03-27T09:15:20Z</time>
      </trkpt>
      <trkpt lat="49.49919" lon="1.17119">
        <ele>152.9</ele>
        <time>2022-03-27T09:15:22Z</time>
      </trkpt>
      <trkpt lat="49.4992" lon="1.17114">
        <ele>153</ele>
        <time>2022-03-27T09:15:24Z</time>
      </trkpt>
      <trkpt lat="49.4992" lon="1.17112">
        <ele>153.1</ele>
        <time>2022-03-27T09:15:25Z</time>
      </trkpt>
      <trkpt lat="49.4992" lon="1.17106">
        <ele>153.2</ele>
        <time>2022-03-27T09:15:26Z</time>
      </trkpt>
      <trkpt lat="49.4992" lon="1.17104">
        <ele>153.2</ele>
        <time>2022-03-27T09:15:27Z</time>
      </trkpt>
      <trkpt lat="49.4992" lon="1.17099">
        <ele>153.3</ele>
        <time>2022-03-27T09:15:28Z</time>
      </trkpt>
      <trkpt lat="49.4992" lon="1.17097">
        <ele>153.4</ele>
        <time>2022-03-27T09:15:29Z</time>
      </trkpt>
      <trkpt lat="49.49921" lon="1.17092">
        <ele>153.5</ele>
        <time>2022-03-27T09:15:30Z</time>
      </trkpt>
      <trkpt lat="49.49921" lon="1.1709">
        <ele>153.5</ele>
        <time>2022-03-27T09:15:31Z</time>
      </trkpt>
      <trkpt lat="49.49923" lon="1.17085">
        <ele>153.5</ele>
        <time>2022-03-27T09:15:32Z</time>
      </trkpt>
      <trkpt lat="49.49924" lon="1.17083">
        <ele>153.6</ele>
        <time>2022-03-27T09:15:33Z</time>
      </trkpt>
      <trkpt lat="49.49926" lon="1.17082">
        <ele>153.6</ele>
        <time>2022-03-27T09:15:34Z</time>
      </trkpt>
      <trkpt lat="49.49931" lon="1.17082">
        <ele>154</ele>
        <time>2022-03-27T09:15:35Z</time>
      </trkpt>
      <trkpt lat="49.49934" lon="1.17084">
        <ele>154.1</ele>
        <time>2022-03-27T09:15:37Z</time>
      </trkpt>
      <trkpt lat="49.49936" lon="1.17085">
        <ele>154.1</ele>
        <time>2022-03-27T09:15:38Z</time>
      </trkpt>
      <trkpt lat="49.49938" lon="1.17087">
        <ele>154.2</ele>
        <time>2022-03-27T09:15:39Z</time>
      </trkpt>
      <trkpt lat="49.49939" lon="1.17088">
        <ele>154.2</ele>
        <time>2022-03-27T09:15:41Z</time>
      </trkpt>
      <trkpt lat="49.4994" lon="1.17089">
        <ele>154.3</ele>
        <time>2022-03-27T09:15:42Z</time>
      </trkpt>
      <trkpt lat="49.49941" lon="1.17089">
        <ele>154.3</ele>
        <time>2022-03-27T09:15:44Z</time>
      </trkpt>
      <trkpt lat="49.49941" lon="1.17089">
        <ele>154.3</ele>
        <time>2022-03-27T09:15:45Z</time>
      </trkpt>
      <trkpt lat="49.49942" lon="1.17089">
        <ele>154.3</ele>
        <time>2022-03-27T09:15:46Z</time>
      </trkpt>
      <trkpt lat="49.49943" lon="1.17089">
        <ele>154.4</ele>
        <time>2022-03-27T09:15:47Z</time>
      </trkpt>
      <trkpt lat="49.49944" lon="1.17089">
        <ele>154.4</ele>
        <time>2022-03-27T09:15:48Z</time>
      </trkpt>
      <trkpt lat="49.49945" lon="1.17089">
        <ele>154.4</ele>
        <time>2022-03-27T09:15:49Z</time>
      </trkpt>
      <trkpt lat="49.49946" lon="1.17089">
        <ele>154.4</ele>
        <time>2022-03-27T09:15:50Z</time>
      </trkpt>
      <trkpt lat="49.49946" lon="1.1709">
        <ele>154.5</ele>
        <time>2022-03-27T09:15:51Z</time>
      </trkpt>
      <trkpt lat="49.49947" lon="1.1709">
        <ele>154.5</ele>
        <time>2022-03-27T09:16:47Z</time>
      </trkpt>
      <trkpt lat="49.49948" lon="1.1709">
        <ele>154.5</ele>
        <time>2022-03-27T09:16:48Z</time>
      </trkpt>
      <trkpt lat="49.49949" lon="1.1709">
        <ele>154.5</ele>
        <time>2022-03-27T09:16:49Z</time>
      </trkpt>
      <trkpt lat="49.4995" lon="1.1709">
        <ele>154.6</ele>
        <time>2022-03-27T09:16:50Z</time>
      </trkpt>
      <trkpt lat="49.49955" lon="1.17094">
        <ele>154.8</ele>
        <time>2022-03-27T09:16:52Z</time>
      </trkpt>
      <trkpt lat="49.49959" lon="1.17098">
        <ele>155</ele>
        <time>2022-03-27T09:16:54Z</time>
      </trkpt>
      <trkpt lat="49.49963" lon="1.17103">
        <ele>155.2</ele>
        <time>2022-03-27T09:16:56Z</time>
      </trkpt>
      <trkpt lat="49.49965" lon="1.17106">
        <ele>155.3</ele>
        <time>2022-03-27T09:16:57Z</time>
      </trkpt>
      <trkpt lat="49.49968" lon="1.17109">
        <ele>155.4</ele>
        <time>2022-03-27T09:16:58Z</time>
      </trkpt>
      <trkpt lat="49.49972" lon="1.17114">
        <ele>155.6</ele>
        <time>2022-03-27T09:17:00Z</time>
      </trkpt>
      <trkpt lat="49.49975" lon="1.1712">
        <ele>155.8</ele>
        <time>2022-03-27T09:17:01Z</time>
      </trkpt>
      <trkpt lat="49.49978" lon="1.17124">
        <ele>156</ele>
        <time>2022-03-27T09:17:02Z</time>
      </trkpt>
      <trkpt lat="49.49982" lon="1.17129">
        <ele>156.2</ele>
        <time>2022-03-27T09:17:03Z</time>
      </trkpt>
      <trkpt lat="49.49985" lon="1.17134">
        <ele>156.3</ele>
        <time>2022-03-27T09:17:05Z</time>
      </trkpt>
      <trkpt lat="49.49986" lon="1.17139">
        <ele>156.4</ele>
        <time>2022-03-27T09:17:06Z</time>
      </trkpt>
      <trkpt lat="49.49989" lon="1.17141">
        <ele>156.5</ele>
        <time>2022-03-27T09:17:07Z</time>
      </trkpt>
      <trkpt lat="49.49993" lon="1.1714">
        <ele>156.7</ele>
        <time>2022-03-27T09:17:08Z</time>
      </trkpt>
      <trkpt lat="49.49996" lon="1.17138">
        <ele>156.8</ele>
        <time>2022-03-27T09:17:09Z</time>
      </trkpt>
      <trkpt lat="49.49999" lon="1.17137">
        <ele>156.9</ele>
        <time>2022-03-27T09:17:10Z</time>
      </trkpt>
      <trkpt lat="49.50002" lon="1.17135">
        <ele>156.9</ele>
        <time>2022-03-27T09:17:11Z</time>
      </trkpt>
      <trkpt lat="49.50005" lon="1.17133">
        <ele>157.1</ele>
        <time>2022-03-27T09:17:13Z</time>
      </trkpt>
      <trkpt lat="49.50009" lon="1.17131">
        <ele>157.2</ele>
        <time>2022-03-27T09:17:14Z</time>
      </trkpt>
      <trkpt lat="49.50013" lon="1.17128">
        <ele>157.3</ele>
        <time>2022-03-27T09:17:15Z</time>
      </trkpt>
      <trkpt lat="49.50017" lon="1.17126">
        <ele>157.4</ele>
        <time>2022-03-27T09:17:17Z</time>
      </trkpt>
      <trkpt lat="49.50021" lon="1.17124">
        <ele>157.5</ele>
        <time>2022-03-27T09:17:18Z</time>
      </trkpt>
      <trkpt lat="49.50026" lon="1.17122">
        <ele>157.6</ele>
        <time>2022-03-27T09:17:20Z</time>
      </trkpt>
      <trkpt lat="49.5003" lon="1.1712">
        <ele>157.7</ele>
        <time>2022-03-27T09:17:21Z</time>
      </trkpt>
      <trkpt lat="49.50034" lon="1.17119">
        <ele>157.7</ele>
        <time>2022-03-27T09:17:22Z</time>
      </trkpt>
      <trkpt lat="49.50038" lon="1.17118">
        <ele>157.8</ele>
        <time>2022-03-27T09:17:23Z</time>
      </trkpt>
      <trkpt lat="49.50041" lon="1.17116">
        <ele>157.8</ele>
        <time>2022-03-27T09:17:25Z</time>
      </trkpt>
      <trkpt lat="49.50044" lon="1.17115">
        <ele>157.9</ele>
        <time>2022-03-27T09:17:26Z</time>
      </trkpt>
      <trkpt lat="49.50048" lon="1.17113">
        <ele>157.9</ele>
        <time>2022-03-27T09:17:27Z</time>
      </trkpt>
      <trkpt lat="49.50055" lon="1.1711">
        <ele>157.9</ele>
        <time>2022-03-27T09:17:28Z</time>
      </trkpt>
      <trkpt lat="49.50059" lon="1.17108">
        <ele>157.9</ele>
        <time>2022-03-27T09:17:29Z</time>
      </trkpt>
      <trkpt lat="49.50061" lon="1.17108">
        <ele>157.9</ele>
        <time>2022-03-27T09:17:30Z</time>
      </trkpt>
      <trkpt lat="49.50061" lon="1.17108">
        <ele>157.9</ele>
        <time>2022-03-27T09:17:32Z</time>
      </trkpt>
      <trkpt lat="49.50062" lon="1.17107">
        <ele>157.9</ele>
        <time>2022-03-27T09:17:33Z</time>
      </trkpt>
      <trkpt lat="49.50066" lon="1.17106">
        <ele>157.9</ele>
        <time>2022-03-27T09:17:35Z</time>
      </trkpt>
      <trkpt lat="49.50071" lon="1.17104">
        <ele>157.8</ele>
        <time>2022-03-27T09:17:36Z</time>
      </trkpt>
      <trkpt lat="49.50076" lon="1.17102">
        <ele>157.8</ele>
        <time>2022-03-27T09:17:38Z</time>
      </trkpt>
      <trkpt lat="49.5008" lon="1.17101">
        <ele>157.7</ele>
        <time>2022-03-27T09:17:39Z</time>
      </trkpt>
      <trkpt lat="49.50085" lon="1.17099">
        <ele>157.6</ele>
        <time>2022-03-27T09:17:40Z</time>
      </trkpt>
      <trkpt lat="49.5009" lon="1.17097">
        <ele>157.5</ele>
        <time>2022-03-27T09:17:41Z</time>
      </trkpt>
      <trkpt lat="49.50094" lon="1.17098">
        <ele>157.4</ele>
        <time>2022-03-27T09:17:42Z</time>
      </trkpt>
      <trkpt lat="49.501" lon="1.17097">
        <ele>157.3</ele>
        <time>2022-03-27T09:17:43Z</time>
      </trkpt>
      <trkpt lat="49.50107" lon="1.17094">
        <ele>157.1</ele>
        <time>2022-03-27T09:17:45Z</time>
      </trkpt>
      <trkpt lat="49.50113" lon="1.17092">
        <ele>156.9</ele>
        <time>2022-03-27T09:17:46Z</time>
      </trkpt>
      <trkpt lat="49.50119" lon="1.17091">
        <ele>156.8</ele>
        <time>2022-03-27T09:17:47Z</time>
      </trkpt>
      <trkpt lat="49.50126" lon="1.17091">
        <ele>156.6</ele>
        <time>2022-03-27T09:17:48Z</time>
      </trkpt>
      <trkpt lat="49.50131" lon="1.17091">
        <ele>156.5</ele>
        <time>2022-03-27T09:17:49Z</time>
      </trkpt>
      <trkpt lat="49.50136" lon="1.1709">
        <ele>156.5</ele>
        <time>2022-03-27T09:17:51Z</time>
      </trkpt>
      <trkpt lat="49.5014" lon="1.17091">
        <ele>156.4</ele>
        <time>2022-03-27T09:17:52Z</time>
      </trkpt>
      <trkpt lat="49.50144" lon="1.17091">
        <ele>156.4</ele>
        <time>2022-03-27T09:17:53Z</time>
      </trkpt>
      <trkpt lat="49.50149" lon="1.17091">
        <ele>156.3</ele>
        <time>2022-03-27T09:17:54Z</time>
      </trkpt>
      <trkpt lat="49.50154" lon="1.17092">
        <ele>156.3</ele>
        <time>2022-03-27T09:17:55Z</time>
      </trkpt>
      <trkpt lat="49.50158" lon="1.17093">
        <ele>156.3</ele>
        <time>2022-03-27T09:17:56Z</time>
      </trkpt>
      <trkpt lat="49.50161" lon="1.17094">
        <ele>156.2</ele>
        <time>2022-03-27T09:17:58Z</time>
      </trkpt>
      <trkpt lat="49.50164" lon="1.17097">
        <ele>156.2</ele>
        <time>2022-03-27T09:17:59Z</time>
      </trkpt>
      <trkpt lat="49.50167" lon="1.17099">
        <ele>156.2</ele>
        <time>2022-03-27T09:18:00Z</time>
      </trkpt>
      <trkpt lat="49.5017" lon="1.17102">
        <ele>156.2</ele>
        <time>2022-03-27T09:18:01Z</time>
      </trkpt>
      <trkpt lat="49.50174" lon="1.17105">
        <ele>156.3</ele>
        <time>2022-03-27T09:18:02Z</time>
      </trkpt>
      <trkpt lat="49.50178" lon="1.17109">
        <ele>156.3</ele>
        <time>2022-03-27T09:18:04Z</time>
      </trkpt>
      <trkpt lat="49.50182" lon="1.17111">
        <ele>156.3</ele>
        <time>2022-03-27T09:18:06Z</time>
      </trkpt>
      <trkpt lat="49.50185" lon="1.17113">
        <ele>156.4</ele>
        <time>2022-03-27T09:18:07Z</time>
      </trkpt>
      <trkpt lat="49.50189" lon="1.17116">
        <ele>156.4</ele>
        <time>2022-03-27T09:18:08Z</time>
      </trkpt>
      <trkpt lat="49.50192" lon="1.17118">
        <ele>156.5</ele>
        <time>2022-03-27T09:18:09Z</time>
      </trkpt>
      <trkpt lat="49.50195" lon="1.17119">
        <ele>156.5</ele>
        <time>2022-03-27T09:18:10Z</time>
      </trkpt>
      <trkpt lat="49.50197" lon="1.17119">
        <ele>156.6</ele>
        <time>2022-03-27T09:18:12Z</time>
      </trkpt>
      <trkpt lat="49.50199" lon="1.17125">
        <ele>156.7</ele>
        <time>2022-03-27T09:18:13Z</time>
      </trkpt>
      <trkpt lat="49.502" lon="1.17127">
        <ele>156.7</ele>
        <time>2022-03-27T09:18:14Z</time>
      </trkpt>
      <trkpt lat="49.50203" lon="1.1713">
        <ele>156.7</ele>
        <time>2022-03-27T09:18:15Z</time>
      </trkpt>
      <trkpt lat="49.50206" lon="1.17133">
        <ele>156.8</ele>
        <time>2022-03-27T09:18:16Z</time>
      </trkpt>
      <trkpt lat="49.50209" lon="1.17136">
        <ele>156.9</ele>
        <time>2022-03-27T09:18:17Z</time>
      </trkpt>
      <trkpt lat="49.50213" lon="1.17139">
        <ele>156.9</ele>
        <time>2022-03-27T09:18:18Z</time>
      </trkpt>
      <trkpt lat="49.50217" lon="1.17142">
        <ele>157</ele>
        <time>2022-03-27T09:18:19Z</time>
      </trkpt>
      <trkpt lat="49.50224" lon="1.17147">
        <ele>157</ele>
        <time>2022-03-27T09:18:21Z</time>
      </trkpt>
      <trkpt lat="49.50227" lon="1.1715">
        <ele>157.1</ele>
        <time>2022-03-27T09:18:22Z</time>
      </trkpt>
      <trkpt lat="49.50231" lon="1.17153">
        <ele>157.1</ele>
        <time>2022-03-27T09:18:24Z</time>
      </trkpt>
      <trkpt lat="49.50232" lon="1.17154">
        <ele>157.1</ele>
        <time>2022-03-27T09:18:25Z</time>
      </trkpt>
      <trkpt lat="49.50233" lon="1.17154">
        <ele>157.1</ele>
        <time>2022-03-27T09:18:26Z</time>
      </trkpt>
      <trkpt lat="49.50234" lon="1.17155">
        <ele>157.1</ele>
        <time>2022-03-27T09:18:27Z</time>
      </trkpt>
      <trkpt lat="49.50235" lon="1.17156">
        <ele>157.1</ele>
        <time>2022-03-27T09:18:29Z</time>
      </trkpt>
      <trkpt lat="49.50237" lon="1.17157">
        <ele>157.1</ele>
        <time>2022-03-27T09:18:30Z</time>
      </trkpt>
      <trkpt lat="49.50242" lon="1.17162">
        <ele>157.1</ele>
        <time>2022-03-27T09:18:31Z</time>
      </trkpt>
      <trkpt lat="49.50249" lon="1.17169">
        <ele>157.2</ele>
        <time>2022-03-27T09:18:32Z</time>
      </trkpt>
      <trkpt lat="49.50255" lon="1.17174">
        <ele>157.2</ele>
        <time>2022-03-27T09:18:33Z</time>
      </trkpt>
      <trkpt lat="49.5026" lon="1.1718">
        <ele>157.3</ele>
        <time>2022-03-27T09:18:34Z</time>
      </trkpt>
      <trkpt lat="49.50263" lon="1.17183">
        <ele>157.3</ele>
        <time>2022-03-27T09:18:35Z</time>
      </trkpt>
      <trkpt lat="49.50267" lon="1.17186">
        <ele>157.4</ele>
        <time>2022-03-27T09:18:37Z</time>
      </trkpt>
      <trkpt lat="49.50271" lon="1.1719">
        <ele>157.4</ele>
        <time>2022-03-27T09:18:38Z</time>
      </trkpt>
      <trkpt lat="49.50274" lon="1.17192">
        <ele>157.4</ele>
        <time>2022-03-27T09:18:39Z</time>
      </trkpt>
      <trkpt lat="49.50277" lon="1.17195">
        <ele>157.5</ele>
        <time>2022-03-27T09:18:40Z</time>
      </trkpt>
      <trkpt lat="49.50279" lon="1.17198">
        <ele>157.5</ele>
        <time>2022-03-27T09:18:41Z</time>
      </trkpt>
      <trkpt lat="49.50284" lon="1.17203">
        <ele>157.6</ele>
        <time>2022-03-27T09:18:42Z</time>
      </trkpt>
      <trkpt lat="49.50287" lon="1.17208">
        <ele>157.6</ele>
        <time>2022-03-27T09:18:43Z</time>
      </trkpt>
      <trkpt lat="49.50288" lon="1.17209">
        <ele>157.6</ele>
        <time>2022-03-27T09:18:44Z</time>
      </trkpt>
      <trkpt lat="49.5029" lon="1.17217">
        <ele>157.7</ele>
        <time>2022-03-27T09:18:46Z</time>
      </trkpt>
      <trkpt lat="49.50291" lon="1.17221">
        <ele>157.7</ele>
        <time>2022-03-27T09:18:47Z</time>
      </trkpt>
      <trkpt lat="49.50292" lon="1.17228">
        <ele>157.7</ele>
        <time>2022-03-27T09:18:48Z</time>
      </trkpt>
      <trkpt lat="49.50293" lon="1.1723">
        <ele>157.7</ele>
        <time>2022-03-27T09:18:50Z</time>
      </trkpt>
      <trkpt lat="49.50293" lon="1.17231">
        <ele>157.7</ele>
        <time>2022-03-27T09:18:51Z</time>
      </trkpt>
      <trkpt lat="49.50293" lon="1.17231">
        <ele>157.7</ele>
        <time>2022-03-27T09:18:52Z</time>
      </trkpt>
      <trkpt lat="49.50294" lon="1.17232">
        <ele>157.7</ele>
        <time>2022-03-27T09:18:53Z</time>
      </trkpt>
      <trkpt lat="49.50297" lon="1.17236">
        <ele>157.8</ele>
        <time>2022-03-27T09:18:54Z</time>
      </trkpt>
      <trkpt lat="49.50301" lon="1.17239">
        <ele>157.8</ele>
        <time>2022-03-27T09:18:56Z</time>
      </trkpt>
      <trkpt lat="49.50305" lon="1.17243">
        <ele>157.9</ele>
        <time>2022-03-27T09:18:57Z</time>
      </trkpt>
      <trkpt lat="49.50308" lon="1.17244">
        <ele>158</ele>
        <time>2022-03-27T09:18:58Z</time>
      </trkpt>
      <trkpt lat="49.50312" lon="1.17245">
        <ele>158.1</ele>
        <time>2022-03-27T09:19:00Z</time>
      </trkpt>
      <trkpt lat="49.50315" lon="1.17245">
        <ele>158.1</ele>
        <time>2022-03-27T09:19:01Z</time>
      </trkpt>
      <trkpt lat="49.50317" lon="1.17244">
        <ele>158.2</ele>
        <time>2022-03-27T09:19:02Z</time>
      </trkpt>
      <trkpt lat="49.50318" lon="1.17244">
        <ele>158.2</ele>
        <time>2022-03-27T09:19:03Z</time>
      </trkpt>
      <trkpt lat="49.5032" lon="1.17244">
        <ele>158.3</ele>
        <time>2022-03-27T09:19:04Z</time>
      </trkpt>
      <trkpt lat="49.50322" lon="1.17246">
        <ele>158.3</ele>
        <time>2022-03-27T09:19:06Z</time>
      </trkpt>
      <trkpt lat="49.50325" lon="1.17246">
        <ele>158.6</ele>
        <time>2022-03-27T09:19:07Z</time>
      </trkpt>
      <trkpt lat="49.50326" lon="1.17245">
        <ele>158.6</ele>
        <time>2022-03-27T09:19:08Z</time>
      </trkpt>
      <trkpt lat="49.50328" lon="1.17243">
        <ele>158.6</ele>
        <time>2022-03-27T09:19:09Z</time>
      </trkpt>
      <trkpt lat="49.50333" lon="1.17238">
        <ele>158.6</ele>
        <time>2022-03-27T09:19:11Z</time>
      </trkpt>
      <trkpt lat="49.50336" lon="1.17235">
        <ele>158.6</ele>
        <time>2022-03-27T09:19:13Z</time>
      </trkpt>
      <trkpt lat="49.5034" lon="1.17232">
        <ele>158.6</ele>
        <time>2022-03-27T09:19:14Z</time>
      </trkpt>
      <trkpt lat="49.50345" lon="1.17227">
        <ele>158.7</ele>
        <time>2022-03-27T09:19:15Z</time>
      </trkpt>
      <trkpt lat="49.50349" lon="1.17224">
        <ele>158.7</ele>
        <time>2022-03-27T09:19:17Z</time>
      </trkpt>
      <trkpt lat="49.5035" lon="1.17222">
        <ele>158.7</ele>
        <time>2022-03-27T09:19:18Z</time>
      </trkpt>
      <trkpt lat="49.50352" lon="1.17221">
        <ele>158.7</ele>
        <time>2022-03-27T09:19:19Z</time>
      </trkpt>
      <trkpt lat="49.50354" lon="1.17217">
        <ele>158.8</ele>
        <time>2022-03-27T09:19:20Z</time>
      </trkpt>
      <trkpt lat="49.50355" lon="1.17215">
        <ele>158.8</ele>
        <time>2022-03-27T09:19:21Z</time>
      </trkpt>
      <trkpt lat="49.50356" lon="1.17213">
        <ele>158.8</ele>
        <time>2022-03-27T09:19:22Z</time>
      </trkpt>
      <trkpt lat="49.50358" lon="1.17209">
        <ele>158.8</ele>
        <time>2022-03-27T09:19:24Z</time>
      </trkpt>
      <trkpt lat="49.50359" lon="1.17205">
        <ele>158.9</ele>
        <time>2022-03-27T09:19:25Z</time>
      </trkpt>
      <trkpt lat="49.50362" lon="1.17198">
        <ele>158.9</ele>
        <time>2022-03-27T09:19:27Z</time>
      </trkpt>
      <trkpt lat="49.50364" lon="1.17192">
        <ele>159</ele>
        <time>2022-03-27T09:19:29Z</time>
      </trkpt>
      <trkpt lat="49.50365" lon="1.17188">
        <ele>159</ele>
        <time>2022-03-27T09:19:30Z</time>
      </trkpt>
      <trkpt lat="49.50367" lon="1.1718">
        <ele>159.1</ele>
        <time>2022-03-27T09:19:31Z</time>
      </trkpt>
      <trkpt lat="49.50368" lon="1.17176">
        <ele>159.1</ele>
        <time>2022-03-27T09:19:33Z</time>
      </trkpt>
      <trkpt lat="49.5037" lon="1.17172">
        <ele>159.1</ele>
        <time>2022-03-27T09:19:34Z</time>
      </trkpt>
      <trkpt lat="49.50372" lon="1.17167">
        <ele>159.2</ele>
        <time>2022-03-27T09:19:35Z</time>
      </trkpt>
      <trkpt lat="49.50373" lon="1.17163">
        <ele>159.2</ele>
        <time>2022-03-27T09:19:36Z</time>
      </trkpt>
      <trkpt lat="49.50377" lon="1.17154">
        <ele>159.3</ele>
        <time>2022-03-27T09:19:37Z</time>
      </trkpt>
      <trkpt lat="49.50379" lon="1.17149">
        <ele>159.3</ele>
        <time>2022-03-27T09:19:38Z</time>
      </trkpt>
      <trkpt lat="49.50382" lon="1.17142">
        <ele>159.4</ele>
        <time>2022-03-27T09:19:40Z</time>
      </trkpt>
      <trkpt lat="49.50384" lon="1.17139">
        <ele>159.4</ele>
        <time>2022-03-27T09:19:41Z</time>
      </trkpt>
      <trkpt lat="49.50385" lon="1.17135">
        <ele>159.4</ele>
        <time>2022-03-27T09:19:42Z</time>
      </trkpt>
      <trkpt lat="49.5039" lon="1.17125">
        <ele>159.6</ele>
        <time>2022-03-27T09:19:44Z</time>
      </trkpt>
      <trkpt lat="49.50395" lon="1.17116">
        <ele>159.7</ele>
        <time>2022-03-27T09:19:46Z</time>
      </trkpt>
      <trkpt lat="49.50397" lon="1.1711">
        <ele>159.8</ele>
        <time>2022-03-27T09:19:48Z</time>
      </trkpt>
      <trkpt lat="49.50403" lon="1.17098">
        <ele>159.9</ele>
        <time>2022-03-27T09:19:49Z</time>
      </trkpt>
      <trkpt lat="49.5041" lon="1.17086">
        <ele>160.1</ele>
        <time>2022-03-27T09:19:51Z</time>
      </trkpt>
      <trkpt lat="49.50415" lon="1.17077">
        <ele>160.2</ele>
        <time>2022-03-27T09:19:53Z</time>
      </trkpt>
      <trkpt lat="49.50417" lon="1.17072">
        <ele>160.3</ele>
        <time>2022-03-27T09:19:54Z</time>
      </trkpt>
      <trkpt lat="49.5042" lon="1.17067">
        <ele>160.4</ele>
        <time>2022-03-27T09:19:55Z</time>
      </trkpt>
      <trkpt lat="49.50423" lon="1.17058">
        <ele>160.5</ele>
        <time>2022-03-27T09:19:56Z</time>
      </trkpt>
      <trkpt lat="49.50425" lon="1.17055">
        <ele>160.5</ele>
        <time>2022-03-27T09:19:57Z</time>
      </trkpt>
      <trkpt lat="49.50427" lon="1.1705">
        <ele>160.6</ele>
        <time>2022-03-27T09:19:58Z</time>
      </trkpt>
      <trkpt lat="49.50429" lon="1.17045">
        <ele>160.7</ele>
        <time>2022-03-27T09:20:00Z</time>
      </trkpt>
      <trkpt lat="49.50431" lon="1.17041">
        <ele>160.8</ele>
        <time>2022-03-27T09:20:01Z</time>
      </trkpt>
      <trkpt lat="49.50433" lon="1.17036">
        <ele>160.9</ele>
        <time>2022-03-27T09:20:02Z</time>
      </trkpt>
      <trkpt lat="49.50438" lon="1.17027">
        <ele>161</ele>
        <time>2022-03-27T09:20:04Z</time>
      </trkpt>
      <trkpt lat="49.5044" lon="1.17023">
        <ele>161.1</ele>
        <time>2022-03-27T09:20:05Z</time>
      </trkpt>
      <trkpt lat="49.50441" lon="1.17019">
        <ele>161.1</ele>
        <time>2022-03-27T09:20:06Z</time>
      </trkpt>
      <trkpt lat="49.50444" lon="1.17013">
        <ele>161.3</ele>
        <time>2022-03-27T09:20:08Z</time>
      </trkpt>
      <trkpt lat="49.50446" lon="1.17008">
        <ele>161.3</ele>
        <time>2022-03-27T09:20:09Z</time>
      </trkpt>
      <trkpt lat="49.50447" lon="1.17007">
        <ele>161.4</ele>
        <time>2022-03-27T09:20:10Z</time>
      </trkpt>
      <trkpt lat="49.5045" lon="1.17">
        <ele>161.5</ele>
        <time>2022-03-27T09:20:11Z</time>
      </trkpt>
      <trkpt lat="49.50455" lon="1.16988">
        <ele>161.7</ele>
        <time>2022-03-27T09:20:13Z</time>
      </trkpt>
      <trkpt lat="49.50459" lon="1.1698">
        <ele>161.8</ele>
        <time>2022-03-27T09:20:15Z</time>
      </trkpt>
      <trkpt lat="49.50461" lon="1.16976">
        <ele>161.9</ele>
        <time>2022-03-27T09:20:16Z</time>
      </trkpt>
      <trkpt lat="49.50463" lon="1.16972">
        <ele>162</ele>
        <time>2022-03-27T09:20:17Z</time>
      </trkpt>
      <trkpt lat="49.50465" lon="1.16968">
        <ele>162.1</ele>
        <time>2022-03-27T09:20:18Z</time>
      </trkpt>
      <trkpt lat="49.50467" lon="1.16963">
        <ele>162.2</ele>
        <time>2022-03-27T09:20:19Z</time>
      </trkpt>
      <trkpt lat="49.50469" lon="1.16959">
        <ele>162.2</ele>
        <time>2022-03-27T09:20:20Z</time>
      </trkpt>
      <trkpt lat="49.50471" lon="1.16953">
        <ele>162.4</ele>
        <time>2022-03-27T09:20:22Z</time>
      </trkpt>
      <trkpt lat="49.50472" lon="1.1695">
        <ele>162.4</ele>
        <time>2022-03-27T09:20:23Z</time>
      </trkpt>
      <trkpt lat="49.50474" lon="1.16946">
        <ele>162.5</ele>
        <time>2022-03-27T09:20:24Z</time>
      </trkpt>
      <trkpt lat="49.50477" lon="1.1694">
        <ele>162.7</ele>
        <time>2022-03-27T09:20:26Z</time>
      </trkpt>
      <trkpt lat="49.50479" lon="1.16936">
        <ele>162.8</ele>
        <time>2022-03-27T09:20:27Z</time>
      </trkpt>
      <trkpt lat="49.50482" lon="1.16929">
        <ele>162.9</ele>
        <time>2022-03-27T09:20:28Z</time>
      </trkpt>
      <trkpt lat="49.50483" lon="1.16926">
        <ele>163</ele>
        <time>2022-03-27T09:20:29Z</time>
      </trkpt>
      <trkpt lat="49.50486" lon="1.1692">
        <ele>163.1</ele>
        <time>2022-03-27T09:20:31Z</time>
      </trkpt>
      <trkpt lat="49.50487" lon="1.16916">
        <ele>163.2</ele>
        <time>2022-03-27T09:20:32Z</time>
      </trkpt>
      <trkpt lat="49.50489" lon="1.16912">
        <ele>163.3</ele>
        <time>2022-03-27T09:20:33Z</time>
      </trkpt>
      <trkpt lat="49.50492" lon="1.16907">
        <ele>163.4</ele>
        <time>2022-03-27T09:20:34Z</time>
      </trkpt>
      <trkpt lat="49.50493" lon="1.16905">
        <ele>163.5</ele>
        <time>2022-03-27T09:20:35Z</time>
      </trkpt>
      <trkpt lat="49.50495" lon="1.169">
        <ele>163.6</ele>
        <time>2022-03-27T09:20:36Z</time>
      </trkpt>
      <trkpt lat="49.50497" lon="1.16896">
        <ele>163.6</ele>
        <time>2022-03-27T09:20:37Z</time>
      </trkpt>
      <trkpt lat="49.505" lon="1.16891">
        <ele>163.7</ele>
        <time>2022-03-27T09:20:39Z</time>
      </trkpt>
      <trkpt lat="49.50502" lon="1.16886">
        <ele>163.8</ele>
        <time>2022-03-27T09:20:40Z</time>
      </trkpt>
      <trkpt lat="49.50505" lon="1.16881">
        <ele>163.9</ele>
        <time>2022-03-27T09:20:41Z</time>
      </trkpt>
      <trkpt lat="49.5051" lon="1.16869">
        <ele>164.1</ele>
        <time>2022-03-27T09:20:42Z</time>
      </trkpt>
      <trkpt lat="49.50513" lon="1.16864">
        <ele>164.2</ele>
        <time>2022-03-27T09:20:44Z</time>
      </trkpt>
      <trkpt lat="49.50517" lon="1.16856">
        <ele>164.4</ele>
        <time>2022-03-27T09:20:45Z</time>
      </trkpt>
      <trkpt lat="49.5052" lon="1.1685">
        <ele>164.5</ele>
        <time>2022-03-27T09:20:46Z</time>
      </trkpt>
      <trkpt lat="49.50522" lon="1.16844">
        <ele>164.6</ele>
        <time>2022-03-27T09:20:47Z</time>
      </trkpt>
      <trkpt lat="49.50523" lon="1.16842">
        <ele>164.6</ele>
        <time>2022-03-27T09:20:48Z</time>
      </trkpt>
      <trkpt lat="49.50525" lon="1.16838">
        <ele>164.7</ele>
        <time>2022-03-27T09:20:50Z</time>
      </trkpt>
      <trkpt lat="49.50527" lon="1.16834">
        <ele>164.8</ele>
        <time>2022-03-27T09:20:51Z</time>
      </trkpt>
      <trkpt lat="49.50529" lon="1.16829">
        <ele>164.8</ele>
        <time>2022-03-27T09:20:52Z</time>
      </trkpt>
      <trkpt lat="49.50531" lon="1.16825">
        <ele>164.9</ele>
        <time>2022-03-27T09:20:53Z</time>
      </trkpt>
      <trkpt lat="49.50534" lon="1.16816">
        <ele>165</ele>
        <time>2022-03-27T09:20:54Z</time>
      </trkpt>
      <trkpt lat="49.50537" lon="1.16809">
        <ele>165.1</ele>
        <time>2022-03-27T09:20:56Z</time>
      </trkpt>
      <trkpt lat="49.50539" lon="1.16804">
        <ele>165.2</ele>
        <time>2022-03-27T09:20:57Z</time>
      </trkpt>
      <trkpt lat="49.50542" lon="1.16798">
        <ele>165.3</ele>
        <time>2022-03-27T09:20:58Z</time>
      </trkpt>
      <trkpt lat="49.50546" lon="1.16789">
        <ele>165.3</ele>
        <time>2022-03-27T09:20:59Z</time>
      </trkpt>
      <trkpt lat="49.50549" lon="1.16781">
        <ele>165.4</ele>
        <time>2022-03-27T09:21:01Z</time>
      </trkpt>
      <trkpt lat="49.50553" lon="1.16774">
        <ele>165.4</ele>
        <time>2022-03-27T09:21:03Z</time>
      </trkpt>
      <trkpt lat="49.50555" lon="1.16768">
        <ele>165.4</ele>
        <time>2022-03-27T09:21:04Z</time>
      </trkpt>
      <trkpt lat="49.50558" lon="1.16762">
        <ele>165.4</ele>
        <time>2022-03-27T09:21:05Z</time>
      </trkpt>
      <trkpt lat="49.50564" lon="1.1675">
        <ele>165.4</ele>
        <time>2022-03-27T09:21:07Z</time>
      </trkpt>
      <trkpt lat="49.50567" lon="1.16743">
        <ele>165.4</ele>
        <time>2022-03-27T09:21:09Z</time>
      </trkpt>
      <trkpt lat="49.50569" lon="1.16738">
        <ele>165.4</ele>
        <time>2022-03-27T09:21:10Z</time>
      </trkpt>
      <trkpt lat="49.50572" lon="1.16734">
        <ele>165.4</ele>
        <time>2022-03-27T09:21:11Z</time>
      </trkpt>
      <trkpt lat="49.50573" lon="1.1673">
        <ele>165.4</ele>
        <time>2022-03-27T09:21:12Z</time>
      </trkpt>
      <trkpt lat="49.50575" lon="1.16722">
        <ele>165.5</ele>
        <time>2022-03-27T09:21:13Z</time>
      </trkpt>
      <trkpt lat="49.50577" lon="1.16716">
        <ele>165.5</ele>
        <time>2022-03-27T09:21:14Z</time>
      </trkpt>
      <trkpt lat="49.50583" lon="1.16705">
        <ele>165.5</ele>
        <time>2022-03-27T09:21:15Z</time>
      </trkpt>
      <trkpt lat="49.50587" lon="1.16693">
        <ele>165.5</ele>
        <time>2022-03-27T09:21:17Z</time>
      </trkpt>
      <trkpt lat="49.50592" lon="1.16677">
        <ele>165.6</ele>
        <time>2022-03-27T09:21:18Z</time>
      </trkpt>
      <trkpt lat="49.50595" lon="1.16667">
        <ele>165.6</ele>
        <time>2022-03-27T09:21:20Z</time>
      </trkpt>
      <trkpt lat="49.50597" lon="1.16659">
        <ele>165.6</ele>
        <time>2022-03-27T09:21:21Z</time>
      </trkpt>
      <trkpt lat="49.50598" lon="1.16653">
        <ele>165.7</ele>
        <time>2022-03-27T09:21:22Z</time>
      </trkpt>
      <trkpt lat="49.50599" lon="1.16649">
        <ele>165.7</ele>
        <time>2022-03-27T09:21:23Z</time>
      </trkpt>
      <trkpt lat="49.50601" lon="1.16644">
        <ele>165.7</ele>
        <time>2022-03-27T09:21:25Z</time>
      </trkpt>
      <trkpt lat="49.50603" lon="1.1664">
        <ele>165.7</ele>
        <time>2022-03-27T09:21:26Z</time>
      </trkpt>
      <trkpt lat="49.50605" lon="1.16635">
        <ele>165.7</ele>
        <time>2022-03-27T09:21:27Z</time>
      </trkpt>
      <trkpt lat="49.50606" lon="1.1663">
        <ele>165.8</ele>
        <time>2022-03-27T09:21:28Z</time>
      </trkpt>
      <trkpt lat="49.50609" lon="1.16625">
        <ele>165.8</ele>
        <time>2022-03-27T09:21:29Z</time>
      </trkpt>
      <trkpt lat="49.50611" lon="1.16619">
        <ele>165.8</ele>
        <time>2022-03-27T09:21:30Z</time>
      </trkpt>
      <trkpt lat="49.50613" lon="1.16614">
        <ele>165.8</ele>
        <time>2022-03-27T09:21:31Z</time>
      </trkpt>
      <trkpt lat="49.50617" lon="1.16608">
        <ele>165.8</ele>
        <time>2022-03-27T09:21:32Z</time>
      </trkpt>
      <trkpt lat="49.50619" lon="1.16602">
        <ele>165.8</ele>
        <time>2022-03-27T09:21:33Z</time>
      </trkpt>
      <trkpt lat="49.50622" lon="1.16595">
        <ele>165.8</ele>
        <time>2022-03-27T09:21:35Z</time>
      </trkpt>
      <trkpt lat="49.50625" lon="1.1659">
        <ele>165.8</ele>
        <time>2022-03-27T09:21:36Z</time>
      </trkpt>
      <trkpt lat="49.50628" lon="1.16584">
        <ele>165.8</ele>
        <time>2022-03-27T09:21:37Z</time>
      </trkpt>
      <trkpt lat="49.50631" lon="1.16577">
        <ele>165.8</ele>
        <time>2022-03-27T09:21:38Z</time>
      </trkpt>
      <trkpt lat="49.50635" lon="1.16568">
        <ele>165.8</ele>
        <time>2022-03-27T09:21:40Z</time>
      </trkpt>
      <trkpt lat="49.50639" lon="1.16563">
        <ele>165.8</ele>
        <time>2022-03-27T09:21:41Z</time>
      </trkpt>
      <trkpt lat="49.50645" lon="1.16547">
        <ele>165.9</ele>
        <time>2022-03-27T09:21:42Z</time>
      </trkpt>
      <trkpt lat="49.50647" lon="1.1654">
        <ele>165.9</ele>
        <time>2022-03-27T09:21:44Z</time>
      </trkpt>
      <trkpt lat="49.5065" lon="1.16533">
        <ele>165.9</ele>
        <time>2022-03-27T09:21:45Z</time>
      </trkpt>
      <trkpt lat="49.50652" lon="1.16525">
        <ele>165.9</ele>
        <time>2022-03-27T09:21:46Z</time>
      </trkpt>
      <trkpt lat="49.50654" lon="1.16518">
        <ele>165.9</ele>
        <time>2022-03-27T09:21:47Z</time>
      </trkpt>
      <trkpt lat="49.50657" lon="1.16512">
        <ele>165.9</ele>
        <time>2022-03-27T09:21:48Z</time>
      </trkpt>
      <trkpt lat="49.50658" lon="1.16506">
        <ele>165.9</ele>
        <time>2022-03-27T09:21:49Z</time>
      </trkpt>
      <trkpt lat="49.50663" lon="1.16493">
        <ele>166</ele>
        <time>2022-03-27T09:21:50Z</time>
      </trkpt>
      <trkpt lat="49.50665" lon="1.16487">
        <ele>166</ele>
        <time>2022-03-27T09:21:52Z</time>
      </trkpt>
      <trkpt lat="49.50667" lon="1.16481">
        <ele>166</ele>
        <time>2022-03-27T09:21:53Z</time>
      </trkpt>
      <trkpt lat="49.5067" lon="1.16474">
        <ele>166.1</ele>
        <time>2022-03-27T09:21:54Z</time>
      </trkpt>
      <trkpt lat="49.50673" lon="1.16468">
        <ele>166.1</ele>
        <time>2022-03-27T09:21:55Z</time>
      </trkpt>
      <trkpt lat="49.50676" lon="1.16461">
        <ele>166.1</ele>
        <time>2022-03-27T09:21:56Z</time>
      </trkpt>
      <trkpt lat="49.50678" lon="1.16454">
        <ele>166.1</ele>
        <time>2022-03-27T09:21:57Z</time>
      </trkpt>
      <trkpt lat="49.50681" lon="1.16448">
        <ele>166.1</ele>
        <time>2022-03-27T09:21:58Z</time>
      </trkpt>
      <trkpt lat="49.50684" lon="1.16441">
        <ele>166.1</ele>
        <time>2022-03-27T09:21:59Z</time>
      </trkpt>
      <trkpt lat="49.50686" lon="1.16435">
        <ele>166.1</ele>
        <time>2022-03-27T09:22:00Z</time>
      </trkpt>
      <trkpt lat="49.50688" lon="1.16429">
        <ele>166.1</ele>
        <time>2022-03-27T09:22:01Z</time>
      </trkpt>
      <trkpt lat="49.50691" lon="1.16422">
        <ele>166.1</ele>
        <time>2022-03-27T09:22:02Z</time>
      </trkpt>
      <trkpt lat="49.50693" lon="1.16416">
        <ele>166</ele>
        <time>2022-03-27T09:22:03Z</time>
      </trkpt>
      <trkpt lat="49.50695" lon="1.1641">
        <ele>166</ele>
        <time>2022-03-27T09:22:04Z</time>
      </trkpt>
      <trkpt lat="49.50697" lon="1.16404">
        <ele>166</ele>
        <time>2022-03-27T09:22:05Z</time>
      </trkpt>
      <trkpt lat="49.50699" lon="1.16398">
        <ele>165.9</ele>
        <time>2022-03-27T09:22:06Z</time>
      </trkpt>
      <trkpt lat="49.50701" lon="1.16391">
        <ele>165.9</ele>
        <time>2022-03-27T09:22:07Z</time>
      </trkpt>
      <trkpt lat="49.50703" lon="1.16385">
        <ele>165.9</ele>
        <time>2022-03-27T09:22:08Z</time>
      </trkpt>
      <trkpt lat="49.50705" lon="1.16379">
        <ele>165.8</ele>
        <time>2022-03-27T09:22:09Z</time>
      </trkpt>
      <trkpt lat="49.50707" lon="1.16373">
        <ele>165.8</ele>
        <time>2022-03-27T09:22:10Z</time>
      </trkpt>
      <trkpt lat="49.50709" lon="1.16367">
        <ele>165.8</ele>
        <time>2022-03-27T09:22:11Z</time>
      </trkpt>
      <trkpt lat="49.50711" lon="1.1636">
        <ele>165.7</ele>
        <time>2022-03-27T09:22:12Z</time>
      </trkpt>
      <trkpt lat="49.50713" lon="1.16353">
        <ele>165.7</ele>
        <time>2022-03-27T09:22:13Z</time>
      </trkpt>
      <trkpt lat="49.50716" lon="1.16346">
        <ele>165.7</ele>
        <time>2022-03-27T09:22:14Z</time>
      </trkpt>
      <trkpt lat="49.50718" lon="1.16339">
        <ele>165.6</ele>
        <time>2022-03-27T09:22:15Z</time>
      </trkpt>
      <trkpt lat="49.50721" lon="1.16332">
        <ele>165.6</ele>
        <time>2022-03-27T09:22:16Z</time>
      </trkpt>
      <trkpt lat="49.50723" lon="1.16325">
        <ele>165.6</ele>
        <time>2022-03-27T09:22:17Z</time>
      </trkpt>
      <trkpt lat="49.50725" lon="1.1632">
        <ele>165.6</ele>
        <time>2022-03-27T09:22:18Z</time>
      </trkpt>
      <trkpt lat="49.50727" lon="1.16315">
        <ele>165.6</ele>
        <time>2022-03-27T09:22:19Z</time>
      </trkpt>
      <trkpt lat="49.5073" lon="1.16308">
        <ele>165.6</ele>
        <time>2022-03-27T09:22:20Z</time>
      </trkpt>
      <trkpt lat="49.50733" lon="1.16302">
        <ele>165.6</ele>
        <time>2022-03-27T09:22:21Z</time>
      </trkpt>
      <trkpt lat="49.50736" lon="1.16297">
        <ele>165.6</ele>
        <time>2022-03-27T09:22:22Z</time>
      </trkpt>
      <trkpt lat="49.50739" lon="1.16291">
        <ele>165.6</ele>
        <time>2022-03-27T09:22:23Z</time>
      </trkpt>
      <trkpt lat="49.50741" lon="1.16287">
        <ele>165.6</ele>
        <time>2022-03-27T09:22:24Z</time>
      </trkpt>
      <trkpt lat="49.50743" lon="1.16283">
        <ele>165.7</ele>
        <time>2022-03-27T09:22:25Z</time>
      </trkpt>
      <trkpt lat="49.50742" lon="1.16277">
        <ele>165.7</ele>
        <time>2022-03-27T09:22:26Z</time>
      </trkpt>
      <trkpt lat="49.50741" lon="1.16275">
        <ele>165.7</ele>
        <time>2022-03-27T09:22:27Z</time>
      </trkpt>
      <trkpt lat="49.5074" lon="1.16271">
        <ele>165.8</ele>
        <time>2022-03-27T09:22:28Z</time>
      </trkpt>
      <trkpt lat="49.5074" lon="1.1627">
        <ele>165.8</ele>
        <time>2022-03-27T09:22:29Z</time>
      </trkpt>
      <trkpt lat="49.5074" lon="1.16268">
        <ele>165.8</ele>
        <time>2022-03-27T09:22:30Z</time>
      </trkpt>
      <trkpt lat="49.5074" lon="1.16265">
        <ele>165.8</ele>
        <time>2022-03-27T09:22:31Z</time>
      </trkpt>
      <trkpt lat="49.50741" lon="1.16263">
        <ele>165.8</ele>
        <time>2022-03-27T09:22:32Z</time>
      </trkpt>
      <trkpt lat="49.50742" lon="1.16261">
        <ele>165.8</ele>
        <time>2022-03-27T09:22:33Z</time>
      </trkpt>
      <trkpt lat="49.50742" lon="1.16259">
        <ele>165.8</ele>
        <time>2022-03-27T09:22:34Z</time>
      </trkpt>
      <trkpt lat="49.50741" lon="1.16258">
        <ele>165.7</ele>
        <time>2022-03-27T09:22:35Z</time>
      </trkpt>
      <trkpt lat="49.5074" lon="1.16257">
        <ele>165.7</ele>
        <time>2022-03-27T09:22:36Z</time>
      </trkpt>
      <trkpt lat="49.50735" lon="1.16255">
        <ele>165.7</ele>
        <time>2022-03-27T09:22:37Z</time>
      </trkpt>
      <trkpt lat="49.50733" lon="1.16254">
        <ele>165.7</ele>
        <time>2022-03-27T09:22:38Z</time>
      </trkpt>
      <trkpt lat="49.5073" lon="1.1625">
        <ele>165.6</ele>
        <time>2022-03-27T09:22:39Z</time>
      </trkpt>
      <trkpt lat="49.50726" lon="1.16246">
        <ele>165.6</ele>
        <time>2022-03-27T09:22:40Z</time>
      </trkpt>
      <trkpt lat="49.50723" lon="1.16241">
        <ele>165.5</ele>
        <time>2022-03-27T09:22:42Z</time>
      </trkpt>
      <trkpt lat="49.5072" lon="1.16235">
        <ele>165.5</ele>
        <time>2022-03-27T09:22:43Z</time>
      </trkpt>
      <trkpt lat="49.50717" lon="1.16229">
        <ele>165.4</ele>
        <time>2022-03-27T09:22:44Z</time>
      </trkpt>
      <trkpt lat="49.50711" lon="1.1622">
        <ele>165.3</ele>
        <time>2022-03-27T09:22:45Z</time>
      </trkpt>
      <trkpt lat="49.50705" lon="1.16215">
        <ele>165.3</ele>
        <time>2022-03-27T09:22:47Z</time>
      </trkpt>
      <trkpt lat="49.507" lon="1.16211">
        <ele>165.2</ele>
        <time>2022-03-27T09:22:48Z</time>
      </trkpt>
      <trkpt lat="49.50691" lon="1.16203">
        <ele>165</ele>
        <time>2022-03-27T09:22:49Z</time>
      </trkpt>
      <trkpt lat="49.50687" lon="1.16199">
        <ele>164.9</ele>
        <time>2022-03-27T09:22:50Z</time>
      </trkpt>
      <trkpt lat="49.50683" lon="1.16194">
        <ele>164.8</ele>
        <time>2022-03-27T09:22:51Z</time>
      </trkpt>
      <trkpt lat="49.50679" lon="1.16189">
        <ele>164.7</ele>
        <time>2022-03-27T09:22:52Z</time>
      </trkpt>
      <trkpt lat="49.50675" lon="1.16185">
        <ele>164.6</ele>
        <time>2022-03-27T09:22:53Z</time>
      </trkpt>
      <trkpt lat="49.50671" lon="1.16181">
        <ele>164.5</ele>
        <time>2022-03-27T09:22:54Z</time>
      </trkpt>
      <trkpt lat="49.50667" lon="1.16177">
        <ele>164.3</ele>
        <time>2022-03-27T09:22:55Z</time>
      </trkpt>
      <trkpt lat="49.50663" lon="1.16173">
        <ele>164.2</ele>
        <time>2022-03-27T09:22:56Z</time>
      </trkpt>
      <trkpt lat="49.50663" lon="1.16167">
        <ele>164.1</ele>
        <time>2022-03-27T09:22:57Z</time>
      </trkpt>
      <trkpt lat="49.50657" lon="1.16161">
        <ele>163.9</ele>
        <time>2022-03-27T09:22:59Z</time>
      </trkpt>
      <trkpt lat="49.50648" lon="1.16149">
        <ele>163.5</ele>
        <time>2022-03-27T09:23:00Z</time>
      </trkpt>
      <trkpt lat="49.50644" lon="1.16145">
        <ele>163.4</ele>
        <time>2022-03-27T09:23:01Z</time>
      </trkpt>
      <trkpt lat="49.50638" lon="1.16141">
        <ele>163.2</ele>
        <time>2022-03-27T09:23:03Z</time>
      </trkpt>
      <trkpt lat="49.50633" lon="1.16134">
        <ele>163</ele>
        <time>2022-03-27T09:23:05Z</time>
      </trkpt>
      <trkpt lat="49.50629" lon="1.16128">
        <ele>162.9</ele>
        <time>2022-03-27T09:23:06Z</time>
      </trkpt>
      <trkpt lat="49.50625" lon="1.16124">
        <ele>162.7</ele>
        <time>2022-03-27T09:23:07Z</time>
      </trkpt>
      <trkpt lat="49.5062" lon="1.16118">
        <ele>162.6</ele>
        <time>2022-03-27T09:23:08Z</time>
      </trkpt>
      <trkpt lat="49.50615" lon="1.16113">
        <ele>162.4</ele>
        <time>2022-03-27T09:23:09Z</time>
      </trkpt>
      <trkpt lat="49.50611" lon="1.16108">
        <ele>162.2</ele>
        <time>2022-03-27T09:23:10Z</time>
      </trkpt>
      <trkpt lat="49.50606" lon="1.16102">
        <ele>162.1</ele>
        <time>2022-03-27T09:23:11Z</time>
      </trkpt>
      <trkpt lat="49.506" lon="1.16097">
        <ele>161.9</ele>
        <time>2022-03-27T09:23:12Z</time>
      </trkpt>
      <trkpt lat="49.50596" lon="1.16091">
        <ele>161.7</ele>
        <time>2022-03-27T09:23:13Z</time>
      </trkpt>
      <trkpt lat="49.50592" lon="1.16086">
        <ele>161.6</ele>
        <time>2022-03-27T09:23:14Z</time>
      </trkpt>
      <trkpt lat="49.50587" lon="1.16081">
        <ele>161.4</ele>
        <time>2022-03-27T09:23:15Z</time>
      </trkpt>
      <trkpt lat="49.50583" lon="1.16076">
        <ele>161.3</ele>
        <time>2022-03-27T09:23:16Z</time>
      </trkpt>
      <trkpt lat="49.50578" lon="1.16071">
        <ele>161.2</ele>
        <time>2022-03-27T09:23:17Z</time>
      </trkpt>
      <trkpt lat="49.50573" lon="1.16066">
        <ele>161</ele>
        <time>2022-03-27T09:23:18Z</time>
      </trkpt>
      <trkpt lat="49.50568" lon="1.16057">
        <ele>160.9</ele>
        <time>2022-03-27T09:23:19Z</time>
      </trkpt>
      <trkpt lat="49.50564" lon="1.1605">
        <ele>160.7</ele>
        <time>2022-03-27T09:23:20Z</time>
      </trkpt>
      <trkpt lat="49.5056" lon="1.16045">
        <ele>160.6</ele>
        <time>2022-03-27T09:23:21Z</time>
      </trkpt>
      <trkpt lat="49.50555" lon="1.16043">
        <ele>160.6</ele>
        <time>2022-03-27T09:23:22Z</time>
      </trkpt>
      <trkpt lat="49.50552" lon="1.1604">
        <ele>160.5</ele>
        <time>2022-03-27T09:23:23Z</time>
      </trkpt>
      <trkpt lat="49.50549" lon="1.16036">
        <ele>160.4</ele>
        <time>2022-03-27T09:23:24Z</time>
      </trkpt>
      <trkpt lat="49.50547" lon="1.16031">
        <ele>160.4</ele>
        <time>2022-03-27T09:23:25Z</time>
      </trkpt>
      <trkpt lat="49.50544" lon="1.16025">
        <ele>160.3</ele>
        <time>2022-03-27T09:23:26Z</time>
      </trkpt>
      <trkpt lat="49.5054" lon="1.1602">
        <ele>160.2</ele>
        <time>2022-03-27T09:23:27Z</time>
      </trkpt>
      <trkpt lat="49.50537" lon="1.16015">
        <ele>160.2</ele>
        <time>2022-03-27T09:23:28Z</time>
      </trkpt>
      <trkpt lat="49.50533" lon="1.1601">
        <ele>160.1</ele>
        <time>2022-03-27T09:23:29Z</time>
      </trkpt>
      <trkpt lat="49.50529" lon="1.16005">
        <ele>160</ele>
        <time>2022-03-27T09:23:30Z</time>
      </trkpt>
      <trkpt lat="49.50526" lon="1.16001">
        <ele>160</ele>
        <time>2022-03-27T09:23:31Z</time>
      </trkpt>
      <trkpt lat="49.50522" lon="1.15996">
        <ele>159.9</ele>
        <time>2022-03-27T09:23:32Z</time>
      </trkpt>
      <trkpt lat="49.50518" lon="1.15992">
        <ele>159.8</ele>
        <time>2022-03-27T09:23:33Z</time>
      </trkpt>
      <trkpt lat="49.50514" lon="1.15988">
        <ele>159.7</ele>
        <time>2022-03-27T09:23:34Z</time>
      </trkpt>
      <trkpt lat="49.50511" lon="1.15984">
        <ele>159.6</ele>
        <time>2022-03-27T09:23:35Z</time>
      </trkpt>
      <trkpt lat="49.50507" lon="1.15979">
        <ele>159.6</ele>
        <time>2022-03-27T09:23:36Z</time>
      </trkpt>
      <trkpt lat="49.50502" lon="1.15975">
        <ele>159.5</ele>
        <time>2022-03-27T09:23:37Z</time>
      </trkpt>
      <trkpt lat="49.50498" lon="1.15971">
        <ele>159.5</ele>
        <time>2022-03-27T09:23:38Z</time>
      </trkpt>
      <trkpt lat="49.50491" lon="1.15961">
        <ele>159.4</ele>
        <time>2022-03-27T09:23:39Z</time>
      </trkpt>
      <trkpt lat="49.50487" lon="1.15955">
        <ele>159.4</ele>
        <time>2022-03-27T09:23:41Z</time>
      </trkpt>
      <trkpt lat="49.50483" lon="1.1595">
        <ele>159.4</ele>
        <time>2022-03-27T09:23:42Z</time>
      </trkpt>
      <trkpt lat="49.50479" lon="1.15945">
        <ele>159.4</ele>
        <time>2022-03-27T09:23:43Z</time>
      </trkpt>
      <trkpt lat="49.50475" lon="1.1594">
        <ele>159.4</ele>
        <time>2022-03-27T09:23:44Z</time>
      </trkpt>
      <trkpt lat="49.50471" lon="1.15935">
        <ele>159.4</ele>
        <time>2022-03-27T09:23:45Z</time>
      </trkpt>
      <trkpt lat="49.50466" lon="1.15931">
        <ele>159.4</ele>
        <time>2022-03-27T09:23:46Z</time>
      </trkpt>
      <trkpt lat="49.50463" lon="1.15926">
        <ele>159.4</ele>
        <time>2022-03-27T09:23:47Z</time>
      </trkpt>
      <trkpt lat="49.50454" lon="1.15917">
        <ele>159.3</ele>
        <time>2022-03-27T09:23:48Z</time>
      </trkpt>
      <trkpt lat="49.50445" lon="1.15906">
        <ele>159.3</ele>
        <time>2022-03-27T09:23:50Z</time>
      </trkpt>
      <trkpt lat="49.5044" lon="1.15901">
        <ele>159.3</ele>
        <time>2022-03-27T09:23:52Z</time>
      </trkpt>
      <trkpt lat="49.50436" lon="1.15896">
        <ele>159.3</ele>
        <time>2022-03-27T09:23:53Z</time>
      </trkpt>
      <trkpt lat="49.50432" lon="1.15892">
        <ele>159.3</ele>
        <time>2022-03-27T09:23:54Z</time>
      </trkpt>
      <trkpt lat="49.50428" lon="1.15889">
        <ele>159.3</ele>
        <time>2022-03-27T09:23:55Z</time>
      </trkpt>
      <trkpt lat="49.50425" lon="1.15885">
        <ele>159.2</ele>
        <time>2022-03-27T09:23:56Z</time>
      </trkpt>
      <trkpt lat="49.50421" lon="1.15881">
        <ele>159.2</ele>
        <time>2022-03-27T09:23:57Z</time>
      </trkpt>
      <trkpt lat="49.5042" lon="1.15879">
        <ele>159.2</ele>
        <time>2022-03-27T09:23:58Z</time>
      </trkpt>
      <trkpt lat="49.50416" lon="1.15874">
        <ele>159.1</ele>
        <time>2022-03-27T09:23:59Z</time>
      </trkpt>
      <trkpt lat="49.50411" lon="1.15869">
        <ele>159.1</ele>
        <time>2022-03-27T09:24:00Z</time>
      </trkpt>
      <trkpt lat="49.50408" lon="1.15865">
        <ele>159</ele>
        <time>2022-03-27T09:24:01Z</time>
      </trkpt>
      <trkpt lat="49.50404" lon="1.15859">
        <ele>158.9</ele>
        <time>2022-03-27T09:24:02Z</time>
      </trkpt>
      <trkpt lat="49.504" lon="1.15853">
        <ele>158.9</ele>
        <time>2022-03-27T09:24:03Z</time>
      </trkpt>
      <trkpt lat="49.50395" lon="1.15846">
        <ele>158.8</ele>
        <time>2022-03-27T09:24:04Z</time>
      </trkpt>
      <trkpt lat="49.50392" lon="1.1584">
        <ele>158.7</ele>
        <time>2022-03-27T09:24:05Z</time>
      </trkpt>
      <trkpt lat="49.50388" lon="1.15835">
        <ele>158.7</ele>
        <time>2022-03-27T09:24:06Z</time>
      </trkpt>
      <trkpt lat="49.50384" lon="1.1583">
        <ele>158.6</ele>
        <time>2022-03-27T09:24:07Z</time>
      </trkpt>
      <trkpt lat="49.5038" lon="1.15824">
        <ele>158.5</ele>
        <time>2022-03-27T09:24:08Z</time>
      </trkpt>
      <trkpt lat="49.50375" lon="1.1582">
        <ele>158.5</ele>
        <time>2022-03-27T09:24:09Z</time>
      </trkpt>
      <trkpt lat="49.50371" lon="1.15815">
        <ele>158.4</ele>
        <time>2022-03-27T09:24:10Z</time>
      </trkpt>
      <trkpt lat="49.50367" lon="1.1581">
        <ele>158.3</ele>
        <time>2022-03-27T09:24:11Z</time>
      </trkpt>
      <trkpt lat="49.50363" lon="1.15805">
        <ele>158.3</ele>
        <time>2022-03-27T09:24:12Z</time>
      </trkpt>
      <trkpt lat="49.50358" lon="1.158">
        <ele>158.2</ele>
        <time>2022-03-27T09:24:13Z</time>
      </trkpt>
      <trkpt lat="49.50352" lon="1.15793">
        <ele>158.1</ele>
        <time>2022-03-27T09:24:14Z</time>
      </trkpt>
      <trkpt lat="49.50348" lon="1.15787">
        <ele>158.1</ele>
        <time>2022-03-27T09:24:16Z</time>
      </trkpt>
      <trkpt lat="49.50347" lon="1.15784">
        <ele>158.1</ele>
        <time>2022-03-27T09:24:17Z</time>
      </trkpt>
      <trkpt lat="49.50345" lon="1.15782">
        <ele>158.1</ele>
        <time>2022-03-27T09:24:18Z</time>
      </trkpt>
      <trkpt lat="49.50342" lon="1.15778">
        <ele>158</ele>
        <time>2022-03-27T09:24:19Z</time>
      </trkpt>
      <trkpt lat="49.5034" lon="1.15774">
        <ele>158</ele>
        <time>2022-03-27T09:24:20Z</time>
      </trkpt>
      <trkpt lat="49.50338" lon="1.15771">
        <ele>157.9</ele>
        <time>2022-03-27T09:24:21Z</time>
      </trkpt>
      <trkpt lat="49.50335" lon="1.15768">
        <ele>157.9</ele>
        <time>2022-03-27T09:24:22Z</time>
      </trkpt>
      <trkpt lat="49.50333" lon="1.15769">
        <ele>157.9</ele>
        <time>2022-03-27T09:24:23Z</time>
      </trkpt>
      <trkpt lat="49.5033" lon="1.15765">
        <ele>157.8</ele>
        <time>2022-03-27T09:24:25Z</time>
      </trkpt>
      <trkpt lat="49.50325" lon="1.1576">
        <ele>157.8</ele>
        <time>2022-03-27T09:24:26Z</time>
      </trkpt>
      <trkpt lat="49.50322" lon="1.15756">
        <ele>157.8</ele>
        <time>2022-03-27T09:24:28Z</time>
      </trkpt>
      <trkpt lat="49.50322" lon="1.1575">
        <ele>157.8</ele>
        <time>2022-03-27T09:24:29Z</time>
      </trkpt>
      <trkpt lat="49.50325" lon="1.15745">
        <ele>157.8</ele>
        <time>2022-03-27T09:24:31Z</time>
      </trkpt>
      <trkpt lat="49.50326" lon="1.15745">
        <ele>157.9</ele>
        <time>2022-03-27T09:24:32Z</time>
      </trkpt>
      <trkpt lat="49.50328" lon="1.15744">
        <ele>157.9</ele>
        <time>2022-03-27T09:24:33Z</time>
      </trkpt>
      <trkpt lat="49.50332" lon="1.15743">
        <ele>158</ele>
        <time>2022-03-27T09:24:34Z</time>
      </trkpt>
      <trkpt lat="49.50334" lon="1.15743">
        <ele>158</ele>
        <time>2022-03-27T09:24:35Z</time>
      </trkpt>
      <trkpt lat="49.50337" lon="1.15742">
        <ele>158</ele>
        <time>2022-03-27T09:24:36Z</time>
      </trkpt>
      <trkpt lat="49.50341" lon="1.1574">
        <ele>158.1</ele>
        <time>2022-03-27T09:24:38Z</time>
      </trkpt>
      <trkpt lat="49.50344" lon="1.1574">
        <ele>158.2</ele>
        <time>2022-03-27T09:24:39Z</time>
      </trkpt>
      <trkpt lat="49.50347" lon="1.15739">
        <ele>158.2</ele>
        <time>2022-03-27T09:24:40Z</time>
      </trkpt>
      <trkpt lat="49.5035" lon="1.15737">
        <ele>158.3</ele>
        <time>2022-03-27T09:24:41Z</time>
      </trkpt>
      <trkpt lat="49.50355" lon="1.15734">
        <ele>158.3</ele>
        <time>2022-03-27T09:24:42Z</time>
      </trkpt>
      <trkpt lat="49.50358" lon="1.15733">
        <ele>158.4</ele>
        <time>2022-03-27T09:24:44Z</time>
      </trkpt>
      <trkpt lat="49.50361" lon="1.15731">
        <ele>158.4</ele>
        <time>2022-03-27T09:24:45Z</time>
      </trkpt>
      <trkpt lat="49.50364" lon="1.1573">
        <ele>158.5</ele>
        <time>2022-03-27T09:24:46Z</time>
      </trkpt>
      <trkpt lat="49.50367" lon="1.1573">
        <ele>158.5</ele>
        <time>2022-03-27T09:24:47Z</time>
      </trkpt>
      <trkpt lat="49.5037" lon="1.1573">
        <ele>158.6</ele>
        <time>2022-03-27T09:24:48Z</time>
      </trkpt>
      <trkpt lat="49.50374" lon="1.1573">
        <ele>158.6</ele>
        <time>2022-03-27T09:24:49Z</time>
      </trkpt>
      <trkpt lat="49.5038" lon="1.15731">
        <ele>158.7</ele>
        <time>2022-03-27T09:24:51Z</time>
      </trkpt>
      <trkpt lat="49.50383" lon="1.15731">
        <ele>158.8</ele>
        <time>2022-03-27T09:24:52Z</time>
      </trkpt>
      <trkpt lat="49.50386" lon="1.1573">
        <ele>158.9</ele>
        <time>2022-03-27T09:24:53Z</time>
      </trkpt>
      <trkpt lat="49.50389" lon="1.1573">
        <ele>158.9</ele>
        <time>2022-03-27T09:24:54Z</time>
      </trkpt>
      <trkpt lat="49.50393" lon="1.15729">
        <ele>159</ele>
        <time>2022-03-27T09:24:55Z</time>
      </trkpt>
      <trkpt lat="49.50397" lon="1.15727">
        <ele>159.1</ele>
        <time>2022-03-27T09:24:56Z</time>
      </trkpt>
      <trkpt lat="49.504" lon="1.15725">
        <ele>159.2</ele>
        <time>2022-03-27T09:24:57Z</time>
      </trkpt>
      <trkpt lat="49.50407" lon="1.15724">
        <ele>159.3</ele>
        <time>2022-03-27T09:24:58Z</time>
      </trkpt>
      <trkpt lat="49.50412" lon="1.15724">
        <ele>159.4</ele>
        <time>2022-03-27T09:25:00Z</time>
      </trkpt>
      <trkpt lat="49.50416" lon="1.15725">
        <ele>159.5</ele>
        <time>2022-03-27T09:25:01Z</time>
      </trkpt>
      <trkpt lat="49.5042" lon="1.15725">
        <ele>159.5</ele>
        <time>2022-03-27T09:25:02Z</time>
      </trkpt>
      <trkpt lat="49.50427" lon="1.15725">
        <ele>159.6</ele>
        <time>2022-03-27T09:25:03Z</time>
      </trkpt>
      <trkpt lat="49.50432" lon="1.15725">
        <ele>159.7</ele>
        <time>2022-03-27T09:25:05Z</time>
      </trkpt>
      <trkpt lat="49.50435" lon="1.15726">
        <ele>159.7</ele>
        <time>2022-03-27T09:25:06Z</time>
      </trkpt>
      <trkpt lat="49.50439" lon="1.15726">
        <ele>159.7</ele>
        <time>2022-03-27T09:25:07Z</time>
      </trkpt>
      <trkpt lat="49.50442" lon="1.15726">
        <ele>159.7</ele>
        <time>2022-03-27T09:25:08Z</time>
      </trkpt>
      <trkpt lat="49.50446" lon="1.15726">
        <ele>159.7</ele>
        <time>2022-03-27T09:25:09Z</time>
      </trkpt>
      <trkpt lat="49.50449" lon="1.15727">
        <ele>159.7</ele>
        <time>2022-03-27T09:25:10Z</time>
      </trkpt>
      <trkpt lat="49.50455" lon="1.15727">
        <ele>159.7</ele>
        <time>2022-03-27T09:25:11Z</time>
      </trkpt>
      <trkpt lat="49.50459" lon="1.15728">
        <ele>159.7</ele>
        <time>2022-03-27T09:25:12Z</time>
      </trkpt>
      <trkpt lat="49.50463" lon="1.15727">
        <ele>159.7</ele>
        <time>2022-03-27T09:25:13Z</time>
      </trkpt>
      <trkpt lat="49.5047" lon="1.15731">
        <ele>159.7</ele>
        <time>2022-03-27T09:25:15Z</time>
      </trkpt>
      <trkpt lat="49.50472" lon="1.15733">
        <ele>159.7</ele>
        <time>2022-03-27T09:25:16Z</time>
      </trkpt>
      <trkpt lat="49.50477" lon="1.15734">
        <ele>159.7</ele>
        <time>2022-03-27T09:25:18Z</time>
      </trkpt>
      <trkpt lat="49.5048" lon="1.15734">
        <ele>159.7</ele>
        <time>2022-03-27T09:25:19Z</time>
      </trkpt>
      <trkpt lat="49.50483" lon="1.15735">
        <ele>159.6</ele>
        <time>2022-03-27T09:25:20Z</time>
      </trkpt>
      <trkpt lat="49.50487" lon="1.15736">
        <ele>159.6</ele>
        <time>2022-03-27T09:25:21Z</time>
      </trkpt>
      <trkpt lat="49.5049" lon="1.15737">
        <ele>159.6</ele>
        <time>2022-03-27T09:25:22Z</time>
      </trkpt>
      <trkpt lat="49.50493" lon="1.15738">
        <ele>159.6</ele>
        <time>2022-03-27T09:25:23Z</time>
      </trkpt>
      <trkpt lat="49.50496" lon="1.15738">
        <ele>159.6</ele>
        <time>2022-03-27T09:25:24Z</time>
      </trkpt>
      <trkpt lat="49.50499" lon="1.15738">
        <ele>159.6</ele>
        <time>2022-03-27T09:25:25Z</time>
      </trkpt>
      <trkpt lat="49.50502" lon="1.15738">
        <ele>159.5</ele>
        <time>2022-03-27T09:25:26Z</time>
      </trkpt>
      <trkpt lat="49.50509" lon="1.15739">
        <ele>159.5</ele>
        <time>2022-03-27T09:25:27Z</time>
      </trkpt>
      <trkpt lat="49.50513" lon="1.15739">
        <ele>159.4</ele>
        <time>2022-03-27T09:25:29Z</time>
      </trkpt>
      <trkpt lat="49.50514" lon="1.15739">
        <ele>159.4</ele>
        <time>2022-03-27T09:25:30Z</time>
      </trkpt>
      <trkpt lat="49.50518" lon="1.15739">
        <ele>159.4</ele>
        <time>2022-03-27T09:25:31Z</time>
      </trkpt>
      <trkpt lat="49.50519" lon="1.15739">
        <ele>159.4</ele>
        <time>2022-03-27T09:25:32Z</time>
      </trkpt>
      <trkpt lat="49.50522" lon="1.15739">
        <ele>159.4</ele>
        <time>2022-03-27T09:25:33Z</time>
      </trkpt>
      <trkpt lat="49.50523" lon="1.15738">
        <ele>159.4</ele>
        <time>2022-03-27T09:25:34Z</time>
      </trkpt>
      <trkpt lat="49.50526" lon="1.15739">
        <ele>159.2</ele>
        <time>2022-03-27T09:25:35Z</time>
      </trkpt>
      <trkpt lat="49.50526" lon="1.15739">
        <ele>159.2</ele>
        <time>2022-03-27T09:25:36Z</time>
      </trkpt>
      <trkpt lat="49.50526" lon="1.15742">
        <ele>159.2</ele>
        <time>2022-03-27T09:25:37Z</time>
      </trkpt>
      <trkpt lat="49.50524" lon="1.15744">
        <ele>159.2</ele>
        <time>2022-03-27T09:25:39Z</time>
      </trkpt>
      <trkpt lat="49.50522" lon="1.15743">
        <ele>159.1</ele>
        <time>2022-03-27T09:25:40Z</time>
      </trkpt>
      <trkpt lat="49.50521" lon="1.15741">
        <ele>159.1</ele>
        <time>2022-03-27T09:25:41Z</time>
      </trkpt>
      <trkpt lat="49.50517" lon="1.15737">
        <ele>159</ele>
        <time>2022-03-27T09:25:43Z</time>
      </trkpt>
      <trkpt lat="49.50514" lon="1.15734">
        <ele>159</ele>
        <time>2022-03-27T09:25:44Z</time>
      </trkpt>
      <trkpt lat="49.50511" lon="1.1573">
        <ele>158.9</ele>
        <time>2022-03-27T09:25:45Z</time>
      </trkpt>
      <trkpt lat="49.50508" lon="1.15725">
        <ele>158.9</ele>
        <time>2022-03-27T09:25:47Z</time>
      </trkpt>
      <trkpt lat="49.50506" lon="1.15718">
        <ele>158.8</ele>
        <time>2022-03-27T09:25:48Z</time>
      </trkpt>
      <trkpt lat="49.50501" lon="1.15712">
        <ele>158.7</ele>
        <time>2022-03-27T09:25:49Z</time>
      </trkpt>
      <trkpt lat="49.50498" lon="1.15708">
        <ele>158.7</ele>
        <time>2022-03-27T09:25:50Z</time>
      </trkpt>
      <trkpt lat="49.50495" lon="1.15705">
        <ele>158.6</ele>
        <time>2022-03-27T09:25:52Z</time>
      </trkpt>
      <trkpt lat="49.5049" lon="1.15697">
        <ele>158.5</ele>
        <time>2022-03-27T09:25:54Z</time>
      </trkpt>
      <trkpt lat="49.50487" lon="1.15692">
        <ele>158.4</ele>
        <time>2022-03-27T09:25:55Z</time>
      </trkpt>
      <trkpt lat="49.50485" lon="1.15687">
        <ele>158.4</ele>
        <time>2022-03-27T09:25:56Z</time>
      </trkpt>
      <trkpt lat="49.50482" lon="1.15679">
        <ele>158.3</ele>
        <time>2022-03-27T09:25:57Z</time>
      </trkpt>
      <trkpt lat="49.50479" lon="1.15673">
        <ele>158.1</ele>
        <time>2022-03-27T09:25:58Z</time>
      </trkpt>
      <trkpt lat="49.50475" lon="1.15667">
        <ele>158</ele>
        <time>2022-03-27T09:26:00Z</time>
      </trkpt>
      <trkpt lat="49.50473" lon="1.15663">
        <ele>157.9</ele>
        <time>2022-03-27T09:26:01Z</time>
      </trkpt>
      <trkpt lat="49.50471" lon="1.15658">
        <ele>157.9</ele>
        <time>2022-03-27T09:26:02Z</time>
      </trkpt>
      <trkpt lat="49.50469" lon="1.15654">
        <ele>157.8</ele>
        <time>2022-03-27T09:26:03Z</time>
      </trkpt>
      <trkpt lat="49.50465" lon="1.15647">
        <ele>157.6</ele>
        <time>2022-03-27T09:26:04Z</time>
      </trkpt>
      <trkpt lat="49.50462" lon="1.15643">
        <ele>157.5</ele>
        <time>2022-03-27T09:26:05Z</time>
      </trkpt>
      <trkpt lat="49.50458" lon="1.15637">
        <ele>157.4</ele>
        <time>2022-03-27T09:26:06Z</time>
      </trkpt>
      <trkpt lat="49.5045" lon="1.15627">
        <ele>157.2</ele>
        <time>2022-03-27T09:26:08Z</time>
      </trkpt>
      <trkpt lat="49.50447" lon="1.15622">
        <ele>157.1</ele>
        <time>2022-03-27T09:26:10Z</time>
      </trkpt>
      <trkpt lat="49.50444" lon="1.15617">
        <ele>157</ele>
        <time>2022-03-27T09:26:11Z</time>
      </trkpt>
      <trkpt lat="49.5044" lon="1.15611">
        <ele>156.8</ele>
        <time>2022-03-27T09:26:12Z</time>
      </trkpt>
      <trkpt lat="49.50434" lon="1.15603">
        <ele>156.6</ele>
        <time>2022-03-27T09:26:14Z</time>
      </trkpt>
      <trkpt lat="49.5043" lon="1.15598">
        <ele>156.5</ele>
        <time>2022-03-27T09:26:15Z</time>
      </trkpt>
      <trkpt lat="49.50427" lon="1.15594">
        <ele>156.4</ele>
        <time>2022-03-27T09:26:16Z</time>
      </trkpt>
      <trkpt lat="49.50421" lon="1.15588">
        <ele>156.3</ele>
        <time>2022-03-27T09:26:17Z</time>
      </trkpt>
      <trkpt lat="49.50418" lon="1.15583">
        <ele>156.1</ele>
        <time>2022-03-27T09:26:18Z</time>
      </trkpt>
      <trkpt lat="49.5041" lon="1.15574">
        <ele>155.9</ele>
        <time>2022-03-27T09:26:20Z</time>
      </trkpt>
      <trkpt lat="49.50406" lon="1.15569">
        <ele>155.7</ele>
        <time>2022-03-27T09:26:22Z</time>
      </trkpt>
      <trkpt lat="49.50402" lon="1.15565">
        <ele>155.5</ele>
        <time>2022-03-27T09:26:23Z</time>
      </trkpt>
      <trkpt lat="49.504" lon="1.15565">
        <ele>155.5</ele>
        <time>2022-03-27T09:26:24Z</time>
      </trkpt>
      <trkpt lat="49.50392" lon="1.15554">
        <ele>155.1</ele>
        <time>2022-03-27T09:26:26Z</time>
      </trkpt>
      <trkpt lat="49.50388" lon="1.15549">
        <ele>154.9</ele>
        <time>2022-03-27T09:26:27Z</time>
      </trkpt>
      <trkpt lat="49.50384" lon="1.15543">
        <ele>154.7</ele>
        <time>2022-03-27T09:26:28Z</time>
      </trkpt>
      <trkpt lat="49.5038" lon="1.15537">
        <ele>154.5</ele>
        <time>2022-03-27T09:26:29Z</time>
      </trkpt>
      <trkpt lat="49.50377" lon="1.15531">
        <ele>154.3</ele>
        <time>2022-03-27T09:26:30Z</time>
      </trkpt>
      <trkpt lat="49.50374" lon="1.15526">
        <ele>154.1</ele>
        <time>2022-03-27T09:26:31Z</time>
      </trkpt>
      <trkpt lat="49.5037" lon="1.15519">
        <ele>153.9</ele>
        <time>2022-03-27T09:26:32Z</time>
      </trkpt>
      <trkpt lat="49.50366" lon="1.15512">
        <ele>153.6</ele>
        <time>2022-03-27T09:26:33Z</time>
      </trkpt>
      <trkpt lat="49.50363" lon="1.15505">
        <ele>153.4</ele>
        <time>2022-03-27T09:26:34Z</time>
      </trkpt>
      <trkpt lat="49.50359" lon="1.15498">
        <ele>153.1</ele>
        <time>2022-03-27T09:26:35Z</time>
      </trkpt>
      <trkpt lat="49.50355" lon="1.15492">
        <ele>152.9</ele>
        <time>2022-03-27T09:26:36Z</time>
      </trkpt>
      <trkpt lat="49.50351" lon="1.15486">
        <ele>152.7</ele>
        <time>2022-03-27T09:26:37Z</time>
      </trkpt>
      <trkpt lat="49.50347" lon="1.1548">
        <ele>152.5</ele>
        <time>2022-03-27T09:26:38Z</time>
      </trkpt>
      <trkpt lat="49.50342" lon="1.15473">
        <ele>152.4</ele>
        <time>2022-03-27T09:26:39Z</time>
      </trkpt>
      <trkpt lat="49.50337" lon="1.15467">
        <ele>152.2</ele>
        <time>2022-03-27T09:26:40Z</time>
      </trkpt>
      <trkpt lat="49.50333" lon="1.1546">
        <ele>152</ele>
        <time>2022-03-27T09:26:41Z</time>
      </trkpt>
      <trkpt lat="49.50328" lon="1.15453">
        <ele>151.9</ele>
        <time>2022-03-27T09:26:42Z</time>
      </trkpt>
      <trkpt lat="49.50324" lon="1.15446">
        <ele>151.8</ele>
        <time>2022-03-27T09:26:43Z</time>
      </trkpt>
      <trkpt lat="49.5032" lon="1.15438">
        <ele>151.7</ele>
        <time>2022-03-27T09:26:44Z</time>
      </trkpt>
      <trkpt lat="49.50316" lon="1.15431">
        <ele>151.5</ele>
        <time>2022-03-27T09:26:45Z</time>
      </trkpt>
      <trkpt lat="49.50312" lon="1.15424">
        <ele>151.4</ele>
        <time>2022-03-27T09:26:46Z</time>
      </trkpt>
      <trkpt lat="49.50307" lon="1.15419">
        <ele>151.3</ele>
        <time>2022-03-27T09:26:47Z</time>
      </trkpt>
      <trkpt lat="49.50303" lon="1.15413">
        <ele>151.1</ele>
        <time>2022-03-27T09:26:48Z</time>
      </trkpt>
      <trkpt lat="49.50298" lon="1.15406">
        <ele>151</ele>
        <time>2022-03-27T09:26:49Z</time>
      </trkpt>
      <trkpt lat="49.50293" lon="1.15401">
        <ele>150.9</ele>
        <time>2022-03-27T09:26:50Z</time>
      </trkpt>
      <trkpt lat="49.50288" lon="1.15395">
        <ele>150.9</ele>
        <time>2022-03-27T09:26:51Z</time>
      </trkpt>
      <trkpt lat="49.50284" lon="1.1539">
        <ele>150.8</ele>
        <time>2022-03-27T09:26:52Z</time>
      </trkpt>
      <trkpt lat="49.5028" lon="1.15385">
        <ele>150.8</ele>
        <time>2022-03-27T09:26:53Z</time>
      </trkpt>
      <trkpt lat="49.50276" lon="1.1538">
        <ele>150.7</ele>
        <time>2022-03-27T09:26:54Z</time>
      </trkpt>
      <trkpt lat="49.50272" lon="1.15375">
        <ele>150.7</ele>
        <time>2022-03-27T09:26:55Z</time>
      </trkpt>
      <trkpt lat="49.50268" lon="1.15371">
        <ele>150.7</ele>
        <time>2022-03-27T09:26:56Z</time>
      </trkpt>
      <trkpt lat="49.50265" lon="1.15368">
        <ele>150.7</ele>
        <time>2022-03-27T09:26:57Z</time>
      </trkpt>
      <trkpt lat="49.50261" lon="1.15365">
        <ele>150.7</ele>
        <time>2022-03-27T09:26:58Z</time>
      </trkpt>
      <trkpt lat="49.50257" lon="1.15361">
        <ele>150.7</ele>
        <time>2022-03-27T09:26:59Z</time>
      </trkpt>
      <trkpt lat="49.50254" lon="1.15358">
        <ele>150.7</ele>
        <time>2022-03-27T09:27:00Z</time>
      </trkpt>
      <trkpt lat="49.5025" lon="1.15354">
        <ele>150.7</ele>
        <time>2022-03-27T09:27:01Z</time>
      </trkpt>
      <trkpt lat="49.50248" lon="1.15351">
        <ele>150.7</ele>
        <time>2022-03-27T09:27:02Z</time>
      </trkpt>
      <trkpt lat="49.50244" lon="1.15348">
        <ele>150.7</ele>
        <time>2022-03-27T09:27:03Z</time>
      </trkpt>
      <trkpt lat="49.5024" lon="1.15345">
        <ele>150.7</ele>
        <time>2022-03-27T09:27:04Z</time>
      </trkpt>
      <trkpt lat="49.50236" lon="1.1534">
        <ele>150.7</ele>
        <time>2022-03-27T09:27:05Z</time>
      </trkpt>
      <trkpt lat="49.50232" lon="1.15336">
        <ele>150.7</ele>
        <time>2022-03-27T09:27:06Z</time>
      </trkpt>
      <trkpt lat="49.50228" lon="1.15332">
        <ele>150.7</ele>
        <time>2022-03-27T09:27:07Z</time>
      </trkpt>
      <trkpt lat="49.50224" lon="1.15328">
        <ele>150.8</ele>
        <time>2022-03-27T09:27:08Z</time>
      </trkpt>
      <trkpt lat="49.5022" lon="1.15324">
        <ele>150.8</ele>
        <time>2022-03-27T09:27:09Z</time>
      </trkpt>
      <trkpt lat="49.50217" lon="1.1532">
        <ele>150.8</ele>
        <time>2022-03-27T09:27:10Z</time>
      </trkpt>
      <trkpt lat="49.50213" lon="1.15316">
        <ele>150.9</ele>
        <time>2022-03-27T09:27:11Z</time>
      </trkpt>
      <trkpt lat="49.50209" lon="1.15313">
        <ele>150.9</ele>
        <time>2022-03-27T09:27:12Z</time>
      </trkpt>
      <trkpt lat="49.50206" lon="1.1531">
        <ele>151</ele>
        <time>2022-03-27T09:27:13Z</time>
      </trkpt>
      <trkpt lat="49.50202" lon="1.15306">
        <ele>151</ele>
        <time>2022-03-27T09:27:14Z</time>
      </trkpt>
      <trkpt lat="49.50199" lon="1.15302">
        <ele>151.1</ele>
        <time>2022-03-27T09:27:15Z</time>
      </trkpt>
      <trkpt lat="49.50195" lon="1.15297">
        <ele>151.2</ele>
        <time>2022-03-27T09:27:16Z</time>
      </trkpt>
      <trkpt lat="49.50192" lon="1.15294">
        <ele>151.2</ele>
        <time>2022-03-27T09:27:17Z</time>
      </trkpt>
      <trkpt lat="49.50189" lon="1.1529">
        <ele>151.3</ele>
        <time>2022-03-27T09:27:18Z</time>
      </trkpt>
      <trkpt lat="49.50186" lon="1.15285">
        <ele>151.4</ele>
        <time>2022-03-27T09:27:19Z</time>
      </trkpt>
      <trkpt lat="49.50183" lon="1.15281">
        <ele>151.5</ele>
        <time>2022-03-27T09:27:20Z</time>
      </trkpt>
      <trkpt lat="49.5018" lon="1.15277">
        <ele>151.7</ele>
        <time>2022-03-27T09:27:21Z</time>
      </trkpt>
      <trkpt lat="49.50178" lon="1.15275">
        <ele>151.7</ele>
        <time>2022-03-27T09:27:22Z</time>
      </trkpt>
      <trkpt lat="49.50176" lon="1.15277">
        <ele>151.8</ele>
        <time>2022-03-27T09:27:23Z</time>
      </trkpt>
      <trkpt lat="49.50174" lon="1.15272">
        <ele>151.9</ele>
        <time>2022-03-27T09:27:24Z</time>
      </trkpt>
      <trkpt lat="49.50173" lon="1.15269">
        <ele>152</ele>
        <time>2022-03-27T09:27:25Z</time>
      </trkpt>
      <trkpt lat="49.5017" lon="1.15263">
        <ele>152</ele>
        <time>2022-03-27T09:27:26Z</time>
      </trkpt>
      <trkpt lat="49.50167" lon="1.15256">
        <ele>152</ele>
        <time>2022-03-27T09:27:27Z</time>
      </trkpt>
      <trkpt lat="49.50164" lon="1.15248">
        <ele>152</ele>
        <time>2022-03-27T09:27:28Z</time>
      </trkpt>
      <trkpt lat="49.5016" lon="1.15224">
        <ele>152</ele>
        <time>2022-03-27T09:27:30Z</time>
      </trkpt>
      <trkpt lat="49.50158" lon="1.15217">
        <ele>152.1</ele>
        <time>2022-03-27T09:27:32Z</time>
      </trkpt>
      <trkpt lat="49.50158" lon="1.15211">
        <ele>152.2</ele>
        <time>2022-03-27T09:27:33Z</time>
      </trkpt>
      <trkpt lat="49.50156" lon="1.15204">
        <ele>152.3</ele>
        <time>2022-03-27T09:27:34Z</time>
      </trkpt>
      <trkpt lat="49.50154" lon="1.15199">
        <ele>152.3</ele>
        <time>2022-03-27T09:27:35Z</time>
      </trkpt>
      <trkpt lat="49.50152" lon="1.15194">
        <ele>152.4</ele>
        <time>2022-03-27T09:27:36Z</time>
      </trkpt>
      <trkpt lat="49.5015" lon="1.15187">
        <ele>152.4</ele>
        <time>2022-03-27T09:27:37Z</time>
      </trkpt>
      <trkpt lat="49.50148" lon="1.1518">
        <ele>152.5</ele>
        <time>2022-03-27T09:27:38Z</time>
      </trkpt>
      <trkpt lat="49.50147" lon="1.15174">
        <ele>152.5</ele>
        <time>2022-03-27T09:27:39Z</time>
      </trkpt>
      <trkpt lat="49.50147" lon="1.15168">
        <ele>152.5</ele>
        <time>2022-03-27T09:27:40Z</time>
      </trkpt>
      <trkpt lat="49.50145" lon="1.15162">
        <ele>152.4</ele>
        <time>2022-03-27T09:27:41Z</time>
      </trkpt>
      <trkpt lat="49.50144" lon="1.15155">
        <ele>152.4</ele>
        <time>2022-03-27T09:27:42Z</time>
      </trkpt>
      <trkpt lat="49.50142" lon="1.15147">
        <ele>152.3</ele>
        <time>2022-03-27T09:27:43Z</time>
      </trkpt>
      <trkpt lat="49.50139" lon="1.1514">
        <ele>152.2</ele>
        <time>2022-03-27T09:27:44Z</time>
      </trkpt>
      <trkpt lat="49.50136" lon="1.15132">
        <ele>152</ele>
        <time>2022-03-27T09:27:45Z</time>
      </trkpt>
      <trkpt lat="49.50133" lon="1.15125">
        <ele>151.9</ele>
        <time>2022-03-27T09:27:46Z</time>
      </trkpt>
      <trkpt lat="49.5013" lon="1.15118">
        <ele>151.7</ele>
        <time>2022-03-27T09:27:47Z</time>
      </trkpt>
      <trkpt lat="49.50126" lon="1.15111">
        <ele>151.5</ele>
        <time>2022-03-27T09:27:48Z</time>
      </trkpt>
      <trkpt lat="49.50123" lon="1.15105">
        <ele>151.3</ele>
        <time>2022-03-27T09:27:49Z</time>
      </trkpt>
      <trkpt lat="49.50118" lon="1.151">
        <ele>151.1</ele>
        <time>2022-03-27T09:27:50Z</time>
      </trkpt>
      <trkpt lat="49.50115" lon="1.15095">
        <ele>150.9</ele>
        <time>2022-03-27T09:27:51Z</time>
      </trkpt>
      <trkpt lat="49.50112" lon="1.1509">
        <ele>150.7</ele>
        <time>2022-03-27T09:27:52Z</time>
      </trkpt>
      <trkpt lat="49.50107" lon="1.15086">
        <ele>150.4</ele>
        <time>2022-03-27T09:27:53Z</time>
      </trkpt>
      <trkpt lat="49.50102" lon="1.15081">
        <ele>150.1</ele>
        <time>2022-03-27T09:27:54Z</time>
      </trkpt>
      <trkpt lat="49.50098" lon="1.15074">
        <ele>149.8</ele>
        <time>2022-03-27T09:27:55Z</time>
      </trkpt>
      <trkpt lat="49.50093" lon="1.15066">
        <ele>149.4</ele>
        <time>2022-03-27T09:27:56Z</time>
      </trkpt>
      <trkpt lat="49.50088" lon="1.15059">
        <ele>149</ele>
        <time>2022-03-27T09:27:57Z</time>
      </trkpt>
      <trkpt lat="49.50083" lon="1.15052">
        <ele>148.5</ele>
        <time>2022-03-27T09:27:58Z</time>
      </trkpt>
      <trkpt lat="49.50078" lon="1.15046">
        <ele>148.1</ele>
        <time>2022-03-27T09:27:59Z</time>
      </trkpt>
      <trkpt lat="49.50072" lon="1.1504">
        <ele>147.6</ele>
        <time>2022-03-27T09:28:00Z</time>
      </trkpt>
      <trkpt lat="49.50068" lon="1.15035">
        <ele>147.1</ele>
        <time>2022-03-27T09:28:01Z</time>
      </trkpt>
      <trkpt lat="49.50063" lon="1.1503">
        <ele>146.7</ele>
        <time>2022-03-27T09:28:02Z</time>
      </trkpt>
      <trkpt lat="49.50059" lon="1.15024">
        <ele>146.3</ele>
        <time>2022-03-27T09:28:03Z</time>
      </trkpt>
      <trkpt lat="49.50057" lon="1.15018">
        <ele>145.9</ele>
        <time>2022-03-27T09:28:04Z</time>
      </trkpt>
      <trkpt lat="49.50055" lon="1.15011">
        <ele>145.5</ele>
        <time>2022-03-27T09:28:05Z</time>
      </trkpt>
      <trkpt lat="49.50051" lon="1.15006">
        <ele>145.1</ele>
        <time>2022-03-27T09:28:06Z</time>
      </trkpt>
      <trkpt lat="49.50048" lon="1.15">
        <ele>144.7</ele>
        <time>2022-03-27T09:28:07Z</time>
      </trkpt>
      <trkpt lat="49.50046" lon="1.14994">
        <ele>144.4</ele>
        <time>2022-03-27T09:28:08Z</time>
      </trkpt>
      <trkpt lat="49.50044" lon="1.14987">
        <ele>144.1</ele>
        <time>2022-03-27T09:28:09Z</time>
      </trkpt>
      <trkpt lat="49.50043" lon="1.14982">
        <ele>143.9</ele>
        <time>2022-03-27T09:28:10Z</time>
      </trkpt>
      <trkpt lat="49.50041" lon="1.14977">
        <ele>143.7</ele>
        <time>2022-03-27T09:28:11Z</time>
      </trkpt>
      <trkpt lat="49.50039" lon="1.14973">
        <ele>143.6</ele>
        <time>2022-03-27T09:28:12Z</time>
      </trkpt>
      <trkpt lat="49.50037" lon="1.14967">
        <ele>143.4</ele>
        <time>2022-03-27T09:28:13Z</time>
      </trkpt>
      <trkpt lat="49.50034" lon="1.1496">
        <ele>143.3</ele>
        <time>2022-03-27T09:28:14Z</time>
      </trkpt>
      <trkpt lat="49.50031" lon="1.14953">
        <ele>143.2</ele>
        <time>2022-03-27T09:28:15Z</time>
      </trkpt>
      <trkpt lat="49.50027" lon="1.14945">
        <ele>143.1</ele>
        <time>2022-03-27T09:28:16Z</time>
      </trkpt>
      <trkpt lat="49.50024" lon="1.14938">
        <ele>143.1</ele>
        <time>2022-03-27T09:28:17Z</time>
      </trkpt>
      <trkpt lat="49.50021" lon="1.14931">
        <ele>143.1</ele>
        <time>2022-03-27T09:28:18Z</time>
      </trkpt>
      <trkpt lat="49.50018" lon="1.14923">
        <ele>143.1</ele>
        <time>2022-03-27T09:28:19Z</time>
      </trkpt>
      <trkpt lat="49.50016" lon="1.14915">
        <ele>143.2</ele>
        <time>2022-03-27T09:28:20Z</time>
      </trkpt>
      <trkpt lat="49.50013" lon="1.14909">
        <ele>143.2</ele>
        <time>2022-03-27T09:28:21Z</time>
      </trkpt>
      <trkpt lat="49.50011" lon="1.14904">
        <ele>143.3</ele>
        <time>2022-03-27T09:28:22Z</time>
      </trkpt>
      <trkpt lat="49.50008" lon="1.14896">
        <ele>143.4</ele>
        <time>2022-03-27T09:28:23Z</time>
      </trkpt>
      <trkpt lat="49.50004" lon="1.14887">
        <ele>143.6</ele>
        <time>2022-03-27T09:28:25Z</time>
      </trkpt>
      <trkpt lat="49.50001" lon="1.1488">
        <ele>143.7</ele>
        <time>2022-03-27T09:28:26Z</time>
      </trkpt>
      <trkpt lat="49.49998" lon="1.14874">
        <ele>143.8</ele>
        <time>2022-03-27T09:28:27Z</time>
      </trkpt>
      <trkpt lat="49.49996" lon="1.14869">
        <ele>143.9</ele>
        <time>2022-03-27T09:28:28Z</time>
      </trkpt>
      <trkpt lat="49.49993" lon="1.1486">
        <ele>144.1</ele>
        <time>2022-03-27T09:28:30Z</time>
      </trkpt>
      <trkpt lat="49.49991" lon="1.14855">
        <ele>144.2</ele>
        <time>2022-03-27T09:28:31Z</time>
      </trkpt>
      <trkpt lat="49.49989" lon="1.14847">
        <ele>144.4</ele>
        <time>2022-03-27T09:28:33Z</time>
      </trkpt>
      <trkpt lat="49.49987" lon="1.1484">
        <ele>144.6</ele>
        <time>2022-03-27T09:28:34Z</time>
      </trkpt>
      <trkpt lat="49.49984" lon="1.14833">
        <ele>144.7</ele>
        <time>2022-03-27T09:28:35Z</time>
      </trkpt>
      <trkpt lat="49.49981" lon="1.14827">
        <ele>144.9</ele>
        <time>2022-03-27T09:28:36Z</time>
      </trkpt>
      <trkpt lat="49.49978" lon="1.14824">
        <ele>145.1</ele>
        <time>2022-03-27T09:28:37Z</time>
      </trkpt>
      <trkpt lat="49.49977" lon="1.14822">
        <ele>145.2</ele>
        <time>2022-03-27T09:28:38Z</time>
      </trkpt>
      <trkpt lat="49.49974" lon="1.14816">
        <ele>145.5</ele>
        <time>2022-03-27T09:28:39Z</time>
      </trkpt>
      <trkpt lat="49.49972" lon="1.1481">
        <ele>145.8</ele>
        <time>2022-03-27T09:28:40Z</time>
      </trkpt>
      <trkpt lat="49.49969" lon="1.14805">
        <ele>146</ele>
        <time>2022-03-27T09:28:41Z</time>
      </trkpt>
      <trkpt lat="49.49967" lon="1.14799">
        <ele>146.4</ele>
        <time>2022-03-27T09:28:42Z</time>
      </trkpt>
      <trkpt lat="49.49963" lon="1.14792">
        <ele>146.8</ele>
        <time>2022-03-27T09:28:44Z</time>
      </trkpt>
      <trkpt lat="49.49961" lon="1.14788">
        <ele>147</ele>
        <time>2022-03-27T09:28:45Z</time>
      </trkpt>
      <trkpt lat="49.49959" lon="1.14785">
        <ele>147.2</ele>
        <time>2022-03-27T09:28:46Z</time>
      </trkpt>
      <trkpt lat="49.49956" lon="1.1478">
        <ele>147.5</ele>
        <time>2022-03-27T09:28:47Z</time>
      </trkpt>
      <trkpt lat="49.49955" lon="1.14779">
        <ele>147.6</ele>
        <time>2022-03-27T09:28:48Z</time>
      </trkpt>
      <trkpt lat="49.49952" lon="1.14775">
        <ele>147.8</ele>
        <time>2022-03-27T09:28:49Z</time>
      </trkpt>
      <trkpt lat="49.4995" lon="1.1477">
        <ele>148.1</ele>
        <time>2022-03-27T09:28:50Z</time>
      </trkpt>
      <trkpt lat="49.49946" lon="1.14759">
        <ele>148.5</ele>
        <time>2022-03-27T09:28:51Z</time>
      </trkpt>
      <trkpt lat="49.49943" lon="1.14754">
        <ele>148.6</ele>
        <time>2022-03-27T09:28:52Z</time>
      </trkpt>
      <trkpt lat="49.4994" lon="1.1475">
        <ele>148.7</ele>
        <time>2022-03-27T09:28:54Z</time>
      </trkpt>
      <trkpt lat="49.49939" lon="1.14745">
        <ele>149</ele>
        <time>2022-03-27T09:28:55Z</time>
      </trkpt>
      <trkpt lat="49.49937" lon="1.1474">
        <ele>149.2</ele>
        <time>2022-03-27T09:28:56Z</time>
      </trkpt>
      <trkpt lat="49.49933" lon="1.14733">
        <ele>149.5</ele>
        <time>2022-03-27T09:28:57Z</time>
      </trkpt>
      <trkpt lat="49.49931" lon="1.14729">
        <ele>149.7</ele>
        <time>2022-03-27T09:28:59Z</time>
      </trkpt>
      <trkpt lat="49.4993" lon="1.14726">
        <ele>149.9</ele>
        <time>2022-03-27T09:29:00Z</time>
      </trkpt>
      <trkpt lat="49.49928" lon="1.14722">
        <ele>150</ele>
        <time>2022-03-27T09:29:01Z</time>
      </trkpt>
      <trkpt lat="49.49924" lon="1.14715">
        <ele>150.3</ele>
        <time>2022-03-27T09:29:02Z</time>
      </trkpt>
      <trkpt lat="49.49924" lon="1.14716">
        <ele>150.4</ele>
        <time>2022-03-27T09:29:05Z</time>
      </trkpt>
      <trkpt lat="49.49924" lon="1.14715">
        <ele>150.4</ele>
        <time>2022-03-27T09:29:06Z</time>
      </trkpt>
      <trkpt lat="49.49924" lon="1.14714">
        <ele>150.4</ele>
        <time>2022-03-27T09:29:07Z</time>
      </trkpt>
      <trkpt lat="49.49923" lon="1.14713">
        <ele>150.4</ele>
        <time>2022-03-27T09:29:08Z</time>
      </trkpt>
      <trkpt lat="49.49923" lon="1.14712">
        <ele>150.5</ele>
        <time>2022-03-27T09:29:09Z</time>
      </trkpt>
      <trkpt lat="49.49923" lon="1.14712">
        <ele>150.5</ele>
        <time>2022-03-27T09:29:10Z</time>
      </trkpt>
      <trkpt lat="49.49921" lon="1.147">
        <ele>150.8</ele>
        <time>2022-03-27T09:29:11Z</time>
      </trkpt>
      <trkpt lat="49.49917" lon="1.14683">
        <ele>151.4</ele>
        <time>2022-03-27T09:29:13Z</time>
      </trkpt>
      <trkpt lat="49.49913" lon="1.14673">
        <ele>151.6</ele>
        <time>2022-03-27T09:29:14Z</time>
      </trkpt>
      <trkpt lat="49.49909" lon="1.14663">
        <ele>151.9</ele>
        <time>2022-03-27T09:29:15Z</time>
      </trkpt>
      <trkpt lat="49.49904" lon="1.1465">
        <ele>152.2</ele>
        <time>2022-03-27T09:29:16Z</time>
      </trkpt>
      <trkpt lat="49.49901" lon="1.14641">
        <ele>152.3</ele>
        <time>2022-03-27T09:29:17Z</time>
      </trkpt>
      <trkpt lat="49.49897" lon="1.14633">
        <ele>152.4</ele>
        <time>2022-03-27T09:29:18Z</time>
      </trkpt>
      <trkpt lat="49.49894" lon="1.14624">
        <ele>152.5</ele>
        <time>2022-03-27T09:29:19Z</time>
      </trkpt>
      <trkpt lat="49.49891" lon="1.14617">
        <ele>152.6</ele>
        <time>2022-03-27T09:29:20Z</time>
      </trkpt>
      <trkpt lat="49.49889" lon="1.14609">
        <ele>152.7</ele>
        <time>2022-03-27T09:29:21Z</time>
      </trkpt>
      <trkpt lat="49.49886" lon="1.14602">
        <ele>152.7</ele>
        <time>2022-03-27T09:29:22Z</time>
      </trkpt>
      <trkpt lat="49.49884" lon="1.14596">
        <ele>152.8</ele>
        <time>2022-03-27T09:29:23Z</time>
      </trkpt>
      <trkpt lat="49.49879" lon="1.14584">
        <ele>152.9</ele>
        <time>2022-03-27T09:29:24Z</time>
      </trkpt>
      <trkpt lat="49.49877" lon="1.14577">
        <ele>153</ele>
        <time>2022-03-27T09:29:26Z</time>
      </trkpt>
      <trkpt lat="49.49875" lon="1.14571">
        <ele>153</ele>
        <time>2022-03-27T09:29:27Z</time>
      </trkpt>
      <trkpt lat="49.49872" lon="1.14566">
        <ele>153.1</ele>
        <time>2022-03-27T09:29:28Z</time>
      </trkpt>
      <trkpt lat="49.49868" lon="1.14554">
        <ele>153.1</ele>
        <time>2022-03-27T09:29:30Z</time>
      </trkpt>
      <trkpt lat="49.49865" lon="1.14548">
        <ele>153</ele>
        <time>2022-03-27T09:29:31Z</time>
      </trkpt>
      <trkpt lat="49.49862" lon="1.14543">
        <ele>153</ele>
        <time>2022-03-27T09:29:32Z</time>
      </trkpt>
      <trkpt lat="49.4986" lon="1.14538">
        <ele>153</ele>
        <time>2022-03-27T09:29:33Z</time>
      </trkpt>
      <trkpt lat="49.49856" lon="1.1453">
        <ele>152.9</ele>
        <time>2022-03-27T09:29:34Z</time>
      </trkpt>
      <trkpt lat="49.49855" lon="1.14522">
        <ele>152.9</ele>
        <time>2022-03-27T09:29:35Z</time>
      </trkpt>
      <trkpt lat="49.49852" lon="1.14516">
        <ele>152.8</ele>
        <time>2022-03-27T09:29:36Z</time>
      </trkpt>
      <trkpt lat="49.4985" lon="1.14512">
        <ele>152.8</ele>
        <time>2022-03-27T09:29:37Z</time>
      </trkpt>
      <trkpt lat="49.49847" lon="1.14507">
        <ele>152.7</ele>
        <time>2022-03-27T09:29:38Z</time>
      </trkpt>
      <trkpt lat="49.49845" lon="1.14503">
        <ele>152.6</ele>
        <time>2022-03-27T09:29:39Z</time>
      </trkpt>
      <trkpt lat="49.49842" lon="1.14499">
        <ele>152.6</ele>
        <time>2022-03-27T09:29:40Z</time>
      </trkpt>
      <trkpt lat="49.49838" lon="1.14495">
        <ele>152.5</ele>
        <time>2022-03-27T09:29:41Z</time>
      </trkpt>
      <trkpt lat="49.49833" lon="1.14492">
        <ele>152.4</ele>
        <time>2022-03-27T09:29:42Z</time>
      </trkpt>
      <trkpt lat="49.49829" lon="1.14488">
        <ele>152.3</ele>
        <time>2022-03-27T09:29:43Z</time>
      </trkpt>
      <trkpt lat="49.49824" lon="1.14486">
        <ele>152.2</ele>
        <time>2022-03-27T09:29:44Z</time>
      </trkpt>
      <trkpt lat="49.49813" lon="1.1448">
        <ele>152</ele>
        <time>2022-03-27T09:29:45Z</time>
      </trkpt>
      <trkpt lat="49.49807" lon="1.14477">
        <ele>152</ele>
        <time>2022-03-27T09:29:46Z</time>
      </trkpt>
      <trkpt lat="49.49803" lon="1.14473">
        <ele>151.9</ele>
        <time>2022-03-27T09:29:48Z</time>
      </trkpt>
      <trkpt lat="49.49799" lon="1.14471">
        <ele>151.9</ele>
        <time>2022-03-27T09:29:49Z</time>
      </trkpt>
      <trkpt lat="49.49797" lon="1.14469">
        <ele>151.8</ele>
        <time>2022-03-27T09:29:50Z</time>
      </trkpt>
      <trkpt lat="49.49797" lon="1.14462">
        <ele>151.7</ele>
        <time>2022-03-27T09:29:51Z</time>
      </trkpt>
      <trkpt lat="49.49798" lon="1.14457">
        <ele>151.7</ele>
        <time>2022-03-27T09:29:52Z</time>
      </trkpt>
      <trkpt lat="49.49799" lon="1.1445">
        <ele>151.6</ele>
        <time>2022-03-27T09:29:53Z</time>
      </trkpt>
      <trkpt lat="49.49801" lon="1.14443">
        <ele>151.6</ele>
        <time>2022-03-27T09:29:55Z</time>
      </trkpt>
      <trkpt lat="49.49803" lon="1.14439">
        <ele>151.5</ele>
        <time>2022-03-27T09:29:56Z</time>
      </trkpt>
      <trkpt lat="49.49805" lon="1.14434">
        <ele>151.5</ele>
        <time>2022-03-27T09:29:57Z</time>
      </trkpt>
      <trkpt lat="49.49805" lon="1.14429">
        <ele>151.4</ele>
        <time>2022-03-27T09:29:58Z</time>
      </trkpt>
      <trkpt lat="49.49807" lon="1.14423">
        <ele>151.4</ele>
        <time>2022-03-27T09:29:59Z</time>
      </trkpt>
      <trkpt lat="49.49809" lon="1.14408">
        <ele>151.3</ele>
        <time>2022-03-27T09:30:01Z</time>
      </trkpt>
      <trkpt lat="49.4981" lon="1.14402">
        <ele>151.3</ele>
        <time>2022-03-27T09:30:02Z</time>
      </trkpt>
      <trkpt lat="49.49811" lon="1.14394">
        <ele>151.3</ele>
        <time>2022-03-27T09:30:04Z</time>
      </trkpt>
      <trkpt lat="49.49812" lon="1.14386">
        <ele>151.2</ele>
        <time>2022-03-27T09:30:05Z</time>
      </trkpt>
      <trkpt lat="49.49813" lon="1.14378">
        <ele>151.2</ele>
        <time>2022-03-27T09:30:06Z</time>
      </trkpt>
      <trkpt lat="49.49815" lon="1.14362">
        <ele>151.1</ele>
        <time>2022-03-27T09:30:07Z</time>
      </trkpt>
      <trkpt lat="49.49815" lon="1.14355">
        <ele>151.1</ele>
        <time>2022-03-27T09:30:09Z</time>
      </trkpt>
      <trkpt lat="49.49816" lon="1.14347">
        <ele>151</ele>
        <time>2022-03-27T09:30:10Z</time>
      </trkpt>
      <trkpt lat="49.49817" lon="1.14339">
        <ele>151</ele>
        <time>2022-03-27T09:30:11Z</time>
      </trkpt>
      <trkpt lat="49.49818" lon="1.14331">
        <ele>150.9</ele>
        <time>2022-03-27T09:30:12Z</time>
      </trkpt>
      <trkpt lat="49.49819" lon="1.14323">
        <ele>150.9</ele>
        <time>2022-03-27T09:30:13Z</time>
      </trkpt>
      <trkpt lat="49.4982" lon="1.14315">
        <ele>150.8</ele>
        <time>2022-03-27T09:30:14Z</time>
      </trkpt>
      <trkpt lat="49.49822" lon="1.14308">
        <ele>150.7</ele>
        <time>2022-03-27T09:30:15Z</time>
      </trkpt>
      <trkpt lat="49.49823" lon="1.143">
        <ele>150.6</ele>
        <time>2022-03-27T09:30:16Z</time>
      </trkpt>
      <trkpt lat="49.49825" lon="1.14293">
        <ele>150.5</ele>
        <time>2022-03-27T09:30:17Z</time>
      </trkpt>
      <trkpt lat="49.49826" lon="1.14286">
        <ele>150.4</ele>
        <time>2022-03-27T09:30:18Z</time>
      </trkpt>
      <trkpt lat="49.49828" lon="1.14278">
        <ele>150.4</ele>
        <time>2022-03-27T09:30:19Z</time>
      </trkpt>
      <trkpt lat="49.4983" lon="1.1427">
        <ele>150.3</ele>
        <time>2022-03-27T09:30:20Z</time>
      </trkpt>
      <trkpt lat="49.49832" lon="1.14262">
        <ele>150.2</ele>
        <time>2022-03-27T09:30:21Z</time>
      </trkpt>
      <trkpt lat="49.49834" lon="1.14252">
        <ele>150.1</ele>
        <time>2022-03-27T09:30:22Z</time>
      </trkpt>
      <trkpt lat="49.49836" lon="1.14243">
        <ele>150</ele>
        <time>2022-03-27T09:30:23Z</time>
      </trkpt>
      <trkpt lat="49.49837" lon="1.14234">
        <ele>149.9</ele>
        <time>2022-03-27T09:30:24Z</time>
      </trkpt>
      <trkpt lat="49.49839" lon="1.14225">
        <ele>149.8</ele>
        <time>2022-03-27T09:30:25Z</time>
      </trkpt>
      <trkpt lat="49.49841" lon="1.14217">
        <ele>149.7</ele>
        <time>2022-03-27T09:30:26Z</time>
      </trkpt>
      <trkpt lat="49.49844" lon="1.1421">
        <ele>149.6</ele>
        <time>2022-03-27T09:30:27Z</time>
      </trkpt>
      <trkpt lat="49.49847" lon="1.14204">
        <ele>149.4</ele>
        <time>2022-03-27T09:30:28Z</time>
      </trkpt>
      <trkpt lat="49.4985" lon="1.142">
        <ele>149.3</ele>
        <time>2022-03-27T09:30:29Z</time>
      </trkpt>
      <trkpt lat="49.49852" lon="1.14194">
        <ele>149.3</ele>
        <time>2022-03-27T09:30:30Z</time>
      </trkpt>
      <trkpt lat="49.49854" lon="1.14188">
        <ele>149</ele>
        <time>2022-03-27T09:30:31Z</time>
      </trkpt>
      <trkpt lat="49.49855" lon="1.14181">
        <ele>149</ele>
        <time>2022-03-27T09:30:32Z</time>
      </trkpt>
      <trkpt lat="49.49855" lon="1.14173">
        <ele>148.8</ele>
        <time>2022-03-27T09:30:33Z</time>
      </trkpt>
      <trkpt lat="49.49855" lon="1.14166">
        <ele>148.7</ele>
        <time>2022-03-27T09:30:34Z</time>
      </trkpt>
      <trkpt lat="49.49854" lon="1.14161">
        <ele>148.5</ele>
        <time>2022-03-27T09:30:35Z</time>
      </trkpt>
      <trkpt lat="49.49853" lon="1.14152">
        <ele>148.4</ele>
        <time>2022-03-27T09:30:36Z</time>
      </trkpt>
      <trkpt lat="49.49852" lon="1.14143">
        <ele>148.2</ele>
        <time>2022-03-27T09:30:37Z</time>
      </trkpt>
      <trkpt lat="49.4985" lon="1.14136">
        <ele>148.1</ele>
        <time>2022-03-27T09:30:38Z</time>
      </trkpt>
      <trkpt lat="49.49848" lon="1.14127">
        <ele>147.9</ele>
        <time>2022-03-27T09:30:39Z</time>
      </trkpt>
      <trkpt lat="49.49846" lon="1.1412">
        <ele>147.8</ele>
        <time>2022-03-27T09:30:40Z</time>
      </trkpt>
      <trkpt lat="49.49843" lon="1.14113">
        <ele>147.7</ele>
        <time>2022-03-27T09:30:41Z</time>
      </trkpt>
      <trkpt lat="49.49839" lon="1.14106">
        <ele>147.6</ele>
        <time>2022-03-27T09:30:42Z</time>
      </trkpt>
      <trkpt lat="49.49836" lon="1.14101">
        <ele>147.4</ele>
        <time>2022-03-27T09:30:43Z</time>
      </trkpt>
      <trkpt lat="49.49833" lon="1.14095">
        <ele>147.2</ele>
        <time>2022-03-27T09:30:44Z</time>
      </trkpt>
      <trkpt lat="49.4983" lon="1.14085">
        <ele>147</ele>
        <time>2022-03-27T09:30:46Z</time>
      </trkpt>
      <trkpt lat="49.49825" lon="1.14079">
        <ele>146.7</ele>
        <time>2022-03-27T09:30:47Z</time>
      </trkpt>
      <trkpt lat="49.49821" lon="1.14073">
        <ele>146.5</ele>
        <time>2022-03-27T09:30:48Z</time>
      </trkpt>
      <trkpt lat="49.49817" lon="1.14067">
        <ele>146.4</ele>
        <time>2022-03-27T09:30:49Z</time>
      </trkpt>
      <trkpt lat="49.49812" lon="1.14068">
        <ele>146.5</ele>
        <time>2022-03-27T09:30:50Z</time>
      </trkpt>
      <trkpt lat="49.49807" lon="1.14065">
        <ele>146.7</ele>
        <time>2022-03-27T09:30:51Z</time>
      </trkpt>
      <trkpt lat="49.49803" lon="1.14062">
        <ele>146.7</ele>
        <time>2022-03-27T09:30:53Z</time>
      </trkpt>
      <trkpt lat="49.49799" lon="1.14059">
        <ele>146.7</ele>
        <time>2022-03-27T09:30:54Z</time>
      </trkpt>
      <trkpt lat="49.49792" lon="1.14051">
        <ele>146.7</ele>
        <time>2022-03-27T09:30:55Z</time>
      </trkpt>
      <trkpt lat="49.49786" lon="1.14042">
        <ele>146.8</ele>
        <time>2022-03-27T09:30:57Z</time>
      </trkpt>
      <trkpt lat="49.49782" lon="1.14037">
        <ele>146.8</ele>
        <time>2022-03-27T09:30:58Z</time>
      </trkpt>
      <trkpt lat="49.49778" lon="1.14032">
        <ele>146.9</ele>
        <time>2022-03-27T09:30:59Z</time>
      </trkpt>
      <trkpt lat="49.49775" lon="1.14028">
        <ele>146.9</ele>
        <time>2022-03-27T09:31:00Z</time>
      </trkpt>
      <trkpt lat="49.49772" lon="1.14024">
        <ele>146.9</ele>
        <time>2022-03-27T09:31:01Z</time>
      </trkpt>
      <trkpt lat="49.49769" lon="1.14022">
        <ele>147</ele>
        <time>2022-03-27T09:31:02Z</time>
      </trkpt>
      <trkpt lat="49.49765" lon="1.14019">
        <ele>147</ele>
        <time>2022-03-27T09:31:03Z</time>
      </trkpt>
      <trkpt lat="49.49761" lon="1.14017">
        <ele>147.1</ele>
        <time>2022-03-27T09:31:04Z</time>
      </trkpt>
      <trkpt lat="49.49758" lon="1.14015">
        <ele>147.1</ele>
        <time>2022-03-27T09:31:05Z</time>
      </trkpt>
      <trkpt lat="49.49757" lon="1.14015">
        <ele>146.9</ele>
        <time>2022-03-27T09:31:06Z</time>
      </trkpt>
      <trkpt lat="49.49756" lon="1.14015">
        <ele>146.9</ele>
        <time>2022-03-27T09:31:07Z</time>
      </trkpt>
      <trkpt lat="49.49755" lon="1.14014">
        <ele>146.8</ele>
        <time>2022-03-27T09:31:08Z</time>
      </trkpt>
      <trkpt lat="49.49756" lon="1.14011">
        <ele>146.8</ele>
        <time>2022-03-27T09:31:09Z</time>
      </trkpt>
      <trkpt lat="49.49757" lon="1.14006">
        <ele>146.7</ele>
        <time>2022-03-27T09:31:11Z</time>
      </trkpt>
      <trkpt lat="49.49757" lon="1.14003">
        <ele>146.6</ele>
        <time>2022-03-27T09:31:12Z</time>
      </trkpt>
      <trkpt lat="49.49757" lon="1.13999">
        <ele>146.5</ele>
        <time>2022-03-27T09:31:13Z</time>
      </trkpt>
      <trkpt lat="49.49758" lon="1.13993">
        <ele>146.3</ele>
        <time>2022-03-27T09:31:14Z</time>
      </trkpt>
      <trkpt lat="49.49758" lon="1.13987">
        <ele>146.1</ele>
        <time>2022-03-27T09:31:15Z</time>
      </trkpt>
      <trkpt lat="49.49759" lon="1.13982">
        <ele>146</ele>
        <time>2022-03-27T09:31:16Z</time>
      </trkpt>
      <trkpt lat="49.49759" lon="1.13976">
        <ele>145.7</ele>
        <time>2022-03-27T09:31:17Z</time>
      </trkpt>
      <trkpt lat="49.49759" lon="1.13969">
        <ele>145.5</ele>
        <time>2022-03-27T09:31:18Z</time>
      </trkpt>
      <trkpt lat="49.49759" lon="1.13964">
        <ele>145.3</ele>
        <time>2022-03-27T09:31:19Z</time>
      </trkpt>
      <trkpt lat="49.49758" lon="1.13956">
        <ele>145</ele>
        <time>2022-03-27T09:31:20Z</time>
      </trkpt>
      <trkpt lat="49.49758" lon="1.13949">
        <ele>144.7</ele>
        <time>2022-03-27T09:31:21Z</time>
      </trkpt>
      <trkpt lat="49.49758" lon="1.13939">
        <ele>144.4</ele>
        <time>2022-03-27T09:31:22Z</time>
      </trkpt>
      <trkpt lat="49.49758" lon="1.13929">
        <ele>143.9</ele>
        <time>2022-03-27T09:31:23Z</time>
      </trkpt>
      <trkpt lat="49.49758" lon="1.1392">
        <ele>143.5</ele>
        <time>2022-03-27T09:31:24Z</time>
      </trkpt>
      <trkpt lat="49.49757" lon="1.13912">
        <ele>142.9</ele>
        <time>2022-03-27T09:31:25Z</time>
      </trkpt>
      <trkpt lat="49.49756" lon="1.13903">
        <ele>142.3</ele>
        <time>2022-03-27T09:31:26Z</time>
      </trkpt>
      <trkpt lat="49.49755" lon="1.13895">
        <ele>141.8</ele>
        <time>2022-03-27T09:31:27Z</time>
      </trkpt>
      <trkpt lat="49.49754" lon="1.13886">
        <ele>141.2</ele>
        <time>2022-03-27T09:31:28Z</time>
      </trkpt>
      <trkpt lat="49.49753" lon="1.13875">
        <ele>140.6</ele>
        <time>2022-03-27T09:31:29Z</time>
      </trkpt>
      <trkpt lat="49.49749" lon="1.13868">
        <ele>140.1</ele>
        <time>2022-03-27T09:31:30Z</time>
      </trkpt>
      <trkpt lat="49.49744" lon="1.13862">
        <ele>139.6</ele>
        <time>2022-03-27T09:31:31Z</time>
      </trkpt>
      <trkpt lat="49.49736" lon="1.13857">
        <ele>139</ele>
        <time>2022-03-27T09:31:32Z</time>
      </trkpt>
      <trkpt lat="49.49727" lon="1.13853">
        <ele>138.6</ele>
        <time>2022-03-27T09:31:33Z</time>
      </trkpt>
      <trkpt lat="49.49718" lon="1.13849">
        <ele>138.3</ele>
        <time>2022-03-27T09:31:34Z</time>
      </trkpt>
      <trkpt lat="49.4971" lon="1.13843">
        <ele>138.2</ele>
        <time>2022-03-27T09:31:35Z</time>
      </trkpt>
      <trkpt lat="49.49702" lon="1.13836">
        <ele>138.2</ele>
        <time>2022-03-27T09:31:36Z</time>
      </trkpt>
      <trkpt lat="49.49695" lon="1.13828">
        <ele>138.4</ele>
        <time>2022-03-27T09:31:37Z</time>
      </trkpt>
      <trkpt lat="49.49688" lon="1.13821">
        <ele>138.7</ele>
        <time>2022-03-27T09:31:38Z</time>
      </trkpt>
      <trkpt lat="49.49681" lon="1.13816">
        <ele>138.9</ele>
        <time>2022-03-27T09:31:39Z</time>
      </trkpt>
      <trkpt lat="49.49676" lon="1.1381">
        <ele>139.1</ele>
        <time>2022-03-27T09:31:40Z</time>
      </trkpt>
      <trkpt lat="49.49671" lon="1.13804">
        <ele>139.3</ele>
        <time>2022-03-27T09:31:41Z</time>
      </trkpt>
      <trkpt lat="49.49666" lon="1.13799">
        <ele>139.5</ele>
        <time>2022-03-27T09:31:42Z</time>
      </trkpt>
      <trkpt lat="49.49662" lon="1.13794">
        <ele>139.7</ele>
        <time>2022-03-27T09:31:43Z</time>
      </trkpt>
      <trkpt lat="49.49657" lon="1.13791">
        <ele>139.9</ele>
        <time>2022-03-27T09:31:44Z</time>
      </trkpt>
      <trkpt lat="49.49653" lon="1.13789">
        <ele>140.1</ele>
        <time>2022-03-27T09:31:45Z</time>
      </trkpt>
      <trkpt lat="49.49648" lon="1.13789">
        <ele>140.3</ele>
        <time>2022-03-27T09:31:46Z</time>
      </trkpt>
      <trkpt lat="49.49644" lon="1.13789">
        <ele>140.4</ele>
        <time>2022-03-27T09:31:47Z</time>
      </trkpt>
      <trkpt lat="49.4964" lon="1.13787">
        <ele>140.6</ele>
        <time>2022-03-27T09:31:48Z</time>
      </trkpt>
      <trkpt lat="49.49636" lon="1.13785">
        <ele>140.7</ele>
        <time>2022-03-27T09:31:49Z</time>
      </trkpt>
      <trkpt lat="49.49632" lon="1.13783">
        <ele>140.9</ele>
        <time>2022-03-27T09:31:50Z</time>
      </trkpt>
      <trkpt lat="49.49629" lon="1.13781">
        <ele>141.1</ele>
        <time>2022-03-27T09:31:51Z</time>
      </trkpt>
      <trkpt lat="49.49624" lon="1.13779">
        <ele>141.2</ele>
        <time>2022-03-27T09:31:52Z</time>
      </trkpt>
      <trkpt lat="49.4962" lon="1.13778">
        <ele>141.4</ele>
        <time>2022-03-27T09:31:53Z</time>
      </trkpt>
      <trkpt lat="49.49615" lon="1.13776">
        <ele>141.6</ele>
        <time>2022-03-27T09:31:54Z</time>
      </trkpt>
      <trkpt lat="49.49611" lon="1.13774">
        <ele>141.7</ele>
        <time>2022-03-27T09:31:55Z</time>
      </trkpt>
      <trkpt lat="49.49606" lon="1.13772">
        <ele>141.9</ele>
        <time>2022-03-27T09:31:56Z</time>
      </trkpt>
      <trkpt lat="49.49601" lon="1.1377">
        <ele>142.1</ele>
        <time>2022-03-27T09:31:57Z</time>
      </trkpt>
      <trkpt lat="49.49597" lon="1.13768">
        <ele>142.3</ele>
        <time>2022-03-27T09:31:58Z</time>
      </trkpt>
      <trkpt lat="49.49592" lon="1.13766">
        <ele>142.4</ele>
        <time>2022-03-27T09:31:59Z</time>
      </trkpt>
      <trkpt lat="49.49587" lon="1.13764">
        <ele>142.6</ele>
        <time>2022-03-27T09:32:00Z</time>
      </trkpt>
      <trkpt lat="49.49582" lon="1.13762">
        <ele>142.7</ele>
        <time>2022-03-27T09:32:01Z</time>
      </trkpt>
      <trkpt lat="49.49577" lon="1.1376">
        <ele>142.9</ele>
        <time>2022-03-27T09:32:02Z</time>
      </trkpt>
      <trkpt lat="49.49572" lon="1.13759">
        <ele>143.1</ele>
        <time>2022-03-27T09:32:03Z</time>
      </trkpt>
      <trkpt lat="49.49567" lon="1.13757">
        <ele>143.2</ele>
        <time>2022-03-27T09:32:04Z</time>
      </trkpt>
      <trkpt lat="49.49562" lon="1.13756">
        <ele>143.3</ele>
        <time>2022-03-27T09:32:05Z</time>
      </trkpt>
      <trkpt lat="49.49552" lon="1.13754">
        <ele>143.6</ele>
        <time>2022-03-27T09:32:06Z</time>
      </trkpt>
      <trkpt lat="49.49547" lon="1.13752">
        <ele>143.6</ele>
        <time>2022-03-27T09:32:07Z</time>
      </trkpt>
      <trkpt lat="49.49542" lon="1.13749">
        <ele>143.7</ele>
        <time>2022-03-27T09:32:09Z</time>
      </trkpt>
      <trkpt lat="49.49538" lon="1.13746">
        <ele>143.7</ele>
        <time>2022-03-27T09:32:10Z</time>
      </trkpt>
      <trkpt lat="49.49533" lon="1.13743">
        <ele>143.8</ele>
        <time>2022-03-27T09:32:11Z</time>
      </trkpt>
      <trkpt lat="49.49528" lon="1.13739">
        <ele>143.9</ele>
        <time>2022-03-27T09:32:12Z</time>
      </trkpt>
      <trkpt lat="49.49523" lon="1.13736">
        <ele>143.9</ele>
        <time>2022-03-27T09:32:13Z</time>
      </trkpt>
      <trkpt lat="49.49519" lon="1.13732">
        <ele>144</ele>
        <time>2022-03-27T09:32:14Z</time>
      </trkpt>
      <trkpt lat="49.49514" lon="1.13728">
        <ele>144</ele>
        <time>2022-03-27T09:32:15Z</time>
      </trkpt>
      <trkpt lat="49.4951" lon="1.13724">
        <ele>144.1</ele>
        <time>2022-03-27T09:32:16Z</time>
      </trkpt>
      <trkpt lat="49.49506" lon="1.1372">
        <ele>144.2</ele>
        <time>2022-03-27T09:32:17Z</time>
      </trkpt>
      <trkpt lat="49.49503" lon="1.13715">
        <ele>144.2</ele>
        <time>2022-03-27T09:32:18Z</time>
      </trkpt>
      <trkpt lat="49.49499" lon="1.13711">
        <ele>144.3</ele>
        <time>2022-03-27T09:32:19Z</time>
      </trkpt>
      <trkpt lat="49.49495" lon="1.13706">
        <ele>144.4</ele>
        <time>2022-03-27T09:32:20Z</time>
      </trkpt>
      <trkpt lat="49.49491" lon="1.13702">
        <ele>144.4</ele>
        <time>2022-03-27T09:32:21Z</time>
      </trkpt>
      <trkpt lat="49.49487" lon="1.13698">
        <ele>144.5</ele>
        <time>2022-03-27T09:32:22Z</time>
      </trkpt>
      <trkpt lat="49.49484" lon="1.13694">
        <ele>144.6</ele>
        <time>2022-03-27T09:32:23Z</time>
      </trkpt>
      <trkpt lat="49.4948" lon="1.1369">
        <ele>144.6</ele>
        <time>2022-03-27T09:32:24Z</time>
      </trkpt>
      <trkpt lat="49.49476" lon="1.13686">
        <ele>144.7</ele>
        <time>2022-03-27T09:32:25Z</time>
      </trkpt>
      <trkpt lat="49.49472" lon="1.13682">
        <ele>144.8</ele>
        <time>2022-03-27T09:32:26Z</time>
      </trkpt>
      <trkpt lat="49.49468" lon="1.13678">
        <ele>144.8</ele>
        <time>2022-03-27T09:32:27Z</time>
      </trkpt>
      <trkpt lat="49.49464" lon="1.13674">
        <ele>144.9</ele>
        <time>2022-03-27T09:32:28Z</time>
      </trkpt>
      <trkpt lat="49.49459" lon="1.1367">
        <ele>145</ele>
        <time>2022-03-27T09:32:29Z</time>
      </trkpt>
      <trkpt lat="49.49454" lon="1.13667">
        <ele>145</ele>
        <time>2022-03-27T09:32:30Z</time>
      </trkpt>
      <trkpt lat="49.49449" lon="1.13663">
        <ele>145.1</ele>
        <time>2022-03-27T09:32:31Z</time>
      </trkpt>
      <trkpt lat="49.49444" lon="1.13659">
        <ele>145.1</ele>
        <time>2022-03-27T09:32:32Z</time>
      </trkpt>
      <trkpt lat="49.4944" lon="1.13656">
        <ele>145.1</ele>
        <time>2022-03-27T09:32:33Z</time>
      </trkpt>
      <trkpt lat="49.49435" lon="1.13652">
        <ele>145.2</ele>
        <time>2022-03-27T09:32:34Z</time>
      </trkpt>
      <trkpt lat="49.4943" lon="1.13649">
        <ele>145.2</ele>
        <time>2022-03-27T09:32:35Z</time>
      </trkpt>
      <trkpt lat="49.49425" lon="1.13645">
        <ele>145.2</ele>
        <time>2022-03-27T09:32:36Z</time>
      </trkpt>
      <trkpt lat="49.49421" lon="1.13642">
        <ele>145.3</ele>
        <time>2022-03-27T09:32:37Z</time>
      </trkpt>
      <trkpt lat="49.49416" lon="1.13638">
        <ele>145.3</ele>
        <time>2022-03-27T09:32:38Z</time>
      </trkpt>
      <trkpt lat="49.49412" lon="1.13634">
        <ele>145.3</ele>
        <time>2022-03-27T09:32:39Z</time>
      </trkpt>
      <trkpt lat="49.49407" lon="1.13629">
        <ele>145.4</ele>
        <time>2022-03-27T09:32:40Z</time>
      </trkpt>
      <trkpt lat="49.49402" lon="1.13624">
        <ele>145.4</ele>
        <time>2022-03-27T09:32:41Z</time>
      </trkpt>
      <trkpt lat="49.49397" lon="1.13621">
        <ele>145.5</ele>
        <time>2022-03-27T09:32:42Z</time>
      </trkpt>
      <trkpt lat="49.49393" lon="1.13617">
        <ele>145.5</ele>
        <time>2022-03-27T09:32:43Z</time>
      </trkpt>
      <trkpt lat="49.49384" lon="1.13609">
        <ele>145.6</ele>
        <time>2022-03-27T09:32:44Z</time>
      </trkpt>
      <trkpt lat="49.49379" lon="1.13605">
        <ele>145.7</ele>
        <time>2022-03-27T09:32:46Z</time>
      </trkpt>
      <trkpt lat="49.49375" lon="1.13601">
        <ele>145.7</ele>
        <time>2022-03-27T09:32:47Z</time>
      </trkpt>
      <trkpt lat="49.49366" lon="1.13593">
        <ele>145.8</ele>
        <time>2022-03-27T09:32:48Z</time>
      </trkpt>
      <trkpt lat="49.49362" lon="1.13589">
        <ele>145.8</ele>
        <time>2022-03-27T09:32:50Z</time>
      </trkpt>
      <trkpt lat="49.49358" lon="1.13585">
        <ele>145.8</ele>
        <time>2022-03-27T09:32:51Z</time>
      </trkpt>
      <trkpt lat="49.49353" lon="1.13581">
        <ele>145.8</ele>
        <time>2022-03-27T09:32:52Z</time>
      </trkpt>
      <trkpt lat="49.49349" lon="1.13577">
        <ele>145.9</ele>
        <time>2022-03-27T09:32:53Z</time>
      </trkpt>
      <trkpt lat="49.49345" lon="1.13573">
        <ele>145.9</ele>
        <time>2022-03-27T09:32:54Z</time>
      </trkpt>
      <trkpt lat="49.4934" lon="1.1357">
        <ele>145.9</ele>
        <time>2022-03-27T09:32:55Z</time>
      </trkpt>
      <trkpt lat="49.49336" lon="1.13566">
        <ele>146</ele>
        <time>2022-03-27T09:32:56Z</time>
      </trkpt>
      <trkpt lat="49.49332" lon="1.13562">
        <ele>146</ele>
        <time>2022-03-27T09:32:57Z</time>
      </trkpt>
      <trkpt lat="49.49328" lon="1.13559">
        <ele>146</ele>
        <time>2022-03-27T09:32:58Z</time>
      </trkpt>
      <trkpt lat="49.49323" lon="1.13555">
        <ele>146.1</ele>
        <time>2022-03-27T09:32:59Z</time>
      </trkpt>
      <trkpt lat="49.49319" lon="1.13551">
        <ele>146.1</ele>
        <time>2022-03-27T09:33:00Z</time>
      </trkpt>
      <trkpt lat="49.49315" lon="1.13548">
        <ele>146.2</ele>
        <time>2022-03-27T09:33:01Z</time>
      </trkpt>
      <trkpt lat="49.49311" lon="1.13544">
        <ele>146.2</ele>
        <time>2022-03-27T09:33:02Z</time>
      </trkpt>
      <trkpt lat="49.49306" lon="1.1354">
        <ele>146.3</ele>
        <time>2022-03-27T09:33:03Z</time>
      </trkpt>
      <trkpt lat="49.49302" lon="1.13536">
        <ele>146.4</ele>
        <time>2022-03-27T09:33:04Z</time>
      </trkpt>
      <trkpt lat="49.49297" lon="1.13532">
        <ele>146.4</ele>
        <time>2022-03-27T09:33:05Z</time>
      </trkpt>
      <trkpt lat="49.49293" lon="1.13528">
        <ele>146.5</ele>
        <time>2022-03-27T09:33:06Z</time>
      </trkpt>
      <trkpt lat="49.49288" lon="1.13524">
        <ele>146.6</ele>
        <time>2022-03-27T09:33:07Z</time>
      </trkpt>
      <trkpt lat="49.4928" lon="1.13516">
        <ele>146.7</ele>
        <time>2022-03-27T09:33:08Z</time>
      </trkpt>
      <trkpt lat="49.49275" lon="1.13512">
        <ele>146.7</ele>
        <time>2022-03-27T09:33:10Z</time>
      </trkpt>
      <trkpt lat="49.49271" lon="1.13509">
        <ele>146.7</ele>
        <time>2022-03-27T09:33:11Z</time>
      </trkpt>
      <trkpt lat="49.49267" lon="1.13505">
        <ele>146.8</ele>
        <time>2022-03-27T09:33:12Z</time>
      </trkpt>
      <trkpt lat="49.49262" lon="1.13501">
        <ele>146.8</ele>
        <time>2022-03-27T09:33:13Z</time>
      </trkpt>
      <trkpt lat="49.49254" lon="1.13493">
        <ele>146.8</ele>
        <time>2022-03-27T09:33:14Z</time>
      </trkpt>
      <trkpt lat="49.4925" lon="1.13489">
        <ele>146.9</ele>
        <time>2022-03-27T09:33:16Z</time>
      </trkpt>
      <trkpt lat="49.49246" lon="1.13484">
        <ele>146.9</ele>
        <time>2022-03-27T09:33:17Z</time>
      </trkpt>
      <trkpt lat="49.49241" lon="1.1348">
        <ele>147</ele>
        <time>2022-03-27T09:33:18Z</time>
      </trkpt>
      <trkpt lat="49.49237" lon="1.13476">
        <ele>147</ele>
        <time>2022-03-27T09:33:19Z</time>
      </trkpt>
      <trkpt lat="49.49233" lon="1.13472">
        <ele>147</ele>
        <time>2022-03-27T09:33:20Z</time>
      </trkpt>
      <trkpt lat="49.49229" lon="1.13467">
        <ele>147.1</ele>
        <time>2022-03-27T09:33:21Z</time>
      </trkpt>
      <trkpt lat="49.49224" lon="1.13463">
        <ele>147.1</ele>
        <time>2022-03-27T09:33:22Z</time>
      </trkpt>
      <trkpt lat="49.4922" lon="1.13458">
        <ele>147.2</ele>
        <time>2022-03-27T09:33:23Z</time>
      </trkpt>
      <trkpt lat="49.49215" lon="1.13454">
        <ele>147.2</ele>
        <time>2022-03-27T09:33:24Z</time>
      </trkpt>
      <trkpt lat="49.49207" lon="1.13445">
        <ele>147.3</ele>
        <time>2022-03-27T09:33:25Z</time>
      </trkpt>
      <trkpt lat="49.49202" lon="1.1344">
        <ele>147.4</ele>
        <time>2022-03-27T09:33:26Z</time>
      </trkpt>
      <trkpt lat="49.49197" lon="1.13436">
        <ele>147.4</ele>
        <time>2022-03-27T09:33:28Z</time>
      </trkpt>
      <trkpt lat="49.49192" lon="1.13431">
        <ele>147.4</ele>
        <time>2022-03-27T09:33:29Z</time>
      </trkpt>
      <trkpt lat="49.49183" lon="1.13423">
        <ele>147.5</ele>
        <time>2022-03-27T09:33:30Z</time>
      </trkpt>
      <trkpt lat="49.49177" lon="1.13419">
        <ele>147.5</ele>
        <time>2022-03-27T09:33:32Z</time>
      </trkpt>
      <trkpt lat="49.49172" lon="1.13415">
        <ele>147.5</ele>
        <time>2022-03-27T09:33:33Z</time>
      </trkpt>
      <trkpt lat="49.49166" lon="1.13412">
        <ele>147.6</ele>
        <time>2022-03-27T09:33:34Z</time>
      </trkpt>
      <trkpt lat="49.49161" lon="1.13409">
        <ele>147.6</ele>
        <time>2022-03-27T09:33:35Z</time>
      </trkpt>
      <trkpt lat="49.49155" lon="1.13406">
        <ele>147.6</ele>
        <time>2022-03-27T09:33:36Z</time>
      </trkpt>
      <trkpt lat="49.49149" lon="1.13402">
        <ele>147.7</ele>
        <time>2022-03-27T09:33:37Z</time>
      </trkpt>
      <trkpt lat="49.49144" lon="1.13399">
        <ele>147.7</ele>
        <time>2022-03-27T09:33:38Z</time>
      </trkpt>
      <trkpt lat="49.49138" lon="1.13395">
        <ele>147.7</ele>
        <time>2022-03-27T09:33:39Z</time>
      </trkpt>
      <trkpt lat="49.49128" lon="1.13388">
        <ele>147.8</ele>
        <time>2022-03-27T09:33:40Z</time>
      </trkpt>
      <trkpt lat="49.49123" lon="1.13385">
        <ele>147.8</ele>
        <time>2022-03-27T09:33:41Z</time>
      </trkpt>
      <trkpt lat="49.49118" lon="1.13382">
        <ele>147.8</ele>
        <time>2022-03-27T09:33:43Z</time>
      </trkpt>
      <trkpt lat="49.49112" lon="1.13379">
        <ele>147.9</ele>
        <time>2022-03-27T09:33:44Z</time>
      </trkpt>
      <trkpt lat="49.49105" lon="1.13377">
        <ele>147.9</ele>
        <time>2022-03-27T09:33:45Z</time>
      </trkpt>
      <trkpt lat="49.49098" lon="1.13374">
        <ele>148</ele>
        <time>2022-03-27T09:33:46Z</time>
      </trkpt>
      <trkpt lat="49.49092" lon="1.13371">
        <ele>148</ele>
        <time>2022-03-27T09:33:47Z</time>
      </trkpt>
      <trkpt lat="49.49087" lon="1.13369">
        <ele>148.1</ele>
        <time>2022-03-27T09:33:48Z</time>
      </trkpt>
      <trkpt lat="49.49082" lon="1.13367">
        <ele>148.1</ele>
        <time>2022-03-27T09:33:49Z</time>
      </trkpt>
      <trkpt lat="49.49077" lon="1.13366">
        <ele>148.2</ele>
        <time>2022-03-27T09:33:50Z</time>
      </trkpt>
      <trkpt lat="49.49071" lon="1.13365">
        <ele>148.2</ele>
        <time>2022-03-27T09:33:51Z</time>
      </trkpt>
      <trkpt lat="49.49065" lon="1.13364">
        <ele>148.3</ele>
        <time>2022-03-27T09:33:52Z</time>
      </trkpt>
      <trkpt lat="49.49059" lon="1.13362">
        <ele>148.4</ele>
        <time>2022-03-27T09:33:53Z</time>
      </trkpt>
      <trkpt lat="49.49054" lon="1.1336">
        <ele>148.5</ele>
        <time>2022-03-27T09:33:54Z</time>
      </trkpt>
      <trkpt lat="49.49048" lon="1.13357">
        <ele>148.5</ele>
        <time>2022-03-27T09:33:55Z</time>
      </trkpt>
      <trkpt lat="49.49043" lon="1.13354">
        <ele>148.6</ele>
        <time>2022-03-27T09:33:56Z</time>
      </trkpt>
      <trkpt lat="49.49037" lon="1.13351">
        <ele>148.7</ele>
        <time>2022-03-27T09:33:57Z</time>
      </trkpt>
      <trkpt lat="49.49032" lon="1.13348">
        <ele>148.9</ele>
        <time>2022-03-27T09:33:58Z</time>
      </trkpt>
      <trkpt lat="49.49027" lon="1.13344">
        <ele>149</ele>
        <time>2022-03-27T09:33:59Z</time>
      </trkpt>
      <trkpt lat="49.49022" lon="1.1334">
        <ele>149.1</ele>
        <time>2022-03-27T09:34:00Z</time>
      </trkpt>
      <trkpt lat="49.49017" lon="1.13336">
        <ele>149.2</ele>
        <time>2022-03-27T09:34:01Z</time>
      </trkpt>
      <trkpt lat="49.49012" lon="1.13331">
        <ele>149.4</ele>
        <time>2022-03-27T09:34:02Z</time>
      </trkpt>
      <trkpt lat="49.49006" lon="1.13326">
        <ele>149.5</ele>
        <time>2022-03-27T09:34:03Z</time>
      </trkpt>
      <trkpt lat="49.49002" lon="1.13321">
        <ele>149.6</ele>
        <time>2022-03-27T09:34:04Z</time>
      </trkpt>
      <trkpt lat="49.48997" lon="1.13317">
        <ele>149.8</ele>
        <time>2022-03-27T09:34:05Z</time>
      </trkpt>
      <trkpt lat="49.48992" lon="1.13312">
        <ele>149.9</ele>
        <time>2022-03-27T09:34:06Z</time>
      </trkpt>
      <trkpt lat="49.48988" lon="1.13303">
        <ele>150</ele>
        <time>2022-03-27T09:34:07Z</time>
      </trkpt>
      <trkpt lat="49.48983" lon="1.13294">
        <ele>150.1</ele>
        <time>2022-03-27T09:34:08Z</time>
      </trkpt>
      <trkpt lat="49.4898" lon="1.13287">
        <ele>150.3</ele>
        <time>2022-03-27T09:34:09Z</time>
      </trkpt>
      <trkpt lat="49.48976" lon="1.1328">
        <ele>150.4</ele>
        <time>2022-03-27T09:34:10Z</time>
      </trkpt>
      <trkpt lat="49.48972" lon="1.13272">
        <ele>150.5</ele>
        <time>2022-03-27T09:34:11Z</time>
      </trkpt>
      <trkpt lat="49.48968" lon="1.13266">
        <ele>150.5</ele>
        <time>2022-03-27T09:34:12Z</time>
      </trkpt>
      <trkpt lat="49.48964" lon="1.1326">
        <ele>150.6</ele>
        <time>2022-03-27T09:34:13Z</time>
      </trkpt>
      <trkpt lat="49.48959" lon="1.13254">
        <ele>150.7</ele>
        <time>2022-03-27T09:34:14Z</time>
      </trkpt>
      <trkpt lat="49.48955" lon="1.13247">
        <ele>150.8</ele>
        <time>2022-03-27T09:34:15Z</time>
      </trkpt>
      <trkpt lat="49.48951" lon="1.13241">
        <ele>150.8</ele>
        <time>2022-03-27T09:34:16Z</time>
      </trkpt>
      <trkpt lat="49.48947" lon="1.13234">
        <ele>150.9</ele>
        <time>2022-03-27T09:34:17Z</time>
      </trkpt>
      <trkpt lat="49.48943" lon="1.13229">
        <ele>151</ele>
        <time>2022-03-27T09:34:18Z</time>
      </trkpt>
      <trkpt lat="49.48938" lon="1.13224">
        <ele>151</ele>
        <time>2022-03-27T09:34:19Z</time>
      </trkpt>
      <trkpt lat="49.48933" lon="1.13221">
        <ele>151.1</ele>
        <time>2022-03-27T09:34:20Z</time>
      </trkpt>
      <trkpt lat="49.48924" lon="1.13209">
        <ele>151.3</ele>
        <time>2022-03-27T09:34:21Z</time>
      </trkpt>
      <trkpt lat="49.48919" lon="1.13203">
        <ele>151.4</ele>
        <time>2022-03-27T09:34:22Z</time>
      </trkpt>
      <trkpt lat="49.48914" lon="1.13197">
        <ele>151.5</ele>
        <time>2022-03-27T09:34:23Z</time>
      </trkpt>
      <trkpt lat="49.48909" lon="1.13191">
        <ele>151.6</ele>
        <time>2022-03-27T09:34:24Z</time>
      </trkpt>
      <trkpt lat="49.48904" lon="1.13186">
        <ele>151.7</ele>
        <time>2022-03-27T09:34:26Z</time>
      </trkpt>
      <trkpt lat="49.489" lon="1.1318">
        <ele>151.8</ele>
        <time>2022-03-27T09:34:27Z</time>
      </trkpt>
      <trkpt lat="49.48896" lon="1.13175">
        <ele>151.8</ele>
        <time>2022-03-27T09:34:28Z</time>
      </trkpt>
      <trkpt lat="49.48892" lon="1.1317">
        <ele>151.9</ele>
        <time>2022-03-27T09:34:29Z</time>
      </trkpt>
      <trkpt lat="49.48888" lon="1.13166">
        <ele>151.9</ele>
        <time>2022-03-27T09:34:30Z</time>
      </trkpt>
      <trkpt lat="49.48884" lon="1.13162">
        <ele>152</ele>
        <time>2022-03-27T09:34:31Z</time>
      </trkpt>
      <trkpt lat="49.4888" lon="1.13158">
        <ele>152</ele>
        <time>2022-03-27T09:34:32Z</time>
      </trkpt>
      <trkpt lat="49.48876" lon="1.13154">
        <ele>152.1</ele>
        <time>2022-03-27T09:34:33Z</time>
      </trkpt>
      <trkpt lat="49.48872" lon="1.1315">
        <ele>152.1</ele>
        <time>2022-03-27T09:34:34Z</time>
      </trkpt>
      <trkpt lat="49.48868" lon="1.13146">
        <ele>152.2</ele>
        <time>2022-03-27T09:34:35Z</time>
      </trkpt>
      <trkpt lat="49.48864" lon="1.13142">
        <ele>152.3</ele>
        <time>2022-03-27T09:34:36Z</time>
      </trkpt>
      <trkpt lat="49.48861" lon="1.13137">
        <ele>152.4</ele>
        <time>2022-03-27T09:34:37Z</time>
      </trkpt>
      <trkpt lat="49.48857" lon="1.13132">
        <ele>152.4</ele>
        <time>2022-03-27T09:34:38Z</time>
      </trkpt>
      <trkpt lat="49.48853" lon="1.13127">
        <ele>152.5</ele>
        <time>2022-03-27T09:34:39Z</time>
      </trkpt>
      <trkpt lat="49.48849" lon="1.13121">
        <ele>152.6</ele>
        <time>2022-03-27T09:34:40Z</time>
      </trkpt>
      <trkpt lat="49.48845" lon="1.13116">
        <ele>152.7</ele>
        <time>2022-03-27T09:34:41Z</time>
      </trkpt>
      <trkpt lat="49.48841" lon="1.13111">
        <ele>152.7</ele>
        <time>2022-03-27T09:34:42Z</time>
      </trkpt>
      <trkpt lat="49.48837" lon="1.13107">
        <ele>152.8</ele>
        <time>2022-03-27T09:34:43Z</time>
      </trkpt>
      <trkpt lat="49.48831" lon="1.13107">
        <ele>152.8</ele>
        <time>2022-03-27T09:34:44Z</time>
      </trkpt>
      <trkpt lat="49.48826" lon="1.1311">
        <ele>152.9</ele>
        <time>2022-03-27T09:34:45Z</time>
      </trkpt>
      <trkpt lat="49.48822" lon="1.13112">
        <ele>152.9</ele>
        <time>2022-03-27T09:34:46Z</time>
      </trkpt>
      <trkpt lat="49.48817" lon="1.13113">
        <ele>152.9</ele>
        <time>2022-03-27T09:34:47Z</time>
      </trkpt>
      <trkpt lat="49.48814" lon="1.13111">
        <ele>152.9</ele>
        <time>2022-03-27T09:34:48Z</time>
      </trkpt>
      <trkpt lat="49.4881" lon="1.13108">
        <ele>152.9</ele>
        <time>2022-03-27T09:34:49Z</time>
      </trkpt>
      <trkpt lat="49.48806" lon="1.13106">
        <ele>152.9</ele>
        <time>2022-03-27T09:34:50Z</time>
      </trkpt>
      <trkpt lat="49.48802" lon="1.13105">
        <ele>152.9</ele>
        <time>2022-03-27T09:34:51Z</time>
      </trkpt>
      <trkpt lat="49.48797" lon="1.13105">
        <ele>153</ele>
        <time>2022-03-27T09:34:52Z</time>
      </trkpt>
      <trkpt lat="49.48793" lon="1.13102">
        <ele>153</ele>
        <time>2022-03-27T09:34:53Z</time>
      </trkpt>
      <trkpt lat="49.4879" lon="1.13098">
        <ele>153.1</ele>
        <time>2022-03-27T09:34:54Z</time>
      </trkpt>
      <trkpt lat="49.48787" lon="1.13096">
        <ele>153.1</ele>
        <time>2022-03-27T09:34:55Z</time>
      </trkpt>
      <trkpt lat="49.48784" lon="1.13092">
        <ele>153.2</ele>
        <time>2022-03-27T09:34:56Z</time>
      </trkpt>
      <trkpt lat="49.48782" lon="1.13087">
        <ele>153.2</ele>
        <time>2022-03-27T09:34:57Z</time>
      </trkpt>
      <trkpt lat="49.48781" lon="1.13081">
        <ele>153.3</ele>
        <time>2022-03-27T09:34:58Z</time>
      </trkpt>
      <trkpt lat="49.48779" lon="1.13071">
        <ele>153.4</ele>
        <time>2022-03-27T09:34:59Z</time>
      </trkpt>
      <trkpt lat="49.48777" lon="1.13066">
        <ele>153.4</ele>
        <time>2022-03-27T09:35:01Z</time>
      </trkpt>
      <trkpt lat="49.48775" lon="1.13058">
        <ele>153.5</ele>
        <time>2022-03-27T09:35:02Z</time>
      </trkpt>
      <trkpt lat="49.48773" lon="1.13054">
        <ele>153.5</ele>
        <time>2022-03-27T09:35:04Z</time>
      </trkpt>
      <trkpt lat="49.48772" lon="1.13051">
        <ele>153.6</ele>
        <time>2022-03-27T09:35:05Z</time>
      </trkpt>
      <trkpt lat="49.4877" lon="1.13046">
        <ele>153.6</ele>
        <time>2022-03-27T09:35:07Z</time>
      </trkpt>
      <trkpt lat="49.48769" lon="1.13045">
        <ele>153.6</ele>
        <time>2022-03-27T09:35:08Z</time>
      </trkpt>
      <trkpt lat="49.48768" lon="1.13043">
        <ele>153.6</ele>
        <time>2022-03-27T09:35:09Z</time>
      </trkpt>
      <trkpt lat="49.48767" lon="1.13041">
        <ele>153.7</ele>
        <time>2022-03-27T09:35:10Z</time>
      </trkpt>
      <trkpt lat="49.48766" lon="1.13039">
        <ele>153.7</ele>
        <time>2022-03-27T09:35:11Z</time>
      </trkpt>
      <trkpt lat="49.48764" lon="1.13037">
        <ele>153.7</ele>
        <time>2022-03-27T09:35:12Z</time>
      </trkpt>
      <trkpt lat="49.48763" lon="1.13035">
        <ele>153.8</ele>
        <time>2022-03-27T09:35:13Z</time>
      </trkpt>
      <trkpt lat="49.4876" lon="1.13031">
        <ele>153.8</ele>
        <time>2022-03-27T09:35:15Z</time>
      </trkpt>
      <trkpt lat="49.48757" lon="1.13027">
        <ele>153.9</ele>
        <time>2022-03-27T09:35:16Z</time>
      </trkpt>
      <trkpt lat="49.48756" lon="1.13025">
        <ele>153.9</ele>
        <time>2022-03-27T09:35:17Z</time>
      </trkpt>
      <trkpt lat="49.48754" lon="1.13023">
        <ele>154</ele>
        <time>2022-03-27T09:35:18Z</time>
      </trkpt>
      <trkpt lat="49.48749" lon="1.13016">
        <ele>154.1</ele>
        <time>2022-03-27T09:35:19Z</time>
      </trkpt>
      <trkpt lat="49.48741" lon="1.13007">
        <ele>154.3</ele>
        <time>2022-03-27T09:35:21Z</time>
      </trkpt>
      <trkpt lat="49.48738" lon="1.13005">
        <ele>154.4</ele>
        <time>2022-03-27T09:35:22Z</time>
      </trkpt>
      <trkpt lat="49.48735" lon="1.12999">
        <ele>154.5</ele>
        <time>2022-03-27T09:35:24Z</time>
      </trkpt>
      <trkpt lat="49.48731" lon="1.12994">
        <ele>154.6</ele>
        <time>2022-03-27T09:35:25Z</time>
      </trkpt>
      <trkpt lat="49.48728" lon="1.12988">
        <ele>154.8</ele>
        <time>2022-03-27T09:35:26Z</time>
      </trkpt>
      <trkpt lat="49.48722" lon="1.12979">
        <ele>155</ele>
        <time>2022-03-27T09:35:27Z</time>
      </trkpt>
      <trkpt lat="49.48719" lon="1.12974">
        <ele>155.1</ele>
        <time>2022-03-27T09:35:28Z</time>
      </trkpt>
      <trkpt lat="49.48714" lon="1.12965">
        <ele>155.3</ele>
        <time>2022-03-27T09:35:30Z</time>
      </trkpt>
      <trkpt lat="49.4871" lon="1.12959">
        <ele>155.4</ele>
        <time>2022-03-27T09:35:31Z</time>
      </trkpt>
      <trkpt lat="49.48707" lon="1.12954">
        <ele>155.5</ele>
        <time>2022-03-27T09:35:32Z</time>
      </trkpt>
      <trkpt lat="49.48704" lon="1.12948">
        <ele>155.6</ele>
        <time>2022-03-27T09:35:34Z</time>
      </trkpt>
      <trkpt lat="49.48701" lon="1.12942">
        <ele>155.6</ele>
        <time>2022-03-27T09:35:35Z</time>
      </trkpt>
      <trkpt lat="49.48698" lon="1.12933">
        <ele>155.8</ele>
        <time>2022-03-27T09:35:36Z</time>
      </trkpt>
      <trkpt lat="49.48695" lon="1.12929">
        <ele>155.8</ele>
        <time>2022-03-27T09:35:38Z</time>
      </trkpt>
      <trkpt lat="49.48692" lon="1.12922">
        <ele>155.9</ele>
        <time>2022-03-27T09:35:39Z</time>
      </trkpt>
      <trkpt lat="49.48691" lon="1.12917">
        <ele>155.9</ele>
        <time>2022-03-27T09:35:40Z</time>
      </trkpt>
      <trkpt lat="49.48692" lon="1.12911">
        <ele>156</ele>
        <time>2022-03-27T09:35:42Z</time>
      </trkpt>
      <trkpt lat="49.48693" lon="1.1291">
        <ele>156</ele>
        <time>2022-03-27T09:35:43Z</time>
      </trkpt>
      <trkpt lat="49.48694" lon="1.12908">
        <ele>156</ele>
        <time>2022-03-27T09:35:44Z</time>
      </trkpt>
      <trkpt lat="49.48695" lon="1.12908">
        <ele>156.1</ele>
        <time>2022-03-27T09:35:45Z</time>
      </trkpt>
      <trkpt lat="49.48696" lon="1.12908">
        <ele>156.1</ele>
        <time>2022-03-27T09:35:46Z</time>
      </trkpt>
      <trkpt lat="49.48696" lon="1.12907">
        <ele>156.1</ele>
        <time>2022-03-27T09:35:47Z</time>
      </trkpt>
      <trkpt lat="49.48696" lon="1.12907">
        <ele>156.1</ele>
        <time>2022-03-27T09:35:48Z</time>
      </trkpt>
      <trkpt lat="49.48696" lon="1.12907">
        <ele>156.1</ele>
        <time>2022-03-27T09:35:49Z</time>
      </trkpt>
      <trkpt lat="49.48697" lon="1.12907">
        <ele>156.1</ele>
        <time>2022-03-27T09:35:51Z</time>
      </trkpt>
      <trkpt lat="49.48697" lon="1.12906">
        <ele>156.1</ele>
        <time>2022-03-27T09:35:52Z</time>
      </trkpt>
      <trkpt lat="49.48697" lon="1.12902">
        <ele>156.1</ele>
        <time>2022-03-27T09:36:07Z</time>
      </trkpt>
      <trkpt lat="49.48697" lon="1.129">
        <ele>156.1</ele>
        <time>2022-03-27T09:36:08Z</time>
      </trkpt>
      <trkpt lat="49.48697" lon="1.129">
        <ele>156.2</ele>
        <time>2022-03-27T09:36:09Z</time>
      </trkpt>
      <trkpt lat="49.48698" lon="1.12899">
        <ele>156.2</ele>
        <time>2022-03-27T09:36:10Z</time>
      </trkpt>
      <trkpt lat="49.48698" lon="1.12899">
        <ele>156.2</ele>
        <time>2022-03-27T09:36:11Z</time>
      </trkpt>
      <trkpt lat="49.48698" lon="1.12898">
        <ele>156.2</ele>
        <time>2022-03-27T09:36:12Z</time>
      </trkpt>
      <trkpt lat="49.48698" lon="1.12898">
        <ele>156.2</ele>
        <time>2022-03-27T09:36:14Z</time>
      </trkpt>
      <trkpt lat="49.48699" lon="1.12898">
        <ele>156.2</ele>
        <time>2022-03-27T09:36:15Z</time>
      </trkpt>
      <trkpt lat="49.487" lon="1.12897">
        <ele>156.2</ele>
        <time>2022-03-27T09:36:17Z</time>
      </trkpt>
      <trkpt lat="49.487" lon="1.12896">
        <ele>156.2</ele>
        <time>2022-03-27T09:36:18Z</time>
      </trkpt>
      <trkpt lat="49.487" lon="1.12896">
        <ele>156.2</ele>
        <time>2022-03-27T09:36:20Z</time>
      </trkpt>
      <trkpt lat="49.487" lon="1.12895">
        <ele>156.2</ele>
        <time>2022-03-27T09:36:22Z</time>
      </trkpt>
      <trkpt lat="49.487" lon="1.12894">
        <ele>156.2</ele>
        <time>2022-03-27T09:36:24Z</time>
      </trkpt>
      <trkpt lat="49.48701" lon="1.12895">
        <ele>156.3</ele>
        <time>2022-03-27T09:36:25Z</time>
      </trkpt>
      <trkpt lat="49.48701" lon="1.12894">
        <ele>156.3</ele>
        <time>2022-03-27T09:36:27Z</time>
      </trkpt>
      <trkpt lat="49.48701" lon="1.12894">
        <ele>156.3</ele>
        <time>2022-03-27T09:36:28Z</time>
      </trkpt>
      <trkpt lat="49.48701" lon="1.12894">
        <ele>156.3</ele>
        <time>2022-03-27T09:36:29Z</time>
      </trkpt>
      <trkpt lat="49.48701" lon="1.12893">
        <ele>156.3</ele>
        <time>2022-03-27T09:36:30Z</time>
      </trkpt>
      <trkpt lat="49.48701" lon="1.12893">
        <ele>156.3</ele>
        <time>2022-03-27T09:36:32Z</time>
      </trkpt>
      <trkpt lat="49.48701" lon="1.12893">
        <ele>156.3</ele>
        <time>2022-03-27T09:36:33Z</time>
      </trkpt>
      <trkpt lat="49.48701" lon="1.12893">
        <ele>156.3</ele>
        <time>2022-03-27T09:36:34Z</time>
      </trkpt>
      <trkpt lat="49.48701" lon="1.12893">
        <ele>156.3</ele>
        <time>2022-03-27T09:36:35Z</time>
      </trkpt>
      <trkpt lat="49.48701" lon="1.12893">
        <ele>156.3</ele>
        <time>2022-03-27T09:36:36Z</time>
      </trkpt>
      <trkpt lat="49.48701" lon="1.12892">
        <ele>156.3</ele>
        <time>2022-03-27T09:36:38Z</time>
      </trkpt>
      <trkpt lat="49.487" lon="1.12892">
        <ele>156.3</ele>
        <time>2022-03-27T09:36:39Z</time>
      </trkpt>
      <trkpt lat="49.487" lon="1.12892">
        <ele>156.3</ele>
        <time>2022-03-27T09:36:40Z</time>
      </trkpt>
      <trkpt lat="49.487" lon="1.12892">
        <ele>156.3</ele>
        <time>2022-03-27T09:36:42Z</time>
      </trkpt>
      <trkpt lat="49.487" lon="1.12892">
        <ele>156.3</ele>
        <time>2022-03-27T09:36:43Z</time>
      </trkpt>
      <trkpt lat="49.487" lon="1.12892">
        <ele>156.3</ele>
        <time>2022-03-27T09:36:44Z</time>
      </trkpt>
      <trkpt lat="49.487" lon="1.12892">
        <ele>156.3</ele>
        <time>2022-03-27T09:36:45Z</time>
      </trkpt>
      <trkpt lat="49.487" lon="1.12891">
        <ele>156.3</ele>
        <time>2022-03-27T09:36:47Z</time>
      </trkpt>
      <trkpt lat="49.487" lon="1.12891">
        <ele>156.3</ele>
        <time>2022-03-27T09:36:48Z</time>
      </trkpt>
      <trkpt lat="49.487" lon="1.12891">
        <ele>156.3</ele>
        <time>2022-03-27T09:36:50Z</time>
      </trkpt>
      <trkpt lat="49.487" lon="1.12891">
        <ele>156.3</ele>
        <time>2022-03-27T09:36:52Z</time>
      </trkpt>
      <trkpt lat="49.487" lon="1.12891">
        <ele>156.3</ele>
        <time>2022-03-27T09:36:53Z</time>
      </trkpt>
      <trkpt lat="49.487" lon="1.12891">
        <ele>156.3</ele>
        <time>2022-03-27T09:36:55Z</time>
      </trkpt>
      <trkpt lat="49.487" lon="1.1289">
        <ele>156.3</ele>
        <time>2022-03-27T09:36:56Z</time>
      </trkpt>
      <trkpt lat="49.487" lon="1.1289">
        <ele>156.3</ele>
        <time>2022-03-27T09:36:57Z</time>
      </trkpt>
      <trkpt lat="49.48699" lon="1.1289">
        <ele>156.3</ele>
        <time>2022-03-27T09:36:58Z</time>
      </trkpt>
      <trkpt lat="49.48699" lon="1.1289">
        <ele>156.3</ele>
        <time>2022-03-27T09:36:59Z</time>
      </trkpt>
      <trkpt lat="49.48699" lon="1.12888">
        <ele>156.4</ele>
        <time>2022-03-27T09:37:00Z</time>
      </trkpt>
      <trkpt lat="49.48697" lon="1.12886">
        <ele>156.4</ele>
        <time>2022-03-27T09:37:01Z</time>
      </trkpt>
      <trkpt lat="49.48695" lon="1.12882">
        <ele>156.5</ele>
        <time>2022-03-27T09:37:02Z</time>
      </trkpt>
      <trkpt lat="49.48693" lon="1.12879">
        <ele>156.5</ele>
        <time>2022-03-27T09:37:03Z</time>
      </trkpt>
      <trkpt lat="49.48689" lon="1.12876">
        <ele>156.6</ele>
        <time>2022-03-27T09:37:05Z</time>
      </trkpt>
      <trkpt lat="49.48686" lon="1.12874">
        <ele>156.6</ele>
        <time>2022-03-27T09:37:06Z</time>
      </trkpt>
      <trkpt lat="49.48681" lon="1.1287">
        <ele>156.8</ele>
        <time>2022-03-27T09:37:07Z</time>
      </trkpt>
      <trkpt lat="49.48669" lon="1.12856">
        <ele>157.1</ele>
        <time>2022-03-27T09:37:08Z</time>
      </trkpt>
      <trkpt lat="49.48663" lon="1.12847">
        <ele>157.3</ele>
        <time>2022-03-27T09:37:09Z</time>
      </trkpt>
      <trkpt lat="49.48656" lon="1.12839">
        <ele>157.5</ele>
        <time>2022-03-27T09:37:10Z</time>
      </trkpt>
      <trkpt lat="49.48651" lon="1.12833">
        <ele>157.7</ele>
        <time>2022-03-27T09:37:12Z</time>
      </trkpt>
      <trkpt lat="49.48646" lon="1.12827">
        <ele>157.8</ele>
        <time>2022-03-27T09:37:13Z</time>
      </trkpt>
      <trkpt lat="49.48642" lon="1.12823">
        <ele>157.9</ele>
        <time>2022-03-27T09:37:14Z</time>
      </trkpt>
      <trkpt lat="49.48638" lon="1.12818">
        <ele>158</ele>
        <time>2022-03-27T09:37:15Z</time>
      </trkpt>
      <trkpt lat="49.48635" lon="1.12814">
        <ele>158.1</ele>
        <time>2022-03-27T09:37:16Z</time>
      </trkpt>
      <trkpt lat="49.48631" lon="1.12809">
        <ele>158.2</ele>
        <time>2022-03-27T09:37:17Z</time>
      </trkpt>
      <trkpt lat="49.48627" lon="1.12805">
        <ele>158.3</ele>
        <time>2022-03-27T09:37:18Z</time>
      </trkpt>
      <trkpt lat="49.48624" lon="1.12801">
        <ele>158.4</ele>
        <time>2022-03-27T09:37:19Z</time>
      </trkpt>
      <trkpt lat="49.4862" lon="1.12797">
        <ele>158.5</ele>
        <time>2022-03-27T09:37:20Z</time>
      </trkpt>
      <trkpt lat="49.48617" lon="1.12793">
        <ele>158.6</ele>
        <time>2022-03-27T09:37:21Z</time>
      </trkpt>
      <trkpt lat="49.48613" lon="1.12789">
        <ele>158.6</ele>
        <time>2022-03-27T09:37:22Z</time>
      </trkpt>
      <trkpt lat="49.4861" lon="1.12787">
        <ele>158.7</ele>
        <time>2022-03-27T09:37:23Z</time>
      </trkpt>
      <trkpt lat="49.48606" lon="1.12785">
        <ele>158.7</ele>
        <time>2022-03-27T09:37:24Z</time>
      </trkpt>
      <trkpt lat="49.48602" lon="1.12782">
        <ele>158.8</ele>
        <time>2022-03-27T09:37:25Z</time>
      </trkpt>
      <trkpt lat="49.48597" lon="1.1278">
        <ele>158.8</ele>
        <time>2022-03-27T09:37:26Z</time>
      </trkpt>
      <trkpt lat="49.48593" lon="1.12779">
        <ele>158.9</ele>
        <time>2022-03-27T09:37:27Z</time>
      </trkpt>
      <trkpt lat="49.48588" lon="1.12778">
        <ele>158.9</ele>
        <time>2022-03-27T09:37:28Z</time>
      </trkpt>
      <trkpt lat="49.48584" lon="1.12776">
        <ele>158.9</ele>
        <time>2022-03-27T09:37:29Z</time>
      </trkpt>
      <trkpt lat="49.48579" lon="1.12775">
        <ele>159</ele>
        <time>2022-03-27T09:37:30Z</time>
      </trkpt>
      <trkpt lat="49.48575" lon="1.12774">
        <ele>159</ele>
        <time>2022-03-27T09:37:31Z</time>
      </trkpt>
      <trkpt lat="49.48571" lon="1.12774">
        <ele>159</ele>
        <time>2022-03-27T09:37:32Z</time>
      </trkpt>
      <trkpt lat="49.48566" lon="1.12772">
        <ele>159</ele>
        <time>2022-03-27T09:37:33Z</time>
      </trkpt>
      <trkpt lat="49.4856" lon="1.1277">
        <ele>159.1</ele>
        <time>2022-03-27T09:37:34Z</time>
      </trkpt>
      <trkpt lat="49.48555" lon="1.12766">
        <ele>159.1</ele>
        <time>2022-03-27T09:37:35Z</time>
      </trkpt>
      <trkpt lat="49.48551" lon="1.12763">
        <ele>159.1</ele>
        <time>2022-03-27T09:37:36Z</time>
      </trkpt>
      <trkpt lat="49.48546" lon="1.1276">
        <ele>159.2</ele>
        <time>2022-03-27T09:37:37Z</time>
      </trkpt>
      <trkpt lat="49.48542" lon="1.12757">
        <ele>159.2</ele>
        <time>2022-03-27T09:37:38Z</time>
      </trkpt>
      <trkpt lat="49.48538" lon="1.12754">
        <ele>159.3</ele>
        <time>2022-03-27T09:37:39Z</time>
      </trkpt>
      <trkpt lat="49.48534" lon="1.1275">
        <ele>159.3</ele>
        <time>2022-03-27T09:37:40Z</time>
      </trkpt>
      <trkpt lat="49.4853" lon="1.12747">
        <ele>159.3</ele>
        <time>2022-03-27T09:37:41Z</time>
      </trkpt>
      <trkpt lat="49.48527" lon="1.12744">
        <ele>159.4</ele>
        <time>2022-03-27T09:37:42Z</time>
      </trkpt>
      <trkpt lat="49.48523" lon="1.1274">
        <ele>159.4</ele>
        <time>2022-03-27T09:37:43Z</time>
      </trkpt>
      <trkpt lat="49.48519" lon="1.12736">
        <ele>159.5</ele>
        <time>2022-03-27T09:37:44Z</time>
      </trkpt>
      <trkpt lat="49.48516" lon="1.12732">
        <ele>159.5</ele>
        <time>2022-03-27T09:37:45Z</time>
      </trkpt>
      <trkpt lat="49.48512" lon="1.12727">
        <ele>159.5</ele>
        <time>2022-03-27T09:37:46Z</time>
      </trkpt>
      <trkpt lat="49.4851" lon="1.12725">
        <ele>159.5</ele>
        <time>2022-03-27T09:37:47Z</time>
      </trkpt>
      <trkpt lat="49.48506" lon="1.12721">
        <ele>159.5</ele>
        <time>2022-03-27T09:37:48Z</time>
      </trkpt>
      <trkpt lat="49.48503" lon="1.12714">
        <ele>159.5</ele>
        <time>2022-03-27T09:37:49Z</time>
      </trkpt>
      <trkpt lat="49.48495" lon="1.12702">
        <ele>159.5</ele>
        <time>2022-03-27T09:37:50Z</time>
      </trkpt>
      <trkpt lat="49.48489" lon="1.12696">
        <ele>159.5</ele>
        <time>2022-03-27T09:37:52Z</time>
      </trkpt>
      <trkpt lat="49.48485" lon="1.1269">
        <ele>159.4</ele>
        <time>2022-03-27T09:37:53Z</time>
      </trkpt>
      <trkpt lat="49.48481" lon="1.12685">
        <ele>159.4</ele>
        <time>2022-03-27T09:37:54Z</time>
      </trkpt>
      <trkpt lat="49.48473" lon="1.12675">
        <ele>159.3</ele>
        <time>2022-03-27T09:37:55Z</time>
      </trkpt>
      <trkpt lat="49.48469" lon="1.12669">
        <ele>159.2</ele>
        <time>2022-03-27T09:37:57Z</time>
      </trkpt>
      <trkpt lat="49.48464" lon="1.12664">
        <ele>159.1</ele>
        <time>2022-03-27T09:37:58Z</time>
      </trkpt>
      <trkpt lat="49.4846" lon="1.12658">
        <ele>159</ele>
        <time>2022-03-27T09:37:59Z</time>
      </trkpt>
      <trkpt lat="49.48456" lon="1.12653">
        <ele>158.8</ele>
        <time>2022-03-27T09:38:00Z</time>
      </trkpt>
      <trkpt lat="49.48452" lon="1.12647">
        <ele>158.7</ele>
        <time>2022-03-27T09:38:01Z</time>
      </trkpt>
      <trkpt lat="49.48447" lon="1.1264">
        <ele>158.6</ele>
        <time>2022-03-27T09:38:02Z</time>
      </trkpt>
      <trkpt lat="49.48438" lon="1.12628">
        <ele>158.3</ele>
        <time>2022-03-27T09:38:03Z</time>
      </trkpt>
      <trkpt lat="49.48434" lon="1.12621">
        <ele>158.2</ele>
        <time>2022-03-27T09:38:05Z</time>
      </trkpt>
      <trkpt lat="49.48429" lon="1.12615">
        <ele>158</ele>
        <time>2022-03-27T09:38:06Z</time>
      </trkpt>
      <trkpt lat="49.48424" lon="1.12609">
        <ele>157.9</ele>
        <time>2022-03-27T09:38:07Z</time>
      </trkpt>
      <trkpt lat="49.48419" lon="1.12602">
        <ele>157.8</ele>
        <time>2022-03-27T09:38:08Z</time>
      </trkpt>
      <trkpt lat="49.48414" lon="1.12596">
        <ele>157.6</ele>
        <time>2022-03-27T09:38:09Z</time>
      </trkpt>
      <trkpt lat="49.4841" lon="1.12589">
        <ele>157.5</ele>
        <time>2022-03-27T09:38:10Z</time>
      </trkpt>
      <trkpt lat="49.48405" lon="1.12583">
        <ele>157.3</ele>
        <time>2022-03-27T09:38:11Z</time>
      </trkpt>
      <trkpt lat="49.484" lon="1.12576">
        <ele>157.2</ele>
        <time>2022-03-27T09:38:12Z</time>
      </trkpt>
      <trkpt lat="49.48395" lon="1.12569">
        <ele>157</ele>
        <time>2022-03-27T09:38:13Z</time>
      </trkpt>
      <trkpt lat="49.48386" lon="1.12556">
        <ele>156.8</ele>
        <time>2022-03-27T09:38:14Z</time>
      </trkpt>
      <trkpt lat="49.48381" lon="1.1255">
        <ele>156.7</ele>
        <time>2022-03-27T09:38:16Z</time>
      </trkpt>
      <trkpt lat="49.48376" lon="1.12543">
        <ele>156.5</ele>
        <time>2022-03-27T09:38:17Z</time>
      </trkpt>
      <trkpt lat="49.48371" lon="1.12538">
        <ele>156.4</ele>
        <time>2022-03-27T09:38:18Z</time>
      </trkpt>
      <trkpt lat="49.48366" lon="1.12532">
        <ele>156.3</ele>
        <time>2022-03-27T09:38:19Z</time>
      </trkpt>
      <trkpt lat="49.48362" lon="1.12526">
        <ele>156.2</ele>
        <time>2022-03-27T09:38:20Z</time>
      </trkpt>
      <trkpt lat="49.48361" lon="1.12522">
        <ele>156.1</ele>
        <time>2022-03-27T09:38:21Z</time>
      </trkpt>
      <trkpt lat="49.48362" lon="1.12513">
        <ele>156.2</ele>
        <time>2022-03-27T09:38:22Z</time>
      </trkpt>
      <trkpt lat="49.48371" lon="1.12502">
        <ele>156.4</ele>
        <time>2022-03-27T09:38:23Z</time>
      </trkpt>
      <trkpt lat="49.48383" lon="1.12502">
        <ele>156.7</ele>
        <time>2022-03-27T09:38:25Z</time>
      </trkpt>
      <trkpt lat="49.48389" lon="1.12504">
        <ele>156.8</ele>
        <time>2022-03-27T09:38:27Z</time>
      </trkpt>
      <trkpt lat="49.48394" lon="1.12507">
        <ele>156.9</ele>
        <time>2022-03-27T09:38:28Z</time>
      </trkpt>
      <trkpt lat="49.484" lon="1.12509">
        <ele>156.9</ele>
        <time>2022-03-27T09:38:29Z</time>
      </trkpt>
      <trkpt lat="49.48406" lon="1.12512">
        <ele>157</ele>
        <time>2022-03-27T09:38:30Z</time>
      </trkpt>
      <trkpt lat="49.48411" lon="1.12515">
        <ele>157.1</ele>
        <time>2022-03-27T09:38:31Z</time>
      </trkpt>
      <trkpt lat="49.48422" lon="1.12521">
        <ele>157.3</ele>
        <time>2022-03-27T09:38:32Z</time>
      </trkpt>
      <trkpt lat="49.48427" lon="1.12524">
        <ele>157.4</ele>
        <time>2022-03-27T09:38:34Z</time>
      </trkpt>
      <trkpt lat="49.48431" lon="1.12527">
        <ele>157.4</ele>
        <time>2022-03-27T09:38:35Z</time>
      </trkpt>
      <trkpt lat="49.48436" lon="1.12529">
        <ele>157.5</ele>
        <time>2022-03-27T09:38:36Z</time>
      </trkpt>
      <trkpt lat="49.4844" lon="1.1253">
        <ele>157.5</ele>
        <time>2022-03-27T09:38:37Z</time>
      </trkpt>
      <trkpt lat="49.48444" lon="1.12532">
        <ele>157.6</ele>
        <time>2022-03-27T09:38:38Z</time>
      </trkpt>
      <trkpt lat="49.48448" lon="1.12534">
        <ele>157.6</ele>
        <time>2022-03-27T09:38:39Z</time>
      </trkpt>
      <trkpt lat="49.48452" lon="1.12537">
        <ele>157.7</ele>
        <time>2022-03-27T09:38:40Z</time>
      </trkpt>
      <trkpt lat="49.48457" lon="1.12541">
        <ele>157.7</ele>
        <time>2022-03-27T09:38:41Z</time>
      </trkpt>
      <trkpt lat="49.48462" lon="1.12544">
        <ele>157.8</ele>
        <time>2022-03-27T09:38:42Z</time>
      </trkpt>
      <trkpt lat="49.48467" lon="1.12547">
        <ele>158</ele>
        <time>2022-03-27T09:38:43Z</time>
      </trkpt>
      <trkpt lat="49.48471" lon="1.1255">
        <ele>158.1</ele>
        <time>2022-03-27T09:38:44Z</time>
      </trkpt>
      <trkpt lat="49.48474" lon="1.1255">
        <ele>158.2</ele>
        <time>2022-03-27T09:38:45Z</time>
      </trkpt>
      <trkpt lat="49.48478" lon="1.12551">
        <ele>158.3</ele>
        <time>2022-03-27T09:38:46Z</time>
      </trkpt>
      <trkpt lat="49.4848" lon="1.12543">
        <ele>158.4</ele>
        <time>2022-03-27T09:38:47Z</time>
      </trkpt>
      <trkpt lat="49.48481" lon="1.12537">
        <ele>158.5</ele>
        <time>2022-03-27T09:38:48Z</time>
      </trkpt>
      <trkpt lat="49.48481" lon="1.12531">
        <ele>158.6</ele>
        <time>2022-03-27T09:38:49Z</time>
      </trkpt>
      <trkpt lat="49.48481" lon="1.12525">
        <ele>158.7</ele>
        <time>2022-03-27T09:38:50Z</time>
      </trkpt>
      <trkpt lat="49.48482" lon="1.12513">
        <ele>158.9</ele>
        <time>2022-03-27T09:38:51Z</time>
      </trkpt>
      <trkpt lat="49.48483" lon="1.12506">
        <ele>159</ele>
        <time>2022-03-27T09:38:52Z</time>
      </trkpt>
      <trkpt lat="49.48483" lon="1.12499">
        <ele>159.1</ele>
        <time>2022-03-27T09:38:54Z</time>
      </trkpt>
      <trkpt lat="49.48484" lon="1.12492">
        <ele>159.2</ele>
        <time>2022-03-27T09:38:55Z</time>
      </trkpt>
      <trkpt lat="49.48484" lon="1.12482">
        <ele>159.4</ele>
        <time>2022-03-27T09:38:56Z</time>
      </trkpt>
      <trkpt lat="49.48483" lon="1.12476">
        <ele>159.4</ele>
        <time>2022-03-27T09:38:57Z</time>
      </trkpt>
      <trkpt lat="49.48481" lon="1.12472">
        <ele>159.5</ele>
        <time>2022-03-27T09:38:58Z</time>
      </trkpt>
      <trkpt lat="49.48478" lon="1.12468">
        <ele>159.6</ele>
        <time>2022-03-27T09:38:59Z</time>
      </trkpt>
      <trkpt lat="49.48473" lon="1.12461">
        <ele>159.6</ele>
        <time>2022-03-27T09:39:00Z</time>
      </trkpt>
      <trkpt lat="49.48468" lon="1.12455">
        <ele>159.6</ele>
        <time>2022-03-27T09:39:01Z</time>
      </trkpt>
      <trkpt lat="49.48464" lon="1.1245">
        <ele>159.5</ele>
        <time>2022-03-27T09:39:02Z</time>
      </trkpt>
      <trkpt lat="49.48457" lon="1.1244">
        <ele>159.4</ele>
        <time>2022-03-27T09:39:04Z</time>
      </trkpt>
      <trkpt lat="49.48452" lon="1.12437">
        <ele>159.3</ele>
        <time>2022-03-27T09:39:05Z</time>
      </trkpt>
      <trkpt lat="49.48448" lon="1.12434">
        <ele>159.3</ele>
        <time>2022-03-27T09:39:06Z</time>
      </trkpt>
      <trkpt lat="49.48443" lon="1.12431">
        <ele>159.2</ele>
        <time>2022-03-27T09:39:07Z</time>
      </trkpt>
      <trkpt lat="49.48438" lon="1.12429">
        <ele>159.2</ele>
        <time>2022-03-27T09:39:08Z</time>
      </trkpt>
      <trkpt lat="49.48433" lon="1.12426">
        <ele>159.2</ele>
        <time>2022-03-27T09:39:09Z</time>
      </trkpt>
      <trkpt lat="49.48429" lon="1.12423">
        <ele>159.2</ele>
        <time>2022-03-27T09:39:10Z</time>
      </trkpt>
      <trkpt lat="49.48422" lon="1.12416">
        <ele>159.1</ele>
        <time>2022-03-27T09:39:12Z</time>
      </trkpt>
      <trkpt lat="49.48419" lon="1.12413">
        <ele>159.1</ele>
        <time>2022-03-27T09:39:13Z</time>
      </trkpt>
      <trkpt lat="49.48416" lon="1.12409">
        <ele>159.1</ele>
        <time>2022-03-27T09:39:14Z</time>
      </trkpt>
      <trkpt lat="49.48413" lon="1.12403">
        <ele>159.1</ele>
        <time>2022-03-27T09:39:15Z</time>
      </trkpt>
      <trkpt lat="49.48416" lon="1.12396">
        <ele>159</ele>
        <time>2022-03-27T09:39:17Z</time>
      </trkpt>
      <trkpt lat="49.48413" lon="1.12391">
        <ele>159</ele>
        <time>2022-03-27T09:39:18Z</time>
      </trkpt>
      <trkpt lat="49.4841" lon="1.12386">
        <ele>159</ele>
        <time>2022-03-27T09:39:19Z</time>
      </trkpt>
      <trkpt lat="49.48406" lon="1.12381">
        <ele>159</ele>
        <time>2022-03-27T09:39:20Z</time>
      </trkpt>
      <trkpt lat="49.48403" lon="1.12375">
        <ele>159</ele>
        <time>2022-03-27T09:39:21Z</time>
      </trkpt>
      <trkpt lat="49.48399" lon="1.12369">
        <ele>159</ele>
        <time>2022-03-27T09:39:22Z</time>
      </trkpt>
      <trkpt lat="49.48396" lon="1.12364">
        <ele>159</ele>
        <time>2022-03-27T09:39:23Z</time>
      </trkpt>
      <trkpt lat="49.48393" lon="1.12359">
        <ele>159</ele>
        <time>2022-03-27T09:39:24Z</time>
      </trkpt>
      <trkpt lat="49.4839" lon="1.12354">
        <ele>159</ele>
        <time>2022-03-27T09:39:25Z</time>
      </trkpt>
      <trkpt lat="49.48385" lon="1.12343">
        <ele>158.9</ele>
        <time>2022-03-27T09:39:26Z</time>
      </trkpt>
      <trkpt lat="49.48382" lon="1.12339">
        <ele>158.9</ele>
        <time>2022-03-27T09:39:28Z</time>
      </trkpt>
      <trkpt lat="49.48379" lon="1.12334">
        <ele>158.9</ele>
        <time>2022-03-27T09:39:29Z</time>
      </trkpt>
      <trkpt lat="49.48375" lon="1.12325">
        <ele>158.8</ele>
        <time>2022-03-27T09:39:30Z</time>
      </trkpt>
      <trkpt lat="49.48371" lon="1.12319">
        <ele>158.7</ele>
        <time>2022-03-27T09:39:31Z</time>
      </trkpt>
      <trkpt lat="49.48368" lon="1.12313">
        <ele>158.7</ele>
        <time>2022-03-27T09:39:32Z</time>
      </trkpt>
      <trkpt lat="49.48365" lon="1.12306">
        <ele>158.6</ele>
        <time>2022-03-27T09:39:33Z</time>
      </trkpt>
      <trkpt lat="49.48362" lon="1.123">
        <ele>158.6</ele>
        <time>2022-03-27T09:39:34Z</time>
      </trkpt>
      <trkpt lat="49.48358" lon="1.12294">
        <ele>158.5</ele>
        <time>2022-03-27T09:39:35Z</time>
      </trkpt>
      <trkpt lat="49.48354" lon="1.12287">
        <ele>158.4</ele>
        <time>2022-03-27T09:39:36Z</time>
      </trkpt>
      <trkpt lat="49.48351" lon="1.12281">
        <ele>158.4</ele>
        <time>2022-03-27T09:39:37Z</time>
      </trkpt>
      <trkpt lat="49.48347" lon="1.12274">
        <ele>158.3</ele>
        <time>2022-03-27T09:39:38Z</time>
      </trkpt>
      <trkpt lat="49.48343" lon="1.12268">
        <ele>158.2</ele>
        <time>2022-03-27T09:39:39Z</time>
      </trkpt>
      <trkpt lat="49.4834" lon="1.12262">
        <ele>158.2</ele>
        <time>2022-03-27T09:39:40Z</time>
      </trkpt>
      <trkpt lat="49.48336" lon="1.12257">
        <ele>158.1</ele>
        <time>2022-03-27T09:39:41Z</time>
      </trkpt>
      <trkpt lat="49.48332" lon="1.12251">
        <ele>158.1</ele>
        <time>2022-03-27T09:39:42Z</time>
      </trkpt>
      <trkpt lat="49.48328" lon="1.12246">
        <ele>158.1</ele>
        <time>2022-03-27T09:39:43Z</time>
      </trkpt>
      <trkpt lat="49.48325" lon="1.12241">
        <ele>158</ele>
        <time>2022-03-27T09:39:44Z</time>
      </trkpt>
      <trkpt lat="49.48321" lon="1.12237">
        <ele>158</ele>
        <time>2022-03-27T09:39:45Z</time>
      </trkpt>
      <trkpt lat="49.48317" lon="1.12233">
        <ele>158</ele>
        <time>2022-03-27T09:39:46Z</time>
      </trkpt>
      <trkpt lat="49.48313" lon="1.12227">
        <ele>157.9</ele>
        <time>2022-03-27T09:39:47Z</time>
      </trkpt>
      <trkpt lat="49.48309" lon="1.12221">
        <ele>157.9</ele>
        <time>2022-03-27T09:39:48Z</time>
      </trkpt>
      <trkpt lat="49.48305" lon="1.12216">
        <ele>157.8</ele>
        <time>2022-03-27T09:39:49Z</time>
      </trkpt>
      <trkpt lat="49.483" lon="1.12211">
        <ele>157.8</ele>
        <time>2022-03-27T09:39:50Z</time>
      </trkpt>
      <trkpt lat="49.48296" lon="1.12206">
        <ele>157.7</ele>
        <time>2022-03-27T09:39:51Z</time>
      </trkpt>
      <trkpt lat="49.48291" lon="1.12202">
        <ele>157.6</ele>
        <time>2022-03-27T09:39:52Z</time>
      </trkpt>
      <trkpt lat="49.48285" lon="1.12198">
        <ele>157.4</ele>
        <time>2022-03-27T09:39:53Z</time>
      </trkpt>
      <trkpt lat="49.4828" lon="1.12195">
        <ele>157.2</ele>
        <time>2022-03-27T09:39:54Z</time>
      </trkpt>
      <trkpt lat="49.48274" lon="1.1219">
        <ele>156.9</ele>
        <time>2022-03-27T09:39:55Z</time>
      </trkpt>
      <trkpt lat="49.48269" lon="1.12186">
        <ele>156.6</ele>
        <time>2022-03-27T09:39:56Z</time>
      </trkpt>
      <trkpt lat="49.48264" lon="1.12184">
        <ele>156.3</ele>
        <time>2022-03-27T09:39:57Z</time>
      </trkpt>
      <trkpt lat="49.48258" lon="1.1218">
        <ele>156</ele>
        <time>2022-03-27T09:39:58Z</time>
      </trkpt>
      <trkpt lat="49.48251" lon="1.12177">
        <ele>155.6</ele>
        <time>2022-03-27T09:39:59Z</time>
      </trkpt>
      <trkpt lat="49.48245" lon="1.12173">
        <ele>155.3</ele>
        <time>2022-03-27T09:40:00Z</time>
      </trkpt>
      <trkpt lat="49.4824" lon="1.12167">
        <ele>155</ele>
        <time>2022-03-27T09:40:01Z</time>
      </trkpt>
      <trkpt lat="49.48234" lon="1.1216">
        <ele>154.7</ele>
        <time>2022-03-27T09:40:02Z</time>
      </trkpt>
      <trkpt lat="49.48228" lon="1.12153">
        <ele>154.5</ele>
        <time>2022-03-27T09:40:03Z</time>
      </trkpt>
      <trkpt lat="49.48223" lon="1.12147">
        <ele>154.4</ele>
        <time>2022-03-27T09:40:04Z</time>
      </trkpt>
      <trkpt lat="49.48217" lon="1.1214">
        <ele>154.3</ele>
        <time>2022-03-27T09:40:05Z</time>
      </trkpt>
      <trkpt lat="49.48212" lon="1.12133">
        <ele>154.2</ele>
        <time>2022-03-27T09:40:06Z</time>
      </trkpt>
      <trkpt lat="49.48207" lon="1.12126">
        <ele>154.2</ele>
        <time>2022-03-27T09:40:07Z</time>
      </trkpt>
      <trkpt lat="49.48203" lon="1.1212">
        <ele>154.2</ele>
        <time>2022-03-27T09:40:08Z</time>
      </trkpt>
      <trkpt lat="49.48198" lon="1.12114">
        <ele>154.2</ele>
        <time>2022-03-27T09:40:09Z</time>
      </trkpt>
      <trkpt lat="49.48193" lon="1.12109">
        <ele>154.2</ele>
        <time>2022-03-27T09:40:10Z</time>
      </trkpt>
      <trkpt lat="49.48188" lon="1.12105">
        <ele>154.2</ele>
        <time>2022-03-27T09:40:11Z</time>
      </trkpt>
      <trkpt lat="49.48184" lon="1.12099">
        <ele>154.2</ele>
        <time>2022-03-27T09:40:12Z</time>
      </trkpt>
      <trkpt lat="49.48179" lon="1.12093">
        <ele>154.2</ele>
        <time>2022-03-27T09:40:13Z</time>
      </trkpt>
      <trkpt lat="49.48175" lon="1.12087">
        <ele>154.2</ele>
        <time>2022-03-27T09:40:14Z</time>
      </trkpt>
      <trkpt lat="49.4817" lon="1.12083">
        <ele>154.2</ele>
        <time>2022-03-27T09:40:15Z</time>
      </trkpt>
      <trkpt lat="49.48165" lon="1.12079">
        <ele>154.2</ele>
        <time>2022-03-27T09:40:16Z</time>
      </trkpt>
      <trkpt lat="49.4816" lon="1.12075">
        <ele>154.3</ele>
        <time>2022-03-27T09:40:17Z</time>
      </trkpt>
      <trkpt lat="49.48155" lon="1.12072">
        <ele>154.3</ele>
        <time>2022-03-27T09:40:18Z</time>
      </trkpt>
      <trkpt lat="49.4815" lon="1.12068">
        <ele>154.4</ele>
        <time>2022-03-27T09:40:19Z</time>
      </trkpt>
      <trkpt lat="49.48145" lon="1.12065">
        <ele>154.5</ele>
        <time>2022-03-27T09:40:20Z</time>
      </trkpt>
      <trkpt lat="49.48141" lon="1.12061">
        <ele>154.6</ele>
        <time>2022-03-27T09:40:21Z</time>
      </trkpt>
      <trkpt lat="49.48137" lon="1.12057">
        <ele>154.7</ele>
        <time>2022-03-27T09:40:22Z</time>
      </trkpt>
      <trkpt lat="49.48133" lon="1.12052">
        <ele>154.8</ele>
        <time>2022-03-27T09:40:23Z</time>
      </trkpt>
      <trkpt lat="49.48128" lon="1.12049">
        <ele>154.9</ele>
        <time>2022-03-27T09:40:24Z</time>
      </trkpt>
      <trkpt lat="49.48126" lon="1.12047">
        <ele>154.9</ele>
        <time>2022-03-27T09:40:25Z</time>
      </trkpt>
      <trkpt lat="49.48122" lon="1.12045">
        <ele>155</ele>
        <time>2022-03-27T09:40:26Z</time>
      </trkpt>
      <trkpt lat="49.48118" lon="1.12043">
        <ele>155.1</ele>
        <time>2022-03-27T09:40:27Z</time>
      </trkpt>
      <trkpt lat="49.48114" lon="1.12042">
        <ele>155.2</ele>
        <time>2022-03-27T09:40:28Z</time>
      </trkpt>
      <trkpt lat="49.48109" lon="1.12042">
        <ele>155.3</ele>
        <time>2022-03-27T09:40:29Z</time>
      </trkpt>
      <trkpt lat="49.48105" lon="1.12042">
        <ele>155.4</ele>
        <time>2022-03-27T09:40:30Z</time>
      </trkpt>
      <trkpt lat="49.48099" lon="1.12034">
        <ele>155.6</ele>
        <time>2022-03-27T09:40:32Z</time>
      </trkpt>
      <trkpt lat="49.48091" lon="1.12033">
        <ele>155.8</ele>
        <time>2022-03-27T09:40:33Z</time>
      </trkpt>
      <trkpt lat="49.48086" lon="1.12032">
        <ele>155.9</ele>
        <time>2022-03-27T09:40:34Z</time>
      </trkpt>
      <trkpt lat="49.48082" lon="1.1203">
        <ele>156</ele>
        <time>2022-03-27T09:40:35Z</time>
      </trkpt>
      <trkpt lat="49.48074" lon="1.12028">
        <ele>156.2</ele>
        <time>2022-03-27T09:40:36Z</time>
      </trkpt>
      <trkpt lat="49.48069" lon="1.12028">
        <ele>156.4</ele>
        <time>2022-03-27T09:40:38Z</time>
      </trkpt>
      <trkpt lat="49.48064" lon="1.1203">
        <ele>156.5</ele>
        <time>2022-03-27T09:40:39Z</time>
      </trkpt>
      <trkpt lat="49.48058" lon="1.1203">
        <ele>156.7</ele>
        <time>2022-03-27T09:40:40Z</time>
      </trkpt>
      <trkpt lat="49.48054" lon="1.12029">
        <ele>156.8</ele>
        <time>2022-03-27T09:40:41Z</time>
      </trkpt>
      <trkpt lat="49.48047" lon="1.12032">
        <ele>157</ele>
        <time>2022-03-27T09:40:42Z</time>
      </trkpt>
      <trkpt lat="49.48043" lon="1.12031">
        <ele>157.1</ele>
        <time>2022-03-27T09:40:43Z</time>
      </trkpt>
      <trkpt lat="49.48039" lon="1.12029">
        <ele>157.2</ele>
        <time>2022-03-27T09:40:45Z</time>
      </trkpt>
      <trkpt lat="49.48035" lon="1.12028">
        <ele>157.3</ele>
        <time>2022-03-27T09:40:46Z</time>
      </trkpt>
      <trkpt lat="49.48032" lon="1.12026">
        <ele>157.4</ele>
        <time>2022-03-27T09:40:47Z</time>
      </trkpt>
      <trkpt lat="49.48029" lon="1.12025">
        <ele>157.5</ele>
        <time>2022-03-27T09:40:48Z</time>
      </trkpt>
      <trkpt lat="49.48023" lon="1.12023">
        <ele>157.5</ele>
        <time>2022-03-27T09:40:49Z</time>
      </trkpt>
      <trkpt lat="49.48019" lon="1.12022">
        <ele>157.6</ele>
        <time>2022-03-27T09:40:52Z</time>
      </trkpt>
      <trkpt lat="49.48018" lon="1.12022">
        <ele>157.6</ele>
        <time>2022-03-27T09:40:53Z</time>
      </trkpt>
      <trkpt lat="49.48017" lon="1.12021">
        <ele>157.6</ele>
        <time>2022-03-27T09:40:54Z</time>
      </trkpt>
      <trkpt lat="49.48016" lon="1.12021">
        <ele>157.6</ele>
        <time>2022-03-27T09:40:55Z</time>
      </trkpt>
      <trkpt lat="49.48013" lon="1.12022">
        <ele>157.6</ele>
        <time>2022-03-27T09:40:56Z</time>
      </trkpt>
      <trkpt lat="49.48008" lon="1.12024">
        <ele>157.7</ele>
        <time>2022-03-27T09:40:57Z</time>
      </trkpt>
      <trkpt lat="49.48005" lon="1.12025">
        <ele>157.7</ele>
        <time>2022-03-27T09:40:59Z</time>
      </trkpt>
      <trkpt lat="49.48002" lon="1.12027">
        <ele>157.8</ele>
        <time>2022-03-27T09:41:00Z</time>
      </trkpt>
      <trkpt lat="49.48" lon="1.12029">
        <ele>157.8</ele>
        <time>2022-03-27T09:41:01Z</time>
      </trkpt>
      <trkpt lat="49.47997" lon="1.12031">
        <ele>157.9</ele>
        <time>2022-03-27T09:41:02Z</time>
      </trkpt>
      <trkpt lat="49.47996" lon="1.12031">
        <ele>157.9</ele>
        <time>2022-03-27T09:41:03Z</time>
      </trkpt>
      <trkpt lat="49.47991" lon="1.12033">
        <ele>158</ele>
        <time>2022-03-27T09:41:04Z</time>
      </trkpt>
      <trkpt lat="49.47984" lon="1.12036">
        <ele>158.1</ele>
        <time>2022-03-27T09:41:05Z</time>
      </trkpt>
      <trkpt lat="49.47981" lon="1.12037">
        <ele>158.2</ele>
        <time>2022-03-27T09:41:07Z</time>
      </trkpt>
      <trkpt lat="49.47978" lon="1.12036">
        <ele>158.3</ele>
        <time>2022-03-27T09:41:08Z</time>
      </trkpt>
      <trkpt lat="49.47976" lon="1.12035">
        <ele>158.3</ele>
        <time>2022-03-27T09:41:09Z</time>
      </trkpt>
      <trkpt lat="49.47975" lon="1.12035">
        <ele>158.3</ele>
        <time>2022-03-27T09:41:10Z</time>
      </trkpt>
      <trkpt lat="49.47973" lon="1.12036">
        <ele>158.4</ele>
        <time>2022-03-27T09:41:11Z</time>
      </trkpt>
      <trkpt lat="49.47968" lon="1.12038">
        <ele>158.5</ele>
        <time>2022-03-27T09:41:12Z</time>
      </trkpt>
      <trkpt lat="49.47943" lon="1.12039">
        <ele>159</ele>
        <time>2022-03-27T09:41:13Z</time>
      </trkpt>
      <trkpt lat="49.4794" lon="1.12039">
        <ele>159.1</ele>
        <time>2022-03-27T09:41:14Z</time>
      </trkpt>
      <trkpt lat="49.47938" lon="1.12041">
        <ele>159.1</ele>
        <time>2022-03-27T09:41:15Z</time>
      </trkpt>
      <trkpt lat="49.47931" lon="1.12042">
        <ele>159.3</ele>
        <time>2022-03-27T09:41:17Z</time>
      </trkpt>
      <trkpt lat="49.47924" lon="1.12041">
        <ele>159.5</ele>
        <time>2022-03-27T09:41:18Z</time>
      </trkpt>
      <trkpt lat="49.47918" lon="1.12041">
        <ele>159.8</ele>
        <time>2022-03-27T09:41:19Z</time>
      </trkpt>
      <trkpt lat="49.47912" lon="1.1204">
        <ele>160</ele>
        <time>2022-03-27T09:41:20Z</time>
      </trkpt>
      <trkpt lat="49.47903" lon="1.1204">
        <ele>160.3</ele>
        <time>2022-03-27T09:41:21Z</time>
      </trkpt>
      <trkpt lat="49.47898" lon="1.1204">
        <ele>160.5</ele>
        <time>2022-03-27T09:41:22Z</time>
      </trkpt>
      <trkpt lat="49.47894" lon="1.12041">
        <ele>160.5</ele>
        <time>2022-03-27T09:41:24Z</time>
      </trkpt>
      <trkpt lat="49.4789" lon="1.12041">
        <ele>160.6</ele>
        <time>2022-03-27T09:41:25Z</time>
      </trkpt>
      <trkpt lat="49.47886" lon="1.12041">
        <ele>160.7</ele>
        <time>2022-03-27T09:41:26Z</time>
      </trkpt>
      <trkpt lat="49.47879" lon="1.12041">
        <ele>160.9</ele>
        <time>2022-03-27T09:41:27Z</time>
      </trkpt>
      <trkpt lat="49.47875" lon="1.12041">
        <ele>161</ele>
        <time>2022-03-27T09:41:29Z</time>
      </trkpt>
      <trkpt lat="49.4787" lon="1.12039">
        <ele>161.1</ele>
        <time>2022-03-27T09:41:30Z</time>
      </trkpt>
      <trkpt lat="49.47866" lon="1.12038">
        <ele>161.2</ele>
        <time>2022-03-27T09:41:31Z</time>
      </trkpt>
      <trkpt lat="49.47862" lon="1.12037">
        <ele>161.3</ele>
        <time>2022-03-27T09:41:32Z</time>
      </trkpt>
      <trkpt lat="49.47858" lon="1.12036">
        <ele>161.4</ele>
        <time>2022-03-27T09:41:33Z</time>
      </trkpt>
      <trkpt lat="49.47854" lon="1.12034">
        <ele>161.5</ele>
        <time>2022-03-27T09:41:34Z</time>
      </trkpt>
      <trkpt lat="49.4785" lon="1.12031">
        <ele>161.5</ele>
        <time>2022-03-27T09:41:35Z</time>
      </trkpt>
      <trkpt lat="49.47846" lon="1.12029">
        <ele>161.6</ele>
        <time>2022-03-27T09:41:36Z</time>
      </trkpt>
      <trkpt lat="49.47842" lon="1.12027">
        <ele>161.6</ele>
        <time>2022-03-27T09:41:37Z</time>
      </trkpt>
      <trkpt lat="49.47838" lon="1.12027">
        <ele>161.6</ele>
        <time>2022-03-27T09:41:38Z</time>
      </trkpt>
      <trkpt lat="49.47834" lon="1.12025">
        <ele>161.6</ele>
        <time>2022-03-27T09:41:39Z</time>
      </trkpt>
      <trkpt lat="49.47829" lon="1.12024">
        <ele>161.5</ele>
        <time>2022-03-27T09:41:40Z</time>
      </trkpt>
      <trkpt lat="49.47823" lon="1.12021">
        <ele>161.5</ele>
        <time>2022-03-27T09:41:41Z</time>
      </trkpt>
      <trkpt lat="49.47818" lon="1.1202">
        <ele>161.4</ele>
        <time>2022-03-27T09:41:42Z</time>
      </trkpt>
      <trkpt lat="49.47814" lon="1.12018">
        <ele>161.4</ele>
        <time>2022-03-27T09:41:43Z</time>
      </trkpt>
      <trkpt lat="49.47812" lon="1.12017">
        <ele>161.4</ele>
        <time>2022-03-27T09:41:44Z</time>
      </trkpt>
      <trkpt lat="49.47808" lon="1.12015">
        <ele>161.3</ele>
        <time>2022-03-27T09:41:45Z</time>
      </trkpt>
      <trkpt lat="49.47801" lon="1.12008">
        <ele>161.3</ele>
        <time>2022-03-27T09:41:46Z</time>
      </trkpt>
      <trkpt lat="49.47796" lon="1.12006">
        <ele>161.2</ele>
        <time>2022-03-27T09:41:47Z</time>
      </trkpt>
      <trkpt lat="49.47791" lon="1.12005">
        <ele>161.2</ele>
        <time>2022-03-27T09:41:48Z</time>
      </trkpt>
      <trkpt lat="49.47787" lon="1.12004">
        <ele>161.1</ele>
        <time>2022-03-27T09:41:49Z</time>
      </trkpt>
      <trkpt lat="49.47782" lon="1.12004">
        <ele>161.1</ele>
        <time>2022-03-27T09:41:50Z</time>
      </trkpt>
      <trkpt lat="49.47778" lon="1.12003">
        <ele>161.1</ele>
        <time>2022-03-27T09:41:51Z</time>
      </trkpt>
      <trkpt lat="49.47774" lon="1.12003">
        <ele>161</ele>
        <time>2022-03-27T09:41:52Z</time>
      </trkpt>
      <trkpt lat="49.4777" lon="1.12002">
        <ele>161</ele>
        <time>2022-03-27T09:41:53Z</time>
      </trkpt>
      <trkpt lat="49.47766" lon="1.12001">
        <ele>161</ele>
        <time>2022-03-27T09:41:54Z</time>
      </trkpt>
      <trkpt lat="49.47761" lon="1.12">
        <ele>161</ele>
        <time>2022-03-27T09:41:55Z</time>
      </trkpt>
      <trkpt lat="49.47757" lon="1.12003">
        <ele>161.1</ele>
        <time>2022-03-27T09:41:56Z</time>
      </trkpt>
      <trkpt lat="49.47754" lon="1.12007">
        <ele>161.1</ele>
        <time>2022-03-27T09:41:57Z</time>
      </trkpt>
      <trkpt lat="49.47752" lon="1.12007">
        <ele>161.1</ele>
        <time>2022-03-27T09:41:58Z</time>
      </trkpt>
      <trkpt lat="49.47746" lon="1.12005">
        <ele>161.1</ele>
        <time>2022-03-27T09:42:00Z</time>
      </trkpt>
      <trkpt lat="49.47741" lon="1.12003">
        <ele>161.2</ele>
        <time>2022-03-27T09:42:01Z</time>
      </trkpt>
      <trkpt lat="49.47737" lon="1.12001">
        <ele>161.2</ele>
        <time>2022-03-27T09:42:02Z</time>
      </trkpt>
      <trkpt lat="49.47732" lon="1.12">
        <ele>161.3</ele>
        <time>2022-03-27T09:42:03Z</time>
      </trkpt>
      <trkpt lat="49.47722" lon="1.11996">
        <ele>161.4</ele>
        <time>2022-03-27T09:42:04Z</time>
      </trkpt>
      <trkpt lat="49.47714" lon="1.11992">
        <ele>161.5</ele>
        <time>2022-03-27T09:42:06Z</time>
      </trkpt>
      <trkpt lat="49.47711" lon="1.11995">
        <ele>161.5</ele>
        <time>2022-03-27T09:42:07Z</time>
      </trkpt>
      <trkpt lat="49.47706" lon="1.11995">
        <ele>161.5</ele>
        <time>2022-03-27T09:42:08Z</time>
      </trkpt>
      <trkpt lat="49.477" lon="1.11994">
        <ele>161.6</ele>
        <time>2022-03-27T09:42:10Z</time>
      </trkpt>
      <trkpt lat="49.47696" lon="1.11994">
        <ele>161.6</ele>
        <time>2022-03-27T09:42:11Z</time>
      </trkpt>
      <trkpt lat="49.47692" lon="1.11992">
        <ele>161.7</ele>
        <time>2022-03-27T09:42:12Z</time>
      </trkpt>
      <trkpt lat="49.47689" lon="1.1199">
        <ele>161.7</ele>
        <time>2022-03-27T09:42:13Z</time>
      </trkpt>
      <trkpt lat="49.47686" lon="1.11988">
        <ele>161.7</ele>
        <time>2022-03-27T09:42:14Z</time>
      </trkpt>
      <trkpt lat="49.47682" lon="1.11987">
        <ele>161.7</ele>
        <time>2022-03-27T09:42:15Z</time>
      </trkpt>
      <trkpt lat="49.47679" lon="1.11987">
        <ele>161.8</ele>
        <time>2022-03-27T09:42:16Z</time>
      </trkpt>
      <trkpt lat="49.47674" lon="1.11985">
        <ele>161.8</ele>
        <time>2022-03-27T09:42:17Z</time>
      </trkpt>
      <trkpt lat="49.4767" lon="1.11982">
        <ele>161.8</ele>
        <time>2022-03-27T09:42:18Z</time>
      </trkpt>
      <trkpt lat="49.47662" lon="1.11978">
        <ele>161.9</ele>
        <time>2022-03-27T09:42:19Z</time>
      </trkpt>
      <trkpt lat="49.47657" lon="1.11975">
        <ele>162</ele>
        <time>2022-03-27T09:42:21Z</time>
      </trkpt>
      <trkpt lat="49.47654" lon="1.11971">
        <ele>162</ele>
        <time>2022-03-27T09:42:22Z</time>
      </trkpt>
      <trkpt lat="49.47652" lon="1.1197">
        <ele>162</ele>
        <time>2022-03-27T09:42:23Z</time>
      </trkpt>
      <trkpt lat="49.47651" lon="1.11969">
        <ele>162.1</ele>
        <time>2022-03-27T09:42:24Z</time>
      </trkpt>
      <trkpt lat="49.47649" lon="1.11967">
        <ele>162.1</ele>
        <time>2022-03-27T09:42:25Z</time>
      </trkpt>
      <trkpt lat="49.47648" lon="1.11965">
        <ele>162.1</ele>
        <time>2022-03-27T09:42:26Z</time>
      </trkpt>
      <trkpt lat="49.47645" lon="1.11961">
        <ele>162.1</ele>
        <time>2022-03-27T09:42:27Z</time>
      </trkpt>
      <trkpt lat="49.47644" lon="1.1196">
        <ele>162.1</ele>
        <time>2022-03-27T09:42:28Z</time>
      </trkpt>
      <trkpt lat="49.47642" lon="1.11958">
        <ele>162.1</ele>
        <time>2022-03-27T09:42:29Z</time>
      </trkpt>
      <trkpt lat="49.47641" lon="1.11957">
        <ele>162.2</ele>
        <time>2022-03-27T09:42:30Z</time>
      </trkpt>
      <trkpt lat="49.47637" lon="1.11955">
        <ele>162.2</ele>
        <time>2022-03-27T09:42:31Z</time>
      </trkpt>
      <trkpt lat="49.47636" lon="1.11954">
        <ele>162.2</ele>
        <time>2022-03-27T09:42:32Z</time>
      </trkpt>
      <trkpt lat="49.47633" lon="1.11954">
        <ele>162.2</ele>
        <time>2022-03-27T09:42:34Z</time>
      </trkpt>
      <trkpt lat="49.4763" lon="1.11954">
        <ele>162.2</ele>
        <time>2022-03-27T09:42:35Z</time>
      </trkpt>
      <trkpt lat="49.47623" lon="1.11952">
        <ele>162.2</ele>
        <time>2022-03-27T09:42:36Z</time>
      </trkpt>
      <trkpt lat="49.47619" lon="1.11948">
        <ele>162.3</ele>
        <time>2022-03-27T09:42:38Z</time>
      </trkpt>
      <trkpt lat="49.47616" lon="1.11946">
        <ele>162.3</ele>
        <time>2022-03-27T09:42:39Z</time>
      </trkpt>
      <trkpt lat="49.47616" lon="1.11946">
        <ele>162.3</ele>
        <time>2022-03-27T09:42:41Z</time>
      </trkpt>
      <trkpt lat="49.47616" lon="1.11946">
        <ele>162.3</ele>
        <time>2022-03-27T09:42:43Z</time>
      </trkpt>
      <trkpt lat="49.47615" lon="1.11945">
        <ele>162.3</ele>
        <time>2022-03-27T09:42:44Z</time>
      </trkpt>
      <trkpt lat="49.47597" lon="1.11943">
        <ele>162.3</ele>
        <time>2022-03-27T09:42:45Z</time>
      </trkpt>
      <trkpt lat="49.47597" lon="1.11943">
        <ele>162.3</ele>
        <time>2022-03-27T09:42:46Z</time>
      </trkpt>
      <trkpt lat="49.47579" lon="1.12022">
        <ele>162.3</ele>
        <time>2022-03-27T09:43:16Z</time>
      </trkpt>
      <trkpt lat="49.47579" lon="1.12027">
        <ele>162.3</ele>
        <time>2022-03-27T09:43:17Z</time>
      </trkpt>
      <trkpt lat="49.47579" lon="1.12035">
        <ele>162.3</ele>
        <time>2022-03-27T09:43:18Z</time>
      </trkpt>
      <trkpt lat="49.47578" lon="1.12044">
        <ele>162.3</ele>
        <time>2022-03-27T09:43:19Z</time>
      </trkpt>
      <trkpt lat="49.47577" lon="1.12052">
        <ele>162.3</ele>
        <time>2022-03-27T09:43:20Z</time>
      </trkpt>
      <trkpt lat="49.47577" lon="1.1206">
        <ele>162.3</ele>
        <time>2022-03-27T09:43:21Z</time>
      </trkpt>
      <trkpt lat="49.47577" lon="1.12077">
        <ele>162.3</ele>
        <time>2022-03-27T09:43:22Z</time>
      </trkpt>
      <trkpt lat="49.47577" lon="1.12083">
        <ele>162.2</ele>
        <time>2022-03-27T09:43:24Z</time>
      </trkpt>
      <trkpt lat="49.47577" lon="1.12091">
        <ele>162.2</ele>
        <time>2022-03-27T09:43:25Z</time>
      </trkpt>
      <trkpt lat="49.47577" lon="1.12096">
        <ele>162.2</ele>
        <time>2022-03-27T09:43:26Z</time>
      </trkpt>
      <trkpt lat="49.47575" lon="1.12106">
        <ele>162.1</ele>
        <time>2022-03-27T09:43:27Z</time>
      </trkpt>
      <trkpt lat="49.47574" lon="1.12113">
        <ele>162.1</ele>
        <time>2022-03-27T09:43:28Z</time>
      </trkpt>
      <trkpt lat="49.47572" lon="1.1212">
        <ele>162</ele>
        <time>2022-03-27T09:43:30Z</time>
      </trkpt>
      <trkpt lat="49.4757" lon="1.12124">
        <ele>162</ele>
        <time>2022-03-27T09:43:31Z</time>
      </trkpt>
      <trkpt lat="49.47566" lon="1.12126">
        <ele>162</ele>
        <time>2022-03-27T09:43:32Z</time>
      </trkpt>
      <trkpt lat="49.47564" lon="1.12126">
        <ele>162</ele>
        <time>2022-03-27T09:43:33Z</time>
      </trkpt>
      <trkpt lat="49.47558" lon="1.12126">
        <ele>162</ele>
        <time>2022-03-27T09:43:34Z</time>
      </trkpt>
      <trkpt lat="49.47553" lon="1.12125">
        <ele>162</ele>
        <time>2022-03-27T09:43:35Z</time>
      </trkpt>
      <trkpt lat="49.47547" lon="1.12121">
        <ele>161.9</ele>
        <time>2022-03-27T09:43:37Z</time>
      </trkpt>
      <trkpt lat="49.47542" lon="1.1212">
        <ele>161.9</ele>
        <time>2022-03-27T09:43:38Z</time>
      </trkpt>
      <trkpt lat="49.47536" lon="1.12118">
        <ele>161.8</ele>
        <time>2022-03-27T09:43:39Z</time>
      </trkpt>
      <trkpt lat="49.47531" lon="1.12116">
        <ele>161.7</ele>
        <time>2022-03-27T09:43:40Z</time>
      </trkpt>
      <trkpt lat="49.47521" lon="1.12113">
        <ele>161.7</ele>
        <time>2022-03-27T09:43:41Z</time>
      </trkpt>
      <trkpt lat="49.47515" lon="1.12113">
        <ele>161.6</ele>
        <time>2022-03-27T09:43:42Z</time>
      </trkpt>
      <trkpt lat="49.4751" lon="1.12112">
        <ele>161.6</ele>
        <time>2022-03-27T09:43:43Z</time>
      </trkpt>
      <trkpt lat="49.47505" lon="1.12109">
        <ele>161.5</ele>
        <time>2022-03-27T09:43:44Z</time>
      </trkpt>
      <trkpt lat="49.47499" lon="1.12106">
        <ele>161.5</ele>
        <time>2022-03-27T09:43:45Z</time>
      </trkpt>
      <trkpt lat="49.47494" lon="1.12104">
        <ele>161.5</ele>
        <time>2022-03-27T09:43:46Z</time>
      </trkpt>
      <trkpt lat="49.47489" lon="1.121">
        <ele>161.5</ele>
        <time>2022-03-27T09:43:47Z</time>
      </trkpt>
      <trkpt lat="49.47484" lon="1.12097">
        <ele>161.5</ele>
        <time>2022-03-27T09:43:48Z</time>
      </trkpt>
      <trkpt lat="49.47479" lon="1.12095">
        <ele>161.4</ele>
        <time>2022-03-27T09:43:49Z</time>
      </trkpt>
      <trkpt lat="49.47476" lon="1.12094">
        <ele>161.4</ele>
        <time>2022-03-27T09:43:50Z</time>
      </trkpt>
      <trkpt lat="49.47474" lon="1.12087">
        <ele>161.3</ele>
        <time>2022-03-27T09:43:51Z</time>
      </trkpt>
      <trkpt lat="49.47469" lon="1.12086">
        <ele>161.3</ele>
        <time>2022-03-27T09:43:52Z</time>
      </trkpt>
      <trkpt lat="49.47465" lon="1.12085">
        <ele>161.2</ele>
        <time>2022-03-27T09:43:53Z</time>
      </trkpt>
      <trkpt lat="49.47461" lon="1.12084">
        <ele>161.2</ele>
        <time>2022-03-27T09:43:54Z</time>
      </trkpt>
      <trkpt lat="49.47457" lon="1.12081">
        <ele>161.2</ele>
        <time>2022-03-27T09:43:55Z</time>
      </trkpt>
      <trkpt lat="49.47452" lon="1.12078">
        <ele>161.1</ele>
        <time>2022-03-27T09:43:56Z</time>
      </trkpt>
      <trkpt lat="49.47448" lon="1.12076">
        <ele>161.1</ele>
        <time>2022-03-27T09:43:57Z</time>
      </trkpt>
      <trkpt lat="49.47443" lon="1.12073">
        <ele>161.1</ele>
        <time>2022-03-27T09:43:58Z</time>
      </trkpt>
      <trkpt lat="49.47436" lon="1.12068">
        <ele>161</ele>
        <time>2022-03-27T09:43:59Z</time>
      </trkpt>
      <trkpt lat="49.4743" lon="1.12065">
        <ele>160.9</ele>
        <time>2022-03-27T09:44:00Z</time>
      </trkpt>
      <trkpt lat="49.47424" lon="1.12062">
        <ele>160.9</ele>
        <time>2022-03-27T09:44:01Z</time>
      </trkpt>
      <trkpt lat="49.47418" lon="1.12059">
        <ele>160.8</ele>
        <time>2022-03-27T09:44:02Z</time>
      </trkpt>
      <trkpt lat="49.47412" lon="1.12055">
        <ele>160.8</ele>
        <time>2022-03-27T09:44:03Z</time>
      </trkpt>
      <trkpt lat="49.47405" lon="1.12051">
        <ele>160.7</ele>
        <time>2022-03-27T09:44:04Z</time>
      </trkpt>
      <trkpt lat="49.47399" lon="1.12047">
        <ele>160.6</ele>
        <time>2022-03-27T09:44:05Z</time>
      </trkpt>
      <trkpt lat="49.47394" lon="1.12044">
        <ele>160.5</ele>
        <time>2022-03-27T09:44:06Z</time>
      </trkpt>
      <trkpt lat="49.47388" lon="1.12041">
        <ele>160.5</ele>
        <time>2022-03-27T09:44:07Z</time>
      </trkpt>
      <trkpt lat="49.47382" lon="1.12037">
        <ele>160.4</ele>
        <time>2022-03-27T09:44:08Z</time>
      </trkpt>
      <trkpt lat="49.47376" lon="1.12034">
        <ele>160.4</ele>
        <time>2022-03-27T09:44:09Z</time>
      </trkpt>
      <trkpt lat="49.47369" lon="1.12031">
        <ele>160.4</ele>
        <time>2022-03-27T09:44:10Z</time>
      </trkpt>
      <trkpt lat="49.47363" lon="1.12027">
        <ele>160.3</ele>
        <time>2022-03-27T09:44:11Z</time>
      </trkpt>
      <trkpt lat="49.47356" lon="1.12024">
        <ele>160.3</ele>
        <time>2022-03-27T09:44:12Z</time>
      </trkpt>
      <trkpt lat="49.4735" lon="1.1202">
        <ele>160.2</ele>
        <time>2022-03-27T09:44:13Z</time>
      </trkpt>
      <trkpt lat="49.47344" lon="1.12017">
        <ele>160.2</ele>
        <time>2022-03-27T09:44:14Z</time>
      </trkpt>
      <trkpt lat="49.47338" lon="1.12014">
        <ele>160.2</ele>
        <time>2022-03-27T09:44:15Z</time>
      </trkpt>
      <trkpt lat="49.47332" lon="1.1201">
        <ele>160.2</ele>
        <time>2022-03-27T09:44:16Z</time>
      </trkpt>
      <trkpt lat="49.47326" lon="1.12007">
        <ele>160.2</ele>
        <time>2022-03-27T09:44:17Z</time>
      </trkpt>
      <trkpt lat="49.4732" lon="1.12004">
        <ele>160.1</ele>
        <time>2022-03-27T09:44:18Z</time>
      </trkpt>
      <trkpt lat="49.47314" lon="1.12001">
        <ele>160.1</ele>
        <time>2022-03-27T09:44:19Z</time>
      </trkpt>
      <trkpt lat="49.47307" lon="1.11998">
        <ele>160.1</ele>
        <time>2022-03-27T09:44:20Z</time>
      </trkpt>
      <trkpt lat="49.47301" lon="1.11996">
        <ele>160.1</ele>
        <time>2022-03-27T09:44:21Z</time>
      </trkpt>
      <trkpt lat="49.47296" lon="1.11993">
        <ele>160</ele>
        <time>2022-03-27T09:44:22Z</time>
      </trkpt>
      <trkpt lat="49.4729" lon="1.1199">
        <ele>160</ele>
        <time>2022-03-27T09:44:23Z</time>
      </trkpt>
      <trkpt lat="49.47285" lon="1.11987">
        <ele>160</ele>
        <time>2022-03-27T09:44:24Z</time>
      </trkpt>
      <trkpt lat="49.47279" lon="1.11984">
        <ele>160</ele>
        <time>2022-03-27T09:44:25Z</time>
      </trkpt>
      <trkpt lat="49.47274" lon="1.1198">
        <ele>160</ele>
        <time>2022-03-27T09:44:26Z</time>
      </trkpt>
      <trkpt lat="49.47269" lon="1.11977">
        <ele>160</ele>
        <time>2022-03-27T09:44:27Z</time>
      </trkpt>
      <trkpt lat="49.47264" lon="1.11973">
        <ele>159.9</ele>
        <time>2022-03-27T09:44:28Z</time>
      </trkpt>
      <trkpt lat="49.47258" lon="1.1197">
        <ele>159.9</ele>
        <time>2022-03-27T09:44:29Z</time>
      </trkpt>
      <trkpt lat="49.47252" lon="1.11967">
        <ele>159.9</ele>
        <time>2022-03-27T09:44:30Z</time>
      </trkpt>
      <trkpt lat="49.47247" lon="1.11963">
        <ele>159.9</ele>
        <time>2022-03-27T09:44:31Z</time>
      </trkpt>
      <trkpt lat="49.47242" lon="1.11959">
        <ele>159.9</ele>
        <time>2022-03-27T09:44:32Z</time>
      </trkpt>
      <trkpt lat="49.47237" lon="1.11956">
        <ele>160</ele>
        <time>2022-03-27T09:44:33Z</time>
      </trkpt>
      <trkpt lat="49.47232" lon="1.11952">
        <ele>160</ele>
        <time>2022-03-27T09:44:34Z</time>
      </trkpt>
      <trkpt lat="49.47227" lon="1.11948">
        <ele>160</ele>
        <time>2022-03-27T09:44:35Z</time>
      </trkpt>
      <trkpt lat="49.47222" lon="1.11944">
        <ele>160</ele>
        <time>2022-03-27T09:44:36Z</time>
      </trkpt>
      <trkpt lat="49.47217" lon="1.1194">
        <ele>160.1</ele>
        <time>2022-03-27T09:44:37Z</time>
      </trkpt>
      <trkpt lat="49.47212" lon="1.11936">
        <ele>160.1</ele>
        <time>2022-03-27T09:44:38Z</time>
      </trkpt>
      <trkpt lat="49.47207" lon="1.11932">
        <ele>160.1</ele>
        <time>2022-03-27T09:44:39Z</time>
      </trkpt>
      <trkpt lat="49.47202" lon="1.11928">
        <ele>160.2</ele>
        <time>2022-03-27T09:44:40Z</time>
      </trkpt>
      <trkpt lat="49.47197" lon="1.11924">
        <ele>160.2</ele>
        <time>2022-03-27T09:44:41Z</time>
      </trkpt>
      <trkpt lat="49.47192" lon="1.1192">
        <ele>160.3</ele>
        <time>2022-03-27T09:44:42Z</time>
      </trkpt>
      <trkpt lat="49.47187" lon="1.11915">
        <ele>160.3</ele>
        <time>2022-03-27T09:44:43Z</time>
      </trkpt>
      <trkpt lat="49.47183" lon="1.1191">
        <ele>160.4</ele>
        <time>2022-03-27T09:44:44Z</time>
      </trkpt>
      <trkpt lat="49.47179" lon="1.11906">
        <ele>160.5</ele>
        <time>2022-03-27T09:44:45Z</time>
      </trkpt>
      <trkpt lat="49.47175" lon="1.11902">
        <ele>160.5</ele>
        <time>2022-03-27T09:44:46Z</time>
      </trkpt>
      <trkpt lat="49.47171" lon="1.11898">
        <ele>160.6</ele>
        <time>2022-03-27T09:44:47Z</time>
      </trkpt>
      <trkpt lat="49.47167" lon="1.11894">
        <ele>160.6</ele>
        <time>2022-03-27T09:44:48Z</time>
      </trkpt>
      <trkpt lat="49.47162" lon="1.11891">
        <ele>160.7</ele>
        <time>2022-03-27T09:44:49Z</time>
      </trkpt>
      <trkpt lat="49.47159" lon="1.11888">
        <ele>160.7</ele>
        <time>2022-03-27T09:44:50Z</time>
      </trkpt>
      <trkpt lat="49.47155" lon="1.11886">
        <ele>160.7</ele>
        <time>2022-03-27T09:44:51Z</time>
      </trkpt>
      <trkpt lat="49.47147" lon="1.11881">
        <ele>160.8</ele>
        <time>2022-03-27T09:44:52Z</time>
      </trkpt>
      <trkpt lat="49.47141" lon="1.11875">
        <ele>160.8</ele>
        <time>2022-03-27T09:44:54Z</time>
      </trkpt>
      <trkpt lat="49.47137" lon="1.11871">
        <ele>160.9</ele>
        <time>2022-03-27T09:44:55Z</time>
      </trkpt>
      <trkpt lat="49.47132" lon="1.11866">
        <ele>160.9</ele>
        <time>2022-03-27T09:44:56Z</time>
      </trkpt>
      <trkpt lat="49.47127" lon="1.11861">
        <ele>160.9</ele>
        <time>2022-03-27T09:44:57Z</time>
      </trkpt>
      <trkpt lat="49.47122" lon="1.11857">
        <ele>160.9</ele>
        <time>2022-03-27T09:44:58Z</time>
      </trkpt>
      <trkpt lat="49.47117" lon="1.11853">
        <ele>160.9</ele>
        <time>2022-03-27T09:44:59Z</time>
      </trkpt>
      <trkpt lat="49.47112" lon="1.11849">
        <ele>160.9</ele>
        <time>2022-03-27T09:45:00Z</time>
      </trkpt>
      <trkpt lat="49.47106" lon="1.11845">
        <ele>160.9</ele>
        <time>2022-03-27T09:45:01Z</time>
      </trkpt>
      <trkpt lat="49.471" lon="1.11841">
        <ele>160.8</ele>
        <time>2022-03-27T09:45:02Z</time>
      </trkpt>
      <trkpt lat="49.47094" lon="1.11837">
        <ele>160.8</ele>
        <time>2022-03-27T09:45:03Z</time>
      </trkpt>
      <trkpt lat="49.47087" lon="1.11831">
        <ele>160.8</ele>
        <time>2022-03-27T09:45:04Z</time>
      </trkpt>
      <trkpt lat="49.47081" lon="1.11826">
        <ele>160.8</ele>
        <time>2022-03-27T09:45:05Z</time>
      </trkpt>
      <trkpt lat="49.47075" lon="1.11821">
        <ele>160.7</ele>
        <time>2022-03-27T09:45:06Z</time>
      </trkpt>
      <trkpt lat="49.4707" lon="1.11817">
        <ele>160.7</ele>
        <time>2022-03-27T09:45:07Z</time>
      </trkpt>
      <trkpt lat="49.47065" lon="1.11813">
        <ele>160.7</ele>
        <time>2022-03-27T09:45:08Z</time>
      </trkpt>
      <trkpt lat="49.4706" lon="1.11809">
        <ele>160.6</ele>
        <time>2022-03-27T09:45:09Z</time>
      </trkpt>
      <trkpt lat="49.47056" lon="1.11805">
        <ele>160.6</ele>
        <time>2022-03-27T09:45:10Z</time>
      </trkpt>
      <trkpt lat="49.47052" lon="1.11801">
        <ele>160.6</ele>
        <time>2022-03-27T09:45:11Z</time>
      </trkpt>
      <trkpt lat="49.47048" lon="1.11798">
        <ele>160.5</ele>
        <time>2022-03-27T09:45:12Z</time>
      </trkpt>
      <trkpt lat="49.47045" lon="1.11795">
        <ele>160.5</ele>
        <time>2022-03-27T09:45:13Z</time>
      </trkpt>
      <trkpt lat="49.47044" lon="1.11794">
        <ele>160.5</ele>
        <time>2022-03-27T09:45:14Z</time>
      </trkpt>
      <trkpt lat="49.47043" lon="1.11792">
        <ele>160.5</ele>
        <time>2022-03-27T09:45:15Z</time>
      </trkpt>
      <trkpt lat="49.47044" lon="1.11792">
        <ele>160.5</ele>
        <time>2022-03-27T09:45:16Z</time>
      </trkpt>
      <trkpt lat="49.47044" lon="1.11792">
        <ele>160.5</ele>
        <time>2022-03-27T09:45:17Z</time>
      </trkpt>
      <trkpt lat="49.47045" lon="1.11792">
        <ele>160.5</ele>
        <time>2022-03-27T09:45:18Z</time>
      </trkpt>
      <trkpt lat="49.47045" lon="1.11791">
        <ele>160.5</ele>
        <time>2022-03-27T09:45:19Z</time>
      </trkpt>
      <trkpt lat="49.47045" lon="1.11791">
        <ele>160.5</ele>
        <time>2022-03-27T09:45:21Z</time>
      </trkpt>
      <trkpt lat="49.47045" lon="1.11791">
        <ele>160.5</ele>
        <time>2022-03-27T09:45:22Z</time>
      </trkpt>
      <trkpt lat="49.47044" lon="1.11789">
        <ele>160.5</ele>
        <time>2022-03-27T09:45:23Z</time>
      </trkpt>
      <trkpt lat="49.47043" lon="1.11788">
        <ele>160.5</ele>
        <time>2022-03-27T09:45:25Z</time>
      </trkpt>
      <trkpt lat="49.47039" lon="1.11787">
        <ele>160.4</ele>
        <time>2022-03-27T09:45:41Z</time>
      </trkpt>
      <trkpt lat="49.47038" lon="1.11786">
        <ele>160.4</ele>
        <time>2022-03-27T09:45:42Z</time>
      </trkpt>
      <trkpt lat="49.47036" lon="1.11784">
        <ele>160.4</ele>
        <time>2022-03-27T09:45:43Z</time>
      </trkpt>
      <trkpt lat="49.47034" lon="1.11782">
        <ele>160.4</ele>
        <time>2022-03-27T09:45:44Z</time>
      </trkpt>
      <trkpt lat="49.47033" lon="1.11781">
        <ele>160.4</ele>
        <time>2022-03-27T09:45:45Z</time>
      </trkpt>
      <trkpt lat="49.4703" lon="1.11779">
        <ele>160.3</ele>
        <time>2022-03-27T09:45:46Z</time>
      </trkpt>
      <trkpt lat="49.47024" lon="1.11774">
        <ele>160.3</ele>
        <time>2022-03-27T09:45:47Z</time>
      </trkpt>
      <trkpt lat="49.47017" lon="1.11773">
        <ele>160.2</ele>
        <time>2022-03-27T09:45:49Z</time>
      </trkpt>
      <trkpt lat="49.47014" lon="1.11771">
        <ele>160.1</ele>
        <time>2022-03-27T09:45:51Z</time>
      </trkpt>
      <trkpt lat="49.47011" lon="1.1177">
        <ele>160.1</ele>
        <time>2022-03-27T09:45:52Z</time>
      </trkpt>
      <trkpt lat="49.47005" lon="1.11765">
        <ele>160</ele>
        <time>2022-03-27T09:45:54Z</time>
      </trkpt>
      <trkpt lat="49.47001" lon="1.11763">
        <ele>160</ele>
        <time>2022-03-27T09:45:55Z</time>
      </trkpt>
      <trkpt lat="49.46997" lon="1.1176">
        <ele>159.9</ele>
        <time>2022-03-27T09:45:56Z</time>
      </trkpt>
      <trkpt lat="49.46994" lon="1.11757">
        <ele>159.9</ele>
        <time>2022-03-27T09:45:57Z</time>
      </trkpt>
      <trkpt lat="49.46993" lon="1.11752">
        <ele>159.9</ele>
        <time>2022-03-27T09:45:58Z</time>
      </trkpt>
      <trkpt lat="49.46988" lon="1.11747">
        <ele>159.8</ele>
        <time>2022-03-27T09:46:00Z</time>
      </trkpt>
      <trkpt lat="49.46982" lon="1.11742">
        <ele>159.7</ele>
        <time>2022-03-27T09:46:01Z</time>
      </trkpt>
      <trkpt lat="49.46975" lon="1.11735">
        <ele>159.7</ele>
        <time>2022-03-27T09:46:02Z</time>
      </trkpt>
      <trkpt lat="49.4697" lon="1.11731">
        <ele>159.7</ele>
        <time>2022-03-27T09:46:03Z</time>
      </trkpt>
      <trkpt lat="49.46963" lon="1.11725">
        <ele>159.7</ele>
        <time>2022-03-27T09:46:04Z</time>
      </trkpt>
      <trkpt lat="49.46958" lon="1.11722">
        <ele>159.7</ele>
        <time>2022-03-27T09:46:05Z</time>
      </trkpt>
      <trkpt lat="49.46953" lon="1.11717">
        <ele>159.7</ele>
        <time>2022-03-27T09:46:06Z</time>
      </trkpt>
      <trkpt lat="49.46947" lon="1.11714">
        <ele>159.7</ele>
        <time>2022-03-27T09:46:07Z</time>
      </trkpt>
      <trkpt lat="49.46942" lon="1.11711">
        <ele>159.7</ele>
        <time>2022-03-27T09:46:08Z</time>
      </trkpt>
      <trkpt lat="49.46936" lon="1.11709">
        <ele>159.7</ele>
        <time>2022-03-27T09:46:09Z</time>
      </trkpt>
      <trkpt lat="49.46931" lon="1.11706">
        <ele>159.7</ele>
        <time>2022-03-27T09:46:10Z</time>
      </trkpt>
      <trkpt lat="49.46925" lon="1.11704">
        <ele>159.7</ele>
        <time>2022-03-27T09:46:11Z</time>
      </trkpt>
      <trkpt lat="49.46919" lon="1.117">
        <ele>159.7</ele>
        <time>2022-03-27T09:46:12Z</time>
      </trkpt>
      <trkpt lat="49.46915" lon="1.11697">
        <ele>159.7</ele>
        <time>2022-03-27T09:46:13Z</time>
      </trkpt>
      <trkpt lat="49.4691" lon="1.11693">
        <ele>159.7</ele>
        <time>2022-03-27T09:46:14Z</time>
      </trkpt>
      <trkpt lat="49.46905" lon="1.11689">
        <ele>159.6</ele>
        <time>2022-03-27T09:46:15Z</time>
      </trkpt>
      <trkpt lat="49.469" lon="1.11684">
        <ele>159.6</ele>
        <time>2022-03-27T09:46:16Z</time>
      </trkpt>
      <trkpt lat="49.46895" lon="1.11679">
        <ele>159.6</ele>
        <time>2022-03-27T09:46:17Z</time>
      </trkpt>
      <trkpt lat="49.4689" lon="1.11675">
        <ele>159.6</ele>
        <time>2022-03-27T09:46:18Z</time>
      </trkpt>
      <trkpt lat="49.46886" lon="1.1167">
        <ele>159.5</ele>
        <time>2022-03-27T09:46:19Z</time>
      </trkpt>
      <trkpt lat="49.46881" lon="1.11666">
        <ele>159.5</ele>
        <time>2022-03-27T09:46:20Z</time>
      </trkpt>
      <trkpt lat="49.46876" lon="1.11662">
        <ele>159.5</ele>
        <time>2022-03-27T09:46:21Z</time>
      </trkpt>
      <trkpt lat="49.46872" lon="1.11657">
        <ele>159.5</ele>
        <time>2022-03-27T09:46:22Z</time>
      </trkpt>
      <trkpt lat="49.46868" lon="1.11652">
        <ele>159.4</ele>
        <time>2022-03-27T09:46:23Z</time>
      </trkpt>
      <trkpt lat="49.46863" lon="1.11649">
        <ele>159.4</ele>
        <time>2022-03-27T09:46:24Z</time>
      </trkpt>
      <trkpt lat="49.46857" lon="1.11645">
        <ele>159.4</ele>
        <time>2022-03-27T09:46:25Z</time>
      </trkpt>
      <trkpt lat="49.46851" lon="1.11641">
        <ele>159.3</ele>
        <time>2022-03-27T09:46:26Z</time>
      </trkpt>
      <trkpt lat="49.46845" lon="1.11635">
        <ele>159.3</ele>
        <time>2022-03-27T09:46:27Z</time>
      </trkpt>
      <trkpt lat="49.46839" lon="1.11629">
        <ele>159.3</ele>
        <time>2022-03-27T09:46:28Z</time>
      </trkpt>
      <trkpt lat="49.46834" lon="1.11624">
        <ele>159.3</ele>
        <time>2022-03-27T09:46:29Z</time>
      </trkpt>
      <trkpt lat="49.46829" lon="1.11618">
        <ele>159.2</ele>
        <time>2022-03-27T09:46:30Z</time>
      </trkpt>
      <trkpt lat="49.46824" lon="1.11612">
        <ele>159.2</ele>
        <time>2022-03-27T09:46:31Z</time>
      </trkpt>
      <trkpt lat="49.4682" lon="1.11605">
        <ele>159.2</ele>
        <time>2022-03-27T09:46:32Z</time>
      </trkpt>
      <trkpt lat="49.46815" lon="1.11599">
        <ele>159.2</ele>
        <time>2022-03-27T09:46:33Z</time>
      </trkpt>
      <trkpt lat="49.46811" lon="1.11595">
        <ele>159.1</ele>
        <time>2022-03-27T09:46:34Z</time>
      </trkpt>
      <trkpt lat="49.46806" lon="1.11589">
        <ele>159.1</ele>
        <time>2022-03-27T09:46:35Z</time>
      </trkpt>
      <trkpt lat="49.46803" lon="1.11583">
        <ele>159.1</ele>
        <time>2022-03-27T09:46:36Z</time>
      </trkpt>
      <trkpt lat="49.468" lon="1.11575">
        <ele>159.1</ele>
        <time>2022-03-27T09:46:37Z</time>
      </trkpt>
      <trkpt lat="49.46796" lon="1.11567">
        <ele>159.1</ele>
        <time>2022-03-27T09:46:38Z</time>
      </trkpt>
      <trkpt lat="49.4679" lon="1.11561">
        <ele>159</ele>
        <time>2022-03-27T09:46:39Z</time>
      </trkpt>
      <trkpt lat="49.46784" lon="1.11552">
        <ele>159</ele>
        <time>2022-03-27T09:46:40Z</time>
      </trkpt>
      <trkpt lat="49.46779" lon="1.11543">
        <ele>158.9</ele>
        <time>2022-03-27T09:46:41Z</time>
      </trkpt>
      <trkpt lat="49.46775" lon="1.11534">
        <ele>158.9</ele>
        <time>2022-03-27T09:46:42Z</time>
      </trkpt>
      <trkpt lat="49.46772" lon="1.11526">
        <ele>158.8</ele>
        <time>2022-03-27T09:46:43Z</time>
      </trkpt>
      <trkpt lat="49.46767" lon="1.11519">
        <ele>158.8</ele>
        <time>2022-03-27T09:46:44Z</time>
      </trkpt>
      <trkpt lat="49.46763" lon="1.11513">
        <ele>158.7</ele>
        <time>2022-03-27T09:46:45Z</time>
      </trkpt>
      <trkpt lat="49.46757" lon="1.11509">
        <ele>158.7</ele>
        <time>2022-03-27T09:46:46Z</time>
      </trkpt>
      <trkpt lat="49.46752" lon="1.11505">
        <ele>158.6</ele>
        <time>2022-03-27T09:46:47Z</time>
      </trkpt>
      <trkpt lat="49.46747" lon="1.11501">
        <ele>158.6</ele>
        <time>2022-03-27T09:46:48Z</time>
      </trkpt>
      <trkpt lat="49.46742" lon="1.11497">
        <ele>158.6</ele>
        <time>2022-03-27T09:46:49Z</time>
      </trkpt>
      <trkpt lat="49.46737" lon="1.11492">
        <ele>158.5</ele>
        <time>2022-03-27T09:46:50Z</time>
      </trkpt>
      <trkpt lat="49.46732" lon="1.11486">
        <ele>158.5</ele>
        <time>2022-03-27T09:46:51Z</time>
      </trkpt>
      <trkpt lat="49.46727" lon="1.11481">
        <ele>158.4</ele>
        <time>2022-03-27T09:46:52Z</time>
      </trkpt>
      <trkpt lat="49.46722" lon="1.11476">
        <ele>158.4</ele>
        <time>2022-03-27T09:46:53Z</time>
      </trkpt>
      <trkpt lat="49.46717" lon="1.11472">
        <ele>158.4</ele>
        <time>2022-03-27T09:46:54Z</time>
      </trkpt>
      <trkpt lat="49.46711" lon="1.11467">
        <ele>158.3</ele>
        <time>2022-03-27T09:46:55Z</time>
      </trkpt>
      <trkpt lat="49.46707" lon="1.11463">
        <ele>158.3</ele>
        <time>2022-03-27T09:46:56Z</time>
      </trkpt>
      <trkpt lat="49.46702" lon="1.11459">
        <ele>158.3</ele>
        <time>2022-03-27T09:46:57Z</time>
      </trkpt>
      <trkpt lat="49.46697" lon="1.11454">
        <ele>158.2</ele>
        <time>2022-03-27T09:46:58Z</time>
      </trkpt>
      <trkpt lat="49.46692" lon="1.1145">
        <ele>158.2</ele>
        <time>2022-03-27T09:46:59Z</time>
      </trkpt>
      <trkpt lat="49.46687" lon="1.11446">
        <ele>158.2</ele>
        <time>2022-03-27T09:47:00Z</time>
      </trkpt>
      <trkpt lat="49.46683" lon="1.11441">
        <ele>158.1</ele>
        <time>2022-03-27T09:47:01Z</time>
      </trkpt>
      <trkpt lat="49.46678" lon="1.11437">
        <ele>158.1</ele>
        <time>2022-03-27T09:47:02Z</time>
      </trkpt>
      <trkpt lat="49.46673" lon="1.11432">
        <ele>158.1</ele>
        <time>2022-03-27T09:47:03Z</time>
      </trkpt>
      <trkpt lat="49.46668" lon="1.11427">
        <ele>158</ele>
        <time>2022-03-27T09:47:04Z</time>
      </trkpt>
      <trkpt lat="49.46663" lon="1.11422">
        <ele>158</ele>
        <time>2022-03-27T09:47:05Z</time>
      </trkpt>
      <trkpt lat="49.46657" lon="1.11417">
        <ele>158</ele>
        <time>2022-03-27T09:47:06Z</time>
      </trkpt>
      <trkpt lat="49.46652" lon="1.11411">
        <ele>158</ele>
        <time>2022-03-27T09:47:07Z</time>
      </trkpt>
      <trkpt lat="49.46648" lon="1.11405">
        <ele>158</ele>
        <time>2022-03-27T09:47:08Z</time>
      </trkpt>
      <trkpt lat="49.46643" lon="1.114">
        <ele>158</ele>
        <time>2022-03-27T09:47:09Z</time>
      </trkpt>
      <trkpt lat="49.46639" lon="1.11394">
        <ele>158</ele>
        <time>2022-03-27T09:47:10Z</time>
      </trkpt>
      <trkpt lat="49.46634" lon="1.11389">
        <ele>158</ele>
        <time>2022-03-27T09:47:11Z</time>
      </trkpt>
      <trkpt lat="49.46629" lon="1.11383">
        <ele>157.9</ele>
        <time>2022-03-27T09:47:12Z</time>
      </trkpt>
      <trkpt lat="49.46624" lon="1.11377">
        <ele>157.9</ele>
        <time>2022-03-27T09:47:13Z</time>
      </trkpt>
      <trkpt lat="49.4662" lon="1.11372">
        <ele>157.9</ele>
        <time>2022-03-27T09:47:14Z</time>
      </trkpt>
      <trkpt lat="49.46615" lon="1.11366">
        <ele>157.8</ele>
        <time>2022-03-27T09:47:15Z</time>
      </trkpt>
      <trkpt lat="49.46612" lon="1.11362">
        <ele>157.8</ele>
        <time>2022-03-27T09:47:16Z</time>
      </trkpt>
      <trkpt lat="49.46609" lon="1.11358">
        <ele>157.8</ele>
        <time>2022-03-27T09:47:17Z</time>
      </trkpt>
      <trkpt lat="49.46605" lon="1.11353">
        <ele>157.7</ele>
        <time>2022-03-27T09:47:18Z</time>
      </trkpt>
      <trkpt lat="49.46604" lon="1.11351">
        <ele>157.7</ele>
        <time>2022-03-27T09:47:19Z</time>
      </trkpt>
      <trkpt lat="49.46599" lon="1.11347">
        <ele>157.7</ele>
        <time>2022-03-27T09:47:20Z</time>
      </trkpt>
      <trkpt lat="49.46594" lon="1.11342">
        <ele>157.7</ele>
        <time>2022-03-27T09:47:21Z</time>
      </trkpt>
      <trkpt lat="49.46591" lon="1.1134">
        <ele>157.6</ele>
        <time>2022-03-27T09:47:22Z</time>
      </trkpt>
      <trkpt lat="49.46586" lon="1.11336">
        <ele>157.6</ele>
        <time>2022-03-27T09:47:23Z</time>
      </trkpt>
      <trkpt lat="49.46582" lon="1.11332">
        <ele>157.6</ele>
        <time>2022-03-27T09:47:24Z</time>
      </trkpt>
      <trkpt lat="49.46577" lon="1.11328">
        <ele>157.6</ele>
        <time>2022-03-27T09:47:25Z</time>
      </trkpt>
      <trkpt lat="49.46572" lon="1.11325">
        <ele>157.6</ele>
        <time>2022-03-27T09:47:26Z</time>
      </trkpt>
      <trkpt lat="49.46568" lon="1.11322">
        <ele>157.6</ele>
        <time>2022-03-27T09:47:27Z</time>
      </trkpt>
      <trkpt lat="49.46563" lon="1.11318">
        <ele>157.6</ele>
        <time>2022-03-27T09:47:28Z</time>
      </trkpt>
      <trkpt lat="49.46559" lon="1.11314">
        <ele>157.7</ele>
        <time>2022-03-27T09:47:29Z</time>
      </trkpt>
      <trkpt lat="49.46554" lon="1.1131">
        <ele>157.7</ele>
        <time>2022-03-27T09:47:30Z</time>
      </trkpt>
      <trkpt lat="49.46549" lon="1.11305">
        <ele>157.7</ele>
        <time>2022-03-27T09:47:31Z</time>
      </trkpt>
      <trkpt lat="49.46545" lon="1.11299">
        <ele>157.7</ele>
        <time>2022-03-27T09:47:32Z</time>
      </trkpt>
      <trkpt lat="49.4654" lon="1.11293">
        <ele>157.7</ele>
        <time>2022-03-27T09:47:33Z</time>
      </trkpt>
      <trkpt lat="49.46536" lon="1.11289">
        <ele>157.6</ele>
        <time>2022-03-27T09:47:34Z</time>
      </trkpt>
      <trkpt lat="49.46531" lon="1.11285">
        <ele>157.6</ele>
        <time>2022-03-27T09:47:35Z</time>
      </trkpt>
      <trkpt lat="49.46529" lon="1.11281">
        <ele>157.6</ele>
        <time>2022-03-27T09:47:36Z</time>
      </trkpt>
      <trkpt lat="49.46524" lon="1.11274">
        <ele>157.6</ele>
        <time>2022-03-27T09:47:37Z</time>
      </trkpt>
      <trkpt lat="49.46519" lon="1.11265">
        <ele>157.6</ele>
        <time>2022-03-27T09:47:38Z</time>
      </trkpt>
      <trkpt lat="49.46514" lon="1.11258">
        <ele>157.5</ele>
        <time>2022-03-27T09:47:39Z</time>
      </trkpt>
      <trkpt lat="49.4651" lon="1.11252">
        <ele>157.5</ele>
        <time>2022-03-27T09:47:40Z</time>
      </trkpt>
      <trkpt lat="49.46505" lon="1.11246">
        <ele>157.4</ele>
        <time>2022-03-27T09:47:41Z</time>
      </trkpt>
      <trkpt lat="49.46502" lon="1.11241">
        <ele>157.4</ele>
        <time>2022-03-27T09:47:42Z</time>
      </trkpt>
      <trkpt lat="49.46498" lon="1.11237">
        <ele>157.4</ele>
        <time>2022-03-27T09:47:43Z</time>
      </trkpt>
      <trkpt lat="49.46494" lon="1.11232">
        <ele>157.4</ele>
        <time>2022-03-27T09:47:44Z</time>
      </trkpt>
      <trkpt lat="49.4649" lon="1.11227">
        <ele>157.3</ele>
        <time>2022-03-27T09:47:45Z</time>
      </trkpt>
      <trkpt lat="49.46486" lon="1.11221">
        <ele>157.3</ele>
        <time>2022-03-27T09:47:46Z</time>
      </trkpt>
      <trkpt lat="49.46482" lon="1.11214">
        <ele>157.3</ele>
        <time>2022-03-27T09:47:47Z</time>
      </trkpt>
      <trkpt lat="49.46478" lon="1.11208">
        <ele>157.2</ele>
        <time>2022-03-27T09:47:48Z</time>
      </trkpt>
      <trkpt lat="49.46474" lon="1.11202">
        <ele>157.2</ele>
        <time>2022-03-27T09:47:49Z</time>
      </trkpt>
      <trkpt lat="49.46471" lon="1.11193">
        <ele>157.1</ele>
        <time>2022-03-27T09:47:50Z</time>
      </trkpt>
      <trkpt lat="49.46467" lon="1.11186">
        <ele>157</ele>
        <time>2022-03-27T09:47:51Z</time>
      </trkpt>
      <trkpt lat="49.46463" lon="1.11181">
        <ele>157</ele>
        <time>2022-03-27T09:47:52Z</time>
      </trkpt>
      <trkpt lat="49.46459" lon="1.11175">
        <ele>156.9</ele>
        <time>2022-03-27T09:47:53Z</time>
      </trkpt>
      <trkpt lat="49.46455" lon="1.1117">
        <ele>156.9</ele>
        <time>2022-03-27T09:47:54Z</time>
      </trkpt>
      <trkpt lat="49.46452" lon="1.11164">
        <ele>156.9</ele>
        <time>2022-03-27T09:47:55Z</time>
      </trkpt>
      <trkpt lat="49.46448" lon="1.11158">
        <ele>156.9</ele>
        <time>2022-03-27T09:47:56Z</time>
      </trkpt>
      <trkpt lat="49.46444" lon="1.11152">
        <ele>156.9</ele>
        <time>2022-03-27T09:47:57Z</time>
      </trkpt>
      <trkpt lat="49.4644" lon="1.11147">
        <ele>156.9</ele>
        <time>2022-03-27T09:47:58Z</time>
      </trkpt>
      <trkpt lat="49.46436" lon="1.11141">
        <ele>156.8</ele>
        <time>2022-03-27T09:47:59Z</time>
      </trkpt>
      <trkpt lat="49.46432" lon="1.11134">
        <ele>156.8</ele>
        <time>2022-03-27T09:48:00Z</time>
      </trkpt>
      <trkpt lat="49.46427" lon="1.11128">
        <ele>156.8</ele>
        <time>2022-03-27T09:48:01Z</time>
      </trkpt>
      <trkpt lat="49.46424" lon="1.11122">
        <ele>156.7</ele>
        <time>2022-03-27T09:48:02Z</time>
      </trkpt>
      <trkpt lat="49.46419" lon="1.11116">
        <ele>156.7</ele>
        <time>2022-03-27T09:48:03Z</time>
      </trkpt>
      <trkpt lat="49.46415" lon="1.11111">
        <ele>156.7</ele>
        <time>2022-03-27T09:48:04Z</time>
      </trkpt>
      <trkpt lat="49.4641" lon="1.11106">
        <ele>156.6</ele>
        <time>2022-03-27T09:48:05Z</time>
      </trkpt>
      <trkpt lat="49.46405" lon="1.111">
        <ele>156.6</ele>
        <time>2022-03-27T09:48:06Z</time>
      </trkpt>
      <trkpt lat="49.464" lon="1.11094">
        <ele>156.5</ele>
        <time>2022-03-27T09:48:07Z</time>
      </trkpt>
      <trkpt lat="49.46395" lon="1.11088">
        <ele>156.5</ele>
        <time>2022-03-27T09:48:08Z</time>
      </trkpt>
      <trkpt lat="49.4639" lon="1.11082">
        <ele>156.5</ele>
        <time>2022-03-27T09:48:09Z</time>
      </trkpt>
      <trkpt lat="49.46385" lon="1.11075">
        <ele>156.4</ele>
        <time>2022-03-27T09:48:10Z</time>
      </trkpt>
      <trkpt lat="49.4638" lon="1.11068">
        <ele>156.4</ele>
        <time>2022-03-27T09:48:11Z</time>
      </trkpt>
      <trkpt lat="49.46375" lon="1.11061">
        <ele>156.3</ele>
        <time>2022-03-27T09:48:12Z</time>
      </trkpt>
      <trkpt lat="49.46369" lon="1.11054">
        <ele>156.2</ele>
        <time>2022-03-27T09:48:13Z</time>
      </trkpt>
      <trkpt lat="49.46364" lon="1.11047">
        <ele>156.2</ele>
        <time>2022-03-27T09:48:14Z</time>
      </trkpt>
      <trkpt lat="49.46359" lon="1.11041">
        <ele>156.2</ele>
        <time>2022-03-27T09:48:15Z</time>
      </trkpt>
      <trkpt lat="49.46355" lon="1.11034">
        <ele>156.1</ele>
        <time>2022-03-27T09:48:16Z</time>
      </trkpt>
      <trkpt lat="49.4635" lon="1.11026">
        <ele>156.1</ele>
        <time>2022-03-27T09:48:17Z</time>
      </trkpt>
      <trkpt lat="49.46344" lon="1.11019">
        <ele>156.1</ele>
        <time>2022-03-27T09:48:18Z</time>
      </trkpt>
      <trkpt lat="49.46339" lon="1.11012">
        <ele>156</ele>
        <time>2022-03-27T09:48:19Z</time>
      </trkpt>
      <trkpt lat="49.46335" lon="1.11005">
        <ele>156</ele>
        <time>2022-03-27T09:48:20Z</time>
      </trkpt>
      <trkpt lat="49.46331" lon="1.10998">
        <ele>156</ele>
        <time>2022-03-27T09:48:21Z</time>
      </trkpt>
      <trkpt lat="49.46326" lon="1.10993">
        <ele>155.9</ele>
        <time>2022-03-27T09:48:22Z</time>
      </trkpt>
      <trkpt lat="49.4632" lon="1.10989">
        <ele>155.9</ele>
        <time>2022-03-27T09:48:23Z</time>
      </trkpt>
      <trkpt lat="49.46314" lon="1.10984">
        <ele>155.8</ele>
        <time>2022-03-27T09:48:24Z</time>
      </trkpt>
      <trkpt lat="49.46309" lon="1.10975">
        <ele>155.7</ele>
        <time>2022-03-27T09:48:25Z</time>
      </trkpt>
      <trkpt lat="49.46303" lon="1.10968">
        <ele>155.6</ele>
        <time>2022-03-27T09:48:26Z</time>
      </trkpt>
      <trkpt lat="49.46297" lon="1.10962">
        <ele>155.5</ele>
        <time>2022-03-27T09:48:27Z</time>
      </trkpt>
      <trkpt lat="49.46291" lon="1.10957">
        <ele>155.5</ele>
        <time>2022-03-27T09:48:28Z</time>
      </trkpt>
      <trkpt lat="49.46285" lon="1.10952">
        <ele>155.4</ele>
        <time>2022-03-27T09:48:29Z</time>
      </trkpt>
      <trkpt lat="49.46279" lon="1.10948">
        <ele>155.4</ele>
        <time>2022-03-27T09:48:30Z</time>
      </trkpt>
      <trkpt lat="49.46273" lon="1.10942">
        <ele>155.3</ele>
        <time>2022-03-27T09:48:31Z</time>
      </trkpt>
      <trkpt lat="49.46267" lon="1.10937">
        <ele>155.2</ele>
        <time>2022-03-27T09:48:32Z</time>
      </trkpt>
      <trkpt lat="49.4626" lon="1.10931">
        <ele>155.2</ele>
        <time>2022-03-27T09:48:33Z</time>
      </trkpt>
      <trkpt lat="49.46255" lon="1.10924">
        <ele>155.1</ele>
        <time>2022-03-27T09:48:34Z</time>
      </trkpt>
      <trkpt lat="49.4625" lon="1.10917">
        <ele>155</ele>
        <time>2022-03-27T09:48:35Z</time>
      </trkpt>
      <trkpt lat="49.46244" lon="1.10913">
        <ele>155</ele>
        <time>2022-03-27T09:48:36Z</time>
      </trkpt>
      <trkpt lat="49.46239" lon="1.10907">
        <ele>154.9</ele>
        <time>2022-03-27T09:48:37Z</time>
      </trkpt>
      <trkpt lat="49.46235" lon="1.10903">
        <ele>154.9</ele>
        <time>2022-03-27T09:48:38Z</time>
      </trkpt>
      <trkpt lat="49.46232" lon="1.10902">
        <ele>154.8</ele>
        <time>2022-03-27T09:48:39Z</time>
      </trkpt>
      <trkpt lat="49.46231" lon="1.10902">
        <ele>154.8</ele>
        <time>2022-03-27T09:48:40Z</time>
      </trkpt>
      <trkpt lat="49.4623" lon="1.10901">
        <ele>154.8</ele>
        <time>2022-03-27T09:48:41Z</time>
      </trkpt>
      <trkpt lat="49.4623" lon="1.10899">
        <ele>154.8</ele>
        <time>2022-03-27T09:48:42Z</time>
      </trkpt>
      <trkpt lat="49.46228" lon="1.10894">
        <ele>154.8</ele>
        <time>2022-03-27T09:48:43Z</time>
      </trkpt>
      <trkpt lat="49.46227" lon="1.10892">
        <ele>154.8</ele>
        <time>2022-03-27T09:48:44Z</time>
      </trkpt>
      <trkpt lat="49.46224" lon="1.10889">
        <ele>154.7</ele>
        <time>2022-03-27T09:48:45Z</time>
      </trkpt>
      <trkpt lat="49.46221" lon="1.10888">
        <ele>154.7</ele>
        <time>2022-03-27T09:48:46Z</time>
      </trkpt>
      <trkpt lat="49.46218" lon="1.1089">
        <ele>154.7</ele>
        <time>2022-03-27T09:48:47Z</time>
      </trkpt>
      <trkpt lat="49.46214" lon="1.10886">
        <ele>154.6</ele>
        <time>2022-03-27T09:48:48Z</time>
      </trkpt>
      <trkpt lat="49.46209" lon="1.10884">
        <ele>154.6</ele>
        <time>2022-03-27T09:48:49Z</time>
      </trkpt>
      <trkpt lat="49.46203" lon="1.10877">
        <ele>154.5</ele>
        <time>2022-03-27T09:48:50Z</time>
      </trkpt>
      <trkpt lat="49.46198" lon="1.10872">
        <ele>154.4</ele>
        <time>2022-03-27T09:48:51Z</time>
      </trkpt>
      <trkpt lat="49.46193" lon="1.10867">
        <ele>154.3</ele>
        <time>2022-03-27T09:48:52Z</time>
      </trkpt>
      <trkpt lat="49.46189" lon="1.10859">
        <ele>154.2</ele>
        <time>2022-03-27T09:48:53Z</time>
      </trkpt>
      <trkpt lat="49.46183" lon="1.10854">
        <ele>154.2</ele>
        <time>2022-03-27T09:48:54Z</time>
      </trkpt>
      <trkpt lat="49.46178" lon="1.10848">
        <ele>154.1</ele>
        <time>2022-03-27T09:48:55Z</time>
      </trkpt>
      <trkpt lat="49.46172" lon="1.10842">
        <ele>154</ele>
        <time>2022-03-27T09:48:56Z</time>
      </trkpt>
      <trkpt lat="49.46167" lon="1.10836">
        <ele>153.9</ele>
        <time>2022-03-27T09:48:57Z</time>
      </trkpt>
      <trkpt lat="49.46162" lon="1.10831">
        <ele>153.8</ele>
        <time>2022-03-27T09:48:58Z</time>
      </trkpt>
      <trkpt lat="49.46155" lon="1.10826">
        <ele>153.8</ele>
        <time>2022-03-27T09:48:59Z</time>
      </trkpt>
      <trkpt lat="49.4615" lon="1.1082">
        <ele>153.7</ele>
        <time>2022-03-27T09:49:00Z</time>
      </trkpt>
      <trkpt lat="49.46144" lon="1.10814">
        <ele>153.6</ele>
        <time>2022-03-27T09:49:01Z</time>
      </trkpt>
      <trkpt lat="49.46138" lon="1.10808">
        <ele>153.5</ele>
        <time>2022-03-27T09:49:02Z</time>
      </trkpt>
      <trkpt lat="49.46132" lon="1.10803">
        <ele>153.4</ele>
        <time>2022-03-27T09:49:03Z</time>
      </trkpt>
      <trkpt lat="49.46125" lon="1.10798">
        <ele>153.3</ele>
        <time>2022-03-27T09:49:04Z</time>
      </trkpt>
      <trkpt lat="49.46119" lon="1.10793">
        <ele>153.2</ele>
        <time>2022-03-27T09:49:05Z</time>
      </trkpt>
      <trkpt lat="49.46113" lon="1.10788">
        <ele>153</ele>
        <time>2022-03-27T09:49:06Z</time>
      </trkpt>
      <trkpt lat="49.46107" lon="1.10784">
        <ele>152.9</ele>
        <time>2022-03-27T09:49:07Z</time>
      </trkpt>
      <trkpt lat="49.461" lon="1.10779">
        <ele>152.8</ele>
        <time>2022-03-27T09:49:08Z</time>
      </trkpt>
      <trkpt lat="49.46094" lon="1.10775">
        <ele>152.7</ele>
        <time>2022-03-27T09:49:09Z</time>
      </trkpt>
      <trkpt lat="49.46087" lon="1.10769">
        <ele>152.6</ele>
        <time>2022-03-27T09:49:10Z</time>
      </trkpt>
      <trkpt lat="49.4608" lon="1.10764">
        <ele>152.5</ele>
        <time>2022-03-27T09:49:11Z</time>
      </trkpt>
      <trkpt lat="49.46074" lon="1.10759">
        <ele>152.4</ele>
        <time>2022-03-27T09:49:12Z</time>
      </trkpt>
      <trkpt lat="49.46067" lon="1.10753">
        <ele>152.3</ele>
        <time>2022-03-27T09:49:13Z</time>
      </trkpt>
      <trkpt lat="49.46061" lon="1.10749">
        <ele>152.2</ele>
        <time>2022-03-27T09:49:14Z</time>
      </trkpt>
      <trkpt lat="49.46055" lon="1.10745">
        <ele>152.1</ele>
        <time>2022-03-27T09:49:15Z</time>
      </trkpt>
      <trkpt lat="49.46048" lon="1.1074">
        <ele>152</ele>
        <time>2022-03-27T09:49:16Z</time>
      </trkpt>
      <trkpt lat="49.46043" lon="1.10735">
        <ele>151.9</ele>
        <time>2022-03-27T09:49:17Z</time>
      </trkpt>
      <trkpt lat="49.46036" lon="1.10731">
        <ele>151.8</ele>
        <time>2022-03-27T09:49:18Z</time>
      </trkpt>
      <trkpt lat="49.4603" lon="1.10727">
        <ele>151.8</ele>
        <time>2022-03-27T09:49:19Z</time>
      </trkpt>
      <trkpt lat="49.46025" lon="1.10723">
        <ele>151.7</ele>
        <time>2022-03-27T09:49:20Z</time>
      </trkpt>
      <trkpt lat="49.46019" lon="1.1072">
        <ele>151.7</ele>
        <time>2022-03-27T09:49:21Z</time>
      </trkpt>
      <trkpt lat="49.46015" lon="1.10716">
        <ele>151.6</ele>
        <time>2022-03-27T09:49:22Z</time>
      </trkpt>
      <trkpt lat="49.46011" lon="1.10714">
        <ele>151.6</ele>
        <time>2022-03-27T09:49:23Z</time>
      </trkpt>
      <trkpt lat="49.46009" lon="1.10711">
        <ele>151.6</ele>
        <time>2022-03-27T09:49:24Z</time>
      </trkpt>
      <trkpt lat="49.46008" lon="1.1071">
        <ele>151.5</ele>
        <time>2022-03-27T09:49:25Z</time>
      </trkpt>
      <trkpt lat="49.46005" lon="1.10708">
        <ele>151.5</ele>
        <time>2022-03-27T09:49:26Z</time>
      </trkpt>
      <trkpt lat="49.46002" lon="1.10706">
        <ele>151.5</ele>
        <time>2022-03-27T09:49:27Z</time>
      </trkpt>
      <trkpt lat="49.45998" lon="1.10704">
        <ele>151.4</ele>
        <time>2022-03-27T09:49:28Z</time>
      </trkpt>
      <trkpt lat="49.45993" lon="1.10699">
        <ele>151.3</ele>
        <time>2022-03-27T09:49:29Z</time>
      </trkpt>
      <trkpt lat="49.45989" lon="1.10692">
        <ele>151.2</ele>
        <time>2022-03-27T09:49:30Z</time>
      </trkpt>
      <trkpt lat="49.45984" lon="1.10685">
        <ele>151.1</ele>
        <time>2022-03-27T09:49:31Z</time>
      </trkpt>
      <trkpt lat="49.45981" lon="1.10677">
        <ele>151</ele>
        <time>2022-03-27T09:49:32Z</time>
      </trkpt>
      <trkpt lat="49.45977" lon="1.1067">
        <ele>150.9</ele>
        <time>2022-03-27T09:49:33Z</time>
      </trkpt>
      <trkpt lat="49.45971" lon="1.10662">
        <ele>150.7</ele>
        <time>2022-03-27T09:49:34Z</time>
      </trkpt>
      <trkpt lat="49.45966" lon="1.10654">
        <ele>150.6</ele>
        <time>2022-03-27T09:49:35Z</time>
      </trkpt>
      <trkpt lat="49.45962" lon="1.10645">
        <ele>150.4</ele>
        <time>2022-03-27T09:49:36Z</time>
      </trkpt>
      <trkpt lat="49.45957" lon="1.10637">
        <ele>150.3</ele>
        <time>2022-03-27T09:49:37Z</time>
      </trkpt>
      <trkpt lat="49.45952" lon="1.10628">
        <ele>150.2</ele>
        <time>2022-03-27T09:49:38Z</time>
      </trkpt>
      <trkpt lat="49.45946" lon="1.1062">
        <ele>150.1</ele>
        <time>2022-03-27T09:49:39Z</time>
      </trkpt>
      <trkpt lat="49.45941" lon="1.10611">
        <ele>150</ele>
        <time>2022-03-27T09:49:40Z</time>
      </trkpt>
      <trkpt lat="49.45936" lon="1.10603">
        <ele>149.9</ele>
        <time>2022-03-27T09:49:41Z</time>
      </trkpt>
      <trkpt lat="49.45931" lon="1.10595">
        <ele>149.7</ele>
        <time>2022-03-27T09:49:42Z</time>
      </trkpt>
      <trkpt lat="49.45926" lon="1.10586">
        <ele>149.5</ele>
        <time>2022-03-27T09:49:43Z</time>
      </trkpt>
      <trkpt lat="49.45921" lon="1.10577">
        <ele>149.3</ele>
        <time>2022-03-27T09:49:44Z</time>
      </trkpt>
      <trkpt lat="49.45916" lon="1.10568">
        <ele>149.1</ele>
        <time>2022-03-27T09:49:45Z</time>
      </trkpt>
      <trkpt lat="49.45911" lon="1.10559">
        <ele>148.9</ele>
        <time>2022-03-27T09:49:46Z</time>
      </trkpt>
      <trkpt lat="49.45906" lon="1.1055">
        <ele>148.7</ele>
        <time>2022-03-27T09:49:47Z</time>
      </trkpt>
      <trkpt lat="49.45901" lon="1.10541">
        <ele>148.6</ele>
        <time>2022-03-27T09:49:48Z</time>
      </trkpt>
      <trkpt lat="49.45895" lon="1.10533">
        <ele>148.4</ele>
        <time>2022-03-27T09:49:49Z</time>
      </trkpt>
      <trkpt lat="49.4589" lon="1.10525">
        <ele>148.3</ele>
        <time>2022-03-27T09:49:50Z</time>
      </trkpt>
      <trkpt lat="49.45885" lon="1.10516">
        <ele>148.1</ele>
        <time>2022-03-27T09:49:51Z</time>
      </trkpt>
      <trkpt lat="49.4588" lon="1.10508">
        <ele>147.9</ele>
        <time>2022-03-27T09:49:52Z</time>
      </trkpt>
      <trkpt lat="49.45875" lon="1.10499">
        <ele>147.7</ele>
        <time>2022-03-27T09:49:53Z</time>
      </trkpt>
      <trkpt lat="49.45871" lon="1.1049">
        <ele>147.5</ele>
        <time>2022-03-27T09:49:54Z</time>
      </trkpt>
      <trkpt lat="49.45866" lon="1.1048">
        <ele>147.1</ele>
        <time>2022-03-27T09:49:55Z</time>
      </trkpt>
      <trkpt lat="49.45861" lon="1.1047">
        <ele>146.7</ele>
        <time>2022-03-27T09:49:56Z</time>
      </trkpt>
      <trkpt lat="49.45857" lon="1.1046">
        <ele>146.4</ele>
        <time>2022-03-27T09:49:57Z</time>
      </trkpt>
      <trkpt lat="49.45852" lon="1.10451">
        <ele>145.9</ele>
        <time>2022-03-27T09:49:58Z</time>
      </trkpt>
      <trkpt lat="49.45847" lon="1.1044">
        <ele>145.5</ele>
        <time>2022-03-27T09:49:59Z</time>
      </trkpt>
      <trkpt lat="49.45841" lon="1.10431">
        <ele>145</ele>
        <time>2022-03-27T09:50:00Z</time>
      </trkpt>
      <trkpt lat="49.45834" lon="1.10423">
        <ele>144.4</ele>
        <time>2022-03-27T09:50:01Z</time>
      </trkpt>
      <trkpt lat="49.45826" lon="1.10415">
        <ele>143.8</ele>
        <time>2022-03-27T09:50:02Z</time>
      </trkpt>
      <trkpt lat="49.45819" lon="1.10407">
        <ele>143.2</ele>
        <time>2022-03-27T09:50:03Z</time>
      </trkpt>
      <trkpt lat="49.45812" lon="1.10398">
        <ele>142.5</ele>
        <time>2022-03-27T09:50:04Z</time>
      </trkpt>
      <trkpt lat="49.45805" lon="1.10388">
        <ele>141.8</ele>
        <time>2022-03-27T09:50:05Z</time>
      </trkpt>
      <trkpt lat="49.45796" lon="1.1038">
        <ele>141.1</ele>
        <time>2022-03-27T09:50:06Z</time>
      </trkpt>
      <trkpt lat="49.45787" lon="1.10376">
        <ele>140.9</ele>
        <time>2022-03-27T09:50:07Z</time>
      </trkpt>
      <trkpt lat="49.45778" lon="1.10376">
        <ele>140.8</ele>
        <time>2022-03-27T09:50:08Z</time>
      </trkpt>
      <trkpt lat="49.45769" lon="1.10375">
        <ele>140.4</ele>
        <time>2022-03-27T09:50:09Z</time>
      </trkpt>
      <trkpt lat="49.4576" lon="1.10373">
        <ele>140</ele>
        <time>2022-03-27T09:50:10Z</time>
      </trkpt>
      <trkpt lat="49.45751" lon="1.10372">
        <ele>139.6</ele>
        <time>2022-03-27T09:50:11Z</time>
      </trkpt>
      <trkpt lat="49.45742" lon="1.1037">
        <ele>139.1</ele>
        <time>2022-03-27T09:50:12Z</time>
      </trkpt>
      <trkpt lat="49.45734" lon="1.10367">
        <ele>138.6</ele>
        <time>2022-03-27T09:50:13Z</time>
      </trkpt>
      <trkpt lat="49.45726" lon="1.10364">
        <ele>138.2</ele>
        <time>2022-03-27T09:50:14Z</time>
      </trkpt>
      <trkpt lat="49.45721" lon="1.10361">
        <ele>137.9</ele>
        <time>2022-03-27T09:50:15Z</time>
      </trkpt>
      <trkpt lat="49.45716" lon="1.10359">
        <ele>137.6</ele>
        <time>2022-03-27T09:50:16Z</time>
      </trkpt>
      <trkpt lat="49.45712" lon="1.10358">
        <ele>137.4</ele>
        <time>2022-03-27T09:50:17Z</time>
      </trkpt>
      <trkpt lat="49.45708" lon="1.10356">
        <ele>137.2</ele>
        <time>2022-03-27T09:50:18Z</time>
      </trkpt>
      <trkpt lat="49.45703" lon="1.10354">
        <ele>137</ele>
        <time>2022-03-27T09:50:19Z</time>
      </trkpt>
      <trkpt lat="49.45698" lon="1.10352">
        <ele>136.7</ele>
        <time>2022-03-27T09:50:20Z</time>
      </trkpt>
      <trkpt lat="49.45692" lon="1.10349">
        <ele>136.5</ele>
        <time>2022-03-27T09:50:21Z</time>
      </trkpt>
      <trkpt lat="49.45687" lon="1.10346">
        <ele>136.2</ele>
        <time>2022-03-27T09:50:22Z</time>
      </trkpt>
      <trkpt lat="49.4568" lon="1.10343">
        <ele>135.9</ele>
        <time>2022-03-27T09:50:23Z</time>
      </trkpt>
      <trkpt lat="49.45674" lon="1.1034">
        <ele>135.6</ele>
        <time>2022-03-27T09:50:24Z</time>
      </trkpt>
      <trkpt lat="49.45669" lon="1.10334">
        <ele>135.3</ele>
        <time>2022-03-27T09:50:25Z</time>
      </trkpt>
      <trkpt lat="49.45663" lon="1.10328">
        <ele>134.9</ele>
        <time>2022-03-27T09:50:26Z</time>
      </trkpt>
      <trkpt lat="49.45657" lon="1.10322">
        <ele>134.5</ele>
        <time>2022-03-27T09:50:27Z</time>
      </trkpt>
      <trkpt lat="49.45651" lon="1.10316">
        <ele>134</ele>
        <time>2022-03-27T09:50:28Z</time>
      </trkpt>
      <trkpt lat="49.45645" lon="1.10308">
        <ele>133.3</ele>
        <time>2022-03-27T09:50:29Z</time>
      </trkpt>
      <trkpt lat="49.45637" lon="1.103">
        <ele>132.4</ele>
        <time>2022-03-27T09:50:30Z</time>
      </trkpt>
      <trkpt lat="49.4563" lon="1.10292">
        <ele>131.4</ele>
        <time>2022-03-27T09:50:31Z</time>
      </trkpt>
      <trkpt lat="49.45623" lon="1.10284">
        <ele>130.4</ele>
        <time>2022-03-27T09:50:32Z</time>
      </trkpt>
      <trkpt lat="49.45615" lon="1.10276">
        <ele>129.6</ele>
        <time>2022-03-27T09:50:33Z</time>
      </trkpt>
      <trkpt lat="49.45609" lon="1.10267">
        <ele>128.9</ele>
        <time>2022-03-27T09:50:34Z</time>
      </trkpt>
      <trkpt lat="49.45602" lon="1.10257">
        <ele>128.3</ele>
        <time>2022-03-27T09:50:35Z</time>
      </trkpt>
      <trkpt lat="49.45595" lon="1.10248">
        <ele>127.6</ele>
        <time>2022-03-27T09:50:36Z</time>
      </trkpt>
      <trkpt lat="49.45587" lon="1.1024">
        <ele>126.9</ele>
        <time>2022-03-27T09:50:37Z</time>
      </trkpt>
      <trkpt lat="49.45579" lon="1.10231">
        <ele>126.2</ele>
        <time>2022-03-27T09:50:38Z</time>
      </trkpt>
      <trkpt lat="49.45571" lon="1.10223">
        <ele>125.4</ele>
        <time>2022-03-27T09:50:39Z</time>
      </trkpt>
      <trkpt lat="49.45563" lon="1.10215">
        <ele>124.6</ele>
        <time>2022-03-27T09:50:40Z</time>
      </trkpt>
      <trkpt lat="49.45554" lon="1.10207">
        <ele>123.8</ele>
        <time>2022-03-27T09:50:41Z</time>
      </trkpt>
      <trkpt lat="49.45545" lon="1.10198">
        <ele>122.9</ele>
        <time>2022-03-27T09:50:42Z</time>
      </trkpt>
      <trkpt lat="49.45537" lon="1.1019">
        <ele>122</ele>
        <time>2022-03-27T09:50:43Z</time>
      </trkpt>
      <trkpt lat="49.45528" lon="1.10181">
        <ele>121.2</ele>
        <time>2022-03-27T09:50:44Z</time>
      </trkpt>
      <trkpt lat="49.4552" lon="1.10171">
        <ele>120.5</ele>
        <time>2022-03-27T09:50:45Z</time>
      </trkpt>
      <trkpt lat="49.45511" lon="1.10161">
        <ele>119.8</ele>
        <time>2022-03-27T09:50:46Z</time>
      </trkpt>
      <trkpt lat="49.45504" lon="1.10149">
        <ele>119.1</ele>
        <time>2022-03-27T09:50:47Z</time>
      </trkpt>
      <trkpt lat="49.45496" lon="1.10139">
        <ele>118.5</ele>
        <time>2022-03-27T09:50:48Z</time>
      </trkpt>
      <trkpt lat="49.4549" lon="1.10127">
        <ele>117.9</ele>
        <time>2022-03-27T09:50:49Z</time>
      </trkpt>
      <trkpt lat="49.45484" lon="1.10115">
        <ele>117.2</ele>
        <time>2022-03-27T09:50:50Z</time>
      </trkpt>
      <trkpt lat="49.45478" lon="1.10103">
        <ele>116.5</ele>
        <time>2022-03-27T09:50:51Z</time>
      </trkpt>
      <trkpt lat="49.45469" lon="1.10096">
        <ele>115.9</ele>
        <time>2022-03-27T09:50:52Z</time>
      </trkpt>
      <trkpt lat="49.45462" lon="1.10089">
        <ele>115.9</ele>
        <time>2022-03-27T09:50:53Z</time>
      </trkpt>
      <trkpt lat="49.45455" lon="1.10083">
        <ele>115.1</ele>
        <time>2022-03-27T09:50:54Z</time>
      </trkpt>
      <trkpt lat="49.45448" lon="1.10077">
        <ele>114.1</ele>
        <time>2022-03-27T09:50:55Z</time>
      </trkpt>
      <trkpt lat="49.4544" lon="1.10071">
        <ele>113</ele>
        <time>2022-03-27T09:50:56Z</time>
      </trkpt>
      <trkpt lat="49.4543" lon="1.10063">
        <ele>111.6</ele>
        <time>2022-03-27T09:50:57Z</time>
      </trkpt>
      <trkpt lat="49.45422" lon="1.10052">
        <ele>110.9</ele>
        <time>2022-03-27T09:50:58Z</time>
      </trkpt>
      <trkpt lat="49.45414" lon="1.10038">
        <ele>108.9</ele>
        <time>2022-03-27T09:50:59Z</time>
      </trkpt>
      <trkpt lat="49.45407" lon="1.10023">
        <ele>106.8</ele>
        <time>2022-03-27T09:51:00Z</time>
      </trkpt>
      <trkpt lat="49.45398" lon="1.10009">
        <ele>105.3</ele>
        <time>2022-03-27T09:51:01Z</time>
      </trkpt>
      <trkpt lat="49.45389" lon="1.09996">
        <ele>103.8</ele>
        <time>2022-03-27T09:51:02Z</time>
      </trkpt>
      <trkpt lat="49.45381" lon="1.09983">
        <ele>102.5</ele>
        <time>2022-03-27T09:51:03Z</time>
      </trkpt>
      <trkpt lat="49.45375" lon="1.09972">
        <ele>101.3</ele>
        <time>2022-03-27T09:51:04Z</time>
      </trkpt>
      <trkpt lat="49.45369" lon="1.09961">
        <ele>100.2</ele>
        <time>2022-03-27T09:51:05Z</time>
      </trkpt>
      <trkpt lat="49.45363" lon="1.09951">
        <ele>99.3</ele>
        <time>2022-03-27T09:51:06Z</time>
      </trkpt>
      <trkpt lat="49.45356" lon="1.09944">
        <ele>98.4</ele>
        <time>2022-03-27T09:51:07Z</time>
      </trkpt>
      <trkpt lat="49.45348" lon="1.09938">
        <ele>97.3</ele>
        <time>2022-03-27T09:51:08Z</time>
      </trkpt>
      <trkpt lat="49.45339" lon="1.09936">
        <ele>96.2</ele>
        <time>2022-03-27T09:51:09Z</time>
      </trkpt>
      <trkpt lat="49.4533" lon="1.09935">
        <ele>95.1</ele>
        <time>2022-03-27T09:51:10Z</time>
      </trkpt>
      <trkpt lat="49.45323" lon="1.09934">
        <ele>94.3</ele>
        <time>2022-03-27T09:51:11Z</time>
      </trkpt>
      <trkpt lat="49.45319" lon="1.09934">
        <ele>93.8</ele>
        <time>2022-03-27T09:51:12Z</time>
      </trkpt>
      <trkpt lat="49.45316" lon="1.09932">
        <ele>93.5</ele>
        <time>2022-03-27T09:51:13Z</time>
      </trkpt>
      <trkpt lat="49.45315" lon="1.09931">
        <ele>93.3</ele>
        <time>2022-03-27T09:51:14Z</time>
      </trkpt>
      <trkpt lat="49.45314" lon="1.09931">
        <ele>93.2</ele>
        <time>2022-03-27T09:51:15Z</time>
      </trkpt>
      <trkpt lat="49.45315" lon="1.09931">
        <ele>93.2</ele>
        <time>2022-03-27T09:51:16Z</time>
      </trkpt>
      <trkpt lat="49.45315" lon="1.0993">
        <ele>93.2</ele>
        <time>2022-03-27T09:51:17Z</time>
      </trkpt>
      <trkpt lat="49.45315" lon="1.0993">
        <ele>93.1</ele>
        <time>2022-03-27T09:51:18Z</time>
      </trkpt>
      <trkpt lat="49.45315" lon="1.0993">
        <ele>93.1</ele>
        <time>2022-03-27T09:51:19Z</time>
      </trkpt>
      <trkpt lat="49.45314" lon="1.0993">
        <ele>93</ele>
        <time>2022-03-27T09:51:20Z</time>
      </trkpt>
      <trkpt lat="49.45309" lon="1.0993">
        <ele>92.5</ele>
        <time>2022-03-27T09:51:21Z</time>
      </trkpt>
      <trkpt lat="49.45307" lon="1.09931">
        <ele>92.3</ele>
        <time>2022-03-27T09:51:22Z</time>
      </trkpt>
      <trkpt lat="49.45304" lon="1.0993">
        <ele>91.9</ele>
        <time>2022-03-27T09:51:23Z</time>
      </trkpt>
      <trkpt lat="49.45299" lon="1.09929">
        <ele>91.4</ele>
        <time>2022-03-27T09:51:24Z</time>
      </trkpt>
      <trkpt lat="49.45296" lon="1.09927">
        <ele>91</ele>
        <time>2022-03-27T09:51:25Z</time>
      </trkpt>
      <trkpt lat="49.45294" lon="1.09923">
        <ele>88.6</ele>
        <time>2022-03-27T09:51:26Z</time>
      </trkpt>
      <trkpt lat="49.45295" lon="1.09921">
        <ele>88.5</ele>
        <time>2022-03-27T09:51:27Z</time>
      </trkpt>
      <trkpt lat="49.45296" lon="1.09919">
        <ele>88.4</ele>
        <time>2022-03-27T09:51:28Z</time>
      </trkpt>
      <trkpt lat="49.453" lon="1.0991">
        <ele>87.9</ele>
        <time>2022-03-27T09:51:29Z</time>
      </trkpt>
      <trkpt lat="49.45302" lon="1.099">
        <ele>87.5</ele>
        <time>2022-03-27T09:51:30Z</time>
      </trkpt>
      <trkpt lat="49.45305" lon="1.0989">
        <ele>87</ele>
        <time>2022-03-27T09:51:31Z</time>
      </trkpt>
      <trkpt lat="49.45308" lon="1.0988">
        <ele>86.4</ele>
        <time>2022-03-27T09:51:32Z</time>
      </trkpt>
      <trkpt lat="49.45311" lon="1.0987">
        <ele>85.8</ele>
        <time>2022-03-27T09:51:33Z</time>
      </trkpt>
      <trkpt lat="49.45314" lon="1.09859">
        <ele>85.2</ele>
        <time>2022-03-27T09:51:34Z</time>
      </trkpt>
      <trkpt lat="49.45317" lon="1.09848">
        <ele>84.7</ele>
        <time>2022-03-27T09:51:35Z</time>
      </trkpt>
      <trkpt lat="49.4532" lon="1.09838">
        <ele>84.1</ele>
        <time>2022-03-27T09:51:36Z</time>
      </trkpt>
      <trkpt lat="49.45325" lon="1.09828">
        <ele>83.6</ele>
        <time>2022-03-27T09:51:37Z</time>
      </trkpt>
      <trkpt lat="49.45328" lon="1.09817">
        <ele>83.2</ele>
        <time>2022-03-27T09:51:38Z</time>
      </trkpt>
      <trkpt lat="49.45332" lon="1.09805">
        <ele>82.8</ele>
        <time>2022-03-27T09:51:39Z</time>
      </trkpt>
      <trkpt lat="49.45334" lon="1.09792">
        <ele>82.4</ele>
        <time>2022-03-27T09:51:40Z</time>
      </trkpt>
      <trkpt lat="49.45332" lon="1.09778">
        <ele>82</ele>
        <time>2022-03-27T09:51:41Z</time>
      </trkpt>
      <trkpt lat="49.45327" lon="1.09766">
        <ele>81.5</ele>
        <time>2022-03-27T09:51:42Z</time>
      </trkpt>
      <trkpt lat="49.4532" lon="1.09756">
        <ele>80.9</ele>
        <time>2022-03-27T09:51:43Z</time>
      </trkpt>
      <trkpt lat="49.4531" lon="1.09751">
        <ele>80.2</ele>
        <time>2022-03-27T09:51:44Z</time>
      </trkpt>
      <trkpt lat="49.45301" lon="1.09751">
        <ele>79.6</ele>
        <time>2022-03-27T09:51:45Z</time>
      </trkpt>
      <trkpt lat="49.45293" lon="1.09756">
        <ele>79</ele>
        <time>2022-03-27T09:51:46Z</time>
      </trkpt>
      <trkpt lat="49.45285" lon="1.09761">
        <ele>78.7</ele>
        <time>2022-03-27T09:51:47Z</time>
      </trkpt>
      <trkpt lat="49.45276" lon="1.09763">
        <ele>78.1</ele>
        <time>2022-03-27T09:51:48Z</time>
      </trkpt>
      <trkpt lat="49.45266" lon="1.09766">
        <ele>77.4</ele>
        <time>2022-03-27T09:51:49Z</time>
      </trkpt>
      <trkpt lat="49.45256" lon="1.0977">
        <ele>76.9</ele>
        <time>2022-03-27T09:51:50Z</time>
      </trkpt>
      <trkpt lat="49.45246" lon="1.09775">
        <ele>76</ele>
        <time>2022-03-27T09:51:51Z</time>
      </trkpt>
      <trkpt lat="49.45238" lon="1.0978">
        <ele>75.1</ele>
        <time>2022-03-27T09:51:52Z</time>
      </trkpt>
      <trkpt lat="49.45229" lon="1.09785">
        <ele>74.1</ele>
        <time>2022-03-27T09:51:53Z</time>
      </trkpt>
      <trkpt lat="49.45217" lon="1.0979">
        <ele>72.9</ele>
        <time>2022-03-27T09:51:54Z</time>
      </trkpt>
      <trkpt lat="49.45205" lon="1.09793">
        <ele>71.7</ele>
        <time>2022-03-27T09:51:55Z</time>
      </trkpt>
      <trkpt lat="49.45195" lon="1.09799">
        <ele>70.6</ele>
        <time>2022-03-27T09:51:56Z</time>
      </trkpt>
      <trkpt lat="49.45186" lon="1.09806">
        <ele>69.7</ele>
        <time>2022-03-27T09:51:57Z</time>
      </trkpt>
      <trkpt lat="49.45175" lon="1.09812">
        <ele>69.1</ele>
        <time>2022-03-27T09:51:58Z</time>
      </trkpt>
      <trkpt lat="49.45165" lon="1.0982">
        <ele>68.6</ele>
        <time>2022-03-27T09:51:59Z</time>
      </trkpt>
      <trkpt lat="49.45155" lon="1.09826">
        <ele>67.7</ele>
        <time>2022-03-27T09:52:00Z</time>
      </trkpt>
      <trkpt lat="49.45144" lon="1.0983">
        <ele>66.8</ele>
        <time>2022-03-27T09:52:01Z</time>
      </trkpt>
      <trkpt lat="49.45133" lon="1.09835">
        <ele>65.8</ele>
        <time>2022-03-27T09:52:02Z</time>
      </trkpt>
      <trkpt lat="49.45122" lon="1.09839">
        <ele>64.9</ele>
        <time>2022-03-27T09:52:03Z</time>
      </trkpt>
      <trkpt lat="49.45112" lon="1.09843">
        <ele>64</ele>
        <time>2022-03-27T09:52:04Z</time>
      </trkpt>
      <trkpt lat="49.45101" lon="1.09848">
        <ele>63.1</ele>
        <time>2022-03-27T09:52:05Z</time>
      </trkpt>
      <trkpt lat="49.4509" lon="1.09851">
        <ele>62.2</ele>
        <time>2022-03-27T09:52:06Z</time>
      </trkpt>
      <trkpt lat="49.4508" lon="1.09854">
        <ele>61.3</ele>
        <time>2022-03-27T09:52:07Z</time>
      </trkpt>
      <trkpt lat="49.45069" lon="1.09857">
        <ele>60.4</ele>
        <time>2022-03-27T09:52:08Z</time>
      </trkpt>
      <trkpt lat="49.45059" lon="1.09859">
        <ele>59.4</ele>
        <time>2022-03-27T09:52:09Z</time>
      </trkpt>
      <trkpt lat="49.45049" lon="1.09861">
        <ele>58.6</ele>
        <time>2022-03-27T09:52:10Z</time>
      </trkpt>
      <trkpt lat="49.45038" lon="1.09857">
        <ele>57.8</ele>
        <time>2022-03-27T09:52:11Z</time>
      </trkpt>
      <trkpt lat="49.45026" lon="1.09853">
        <ele>57</ele>
        <time>2022-03-27T09:52:12Z</time>
      </trkpt>
      <trkpt lat="49.45015" lon="1.09851">
        <ele>56.2</ele>
        <time>2022-03-27T09:52:13Z</time>
      </trkpt>
      <trkpt lat="49.45005" lon="1.09846">
        <ele>55.4</ele>
        <time>2022-03-27T09:52:14Z</time>
      </trkpt>
      <trkpt lat="49.44995" lon="1.09841">
        <ele>54.7</ele>
        <time>2022-03-27T09:52:15Z</time>
      </trkpt>
      <trkpt lat="49.44986" lon="1.09837">
        <ele>54.1</ele>
        <time>2022-03-27T09:52:16Z</time>
      </trkpt>
      <trkpt lat="49.44978" lon="1.09833">
        <ele>53.6</ele>
        <time>2022-03-27T09:52:17Z</time>
      </trkpt>
      <trkpt lat="49.44973" lon="1.09828">
        <ele>53.3</ele>
        <time>2022-03-27T09:52:18Z</time>
      </trkpt>
      <trkpt lat="49.44967" lon="1.09826">
        <ele>53.1</ele>
        <time>2022-03-27T09:52:19Z</time>
      </trkpt>
      <trkpt lat="49.44961" lon="1.09825">
        <ele>52.8</ele>
        <time>2022-03-27T09:52:20Z</time>
      </trkpt>
      <trkpt lat="49.44957" lon="1.09824">
        <ele>52.6</ele>
        <time>2022-03-27T09:52:21Z</time>
      </trkpt>
      <trkpt lat="49.44953" lon="1.09821">
        <ele>52.4</ele>
        <time>2022-03-27T09:52:22Z</time>
      </trkpt>
      <trkpt lat="49.44948" lon="1.09819">
        <ele>52.1</ele>
        <time>2022-03-27T09:52:23Z</time>
      </trkpt>
      <trkpt lat="49.44943" lon="1.09817">
        <ele>52</ele>
        <time>2022-03-27T09:52:24Z</time>
      </trkpt>
      <trkpt lat="49.44938" lon="1.09817">
        <ele>51.8</ele>
        <time>2022-03-27T09:52:25Z</time>
      </trkpt>
      <trkpt lat="49.44932" lon="1.09814">
        <ele>51.7</ele>
        <time>2022-03-27T09:52:26Z</time>
      </trkpt>
      <trkpt lat="49.44927" lon="1.09811">
        <ele>51.5</ele>
        <time>2022-03-27T09:52:27Z</time>
      </trkpt>
      <trkpt lat="49.44922" lon="1.09807">
        <ele>51.4</ele>
        <time>2022-03-27T09:52:28Z</time>
      </trkpt>
      <trkpt lat="49.44918" lon="1.09801">
        <ele>51.3</ele>
        <time>2022-03-27T09:52:29Z</time>
      </trkpt>
      <trkpt lat="49.44912" lon="1.09797">
        <ele>51.3</ele>
        <time>2022-03-27T09:52:30Z</time>
      </trkpt>
      <trkpt lat="49.44906" lon="1.09793">
        <ele>51.2</ele>
        <time>2022-03-27T09:52:31Z</time>
      </trkpt>
      <trkpt lat="49.449" lon="1.09787">
        <ele>51</ele>
        <time>2022-03-27T09:52:32Z</time>
      </trkpt>
      <trkpt lat="49.44894" lon="1.09784">
        <ele>50.7</ele>
        <time>2022-03-27T09:52:33Z</time>
      </trkpt>
      <trkpt lat="49.44889" lon="1.09782">
        <ele>50.5</ele>
        <time>2022-03-27T09:52:34Z</time>
      </trkpt>
      <trkpt lat="49.44882" lon="1.09779">
        <ele>50.2</ele>
        <time>2022-03-27T09:52:35Z</time>
      </trkpt>
      <trkpt lat="49.44876" lon="1.09776">
        <ele>50</ele>
        <time>2022-03-27T09:52:36Z</time>
      </trkpt>
      <trkpt lat="49.44869" lon="1.09772">
        <ele>49.7</ele>
        <time>2022-03-27T09:52:37Z</time>
      </trkpt>
      <trkpt lat="49.44861" lon="1.09769">
        <ele>49.5</ele>
        <time>2022-03-27T09:52:38Z</time>
      </trkpt>
      <trkpt lat="49.44853" lon="1.09765">
        <ele>49.2</ele>
        <time>2022-03-27T09:52:39Z</time>
      </trkpt>
      <trkpt lat="49.44845" lon="1.09761">
        <ele>48.9</ele>
        <time>2022-03-27T09:52:40Z</time>
      </trkpt>
      <trkpt lat="49.44837" lon="1.09757">
        <ele>48.7</ele>
        <time>2022-03-27T09:52:41Z</time>
      </trkpt>
      <trkpt lat="49.4483" lon="1.09753">
        <ele>48.4</ele>
        <time>2022-03-27T09:52:42Z</time>
      </trkpt>
      <trkpt lat="49.44823" lon="1.09752">
        <ele>48.1</ele>
        <time>2022-03-27T09:52:43Z</time>
      </trkpt>
      <trkpt lat="49.44816" lon="1.09748">
        <ele>47.8</ele>
        <time>2022-03-27T09:52:44Z</time>
      </trkpt>
      <trkpt lat="49.4481" lon="1.09743">
        <ele>47.5</ele>
        <time>2022-03-27T09:52:45Z</time>
      </trkpt>
      <trkpt lat="49.44803" lon="1.09737">
        <ele>47</ele>
        <time>2022-03-27T09:52:46Z</time>
      </trkpt>
      <trkpt lat="49.44797" lon="1.09728">
        <ele>46.6</ele>
        <time>2022-03-27T09:52:47Z</time>
      </trkpt>
      <trkpt lat="49.44792" lon="1.09716">
        <ele>46</ele>
        <time>2022-03-27T09:52:48Z</time>
      </trkpt>
      <trkpt lat="49.44785" lon="1.09709">
        <ele>45.6</ele>
        <time>2022-03-27T09:52:49Z</time>
      </trkpt>
      <trkpt lat="49.44779" lon="1.09699">
        <ele>45</ele>
        <time>2022-03-27T09:52:50Z</time>
      </trkpt>
      <trkpt lat="49.44774" lon="1.09687">
        <ele>44.5</ele>
        <time>2022-03-27T09:52:51Z</time>
      </trkpt>
      <trkpt lat="49.44767" lon="1.09678">
        <ele>44</ele>
        <time>2022-03-27T09:52:52Z</time>
      </trkpt>
      <trkpt lat="49.44761" lon="1.09668">
        <ele>43.5</ele>
        <time>2022-03-27T09:52:53Z</time>
      </trkpt>
      <trkpt lat="49.44754" lon="1.09658">
        <ele>42.9</ele>
        <time>2022-03-27T09:52:54Z</time>
      </trkpt>
      <trkpt lat="49.44747" lon="1.09648">
        <ele>42.3</ele>
        <time>2022-03-27T09:52:55Z</time>
      </trkpt>
      <trkpt lat="49.4474" lon="1.09638">
        <ele>41.6</ele>
        <time>2022-03-27T09:52:56Z</time>
      </trkpt>
      <trkpt lat="49.44733" lon="1.09628">
        <ele>41</ele>
        <time>2022-03-27T09:52:57Z</time>
      </trkpt>
      <trkpt lat="49.44727" lon="1.09619">
        <ele>40.4</ele>
        <time>2022-03-27T09:52:58Z</time>
      </trkpt>
      <trkpt lat="49.44719" lon="1.09612">
        <ele>40.2</ele>
        <time>2022-03-27T09:52:59Z</time>
      </trkpt>
      <trkpt lat="49.44712" lon="1.09604">
        <ele>40.4</ele>
        <time>2022-03-27T09:53:00Z</time>
      </trkpt>
      <trkpt lat="49.44705" lon="1.09598">
        <ele>39.9</ele>
        <time>2022-03-27T09:53:01Z</time>
      </trkpt>
      <trkpt lat="49.44698" lon="1.09592">
        <ele>39.4</ele>
        <time>2022-03-27T09:53:02Z</time>
      </trkpt>
      <trkpt lat="49.44692" lon="1.09586">
        <ele>39</ele>
        <time>2022-03-27T09:53:03Z</time>
      </trkpt>
      <trkpt lat="49.44685" lon="1.0958">
        <ele>38.6</ele>
        <time>2022-03-27T09:53:04Z</time>
      </trkpt>
      <trkpt lat="49.44678" lon="1.09573">
        <ele>38.1</ele>
        <time>2022-03-27T09:53:05Z</time>
      </trkpt>
      <trkpt lat="49.44671" lon="1.09565">
        <ele>37.5</ele>
        <time>2022-03-27T09:53:06Z</time>
      </trkpt>
      <trkpt lat="49.44664" lon="1.09557">
        <ele>37</ele>
        <time>2022-03-27T09:53:07Z</time>
      </trkpt>
      <trkpt lat="49.44656" lon="1.09551">
        <ele>36.4</ele>
        <time>2022-03-27T09:53:08Z</time>
      </trkpt>
      <trkpt lat="49.44649" lon="1.09544">
        <ele>35.9</ele>
        <time>2022-03-27T09:53:09Z</time>
      </trkpt>
      <trkpt lat="49.44643" lon="1.09537">
        <ele>35.4</ele>
        <time>2022-03-27T09:53:10Z</time>
      </trkpt>
      <trkpt lat="49.44638" lon="1.09531">
        <ele>35</ele>
        <time>2022-03-27T09:53:11Z</time>
      </trkpt>
      <trkpt lat="49.44636" lon="1.09526">
        <ele>34.7</ele>
        <time>2022-03-27T09:53:12Z</time>
      </trkpt>
      <trkpt lat="49.44634" lon="1.09522">
        <ele>34.6</ele>
        <time>2022-03-27T09:53:13Z</time>
      </trkpt>
      <trkpt lat="49.44633" lon="1.09518">
        <ele>34.4</ele>
        <time>2022-03-27T09:53:14Z</time>
      </trkpt>
      <trkpt lat="49.44632" lon="1.09517">
        <ele>34.4</ele>
        <time>2022-03-27T09:53:15Z</time>
      </trkpt>
      <trkpt lat="49.4463" lon="1.09513">
        <ele>34.2</ele>
        <time>2022-03-27T09:53:16Z</time>
      </trkpt>
      <trkpt lat="49.44627" lon="1.09507">
        <ele>33.9</ele>
        <time>2022-03-27T09:53:17Z</time>
      </trkpt>
      <trkpt lat="49.44622" lon="1.09501">
        <ele>33.5</ele>
        <time>2022-03-27T09:53:18Z</time>
      </trkpt>
      <trkpt lat="49.44617" lon="1.09497">
        <ele>33.1</ele>
        <time>2022-03-27T09:53:19Z</time>
      </trkpt>
      <trkpt lat="49.44612" lon="1.09494">
        <ele>32.7</ele>
        <time>2022-03-27T09:53:20Z</time>
      </trkpt>
      <trkpt lat="49.44608" lon="1.09494">
        <ele>32.3</ele>
        <time>2022-03-27T09:53:21Z</time>
      </trkpt>
      <trkpt lat="49.44604" lon="1.09492">
        <ele>31.9</ele>
        <time>2022-03-27T09:53:22Z</time>
      </trkpt>
      <trkpt lat="49.44599" lon="1.09487">
        <ele>31.4</ele>
        <time>2022-03-27T09:53:24Z</time>
      </trkpt>
      <trkpt lat="49.44592" lon="1.09478">
        <ele>30.5</ele>
        <time>2022-03-27T09:53:25Z</time>
      </trkpt>
      <trkpt lat="49.44586" lon="1.09473">
        <ele>29.8</ele>
        <time>2022-03-27T09:53:26Z</time>
      </trkpt>
      <trkpt lat="49.44579" lon="1.0947">
        <ele>29.1</ele>
        <time>2022-03-27T09:53:27Z</time>
      </trkpt>
      <trkpt lat="49.44572" lon="1.09465">
        <ele>28.4</ele>
        <time>2022-03-27T09:53:28Z</time>
      </trkpt>
      <trkpt lat="49.44565" lon="1.0946">
        <ele>27.7</ele>
        <time>2022-03-27T09:53:29Z</time>
      </trkpt>
      <trkpt lat="49.44557" lon="1.09456">
        <ele>27.3</ele>
        <time>2022-03-27T09:53:30Z</time>
      </trkpt>
      <trkpt lat="49.44551" lon="1.09451">
        <ele>27.1</ele>
        <time>2022-03-27T09:53:31Z</time>
      </trkpt>
      <trkpt lat="49.44547" lon="1.09444">
        <ele>26.9</ele>
        <time>2022-03-27T09:53:32Z</time>
      </trkpt>
      <trkpt lat="49.44542" lon="1.09436">
        <ele>26.8</ele>
        <time>2022-03-27T09:53:33Z</time>
      </trkpt>
      <trkpt lat="49.44536" lon="1.09428">
        <ele>26.7</ele>
        <time>2022-03-27T09:53:34Z</time>
      </trkpt>
      <trkpt lat="49.4453" lon="1.09424">
        <ele>26.7</ele>
        <time>2022-03-27T09:53:35Z</time>
      </trkpt>
      <trkpt lat="49.44526" lon="1.0942">
        <ele>26.7</ele>
        <time>2022-03-27T09:53:36Z</time>
      </trkpt>
      <trkpt lat="49.44524" lon="1.09414">
        <ele>26.6</ele>
        <time>2022-03-27T09:53:37Z</time>
      </trkpt>
      <trkpt lat="49.4452" lon="1.0941">
        <ele>26.6</ele>
        <time>2022-03-27T09:53:39Z</time>
      </trkpt>
      <trkpt lat="49.44519" lon="1.09409">
        <ele>26.5</ele>
        <time>2022-03-27T09:53:40Z</time>
      </trkpt>
      <trkpt lat="49.44519" lon="1.09409">
        <ele>26.5</ele>
        <time>2022-03-27T09:53:41Z</time>
      </trkpt>
      <trkpt lat="49.44518" lon="1.09408">
        <ele>26.5</ele>
        <time>2022-03-27T09:53:42Z</time>
      </trkpt>
      <trkpt lat="49.44516" lon="1.09403">
        <ele>26.4</ele>
        <time>2022-03-27T09:53:43Z</time>
      </trkpt>
      <trkpt lat="49.44515" lon="1.09401">
        <ele>26.4</ele>
        <time>2022-03-27T09:53:44Z</time>
      </trkpt>
      <trkpt lat="49.44514" lon="1.09401">
        <ele>26.4</ele>
        <time>2022-03-27T09:53:45Z</time>
      </trkpt>
      <trkpt lat="49.44513" lon="1.09402">
        <ele>26.3</ele>
        <time>2022-03-27T09:53:46Z</time>
      </trkpt>
      <trkpt lat="49.44511" lon="1.09403">
        <ele>26.3</ele>
        <time>2022-03-27T09:53:48Z</time>
      </trkpt>
      <trkpt lat="49.44509" lon="1.09403">
        <ele>26.3</ele>
        <time>2022-03-27T09:53:49Z</time>
      </trkpt>
      <trkpt lat="49.44509" lon="1.09403">
        <ele>26.3</ele>
        <time>2022-03-27T09:53:50Z</time>
      </trkpt>
      <trkpt lat="49.44509" lon="1.09403">
        <ele>26.3</ele>
        <time>2022-03-27T09:53:51Z</time>
      </trkpt>
      <trkpt lat="49.44509" lon="1.09403">
        <ele>26.3</ele>
        <time>2022-03-27T09:53:52Z</time>
      </trkpt>
      <trkpt lat="49.44509" lon="1.09403">
        <ele>26.3</ele>
        <time>2022-03-27T09:53:53Z</time>
      </trkpt>
    </trkseg>
  </trk>
</gpx>